
Distance (Route):
Temperature : 21.7°C
Humidity : 40.5%
Pressure : 948.9hPa| Receiver | Frames | First received | Last received |
|---|---|---|---|
| DO3MHA-11 | 644 | 2026-08-31 16:14:47 | 2026-08-31 18:13:41 |
| DO3MHA-12 | 468 | 2026-08-31 16:14:39 | 2026-08-31 18:13:11 |
| OE5MMP-10 | 421 | 2026-08-31 16:43:35 | 2026-08-31 18:17:10 |
| OE3JTB-15 | 212 | 2026-08-31 17:10:29 | 2026-08-31 18:16:15 |
| OE5DRO-10 | 182 | 2026-08-31 16:29:46 | 2026-08-31 18:11:24 |
| OE5DXL-15 | 158 | 2026-08-31 16:20:30 | 2026-08-31 18:17:26 |
| BAUMI2-15 | 155 | 2026-08-31 16:43:10 | 2026-08-31 17:51:02 |
| OE5WHR-10 | 141 | 2026-08-31 16:37:50 | 2026-08-31 18:09:40 |
| DG1MFX-10 | 125 | 2026-08-31 16:20:14 | 2026-08-31 18:07:58 |
| NBG1-10 | 120 | 2026-08-31 16:19:22 | 2026-08-31 17:59:43 |
| DL6DJ-15 | 111 | 2026-08-31 16:24:10 | 2026-08-31 18:02:02 |
| DB0UT-7 | 108 | 2026-08-31 16:28:00 | 2026-08-31 17:51:14 |
| DM0DOS-11 | 108 | 2026-08-31 17:11:47 | 2026-08-31 17:33:47 |
| S52SK | 98 | 2026-08-31 17:03:02 | 2026-08-31 17:31:24 |
| PG1ADW-2 | 94 | 2026-08-31 16:47:12 | 2026-08-31 17:55:46 |
| DK5PH-5 | 76 | 2026-08-31 16:51:25 | 2026-08-31 17:45:35 |
| DG1MJG | 68 | 2026-08-31 16:14:48 | 2026-08-31 17:46:04 |
| PETON7-10 | 63 | 2026-08-31 17:11:06 | 2026-08-31 17:32:10 |
| DF7PN | 57 | 2026-08-31 16:48:19 | 2026-08-31 17:44:45 |
| OE5REO-15 | 57 | 2026-08-31 17:11:43 | 2026-08-31 18:01:54 |
| DB0NH | 49 | 2026-08-31 16:24:09 | 2026-08-31 18:02:46 |
| OM5KV | 48 | 2026-08-31 17:30:30 | 2026-08-31 17:38:35 |
| DF3TZ-5 | 41 | 2026-08-31 16:35:08 | 2026-08-31 17:54:17 |
| OE5HKT-10 | 38 | 2026-08-31 17:09:38 | 2026-08-31 18:10:12 |
| DB0ND-19 | 25 | 2026-08-31 16:22:03 | 2026-08-31 17:47:59 |
| DM7RM-13 | 22 | 2026-08-31 16:49:11 | 2026-08-31 17:07:50 |
| DO7DH-14 | 19 | 2026-08-31 17:37:04 | 2026-08-31 17:52:32 |
| DN1GJH-1 | 17 | 2026-08-31 16:58:45 | 2026-08-31 17:18:34 |
| DL1ZP-14 | 17 | 2026-08-31 17:12:05 | 2026-08-31 17:32:48 |
| SONDE2-11 | 15 | 2026-08-31 17:19:31 | 2026-08-31 17:31:56 |
| DO8TBO-1 | 14 | 2026-08-31 16:40:20 | 2026-08-31 17:01:42 |
| DH7VM-15 | 7 | 2026-08-31 17:03:32 | 2026-08-31 17:44:22 |
| IN3HCDX | 6 | 2026-08-31 17:25:55 | 2026-08-31 17:35:06 |
| DF9NV-10 | 5 | 2026-08-31 17:15:19 | 2026-08-31 17:21:18 |
| EDDB2-11 | 5 | 2026-08-31 17:28:44 | 2026-08-31 17:31:19 |
| OE8JPQ-2 | 4 | 2026-08-31 17:28:21 | 2026-08-31 17:29:46 |
| SONCRA | 3 | 2026-08-31 17:28:25 | 2026-08-31 17:29:58 |
| Receiver | Date | Latitude | Longitude | Direction | Speed | Altitude | Climb | Temperature | Humidity | Pressure | Voltage | Killtimer | Uptime | BKT | XDATA |
|---|---|---|---|---|---|---|---|---|---|---|---|---|---|---|---|
| OE5DXL-15 | 2026-08-31 18:17:26 | 48.39746 | 13.06851 | 100° | 22km/h | 636m | -3.0m/s | 21.7°C | 40.5% | 948.9hPa | 2.7V | 00:00:00 | 00:00:00 | 00:00:00 | |
| OE5DXL-15 | 2026-08-31 18:17:24 | 48.39749 | 13.06836 | 108° | 22km/h | 642m | -3.1m/s | 21.7°C | 40.6% | 948.2hPa | 2.7V | 01:17:00 | 00:00:00 | 00:00:00 | |
| OE5DXL-15 | 2026-08-31 18:17:22 | 48.39752 | 13.06819 | 106° | 22km/h | 648m | -3.1m/s | 21.7°C | 40.6% | 947.4hPa | 2.7V | 00:00:00 | 00:00:00 | 00:00:00 | |
| OE5MMP-10 | 2026-08-31 18:17:10 | 48.39771 | 13.06720 | 106° | 27km/h | 690m | -3.6m/s | 21.4°C | 40.9% | 943.1hPa | 2.7V | 00:00:00 | 02:10:53 | 00:00:00 | |
| OE5DXL-15 | 2026-08-31 18:17:10 | 48.39771 | 13.06720 | 106° | 27km/h | 690m | -3.6m/s | 21.4°C | 40.9% | 943.1hPa | 2.7V | 00:00:00 | 00:00:00 | 00:00:00 | |
| OE5MMP-10 | 2026-08-31 18:17:08 | 48.39775 | 13.06700 | 107° | 27km/h | 697m | -3.6m/s | 21.3°C | 41.1% | 942.2hPa | 2.7V | 01:17:00 | 02:10:51 | 00:00:00 | |
| OE5DXL-15 | 2026-08-31 18:17:07 | 48.39777 | 13.06690 | 110° | 27km/h | 701m | -3.8m/s | 21.3°C | 41.2% | 941.8hPa | 2.7V | 01:17:00 | 00:00:00 | 00:00:00 | |
| OE5DXL-15 | 2026-08-31 18:17:02 | 48.39787 | 13.06639 | 103° | 26km/h | 719m | -3.4m/s | 21.1°C | 41.6% | 939.9hPa | 2.7V | 00:00:00 | 02:10:45 | 00:00:00 | |
| OE5DXL-15 | 2026-08-31 18:16:53 | 48.39800 | 13.06553 | 104° | 27km/h | 751m | -3.4m/s | 21.0°C | 41.0% | 936.1hPa | 2.7V | 01:17:00 | 00:00:00 | 00:00:00 | |
| OE5DXL-15 | 2026-08-31 18:16:46 | 48.39810 | 13.06482 | 101° | 27km/h | 777m | -3.7m/s | 20.8°C | 41.5% | 933.6hPa | 2.7V | 00:00:00 | 00:00:00 | 00:00:00 | |
| OE5DXL-15 | 2026-08-31 18:16:39 | 48.39819 | 13.06411 | 105° | 27km/h | 802m | -3.6m/s | 20.6°C | 41.6% | 930.9hPa | 2.7V | 01:17:00 | 00:00:00 | 00:00:00 | |
| OE5DXL-15 | 2026-08-31 18:16:33 | 48.39829 | 13.06349 | 105° | 27km/h | 824m | -3.5m/s | 20.4°C | 42.0% | 928.5hPa | 2.7V | 00:00:00 | 00:00:00 | 00:00:00 | |
| OE5DXL-15 | 2026-08-31 18:16:27 | 48.39839 | 13.06288 | 106° | 29km/h | 846m | -3.4m/s | 20.2°C | 42.4% | 926.0hPa | 2.6V | 01:18:00 | 00:00:00 | 00:00:00 | |
| OE5DXL-15 | 2026-08-31 18:16:21 | 48.39850 | 13.06222 | 102° | 29km/h | 868m | -3.9m/s | 20.0°C | 42.6% | 923.6hPa | 2.6V | 00:00:00 | 00:00:00 | 00:00:00 | |
| OE3JTB-15 | 2026-08-31 18:16:15 | 48.39859 | 13.06156 | 105° | 29km/h | 891m | -3.8m/s | 19.7°C | 43.3% | 921.2hPa | 2.6V | 00:00:00 | 00:00:00 | 00:00:00 | |
| OE5DXL-15 | 2026-08-31 18:16:15 | 48.39859 | 13.06156 | 105° | 29km/h | 891m | -3.8m/s | 19.7°C | 43.3% | 921.2hPa | 2.6V | 01:18:00 | 00:00:00 | 00:00:00 | |
| OE3JTB-15 | 2026-08-31 18:16:13 | 48.39862 | 13.06134 | 100° | 27km/h | 898m | -3.7m/s | 19.7°C | 43.4% | 920.5hPa | 2.7V | 01:18:00 | 00:00:00 | 00:00:00 | |
| OE3JTB-15 | 2026-08-31 18:16:11 | 48.39865 | 13.06113 | 105° | 27km/h | 906m | -3.7m/s | 19.6°C | 43.5% | 919.6hPa | 2.7V | 00:00:00 | 02:09:54 | 00:00:00 | |
| OE3JTB-15 | 2026-08-31 18:16:09 | 48.39869 | 13.06092 | 104° | 29km/h | 913m | -3.7m/s | 19.5°C | 43.6% | 918.7hPa | 2.7V | 01:18:00 | 00:00:00 | 00:00:00 | |
| OE5DXL-15 | 2026-08-31 18:16:09 | 48.39869 | 13.06092 | 104° | 29km/h | 913m | -3.7m/s | 19.5°C | 43.6% | 918.7hPa | 2.7V | 00:00:00 | 00:00:00 | 00:00:00 | |
| OE3JTB-15 | 2026-08-31 18:16:07 | 48.39872 | 13.06070 | 103° | 29km/h | 920m | -3.7m/s | 19.5°C | 43.6% | 918.2hPa | 2.7V | 00:00:00 | 00:00:00 | 00:00:00 | |
| OE3JTB-15 | 2026-08-31 18:16:05 | 48.39875 | 13.06048 | 104° | 31km/h | 928m | -3.8m/s | 19.4°C | 43.8% | 917.2hPa | 2.7V | 01:18:00 | 02:09:48 | 00:00:00 | |
| OE3JTB-15 | 2026-08-31 18:16:03 | 48.39878 | 13.06024 | 97° | 31km/h | 936m | -3.6m/s | 19.3°C | 43.9% | 916.4hPa | 2.7V | 00:00:00 | 00:00:00 | 00:00:00 | |
| OE5DXL-15 | 2026-08-31 18:16:03 | 48.39878 | 13.06024 | 97° | 27km/h | 936m | -3.6m/s | 19.3°C | 43.9% | 916.4hPa | 2.7V | 01:18:00 | 00:00:00 | 00:00:00 | |
| OE3JTB-15 | 2026-08-31 18:16:01 | 48.39879 | 13.06002 | 94° | 27km/h | 943m | -3.7m/s | 19.2°C | 44.2% | 915.5hPa | 2.7V | 01:18:00 | 00:00:00 | 00:00:00 | |
| OE3JTB-15 | 2026-08-31 18:15:59 | 48.39881 | 13.05982 | 103° | 26km/h | 950m | -3.9m/s | 19.2°C | 44.3% | 914.9hPa | 2.7V | 00:00:00 | 02:09:42 | 00:00:00 | |
| OE3JTB-15 | 2026-08-31 18:15:57 | 48.39885 | 13.05962 | 108° | 29km/h | 958m | -3.6m/s | 19.1°C | 44.5% | 914.0hPa | 2.7V | 01:18:00 | 00:00:00 | 00:00:00 | |
| OE5DXL-15 | 2026-08-31 18:15:57 | 48.39885 | 13.05962 | 108° | 29km/h | 958m | -3.6m/s | 19.1°C | 44.5% | 914.0hPa | 2.7V | 00:00:00 | 00:00:00 | 00:00:00 | |
| OE3JTB-15 | 2026-08-31 18:15:55 | 48.39889 | 13.05940 | 105° | 29km/h | 965m | -3.7m/s | 19.0°C | 44.7% | 913.2hPa | 2.7V | 00:00:00 | 00:00:00 | 00:00:00 | |
| OE3JTB-15 | 2026-08-31 18:15:53 | 48.39893 | 13.05919 | 106° | 29km/h | 972m | -3.6m/s | 19.0°C | 44.8% | 912.5hPa | 2.7V | 01:18:00 | 02:09:36 | 00:00:00 | |
| OE5DXL-15 | 2026-08-31 18:15:51 | 48.39897 | 13.05896 | 104° | 31km/h | 980m | -3.8m/s | 18.9°C | 44.9% | 911.8hPa | 2.7V | 01:18:00 | 00:00:00 | 00:00:00 | |
| OE3JTB-15 | 2026-08-31 18:15:51 | 48.39897 | 13.05896 | 104° | 33km/h | 980m | -3.8m/s | 18.9°C | 44.9% | 911.8hPa | 2.7V | 00:00:00 | 00:00:00 | 00:00:00 | |
| OE3JTB-15 | 2026-08-31 18:15:49 | 48.39899 | 13.05871 | 95° | 33km/h | 987m | -3.9m/s | 18.8°C | 45.2% | 910.8hPa | 2.7V | 01:18:00 | 00:00:00 | 00:00:00 | |
| OE3JTB-15 | 2026-08-31 18:15:47 | 48.39900 | 13.05846 | 89° | 29km/h | 995m | -3.7m/s | 18.7°C | 45.3% | 910.2hPa | 2.7V | 00:00:00 | 02:09:30 | 00:00:00 | |
| OE5DXL-15 | 2026-08-31 18:15:45 | 48.39899 | 13.05825 | 91° | 24km/h | 1003m | -4.1m/s | 18.7°C | 45.4% | 909.3hPa | 2.7V | 00:00:00 | 00:00:00 | 00:00:00 | |
| OE3JTB-15 | 2026-08-31 18:15:45 | 48.39899 | 13.05825 | 91° | 24km/h | 1003m | -4.1m/s | 18.7°C | 45.4% | 909.3hPa | 2.7V | 01:18:00 | 00:00:00 | 00:00:00 | |
| OE3JTB-15 | 2026-08-31 18:15:43 | 48.39900 | 13.05808 | 101° | 22km/h | 1011m | -3.9m/s | 18.6°C | 45.7% | 908.3hPa | 2.7V | 00:00:00 | 00:00:00 | 00:00:00 | |
| OE3JTB-15 | 2026-08-31 18:15:41 | 48.39903 | 13.05791 | 112° | 26km/h | 1019m | -3.9m/s | 18.5°C | 45.8% | 907.6hPa | 2.7V | 01:18:00 | 02:09:24 | 00:00:00 | |
| OE3JTB-15 | 2026-08-31 18:15:39 | 48.39909 | 13.05773 | 116° | 29km/h | 1026m | -3.8m/s | 18.4°C | 46.1% | 906.8hPa | 2.7V | 00:00:00 | 00:00:00 | 00:00:00 | |
| OE5DXL-15 | 2026-08-31 18:15:39 | 48.39909 | 13.05773 | 116° | 35km/h | 1026m | -3.8m/s | 18.4°C | 46.1% | 906.8hPa | 2.7V | 01:18:00 | 00:00:00 | 00:00:00 | |
| OE5MMP-10 | 2026-08-31 18:15:38 | 48.39912 | 13.05763 | 116° | 35km/h | 1030m | -3.6m/s | 18.4°C | 46.1% | 906.5hPa | 2.7V | 00:00:00 | 02:09:21 | 00:00:00 | |
| OE3JTB-15 | 2026-08-31 18:15:37 | 48.39915 | 13.05752 | 113° | 35km/h | 1034m | -3.5m/s | 18.4°C | 46.2% | 905.9hPa | 2.7V | 01:18:00 | 00:00:00 | 00:00:00 | |
| OE3JTB-15 | 2026-08-31 18:15:35 | 48.39921 | 13.05726 | 106° | 37km/h | 1041m | -3.6m/s | 18.3°C | 46.3% | 905.4hPa | 2.7V | 00:00:00 | 02:09:18 | 00:00:00 | |
| OE3JTB-15 | 2026-08-31 18:15:33 | 48.39925 | 13.05699 | 97° | 35km/h | 1048m | -3.6m/s | 18.2°C | 46.3% | 904.4hPa | 2.7V | 01:18:00 | 00:00:00 | 00:00:00 | |
| OE5DXL-15 | 2026-08-31 18:15:33 | 48.39925 | 13.05699 | 97° | 31km/h | 1048m | -3.6m/s | 18.2°C | 46.3% | 904.4hPa | 2.7V | 00:00:00 | 00:00:00 | 00:00:00 | |
| OE3JTB-15 | 2026-08-31 18:15:31 | 48.39925 | 13.05673 | 90° | 31km/h | 1056m | -3.5m/s | 18.2°C | 46.6% | 903.5hPa | 2.7V | 00:00:00 | 00:00:00 | 00:00:00 | |
| OE3JTB-15 | 2026-08-31 18:15:29 | 48.39925 | 13.05650 | 87° | 27km/h | 1063m | -3.4m/s | 18.1°C | 46.6% | 902.9hPa | 2.7V | 01:19:00 | 02:09:12 | 00:00:00 | |
| OE3JTB-15 | 2026-08-31 18:15:27 | 48.39925 | 13.05630 | 93° | 24km/h | 1070m | -3.6m/s | 18.1°C | 46.3% | 902.0hPa | 2.7V | 00:00:00 | 00:00:00 | 00:00:00 | |
| OE5DXL-15 | 2026-08-31 18:15:27 | 48.39925 | 13.05630 | 93° | 27km/h | 1070m | -3.6m/s | 18.1°C | 46.3% | 902.0hPa | 2.7V | 01:19:00 | 00:00:00 | 00:00:00 | |
| OE3JTB-15 | 2026-08-31 18:15:25 | 48.39926 | 13.05612 | 106° | 26km/h | 1077m | -3.7m/s | 18.0°C | 46.7% | 901.3hPa | 2.7V | 01:19:00 | 00:00:00 | 00:00:00 | |
| OE3JTB-15 | 2026-08-31 18:15:23 | 48.39931 | 13.05593 | 111° | 31km/h | 1084m | -3.7m/s | 17.9°C | 47.0% | 900.7hPa | 2.7V | 00:00:00 | 02:09:06 | 00:00:00 | |
| OE3JTB-15 | 2026-08-31 18:15:21 | 48.39936 | 13.05569 | 106° | 35km/h | 1092m | -3.8m/s | 17.8°C | 47.2% | 899.8hPa | 2.7V | 01:19:00 | 00:00:00 | 00:00:00 | |
| OE5DXL-15 | 2026-08-31 18:15:21 | 48.39936 | 13.05569 | 106° | 33km/h | 1092m | -3.8m/s | 17.8°C | 47.2% | 899.8hPa | 2.7V | 00:00:00 | 00:00:00 | 00:00:00 | |
| OE3JTB-15 | 2026-08-31 18:15:19 | 48.39939 | 13.05543 | 98° | 35km/h | 1099m | -3.8m/s | 17.8°C | 47.3% | 899.0hPa | 2.7V | 00:00:00 | 00:00:00 | 00:00:00 | |
| OE3JTB-15 | 2026-08-31 18:15:17 | 48.39940 | 13.05518 | 91° | 31km/h | 1107m | -3.8m/s | 17.7°C | 47.6% | 898.3hPa | 2.7V | 01:19:00 | 02:09:00 | 00:00:00 | |
| OE3JTB-15 | 2026-08-31 18:15:15 | 48.39941 | 13.05495 | 93° | 27km/h | 1115m | -3.9m/s | 17.6°C | 47.6% | 897.4hPa | 2.7V | 00:00:00 | 00:00:00 | 00:00:00 | |
| OE5DXL-15 | 2026-08-31 18:15:15 | 48.39941 | 13.05495 | 93° | 29km/h | 1115m | -3.9m/s | 17.6°C | 47.6% | 897.4hPa | 2.7V | 01:19:00 | 00:00:00 | 00:00:00 | |
| OE3JTB-15 | 2026-08-31 18:15:13 | 48.39943 | 13.05475 | 105° | 27km/h | 1123m | -3.6m/s | 17.6°C | 47.6% | 896.6hPa | 2.7V | 01:19:00 | 00:00:00 | 00:00:00 | |
| OE3JTB-15 | 2026-08-31 18:15:11 | 48.39947 | 13.05454 | 107° | 31km/h | 1130m | -3.7m/s | 17.5°C | 47.6% | 895.9hPa | 2.7V | 00:00:00 | 02:08:54 | 00:00:00 | |
| OE3JTB-15 | 2026-08-31 18:15:09 | 48.39951 | 13.05430 | 99° | 33km/h | 1138m | -3.6m/s | 17.4°C | 48.0% | 895.0hPa | 2.7V | 01:19:00 | 00:00:00 | 00:00:00 | |
| OE5DXL-15 | 2026-08-31 18:15:09 | 48.39951 | 13.05430 | 99° | 29km/h | 1138m | -3.6m/s | 17.4°C | 48.0% | 895.0hPa | 2.7V | 00:00:00 | 00:00:00 | 00:00:00 | |
| OE3JTB-15 | 2026-08-31 18:15:07 | 48.39952 | 13.05405 | 91° | 31km/h | 1145m | -3.5m/s | 17.4°C | 48.0% | 894.4hPa | 2.7V | 00:00:00 | 00:00:00 | 00:00:00 | |
| OE3JTB-15 | 2026-08-31 18:15:05 | 48.39952 | 13.05383 | 92° | 27km/h | 1152m | -3.9m/s | 17.3°C | 48.3% | 893.6hPa | 2.7V | 01:19:00 | 02:08:48 | 00:00:00 | |
| OE3JTB-15 | 2026-08-31 18:15:01 | 48.39958 | 13.05340 | 106° | 35km/h | 1167m | -3.7m/s | 17.1°C | 48.8% | 892.0hPa | 2.7V | 01:19:00 | 00:00:00 | 00:00:00 | |
| OE3JTB-15 | 2026-08-31 18:14:59 | 48.39962 | 13.05314 | 99° | 37km/h | 1174m | -3.8m/s | 17.1°C | 48.8% | 891.4hPa | 2.7V | 00:00:00 | 02:08:42 | 00:00:00 | |
| OE3JTB-15 | 2026-08-31 18:14:57 | 48.39963 | 13.05286 | 91° | 35km/h | 1182m | -3.7m/s | 17.0°C | 49.1% | 890.4hPa | 2.7V | 01:19:00 | 00:00:00 | 00:00:00 | |
| OE5DXL-15 | 2026-08-31 18:14:57 | 48.39963 | 13.05286 | 91° | 31km/h | 1182m | -3.7m/s | 17.0°C | 49.1% | 890.4hPa | 2.7V | 00:00:00 | 00:00:00 | 00:00:00 | |
| OE3JTB-15 | 2026-08-31 18:14:55 | 48.39963 | 13.05260 | 87° | 31km/h | 1189m | -3.6m/s | 16.9°C | 49.3% | 889.7hPa | 2.7V | 00:00:00 | 00:00:00 | 00:00:00 | |
| OE5MMP-10 | 2026-08-31 18:14:54 | 48.39962 | 13.05248 | 86° | 33km/h | 1193m | -3.4m/s | 16.9°C | 49.4% | 889.3hPa | 2.7V | 01:19:00 | 02:08:37 | 00:00:00 | |
| OE3JTB-15 | 2026-08-31 18:14:53 | 48.39962 | 13.05237 | 88° | 27km/h | 1196m | -3.6m/s | 16.8°C | 49.5% | 889.2hPa | 2.7V | 01:19:00 | 02:08:36 | 00:00:00 | |
| OE3JTB-15 | 2026-08-31 18:14:51 | 48.39962 | 13.05217 | 97° | 27km/h | 1204m | -3.5m/s | 16.8°C | 49.6% | 888.4hPa | 2.7V | 00:00:00 | 00:00:00 | 00:00:00 | |
| OE5DXL-15 | 2026-08-31 18:14:51 | 48.39962 | 13.05217 | 97° | 31km/h | 1204m | -3.5m/s | 16.8°C | 49.6% | 888.4hPa | 2.7V | 01:19:00 | 00:00:00 | 00:00:00 | |
| OE3JTB-15 | 2026-08-31 18:14:49 | 48.39965 | 13.05196 | 105° | 33km/h | 1211m | -3.4m/s | 16.7°C | 49.7% | 887.5hPa | 2.7V | 01:19:00 | 00:00:00 | 00:00:00 | |
| OE3JTB-15 | 2026-08-31 18:14:45 | 48.39971 | 13.05145 | 94° | 31km/h | 1225m | -3.6m/s | 16.6°C | 50.0% | 885.9hPa | 2.7V | 01:19:00 | 00:00:00 | 00:00:00 | |
| OE5DXL-15 | 2026-08-31 18:14:45 | 48.39971 | 13.05145 | 94° | 29km/h | 1225m | -3.6m/s | 16.6°C | 50.0% | 885.9hPa | 2.7V | 00:00:00 | 00:00:00 | 00:00:00 | |
| OE5MMP-10 | 2026-08-31 18:14:43 | 48.39971 | 13.05121 | 90° | 27km/h | 1232m | -3.7m/s | 16.5°C | 50.1% | 885.2hPa | 2.7V | 00:00:00 | 02:08:26 | 00:00:00 | |
| OE3JTB-15 | 2026-08-31 18:14:41 | 48.39972 | 13.05101 | 100° | 26km/h | 1239m | -3.6m/s | 16.4°C | 50.3% | 884.5hPa | 2.7V | 00:00:00 | 00:00:00 | 00:00:00 | |
| OE3JTB-15 | 2026-08-31 18:14:39 | 48.39975 | 13.05081 | 108° | 31km/h | 1247m | -3.6m/s | 16.4°C | 50.5% | 883.6hPa | 2.7V | 01:19:00 | 02:08:22 | 00:00:00 | |
| OE5DXL-15 | 2026-08-31 18:14:39 | 48.39975 | 13.05081 | 108° | 33km/h | 1247m | -3.6m/s | 16.4°C | 50.5% | 883.6hPa | 2.7V | 01:19:00 | 00:00:00 | 00:00:00 | |
| OE5MMP-10 | 2026-08-31 18:14:38 | 48.39978 | 13.05070 | 108° | 35km/h | 1250m | -3.7m/s | 16.3°C | 50.6% | 883.4hPa | 2.7V | 01:19:00 | 02:08:21 | 00:00:00 | |
| OE3JTB-15 | 2026-08-31 18:14:37 | 48.39980 | 13.05058 | 104° | 35km/h | 1254m | -3.6m/s | 16.3°C | 50.7% | 883.0hPa | 2.7V | 00:00:00 | 00:00:00 | 00:00:00 | |
| OE3JTB-15 | 2026-08-31 18:14:35 | 48.39983 | 13.05032 | 96° | 37km/h | 1262m | -3.7m/s | 16.2°C | 50.8% | 882.4hPa | 2.7V | 01:19:00 | 00:00:00 | 00:00:00 | |
| OE3JTB-15 | 2026-08-31 18:14:33 | 48.39983 | 13.05005 | 87° | 31km/h | 1269m | -3.7m/s | 16.2°C | 51.0% | 881.4hPa | 2.7V | 00:00:00 | 02:08:16 | 00:00:00 | |
| OE5DXL-15 | 2026-08-31 18:14:33 | 48.39983 | 13.05005 | 87° | 27km/h | 1269m | -3.7m/s | 16.2°C | 51.0% | 881.4hPa | 2.7V | 00:00:00 | 00:00:00 | 00:00:00 | |
| OE5MMP-10 | 2026-08-31 18:14:33 | 48.39983 | 13.05005 | 87° | 26km/h | 1269m | -3.7m/s | 16.2°C | 51.0% | 881.4hPa | 2.7V | 00:00:00 | 02:08:16 | 00:00:00 | |
| OE3JTB-15 | 2026-08-31 18:14:31 | 48.39982 | 13.04982 | 87° | 27km/h | 1277m | -3.6m/s | 16.1°C | 51.3% | 880.8hPa | 2.7V | 01:20:00 | 00:00:00 | 00:00:00 | |
| OE3JTB-15 | 2026-08-31 18:14:29 | 48.39982 | 13.04963 | 93° | 24km/h | 1284m | -3.7m/s | 16.0°C | 51.4% | 879.9hPa | 2.7V | 00:00:00 | 00:00:00 | 00:00:00 | |
| OE3JTB-15 | 2026-08-31 18:14:27 | 48.39984 | 13.04945 | 104° | 24km/h | 1292m | -3.8m/s | 15.9°C | 51.6% | 879.0hPa | 2.7V | 01:20:00 | 02:08:10 | 00:00:00 | |
| OE5DXL-15 | 2026-08-31 18:14:27 | 48.39984 | 13.04945 | 104° | 27km/h | 1292m | -3.8m/s | 15.9°C | 51.6% | 879.0hPa | 2.7V | 01:20:00 | 00:00:00 | 00:00:00 | |
| OE3JTB-15 | 2026-08-31 18:14:25 | 48.39988 | 13.04928 | 110° | 27km/h | 1299m | -3.9m/s | 15.9°C | 51.8% | 878.2hPa | 2.6V | 00:00:00 | 00:00:00 | 00:00:00 | |
| OE5MMP-10 | 2026-08-31 18:14:24 | 48.39990 | 13.04918 | 113° | 27km/h | 1303m | -3.9m/s | 15.8°C | 51.9% | 877.6hPa | 2.7V | 01:20:00 | 02:08:07 | 00:00:00 | |
| OE3JTB-15 | 2026-08-31 18:14:23 | 48.39993 | 13.04908 | 113° | 31km/h | 1307m | -4.1m/s | 15.8°C | 52.0% | 877.4hPa | 2.7V | 01:20:00 | 00:00:00 | 00:00:00 | |
| OE3JTB-15 | 2026-08-31 18:14:21 | 48.39999 | 13.04886 | 111° | 35km/h | 1315m | -4.0m/s | 15.7°C | 52.3% | 876.6hPa | 2.7V | 00:00:00 | 02:08:04 | 00:00:00 | |
| OE5DXL-15 | 2026-08-31 18:14:21 | 48.39999 | 13.04886 | 111° | 37km/h | 1315m | -4.0m/s | 15.7°C | 52.3% | 876.6hPa | 2.7V | 00:00:00 | 00:00:00 | 00:00:00 | |
| OE3JTB-15 | 2026-08-31 18:14:19 | 48.40005 | 13.04860 | 107° | 37km/h | 1323m | -4.3m/s | 15.6°C | 52.5% | 875.9hPa | 2.7V | 01:20:00 | 00:00:00 | 00:00:00 | |
| OE3JTB-15 | 2026-08-31 18:14:17 | 48.40009 | 13.04832 | 102° | 37km/h | 1332m | -4.1m/s | 15.6°C | 52.7% | 875.1hPa | 2.7V | 00:00:00 | 00:00:00 | 00:00:00 | |
| OE5MMP-10 | 2026-08-31 18:14:16 | 48.40011 | 13.04818 | 98° | 35km/h | 1336m | -4.2m/s | 15.5°C | 52.8% | 874.6hPa | 2.7V | 00:00:00 | 02:07:59 | 00:00:00 | |
| OE3JTB-15 | 2026-08-31 18:14:15 | 48.40012 | 13.04804 | 97° | 37km/h | 1340m | -3.8m/s | 15.5°C | 52.9% | 874.0hPa | 2.7V | 01:20:00 | 02:07:58 | 00:00:00 | |
| OE5DXL-15 | 2026-08-31 18:14:15 | 48.40012 | 13.04804 | 97° | 35km/h | 1340m | -3.8m/s | 15.5°C | 52.9% | 874.0hPa | 2.7V | 01:20:00 | 00:00:00 | 00:00:00 | |
| OE3JTB-15 | 2026-08-31 18:14:13 | 48.40013 | 13.04776 | 92° | 37km/h | 1348m | -4.0m/s | 15.4°C | 53.1% | 873.4hPa | 2.7V | 00:00:00 | 00:00:00 | 00:00:00 | |
| OE3JTB-15 | 2026-08-31 18:14:11 | 48.40013 | 13.04749 | 87° | 33km/h | 1355m | -3.6m/s | 15.3°C | 53.2% | 872.6hPa | 2.7V | 01:20:00 | 00:00:00 | 00:00:00 | |
| OE3JTB-15 | 2026-08-31 18:14:09 | 48.40012 | 13.04725 | 86° | 27km/h | 1363m | -3.6m/s | 15.3°C | 53.5% | 871.7hPa | 2.7V | 00:00:00 | 02:07:52 | 00:00:00 | |
| OE5DXL-15 | 2026-08-31 18:14:09 | 48.40012 | 13.04725 | 86° | 26km/h | 1363m | -3.6m/s | 15.3°C | 53.5% | 871.7hPa | 2.7V | 00:00:00 | 00:00:00 | 00:00:00 | |
| OE5MMP-10 | 2026-08-31 18:14:09 | 48.40012 | 13.04725 | 86° | 33km/h | 1363m | -3.6m/s | 15.3°C | 53.5% | 871.7hPa | 2.7V | 01:20:00 | 02:07:52 | 00:00:00 | |
| OE3JTB-15 | 2026-08-31 18:14:07 | 48.40011 | 13.04705 | 88° | 24km/h | 1370m | -3.5m/s | 15.2°C | 53.4% | 871.0hPa | 2.7V | 01:20:00 | 00:00:00 | 00:00:00 | |
| OE3JTB-15 | 2026-08-31 18:14:05 | 48.40011 | 13.04687 | 98° | 24km/h | 1377m | -3.9m/s | 15.1°C | 53.3% | 870.1hPa | 2.7V | 00:00:00 | 00:00:00 | 00:00:00 | |
| OE3JTB-15 | 2026-08-31 18:14:03 | 48.40014 | 13.04669 | 109° | 26km/h | 1385m | -4.0m/s | 15.1°C | 53.8% | 869.2hPa | 2.7V | 01:20:00 | 02:07:46 | 00:00:00 | |
| OE5DXL-15 | 2026-08-31 18:14:03 | 48.40014 | 13.04669 | 109° | 31km/h | 1385m | -4.0m/s | 15.1°C | 53.8% | 869.2hPa | 2.7V | 01:20:00 | 00:00:00 | 00:00:00 | |
| OE3JTB-15 | 2026-08-31 18:14:01 | 48.40019 | 13.04650 | 112° | 31km/h | 1394m | -4.1m/s | 15.0°C | 53.7% | 868.6hPa | 2.7V | 00:00:00 | 00:00:00 | 00:00:00 | |
| OE3JTB-15 | 2026-08-31 18:13:59 | 48.40025 | 13.04627 | 112° | 35km/h | 1401m | -3.9m/s | 14.9°C | 53.8% | 867.8hPa | 2.6V | 01:20:00 | 00:00:00 | 00:00:00 | |
| OE3JTB-15 | 2026-08-31 18:13:57 | 48.40031 | 13.04602 | 108° | 37km/h | 1409m | -3.8m/s | 14.8°C | 54.0% | 867.0hPa | 2.6V | 00:00:00 | 02:07:40 | 00:00:00 | |
| OE5MMP-10 | 2026-08-31 18:13:57 | 48.40031 | 13.04602 | 108° | 37km/h | 1409m | -3.8m/s | 14.8°C | 54.0% | 867.0hPa | 2.6V | 00:00:00 | 02:07:40 | 00:00:00 | |
| OE5DXL-15 | 2026-08-31 18:13:57 | 48.40031 | 13.04602 | 108° | 37km/h | 1409m | -3.8m/s | 14.8°C | 54.0% | 867.0hPa | 2.6V | 00:00:00 | 00:00:00 | 00:00:00 | |
| OE3JTB-15 | 2026-08-31 18:13:55 | 48.40036 | 13.04575 | 101° | 37km/h | 1417m | -4.0m/s | 14.8°C | 54.2% | 866.2hPa | 2.6V | 01:20:00 | 00:00:00 | 00:00:00 | |
| OE3JTB-15 | 2026-08-31 18:13:53 | 48.40039 | 13.04547 | 96° | 37km/h | 1424m | -3.6m/s | 14.7°C | 54.5% | 865.4hPa | 2.7V | 00:00:00 | 00:00:00 | 00:00:00 | |
| OE5MMP-10 | 2026-08-31 18:13:52 | 48.40039 | 13.04534 | 92° | 35km/h | 1428m | -3.2m/s | 14.7°C | 54.6% | 865.0hPa | 2.7V | 01:20:00 | 02:07:35 | 00:00:00 | |
| OE5DXL-15 | 2026-08-31 18:13:51 | 48.40039 | 13.04521 | 90° | 27km/h | 1431m | -3.6m/s | 14.6°C | 54.6% | 864.5hPa | 2.7V | 01:20:00 | 00:00:00 | 00:00:00 | |
| OE3JTB-15 | 2026-08-31 18:13:51 | 48.40039 | 13.04521 | 90° | 31km/h | 1431m | -3.6m/s | 14.6°C | 54.6% | 864.5hPa | 2.7V | 01:20:00 | 02:07:34 | 00:00:00 | |
| OE3JTB-15 | 2026-08-31 18:13:49 | 48.40039 | 13.04499 | 92° | 26km/h | 1438m | -3.4m/s | 14.6°C | 54.9% | 863.9hPa | 2.7V | 00:00:00 | 00:00:00 | 00:00:00 | |
| OE3JTB-15 | 2026-08-31 18:13:47 | 48.40041 | 13.04480 | 104° | 26km/h | 1445m | -3.7m/s | 14.5°C | 55.0% | 863.1hPa | 2.7V | 01:20:00 | 00:00:00 | 00:00:00 | |
| OE3JTB-15 | 2026-08-31 18:13:45 | 48.40045 | 13.04460 | 111° | 31km/h | 1453m | -3.7m/s | 14.4°C | 55.1% | 862.4hPa | 2.7V | 00:00:00 | 02:07:28 | 00:00:00 | |
| OE5DXL-15 | 2026-08-31 18:13:45 | 48.40045 | 13.04460 | 111° | 35km/h | 1453m | -3.7m/s | 14.4°C | 55.1% | 862.4hPa | 2.7V | 00:00:00 | 00:00:00 | 00:00:00 | |
| OE3JTB-15 | 2026-08-31 18:13:43 | 48.40051 | 13.04436 | 109° | 35km/h | 1460m | -3.6m/s | 14.4°C | 55.3% | 861.6hPa | 2.7V | 01:20:00 | 00:00:00 | 00:00:00 | |
| OE5MMP-10 | 2026-08-31 18:13:43 | 48.40051 | 13.04436 | 109° | 37km/h | 1460m | -3.6m/s | 14.4°C | 55.3% | 861.6hPa | 2.7V | 00:00:00 | 02:07:26 | 00:00:00 | |
| OE3JTB-15 | 2026-08-31 18:13:41 | 48.40056 | 13.04410 | 106° | 38km/h | 1467m | -3.6m/s | 14.3°C | 55.4% | 861.0hPa | 2.7V | 00:00:00 | 00:00:00 | 00:00:00 | |
| DO3MHA-11 | 2026-08-31 18:13:41 | 48.40056 | 13.04410 | 106° | 38km/h | 1467m | -3.6m/s | 14.3°C | 55.4% | 861.0hPa | 2.7V | 01:20:00 | 02:07:24 | 00:00:00 | |
| OE3JTB-15 | 2026-08-31 18:13:39 | 48.40060 | 13.04381 | 101° | 38km/h | 1475m | -3.9m/s | 14.2°C | 55.6% | 860.2hPa | 2.7V | 01:20:00 | 02:07:22 | 00:00:00 | |
| OE5DXL-15 | 2026-08-31 18:13:39 | 48.40060 | 13.04381 | 101° | 38km/h | 1475m | -3.9m/s | 14.2°C | 55.6% | 860.2hPa | 2.7V | 01:20:00 | 00:00:00 | 00:00:00 | |
| DO3MHA-11 | 2026-08-31 18:13:39 | 48.40060 | 13.04381 | 101° | 38km/h | 1475m | -3.9m/s | 14.2°C | 55.6% | 860.2hPa | 2.7V | 00:00:00 | 02:07:22 | 00:00:00 | |
| OE3JTB-15 | 2026-08-31 18:13:37 | 48.40063 | 13.04352 | 96° | 38km/h | 1483m | -3.7m/s | 14.2°C | 55.6% | 859.3hPa | 2.7V | 00:00:00 | 00:00:00 | 00:00:00 | |
| OE3JTB-15 | 2026-08-31 18:13:35 | 48.40064 | 13.04323 | 91° | 37km/h | 1490m | -3.7m/s | 14.1°C | 55.8% | 858.5hPa | 2.6V | 01:20:00 | 00:00:00 | 00:00:00 | |
| DO3MHA-11 | 2026-08-31 18:13:35 | 48.40064 | 13.04323 | 91° | 37km/h | 1490m | -3.7m/s | 14.1°C | 55.8% | 858.5hPa | 2.6V | 01:20:00 | 02:07:18 | 00:00:00 | |
| OE3JTB-15 | 2026-08-31 18:13:33 | 48.40063 | 13.04296 | 85° | 33km/h | 1497m | -3.5m/s | 14.0°C | 56.2% | 857.9hPa | 2.6V | 00:00:00 | 02:07:16 | 00:00:00 | |
| OE5DXL-15 | 2026-08-31 18:13:33 | 48.40063 | 13.04296 | 85° | 29km/h | 1497m | -3.5m/s | 14.0°C | 56.2% | 857.9hPa | 2.6V | 00:00:00 | 00:00:00 | 00:00:00 | |
| DO3MHA-11 | 2026-08-31 18:13:33 | 48.40063 | 13.04296 | 85° | 35km/h | 1497m | -3.5m/s | 14.0°C | 56.2% | 857.9hPa | 2.7V | 00:00:00 | 02:07:16 | 00:00:00 | |
| OE3JTB-15 | 2026-08-31 18:13:31 | 48.40062 | 13.04272 | 85° | 29km/h | 1504m | -3.7m/s | 13.9°C | 56.5% | 857.1hPa | 2.7V | 01:21:00 | 00:00:00 | 00:00:00 | |
| DO3MHA-11 | 2026-08-31 18:13:31 | 48.40062 | 13.04272 | 85° | 27km/h | 1504m | -3.7m/s | 13.9°C | 56.5% | 857.1hPa | 2.7V | 01:21:00 | 02:07:14 | 00:00:00 | |
| OE3JTB-15 | 2026-08-31 18:13:29 | 48.40060 | 13.04251 | 87° | 26km/h | 1512m | -3.2m/s | 13.9°C | 56.5% | 856.4hPa | 2.7V | 00:00:00 | 00:00:00 | 00:00:00 | |
| OE3JTB-15 | 2026-08-31 18:13:27 | 48.40060 | 13.04232 | 95° | 24km/h | 1519m | -3.4m/s | 13.8°C | 56.8% | 855.7hPa | 2.7V | 01:21:00 | 02:07:10 | 00:00:00 | |
| OE5DXL-15 | 2026-08-31 18:13:27 | 48.40060 | 13.04232 | 95° | 33km/h | 1519m | -3.4m/s | 13.8°C | 56.8% | 855.7hPa | 2.7V | 01:21:00 | 00:00:00 | 00:00:00 | |
| DO3MHA-11 | 2026-08-31 18:13:26 | 48.40061 | 13.04223 | 99° | 29km/h | 1522m | -3.5m/s | 13.8°C | 56.9% | 855.4hPa | 2.7V | 00:00:00 | 02:07:09 | 00:00:00 | |
| OE3JTB-15 | 2026-08-31 18:13:25 | 48.40062 | 13.04213 | 106° | 27km/h | 1526m | -3.5m/s | 13.7°C | 57.0% | 855.0hPa | 2.7V | 00:00:00 | 00:00:00 | 00:00:00 | |
| OE3JTB-15 | 2026-08-31 18:13:23 | 48.40067 | 13.04192 | 110° | 33km/h | 1532m | -3.2m/s | 13.7°C | 57.0% | 854.3hPa | 2.6V | 01:21:00 | 00:00:00 | 00:00:00 | |
| OE3JTB-15 | 2026-08-31 18:13:21 | 48.40072 | 13.04167 | 104° | 38km/h | 1539m | -3.4m/s | 13.6°C | 56.9% | 853.7hPa | 2.6V | 00:00:00 | 02:07:04 | 00:00:00 | |
| DO3MHA-11 | 2026-08-31 18:13:21 | 48.40072 | 13.04167 | 104° | 38km/h | 1539m | -3.4m/s | 13.6°C | 56.9% | 853.7hPa | 2.6V | 01:21:00 | 02:07:04 | 00:00:00 | |
| OE3JTB-15 | 2026-08-31 18:13:19 | 48.40075 | 13.04138 | 97° | 40km/h | 1546m | -3.7m/s | 13.6°C | 57.2% | 852.8hPa | 2.6V | 01:21:00 | 00:00:00 | 00:00:00 | |
| OE3JTB-15 | 2026-08-31 18:13:17 | 48.40077 | 13.04108 | 91° | 38km/h | 1553m | -3.5m/s | 13.5°C | 57.4% | 852.1hPa | 2.7V | 00:00:00 | 00:00:00 | 00:00:00 | |
| OE5MMP-10 | 2026-08-31 18:13:17 | 48.40077 | 13.04108 | 91° | 33km/h | 1553m | -3.5m/s | 13.5°C | 57.4% | 852.1hPa | 2.7V | 01:21:00 | 02:07:00 | 00:00:00 | |
| DO3MHA-11 | 2026-08-31 18:13:16 | 48.40077 | 13.04093 | 88° | 35km/h | 1557m | -3.9m/s | 13.5°C | 57.3% | 851.8hPa | 2.7V | 00:00:00 | 02:06:59 | 00:00:00 | |
| OE3JTB-15 | 2026-08-31 18:13:15 | 48.40076 | 13.04079 | 86° | 35km/h | 1561m | -3.7m/s | 13.4°C | 57.4% | 851.4hPa | 2.7V | 01:21:00 | 02:06:58 | 00:00:00 | |
| OE3JTB-15 | 2026-08-31 18:13:13 | 48.40074 | 13.04053 | 84° | 31km/h | 1568m | -3.6m/s | 13.4°C | 57.4% | 850.6hPa | 2.7V | 00:00:00 | 00:00:00 | 00:00:00 | |
| OE3JTB-15 | 2026-08-31 18:13:11 | 48.40073 | 13.04031 | 92° | 27km/h | 1575m | -3.7m/s | 13.3°C | 57.7% | 850.0hPa | 2.7V | 01:21:00 | 00:00:00 | 00:00:00 | |
| DO3MHA-12 | 2026-08-31 18:13:11 | 48.40073 | 13.04031 | 92° | 27km/h | 1575m | -3.7m/s | 13.3°C | 57.7% | 850.0hPa | 2.7V | 01:21:00 | 02:06:54 | 00:00:00 | |
| DO3MHA-11 | 2026-08-31 18:13:11 | 48.40073 | 13.04031 | 92° | 29km/h | 1575m | -3.7m/s | 13.3°C | 57.7% | 850.0hPa | 2.7V | 01:21:00 | 02:06:54 | 00:00:00 | |
| OE3JTB-15 | 2026-08-31 18:13:09 | 48.40075 | 13.04010 | 105° | 29km/h | 1582m | -3.6m/s | 13.2°C | 57.9% | 849.3hPa | 2.7V | 00:00:00 | 02:06:52 | 00:00:00 | |
| OE5MMP-10 | 2026-08-31 18:13:08 | 48.40077 | 13.03999 | 107° | 35km/h | 1586m | -3.5m/s | 13.2°C | 58.0% | 848.9hPa | 2.7V | 00:00:00 | 02:06:51 | 00:00:00 | |
| DO3MHA-12 | 2026-08-31 18:13:06 | 48.40082 | 13.03975 | 104° | 35km/h | 1593m | -3.7m/s | 13.1°C | 58.2% | 848.1hPa | 2.7V | 00:00:00 | 02:06:49 | 00:00:00 | |
| DO3MHA-11 | 2026-08-31 18:13:06 | 48.40082 | 13.03975 | 104° | 37km/h | 1593m | -3.7m/s | 13.1°C | 58.2% | 848.1hPa | 2.7V | 00:00:00 | 02:06:49 | 00:00:00 | |
| OE3JTB-15 | 2026-08-31 18:13:05 | 48.40084 | 13.03962 | 101° | 37km/h | 1597m | -3.9m/s | 13.1°C | 58.8% | 847.7hPa | 2.7V | 00:00:00 | 00:00:00 | 00:00:00 | |
| OE3JTB-15 | 2026-08-31 18:13:03 | 48.40085 | 13.03934 | 93° | 35km/h | 1605m | -3.8m/s | 13.0°C | 58.9% | 847.0hPa | 2.7V | 01:21:00 | 02:06:46 | 00:00:00 | |
| OE5MMP-10 | 2026-08-31 18:13:03 | 48.40085 | 13.03934 | 93° | 35km/h | 1605m | -3.8m/s | 13.0°C | 58.9% | 847.0hPa | 2.7V | 01:21:00 | 02:06:46 | 00:00:00 | |
| OE3JTB-15 | 2026-08-31 18:13:01 | 48.40085 | 13.03909 | 88° | 29km/h | 1613m | -3.5m/s | 12.9°C | 58.9% | 846.2hPa | 2.7V | 00:00:00 | 00:00:00 | 00:00:00 | |
| DO3MHA-12 | 2026-08-31 18:13:01 | 48.40085 | 13.03909 | 88° | 29km/h | 1613m | -3.5m/s | 12.9°C | 58.9% | 846.2hPa | 2.7V | 01:21:00 | 02:06:44 | 00:00:00 | |
| DO3MHA-11 | 2026-08-31 18:13:01 | 48.40085 | 13.03909 | 88° | 29km/h | 1613m | -3.5m/s | 12.9°C | 58.9% | 846.2hPa | 2.7V | 01:21:00 | 02:06:44 | 00:00:00 | |
| OE3JTB-15 | 2026-08-31 18:12:59 | 48.40085 | 13.03887 | 95° | 27km/h | 1620m | -3.8m/s | 12.9°C | 59.2% | 845.4hPa | 2.7V | 01:21:00 | 00:00:00 | 00:00:00 | |
| OE3JTB-15 | 2026-08-31 18:12:57 | 48.40088 | 13.03866 | 104° | 31km/h | 1628m | -3.8m/s | 12.8°C | 59.3% | 844.8hPa | 2.7V | 00:00:00 | 02:06:40 | 00:00:00 | |
| OE3JTB-15 | 2026-08-31 18:12:55 | 48.40092 | 13.03842 | 104° | 37km/h | 1636m | -3.7m/s | 12.7°C | 59.3% | 844.1hPa | 2.7V | 01:21:00 | 00:00:00 | 00:00:00 | |
| OE5MMP-10 | 2026-08-31 18:12:54 | 48.40093 | 13.03829 | 101° | 35km/h | 1640m | -3.7m/s | 12.7°C | 59.3% | 843.4hPa | 2.7V | 00:00:00 | 02:06:37 | 00:00:00 | |
| OE3JTB-15 | 2026-08-31 18:12:53 | 48.40095 | 13.03814 | 96° | 38km/h | 1643m | -3.7m/s | 12.7°C | 59.4% | 843.2hPa | 2.7V | 00:00:00 | 00:00:00 | 00:00:00 | |
| OE3JTB-15 | 2026-08-31 18:12:51 | 48.40095 | 13.03786 | 89° | 35km/h | 1651m | -4.0m/s | 12.6°C | 59.6% | 842.5hPa | 2.7V | 01:21:00 | 02:06:34 | 00:00:00 | |
| DO3MHA-12 | 2026-08-31 18:12:51 | 48.40095 | 13.03786 | 89° | 31km/h | 1651m | -4.0m/s | 12.6°C | 59.6% | 842.5hPa | 2.7V | 01:21:00 | 02:06:34 | 00:00:00 | |
| DO3MHA-11 | 2026-08-31 18:12:51 | 48.40095 | 13.03786 | 89° | 31km/h | 1651m | -4.0m/s | 12.6°C | 59.6% | 842.5hPa | 2.7V | 01:21:00 | 02:06:34 | 00:00:00 | |
| OE3JTB-15 | 2026-08-31 18:12:49 | 48.40094 | 13.03760 | 87° | 29km/h | 1659m | -3.7m/s | 12.5°C | 59.7% | 841.7hPa | 2.7V | 00:00:00 | 00:00:00 | 00:00:00 | |
| OE5MMP-10 | 2026-08-31 18:12:48 | 48.40094 | 13.03748 | 91° | 31km/h | 1662m | -3.7m/s | 12.5°C | 59.9% | 841.2hPa | 2.7V | 01:21:00 | 02:06:31 | 00:00:00 | |
| DO3MHA-12 | 2026-08-31 18:12:46 | 48.40095 | 13.03727 | 103° | 35km/h | 1670m | -3.8m/s | 12.4°C | 59.9% | 840.5hPa | 2.7V | 00:00:00 | 02:06:29 | 00:00:00 | |
| DO3MHA-11 | 2026-08-31 18:12:46 | 48.40095 | 13.03727 | 103° | 35km/h | 1670m | -3.8m/s | 12.4°C | 59.9% | 840.5hPa | 2.7V | 00:00:00 | 02:06:29 | 00:00:00 | |
| OE3JTB-15 | 2026-08-31 18:12:45 | 48.40097 | 13.03716 | 107° | 33km/h | 1674m | -3.9m/s | 12.4°C | 60.2% | 840.1hPa | 2.7V | 00:00:00 | 02:06:28 | 00:00:00 | |
| OE3JTB-15 | 2026-08-31 18:12:43 | 48.40103 | 13.03691 | 107° | 38km/h | 1682m | -3.9m/s | 12.3°C | 60.4% | 839.4hPa | 2.7V | 01:21:00 | 00:00:00 | 00:00:00 | |
| OE5MMP-10 | 2026-08-31 18:12:43 | 48.40103 | 13.03691 | 107° | 38km/h | 1682m | -3.9m/s | 12.3°C | 60.4% | 839.4hPa | 2.7V | 00:00:00 | 02:06:26 | 00:00:00 | |
| OE3JTB-15 | 2026-08-31 18:12:41 | 48.40107 | 13.03662 | 100° | 40km/h | 1690m | -3.9m/s | 12.2°C | 60.8% | 838.5hPa | 2.7V | 00:00:00 | 00:00:00 | 00:00:00 | |
| DO3MHA-12 | 2026-08-31 18:12:41 | 48.40107 | 13.03662 | 100° | 38km/h | 1690m | -3.9m/s | 12.2°C | 60.8% | 838.5hPa | 2.7V | 01:21:00 | 02:06:24 | 00:00:00 | |
| DO3MHA-11 | 2026-08-31 18:12:41 | 48.40107 | 13.03662 | 100° | 38km/h | 1690m | -3.9m/s | 12.2°C | 60.8% | 838.5hPa | 2.7V | 01:21:00 | 02:06:24 | 00:00:00 | |
| OE3JTB-15 | 2026-08-31 18:12:39 | 48.40109 | 13.03631 | 92° | 38km/h | 1698m | -3.8m/s | 12.1°C | 61.2% | 837.9hPa | 2.7V | 01:21:00 | 02:06:22 | 00:00:00 | |
| OE3JTB-15 | 2026-08-31 18:12:37 | 48.40108 | 13.03603 | 86° | 33km/h | 1706m | -3.7m/s | 12.1°C | 61.5% | 837.2hPa | 2.7V | 00:00:00 | 00:00:00 | 00:00:00 | |
| DO3MHA-11 | 2026-08-31 18:12:36 | 48.40108 | 13.03591 | 86° | 29km/h | 1709m | -3.8m/s | 12.0°C | 61.7% | 836.7hPa | 2.7V | 00:00:00 | 02:06:19 | 00:00:00 | |
| DO3MHA-12 | 2026-08-31 18:12:36 | 48.40108 | 13.03591 | 86° | 29km/h | 1709m | -3.8m/s | 12.0°C | 61.7% | 836.7hPa | 2.7V | 00:00:00 | 02:06:19 | 00:00:00 | |
| OE3JTB-15 | 2026-08-31 18:12:35 | 48.40108 | 13.03580 | 90° | 27km/h | 1713m | -3.9m/s | 12.0°C | 61.7% | 836.1hPa | 2.7V | 01:21:00 | 00:00:00 | 00:00:00 | |
| OE5MMP-10 | 2026-08-31 18:12:35 | 48.40108 | 13.03580 | 90° | 27km/h | 1713m | -3.9m/s | 12.0°C | 61.7% | 836.1hPa | 2.7V | 01:21:00 | 02:06:18 | 00:00:00 | |
| OE3JTB-15 | 2026-08-31 18:12:33 | 48.40109 | 13.03559 | 103° | 27km/h | 1721m | -3.9m/s | 11.9°C | 61.7% | 835.4hPa | 2.7V | 00:00:00 | 02:06:16 | 00:00:00 | |
| OE3JTB-15 | 2026-08-31 18:12:31 | 48.40113 | 13.03538 | 109° | 33km/h | 1729m | -4.0m/s | 11.9°C | 61.9% | 834.5hPa | 2.7V | 01:22:00 | 00:00:00 | 00:00:00 | |
| DO3MHA-12 | 2026-08-31 18:12:31 | 48.40113 | 13.03538 | 109° | 35km/h | 1729m | -4.0m/s | 11.9°C | 61.9% | 834.5hPa | 2.7V | 01:22:00 | 02:06:14 | 00:00:00 | |
| DO3MHA-11 | 2026-08-31 18:12:31 | 48.40113 | 13.03538 | 109° | 35km/h | 1729m | -4.0m/s | 11.9°C | 61.9% | 834.5hPa | 2.7V | 01:22:00 | 02:06:14 | 00:00:00 | |
| OE5MMP-10 | 2026-08-31 18:12:30 | 48.40116 | 13.03527 | 110° | 31km/h | 1733m | -3.7m/s | 11.8°C | 62.0% | 834.3hPa | 2.7V | 00:00:00 | 02:06:13 | 00:00:00 | |
| OE3JTB-15 | 2026-08-31 18:12:29 | 48.40118 | 13.03514 | 109° | 37km/h | 1737m | -3.9m/s | 11.8°C | 62.1% | 833.8hPa | 2.7V | 00:00:00 | 00:00:00 | 00:00:00 | |
| OE3JTB-15 | 2026-08-31 18:12:27 | 48.40124 | 13.03487 | 105° | 40km/h | 1745m | -3.9m/s | 11.7°C | 62.4% | 833.0hPa | 2.7V | 01:22:00 | 02:06:10 | 00:00:00 | |
| OE5DXL-15 | 2026-08-31 18:12:27 | 48.40124 | 13.03487 | 105° | 35km/h | 1745m | -3.9m/s | 11.7°C | 62.4% | 833.0hPa | 2.7V | 00:00:00 | 00:00:00 | 00:00:00 | |
| DO3MHA-12 | 2026-08-31 18:12:26 | 48.40126 | 13.03472 | 102° | 40km/h | 1749m | -4.0m/s | 11.7°C | 62.5% | 832.5hPa | 2.7V | 00:00:00 | 02:06:09 | 00:00:00 | |
| DO3MHA-11 | 2026-08-31 18:12:26 | 48.40126 | 13.03472 | 102° | 40km/h | 1749m | -4.0m/s | 11.7°C | 62.5% | 832.5hPa | 2.7V | 00:00:00 | 02:06:09 | 00:00:00 | |
| OE3JTB-15 | 2026-08-31 18:12:25 | 48.40128 | 13.03457 | 98° | 40km/h | 1753m | -3.8m/s | 11.6°C | 62.4% | 832.2hPa | 2.7V | 00:00:00 | 00:00:00 | 00:00:00 | |
| OE3JTB-15 | 2026-08-31 18:12:23 | 48.40129 | 13.03426 | 91° | 38km/h | 1761m | -3.9m/s | 11.6°C | 62.6% | 831.6hPa | 2.7V | 01:22:00 | 00:00:00 | 00:00:00 | |
| OE3JTB-15 | 2026-08-31 18:12:21 | 48.40129 | 13.03399 | 86° | 31km/h | 1768m | -3.7m/s | 11.5°C | 62.8% | 830.7hPa | 2.7V | 00:00:00 | 02:06:04 | 00:00:00 | |
| DO3MHA-12 | 2026-08-31 18:12:21 | 48.40129 | 13.03399 | 86° | 29km/h | 1768m | -3.7m/s | 11.5°C | 62.8% | 830.7hPa | 2.7V | 01:22:00 | 02:06:04 | 00:00:00 | |
| DO3MHA-11 | 2026-08-31 18:12:21 | 48.40129 | 13.03399 | 86° | 29km/h | 1768m | -3.7m/s | 11.5°C | 62.8% | 830.7hPa | 2.7V | 01:22:00 | 02:06:04 | 00:00:00 | |
| OE3JTB-15 | 2026-08-31 18:12:19 | 48.40128 | 13.03376 | 93° | 27km/h | 1775m | -3.7m/s | 11.4°C | 63.2% | 830.0hPa | 2.7V | 01:22:00 | 00:00:00 | 00:00:00 | |
| OE5MMP-10 | 2026-08-31 18:12:19 | 48.40128 | 13.03376 | 93° | 35km/h | 1775m | -3.7m/s | 11.4°C | 63.2% | 830.0hPa | 2.7V | 01:22:00 | 02:06:02 | 00:00:00 | |
| OE3JTB-15 | 2026-08-31 18:12:17 | 48.40130 | 13.03355 | 102° | 31km/h | 1783m | -3.8m/s | 11.4°C | 63.4% | 829.2hPa | 2.7V | 00:00:00 | 00:00:00 | 00:00:00 | |
| DO3MHA-12 | 2026-08-31 18:12:16 | 48.40132 | 13.03344 | 104° | 37km/h | 1787m | -3.7m/s | 11.3°C | 63.6% | 828.8hPa | 2.7V | 00:00:00 | 02:05:59 | 00:00:00 | |
| DO3MHA-11 | 2026-08-31 18:12:16 | 48.40132 | 13.03344 | 104° | 37km/h | 1787m | -3.7m/s | 11.3°C | 63.6% | 828.8hPa | 2.7V | 00:00:00 | 02:05:59 | 00:00:00 | |
| OE3JTB-15 | 2026-08-31 18:12:15 | 48.40134 | 13.03331 | 102° | 37km/h | 1790m | -3.6m/s | 11.3°C | 63.6% | 828.5hPa | 2.7V | 01:22:00 | 02:05:58 | 00:00:00 | |
| OE3JTB-15 | 2026-08-31 18:12:13 | 48.40136 | 13.03304 | 94° | 38km/h | 1798m | -3.8m/s | 11.2°C | 63.8% | 827.7hPa | 2.7V | 00:00:00 | 00:00:00 | 00:00:00 | |
| OE3JTB-15 | 2026-08-31 18:12:11 | 48.40136 | 13.03276 | 87° | 33km/h | 1805m | -4.0m/s | 11.1°C | 64.0% | 827.0hPa | 2.7V | 01:22:00 | 00:00:00 | 00:00:00 | |
| DO3MHA-12 | 2026-08-31 18:12:11 | 48.40136 | 13.03276 | 87° | 31km/h | 1805m | -4.0m/s | 11.1°C | 64.0% | 827.0hPa | 2.7V | 01:22:00 | 02:05:54 | 00:00:00 | |
| DO3MHA-11 | 2026-08-31 18:12:11 | 48.40136 | 13.03276 | 87° | 31km/h | 1805m | -4.0m/s | 11.1°C | 64.0% | 827.0hPa | 2.7V | 01:22:00 | 02:05:54 | 00:00:00 | |
| OE5MMP-10 | 2026-08-31 18:12:10 | 48.40136 | 13.03263 | 87° | 35km/h | 1809m | -3.7m/s | 11.1°C | 64.0% | 826.7hPa | 2.7V | 00:00:00 | 02:05:53 | 00:00:00 | |
| OE3JTB-15 | 2026-08-31 18:12:09 | 48.40136 | 13.03251 | 89° | 29km/h | 1813m | -3.6m/s | 11.1°C | 64.1% | 826.2hPa | 2.7V | 00:00:00 | 02:05:52 | 00:00:00 | |
| OE3JTB-15 | 2026-08-31 18:12:07 | 48.40136 | 13.03229 | 100° | 31km/h | 1820m | -3.6m/s | 11.0°C | 64.4% | 825.6hPa | 2.7V | 01:22:00 | 00:00:00 | 00:00:00 | |
| OE5DXL-15 | 2026-08-31 18:12:07 | 48.40136 | 13.03229 | 100° | 33km/h | 1820m | -3.6m/s | 11.0°C | 64.4% | 825.6hPa | 2.7V | 01:22:00 | 00:00:00 | 00:00:00 | |
| DO3MHA-12 | 2026-08-31 18:12:06 | 48.40138 | 13.03218 | 103° | 37km/h | 1824m | -3.7m/s | 11.0°C | 64.4% | 825.0hPa | 2.7V | 00:00:00 | 02:05:49 | 00:00:00 | |
| DO3MHA-11 | 2026-08-31 18:12:06 | 48.40138 | 13.03218 | 103° | 37km/h | 1824m | -3.7m/s | 11.0°C | 64.4% | 825.0hPa | 2.7V | 00:00:00 | 02:05:49 | 00:00:00 | |
| OE3JTB-15 | 2026-08-31 18:12:05 | 48.40140 | 13.03205 | 103° | 37km/h | 1828m | -3.5m/s | 11.0°C | 64.6% | 824.8hPa | 2.7V | 00:00:00 | 00:00:00 | 00:00:00 | |
| OE3JTB-15 | 2026-08-31 18:12:03 | 48.40143 | 13.03177 | 96° | 40km/h | 1835m | -3.6m/s | 10.9°C | 64.8% | 824.1hPa | 2.7V | 01:22:00 | 02:05:46 | 00:00:00 | |
| OE5MMP-10 | 2026-08-31 18:12:03 | 48.40143 | 13.03177 | 96° | 40km/h | 1835m | -3.6m/s | 10.9°C | 64.8% | 824.1hPa | 2.7V | 01:22:00 | 02:05:46 | 00:00:00 | |
| OE3JTB-15 | 2026-08-31 18:12:01 | 48.40143 | 13.03147 | 88° | 37km/h | 1843m | -3.8m/s | 10.8°C | 65.1% | 823.4hPa | 2.7V | 00:00:00 | 00:00:00 | 00:00:00 | |
| DO3MHA-11 | 2026-08-31 18:12:01 | 48.40143 | 13.03147 | 88° | 33km/h | 1843m | -3.8m/s | 10.8°C | 65.1% | 823.4hPa | 2.7V | 01:22:00 | 02:05:44 | 00:00:00 | |
| DO3MHA-12 | 2026-08-31 18:12:01 | 48.40143 | 13.03147 | 88° | 33km/h | 1843m | -3.8m/s | 10.8°C | 65.1% | 823.4hPa | 2.7V | 01:22:00 | 02:05:44 | 00:00:00 | |
| OE3JTB-15 | 2026-08-31 18:11:59 | 48.40142 | 13.03121 | 84° | 31km/h | 1850m | -3.4m/s | 10.7°C | 65.2% | 822.6hPa | 2.7V | 01:22:00 | 00:00:00 | 00:00:00 | |
| OE5MMP-10 | 2026-08-31 18:11:58 | 48.40141 | 13.03109 | 86° | 27km/h | 1854m | -3.6m/s | 10.7°C | 65.3% | 822.1hPa | 2.7V | 00:00:00 | 02:05:41 | 00:00:00 | |
| OE3JTB-15 | 2026-08-31 18:11:57 | 48.40140 | 13.03099 | 91° | 26km/h | 1857m | -3.5m/s | 10.7°C | 65.2% | 821.9hPa | 2.7V | 00:00:00 | 02:05:40 | 00:00:00 | |
| DO3MHA-11 | 2026-08-31 18:11:56 | 48.40141 | 13.03089 | 98° | 27km/h | 1861m | -3.7m/s | 10.6°C | 65.4% | 821.6hPa | 2.7V | 00:00:00 | 02:05:39 | 00:00:00 | |
| DO3MHA-12 | 2026-08-31 18:11:56 | 48.40141 | 13.03089 | 98° | 27km/h | 1861m | -3.7m/s | 10.6°C | 65.4% | 821.6hPa | 2.7V | 00:00:00 | 02:05:39 | 00:00:00 | |
| OE3JTB-15 | 2026-08-31 18:11:55 | 48.40142 | 13.03079 | 102° | 26km/h | 1865m | -3.6m/s | 10.6°C | 65.5% | 821.2hPa | 2.7V | 01:22:00 | 00:00:00 | 00:00:00 | |
| OE3JTB-15 | 2026-08-31 18:11:53 | 48.40145 | 13.03059 | 107° | 31km/h | 1872m | -3.5m/s | 10.5°C | 65.8% | 820.4hPa | 2.7V | 00:00:00 | 00:00:00 | 00:00:00 | |
| OE5MMP-10 | 2026-08-31 18:11:53 | 48.40145 | 13.03059 | 107° | 35km/h | 1872m | -3.5m/s | 10.5°C | 65.8% | 820.4hPa | 2.7V | 01:22:00 | 02:05:36 | 00:00:00 | |
| OE3JTB-15 | 2026-08-31 18:11:51 | 48.40150 | 13.03036 | 104° | 37km/h | 1880m | -4.0m/s | 10.5°C | 65.8% | 819.8hPa | 2.7V | 01:22:00 | 02:05:34 | 00:00:00 | |
| DO3MHA-12 | 2026-08-31 18:11:51 | 48.40150 | 13.03036 | 104° | 38km/h | 1880m | -4.0m/s | 10.5°C | 65.8% | 819.8hPa | 2.7V | 01:22:00 | 02:05:34 | 00:00:00 | |
| DO3MHA-11 | 2026-08-31 18:11:51 | 48.40150 | 13.03036 | 104° | 38km/h | 1880m | -4.0m/s | 10.5°C | 65.8% | 819.8hPa | 2.7V | 01:22:00 | 02:05:34 | 00:00:00 | |
| OE3JTB-15 | 2026-08-31 18:11:49 | 48.40153 | 13.03008 | 97° | 38km/h | 1888m | -3.8m/s | 10.4°C | 66.2% | 818.8hPa | 2.7V | 00:00:00 | 00:00:00 | 00:00:00 | |
| OE3JTB-15 | 2026-08-31 18:11:47 | 48.40154 | 13.02979 | 89° | 37km/h | 1896m | -3.8m/s | 10.3°C | 66.3% | 818.3hPa | 2.6V | 01:22:00 | 00:00:00 | 00:00:00 | |
| OE5DXL-15 | 2026-08-31 18:11:47 | 48.40154 | 13.02979 | 89° | 35km/h | 1896m | -3.8m/s | 10.3°C | 66.3% | 818.3hPa | 2.6V | 00:00:00 | 00:00:00 | 00:00:00 | |
| OE5MMP-10 | 2026-08-31 18:11:47 | 48.40154 | 13.02979 | 89° | 33km/h | 1896m | -3.8m/s | 10.3°C | 66.3% | 818.3hPa | 2.6V | 00:00:00 | 02:05:30 | 00:00:00 | |
| DO3MHA-12 | 2026-08-31 18:11:46 | 48.40153 | 13.02965 | 87° | 31km/h | 1899m | -3.6m/s | 10.3°C | 66.4% | 817.8hPa | 2.7V | 00:00:00 | 02:05:29 | 00:00:00 | |
| DO3MHA-11 | 2026-08-31 18:11:46 | 48.40153 | 13.02965 | 87° | 31km/h | 1899m | -3.6m/s | 10.3°C | 66.4% | 817.8hPa | 2.7V | 00:00:00 | 02:05:29 | 00:00:00 | |
| OE3JTB-15 | 2026-08-31 18:11:45 | 48.40153 | 13.02952 | 88° | 31km/h | 1903m | -3.6m/s | 10.3°C | 66.7% | 817.5hPa | 2.7V | 00:00:00 | 02:05:28 | 00:00:00 | |
| OE3JTB-15 | 2026-08-31 18:11:43 | 48.40153 | 13.02929 | 97° | 29km/h | 1910m | -3.3m/s | 10.2°C | 66.8% | 816.9hPa | 2.7V | 01:22:00 | 00:00:00 | 00:00:00 | |
| OE5MMP-10 | 2026-08-31 18:11:42 | 48.40155 | 13.02918 | 104° | 38km/h | 1914m | -3.3m/s | 10.2°C | 66.9% | 816.5hPa | 2.7V | 01:22:00 | 02:05:25 | 00:00:00 | |
| DO3MHA-12 | 2026-08-31 18:11:41 | 48.40157 | 13.02907 | 106° | 38km/h | 1917m | -3.4m/s | 10.1°C | 66.7% | 816.0hPa | 2.7V | 01:22:00 | 02:05:24 | 00:00:00 | |
| OE3JTB-15 | 2026-08-31 18:11:41 | 48.40157 | 13.02907 | 106° | 35km/h | 1917m | -3.4m/s | 10.1°C | 66.7% | 816.0hPa | 2.7V | 00:00:00 | 00:00:00 | 00:00:00 | |
| DO3MHA-11 | 2026-08-31 18:11:41 | 48.40157 | 13.02907 | 106° | 38km/h | 1917m | -3.4m/s | 10.1°C | 66.7% | 816.0hPa | 2.7V | 01:22:00 | 02:05:24 | 00:00:00 | |
| OE3JTB-15 | 2026-08-31 18:11:39 | 48.40161 | 13.02880 | 102° | 40km/h | 1924m | -3.6m/s | 10.1°C | 66.1% | 815.5hPa | 2.7V | 01:22:00 | 02:05:22 | 00:00:00 | |
| OE3JTB-15 | 2026-08-31 18:11:37 | 48.40164 | 13.02850 | 94° | 38km/h | 1931m | -3.6m/s | 10.0°C | 66.1% | 814.7hPa | 2.7V | 00:00:00 | 00:00:00 | 00:00:00 | |
| DO3MHA-12 | 2026-08-31 18:11:36 | 48.40164 | 13.02835 | 91° | 35km/h | 1935m | -3.4m/s | 10.0°C | 66.4% | 814.4hPa | 2.7V | 00:00:00 | 02:05:19 | 00:00:00 | |
| DO3MHA-11 | 2026-08-31 18:11:36 | 48.40164 | 13.02835 | 91° | 35km/h | 1935m | -3.4m/s | 10.0°C | 66.4% | 814.4hPa | 2.7V | 00:00:00 | 02:05:19 | 00:00:00 | |
| OE5MMP-10 | 2026-08-31 18:11:35 | 48.40164 | 13.02821 | 88° | 37km/h | 1938m | -3.6m/s | 10.0°C | 66.7% | 813.8hPa | 2.7V | 00:00:00 | 02:05:18 | 00:00:00 | |
| OE3JTB-15 | 2026-08-31 18:11:35 | 48.40164 | 13.02821 | 88° | 37km/h | 1938m | -3.6m/s | 10.0°C | 66.7% | 813.8hPa | 2.7V | 01:22:00 | 00:00:00 | 00:00:00 | |
| OE3JTB-15 | 2026-08-31 18:11:33 | 48.40163 | 13.02794 | 88° | 37km/h | 1946m | -3.8m/s | 9.9°C | 66.8% | 813.2hPa | 2.7V | 00:00:00 | 02:05:16 | 00:00:00 | |
| DO3MHA-12 | 2026-08-31 18:11:31 | 48.40163 | 13.02769 | 96° | 37km/h | 1953m | -3.3m/s | 9.8°C | 67.0% | 812.6hPa | 2.7V | 01:23:00 | 02:05:14 | 00:00:00 | |
| DO3MHA-11 | 2026-08-31 18:11:31 | 48.40163 | 13.02769 | 96° | 37km/h | 1953m | -3.3m/s | 9.8°C | 67.0% | 812.6hPa | 2.7V | 01:23:00 | 02:05:14 | 00:00:00 | |
| OE5DXL-15 | 2026-08-31 18:11:27 | 48.40170 | 13.02714 | 100° | 38km/h | 1969m | -4.3m/s | 9.7°C | 67.5% | 811.2hPa | 2.7V | 01:23:00 | 00:00:00 | 00:00:00 | |
| OE5MMP-10 | 2026-08-31 18:11:27 | 48.40170 | 13.02714 | 100° | 42km/h | 1969m | -4.3m/s | 9.7°C | 67.5% | 811.2hPa | 2.7V | 01:23:00 | 02:05:10 | 00:00:00 | |
| DO3MHA-12 | 2026-08-31 18:11:26 | 48.40171 | 13.02699 | 97° | 38km/h | 1974m | -4.5m/s | 9.6°C | 67.8% | 810.7hPa | 2.7V | 00:00:00 | 02:05:09 | 00:00:00 | |
| DO3MHA-11 | 2026-08-31 18:11:26 | 48.40171 | 13.02699 | 97° | 38km/h | 1974m | -4.5m/s | 9.6°C | 67.8% | 810.7hPa | 2.7V | 00:00:00 | 02:05:09 | 00:00:00 | |
| OE5DRO-10 | 2026-08-31 18:11:24 | 48.40173 | 13.02669 | 95° | 38km/h | 1983m | -4.5m/s | 9.6°C | 67.7% | 809.6hPa | 2.7V | 01:23:00 | 00:00:00 | 00:00:00 | |
| OE3JTB-15 | 2026-08-31 18:11:24 | 48.40173 | 13.02669 | 95° | 40km/h | 1983m | -4.5m/s | 9.6°C | 67.7% | 809.6hPa | 2.7V | 01:23:00 | 00:00:00 | 00:00:00 | |
| DO3MHA-12 | 2026-08-31 18:11:21 | 48.40177 | 13.02627 | 103° | 40km/h | 1996m | -4.2m/s | 9.4°C | 68.2% | 808.3hPa | 2.7V | 01:23:00 | 02:05:04 | 00:00:00 | |
| DO3MHA-11 | 2026-08-31 18:11:21 | 48.40177 | 13.02627 | 103° | 40km/h | 1996m | -4.2m/s | 9.4°C | 68.2% | 808.3hPa | 2.7V | 01:23:00 | 02:05:04 | 00:00:00 | |
| OE5DRO-10 | 2026-08-31 18:11:17 | 48.40185 | 13.02567 | 99° | 37km/h | 2014m | -4.4m/s | 9.3°C | 67.6% | 806.7hPa | 2.7V | 00:00:00 | 00:00:00 | 00:00:00 | |
| DO3MHA-12 | 2026-08-31 18:11:16 | 48.40186 | 13.02551 | 96° | 38km/h | 2018m | -4.3m/s | 9.3°C | 67.3% | 806.3hPa | 2.7V | 00:00:00 | 02:04:59 | 00:00:00 | |
| OE3JTB-15 | 2026-08-31 18:11:15 | 48.40187 | 13.02536 | 94° | 37km/h | 2022m | -3.8m/s | 9.3°C | 67.1% | 805.9hPa | 2.6V | 00:00:00 | 00:00:00 | 00:00:00 | |
| DO3MHA-11 | 2026-08-31 18:11:11 | 48.40190 | 13.02482 | 101° | 37km/h | 2038m | -4.1m/s | 9.1°C | 67.6% | 804.3hPa | 2.6V | 01:23:00 | 02:04:54 | 00:00:00 | |
| OE5DRO-10 | 2026-08-31 18:11:10 | 48.40191 | 13.02470 | 105° | 42km/h | 2042m | -4.4m/s | 9.1°C | 67.9% | 804.1hPa | 2.6V | 01:23:00 | 00:00:00 | 00:00:00 | |
| OE5DXL-15 | 2026-08-31 18:11:07 | 48.40199 | 13.02427 | 106° | 42km/h | 2056m | -4.3m/s | 8.9°C | 68.3% | 802.5hPa | 2.7V | 00:00:00 | 00:00:00 | 00:00:00 | |
| DO3MHA-11 | 2026-08-31 18:11:06 | 48.40202 | 13.02411 | 103° | 44km/h | 2060m | -4.3m/s | 8.9°C | 68.9% | 802.2hPa | 2.7V | 00:00:00 | 02:04:49 | 00:00:00 | |
| OE5DRO-10 | 2026-08-31 18:11:03 | 48.40206 | 13.02360 | 96° | 42km/h | 2073m | -4.1m/s | 8.8°C | 68.5% | 801.2hPa | 2.7V | 00:00:00 | 00:00:00 | 00:00:00 | |
| DO3MHA-11 | 2026-08-31 18:11:01 | 48.40208 | 13.02328 | 98° | 42km/h | 2081m | -4.2m/s | 8.7°C | 68.3% | 800.3hPa | 2.7V | 01:23:00 | 02:04:44 | 00:00:00 | |
| OE5MMP-10 | 2026-08-31 18:10:58 | 48.40214 | 13.02281 | 100° | 42km/h | 2093m | -4.1m/s | 8.6°C | 68.7% | 799.0hPa | 2.7V | 01:23:00 | 02:04:41 | 00:00:00 | |
| OE3JTB-15 | 2026-08-31 18:10:57 | 48.40215 | 13.02264 | 98° | 40km/h | 2097m | -4.2m/s | 8.6°C | 69.0% | 798.4hPa | 2.7V | 00:00:00 | 00:00:00 | 00:00:00 | |
| DO3MHA-11 | 2026-08-31 18:10:56 | 48.40217 | 13.02248 | 97° | 38km/h | 2102m | -4.0m/s | 8.5°C | 69.2% | 798.2hPa | 2.6V | 00:00:00 | 02:04:39 | 00:00:00 | |
| DO3MHA-11 | 2026-08-31 18:10:51 | 48.40225 | 13.02176 | 109° | 44km/h | 2122m | -4.0m/s | 8.3°C | 70.1% | 796.4hPa | 2.6V | 01:23:00 | 02:04:34 | 00:00:00 | |
| OE5DRO-10 | 2026-08-31 18:10:49 | 48.40231 | 13.02147 | 110° | 46km/h | 2130m | -4.1m/s | 8.3°C | 70.3% | 795.4hPa | 2.6V | 00:00:00 | 00:00:00 | 00:00:00 | |
| OE3JTB-15 | 2026-08-31 18:10:48 | 48.40235 | 13.02131 | 108° | 42km/h | 2134m | -4.0m/s | 8.2°C | 70.3% | 794.9hPa | 2.7V | 01:23:00 | 00:00:00 | 00:00:00 | |
| OE5DXL-15 | 2026-08-31 18:10:47 | 48.40238 | 13.02114 | 104° | 44km/h | 2138m | -4.0m/s | 8.2°C | 70.8% | 794.7hPa | 2.7V | 01:23:00 | 00:00:00 | 00:00:00 | |
| OE5MMP-10 | 2026-08-31 18:10:46 | 48.40240 | 13.02096 | 101° | 38km/h | 2142m | -4.0m/s | 8.1°C | 70.9% | 794.3hPa | 2.7V | 00:00:00 | 02:04:29 | 00:00:00 | |
| OE5DRO-10 | 2026-08-31 18:10:42 | 48.40243 | 13.02031 | 94° | 38km/h | 2158m | -4.3m/s | 8.0°C | 71.7% | 792.7hPa | 2.7V | 01:23:00 | 00:00:00 | 00:00:00 | |
| DO3MHA-11 | 2026-08-31 18:10:41 | 48.40244 | 13.02017 | 98° | 37km/h | 2162m | -4.6m/s | 7.9°C | 71.8% | 792.2hPa | 2.7V | 01:23:00 | 02:04:24 | 00:00:00 | |
| OE3JTB-15 | 2026-08-31 18:10:39 | 48.40247 | 13.01990 | 105° | 46km/h | 2171m | -4.7m/s | 7.8°C | 72.0% | 791.5hPa | 2.7V | 00:00:00 | 02:04:22 | 00:00:00 | |
| DO3MHA-12 | 2026-08-31 18:10:36 | 48.40257 | 13.01947 | 111° | 47km/h | 2184m | -4.0m/s | 7.7°C | 72.5% | 790.0hPa | 2.7V | 00:00:00 | 02:04:19 | 00:00:00 | |
| OE5DRO-10 | 2026-08-31 18:10:35 | 48.40261 | 13.01931 | 110° | 49km/h | 2188m | -4.0m/s | 7.7°C | 72.6% | 789.7hPa | 2.7V | 00:00:00 | 00:00:00 | 00:00:00 | |
| OE5MMP-10 | 2026-08-31 18:10:33 | 48.40268 | 13.01896 | 106° | 44km/h | 2196m | -4.1m/s | 7.6°C | 73.1% | 788.9hPa | 2.7V | 01:23:00 | 02:04:16 | 00:00:00 | |
| DO3MHA-12 | 2026-08-31 18:10:31 | 48.40274 | 13.01858 | 101° | 49km/h | 2204m | -4.0m/s | 7.5°C | 72.8% | 788.1hPa | 2.7V | 01:24:00 | 02:04:14 | 00:00:00 | |
| OE3JTB-15 | 2026-08-31 18:10:30 | 48.40276 | 13.01839 | 97° | 46km/h | 2208m | -3.8m/s | 7.5°C | 72.9% | 787.8hPa | 2.7V | 01:24:00 | 00:00:00 | 00:00:00 | |
| OE5DRO-10 | 2026-08-31 18:10:28 | 48.40278 | 13.01801 | 91° | 44km/h | 2216m | -3.9m/s | 7.4°C | 73.2% | 787.0hPa | 2.6V | 01:24:00 | 00:00:00 | 00:00:00 | |
| OE5DXL-15 | 2026-08-31 18:10:27 | 48.40278 | 13.01783 | 90° | 46km/h | 2220m | -3.8m/s | 7.4°C | 73.0% | 786.7hPa | 2.7V | 00:00:00 | 02:04:10 | 00:00:00 | |
| DO3MHA-11 | 2026-08-31 18:10:26 | 48.40278 | 13.01765 | 91° | 42km/h | 2223m | -4.1m/s | 7.4°C | 73.1% | 786.2hPa | 2.7V | 00:00:00 | 02:04:09 | 00:00:00 | |
| DO3MHA-11 | 2026-08-31 18:10:16 | 48.40301 | 13.01599 | 98° | 49km/h | 2263m | -3.7m/s | 7.0°C | 74.4% | 782.4hPa | 2.7V | 00:00:00 | 02:03:59 | 00:00:00 | |
| OE5DRO-10 | 2026-08-31 18:10:14 | 48.40303 | 13.01560 | 94° | 47km/h | 2270m | -4.0m/s | 6.9°C | 74.6% | 781.7hPa | 2.7V | 01:24:00 | 00:00:00 | 00:00:00 | |
| OE5HKT-10 | 2026-08-31 18:10:12 | 48.40305 | 13.01524 | 93° | 46km/h | 2278m | -4.0m/s | 6.8°C | 74.9% | 781.0hPa | 2.7V | 01:24:00 | 00:00:00 | 00:00:00 | |
| DO3MHA-11 | 2026-08-31 18:10:11 | 48.40305 | 13.01506 | 93° | 46km/h | 2282m | -4.2m/s | 6.8°C | 75.1% | 780.6hPa | 2.7V | 01:24:00 | 02:03:54 | 00:00:00 | |
| OE5DXL-15 | 2026-08-31 18:10:07 | 48.40309 | 13.01437 | 100° | 46km/h | 2298m | -3.6m/s | 6.6°C | 76.0% | 779.1hPa | 2.7V | 01:24:00 | 00:00:00 | 00:00:00 | |
| DO3MHA-11 | 2026-08-31 18:10:06 | 48.40311 | 13.01421 | 101° | 42km/h | 2302m | -4.1m/s | 6.6°C | 76.0% | 778.9hPa | 2.7V | 00:00:00 | 02:03:49 | 00:00:00 | |
| OE5HKT-10 | 2026-08-31 18:10:05 | 48.40313 | 13.01405 | 102° | 44km/h | 2306m | -3.1m/s | 6.6°C | 76.1% | 778.5hPa | 2.7V | 00:00:00 | 00:00:00 | 00:00:00 | |
| OE3JTB-15 | 2026-08-31 18:10:03 | 48.40318 | 13.01374 | 106° | 44km/h | 2313m | -3.9m/s | 6.5°C | 76.1% | 777.7hPa | 2.7V | 00:00:00 | 00:00:00 | 00:00:00 | |
| OE5MMP-10 | 2026-08-31 18:10:01 | 48.40324 | 13.01342 | 107° | 47km/h | 2320m | -3.9m/s | 6.4°C | 76.3% | 777.0hPa | 2.7V | 01:24:00 | 02:03:44 | 00:00:00 | |
| OE5DRO-10 | 2026-08-31 18:10:00 | 48.40327 | 13.01325 | 107° | 46km/h | 2324m | -4.9m/s | 6.4°C | 76.6% | 776.6hPa | 2.6V | 01:24:00 | 00:00:00 | 00:00:00 | |
| OE5HKT-10 | 2026-08-31 18:09:59 | 48.40330 | 13.01309 | 107° | 47km/h | 2329m | -3.6m/s | 6.4°C | 76.9% | 776.2hPa | 2.6V | 01:24:00 | 02:03:42 | 00:00:00 | |
| DO3MHA-12 | 2026-08-31 18:09:56 | 48.40340 | 13.01260 | 106° | 47km/h | 2341m | -3.5m/s | 6.2°C | 77.4% | 774.9hPa | 2.6V | 00:00:00 | 02:03:39 | 00:00:00 | |
| OE3JTB-15 | 2026-08-31 18:09:54 | 48.40347 | 13.01226 | 107° | 51km/h | 2348m | -4.3m/s | 6.2°C | 77.2% | 774.3hPa | 2.6V | 01:24:00 | 00:00:00 | 00:00:00 | |
| OE5DRO-10 | 2026-08-31 18:09:53 | 48.40350 | 13.01208 | 106° | 51km/h | 2352m | -3.9m/s | 6.1°C | 77.4% | 774.0hPa | 2.6V | 00:00:00 | 00:00:00 | 00:00:00 | |
| DO3MHA-11 | 2026-08-31 18:09:51 | 48.40357 | 13.01172 | 106° | 51km/h | 2360m | -4.1m/s | 6.1°C | 77.6% | 773.2hPa | 2.6V | 01:24:00 | 02:03:34 | 00:00:00 | |
| OE5MMP-10 | 2026-08-31 18:09:47 | 48.40371 | 13.01097 | 105° | 55km/h | 2377m | -3.6m/s | 5.9°C | 78.1% | 771.7hPa | 2.6V | 00:00:00 | 02:03:30 | 00:00:00 | |
| DO3MHA-11 | 2026-08-31 18:09:46 | 48.40374 | 13.01078 | 105° | 53km/h | 2380m | -4.0m/s | 5.9°C | 78.6% | 771.3hPa | 2.6V | 00:00:00 | 02:03:29 | 00:00:00 | |
| OE5HKT-10 | 2026-08-31 18:09:45 | 48.40377 | 13.01058 | 105° | 53km/h | 2384m | -3.9m/s | 5.8°C | 78.5% | 770.9hPa | 2.7V | 01:24:00 | 00:00:00 | 00:00:00 | |
| DO3MHA-11 | 2026-08-31 18:09:41 | 48.40390 | 13.00979 | 103° | 55km/h | 2402m | -4.4m/s | 5.7°C | 79.1% | 769.2hPa | 2.7V | 01:24:00 | 02:03:24 | 00:00:00 | |
| OE5WHR-10 | 2026-08-31 18:09:40 | 48.40393 | 13.00959 | 102° | 53km/h | 2407m | -4.8m/s | 5.6°C | 79.2% | 768.8hPa | 2.7V | 00:00:00 | 00:00:00 | 00:00:00 | |
| OE5MMP-10 | 2026-08-31 18:09:37 | 48.40400 | 13.00896 | 96° | 47km/h | 2420m | -4.3m/s | 5.6°C | 78.1% | 767.8hPa | 2.7V | 01:24:00 | 02:03:20 | 00:00:00 | |
| DO3MHA-12 | 2026-08-31 18:09:36 | 48.40401 | 13.00875 | 94° | 49km/h | 2424m | -4.4m/s | 5.6°C | 78.0% | 767.2hPa | 2.7V | 00:00:00 | 02:03:19 | 00:00:00 | |
| OE5WHR-10 | 2026-08-31 18:09:33 | 48.40403 | 13.00818 | 94° | 55km/h | 2437m | -4.2m/s | 5.5°C | 78.1% | 766.1hPa | 2.7V | 01:24:00 | 02:03:16 | 00:00:00 | |
| OE5DRO-10 | 2026-08-31 18:09:32 | 48.40404 | 13.00801 | 95° | 44km/h | 2441m | -3.9m/s | 5.4°C | 77.7% | 765.7hPa | 2.7V | 01:24:00 | 00:00:00 | 00:00:00 | |
| DO3MHA-11 | 2026-08-31 18:09:31 | 48.40405 | 13.00784 | 96° | 44km/h | 2445m | -3.7m/s | 5.4°C | 77.9% | 765.3hPa | 2.7V | 01:25:00 | 02:03:14 | 00:00:00 | |
| OE3JTB-15 | 2026-08-31 18:09:27 | 48.40413 | 13.00718 | 104° | 53km/h | 2463m | -4.6m/s | 5.3°C | 76.9% | 763.7hPa | 2.7V | 00:00:00 | 00:00:00 | 00:00:00 | |
| DO3MHA-11 | 2026-08-31 18:09:26 | 48.40416 | 13.00701 | 107° | 49km/h | 2467m | -4.1m/s | 5.3°C | 76.5% | 763.2hPa | 2.7V | 00:00:00 | 02:03:09 | 00:00:00 | |
| OE5DRO-10 | 2026-08-31 18:09:25 | 48.40419 | 13.00684 | 107° | 57km/h | 2471m | -3.9m/s | 5.3°C | 76.7% | 762.8hPa | 2.7V | 00:00:00 | 00:00:00 | 00:00:00 | |
| OE5MMP-10 | 2026-08-31 18:09:23 | 48.40427 | 13.00647 | 108° | 57km/h | 2479m | -4.2m/s | 5.2°C | 76.8% | 762.0hPa | 2.7V | 00:00:00 | 02:03:06 | 00:00:00 | |
| DO3MHA-11 | 2026-08-31 18:09:21 | 48.40435 | 13.00610 | 109° | 57km/h | 2488m | -4.1m/s | 5.1°C | 76.5% | 761.5hPa | 2.7V | 01:25:00 | 02:03:04 | 00:00:00 | |
| DO3MHA-12 | 2026-08-31 18:09:16 | 48.40455 | 13.00506 | 106° | 60km/h | 2509m | -3.9m/s | 5.0°C | 76.4% | 759.2hPa | 2.7V | 00:00:00 | 02:02:59 | 00:00:00 | |
| OE5WHR-10 | 2026-08-31 18:09:13 | 48.40467 | 13.00441 | 106° | 62km/h | 2522m | -4.2m/s | 4.8°C | 77.1% | 758.2hPa | 2.7V | 00:00:00 | 00:00:00 | 00:00:00 | |
| OE5HKT-10 | 2026-08-31 18:09:12 | 48.40471 | 13.00419 | 106° | 62km/h | 2526m | -4.7m/s | 4.8°C | 77.1% | 757.7hPa | 2.6V | 01:25:00 | 02:02:55 | 00:00:00 | |
| DO3MHA-11 | 2026-08-31 18:09:11 | 48.40475 | 13.00397 | 106° | 60km/h | 2531m | -4.3m/s | 4.8°C | 77.1% | 757.3hPa | 2.6V | 01:25:00 | 02:02:54 | 00:00:00 | |
| OE5DRO-10 | 2026-08-31 18:09:09 | 48.40482 | 13.00353 | 105° | 64km/h | 2540m | -4.4m/s | 4.7°C | 77.5% | 756.6hPa | 2.6V | 01:25:00 | 00:00:00 | 00:00:00 | |
| DO3MHA-11 | 2026-08-31 18:09:06 | 48.40493 | 13.00285 | 103° | 62km/h | 2553m | -4.2m/s | 4.6°C | 78.0% | 755.5hPa | 2.6V | 00:00:00 | 02:02:49 | 00:00:00 | |
| DO3MHA-11 | 2026-08-31 18:09:01 | 48.40512 | 13.00170 | 104° | 64km/h | 2573m | -3.4m/s | 4.4°C | 79.1% | 753.4hPa | 2.6V | 01:25:00 | 02:02:44 | 00:00:00 | |
| OE5DXL-15 | 2026-08-31 18:09:00 | 48.40515 | 13.00147 | 105° | 68km/h | 2577m | -4.7m/s | 4.4°C | 78.0% | 753.0hPa | 2.7V | 00:00:00 | 00:00:00 | 00:00:00 | |
| DO3MHA-11 | 2026-08-31 18:08:56 | 48.40529 | 13.00049 | 101° | 69km/h | 2595m | -4.9m/s | 4.3°C | 77.1% | 751.4hPa | 2.7V | 00:00:00 | 02:02:39 | 00:00:00 | |
| OE5HKT-10 | 2026-08-31 18:08:55 | 48.40532 | 13.00023 | 100° | 68km/h | 2599m | -4.3m/s | 4.3°C | 75.7% | 751.1hPa | 2.7V | 00:00:00 | 00:00:00 | 00:00:00 | |
| OE3JTB-15 | 2026-08-31 18:08:54 | 48.40535 | 12.99997 | 99° | 68km/h | 2604m | -4.5m/s | 4.3°C | 75.4% | 750.6hPa | 2.7V | 00:00:00 | 00:00:00 | 00:00:00 | |
| OE5DRO-10 | 2026-08-31 18:08:53 | 48.40538 | 12.99970 | 99° | 68km/h | 2608m | -4.7m/s | 4.2°C | 75.7% | 750.1hPa | 2.7V | 00:00:00 | 00:00:00 | 00:00:00 | |
| DO3MHA-11 | 2026-08-31 18:08:51 | 48.40543 | 12.99917 | 100° | 69km/h | 2617m | -4.1m/s | 4.1°C | 76.6% | 749.4hPa | 2.7V | 01:25:00 | 02:02:34 | 00:00:00 | |
| OE5MMP-10 | 2026-08-31 18:08:50 | 48.40546 | 12.99891 | 98° | 68km/h | 2621m | -4.0m/s | 4.1°C | 76.3% | 749.0hPa | 2.7V | 01:25:00 | 02:02:33 | 00:00:00 | |
| DO3MHA-11 | 2026-08-31 18:08:41 | 48.40556 | 12.99660 | 92° | 64km/h | 2658m | -4.0m/s | 3.9°C | 74.3% | 745.7hPa | 2.7V | 01:25:00 | 02:02:24 | 00:00:00 | |
| OE5MMP-10 | 2026-08-31 18:08:40 | 48.40557 | 12.99636 | 93° | 69km/h | 2662m | -4.2m/s | 3.9°C | 73.7% | 745.2hPa | 2.7V | 00:00:00 | 02:02:23 | 00:00:00 | |
| OE5WHR-10 | 2026-08-31 18:08:39 | 48.40558 | 12.99612 | 94° | 69km/h | 2666m | -4.2m/s | 3.9°C | 73.1% | 744.9hPa | 2.7V | 00:00:00 | 02:02:22 | 00:00:00 | |
| OE5HKT-10 | 2026-08-31 18:08:38 | 48.40559 | 12.99588 | 96° | 71km/h | 2670m | -3.7m/s | 3.9°C | 73.2% | 744.7hPa | 2.7V | 01:25:00 | 00:00:00 | 00:00:00 | |
| OE5DRO-10 | 2026-08-31 18:08:37 | 48.40561 | 12.99565 | 99° | 71km/h | 2674m | -4.1m/s | 3.8°C | 73.3% | 744.3hPa | 2.7V | 01:25:00 | 00:00:00 | 00:00:00 | |
| DO3MHA-11 | 2026-08-31 18:08:36 | 48.40563 | 12.99541 | 101° | 66km/h | 2678m | -3.2m/s | 3.8°C | 73.2% | 743.8hPa | 2.7V | 00:00:00 | 02:02:19 | 00:00:00 | |
| OE3JTB-15 | 2026-08-31 18:08:35 | 48.40567 | 12.99517 | 103° | 75km/h | 2681m | -3.8m/s | 3.8°C | 73.3% | 743.5hPa | 2.7V | 01:25:00 | 00:00:00 | 00:00:00 | |
| DO3MHA-11 | 2026-08-31 18:08:31 | 48.40584 | 12.99417 | 105° | 71km/h | 2698m | -3.9m/s | 3.7°C | 73.1% | 742.1hPa | 2.7V | 01:26:00 | 02:02:14 | 00:00:00 | |
| OE5DXL-15 | 2026-08-31 18:08:30 | 48.40588 | 12.99391 | 105° | 82km/h | 2702m | -3.9m/s | 3.7°C | 71.3% | 741.9hPa | 2.6V | 01:26:00 | 00:00:00 | 00:00:00 | |
| OE5MMP-10 | 2026-08-31 18:08:27 | 48.40601 | 12.99311 | 104° | 78km/h | 2713m | -4.1m/s | 3.6°C | 71.6% | 740.8hPa | 2.6V | 01:26:00 | 02:02:10 | 00:00:00 | |
| DO3MHA-11 | 2026-08-31 18:08:26 | 48.40606 | 12.99284 | 104° | 77km/h | 2717m | -4.2m/s | 3.6°C | 71.7% | 740.5hPa | 2.6V | 00:00:00 | 02:02:09 | 00:00:00 | |
| OE5WHR-10 | 2026-08-31 18:08:22 | 48.40623 | 12.99170 | 102° | 82km/h | 2734m | -4.3m/s | 3.4°C | 72.3% | 738.8hPa | 2.6V | 01:26:00 | 00:00:00 | 00:00:00 | |
| DO3MHA-11 | 2026-08-31 18:08:21 | 48.40627 | 12.99141 | 102° | 80km/h | 2738m | -4.0m/s | 3.5°C | 70.7% | 738.4hPa | 2.6V | 01:26:00 | 02:02:04 | 00:00:00 | |
| DO3MHA-11 | 2026-08-31 18:08:16 | 48.40646 | 12.98989 | 101° | 84km/h | 2758m | -3.6m/s | 3.5°C | 66.2% | 736.5hPa | 2.6V | 00:00:00 | 02:01:59 | 00:00:00 | |
| DO3MHA-11 | 2026-08-31 18:08:11 | 48.40665 | 12.98834 | 101° | 84km/h | 2780m | -4.3m/s | 3.3°C | 66.1% | 734.6hPa | 2.7V | 01:26:00 | 02:01:54 | 00:00:00 | |
| DO3MHA-11 | 2026-08-31 18:08:06 | 48.40683 | 12.98674 | 99° | 88km/h | 2801m | -4.5m/s | 3.1°C | 66.2% | 732.5hPa | 2.7V | 00:00:00 | 02:01:49 | 00:00:00 | |
| OE5WHR-10 | 2026-08-31 18:08:05 | 48.40686 | 12.98642 | 99° | 91km/h | 2806m | -4.1m/s | 3.1°C | 66.7% | 732.4hPa | 2.7V | 00:00:00 | 00:00:00 | 00:00:00 | |
| OE5HKT-10 | 2026-08-31 18:08:04 | 48.40690 | 12.98609 | 99° | 91km/h | 2810m | -4.2m/s | 3.1°C | 65.8% | 731.8hPa | 2.7V | 01:26:00 | 00:00:00 | 00:00:00 | |
| DO3MHA-11 | 2026-08-31 18:08:01 | 48.40699 | 12.98508 | 98° | 91km/h | 2822m | -4.2m/s | 3.1°C | 63.7% | 730.7hPa | 2.5V | 01:26:00 | 02:01:44 | 00:00:00 | |
| OE5DXL-15 | 2026-08-31 18:08:00 | 48.40701 | 12.98474 | 97° | 91km/h | 2827m | -4.6m/s | 3.1°C | 63.0% | 730.2hPa | 2.7V | 00:00:00 | 00:00:00 | 00:00:00 | |
| DG1MFX-10 | 2026-08-31 18:07:58 | 48.40704 | 12.98440 | 97° | 91km/h | 2832m | -4.6m/s | 3.1°C | 63.0% | 730.1hPa | 2.7V | 01:26:00 | 00:00:00 | 00:00:00 | |
| OE3JTB-15 | 2026-08-31 18:07:57 | 48.40709 | 12.98371 | 96° | 91km/h | 2841m | -4.6m/s | 3.0°C | 61.2% | 729.1hPa | 2.7V | 01:26:00 | 00:00:00 | 00:00:00 | |
| DO3MHA-12 | 2026-08-31 18:07:56 | 48.40711 | 12.98336 | 95° | 91km/h | 2846m | -4.6m/s | 3.0°C | 61.9% | 728.6hPa | 2.7V | 00:00:00 | 02:01:39 | 00:00:00 | |
| DO3MHA-12 | 2026-08-31 18:07:51 | 48.40717 | 12.98162 | 92° | 91km/h | 2868m | -3.9m/s | 2.8°C | 61.4% | 726.7hPa | 2.7V | 01:26:00 | 02:01:34 | 00:00:00 | |
| OE5DRO-10 | 2026-08-31 18:07:49 | 48.40719 | 12.98092 | 91° | 91km/h | 2876m | -4.4m/s | 3.0°C | 57.1% | 726.0hPa | 2.7V | 00:00:00 | 00:00:00 | 00:00:00 | |
| OE5WHR-10 | 2026-08-31 18:07:48 | 48.40719 | 12.98058 | 91° | 89km/h | 2881m | -4.3m/s | 3.0°C | 56.7% | 725.6hPa | 2.6V | 01:26:00 | 02:01:31 | 00:00:00 | |
| DO3MHA-11 | 2026-08-31 18:07:41 | 48.40717 | 12.97814 | 89° | 89km/h | 2911m | -4.5m/s | 2.9°C | 53.9% | 722.9hPa | 2.6V | 01:26:00 | 02:01:24 | 00:00:00 | |
| OE3JTB-15 | 2026-08-31 18:07:38 | 48.40713 | 12.97710 | 87° | 86km/h | 2924m | -3.9m/s | 3.0°C | 52.1% | 721.8hPa | 2.6V | 00:00:00 | 00:00:00 | 00:00:00 | |
| DO3MHA-11 | 2026-08-31 18:07:36 | 48.40711 | 12.97642 | 87° | 88km/h | 2932m | -3.7m/s | 3.1°C | 49.7% | 720.9hPa | 2.6V | 00:00:00 | 02:01:19 | 00:00:00 | |
| OE5MMP-10 | 2026-08-31 18:07:33 | 48.40706 | 12.97541 | 86° | 86km/h | 2943m | -3.6m/s | 3.3°C | 47.6% | 719.9hPa | 2.6V | 00:00:00 | 02:01:16 | 00:00:00 | |
| DO3MHA-11 | 2026-08-31 18:07:31 | 48.40703 | 12.97475 | 86° | 86km/h | 2951m | -3.4m/s | 3.5°C | 45.1% | 719.3hPa | 2.6V | 01:27:00 | 02:01:14 | 00:00:00 | |
| OE5DXL-15 | 2026-08-31 18:07:30 | 48.40701 | 12.97442 | 86° | 82km/h | 2955m | -3.8m/s | 3.5°C | 43.7% | 718.9hPa | 2.7V | 01:27:00 | 00:00:00 | 00:00:00 | |
| OE5HKT-10 | 2026-08-31 18:07:29 | 48.40699 | 12.97409 | 85° | 84km/h | 2959m | -4.0m/s | 3.7°C | 41.0% | 718.5hPa | 2.7V | 01:27:00 | 02:01:12 | 00:00:00 | |
| DO3MHA-11 | 2026-08-31 18:07:26 | 48.40692 | 12.97311 | 84° | 86km/h | 2972m | -4.8m/s | 4.1°C | 41.3% | 717.4hPa | 2.7V | 00:00:00 | 02:01:09 | 00:00:00 | |
| DO3MHA-11 | 2026-08-31 18:07:21 | 48.40679 | 12.97151 | 84° | 80km/h | 2993m | -4.7m/s | 4.0°C | 44.0% | 715.5hPa | 2.7V | 01:27:00 | 02:01:04 | 00:00:00 | |
| OE5MMP-10 | 2026-08-31 18:07:20 | 48.40677 | 12.97119 | 84° | 82km/h | 2998m | -4.0m/s | 4.0°C | 43.9% | 715.0hPa | 2.7V | 01:27:00 | 02:01:03 | 00:00:00 | |
| OE3JTB-15 | 2026-08-31 18:07:19 | 48.40675 | 12.97088 | 85° | 80km/h | 3002m | -3.9m/s | 3.9°C | 44.0% | 714.7hPa | 2.7V | 01:27:00 | 02:01:02 | 00:00:00 | |
| DG1MFX-10 | 2026-08-31 18:07:18 | 48.40675 | 12.97088 | 85° | 80km/h | 3002m | -4.0m/s | 4.0°C | 44.4% | 714.7hPa | 2.7V | 01:27:00 | 00:00:00 | 00:00:00 | |
| OE5DRO-10 | 2026-08-31 18:07:17 | 48.40671 | 12.97028 | 86° | 80km/h | 3010m | -4.1m/s | 3.9°C | 44.8% | 714.2hPa | 2.7V | 00:00:00 | 00:00:00 | 00:00:00 | |
| DO3MHA-12 | 2026-08-31 18:07:16 | 48.40670 | 12.96998 | 87° | 78km/h | 3014m | -4.3m/s | 3.9°C | 48.2% | 713.5hPa | 2.7V | 00:00:00 | 02:00:59 | 00:00:00 | |
| OE5WHR-10 | 2026-08-31 18:07:14 | 48.40668 | 12.96939 | 89° | 78km/h | 3023m | -3.6m/s | 3.8°C | 48.8% | 712.9hPa | 2.6V | 01:27:00 | 00:00:00 | 00:00:00 | |
| OE5HKT-10 | 2026-08-31 18:07:12 | 48.40668 | 12.96878 | 90° | 75km/h | 3030m | -3.9m/s | 3.8°C | 50.5% | 712.3hPa | 2.6V | 00:00:00 | 00:00:00 | 00:00:00 | |
| DO3MHA-11 | 2026-08-31 18:07:11 | 48.40668 | 12.96847 | 91° | 84km/h | 3034m | -4.0m/s | 3.7°C | 53.9% | 711.9hPa | 2.5V | 01:27:00 | 02:00:54 | 00:00:00 | |
| DO3MHA-11 | 2026-08-31 18:07:06 | 48.40669 | 12.96686 | 91° | 78km/h | 3054m | -4.0m/s | 3.6°C | 54.9% | 710.3hPa | 2.5V | 00:00:00 | 02:00:49 | 00:00:00 | |
| OE5MMP-10 | 2026-08-31 18:07:05 | 48.40669 | 12.96655 | 90° | 75km/h | 3058m | -4.5m/s | 3.5°C | 56.5% | 709.7hPa | 2.5V | 00:00:00 | 02:00:48 | 00:00:00 | |
| DO3MHA-11 | 2026-08-31 18:07:01 | 48.40667 | 12.96538 | 88° | 75km/h | 3075m | -4.7m/s | 3.4°C | 59.1% | 708.3hPa | 2.7V | 01:27:00 | 02:00:44 | 00:00:00 | |
| OE5DXL-15 | 2026-08-31 18:07:00 | 48.40666 | 12.96509 | 88° | 71km/h | 3080m | -4.7m/s | 3.4°C | 59.8% | 707.9hPa | 2.7V | 00:00:00 | 00:00:00 | 00:00:00 | |
| DG1MFX-10 | 2026-08-31 18:06:57 | 48.40664 | 12.96452 | 88° | 75km/h | 3089m | -4.6m/s | 3.3°C | 60.5% | 707.2hPa | 2.7V | 01:28:00 | 00:00:00 | 00:00:00 | |
| DO3MHA-11 | 2026-08-31 18:06:56 | 48.40661 | 12.96396 | 85° | 73km/h | 3100m | -5.4m/s | 3.1°C | 60.6% | 706.2hPa | 2.7V | 00:00:00 | 02:00:39 | 00:00:00 | |
| DO3MHA-11 | 2026-08-31 18:06:51 | 48.40647 | 12.96260 | 79° | 71km/h | 3127m | -5.1m/s | 2.9°C | 70.5% | 703.7hPa | 2.7V | 01:27:00 | 02:00:34 | 00:00:00 | |
| OE5MMP-10 | 2026-08-31 18:06:47 | 48.40633 | 12.96153 | 80° | 69km/h | 3146m | -4.8m/s | 2.7°C | 66.9% | 702.1hPa | 2.7V | 01:27:00 | 02:00:30 | 00:00:00 | |
| DO3MHA-11 | 2026-08-31 18:06:46 | 48.40630 | 12.96127 | 80° | 69km/h | 3151m | -5.1m/s | 2.6°C | 68.8% | 701.6hPa | 2.7V | 00:00:00 | 02:00:29 | 00:00:00 | |
| OE5DRO-10 | 2026-08-31 18:06:45 | 48.40626 | 12.96101 | 79° | 69km/h | 3156m | -5.0m/s | 2.6°C | 74.6% | 701.2hPa | 2.7V | 00:00:00 | 00:00:00 | 00:00:00 | |
| DO3MHA-11 | 2026-08-31 18:06:41 | 48.40612 | 12.95999 | 78° | 69km/h | 3175m | -4.1m/s | 2.4°C | 73.6% | 699.4hPa | 2.7V | 01:27:00 | 02:00:24 | 00:00:00 | |
| OE5MMP-10 | 2026-08-31 18:06:37 | 48.40595 | 12.95897 | 75° | 71km/h | 3193m | -4.3m/s | 2.3°C | 79.4% | 698.2hPa | 2.7V | 00:00:00 | 02:00:20 | 00:00:00 | |
| DO3MHA-12 | 2026-08-31 18:06:36 | 48.40590 | 12.95871 | 74° | 71km/h | 3198m | -4.3m/s | 2.2°C | 82.5% | 697.6hPa | 2.7V | 00:00:00 | 02:00:19 | 00:00:00 | |
| DO3MHA-12 | 2026-08-31 18:06:31 | 48.40566 | 12.95741 | 76° | 68km/h | 3220m | -5.1m/s | 2.1°C | 82.0% | 695.6hPa | 2.7V | 01:28:00 | 02:00:14 | 00:00:00 | |
| OE5DXL-15 | 2026-08-31 18:06:30 | 48.40562 | 12.95716 | 75° | 73km/h | 3225m | -5.2m/s | 2.0°C | 82.0% | 695.1hPa | 2.5V | 01:28:00 | 00:00:00 | 00:00:00 | |
| OE5DRO-10 | 2026-08-31 18:06:29 | 48.40557 | 12.95691 | 76° | 71km/h | 3230m | -5.0m/s | 2.0°C | 82.4% | 694.8hPa | 2.5V | 01:28:00 | 00:00:00 | 00:00:00 | |
| OE5MMP-10 | 2026-08-31 18:06:27 | 48.40548 | 12.95641 | 75° | 73km/h | 3239m | -4.7m/s | 1.9°C | 82.6% | 694.0hPa | 2.5V | 01:28:00 | 02:00:10 | 00:00:00 | |
| DO3MHA-11 | 2026-08-31 18:06:26 | 48.40544 | 12.95616 | 75° | 69km/h | 3244m | -4.1m/s | 1.9°C | 82.8% | 693.5hPa | 2.7V | 00:00:00 | 02:00:09 | 00:00:00 | |
| OE3JTB-15 | 2026-08-31 18:06:22 | 48.40523 | 12.95513 | 73° | 75km/h | 3262m | -4.7m/s | 1.7°C | 84.2% | 691.9hPa | 2.7V | 00:00:00 | 02:00:05 | 00:00:00 | |
| DO3MHA-11 | 2026-08-31 18:06:21 | 48.40518 | 12.95487 | 73° | 75km/h | 3267m | -4.6m/s | 1.7°C | 84.6% | 691.6hPa | 2.7V | 01:28:00 | 02:00:04 | 00:00:00 | |
| DO3MHA-11 | 2026-08-31 18:06:16 | 48.40491 | 12.95351 | 75° | 77km/h | 3290m | -4.8m/s | 1.5°C | 88.5% | 689.6hPa | 2.7V | 00:00:00 | 01:59:59 | 00:00:00 | |
| DG1MFX-10 | 2026-08-31 18:06:15 | 48.40491 | 12.95351 | 75° | 75km/h | 3290m | -4.8m/s | 1.6°C | 89.1% | 689.7hPa | 2.5V | 01:28:00 | 00:00:00 | 00:00:00 | |
| OE5HKT-10 | 2026-08-31 18:06:14 | 48.40481 | 12.95295 | 75° | 77km/h | 3300m | -5.2m/s | 1.5°C | 89.2% | 688.8hPa | 2.5V | 01:28:00 | 00:00:00 | 00:00:00 | |
| OE5DRO-10 | 2026-08-31 18:06:13 | 48.40476 | 12.95268 | 75° | 77km/h | 3305m | -4.9m/s | 1.4°C | 89.3% | 688.3hPa | 2.5V | 00:00:00 | 00:00:00 | 00:00:00 | |
| OE5MMP-10 | 2026-08-31 18:06:12 | 48.40471 | 12.95240 | 75° | 77km/h | 3310m | -4.6m/s | 1.4°C | 89.0% | 687.9hPa | 2.7V | 00:00:00 | 01:59:55 | 00:00:00 | |
| DO3MHA-11 | 2026-08-31 18:06:11 | 48.40466 | 12.95212 | 75° | 77km/h | 3315m | -4.6m/s | 1.3°C | 89.2% | 687.5hPa | 2.7V | 01:28:00 | 01:59:54 | 00:00:00 | |
| DO3MHA-11 | 2026-08-31 18:06:06 | 48.40441 | 12.95071 | 78° | 77km/h | 3338m | -4.6m/s | 1.1°C | 90.5% | 685.7hPa | 2.7V | 00:00:00 | 01:59:49 | 00:00:00 | |
| OE3JTB-15 | 2026-08-31 18:06:03 | 48.40429 | 12.94985 | 79° | 77km/h | 3353m | -4.8m/s | 1.0°C | 90.2% | 684.4hPa | 2.7V | 01:28:00 | 00:00:00 | 00:00:00 | |
| OE5MMP-10 | 2026-08-31 18:06:02 | 48.40425 | 12.94956 | 79° | 77km/h | 3357m | -4.5m/s | 1.0°C | 90.8% | 684.0hPa | 2.7V | 01:28:00 | 01:59:45 | 00:00:00 | |
| DO3MHA-11 | 2026-08-31 18:06:01 | 48.40421 | 12.94928 | 79° | 77km/h | 3363m | -5.5m/s | 1.0°C | 91.2% | 683.5hPa | 2.7V | 01:28:00 | 01:59:44 | 00:00:00 | |
| OE5DXL-15 | 2026-08-31 18:06:00 | 48.40417 | 12.94900 | 79° | 77km/h | 3368m | -5.4m/s | 0.9°C | 91.8% | 683.2hPa | 2.7V | 00:00:00 | 00:00:00 | 00:00:00 | |
| OE5WHR-10 | 2026-08-31 18:05:59 | 48.40413 | 12.94871 | 78° | 77km/h | 3373m | -5.0m/s | 0.9°C | 92.2% | 682.6hPa | 2.7V | 00:00:00 | 01:59:42 | 00:00:00 | |
| OE5HKT-10 | 2026-08-31 18:05:57 | 48.40405 | 12.94815 | 78° | 77km/h | 3384m | -5.5m/s | 0.8°C | 92.7% | 681.8hPa | 2.7V | 00:00:00 | 01:59:40 | 00:00:00 | |
| DO3MHA-12 | 2026-08-31 18:05:56 | 48.40401 | 12.94786 | 79° | 77km/h | 3390m | -5.5m/s | 0.7°C | 93.2% | 681.2hPa | 2.7V | 00:00:00 | 01:59:39 | 00:00:00 | |
| DG1MFX-10 | 2026-08-31 18:05:55 | 48.40401 | 12.94786 | 79° | 77km/h | 3390m | -5.5m/s | 0.8°C | 93.7% | 681.3hPa | 2.7V | 01:29:00 | 00:00:00 | 00:00:00 | |
| DO3MHA-12 | 2026-08-31 18:05:51 | 48.40379 | 12.94643 | 77° | 77km/h | 3417m | -5.5m/s | 0.5°C | 94.4% | 678.8hPa | 2.7V | 01:28:00 | 01:59:34 | 00:00:00 | |
| OE5MMP-10 | 2026-08-31 18:05:49 | 48.40369 | 12.94586 | 76° | 77km/h | 3429m | -5.5m/s | 0.4°C | 94.9% | 678.0hPa | 2.7V | 00:00:00 | 01:59:32 | 00:00:00 | |
| DO3MHA-11 | 2026-08-31 18:05:46 | 48.40354 | 12.94501 | 74° | 77km/h | 3446m | -6.0m/s | 0.3°C | 95.7% | 676.6hPa | 2.7V | 00:00:00 | 01:59:29 | 00:00:00 | |
| OE3JTB-15 | 2026-08-31 18:05:44 | 48.40342 | 12.94445 | 73° | 73km/h | 3458m | -5.4m/s | 0.2°C | 94.9% | 675.5hPa | 2.7V | 00:00:00 | 00:00:00 | 00:00:00 | |
| OE5WHR-10 | 2026-08-31 18:05:42 | 48.40331 | 12.94391 | 73° | 75km/h | 3470m | -6.1m/s | 0.1°C | 90.4% | 674.6hPa | 2.7V | 01:28:00 | 00:00:00 | 00:00:00 | |
| DO3MHA-11 | 2026-08-31 18:05:41 | 48.40325 | 12.94363 | 72° | 77km/h | 3476m | -6.3m/s | 0.0°C | 90.2% | 674.1hPa | 2.7V | 01:28:00 | 01:59:24 | 00:00:00 | |
| OE5HKT-10 | 2026-08-31 18:05:40 | 48.40319 | 12.94336 | 73° | 71km/h | 3482m | -6.2m/s | 0.0°C | 91.8% | 673.3hPa | 2.7V | 01:28:00 | 00:00:00 | 00:00:00 | |
| OE5MMP-10 | 2026-08-31 18:05:38 | 48.40307 | 12.94281 | 72° | 75km/h | 3495m | -7.3m/s | -0.0°C | 92.0% | 672.4hPa | 2.5V | 01:28:00 | 01:59:21 | 00:00:00 | |
| DO3MHA-11 | 2026-08-31 18:05:36 | 48.40295 | 12.94226 | 73° | 75km/h | 3508m | -5.9m/s | -0.1°C | 91.7% | 671.3hPa | 2.5V | 00:00:00 | 01:59:19 | 00:00:00 | |
| DG1MFX-10 | 2026-08-31 18:05:34 | 48.40289 | 12.94199 | 73° | 75km/h | 3514m | -5.8m/s | -0.2°C | 91.9% | 671.0hPa | 2.5V | 01:29:00 | 00:00:00 | 00:00:00 | |
| DO3MHA-11 | 2026-08-31 18:05:31 | 48.40269 | 12.94089 | 77° | 73km/h | 3538m | -5.7m/s | -0.4°C | 93.6% | 669.0hPa | 2.5V | 01:29:00 | 01:59:14 | 00:00:00 | |
| OE5DXL-15 | 2026-08-31 18:05:30 | 48.40264 | 12.94062 | 77° | 71km/h | 3544m | -5.7m/s | -0.4°C | 95.8% | 668.5hPa | 2.5V | 01:29:00 | 00:00:00 | 00:00:00 | |
| OE5MMP-10 | 2026-08-31 18:05:27 | 48.40252 | 12.93982 | 78° | 71km/h | 3562m | -6.2m/s | -0.6°C | 95.9% | 666.9hPa | 2.5V | 00:00:00 | 01:59:10 | 00:00:00 | |
| DO3MHA-11 | 2026-08-31 18:05:26 | 48.40248 | 12.93955 | 77° | 73km/h | 3568m | -5.9m/s | -0.6°C | 96.2% | 666.4hPa | 2.5V | 00:00:00 | 01:59:09 | 00:00:00 | |
| OE5WHR-10 | 2026-08-31 18:05:25 | 48.40244 | 12.93929 | 76° | 69km/h | 3574m | -6.0m/s | -0.7°C | 96.6% | 665.8hPa | 2.5V | 00:00:00 | 00:00:00 | 00:00:00 | |
| DO3MHA-11 | 2026-08-31 18:05:21 | 48.40223 | 12.93823 | 75° | 71km/h | 3601m | -6.6m/s | -0.9°C | 98.2% | 663.8hPa | 2.5V | 01:29:00 | 01:59:04 | 00:00:00 | |
| DO3MHA-12 | 2026-08-31 18:05:16 | 48.40200 | 12.93694 | 75° | 66km/h | 3634m | -7.4m/s | -1.2°C | 98.8% | 661.0hPa | 2.5V | 00:00:00 | 01:58:59 | 00:00:00 | |
| OE3JTB-15 | 2026-08-31 18:05:15 | 48.40196 | 12.93670 | 74° | 69km/h | 3641m | -6.7m/s | -1.3°C | 99.1% | 660.4hPa | 2.7V | 01:29:00 | 01:58:58 | 00:00:00 | |
| OE5HKT-10 | 2026-08-31 18:05:14 | 48.40191 | 12.93645 | 74° | 71km/h | 3649m | -7.8m/s | -1.3°C | 0% | 659.8hPa | 2.7V | 00:00:00 | 00:00:00 | 00:00:00 | |
| DG1MFX-10 | 2026-08-31 18:05:13 | 48.40191 | 12.93645 | 74° | 68km/h | 3649m | -7.8m/s | -1.3°C | 99.6% | 659.8hPa | 2.7V | 01:30:00 | 00:00:00 | 00:00:00 | |
| DO3MHA-12 | 2026-08-31 18:05:11 | 48.40176 | 12.93573 | 72° | 68km/h | 3666m | -5.7m/s | -1.4°C | 0% | 658.1hPa | 2.7V | 01:29:00 | 01:58:54 | 00:00:00 | |
| OE5DRO-10 | 2026-08-31 18:05:09 | 48.40164 | 12.93525 | 70° | 73km/h | 3678m | -5.8m/s | -1.5°C | 99.7% | 657.3hPa | 2.7V | 00:00:00 | 00:00:00 | 00:00:00 | |
| OE5WHR-10 | 2026-08-31 18:05:08 | 48.40158 | 12.93501 | 69° | 73km/h | 3684m | -5.4m/s | -1.5°C | 99.3% | 656.8hPa | 2.7V | 01:29:00 | 01:58:51 | 00:00:00 | |
| DO3MHA-11 | 2026-08-31 18:05:06 | 48.40146 | 12.93451 | 69° | 75km/h | 3694m | -5.3m/s | -1.7°C | 0% | 655.8hPa | 2.7V | 00:00:00 | 01:58:49 | 00:00:00 | |
| OE5MMP-10 | 2026-08-31 18:05:03 | 48.40126 | 12.93371 | 71° | 73km/h | 3711m | -5.2m/s | -1.7°C | 0% | 654.5hPa | 2.7V | 00:00:00 | 01:58:46 | 00:00:00 | |
| DO3MHA-11 | 2026-08-31 18:05:01 | 48.40114 | 12.93317 | 73° | 75km/h | 3721m | -4.9m/s | -1.7°C | 0% | 653.6hPa | 2.7V | 01:29:00 | 01:58:44 | 00:00:00 | |
| OE5DXL-15 | 2026-08-31 18:05:00 | 48.40108 | 12.93290 | 73° | 71km/h | 3726m | -5.3m/s | -1.8°C | 0% | 653.2hPa | 2.7V | 00:00:00 | 00:00:00 | 00:00:00 | |
| OE5HKT-10 | 2026-08-31 18:04:57 | 48.40093 | 12.93206 | 77° | 84km/h | 3741m | -5.1m/s | -1.8°C | 0% | 651.8hPa | 2.7V | 01:29:00 | 01:58:40 | 00:00:00 | |
| DO3MHA-11 | 2026-08-31 18:04:56 | 48.40088 | 12.93179 | 77° | 71km/h | 3747m | -5.0m/s | -1.9°C | 0% | 651.5hPa | 2.7V | 00:00:00 | 01:58:39 | 00:00:00 | |
| OE5DRO-10 | 2026-08-31 18:04:53 | 48.40076 | 12.93098 | 79° | 68km/h | 3762m | -5.2m/s | -1.9°C | 0% | 650.3hPa | 2.7V | 01:29:00 | 00:00:00 | 00:00:00 | |
| DG1MFX-10 | 2026-08-31 18:04:52 | 48.40076 | 12.93098 | 79° | 71km/h | 3762m | -5.3m/s | -2.0°C | 101.1% | 650.4hPa | 2.7V | 01:30:00 | 00:00:00 | 00:00:00 | |
| DO3MHA-11 | 2026-08-31 18:04:51 | 48.40070 | 12.93047 | 79° | 64km/h | 3771m | -4.5m/s | -2.0°C | 0% | 649.5hPa | 2.7V | 01:29:00 | 01:58:34 | 00:00:00 | |
| OE5MMP-10 | 2026-08-31 18:04:50 | 48.40066 | 12.93022 | 79° | 66km/h | 3776m | -4.4m/s | -2.0°C | 0% | 649.1hPa | 2.7V | 01:29:00 | 01:58:33 | 00:00:00 | |
| DO3MHA-11 | 2026-08-31 18:04:46 | 48.40051 | 12.92927 | 75° | 66km/h | 3793m | -3.7m/s | -2.1°C | 0% | 647.7hPa | 2.7V | 00:00:00 | 01:58:29 | 00:00:00 | |
| DO3MHA-11 | 2026-08-31 18:04:41 | 48.40025 | 12.92809 | 70° | 73km/h | 3811m | -3.6m/s | -2.4°C | 0% | 646.2hPa | 2.7V | 01:29:00 | 01:58:24 | 00:00:00 | |
| OE5MMP-10 | 2026-08-31 18:04:40 | 48.40019 | 12.92784 | 70° | 77km/h | 3815m | -4.0m/s | -2.5°C | 0% | 645.8hPa | 2.7V | 00:00:00 | 01:58:23 | 00:00:00 | |
| OE5DRO-10 | 2026-08-31 18:04:37 | 48.40000 | 12.92705 | 71° | 80km/h | 3827m | -4.1m/s | -2.6°C | 0% | 644.8hPa | 2.5V | 00:00:00 | 00:00:00 | 00:00:00 | |
| DO3MHA-11 | 2026-08-31 18:04:36 | 48.39993 | 12.92678 | 73° | 78km/h | 3832m | -4.2m/s | -2.6°C | 0% | 644.5hPa | 2.5V | 00:00:00 | 01:58:19 | 00:00:00 | |
| OE5WHR-10 | 2026-08-31 18:04:34 | 48.39982 | 12.92621 | 74° | 80km/h | 3840m | -4.0m/s | -2.7°C | 0% | 643.9hPa | 2.5V | 01:29:00 | 00:00:00 | 00:00:00 | |
| DG1MFX-10 | 2026-08-31 18:04:32 | 48.39976 | 12.92592 | 75° | 78km/h | 3844m | -3.8m/s | -2.7°C | 103.5% | 643.5hPa | 2.5V | 01:30:00 | 00:00:00 | 00:00:00 | |
| DO3MHA-12 | 2026-08-31 18:04:31 | 48.39966 | 12.92533 | 76° | 80km/h | 3852m | -4.1m/s | -2.7°C | 0% | 642.8hPa | 2.5V | 01:30:00 | 01:58:14 | 00:00:00 | |
| OE5MMP-10 | 2026-08-31 18:04:30 | 48.39961 | 12.92503 | 77° | 82km/h | 3856m | -4.3m/s | -2.7°C | 0% | 642.5hPa | 2.7V | 01:30:00 | 01:58:13 | 00:00:00 | |
| DO3MHA-12 | 2026-08-31 18:04:26 | 48.39941 | 12.92384 | 77° | 82km/h | 3873m | -4.6m/s | -2.5°C | 0% | 641.1hPa | 2.7V | 00:00:00 | 01:58:09 | 00:00:00 | |
| DO3MHA-11 | 2026-08-31 18:04:21 | 48.39918 | 12.92230 | 79° | 80km/h | 3895m | -3.5m/s | -2.7°C | 0% | 639.3hPa | 2.7V | 01:30:00 | 01:58:04 | 00:00:00 | |
| OE5MMP-10 | 2026-08-31 18:04:20 | 48.39913 | 12.92199 | 79° | 80km/h | 3899m | -3.9m/s | -2.6°C | 0% | 639.2hPa | 2.7V | 00:00:00 | 01:58:03 | 00:00:00 | |
| OE5WHR-10 | 2026-08-31 18:04:17 | 48.39899 | 12.92112 | 74° | 86km/h | 3910m | -3.9m/s | -2.6°C | 0% | 638.2hPa | 2.7V | 00:00:00 | 01:58:00 | 00:00:00 | |
| DO3MHA-11 | 2026-08-31 18:04:16 | 48.39893 | 12.92084 | 72° | 80km/h | 3914m | -4.2m/s | -2.6°C | 0% | 637.9hPa | 2.7V | 00:00:00 | 01:57:59 | 00:00:00 | |
| DG1MFX-10 | 2026-08-31 18:04:12 | 48.39867 | 12.91970 | 71° | 84km/h | 3931m | -4.6m/s | -3.3°C | 100.4% | 636.6hPa | 2.5V | 01:30:00 | 00:00:00 | 00:00:00 | |
| DO3MHA-11 | 2026-08-31 18:04:11 | 48.39859 | 12.91940 | 70° | 89km/h | 3936m | -3.9m/s | -3.2°C | 97.1% | 636.3hPa | 2.5V | 01:30:00 | 01:57:54 | 00:00:00 | |
| OE5MMP-10 | 2026-08-31 18:04:10 | 48.39852 | 12.91909 | 71° | 91km/h | 3940m | -4.0m/s | -2.9°C | 85.7% | 635.9hPa | 2.5V | 01:30:00 | 01:57:53 | 00:00:00 | |
| DO3MHA-11 | 2026-08-31 18:04:06 | 48.39823 | 12.91777 | 75° | 91km/h | 3954m | -3.3m/s | -2.4°C | 52.7% | 634.7hPa | 2.7V | 00:00:00 | 01:57:49 | 00:00:00 | |
| OE5DRO-10 | 2026-08-31 18:04:05 | 48.39817 | 12.91742 | 76° | 84km/h | 3958m | -3.6m/s | -2.5°C | 61.0% | 634.2hPa | 2.7V | 00:00:00 | 00:00:00 | 00:00:00 | |
| OE5HKT-10 | 2026-08-31 18:04:03 | 48.39806 | 12.91674 | 77° | 91km/h | 3965m | -3.6m/s | -2.6°C | 72.4% | 633.7hPa | 2.7V | 00:00:00 | 00:00:00 | 00:00:00 | |
| DO3MHA-11 | 2026-08-31 18:04:01 | 48.39797 | 12.91609 | 79° | 82km/h | 3974m | -4.4m/s | -2.6°C | 75.0% | 633.2hPa | 2.7V | 01:30:00 | 01:57:44 | 00:00:00 | |
| OE5DXL-15 | 2026-08-31 18:04:00 | 48.39792 | 12.91577 | 78° | 88km/h | 3978m | -4.4m/s | -2.6°C | 75.0% | 632.7hPa | 2.7V | 00:00:00 | 00:00:00 | 00:00:00 | |
| DO3MHA-11 | 2026-08-31 18:03:56 | 48.39771 | 12.91458 | 73° | 80km/h | 3995m | -4.4m/s | -2.6°C | 70.1% | 631.5hPa | 2.7V | 00:00:00 | 01:57:39 | 00:00:00 | |
| DO3MHA-12 | 2026-08-31 18:03:51 | 48.39736 | 12.91312 | 69° | 86km/h | 4018m | -4.8m/s | -2.8°C | 70.2% | 629.8hPa | 2.7V | 01:30:00 | 01:57:34 | 00:00:00 | |
| OE5MMP-10 | 2026-08-31 18:03:50 | 48.39729 | 12.91282 | 69° | 89km/h | 4022m | -4.6m/s | -2.9°C | 71.5% | 629.5hPa | 2.7V | 01:30:00 | 01:57:33 | 00:00:00 | |
| OE5DRO-10 | 2026-08-31 18:03:49 | 48.39721 | 12.91253 | 69° | 91km/h | 4027m | -4.3m/s | -2.9°C | 70.9% | 628.9hPa | 2.7V | 01:30:00 | 00:00:00 | 00:00:00 | |
| OE3JTB-15 | 2026-08-31 18:03:48 | 48.39713 | 12.91222 | 70° | 89km/h | 4032m | -5.0m/s | -2.9°C | 73.9% | 628.7hPa | 2.5V | 00:00:00 | 01:57:31 | 00:00:00 | |
| DO3MHA-11 | 2026-08-31 18:03:46 | 48.39697 | 12.91160 | 70° | 91km/h | 4041m | -4.4m/s | -3.0°C | 69.4% | 627.9hPa | 2.5V | 00:00:00 | 01:57:29 | 00:00:00 | |
| DO3MHA-11 | 2026-08-31 18:03:41 | 48.39660 | 12.90996 | 73° | 93km/h | 4063m | -4.7m/s | -3.2°C | 69.6% | 626.2hPa | 2.5V | 01:30:00 | 01:57:24 | 00:00:00 | |
| OE5MMP-10 | 2026-08-31 18:03:40 | 48.39653 | 12.90962 | 73° | 93km/h | 4068m | -4.3m/s | -3.2°C | 69.1% | 625.9hPa | 2.5V | 00:00:00 | 01:57:23 | 00:00:00 | |
| DO3MHA-11 | 2026-08-31 18:03:36 | 48.39625 | 12.90826 | 74° | 93km/h | 4085m | -4.4m/s | -3.3°C | 66.1% | 624.4hPa | 2.7V | 00:00:00 | 01:57:19 | 00:00:00 | |
| OE5DRO-10 | 2026-08-31 18:03:33 | 48.39605 | 12.90723 | 75° | 88km/h | 4099m | -4.3m/s | -3.4°C | 62.2% | 623.3hPa | 2.7V | 00:00:00 | 00:00:00 | 00:00:00 | |
| DO3MHA-11 | 2026-08-31 18:03:31 | 48.39593 | 12.90655 | 76° | 91km/h | 4107m | -4.3m/s | -3.5°C | 57.9% | 622.8hPa | 2.7V | 01:31:00 | 01:57:14 | 00:00:00 | |
| DG1MFX-10 | 2026-08-31 18:03:30 | 48.39593 | 12.90655 | 76° | 93km/h | 4107m | -4.3m/s | -3.5°C | 58.0% | 622.8hPa | 2.7V | 01:31:00 | 00:00:00 | 00:00:00 | |
| OE5MMP-10 | 2026-08-31 18:03:29 | 48.39582 | 12.90588 | 77° | 88km/h | 4115m | -4.2m/s | -3.5°C | 56.3% | 622.0hPa | 2.7V | 01:31:00 | 01:57:12 | 00:00:00 | |
| DO3MHA-11 | 2026-08-31 18:03:26 | 48.39567 | 12.90488 | 78° | 86km/h | 4128m | -3.7m/s | -3.5°C | 43.5% | 621.2hPa | 2.7V | 00:00:00 | 01:57:09 | 00:00:00 | |
| DO3MHA-11 | 2026-08-31 18:03:21 | 48.39543 | 12.90329 | 77° | 86km/h | 4149m | -4.8m/s | -3.6°C | 37.7% | 619.6hPa | 2.7V | 01:31:00 | 01:57:04 | 00:00:00 | |
| OE5MMP-10 | 2026-08-31 18:03:19 | 48.39533 | 12.90266 | 77° | 84km/h | 4158m | -4.7m/s | -3.6°C | 35.9% | 618.7hPa | 2.7V | 00:00:00 | 01:57:02 | 00:00:00 | |
| OE5DRO-10 | 2026-08-31 18:03:17 | 48.39523 | 12.90203 | 78° | 84km/h | 4167m | -3.7m/s | -3.7°C | 35.7% | 618.1hPa | 2.7V | 01:31:00 | 00:00:00 | 00:00:00 | |
| DO3MHA-12 | 2026-08-31 18:03:11 | 48.39492 | 12.90017 | 75° | 84km/h | 4190m | -3.9m/s | -3.9°C | 37.0% | 616.3hPa | 2.7V | 01:31:00 | 01:56:54 | 00:00:00 | |
| DG1MFX-10 | 2026-08-31 18:03:10 | 48.39492 | 12.90017 | 76° | 84km/h | 4190m | -4.0m/s | -4.0°C | 37.0% | 616.3hPa | 2.7V | 01:31:00 | 00:00:00 | 00:00:00 | |
| OE5MMP-10 | 2026-08-31 18:03:08 | 48.39476 | 12.89924 | 75° | 84km/h | 4201m | -3.9m/s | -4.0°C | 35.6% | 615.3hPa | 2.7V | 01:31:00 | 01:56:51 | 00:00:00 | |
| DO3MHA-11 | 2026-08-31 18:03:06 | 48.39464 | 12.89863 | 75° | 84km/h | 4209m | -3.8m/s | -3.9°C | 18.5% | 614.8hPa | 2.7V | 00:00:00 | 01:56:49 | 00:00:00 | |
| DO3MHA-11 | 2026-08-31 18:03:01 | 48.39434 | 12.89710 | 73° | 84km/h | 4229m | -4.4m/s | -4.1°C | 42.4% | 613.1hPa | 2.7V | 01:31:00 | 01:56:44 | 00:00:00 | |
| OE5DXL-15 | 2026-08-31 18:03:00 | 48.39427 | 12.89679 | 72° | 91km/h | 4233m | -4.1m/s | -4.2°C | 41.6% | 612.7hPa | 2.7V | 00:00:00 | 00:00:00 | 00:00:00 | |
| OE5WHR-10 | 2026-08-31 18:02:59 | 48.39421 | 12.89649 | 72° | 89km/h | 4237m | -3.9m/s | -4.2°C | 45.3% | 612.4hPa | 2.7V | 00:00:00 | 00:00:00 | 00:00:00 | |
| DO3MHA-11 | 2026-08-31 18:02:56 | 48.39400 | 12.89557 | 71° | 89km/h | 4249m | -4.2m/s | -4.4°C | 50.1% | 611.7hPa | 2.7V | 00:00:00 | 01:56:39 | 00:00:00 | |
| DO3MHA-11 | 2026-08-31 18:02:51 | 48.39359 | 12.89398 | 69° | 91km/h | 4269m | -4.2m/s | -4.5°C | 41.3% | 610.1hPa | 2.7V | 01:31:00 | 01:56:34 | 00:00:00 | |
| DG1MFX-10 | 2026-08-31 18:02:50 | 48.39351 | 12.89366 | 69° | 91km/h | 4273m | -3.7m/s | -4.5°C | 34.1% | 609.9hPa | 2.7V | 01:31:00 | 00:00:00 | 00:00:00 | |
| DB0NH | 2026-08-31 18:02:46 | 48.39317 | 12.89236 | 69° | 82km/h | 4289m | -4.4m/s | -4.5°C | 28.1% | 608.5hPa | 2.7V | 00:00:00 | 01:56:29 | 00:00:00 | |
| OE5DRO-10 | 2026-08-31 18:02:45 | 48.39308 | 12.89203 | 69° | 95km/h | 4293m | -4.4m/s | -4.6°C | 42.8% | 608.2hPa | 2.7V | 01:31:00 | 00:00:00 | 00:00:00 | |
| OE5WHR-10 | 2026-08-31 18:02:42 | 48.39282 | 12.89107 | 68° | 95km/h | 4307m | -4.3m/s | -4.8°C | 48.9% | 607.2hPa | 2.7V | 01:31:00 | 01:56:25 | 00:00:00 | |
| DO3MHA-11 | 2026-08-31 18:02:41 | 48.39273 | 12.89075 | 68° | 93km/h | 4311m | -4.6m/s | -4.8°C | 52.2% | 606.9hPa | 2.7V | 01:31:00 | 01:56:24 | 00:00:00 | |
| OE5MMP-10 | 2026-08-31 18:02:36 | 48.39228 | 12.88910 | 68° | 97km/h | 4333m | -4.5m/s | -5.0°C | 53.6% | 605.3hPa | 2.7V | 00:00:00 | 01:56:19 | 00:00:00 | |
| OE5HKT-10 | 2026-08-31 18:02:35 | 48.39219 | 12.88877 | 69° | 95km/h | 4337m | -4.2m/s | -5.1°C | 57.5% | 604.9hPa | 2.7V | 01:31:00 | 00:00:00 | 00:00:00 | |
| DO3MHA-11 | 2026-08-31 18:02:31 | 48.39184 | 12.88740 | 71° | 97km/h | 4353m | -3.6m/s | -5.2°C | 59.1% | 603.7hPa | 2.7V | 01:32:00 | 01:56:14 | 00:00:00 | |
| OE5DRO-10 | 2026-08-31 18:02:29 | 48.39168 | 12.88670 | 72° | 91km/h | 4361m | -4.4m/s | -5.3°C | 59.9% | 603.1hPa | 2.7V | 00:00:00 | 00:00:00 | 00:00:00 | |
| DG1MFX-10 | 2026-08-31 18:02:28 | 48.39169 | 12.88670 | 72° | 97km/h | 4361m | -4.5m/s | -5.3°C | 59.9% | 603.1hPa | 2.7V | 01:32:00 | 00:00:00 | 00:00:00 | |
| DO3MHA-11 | 2026-08-31 18:02:26 | 48.39147 | 12.88566 | 74° | 93km/h | 4373m | -3.6m/s | -5.4°C | 60.2% | 602.1hPa | 2.7V | 00:00:00 | 01:56:09 | 00:00:00 | |
| OE5WHR-10 | 2026-08-31 18:02:25 | 48.39140 | 12.88532 | 74° | 89km/h | 4377m | -4.0m/s | -5.4°C | 59.8% | 601.8hPa | 2.7V | 00:00:00 | 00:00:00 | 00:00:00 | |
| DO3MHA-11 | 2026-08-31 18:02:21 | 48.39114 | 12.88397 | 75° | 89km/h | 4393m | -3.9m/s | -5.6°C | 64.0% | 600.5hPa | 2.5V | 01:32:00 | 01:56:04 | 00:00:00 | |
| OE5HKT-10 | 2026-08-31 18:02:18 | 48.39096 | 12.88298 | 75° | 88km/h | 4405m | -3.8m/s | -5.7°C | 64.7% | 599.6hPa | 2.5V | 00:00:00 | 01:56:01 | 00:00:00 | |
| DO3MHA-11 | 2026-08-31 18:02:16 | 48.39084 | 12.88233 | 75° | 89km/h | 4414m | -4.2m/s | -5.8°C | 65.2% | 599.0hPa | 2.5V | 00:00:00 | 01:55:59 | 00:00:00 | |
| OE5DRO-10 | 2026-08-31 18:02:13 | 48.39066 | 12.88135 | 75° | 88km/h | 4425m | -4.1m/s | -5.9°C | 65.6% | 598.1hPa | 2.7V | 01:32:00 | 00:00:00 | 00:00:00 | |
| DO3MHA-11 | 2026-08-31 18:02:11 | 48.39053 | 12.88071 | 75° | 86km/h | 4434m | -4.7m/s | -6.0°C | 66.7% | 597.5hPa | 2.6V | 01:32:00 | 01:55:54 | 00:00:00 | |
| DG1MFX-10 | 2026-08-31 18:02:08 | 48.39036 | 12.87977 | 74° | 84km/h | 4446m | -4.0m/s | -6.2°C | 68.2% | 596.5hPa | 2.6V | 01:32:00 | 00:00:00 | 00:00:00 | |
| OE5MMP-10 | 2026-08-31 18:02:06 | 48.39022 | 12.87916 | 71° | 89km/h | 4454m | -3.9m/s | -6.2°C | 72.1% | 595.9hPa | 2.6V | 01:32:00 | 01:55:49 | 00:00:00 | |
| DL6DJ-15 | 2026-08-31 18:02:02 | 48.38891 | 12.87403 | 73° | 86km/h | 4521m | -3.7m/s | -6.6°C | 46.0% | 590.8hPa | 2.7V | 00:00:00 | 00:00:00 | 00:00:00 | |
| DO3MHA-11 | 2026-08-31 18:02:01 | 48.38980 | 12.87766 | 66° | 93km/h | 4474m | -4.1m/s | -6.3°C | 67.5% | 594.3hPa | 2.7V | 01:32:00 | 01:55:44 | 00:00:00 | |
| OE5DXL-15 | 2026-08-31 18:02:00 | 48.38970 | 12.87734 | 66° | 86km/h | 4478m | -3.9m/s | -6.3°C | 65.1% | 594.1hPa | 2.7V | 00:00:00 | 00:00:00 | 00:00:00 | |
| OE5DRO-10 | 2026-08-31 18:01:57 | 48.38941 | 12.87635 | 69° | 88km/h | 4492m | -4.5m/s | -6.4°C | 59.1% | 593.0hPa | 2.7V | 00:00:00 | 00:00:00 | 00:00:00 | |
| DO3MHA-11 | 2026-08-31 18:01:56 | 48.38932 | 12.87601 | 69° | 93km/h | 4496m | -4.1m/s | -6.4°C | 55.4% | 592.7hPa | 2.7V | 00:00:00 | 01:55:39 | 00:00:00 | |
| OE5REO-15 | 2026-08-31 18:01:54 | 48.38924 | 12.87567 | 71° | 95km/h | 4500m | -4.2m/s | -6.5°C | 52.7% | 592.4hPa | 2.7V | 00:00:00 | 00:00:00 | 00:00:00 | |
| OE3JTB-15 | 2026-08-31 18:01:52 | 48.38903 | 12.87467 | 75° | 84km/h | 4513m | -4.6m/s | -6.5°C | 51.5% | 591.4hPa | 2.7V | 00:00:00 | 00:00:00 | 00:00:00 | |
| DO3MHA-12 | 2026-08-31 18:01:51 | 48.38897 | 12.87435 | 75° | 86km/h | 4517m | -3.9m/s | -6.6°C | 49.9% | 591.0hPa | 2.7V | 01:32:00 | 01:55:34 | 00:00:00 | |
| DO3MHA-11 | 2026-08-31 18:01:46 | 48.38867 | 12.87279 | 74° | 82km/h | 4538m | -4.0m/s | -6.7°C | 46.5% | 589.7hPa | 2.7V | 00:00:00 | 01:55:29 | 00:00:00 | |
| DG1MFX-10 | 2026-08-31 18:01:45 | 48.38867 | 12.87279 | 74° | 82km/h | 4538m | -4.1m/s | -6.8°C | 46.4% | 589.7hPa | 2.7V | 00:00:00 | 00:00:00 | 00:00:00 | |
| DO3MHA-11 | 2026-08-31 18:01:41 | 48.38835 | 12.87131 | 71° | 82km/h | 4559m | -4.5m/s | -6.9°C | 44.8% | 587.9hPa | 2.7V | 01:32:00 | 01:55:24 | 00:00:00 | |
| OE5REO-15 | 2026-08-31 18:01:38 | 48.38822 | 12.87072 | 72° | 80km/h | 4568m | -4.3m/s | -7.0°C | 38.4% | 587.3hPa | 2.7V | 01:33:00 | 00:00:00 | 00:00:00 | |
| DO3MHA-11 | 2026-08-31 18:01:36 | 48.38803 | 12.86984 | 74° | 84km/h | 4582m | -4.5m/s | -7.0°C | 31.5% | 586.3hPa | 2.7V | 00:00:00 | 01:55:19 | 00:00:00 | |
| OE5WHR-10 | 2026-08-31 18:01:34 | 48.38791 | 12.86923 | 75° | 86km/h | 4591m | -4.5m/s | -7.1°C | 30.8% | 585.5hPa | 2.7V | 01:32:00 | 00:00:00 | 00:00:00 | |
| DO3MHA-11 | 2026-08-31 18:01:31 | 48.38774 | 12.86831 | 75° | 86km/h | 4604m | -4.2m/s | -7.2°C | 28.6% | 584.5hPa | 2.5V | 01:33:00 | 01:55:14 | 00:00:00 | |
| OE5DXL-15 | 2026-08-31 18:01:30 | 48.38769 | 12.86800 | 75° | 84km/h | 4609m | -4.2m/s | -7.2°C | 27.1% | 584.1hPa | 2.5V | 01:33:00 | 00:00:00 | 00:00:00 | |
| DO3MHA-11 | 2026-08-31 18:01:26 | 48.38745 | 12.86673 | 75° | 88km/h | 4627m | -4.3m/s | -7.3°C | 17.7% | 582.8hPa | 2.5V | 00:00:00 | 01:55:09 | 00:00:00 | |
| OE5DRO-10 | 2026-08-31 18:01:25 | 48.38740 | 12.86641 | 75° | 86km/h | 4631m | -4.5m/s | -7.3°C | 17.0% | 582.4hPa | 2.5V | 00:00:00 | 00:00:00 | 00:00:00 | |
| OE3JTB-15 | 2026-08-31 18:01:23 | 48.38728 | 12.86577 | 75° | 82km/h | 4641m | -4.8m/s | -7.3°C | 18.6% | 581.7hPa | 2.5V | 01:33:00 | 00:00:00 | 00:00:00 | |
| OE5REO-15 | 2026-08-31 18:01:22 | 48.38728 | 12.86577 | 75° | 88km/h | 4641m | -4.8m/s | -7.4°C | 18.5% | 581.8hPa | 2.5V | 01:33:00 | 00:00:00 | 00:00:00 | |
| DO3MHA-11 | 2026-08-31 18:01:21 | 48.38716 | 12.86513 | 75° | 86km/h | 4650m | -4.2m/s | -7.4°C | 20.6% | 581.1hPa | 2.5V | 01:33:00 | 01:55:04 | 00:00:00 | |
| OE5WHR-10 | 2026-08-31 18:01:17 | 48.38692 | 12.86387 | 75° | 80km/h | 4668m | -4.9m/s | -7.4°C | 24.9% | 579.8hPa | 2.5V | 00:00:00 | 00:00:00 | 00:00:00 | |
| OE5MMP-10 | 2026-08-31 18:01:16 | 48.38686 | 12.86355 | 75° | 84km/h | 4673m | -4.8m/s | -7.4°C | 24.0% | 579.3hPa | 2.5V | 00:00:00 | 01:54:59 | 00:00:00 | |
| DO3MHA-12 | 2026-08-31 18:01:15 | 48.38681 | 12.86324 | 75° | 84km/h | 4678m | -4.6m/s | -7.4°C | 23.1% | 579.0hPa | 2.5V | 00:00:00 | 01:54:58 | 00:00:00 | |
| OE5HKT-10 | 2026-08-31 18:01:13 | 48.38670 | 12.86262 | 76° | 78km/h | 4687m | -4.9m/s | -7.5°C | 22.4% | 578.3hPa | 2.6V | 01:33:00 | 01:54:56 | 00:00:00 | |
| DO3MHA-11 | 2026-08-31 18:01:11 | 48.38660 | 12.86200 | 77° | 82km/h | 4697m | -5.3m/s | -7.5°C | 21.1% | 577.6hPa | 2.6V | 01:33:00 | 01:54:54 | 00:00:00 | |
| DO3MHA-12 | 2026-08-31 18:01:10 | 48.38655 | 12.86170 | 77° | 80km/h | 4702m | -5.1m/s | -7.6°C | 20.1% | 577.1hPa | 2.6V | 01:33:00 | 01:54:53 | 00:00:00 | |
| OE5DRO-10 | 2026-08-31 18:01:09 | 48.38650 | 12.86139 | 77° | 77km/h | 4708m | -5.1m/s | -7.6°C | 18.8% | 576.8hPa | 2.6V | 01:33:00 | 00:00:00 | 00:00:00 | |
| DO3MHA-11 | 2026-08-31 18:01:06 | 48.38636 | 12.86049 | 77° | 77km/h | 4723m | -4.8m/s | -7.7°C | 18.0% | 575.7hPa | 2.6V | 00:00:00 | 01:54:49 | 00:00:00 | |
| DO3MHA-12 | 2026-08-31 18:01:05 | 48.38631 | 12.86020 | 76° | 77km/h | 4727m | -5.0m/s | -7.7°C | 17.9% | 575.4hPa | 2.6V | 00:00:00 | 01:54:48 | 00:00:00 | |
| DO3MHA-11 | 2026-08-31 18:01:01 | 48.38611 | 12.85908 | 73° | 75km/h | 4746m | -4.8m/s | -7.9°C | 17.3% | 573.9hPa | 2.6V | 01:33:00 | 01:54:44 | 00:00:00 | |
| OE5DXL-15 | 2026-08-31 18:01:00 | 48.38605 | 12.85882 | 72° | 82km/h | 4751m | -4.5m/s | -8.0°C | 17.4% | 573.6hPa | 2.6V | 00:00:00 | 00:00:00 | 00:00:00 | |
| OE5WHR-10 | 2026-08-31 18:00:58 | 48.38592 | 12.85828 | 70° | 82km/h | 4761m | -4.9m/s | -8.0°C | 17.2% | 572.9hPa | 2.5V | 01:33:00 | 01:54:41 | 00:00:00 | |
| DO3MHA-11 | 2026-08-31 18:00:56 | 48.38578 | 12.85773 | 68° | 78km/h | 4770m | -4.5m/s | -8.1°C | 17.3% | 572.3hPa | 2.5V | 00:00:00 | 01:54:39 | 00:00:00 | |
| DO3MHA-12 | 2026-08-31 18:00:54 | 48.38563 | 12.85718 | 68° | 80km/h | 4780m | -4.8m/s | -8.2°C | 17.3% | 571.6hPa | 2.5V | 00:00:00 | 01:54:37 | 00:00:00 | |
| OE5DRO-10 | 2026-08-31 18:00:53 | 48.38556 | 12.85691 | 68° | 84km/h | 4784m | -4.7m/s | -8.2°C | 17.4% | 571.2hPa | 2.5V | 00:00:00 | 00:00:00 | 00:00:00 | |
| DO3MHA-11 | 2026-08-31 18:00:51 | 48.38540 | 12.85636 | 67° | 82km/h | 4794m | -4.5m/s | -8.3°C | 17.4% | 570.6hPa | 2.5V | 01:33:00 | 01:54:34 | 00:00:00 | |
| OE5REO-15 | 2026-08-31 18:00:50 | 48.38540 | 12.85636 | 68° | 78km/h | 4794m | -4.6m/s | -8.4°C | 17.2% | 570.6hPa | 2.5V | 01:34:00 | 00:00:00 | 00:00:00 | |
| DO3MHA-12 | 2026-08-31 18:00:48 | 48.38516 | 12.85551 | 68° | 86km/h | 4808m | -4.9m/s | -8.4°C | 17.4% | 569.4hPa | 2.5V | 01:33:00 | 01:54:31 | 00:00:00 | |
| OE5MMP-10 | 2026-08-31 18:00:46 | 48.38500 | 12.85491 | 69° | 86km/h | 4818m | -4.6m/s | -8.5°C | 17.5% | 568.8hPa | 2.5V | 01:33:00 | 01:54:29 | 00:00:00 | |
| DO3MHA-12 | 2026-08-31 18:00:43 | 48.38477 | 12.85400 | 70° | 86km/h | 4833m | -4.7m/s | -8.6°C | 17.9% | 567.6hPa | 2.5V | 00:00:00 | 01:54:26 | 00:00:00 | |
| DO3MHA-11 | 2026-08-31 18:00:41 | 48.38462 | 12.85338 | 71° | 86km/h | 4842m | -4.9m/s | -8.7°C | 17.9% | 566.9hPa | 2.7V | 01:33:00 | 01:54:24 | 00:00:00 | |
| OE5WHR-10 | 2026-08-31 18:00:40 | 48.38455 | 12.85308 | 71° | 86km/h | 4847m | -4.7m/s | -8.7°C | 17.5% | 566.6hPa | 2.7V | 00:00:00 | 00:00:00 | 00:00:00 | |
| DO3MHA-12 | 2026-08-31 18:00:38 | 48.38440 | 12.85247 | 70° | 88km/h | 4857m | -5.4m/s | -8.8°C | 17.7% | 565.8hPa | 2.5V | 01:33:00 | 01:54:21 | 00:00:00 | |
| OE5HKT-10 | 2026-08-31 18:00:37 | 48.38433 | 12.85216 | 70° | 84km/h | 4862m | -4.7m/s | -8.8°C | 17.8% | 565.5hPa | 2.5V | 01:33:00 | 00:00:00 | 00:00:00 | |
| DO3MHA-11 | 2026-08-31 18:00:36 | 48.38425 | 12.85186 | 70° | 86km/h | 4867m | -5.0m/s | -8.8°C | 17.8% | 565.0hPa | 2.5V | 00:00:00 | 01:54:19 | 00:00:00 | |
| OE5REO-15 | 2026-08-31 18:00:35 | 48.38425 | 12.85186 | 70° | 86km/h | 4867m | -5.0m/s | -8.9°C | 17.6% | 565.1hPa | 2.5V | 01:34:00 | 00:00:00 | 00:00:00 | |
| DO3MHA-11 | 2026-08-31 18:00:31 | 48.38385 | 12.85035 | 69° | 88km/h | 4892m | -5.1m/s | -9.0°C | 18.5% | 563.4hPa | 2.5V | 01:34:00 | 01:54:14 | 00:00:00 | |
| OE5DXL-15 | 2026-08-31 18:00:30 | 48.38377 | 12.85004 | 69° | 80km/h | 4897m | -5.2m/s | -9.0°C | 19.0% | 563.0hPa | 2.5V | 01:34:00 | 00:00:00 | 00:00:00 | |
| DO3MHA-12 | 2026-08-31 18:00:26 | 48.38348 | 12.84878 | 74° | 82km/h | 4917m | -4.9m/s | -9.1°C | 19.5% | 561.4hPa | 2.5V | 00:00:00 | 01:54:09 | 00:00:00 | |
| OE3JTB-15 | 2026-08-31 18:00:25 | 48.38342 | 12.84847 | 75° | 78km/h | 4922m | -5.3m/s | -9.1°C | 19.8% | 561.1hPa | 2.5V | 01:34:00 | 00:00:00 | 00:00:00 | |
| OE5WHR-10 | 2026-08-31 18:00:23 | 48.38332 | 12.84787 | 76° | 77km/h | 4932m | -4.7m/s | -9.2°C | 20.2% | 560.5hPa | 2.6V | 01:34:00 | 00:00:00 | 00:00:00 | |
| DO3MHA-11 | 2026-08-31 18:00:21 | 48.38321 | 12.84728 | 76° | 77km/h | 4941m | -4.7m/s | -9.2°C | 20.4% | 559.8hPa | 2.6V | 01:34:00 | 01:54:04 | 00:00:00 | |
| OE5HKT-10 | 2026-08-31 18:00:20 | 48.38316 | 12.84699 | 75° | 78km/h | 4946m | -4.8m/s | -9.2°C | 20.8% | 559.3hPa | 2.6V | 00:00:00 | 01:54:03 | 00:00:00 | |
| DO3MHA-11 | 2026-08-31 18:00:16 | 48.38295 | 12.84587 | 74° | 77km/h | 4966m | -4.7m/s | -9.3°C | 21.4% | 557.9hPa | 2.6V | 00:00:00 | 01:53:59 | 00:00:00 | |
| DO3MHA-12 | 2026-08-31 18:00:13 | 48.38279 | 12.84504 | 74° | 77km/h | 4981m | -5.1m/s | -9.4°C | 23.0% | 556.8hPa | 2.5V | 01:34:00 | 01:53:56 | 00:00:00 | |
| DO3MHA-11 | 2026-08-31 18:00:10 | 48.38262 | 12.84420 | 74° | 78km/h | 4997m | -5.1m/s | -9.5°C | 23.5% | 555.7hPa | 2.5V | 01:34:00 | 01:53:53 | 00:00:00 | |
| OE5MMP-10 | 2026-08-31 18:00:06 | 48.38240 | 12.84306 | 75° | 78km/h | 5017m | -5.0m/s | -9.5°C | 24.7% | 554.3hPa | 2.5V | 01:34:00 | 01:53:49 | 00:00:00 | |
| DB0NH | 2026-08-31 18:00:05 | 48.38235 | 12.84277 | 75° | 78km/h | 5022m | -5.1m/s | -9.5°C | 24.9% | 553.9hPa | 2.6V | 01:34:00 | 01:53:48 | 00:00:00 | |
| DO3MHA-11 | 2026-08-31 18:00:04 | 48.38229 | 12.84247 | 75° | 77km/h | 5027m | -5.7m/s | -9.6°C | 25.1% | 553.5hPa | 2.6V | 00:00:00 | 01:53:47 | 00:00:00 | |
| DL6DJ-15 | 2026-08-31 17:59:58 | 48.38189 | 12.84051 | 70° | 75km/h | 5063m | -5.7m/s | -9.9°C | 25.2% | 551.1hPa | 2.6V | 00:00:00 | 00:00:00 | 00:00:00 | |
| OE5MMP-10 | 2026-08-31 17:59:56 | 48.38182 | 12.84024 | 71° | 80km/h | 5069m | -4.8m/s | -9.8°C | 25.3% | 550.5hPa | 2.6V | 00:00:00 | 01:53:39 | 00:00:00 | |
| DO3MHA-11 | 2026-08-31 17:59:54 | 48.38169 | 12.83970 | 69° | 84km/h | 5079m | -5.0m/s | -9.9°C | 24.9% | 549.8hPa | 2.6V | 01:34:00 | 01:53:37 | 00:00:00 | |
| OE5WHR-10 | 2026-08-31 17:59:49 | 48.38127 | 12.83832 | 65° | 86km/h | 5105m | -5.2m/s | -10.0°C | 24.2% | 547.8hPa | 2.6V | 01:34:00 | 00:00:00 | 00:00:00 | |
| OE5MMP-10 | 2026-08-31 17:59:46 | 48.38099 | 12.83742 | 67° | 88km/h | 5121m | -5.1m/s | -10.1°C | 24.4% | 546.8hPa | 2.5V | 01:34:00 | 01:53:29 | 00:00:00 | |
| DO3MHA-11 | 2026-08-31 17:59:44 | 48.38082 | 12.83679 | 69° | 86km/h | 5132m | -5.2m/s | -10.2°C | 24.2% | 546.0hPa | 2.5V | 00:00:00 | 01:53:27 | 00:00:00 | |
| NBG1-10 | 2026-08-31 17:59:43 | 48.38074 | 12.83647 | 70° | 84km/h | 5137m | -5.3m/s | -10.3°C | 24.3% | 545.7hPa | 2.5V | 01:34:00 | 01:53:26 | 00:00:00 | |
| OE5MMP-10 | 2026-08-31 17:59:36 | 48.38028 | 12.83429 | 74° | 77km/h | 5174m | -5.1m/s | -10.6°C | 24.4% | 543.1hPa | 2.5V | 00:00:00 | 01:53:19 | 00:00:00 | |
| OE5HKT-10 | 2026-08-31 17:59:33 | 48.38010 | 12.83343 | 71° | 86km/h | 5190m | -5.6m/s | -10.7°C | 24.6% | 542.1hPa | 2.6V | 01:34:00 | 00:00:00 | 00:00:00 | |
| OE5WHR-10 | 2026-08-31 17:59:32 | 48.38004 | 12.83316 | 71° | 80km/h | 5196m | -5.1m/s | -10.8°C | 24.7% | 541.6hPa | 2.5V | 00:00:00 | 00:00:00 | 00:00:00 | |
| OE5DXL-15 | 2026-08-31 17:59:30 | 48.37990 | 12.83263 | 69° | 80km/h | 5205m | -4.9m/s | -10.9°C | 24.8% | 540.8hPa | 2.5V | 01:35:00 | 00:00:00 | 00:00:00 | |
| OE3JTB-15 | 2026-08-31 17:59:27 | 48.37968 | 12.83184 | 67° | 82km/h | 5221m | -5.4m/s | -11.0°C | 24.9% | 539.6hPa | 2.5V | 01:35:00 | 01:53:10 | 00:00:00 | |
| OE5MMP-10 | 2026-08-31 17:59:26 | 48.37960 | 12.83157 | 65° | 84km/h | 5227m | -5.2m/s | -11.0°C | 25.0% | 539.3hPa | 2.5V | 01:35:00 | 01:53:09 | 00:00:00 | |
| DO3MHA-12 | 2026-08-31 17:59:24 | 48.37943 | 12.83104 | 64° | 86km/h | 5237m | -5.3m/s | -11.1°C | 25.2% | 538.6hPa | 2.5V | 01:35:00 | 01:53:07 | 00:00:00 | |
| OE5DRO-10 | 2026-08-31 17:59:17 | 48.37881 | 12.82896 | 71° | 82km/h | 5275m | -5.6m/s | -11.4°C | 24.7% | 535.9hPa | 2.5V | 00:00:00 | 00:00:00 | 00:00:00 | |
| OE5MMP-10 | 2026-08-31 17:59:16 | 48.37874 | 12.82864 | 72° | 84km/h | 5280m | -5.1m/s | -11.5°C | 24.7% | 535.6hPa | 2.5V | 00:00:00 | 01:52:59 | 00:00:00 | |
| OE5WHR-10 | 2026-08-31 17:59:15 | 48.37867 | 12.82832 | 73° | 80km/h | 5285m | -5.1m/s | -11.5°C | 24.7% | 535.2hPa | 2.5V | 01:35:00 | 01:52:58 | 00:00:00 | |
| DO3MHA-11 | 2026-08-31 17:59:14 | 48.37861 | 12.82801 | 74° | 82km/h | 5290m | -5.4m/s | -11.5°C | 24.7% | 534.8hPa | 2.5V | 01:35:00 | 01:52:57 | 00:00:00 | |
| OE5MMP-10 | 2026-08-31 17:59:06 | 48.37814 | 12.82558 | 74° | 77km/h | 5335m | -5.3m/s | -11.8°C | 23.2% | 531.7hPa | 2.5V | 01:35:00 | 01:52:49 | 00:00:00 | |
| DO3MHA-11 | 2026-08-31 17:59:04 | 48.37803 | 12.82502 | 72° | 77km/h | 5346m | -5.5m/s | -11.9°C | 23.9% | 531.0hPa | 2.5V | 00:00:00 | 01:52:47 | 00:00:00 | |
| DB0NH | 2026-08-31 17:59:02 | 48.37791 | 12.82448 | 71° | 86km/h | 5357m | -5.4m/s | -12.0°C | 24.8% | 530.3hPa | 2.5V | 01:35:00 | 01:52:45 | 00:00:00 | |
| OE5REO-15 | 2026-08-31 17:59:01 | 48.37791 | 12.82448 | 72° | 75km/h | 5357m | -5.4m/s | -12.0°C | 24.5% | 530.4hPa | 2.5V | 01:36:00 | 00:00:00 | 00:00:00 | |
| OE5DXL-15 | 2026-08-31 17:59:00 | 48.37777 | 12.82395 | 69° | 82km/h | 5367m | -5.3m/s | -12.0°C | 25.4% | 529.6hPa | 2.5V | 00:00:00 | 00:00:00 | 00:00:00 | |
| OE5WHR-10 | 2026-08-31 17:58:58 | 48.37762 | 12.82342 | 67° | 88km/h | 5378m | -5.7m/s | -12.1°C | 26.3% | 528.8hPa | 2.5V | 00:00:00 | 00:00:00 | 00:00:00 | |
| OE5MMP-10 | 2026-08-31 17:58:56 | 48.37746 | 12.82287 | 66° | 88km/h | 5389m | -5.3m/s | -12.2°C | 27.3% | 528.1hPa | 2.5V | 00:00:00 | 01:52:39 | 00:00:00 | |
| DO3MHA-11 | 2026-08-31 17:58:54 | 48.37729 | 12.82230 | 66° | 89km/h | 5399m | -5.4m/s | -12.3°C | 28.7% | 527.4hPa | 2.5V | 01:35:00 | 01:52:37 | 00:00:00 | |
| OE5MMP-10 | 2026-08-31 17:58:46 | 48.37661 | 12.81977 | 72° | 84km/h | 5444m | -5.5m/s | -12.7°C | 31.6% | 524.3hPa | 2.5V | 01:35:00 | 01:52:29 | 00:00:00 | |
| OE5DRO-10 | 2026-08-31 17:58:45 | 48.37654 | 12.81944 | 72° | 80km/h | 5450m | -5.3m/s | -12.8°C | 31.8% | 523.9hPa | 2.5V | 00:00:00 | 00:00:00 | 00:00:00 | |
| DO3MHA-12 | 2026-08-31 17:58:44 | 48.37647 | 12.81911 | 73° | 80km/h | 5455m | -5.6m/s | -12.8°C | 31.9% | 523.5hPa | 2.5V | 01:35:00 | 01:52:27 | 00:00:00 | |
| OE5MMP-10 | 2026-08-31 17:58:36 | 48.37601 | 12.81675 | 71° | 80km/h | 5498m | -6.0m/s | -13.1°C | 33.9% | 520.5hPa | 2.5V | 00:00:00 | 01:52:19 | 00:00:00 | |
| DO3MHA-11 | 2026-08-31 17:58:34 | 48.37587 | 12.81621 | 69° | 86km/h | 5510m | -5.3m/s | -13.2°C | 34.5% | 519.8hPa | 2.6V | 01:35:00 | 01:52:17 | 00:00:00 | |
| OE5DXL-15 | 2026-08-31 17:58:30 | 48.37554 | 12.81510 | 64° | 89km/h | 5532m | -5.5m/s | -13.4°C | 35.6% | 518.2hPa | 2.6V | 01:36:00 | 00:00:00 | 00:00:00 | |
| OE3JTB-15 | 2026-08-31 17:58:29 | 48.37545 | 12.81481 | 64° | 89km/h | 5537m | -4.9m/s | -13.4°C | 35.9% | 517.9hPa | 2.6V | 01:36:00 | 00:00:00 | 00:00:00 | |
| NBG1-10 | 2026-08-31 17:58:28 | 48.37535 | 12.81451 | 64° | 89km/h | 5542m | -5.7m/s | -13.5°C | 36.1% | 517.5hPa | 2.6V | 01:36:00 | 01:52:11 | 00:00:00 | |
| OE5MMP-10 | 2026-08-31 17:58:26 | 48.37515 | 12.81389 | 66° | 88km/h | 5553m | -5.7m/s | -13.5°C | 36.6% | 516.7hPa | 2.5V | 01:36:00 | 01:52:09 | 00:00:00 | |
| DO3MHA-11 | 2026-08-31 17:58:24 | 48.37496 | 12.81324 | 69° | 86km/h | 5565m | -5.8m/s | -13.6°C | 37.8% | 516.0hPa | 2.5V | 00:00:00 | 01:52:07 | 00:00:00 | |
| DB0NH | 2026-08-31 17:58:16 | 48.37437 | 12.81078 | 65° | 91km/h | 5608m | -5.6m/s | -14.0°C | 39.6% | 513.1hPa | 2.6V | 00:00:00 | 01:51:59 | 00:00:00 | |
| OE5REO-15 | 2026-08-31 17:58:15 | 48.37437 | 12.81078 | 66° | 82km/h | 5608m | -5.7m/s | -14.0°C | 39.1% | 513.2hPa | 2.6V | 01:36:00 | 00:00:00 | 00:00:00 | |
| DO3MHA-11 | 2026-08-31 17:58:14 | 48.37418 | 12.81021 | 64° | 93km/h | 5619m | -5.7m/s | -14.1°C | 39.9% | 512.4hPa | 2.6V | 01:36:00 | 01:51:57 | 00:00:00 | |
| OE5DRO-10 | 2026-08-31 17:58:10 | 48.37378 | 12.80898 | 65° | 89km/h | 5641m | -5.3m/s | -14.3°C | 40.1% | 510.8hPa | 2.6V | 00:00:00 | 00:00:00 | 00:00:00 | |
| OE5WHR-10 | 2026-08-31 17:58:07 | 48.37349 | 12.80798 | 69° | 88km/h | 5657m | -5.4m/s | -14.4°C | 40.3% | 509.7hPa | 2.5V | 01:36:00 | 00:00:00 | 00:00:00 | |
| OE5MMP-10 | 2026-08-31 17:58:06 | 48.37341 | 12.80764 | 71° | 89km/h | 5663m | -5.8m/s | -14.4°C | 40.2% | 509.4hPa | 2.5V | 01:36:00 | 01:51:49 | 00:00:00 | |
| DO3MHA-12 | 2026-08-31 17:58:04 | 48.37325 | 12.80697 | 73° | 88km/h | 5674m | -6.2m/s | -14.5°C | 40.1% | 508.5hPa | 2.6V | 01:36:00 | 01:51:47 | 00:00:00 | |
| OE5HKT-10 | 2026-08-31 17:58:03 | 48.37318 | 12.80663 | 73° | 88km/h | 5680m | -5.3m/s | -14.6°C | 40.1% | 508.1hPa | 2.6V | 00:00:00 | 00:00:00 | 00:00:00 | |
| DL6DJ-15 | 2026-08-31 17:57:54 | 48.37177 | 12.80149 | 64° | 95km/h | 5776m | -5.8m/s | -15.4°C | 40.8% | 501.9hPa | 2.6V | 00:00:00 | 00:00:00 | 00:00:00 | |
| OE5DRO-10 | 2026-08-31 17:57:51 | 48.37227 | 12.80301 | 64° | 89km/h | 5749m | -5.4m/s | -15.1°C | 40.4% | 503.6hPa | 2.6V | 01:36:00 | 00:00:00 | 00:00:00 | |
| OE5WHR-10 | 2026-08-31 17:57:46 | 48.37177 | 12.80149 | 65° | 91km/h | 5776m | -5.7m/s | -15.4°C | 41.4% | 501.8hPa | 2.6V | 00:00:00 | 01:51:29 | 00:00:00 | |
| DO3MHA-11 | 2026-08-31 17:57:44 | 48.37157 | 12.80082 | 69° | 91km/h | 5788m | -5.8m/s | -15.5°C | 41.6% | 501.0hPa | 2.6V | 00:00:00 | 01:51:27 | 00:00:00 | |
| OE5REO-15 | 2026-08-31 17:57:43 | 48.37157 | 12.80082 | 69° | 97km/h | 5788m | -5.9m/s | -15.5°C | 41.0% | 501.1hPa | 2.6V | 01:36:00 | 00:00:00 | 00:00:00 | |
| OE5HKT-10 | 2026-08-31 17:57:42 | 48.37140 | 12.80012 | 70° | 91km/h | 5800m | -5.5m/s | -15.6°C | 41.9% | 500.3hPa | 2.6V | 01:36:00 | 01:51:25 | 00:00:00 | |
| OE5MMP-10 | 2026-08-31 17:57:36 | 48.37097 | 12.79814 | 72° | 88km/h | 5834m | -6.0m/s | -15.9°C | 42.1% | 497.9hPa | 2.6V | 00:00:00 | 01:51:19 | 00:00:00 | |
| DO3MHA-11 | 2026-08-31 17:57:34 | 48.37083 | 12.79755 | 69° | 89km/h | 5846m | -5.7m/s | -16.0°C | 42.3% | 497.2hPa | 2.6V | 01:36:00 | 01:51:17 | 00:00:00 | |
| OE5DRO-10 | 2026-08-31 17:57:32 | 48.37066 | 12.79697 | 66° | 93km/h | 5857m | -5.7m/s | -16.1°C | 42.7% | 496.5hPa | 2.6V | 00:00:00 | 00:00:00 | 00:00:00 | |
| OE3JTB-15 | 2026-08-31 17:57:31 | 48.37057 | 12.79668 | 65° | 91km/h | 5863m | -5.7m/s | -16.2°C | 42.9% | 496.1hPa | 2.6V | 01:37:00 | 00:00:00 | 00:00:00 | |
| OE5DXL-15 | 2026-08-31 17:57:30 | 48.37047 | 12.79638 | 64° | 93km/h | 5869m | -5.7m/s | -16.2°C | 43.0% | 495.8hPa | 2.6V | 01:37:00 | 00:00:00 | 00:00:00 | |
| OE5REO-15 | 2026-08-31 17:57:28 | 48.37037 | 12.79606 | 65° | 93km/h | 5874m | -5.7m/s | -16.3°C | 42.5% | 495.4hPa | 2.6V | 01:37:00 | 00:00:00 | 00:00:00 | |
| OE5MMP-10 | 2026-08-31 17:57:26 | 48.37006 | 12.79508 | 67° | 95km/h | 5891m | -5.8m/s | -16.5°C | 43.6% | 494.3hPa | 2.6V | 01:37:00 | 01:51:09 | 00:00:00 | |
| OE5WHR-10 | 2026-08-31 17:57:25 | 48.36997 | 12.79475 | 67° | 91km/h | 5897m | -6.0m/s | -16.5°C | 43.7% | 493.9hPa | 2.6V | 01:37:00 | 00:00:00 | 00:00:00 | |
| DO3MHA-11 | 2026-08-31 17:57:24 | 48.36987 | 12.79440 | 68° | 93km/h | 5903m | -5.1m/s | -16.6°C | 43.8% | 493.5hPa | 2.6V | 00:00:00 | 01:51:07 | 00:00:00 | |
| NBG1-10 | 2026-08-31 17:57:22 | 48.36970 | 12.79371 | 71° | 93km/h | 5914m | -5.7m/s | -16.7°C | 42.8% | 492.8hPa | 2.5V | 01:37:00 | 01:51:05 | 00:00:00 | |
| OE5HKT-10 | 2026-08-31 17:57:21 | 48.36962 | 12.79336 | 72° | 91km/h | 5919m | -5.6m/s | -16.7°C | 42.9% | 492.5hPa | 2.5V | 00:00:00 | 00:00:00 | 00:00:00 | |
| DB0NH | 2026-08-31 17:57:16 | 48.36928 | 12.79168 | 73° | 100km/h | 5948m | -6.0m/s | -17.0°C | 42.3% | 490.6hPa | 2.6V | 01:37:00 | 01:50:59 | 00:00:00 | |
| DO3MHA-11 | 2026-08-31 17:57:14 | 48.36914 | 12.79105 | 71° | 89km/h | 5959m | -5.4m/s | -17.1°C | 42.6% | 489.7hPa | 2.6V | 01:37:00 | 01:50:57 | 00:00:00 | |
| OE5DRO-10 | 2026-08-31 17:57:13 | 48.36907 | 12.79075 | 70° | 93km/h | 5965m | -5.6m/s | -17.1°C | 42.8% | 489.4hPa | 2.6V | 01:37:00 | 00:00:00 | 00:00:00 | |
| OE5REO-15 | 2026-08-31 17:57:12 | 48.36907 | 12.79075 | 70° | 84km/h | 5965m | -5.6m/s | -17.2°C | 42.1% | 489.4hPa | 2.6V | 01:37:00 | 00:00:00 | 00:00:00 | |
| OE5MMP-10 | 2026-08-31 17:57:06 | 48.36841 | 12.78863 | 64° | 99km/h | 6006m | -5.3m/s | -17.5°C | 42.7% | 486.8hPa | 2.6V | 01:37:00 | 01:50:49 | 00:00:00 | |
| DO3MHA-11 | 2026-08-31 17:57:04 | 48.36820 | 12.78797 | 66° | 99km/h | 6018m | -6.1m/s | -17.6°C | 42.6% | 486.0hPa | 2.5V | 00:00:00 | 01:50:47 | 00:00:00 | |
| DL6DJ-15 | 2026-08-31 17:56:51 | 48.36716 | 12.78354 | 70° | 86km/h | 6091m | -5.9m/s | -18.2°C | 38.7% | 481.3hPa | 2.5V | 00:00:00 | 00:00:00 | 00:00:00 | |
| NBG1-10 | 2026-08-31 17:56:49 | 48.36700 | 12.78292 | 68° | 95km/h | 6103m | -5.7m/s | -18.2°C | 36.8% | 480.5hPa | 2.5V | 00:00:00 | 01:50:32 | 00:00:00 | |
| OE5MMP-10 | 2026-08-31 17:56:46 | 48.36672 | 12.78197 | 65° | 99km/h | 6120m | -5.5m/s | -18.3°C | 31.8% | 479.5hPa | 2.6V | 01:37:00 | 01:50:29 | 00:00:00 | |
| DO3MHA-11 | 2026-08-31 17:56:44 | 48.36652 | 12.78134 | 65° | 100km/h | 6132m | -5.3m/s | -18.2°C | 24.1% | 478.7hPa | 2.6V | 00:00:00 | 01:50:27 | 00:00:00 | |
| OE5WHR-10 | 2026-08-31 17:56:43 | 48.36641 | 12.78101 | 65° | 97km/h | 6137m | -6.0m/s | -18.2°C | 22.8% | 478.3hPa | 2.6V | 01:37:00 | 01:50:26 | 00:00:00 | |
| OE5REO-15 | 2026-08-31 17:56:40 | 48.36620 | 12.78034 | 66° | 100km/h | 6149m | -5.7m/s | -18.2°C | 21.4% | 477.7hPa | 2.6V | 00:00:00 | 00:00:00 | 00:00:00 | |
| OE5HKT-10 | 2026-08-31 17:56:39 | 48.36599 | 12.77963 | 68° | 95km/h | 6161m | -6.0m/s | -18.2°C | 21.0% | 476.8hPa | 2.6V | 00:00:00 | 01:50:22 | 00:00:00 | |
| OE5MMP-10 | 2026-08-31 17:56:36 | 48.36572 | 12.77853 | 72° | 95km/h | 6177m | -5.8m/s | -18.3°C | 21.0% | 475.8hPa | 2.6V | 00:00:00 | 01:50:19 | 00:00:00 | |
| OE5DRO-10 | 2026-08-31 17:56:35 | 48.36564 | 12.77816 | 73° | 95km/h | 6183m | -5.7m/s | -18.4°C | 21.1% | 475.5hPa | 2.6V | 01:37:00 | 00:00:00 | 00:00:00 | |
| DO3MHA-11 | 2026-08-31 17:56:34 | 48.36556 | 12.77779 | 74° | 93km/h | 6189m | -5.8m/s | -18.4°C | 21.1% | 475.0hPa | 2.6V | 01:37:00 | 01:50:17 | 00:00:00 | |
| OE3JTB-15 | 2026-08-31 17:56:33 | 48.36549 | 12.77743 | 74° | 100km/h | 6194m | -5.6m/s | -18.5°C | 21.2% | 474.7hPa | 2.6V | 01:37:00 | 01:50:16 | 00:00:00 | |
| OE5DXL-15 | 2026-08-31 17:56:30 | 48.36528 | 12.77640 | 72° | 100km/h | 6211m | -5.4m/s | -18.6°C | 21.4% | 473.7hPa | 2.6V | 01:38:00 | 00:00:00 | 00:00:00 | |
| OE5MMP-10 | 2026-08-31 17:56:26 | 48.36496 | 12.77512 | 67° | 95km/h | 6233m | -5.6m/s | -18.8°C | 21.4% | 472.2hPa | 2.6V | 01:38:00 | 01:50:09 | 00:00:00 | |
| OE5REO-15 | 2026-08-31 17:56:25 | 48.36495 | 12.77512 | 68° | 91km/h | 6233m | -5.6m/s | -18.8°C | 20.8% | 472.2hPa | 2.6V | 00:00:00 | 00:00:00 | 00:00:00 | |
| DO3MHA-11 | 2026-08-31 17:56:24 | 48.36477 | 12.77448 | 67° | 97km/h | 6244m | -5.4m/s | -18.9°C | 21.6% | 471.5hPa | 2.6V | 00:00:00 | 01:50:07 | 00:00:00 | |
| OE5WHR-10 | 2026-08-31 17:56:22 | 48.36457 | 12.77384 | 66° | 104km/h | 6256m | -5.7m/s | -18.9°C | 21.1% | 470.8hPa | 2.5V | 00:00:00 | 00:00:00 | 00:00:00 | |
| OE5HKT-10 | 2026-08-31 17:56:18 | 48.36416 | 12.77253 | 64° | 106km/h | 6278m | -5.9m/s | -19.0°C | 16.4% | 469.4hPa | 2.6V | 01:38:00 | 00:00:00 | 00:00:00 | |
| OE5MMP-10 | 2026-08-31 17:56:16 | 48.36393 | 12.77184 | 65° | 108km/h | 6290m | -5.6m/s | -19.0°C | 14.7% | 468.6hPa | 2.6V | 00:00:00 | 01:49:59 | 00:00:00 | |
| DO3MHA-11 | 2026-08-31 17:56:14 | 48.36370 | 12.77113 | 66° | 110km/h | 6301m | -5.8m/s | -19.0°C | 13.7% | 467.9hPa | 2.6V | 01:38:00 | 01:49:57 | 00:00:00 | |
| OE5REO-15 | 2026-08-31 17:56:09 | 48.36325 | 12.76964 | 67° | 110km/h | 6324m | -5.5m/s | -19.1°C | 10.9% | 466.6hPa | 2.6V | 00:00:00 | 00:00:00 | 00:00:00 | |
| OE5MMP-10 | 2026-08-31 17:56:06 | 48.36283 | 12.76809 | 70° | 102km/h | 6348m | -6.0m/s | -19.2°C | 9.3% | 465.1hPa | 2.6V | 01:38:00 | 01:49:49 | 00:00:00 | |
| DO3MHA-11 | 2026-08-31 17:56:04 | 48.36264 | 12.76731 | 71° | 102km/h | 6359m | -5.6m/s | -19.2°C | 9.5% | 464.4hPa | 2.5V | 00:00:00 | 01:49:47 | 00:00:00 | |
| DL6DJ-15 | 2026-08-31 17:55:49 | 48.36062 | 12.76078 | 66° | 113km/h | 6459m | -5.3m/s | -20.0°C | 26.6% | 458.2hPa | 2.5V | 00:00:00 | 00:00:00 | 00:00:00 | |
| PG1ADW-2 | 2026-08-31 17:55:46 | 48.36062 | 12.76078 | 67° | 106km/h | 6459m | -5.2m/s | -19.9°C | 27.4% | 458.2hPa | 2.5V | 01:38:00 | 01:49:29 | 00:00:00 | |
| DO3MHA-11 | 2026-08-31 17:55:44 | 48.36039 | 12.75998 | 67° | 110km/h | 6471m | -5.9m/s | -20.0°C | 27.6% | 457.5hPa | 2.5V | 00:00:00 | 01:49:27 | 00:00:00 | |
| OE5MMP-10 | 2026-08-31 17:55:43 | 48.36027 | 12.75958 | 68° | 108km/h | 6476m | -5.4m/s | -20.0°C | 27.8% | 457.1hPa | 2.5V | 01:38:00 | 01:49:26 | 00:00:00 | |
| OE5WHR-10 | 2026-08-31 17:55:40 | 48.35996 | 12.75838 | 70° | 104km/h | 6492m | -5.7m/s | -20.1°C | 28.6% | 456.1hPa | 2.5V | 00:00:00 | 01:49:23 | 00:00:00 | |
| OE5DRO-10 | 2026-08-31 17:55:38 | 48.35977 | 12.75760 | 70° | 104km/h | 6504m | -5.4m/s | -20.2°C | 28.9% | 455.5hPa | 2.5V | 00:00:00 | 00:00:00 | 00:00:00 | |
| OE3JTB-15 | 2026-08-31 17:55:35 | 48.35948 | 12.75650 | 69° | 106km/h | 6521m | -5.2m/s | -20.4°C | 29.5% | 454.4hPa | 2.5V | 01:38:00 | 00:00:00 | 00:00:00 | |
| DO3MHA-11 | 2026-08-31 17:55:34 | 48.35939 | 12.75615 | 68° | 100km/h | 6526m | -5.3m/s | -20.4°C | 29.6% | 454.2hPa | 2.5V | 01:38:00 | 01:49:17 | 00:00:00 | |
| OE5MMP-10 | 2026-08-31 17:55:33 | 48.35929 | 12.75580 | 67° | 100km/h | 6531m | -5.1m/s | -20.5°C | 29.7% | 453.8hPa | 2.5V | 00:00:00 | 01:49:16 | 00:00:00 | |
| OE5DXL-15 | 2026-08-31 17:55:30 | 48.35899 | 12.75476 | 65° | 106km/h | 6548m | -5.4m/s | -20.6°C | 29.6% | 452.7hPa | 2.5V | 01:39:00 | 00:00:00 | 00:00:00 | |
| PG1ADW-2 | 2026-08-31 17:55:26 | 48.35853 | 12.75340 | 62° | 110km/h | 6570m | -5.4m/s | -20.8°C | 28.6% | 451.4hPa | 2.5V | 00:00:00 | 00:00:00 | 00:00:00 | |
| DO3MHA-11 | 2026-08-31 17:55:24 | 48.35828 | 12.75271 | 61° | 111km/h | 6581m | -5.4m/s | -20.9°C | 28.5% | 450.6hPa | 2.5V | 00:00:00 | 01:49:07 | 00:00:00 | |
| OE5MMP-10 | 2026-08-31 17:55:23 | 48.35815 | 12.75236 | 61° | 113km/h | 6587m | -6.1m/s | -20.9°C | 28.7% | 450.3hPa | 2.5V | 01:39:00 | 01:49:06 | 00:00:00 | |
| OE5REO-15 | 2026-08-31 17:55:22 | 48.35815 | 12.75236 | 62° | 108km/h | 6587m | -6.2m/s | -21.0°C | 27.9% | 450.4hPa | 2.5V | 01:39:00 | 00:00:00 | 00:00:00 | |
| OE5WHR-10 | 2026-08-31 17:55:19 | 48.35761 | 12.75087 | 64° | 106km/h | 6608m | -5.5m/s | -21.1°C | 28.7% | 449.1hPa | 2.5V | 01:39:00 | 00:00:00 | 00:00:00 | |
| DL6DJ-15 | 2026-08-31 17:55:18 | 48.35724 | 12.74970 | 65° | 113km/h | 6624m | -5.6m/s | -21.3°C | 27.0% | 448.1hPa | 2.6V | 00:00:00 | 00:00:00 | 00:00:00 | |
| DO3MHA-11 | 2026-08-31 17:55:14 | 48.35701 | 12.74891 | 67° | 100km/h | 6635m | -5.0m/s | -21.3°C | 27.6% | 447.3hPa | 2.6V | 01:39:00 | 01:48:57 | 00:00:00 | |
| OE5MMP-10 | 2026-08-31 17:55:13 | 48.35690 | 12.74851 | 68° | 104km/h | 6641m | -5.8m/s | -21.3°C | 27.4% | 447.0hPa | 2.6V | 00:00:00 | 01:48:56 | 00:00:00 | |
| NBG1-10 | 2026-08-31 17:55:10 | 48.35660 | 12.74735 | 70° | 104km/h | 6658m | -5.3m/s | -21.4°C | 26.0% | 446.1hPa | 2.6V | 01:39:00 | 01:48:53 | 00:00:00 | |
| OE5REO-15 | 2026-08-31 17:55:07 | 48.35640 | 12.74661 | 70° | 104km/h | 6669m | -5.7m/s | -21.5°C | 24.7% | 445.4hPa | 2.5V | 01:39:00 | 00:00:00 | 00:00:00 | |
| OE3JTB-15 | 2026-08-31 17:55:06 | 48.35621 | 12.74589 | 68° | 104km/h | 6680m | -5.4m/s | -21.6°C | 24.5% | 444.7hPa | 2.5V | 00:00:00 | 01:48:49 | 00:00:00 | |
| OE5MMP-10 | 2026-08-31 17:55:03 | 48.35590 | 12.74487 | 64° | 104km/h | 6697m | -5.9m/s | -21.7°C | 21.8% | 443.8hPa | 2.5V | 01:39:00 | 01:48:46 | 00:00:00 | |
| DL6DJ-15 | 2026-08-31 17:54:47 | 48.35398 | 12.73900 | 68° | 102km/h | 6785m | -5.4m/s | -22.4°C | 20.1% | 438.6hPa | 2.5V | 00:00:00 | 00:00:00 | 00:00:00 | |
| PG1ADW-2 | 2026-08-31 17:54:46 | 48.35389 | 12.73864 | 68° | 108km/h | 6790m | -4.8m/s | -22.4°C | 21.3% | 438.2hPa | 2.5V | 00:00:00 | 00:00:00 | 00:00:00 | |
| OE5MMP-10 | 2026-08-31 17:54:43 | 48.35359 | 12.73762 | 64° | 108km/h | 6807m | -5.1m/s | -22.5°C | 29.8% | 437.2hPa | 2.5V | 01:39:00 | 01:48:26 | 00:00:00 | |
| OE5DRO-10 | 2026-08-31 17:54:41 | 48.35335 | 12.73694 | 62° | 110km/h | 6817m | -5.1m/s | -22.6°C | 33.7% | 436.6hPa | 2.5V | 01:39:00 | 00:00:00 | 00:00:00 | |
| DO3MHA-11 | 2026-08-31 17:54:40 | 48.35323 | 12.73660 | 61° | 111km/h | 6822m | -5.0m/s | -22.6°C | 35.5% | 436.2hPa | 2.5V | 00:00:00 | 01:48:23 | 00:00:00 | |
| OE5WHR-10 | 2026-08-31 17:54:37 | 48.35283 | 12.73553 | 62° | 108km/h | 6837m | -5.0m/s | -22.7°C | 36.1% | 435.3hPa | 2.5V | 01:39:00 | 01:48:20 | 00:00:00 | |
| DG1MFX-10 | 2026-08-31 17:54:36 | 48.35283 | 12.73553 | 63° | 111km/h | 6837m | -5.0m/s | -22.8°C | 35.1% | 435.3hPa | 2.5V | 01:40:00 | 00:00:00 | 00:00:00 | |
| OE5REO-15 | 2026-08-31 17:54:35 | 48.35270 | 12.73515 | 63° | 111km/h | 6843m | -5.5m/s | -22.8°C | 35.9% | 435.1hPa | 2.5V | 01:40:00 | 00:00:00 | 00:00:00 | |
| OE5MMP-10 | 2026-08-31 17:54:33 | 48.35232 | 12.73399 | 66° | 110km/h | 6859m | -5.3m/s | -22.9°C | 38.0% | 433.9hPa | 2.5V | 00:00:00 | 01:48:16 | 00:00:00 | |
| DO3MHA-11 | 2026-08-31 17:54:30 | 48.35197 | 12.73280 | 68° | 106km/h | 6875m | -5.6m/s | -23.1°C | 39.1% | 433.1hPa | 2.5V | 01:40:00 | 01:48:13 | 00:00:00 | |
| PG1ADW-2 | 2026-08-31 17:54:26 | 48.35156 | 12.73125 | 69° | 108km/h | 6896m | -5.5m/s | -23.3°C | 40.1% | 431.8hPa | 2.5V | 01:40:00 | 01:48:09 | 00:00:00 | |
| OE5MMP-10 | 2026-08-31 17:54:23 | 48.35126 | 12.73018 | 66° | 104km/h | 6912m | -5.6m/s | -23.4°C | 40.5% | 430.9hPa | 2.5V | 01:40:00 | 01:48:06 | 00:00:00 | |
| OE5DRO-10 | 2026-08-31 17:54:22 | 48.35116 | 12.72983 | 65° | 111km/h | 6918m | -5.2m/s | -23.4°C | 40.7% | 430.6hPa | 2.5V | 00:00:00 | 00:00:00 | 00:00:00 | |
| DO3MHA-11 | 2026-08-31 17:54:20 | 48.35092 | 12.72914 | 62° | 108km/h | 6929m | -5.7m/s | -23.5°C | 40.8% | 430.0hPa | 2.6V | 00:00:00 | 01:48:03 | 00:00:00 | |
| DF3TZ-5 | 2026-08-31 17:54:17 | 48.35054 | 12.72810 | 59° | 104km/h | 6945m | -5.5m/s | -23.7°C | 40.1% | 429.0hPa | 2.5V | 00:00:00 | 00:00:00 | 00:00:00 | |
| OE5WHR-10 | 2026-08-31 17:54:16 | 48.35040 | 12.72775 | 60° | 111km/h | 6950m | -5.5m/s | -23.7°C | 41.4% | 428.7hPa | 2.5V | 00:00:00 | 00:00:00 | 00:00:00 | |
| OE5MMP-10 | 2026-08-31 17:54:13 | 48.34999 | 12.72667 | 61° | 117km/h | 6967m | -5.4m/s | -23.9°C | 41.5% | 427.8hPa | 2.5V | 00:00:00 | 01:47:56 | 00:00:00 | |
| DO3MHA-11 | 2026-08-31 17:54:10 | 48.34956 | 12.72553 | 62° | 115km/h | 6983m | -5.3m/s | -24.0°C | 41.5% | 426.8hPa | 2.5V | 01:40:00 | 01:47:53 | 00:00:00 | |
| OE3JTB-15 | 2026-08-31 17:54:08 | 48.34929 | 12.72475 | 62° | 111km/h | 6994m | -5.3m/s | -24.0°C | 41.3% | 426.2hPa | 2.5V | 00:00:00 | 00:00:00 | 00:00:00 | |
| PG1ADW-2 | 2026-08-31 17:54:06 | 48.34901 | 12.72395 | 64° | 110km/h | 7005m | -5.5m/s | -24.1°C | 40.6% | 425.5hPa | 2.5V | 00:00:00 | 00:00:00 | 00:00:00 | |
| NBG1-10 | 2026-08-31 17:54:04 | 48.34876 | 12.72314 | 66° | 111km/h | 7016m | -5.5m/s | -24.2°C | 39.9% | 424.9hPa | 2.6V | 01:40:00 | 01:47:47 | 00:00:00 | |
| OE5MMP-10 | 2026-08-31 17:54:03 | 48.34864 | 12.72274 | 67° | 106km/h | 7021m | -5.0m/s | -24.2°C | 39.7% | 424.6hPa | 2.6V | 01:40:00 | 01:47:46 | 00:00:00 | |
| OE5DXL-15 | 2026-08-31 17:54:00 | 48.34831 | 12.72162 | 66° | 111km/h | 7036m | -4.6m/s | -24.4°C | 39.9% | 423.7hPa | 2.6V | 00:00:00 | 00:00:00 | 00:00:00 | |
| OE5WHR-10 | 2026-08-31 17:53:55 | 48.34771 | 12.71987 | 61° | 113km/h | 7061m | -4.8m/s | -24.6°C | 39.6% | 422.2hPa | 2.6V | 01:40:00 | 00:00:00 | 00:00:00 | |
| OE5MMP-10 | 2026-08-31 17:53:53 | 48.34744 | 12.71919 | 60° | 113km/h | 7071m | -4.6m/s | -24.7°C | 39.5% | 421.5hPa | 2.6V | 00:00:00 | 01:47:36 | 00:00:00 | |
| DO3MHA-11 | 2026-08-31 17:53:50 | 48.34701 | 12.71812 | 59° | 115km/h | 7085m | -5.3m/s | -24.8°C | 39.4% | 420.7hPa | 2.6V | 01:40:00 | 01:47:33 | 00:00:00 | |
| OE5REO-15 | 2026-08-31 17:53:48 | 48.34687 | 12.71776 | 60° | 113km/h | 7091m | -7.3m/s | -24.9°C | 38.1% | 420.4hPa | 2.6V | 01:41:00 | 00:00:00 | 00:00:00 | |
| PG1ADW-2 | 2026-08-31 17:53:46 | 48.34643 | 12.71662 | 61° | 111km/h | 7109m | -5.4m/s | -25.0°C | 40.0% | 419.3hPa | 2.6V | 01:40:00 | 00:00:00 | 00:00:00 | |
| DL6DJ-15 | 2026-08-31 17:53:45 | 48.34615 | 12.71584 | 61° | 117km/h | 7119m | -5.3m/s | -25.2°C | 39.0% | 418.8hPa | 2.6V | 00:00:00 | 00:00:00 | 00:00:00 | |
| OE5DRO-10 | 2026-08-31 17:53:44 | 48.34615 | 12.71584 | 62° | 111km/h | 7120m | -5.2m/s | -25.1°C | 40.3% | 418.8hPa | 2.6V | 00:00:00 | 00:00:00 | 00:00:00 | |
| OE5MMP-10 | 2026-08-31 17:53:43 | 48.34601 | 12.71545 | 63° | 115km/h | 7125m | -5.7m/s | -25.2°C | 40.3% | 418.5hPa | 2.6V | 01:40:00 | 01:47:26 | 00:00:00 | |
| DO3MHA-12 | 2026-08-31 17:53:40 | 48.34562 | 12.71425 | 65° | 111km/h | 7141m | -6.5m/s | -25.3°C | 40.2% | 417.6hPa | 2.6V | 01:40:00 | 01:47:23 | 00:00:00 | |
| OE3JTB-15 | 2026-08-31 17:53:39 | 48.34549 | 12.71384 | 66° | 110km/h | 7147m | -5.3m/s | -25.4°C | 40.4% | 417.2hPa | 2.6V | 01:40:00 | 01:47:22 | 00:00:00 | |
| OE5WHR-10 | 2026-08-31 17:53:34 | 48.34492 | 12.71187 | 67° | 111km/h | 7173m | -4.9m/s | -25.6°C | 40.0% | 415.7hPa | 2.6V | 00:00:00 | 01:47:17 | 00:00:00 | |
| OE5MMP-10 | 2026-08-31 17:53:33 | 48.34480 | 12.71149 | 67° | 106km/h | 7178m | -5.5m/s | -25.7°C | 40.2% | 415.4hPa | 2.6V | 00:00:00 | 01:47:16 | 00:00:00 | |
| OE5REO-15 | 2026-08-31 17:53:32 | 48.34481 | 12.71149 | 67° | 110km/h | 7178m | -5.5m/s | -25.7°C | 38.9% | 415.4hPa | 2.5V | 01:41:00 | 00:00:00 | 00:00:00 | |
| NBG1-10 | 2026-08-31 17:53:31 | 48.34458 | 12.71075 | 65° | 110km/h | 7188m | -4.7m/s | -25.7°C | 39.1% | 414.8hPa | 2.5V | 00:00:00 | 01:47:14 | 00:00:00 | |
| DO3MHA-11 | 2026-08-31 17:53:30 | 48.34446 | 12.71040 | 63° | 110km/h | 7193m | -4.9m/s | -25.8°C | 38.0% | 414.5hPa | 2.5V | 01:41:00 | 01:47:13 | 00:00:00 | |
| PG1ADW-2 | 2026-08-31 17:53:26 | 48.34394 | 12.70903 | 59° | 110km/h | 7214m | -5.1m/s | -26.0°C | 37.6% | 413.3hPa | 2.5V | 00:00:00 | 00:00:00 | 00:00:00 | |
| OE5DRO-10 | 2026-08-31 17:53:25 | 48.34380 | 12.70868 | 59° | 110km/h | 7219m | -4.8m/s | -26.0°C | 37.9% | 413.1hPa | 2.5V | 01:41:00 | 00:00:00 | 00:00:00 | |
| OE5MMP-10 | 2026-08-31 17:53:23 | 48.34351 | 12.70795 | 60° | 115km/h | 7230m | -5.0m/s | -26.1°C | 37.7% | 412.4hPa | 2.6V | 01:41:00 | 01:47:06 | 00:00:00 | |
| DO3MHA-11 | 2026-08-31 17:53:20 | 48.34308 | 12.70679 | 64° | 111km/h | 7245m | -5.5m/s | -26.3°C | 38.0% | 411.5hPa | 2.6V | 00:00:00 | 01:47:03 | 00:00:00 | |
| OE5REO-15 | 2026-08-31 17:53:16 | 48.34272 | 12.70558 | 68° | 113km/h | 7262m | -5.8m/s | -26.5°C | 36.6% | 410.6hPa | 2.5V | 01:41:00 | 00:00:00 | 00:00:00 | |
| DL6DJ-15 | 2026-08-31 17:53:14 | 48.34240 | 12.70442 | 67° | 106km/h | 7279m | -5.3m/s | -26.6°C | 37.0% | 409.7hPa | 2.5V | 00:00:00 | 00:00:00 | 00:00:00 | |
| DO3MHA-11 | 2026-08-31 17:53:10 | 48.34196 | 12.70298 | 63° | 110km/h | 7301m | -5.6m/s | -26.8°C | 38.7% | 408.5hPa | 2.5V | 01:41:00 | 01:46:53 | 00:00:00 | |
| PG1ADW-2 | 2026-08-31 17:53:06 | 48.34142 | 12.70158 | 59° | 117km/h | 7322m | -5.8m/s | -27.0°C | 38.5% | 407.3hPa | 2.5V | 01:41:00 | 01:46:49 | 00:00:00 | |
| OE5MMP-10 | 2026-08-31 17:53:03 | 48.34098 | 12.70051 | 59° | 115km/h | 7338m | -5.3m/s | -27.1°C | 38.4% | 406.4hPa | 2.6V | 01:41:00 | 01:46:46 | 00:00:00 | |
| OE5REO-15 | 2026-08-31 17:53:01 | 48.34083 | 12.70014 | 60° | 113km/h | 7343m | -5.2m/s | -27.2°C | 37.1% | 406.1hPa | 2.6V | 01:41:00 | 00:00:00 | 00:00:00 | |
| OE5DXL-15 | 2026-08-31 17:53:00 | 48.34053 | 12.69941 | 59° | 117km/h | 7354m | -5.1m/s | -27.3°C | 38.4% | 405.4hPa | 2.6V | 00:00:00 | 00:00:00 | 00:00:00 | |
| NBG1-10 | 2026-08-31 17:52:58 | 48.34023 | 12.69866 | 59° | 117km/h | 7365m | -5.8m/s | -27.3°C | 38.6% | 404.9hPa | 2.6V | 01:41:00 | 01:46:41 | 00:00:00 | |
| OE5MMP-10 | 2026-08-31 17:52:53 | 48.33945 | 12.69676 | 58° | 122km/h | 7390m | -4.6m/s | -27.5°C | 38.2% | 403.4hPa | 2.6V | 00:00:00 | 01:46:36 | 00:00:00 | |
| DO3MHA-11 | 2026-08-31 17:52:50 | 48.33897 | 12.69561 | 58° | 122km/h | 7407m | -5.7m/s | -27.7°C | 37.7% | 402.4hPa | 2.6V | 01:41:00 | 01:46:33 | 00:00:00 | |
| OE5DRO-10 | 2026-08-31 17:52:47 | 48.33848 | 12.69443 | 58° | 117km/h | 7423m | -5.1m/s | -27.7°C | 33.3% | 401.5hPa | 2.6V | 01:41:00 | 00:00:00 | 00:00:00 | |
| PG1ADW-2 | 2026-08-31 17:52:46 | 48.33831 | 12.69404 | 59° | 117km/h | 7428m | -5.3m/s | -27.7°C | 32.0% | 401.3hPa | 2.6V | 00:00:00 | 00:00:00 | 00:00:00 | |
| OE5REO-15 | 2026-08-31 17:52:45 | 48.33831 | 12.69404 | 59° | 124km/h | 7428m | -5.3m/s | -27.8°C | 30.6% | 401.3hPa | 2.6V | 01:41:00 | 00:00:00 | 00:00:00 | |
| OE5MMP-10 | 2026-08-31 17:52:43 | 48.33783 | 12.69282 | 61° | 117km/h | 7444m | -5.2m/s | -27.8°C | 30.1% | 400.4hPa | 2.6V | 01:41:00 | 01:46:26 | 00:00:00 | |
| OE3JTB-15 | 2026-08-31 17:52:41 | 48.33753 | 12.69201 | 62° | 119km/h | 7454m | -5.0m/s | -27.7°C | 27.8% | 399.8hPa | 2.6V | 01:41:00 | 00:00:00 | 00:00:00 | |
| DO3MHA-11 | 2026-08-31 17:52:40 | 48.33739 | 12.69160 | 63° | 113km/h | 7459m | -5.3m/s | -27.7°C | 26.2% | 399.6hPa | 2.6V | 00:00:00 | 01:46:23 | 00:00:00 | |
| OE5MMP-10 | 2026-08-31 17:52:33 | 48.33641 | 12.68898 | 59° | 113km/h | 7497m | -5.5m/s | -27.7°C | 15.7% | 397.6hPa | 2.6V | 00:00:00 | 01:46:16 | 00:00:00 | |
| DO7DH-14 | 2026-08-31 17:52:32 | 48.33626 | 12.68862 | 58° | 119km/h | 7502m | -5.0m/s | -27.7°C | 15.0% | 397.2hPa | 2.6V | 00:00:00 | 01:46:15 | 00:00:00 | |
| OE5WHR-10 | 2026-08-31 17:52:31 | 48.33611 | 12.68828 | 57° | 120km/h | 7507m | -5.6m/s | -27.7°C | 14.3% | 397.0hPa | 2.6V | 01:42:00 | 01:46:14 | 00:00:00 | |
| DO3MHA-11 | 2026-08-31 17:52:30 | 48.33595 | 12.68793 | 56° | 119km/h | 7513m | -5.4m/s | -27.7°C | 14.1% | 396.6hPa | 2.6V | 01:42:00 | 01:46:13 | 00:00:00 | |
| OE5DRO-10 | 2026-08-31 17:52:28 | 48.33562 | 12.68723 | 55° | 120km/h | 7524m | -5.6m/s | -27.8°C | 14.2% | 396.0hPa | 2.6V | 00:00:00 | 00:00:00 | 00:00:00 | |
| PG1ADW-2 | 2026-08-31 17:52:26 | 48.33527 | 12.68652 | 54° | 120km/h | 7535m | -5.4m/s | -27.9°C | 12.4% | 395.5hPa | 2.5V | 01:42:00 | 00:00:00 | 00:00:00 | |
| NBG1-10 | 2026-08-31 17:52:25 | 48.33510 | 12.68616 | 54° | 124km/h | 7540m | -5.7m/s | -27.9°C | 11.9% | 395.2hPa | 2.5V | 00:00:00 | 01:46:08 | 00:00:00 | |
| OE5MMP-10 | 2026-08-31 17:52:23 | 48.33474 | 12.68541 | 55° | 124km/h | 7551m | -5.8m/s | -28.0°C | 11.2% | 394.5hPa | 2.5V | 01:42:00 | 01:46:06 | 00:00:00 | |
| DO3MHA-11 | 2026-08-31 17:52:20 | 48.33419 | 12.68427 | 55° | 122km/h | 7568m | -5.5m/s | -28.1°C | 10.3% | 393.7hPa | 2.5V | 00:00:00 | 01:46:03 | 00:00:00 | |
| OE5REO-15 | 2026-08-31 17:52:14 | 48.33332 | 12.68227 | 60° | 124km/h | 7596m | -5.5m/s | -28.4°C | 8.4% | 392.2hPa | 2.5V | 01:42:00 | 00:00:00 | 00:00:00 | |
| OE5MMP-10 | 2026-08-31 17:52:13 | 48.33301 | 12.68147 | 61° | 119km/h | 7607m | -5.3m/s | -28.4°C | 8.3% | 391.5hPa | 2.5V | 00:00:00 | 01:45:56 | 00:00:00 | |
| DL6DJ-15 | 2026-08-31 17:52:12 | 48.33286 | 12.68107 | 61° | 117km/h | 7612m | -5.3m/s | -28.5°C | 6.9% | 391.4hPa | 2.5V | 00:00:00 | 00:00:00 | 00:00:00 | |
| DO3MHA-11 | 2026-08-31 17:52:10 | 48.33258 | 12.68030 | 62° | 120km/h | 7622m | -5.2m/s | -28.5°C | 6.3% | 390.7hPa | 2.5V | 01:42:00 | 01:45:53 | 00:00:00 | |
| OE5DRO-10 | 2026-08-31 17:52:09 | 48.33244 | 12.67992 | 61° | 126km/h | 7628m | -5.5m/s | -28.5°C | 6.0% | 390.3hPa | 2.5V | 01:42:00 | 00:00:00 | 00:00:00 | |
| PG1ADW-2 | 2026-08-31 17:52:06 | 48.33197 | 12.67879 | 57° | 128km/h | 7644m | -5.2m/s | -28.6°C | 5.9% | 389.5hPa | 2.5V | 00:00:00 | 00:00:00 | 00:00:00 | |
| OE5MMP-10 | 2026-08-31 17:52:03 | 48.33144 | 12.67765 | 55° | 128km/h | 7660m | -5.5m/s | -28.6°C | 5.8% | 388.6hPa | 2.6V | 01:42:00 | 01:45:46 | 00:00:00 | |
| DO7DH-14 | 2026-08-31 17:52:02 | 48.33126 | 12.67727 | 54° | 120km/h | 7665m | -5.2m/s | -28.7°C | 5.7% | 388.3hPa | 2.5V | 01:42:00 | 01:45:45 | 00:00:00 | |
| OE5DXL-15 | 2026-08-31 17:52:00 | 48.33089 | 12.67650 | 55° | 124km/h | 7676m | -5.4m/s | -28.7°C | 5.5% | 387.7hPa | 2.5V | 00:00:00 | 00:00:00 | 00:00:00 | |
| OE5REO-15 | 2026-08-31 17:51:59 | 48.33089 | 12.67650 | 55° | 126km/h | 7676m | -5.5m/s | -28.7°C | 4.8% | 387.8hPa | 2.6V | 01:42:00 | 00:00:00 | 00:00:00 | |
| OE5MMP-10 | 2026-08-31 17:51:53 | 48.32957 | 12.67370 | 57° | 128km/h | 7715m | -5.1m/s | -28.8°C | 5.6% | 385.5hPa | 2.6V | 00:00:00 | 01:45:36 | 00:00:00 | |
| NBG1-10 | 2026-08-31 17:51:52 | 48.32939 | 12.67328 | 58° | 122km/h | 7721m | -5.8m/s | -28.9°C | 5.6% | 385.3hPa | 2.6V | 01:42:00 | 01:45:35 | 00:00:00 | |
| DO3MHA-11 | 2026-08-31 17:51:50 | 48.32903 | 12.67243 | 59° | 122km/h | 7732m | -6.0m/s | -29.0°C | 5.7% | 384.7hPa | 2.5V | 01:42:00 | 01:45:33 | 00:00:00 | |
| OE5WHR-10 | 2026-08-31 17:51:49 | 48.32886 | 12.67201 | 60° | 122km/h | 7738m | -5.9m/s | -29.0°C | 5.7% | 384.4hPa | 2.6V | 01:42:00 | 00:00:00 | 00:00:00 | |
| PG1ADW-2 | 2026-08-31 17:51:46 | 48.32838 | 12.67075 | 61° | 122km/h | 7754m | -5.4m/s | -29.1°C | 5.8% | 383.5hPa | 2.6V | 01:42:00 | 01:45:29 | 00:00:00 | |
| OE5REO-15 | 2026-08-31 17:51:44 | 48.32823 | 12.67034 | 62° | 122km/h | 7760m | -5.8m/s | -29.2°C | 5.1% | 383.2hPa | 2.6V | 01:42:00 | 00:00:00 | 00:00:00 | |
| OE3JTB-15 | 2026-08-31 17:51:43 | 48.32793 | 12.66955 | 61° | 119km/h | 7771m | -6.3m/s | -29.2°C | 5.9% | 382.6hPa | 2.6V | 01:42:00 | 00:00:00 | 00:00:00 | |
| DF3TZ-5 | 2026-08-31 17:51:42 | 48.32779 | 12.66917 | 59° | 117km/h | 7777m | -6.4m/s | -29.3°C | 5.1% | 382.3hPa | 2.6V | 00:00:00 | 00:00:00 | 00:00:00 | |
| DL6DJ-15 | 2026-08-31 17:51:41 | 48.32748 | 12.66841 | 57° | 113km/h | 7789m | -6.1m/s | -29.4°C | 5.1% | 381.6hPa | 2.6V | 00:00:00 | 00:00:00 | 00:00:00 | |
| DO3MHA-12 | 2026-08-31 17:51:40 | 48.32748 | 12.66841 | 58° | 120km/h | 7789m | -6.0m/s | -29.4°C | 5.9% | 381.6hPa | 2.6V | 01:42:00 | 01:45:23 | 00:00:00 | |
| OE5MMP-10 | 2026-08-31 17:51:33 | 48.32628 | 12.66584 | 54° | 126km/h | 7829m | -5.3m/s | -29.7°C | 6.0% | 379.5hPa | 2.6V | 00:00:00 | 01:45:16 | 00:00:00 | |
| DO7DH-14 | 2026-08-31 17:51:32 | 48.32609 | 12.66545 | 55° | 120km/h | 7835m | -5.1m/s | -29.8°C | 6.1% | 379.2hPa | 2.6V | 00:00:00 | 01:45:15 | 00:00:00 | |
| OE5DRO-10 | 2026-08-31 17:51:31 | 48.32591 | 12.66505 | 57° | 119km/h | 7840m | -5.7m/s | -29.8°C | 6.0% | 378.9hPa | 2.5V | 01:43:00 | 00:00:00 | 00:00:00 | |
| DO3MHA-11 | 2026-08-31 17:51:30 | 48.32573 | 12.66464 | 59° | 122km/h | 7846m | -5.9m/s | -29.9°C | 6.1% | 378.5hPa | 2.5V | 01:43:00 | 01:45:13 | 00:00:00 | |
| OE5WHR-10 | 2026-08-31 17:51:28 | 48.32540 | 12.66380 | 61° | 119km/h | 7857m | -5.7m/s | -30.0°C | 6.1% | 378.0hPa | 2.5V | 00:00:00 | 01:45:11 | 00:00:00 | |
| PG1ADW-2 | 2026-08-31 17:51:26 | 48.32509 | 12.66295 | 62° | 119km/h | 7869m | -6.0m/s | -30.0°C | 6.2% | 377.4hPa | 2.5V | 00:00:00 | 00:00:00 | 00:00:00 | |
| OE5MMP-10 | 2026-08-31 17:51:23 | 48.32466 | 12.66173 | 63° | 113km/h | 7887m | -5.6m/s | -30.1°C | 6.4% | 376.5hPa | 2.5V | 01:43:00 | 01:45:06 | 00:00:00 | |
| DO3MHA-11 | 2026-08-31 17:51:20 | 48.32424 | 12.66057 | 62° | 115km/h | 7904m | -5.9m/s | -30.3°C | 6.6% | 375.4hPa | 2.5V | 00:00:00 | 01:45:03 | 00:00:00 | |
| NBG1-10 | 2026-08-31 17:51:19 | 48.32410 | 12.66020 | 61° | 120km/h | 7910m | -5.9m/s | -30.3°C | 6.7% | 375.2hPa | 2.6V | 00:00:00 | 01:45:02 | 00:00:00 | |
| DB0UT-7 | 2026-08-31 17:51:14 | 48.32335 | 12.65839 | 56° | 126km/h | 7941m | -6.1m/s | -30.6°C | 6.9% | 373.6hPa | 2.6V | 01:43:00 | 01:44:57 | 00:00:00 | |
| OE5MMP-10 | 2026-08-31 17:51:13 | 48.32318 | 12.65803 | 56° | 124km/h | 7947m | -5.8m/s | -30.6°C | 7.1% | 373.2hPa | 2.6V | 00:00:00 | 01:44:56 | 00:00:00 | |
| DB0NH | 2026-08-31 17:51:12 | 48.32301 | 12.65766 | 56° | 122km/h | 7953m | -5.7m/s | -30.7°C | 7.1% | 372.9hPa | 2.6V | 00:00:00 | 01:44:55 | 00:00:00 | |
| DF3TZ-5 | 2026-08-31 17:51:11 | 48.32284 | 12.65728 | 55° | 120km/h | 7958m | -5.9m/s | -30.8°C | 6.2% | 372.7hPa | 2.6V | 00:00:00 | 00:00:00 | 00:00:00 | |
| OE5WHR-10 | 2026-08-31 17:51:07 | 48.32215 | 12.65568 | 59° | 122km/h | 7983m | -5.8m/s | -31.0°C | 7.3% | 371.3hPa | 2.6V | 01:43:00 | 00:00:00 | 00:00:00 | |
| PG1ADW-2 | 2026-08-31 17:51:06 | 48.32199 | 12.65527 | 60° | 122km/h | 7989m | -6.0m/s | -31.0°C | 7.4% | 371.1hPa | 2.6V | 01:43:00 | 00:00:00 | 00:00:00 | |
| OE5MMP-10 | 2026-08-31 17:51:03 | 48.32152 | 12.65404 | 62° | 120km/h | 8008m | -6.2m/s | -31.2°C | 7.8% | 370.1hPa | 2.5V | 01:43:00 | 01:44:46 | 00:00:00 | |
| BAUMI2-15 | 2026-08-31 17:51:02 | 48.32137 | 12.65364 | 61° | 120km/h | 8014m | -6.3m/s | -31.3°C | 7.9% | 369.7hPa | 2.6V | 00:00:00 | 01:44:45 | 00:00:00 | |
| DO3MHA-12 | 2026-08-31 17:51:00 | 48.32107 | 12.65283 | 62° | 120km/h | 8026m | -6.1m/s | -31.3°C | 8.0% | 369.1hPa | 2.6V | 01:43:00 | 01:44:43 | 00:00:00 | |
| BAUMI2-15 | 2026-08-31 17:50:57 | 48.32063 | 12.65166 | 60° | 120km/h | 8044m | -5.5m/s | -31.4°C | 8.0% | 368.2hPa | 2.6V | 01:43:00 | 01:44:40 | 00:00:00 | |
| DO7DH-14 | 2026-08-31 17:50:56 | 48.32048 | 12.65128 | 59° | 126km/h | 8050m | -5.8m/s | -31.5°C | 8.0% | 367.9hPa | 2.6V | 01:43:00 | 01:44:39 | 00:00:00 | |
| OE5MMP-10 | 2026-08-31 17:50:53 | 48.31999 | 12.65012 | 58° | 126km/h | 8069m | -6.4m/s | -31.5°C | 8.0% | 366.9hPa | 2.6V | 00:00:00 | 01:44:36 | 00:00:00 | |
| DO3MHA-11 | 2026-08-31 17:50:50 | 48.31948 | 12.64891 | 59° | 126km/h | 8088m | -6.2m/s | -31.7°C | 8.0% | 365.9hPa | 2.6V | 01:43:00 | 01:44:33 | 00:00:00 | |
| NBG1-10 | 2026-08-31 17:50:46 | 48.31886 | 12.64723 | 63° | 130km/h | 8113m | -5.9m/s | -31.9°C | 8.3% | 364.6hPa | 2.6V | 01:43:00 | 01:44:29 | 00:00:00 | |
| OE3JTB-15 | 2026-08-31 17:50:45 | 48.31872 | 12.64681 | 63° | 128km/h | 8119m | -6.0m/s | -32.0°C | 8.4% | 364.3hPa | 2.6V | 01:43:00 | 01:44:28 | 00:00:00 | |
| OE5MMP-10 | 2026-08-31 17:50:43 | 48.31842 | 12.64598 | 62° | 126km/h | 8131m | -5.6m/s | -32.1°C | 8.5% | 363.7hPa | 2.6V | 01:43:00 | 01:44:26 | 00:00:00 | |
| DB0NH | 2026-08-31 17:50:42 | 48.31827 | 12.64557 | 61° | 130km/h | 8137m | -6.4m/s | -32.1°C | 8.5% | 363.4hPa | 2.6V | 01:43:00 | 01:44:25 | 00:00:00 | |
| OE5REO-15 | 2026-08-31 17:50:41 | 48.31827 | 12.64557 | 62° | 124km/h | 8137m | -6.4m/s | -32.1°C | 7.5% | 363.5hPa | 2.5V | 01:44:00 | 00:00:00 | 00:00:00 | |
| DO3MHA-11 | 2026-08-31 17:50:40 | 48.31795 | 12.64476 | 60° | 128km/h | 8149m | -8.2m/s | -32.2°C | 8.4% | 362.9hPa | 2.5V | 00:00:00 | 01:44:23 | 00:00:00 | |
| DL6DJ-15 | 2026-08-31 17:50:39 | 48.31763 | 12.64395 | 58° | 126km/h | 8165m | -7.4m/s | -32.4°C | 7.5% | 362.1hPa | 2.5V | 00:00:00 | 00:00:00 | 00:00:00 | |
| BAUMI2-15 | 2026-08-31 17:50:34 | 48.31694 | 12.64230 | 59° | 130km/h | 8192m | -6.4m/s | -32.5°C | 8.5% | 360.6hPa | 2.5V | 01:43:00 | 01:44:17 | 00:00:00 | |
| OE5MMP-10 | 2026-08-31 17:50:33 | 48.31677 | 12.64188 | 60° | 128km/h | 8198m | -6.4m/s | -32.6°C | 8.5% | 360.3hPa | 2.5V | 00:00:00 | 01:44:16 | 00:00:00 | |
| DO3MHA-11 | 2026-08-31 17:50:30 | 48.31629 | 12.64062 | 61° | 128km/h | 8216m | -6.6m/s | -32.7°C | 8.3% | 359.4hPa | 2.5V | 01:44:00 | 01:44:13 | 00:00:00 | |
| DO7DH-14 | 2026-08-31 17:50:26 | 48.31567 | 12.63893 | 61° | 133km/h | 8241m | -6.4m/s | -32.8°C | 8.2% | 358.1hPa | 2.5V | 00:00:00 | 01:44:09 | 00:00:00 | |
| OE5WHR-10 | 2026-08-31 17:50:25 | 48.31551 | 12.63851 | 61° | 131km/h | 8247m | -6.2m/s | -32.9°C | 8.2% | 357.9hPa | 2.5V | 01:44:00 | 01:44:08 | 00:00:00 | |
| OE5MMP-10 | 2026-08-31 17:50:23 | 48.31517 | 12.63767 | 59° | 133km/h | 8259m | -6.0m/s | -33.0°C | 8.3% | 357.2hPa | 2.5V | 01:44:00 | 01:44:06 | 00:00:00 | |
| DO3MHA-12 | 2026-08-31 17:50:20 | 48.31462 | 12.63641 | 57° | 133km/h | 8277m | -5.9m/s | -33.1°C | 8.0% | 356.3hPa | 2.5V | 01:44:00 | 01:44:03 | 00:00:00 | |
| DB0UT-7 | 2026-08-31 17:50:16 | 48.31387 | 12.63471 | 57° | 131km/h | 8302m | -5.9m/s | -33.2°C | 7.9% | 355.0hPa | 2.5V | 00:00:00 | 00:00:00 | 00:00:00 | |
| OE5DRO-10 | 2026-08-31 17:50:15 | 48.31368 | 12.63427 | 57° | 133km/h | 8309m | -7.0m/s | -33.2°C | 7.8% | 354.7hPa | 2.5V | 01:44:00 | 00:00:00 | 00:00:00 | |
| NBG1-10 | 2026-08-31 17:50:13 | 48.31330 | 12.63342 | 57° | 131km/h | 8323m | -7.2m/s | -33.4°C | 7.9% | 353.9hPa | 2.5V | 00:00:00 | 01:43:56 | 00:00:00 | |
| DB0NH | 2026-08-31 17:50:12 | 48.31312 | 12.63300 | 56° | 131km/h | 8330m | -6.3m/s | -33.4°C | 7.9% | 353.6hPa | 2.5V | 00:00:00 | 01:43:55 | 00:00:00 | |
| DO3MHA-11 | 2026-08-31 17:50:10 | 48.31274 | 12.63219 | 56° | 130km/h | 8343m | -5.7m/s | -33.5°C | 7.9% | 353.0hPa | 2.5V | 01:44:00 | 01:43:53 | 00:00:00 | |
| DF3TZ-5 | 2026-08-31 17:50:09 | 48.31256 | 12.63179 | 55° | 128km/h | 8348m | -5.8m/s | -33.6°C | 6.7% | 352.8hPa | 2.5V | 00:00:00 | 00:00:00 | 00:00:00 | |
| DL6DJ-15 | 2026-08-31 17:50:08 | 48.31219 | 12.63099 | 54° | 126km/h | 8362m | -8.0m/s | -33.6°C | 6.7% | 352.1hPa | 2.5V | 00:00:00 | 00:00:00 | 00:00:00 | |
| PG1ADW-2 | 2026-08-31 17:50:06 | 48.31200 | 12.63060 | 55° | 131km/h | 8370m | -7.2m/s | -33.6°C | 7.8% | 351.6hPa | 2.5V | 00:00:00 | 00:00:00 | 00:00:00 | |
| DG1MFX-10 | 2026-08-31 17:50:05 | 48.31200 | 12.63060 | 56° | 128km/h | 8370m | -7.2m/s | -33.7°C | 6.7% | 351.7hPa | 2.6V | 01:44:00 | 00:00:00 | 00:00:00 | |
| OE5WHR-10 | 2026-08-31 17:50:04 | 48.31163 | 12.62979 | 56° | 133km/h | 8383m | -7.5m/s | -33.7°C | 7.8% | 350.9hPa | 2.6V | 00:00:00 | 00:00:00 | 00:00:00 | |
| OE5MMP-10 | 2026-08-31 17:50:03 | 48.31144 | 12.62938 | 56° | 135km/h | 8389m | -5.7m/s | -33.7°C | 7.9% | 350.6hPa | 2.5V | 01:44:00 | 01:43:46 | 00:00:00 | |
| DO3MHA-11 | 2026-08-31 17:50:00 | 48.31087 | 12.62810 | 56° | 135km/h | 8410m | -6.9m/s | -33.9°C | 7.9% | 349.6hPa | 2.5V | 00:00:00 | 01:43:43 | 00:00:00 | |
| DO7DH-14 | 2026-08-31 17:49:56 | 48.31006 | 12.62641 | 55° | 131km/h | 8440m | -8.3m/s | -34.2°C | 8.0% | 348.2hPa | 2.5V | 01:44:00 | 01:43:39 | 00:00:00 | |
| OE5REO-15 | 2026-08-31 17:49:54 | 48.30986 | 12.62599 | 55° | 135km/h | 8447m | -5.6m/s | -34.3°C | 6.9% | 347.8hPa | 2.5V | 01:45:00 | 00:00:00 | 00:00:00 | |
| OE5MMP-10 | 2026-08-31 17:49:53 | 48.30946 | 12.62518 | 55° | 130km/h | 8459m | -6.8m/s | -34.3°C | 8.1% | 347.1hPa | 2.5V | 00:00:00 | 01:43:36 | 00:00:00 | |
| DO3MHA-11 | 2026-08-31 17:49:50 | 48.30889 | 12.62398 | 55° | 131km/h | 8479m | -7.3m/s | -34.5°C | 8.0% | 346.2hPa | 2.5V | 01:44:00 | 01:43:33 | 00:00:00 | |
| OE3JTB-15 | 2026-08-31 17:49:47 | 48.30834 | 12.62278 | 58° | 133km/h | 8500m | -6.9m/s | -34.6°C | 8.1% | 345.1hPa | 2.5V | 01:44:00 | 00:00:00 | 00:00:00 | |
| DB0UT-7 | 2026-08-31 17:49:46 | 48.30817 | 12.62237 | 59° | 133km/h | 8506m | -6.2m/s | -34.7°C | 8.1% | 344.8hPa | 2.5V | 01:44:00 | 01:43:29 | 00:00:00 | |
| DG1MFX-10 | 2026-08-31 17:49:45 | 48.30817 | 12.62237 | 59° | 130km/h | 8506m | -6.2m/s | -34.7°C | 7.0% | 344.8hPa | 2.5V | 01:45:00 | 00:00:00 | 00:00:00 | |
| OE5WHR-10 | 2026-08-31 17:49:43 | 48.30764 | 12.62108 | 58° | 133km/h | 8526m | -6.1m/s | -34.8°C | 8.1% | 343.7hPa | 2.5V | 01:44:00 | 00:00:00 | 00:00:00 | |
| DB0NH | 2026-08-31 17:49:42 | 48.30745 | 12.62064 | 58° | 133km/h | 8532m | -5.9m/s | -34.9°C | 8.1% | 343.5hPa | 2.5V | 01:44:00 | 01:43:25 | 00:00:00 | |
| DO3MHA-12 | 2026-08-31 17:49:40 | 48.30706 | 12.61976 | 56° | 135km/h | 8545m | -6.6m/s | -35.0°C | 8.1% | 342.9hPa | 2.5V | 01:44:00 | 01:43:23 | 00:00:00 | |
| OE5REO-15 | 2026-08-31 17:49:39 | 48.30706 | 12.61976 | 56° | 139km/h | 8545m | -6.6m/s | -35.1°C | 7.0% | 343.0hPa | 2.5V | 01:45:00 | 00:00:00 | 00:00:00 | |
| DL6DJ-15 | 2026-08-31 17:49:37 | 48.30606 | 12.61764 | 54° | 131km/h | 8576m | -6.8m/s | -35.3°C | 7.0% | 341.4hPa | 2.5V | 00:00:00 | 00:00:00 | 00:00:00 | |
| OE5MMP-10 | 2026-08-31 17:49:33 | 48.30568 | 12.61682 | 55° | 130km/h | 8589m | -6.2m/s | -35.4°C | 8.3% | 340.8hPa | 2.5V | 00:00:00 | 01:43:16 | 00:00:00 | |
| BAUMI2-15 | 2026-08-31 17:49:32 | 48.30549 | 12.61642 | 55° | 131km/h | 8595m | -5.7m/s | -35.4°C | 8.3% | 340.4hPa | 2.6V | 01:44:00 | 01:43:15 | 00:00:00 | |
| DO3MHA-11 | 2026-08-31 17:49:30 | 48.30512 | 12.61561 | 56° | 130km/h | 8607m | -6.9m/s | -35.5°C | 8.4% | 339.8hPa | 2.6V | 01:45:00 | 01:43:13 | 00:00:00 | |
| DO7DH-14 | 2026-08-31 17:49:26 | 48.30439 | 12.61400 | 56° | 133km/h | 8631m | -7.1m/s | -35.7°C | 8.8% | 338.7hPa | 2.6V | 00:00:00 | 01:43:09 | 00:00:00 | |
| DG1MFX-10 | 2026-08-31 17:49:24 | 48.30421 | 12.61360 | 57° | 128km/h | 8638m | -6.4m/s | -35.8°C | 7.6% | 338.4hPa | 2.6V | 01:45:00 | 00:00:00 | 00:00:00 | |
| OE5MMP-10 | 2026-08-31 17:49:23 | 48.30385 | 12.61278 | 57° | 133km/h | 8650m | -5.9m/s | -35.9°C | 9.1% | 337.8hPa | 2.6V | 01:45:00 | 01:43:06 | 00:00:00 | |
| OE5WHR-10 | 2026-08-31 17:49:22 | 48.30367 | 12.61236 | 57° | 131km/h | 8656m | -6.3m/s | -35.9°C | 9.1% | 337.5hPa | 2.6V | 00:00:00 | 01:43:05 | 00:00:00 | |
| DO3MHA-11 | 2026-08-31 17:49:20 | 48.30330 | 12.61152 | 58° | 133km/h | 8668m | -5.9m/s | -36.0°C | 9.2% | 336.9hPa | 2.6V | 00:00:00 | 01:43:03 | 00:00:00 | |
| OE3JTB-15 | 2026-08-31 17:49:18 | 48.30293 | 12.61067 | 57° | 133km/h | 8684m | -9.3m/s | -36.1°C | 9.2% | 336.2hPa | 2.5V | 00:00:00 | 01:43:01 | 00:00:00 | |
| DB0UT-7 | 2026-08-31 17:49:16 | 48.30256 | 12.60982 | 57° | 131km/h | 8701m | -8.2m/s | -36.2°C | 9.2% | 335.5hPa | 2.5V | 00:00:00 | 00:00:00 | 00:00:00 | |
| OE5MMP-10 | 2026-08-31 17:49:13 | 48.30199 | 12.60857 | 57° | 131km/h | 8727m | -9.7m/s | -36.4°C | 9.3% | 334.3hPa | 2.5V | 00:00:00 | 01:42:56 | 00:00:00 | |
| DB0NH | 2026-08-31 17:49:12 | 48.30181 | 12.60815 | 57° | 131km/h | 8735m | -7.9m/s | -36.5°C | 9.4% | 333.7hPa | 2.5V | 00:00:00 | 01:42:55 | 00:00:00 | |
| DO3MHA-11 | 2026-08-31 17:49:10 | 48.30144 | 12.60732 | 57° | 133km/h | 8750m | -6.5m/s | -36.6°C | 9.6% | 333.0hPa | 2.5V | 01:45:00 | 01:42:53 | 00:00:00 | |
| OE5REO-15 | 2026-08-31 17:49:08 | 48.30126 | 12.60691 | 57° | 131km/h | 8756m | -5.7m/s | -36.7°C | 8.4% | 332.8hPa | 2.5V | 01:45:00 | 00:00:00 | 00:00:00 | |
| NBG1-10 | 2026-08-31 17:49:07 | 48.30089 | 12.60608 | 57° | 131km/h | 8769m | -6.9m/s | -36.7°C | 9.8% | 332.0hPa | 2.5V | 00:00:00 | 01:42:50 | 00:00:00 | |
| PG1ADW-2 | 2026-08-31 17:49:06 | 48.30071 | 12.60567 | 58° | 133km/h | 8776m | -6.8m/s | -36.8°C | 9.8% | 331.7hPa | 2.5V | 01:45:00 | 01:42:49 | 00:00:00 | |
| DG1MFX-10 | 2026-08-31 17:49:05 | 48.30054 | 12.60525 | 59° | 131km/h | 8783m | -7.9m/s | -36.9°C | 8.5% | 331.4hPa | 2.6V | 01:46:00 | 00:00:00 | 00:00:00 | |
| OE5MMP-10 | 2026-08-31 17:49:03 | 48.30018 | 12.60441 | 59° | 135km/h | 8797m | -6.6m/s | -37.0°C | 10.0% | 330.7hPa | 2.6V | 01:45:00 | 01:42:46 | 00:00:00 | |
| OE5WHR-10 | 2026-08-31 17:49:01 | 48.29983 | 12.60354 | 59° | 131km/h | 8812m | -8.3m/s | -37.0°C | 10.0% | 330.0hPa | 2.5V | 01:45:00 | 00:00:00 | 00:00:00 | |
| OE5DXL-15 | 2026-08-31 17:49:00 | 48.29964 | 12.60310 | 58° | 131km/h | 8822m | -9.4m/s | -37.1°C | 10.1% | 329.6hPa | 2.5V | 00:00:00 | 01:42:43 | 00:00:00 | |
| OE5DRO-10 | 2026-08-31 17:48:59 | 48.29946 | 12.60267 | 58° | 131km/h | 8830m | -8.2m/s | -37.2°C | 10.2% | 329.2hPa | 2.5V | 01:45:00 | 00:00:00 | 00:00:00 | |
| DO3MHA-11 | 2026-08-31 17:48:57 | 48.29908 | 12.60179 | 57° | 131km/h | 8844m | -5.8m/s | -37.3°C | 10.4% | 328.4hPa | 2.5V | 00:00:00 | 01:42:40 | 00:00:00 | |
| DO7DH-14 | 2026-08-31 17:48:56 | 48.29889 | 12.60136 | 56° | 131km/h | 8850m | -7.4m/s | -37.4°C | 10.4% | 328.1hPa | 2.5V | 01:45:00 | 01:42:39 | 00:00:00 | |
| OE5MMP-10 | 2026-08-31 17:48:53 | 48.29830 | 12.60010 | 56° | 130km/h | 8873m | -7.5m/s | -37.6°C | 10.5% | 327.1hPa | 2.5V | 00:00:00 | 01:42:36 | 00:00:00 | |
| OE3JTB-15 | 2026-08-31 17:48:49 | 48.29756 | 12.59849 | 57° | 131km/h | 8900m | -6.7m/s | -37.8°C | 10.8% | 325.9hPa | 2.5V | 01:45:00 | 00:00:00 | 00:00:00 | |
| DO3MHA-12 | 2026-08-31 17:48:47 | 48.29722 | 12.59767 | 59° | 130km/h | 8914m | -6.0m/s | -37.8°C | 11.0% | 325.2hPa | 2.6V | 00:00:00 | 01:42:30 | 00:00:00 | |
| DB0UT-7 | 2026-08-31 17:48:46 | 48.29705 | 12.59724 | 60° | 131km/h | 8920m | -6.2m/s | -37.9°C | 11.0% | 325.0hPa | 2.6V | 01:45:00 | 01:42:29 | 00:00:00 | |
| OE5MMP-10 | 2026-08-31 17:48:43 | 48.29652 | 12.59596 | 58° | 130km/h | 8940m | -6.7m/s | -38.0°C | 11.1% | 324.1hPa | 2.6V | 01:45:00 | 01:42:26 | 00:00:00 | |
| DG1MFX-10 | 2026-08-31 17:48:41 | 48.29634 | 12.59554 | 58° | 131km/h | 8947m | -7.1m/s | -38.1°C | 9.6% | 323.8hPa | 2.6V | 01:46:00 | 00:00:00 | 00:00:00 | |
| OE5WHR-10 | 2026-08-31 17:48:40 | 48.29597 | 12.59472 | 56° | 131km/h | 8961m | -7.0m/s | -38.1°C | 11.1% | 323.1hPa | 2.6V | 00:00:00 | 00:00:00 | 00:00:00 | |
| DO3MHA-11 | 2026-08-31 17:48:37 | 48.29542 | 12.59353 | 56° | 133km/h | 8982m | -6.5m/s | -38.3°C | 11.1% | 322.1hPa | 2.6V | 00:00:00 | 01:42:20 | 00:00:00 | |
| OE5MMP-10 | 2026-08-31 17:48:34 | 48.29467 | 12.59190 | 57° | 133km/h | 9008m | -6.5m/s | -38.5°C | 11.1% | 320.9hPa | 2.6V | 00:00:00 | 01:42:16 | 00:00:00 | |
| OE5DXL-15 | 2026-08-31 17:48:30 | 48.29410 | 12.59063 | 56° | 137km/h | 9028m | -6.4m/s | -38.7°C | 11.0% | 320.0hPa | 2.5V | 01:46:00 | 00:00:00 | 00:00:00 | |
| DO7DH-14 | 2026-08-31 17:48:26 | 48.29331 | 12.58897 | 55° | 137km/h | 9053m | -5.9m/s | -38.9°C | 10.6% | 318.7hPa | 2.5V | 00:00:00 | 01:42:09 | 00:00:00 | |
| OE5MMP-10 | 2026-08-31 17:48:23 | 48.29271 | 12.58775 | 54° | 133km/h | 9074m | -6.5m/s | -39.0°C | 10.2% | 317.8hPa | 2.5V | 01:46:00 | 01:42:06 | 00:00:00 | |
| OE5REO-15 | 2026-08-31 17:48:21 | 48.29251 | 12.58734 | 55° | 131km/h | 9080m | -6.3m/s | -39.0°C | 8.5% | 317.5hPa | 2.5V | 01:46:00 | 00:00:00 | 00:00:00 | |
| DG1MFX-10 | 2026-08-31 17:48:20 | 48.29232 | 12.58694 | 55° | 130km/h | 9087m | -6.9m/s | -39.1°C | 8.6% | 317.3hPa | 2.5V | 01:46:00 | 00:00:00 | 00:00:00 | |
| OE5WHR-10 | 2026-08-31 17:48:19 | 48.29193 | 12.58614 | 55° | 139km/h | 9099m | -6.3m/s | -39.2°C | 10.1% | 316.7hPa | 2.5V | 01:46:00 | 01:42:02 | 00:00:00 | |
| DO3MHA-11 | 2026-08-31 17:48:17 | 48.29155 | 12.58532 | 56° | 141km/h | 9113m | -6.9m/s | -39.2°C | 10.2% | 316.0hPa | 2.5V | 00:00:00 | 01:42:00 | 00:00:00 | |
| DB0UT-7 | 2026-08-31 17:48:16 | 48.29135 | 12.58490 | 56° | 142km/h | 9120m | -6.1m/s | -39.3°C | 10.2% | 315.7hPa | 2.6V | 00:00:00 | 00:00:00 | 00:00:00 | |
| OE5MMP-10 | 2026-08-31 17:48:13 | 48.29073 | 12.58359 | 54° | 141km/h | 9139m | -6.6m/s | -39.5°C | 10.3% | 314.8hPa | 2.5V | 00:00:00 | 01:41:56 | 00:00:00 | |
| DO3MHA-12 | 2026-08-31 17:48:07 | 48.28940 | 12.58106 | 51° | 139km/h | 9177m | -6.2m/s | -39.8°C | 10.6% | 313.0hPa | 2.5V | 00:00:00 | 01:41:50 | 00:00:00 | |
| PG1ADW-2 | 2026-08-31 17:48:06 | 48.28917 | 12.58066 | 51° | 142km/h | 9183m | -6.7m/s | -39.9°C | 10.6% | 312.8hPa | 2.5V | 00:00:00 | 00:00:00 | 00:00:00 | |
| DF3TZ-5 | 2026-08-31 17:48:05 | 48.28873 | 12.57985 | 50° | 137km/h | 9197m | -6.8m/s | -40.1°C | 9.1% | 312.2hPa | 2.6V | 00:00:00 | 00:00:00 | 00:00:00 | |
| OE5MMP-10 | 2026-08-31 17:48:03 | 48.28851 | 12.57944 | 51° | 141km/h | 9204m | -6.3m/s | -40.1°C | 10.8% | 311.8hPa | 2.6V | 01:46:00 | 01:41:46 | 00:00:00 | |
| DB0ND-19 | 2026-08-31 17:47:59 | 48.28676 | 12.57606 | 54° | 144km/h | 9257m | -6.0m/s | -40.6°C | 9.6% | 309.5hPa | 2.6V | 00:00:00 | 00:00:00 | 00:00:00 | |
| OE5WHR-10 | 2026-08-31 17:47:58 | 48.28740 | 12.57736 | 53° | 146km/h | 9237m | -7.6m/s | -40.4°C | 11.0% | 310.4hPa | 2.6V | 00:00:00 | 00:00:00 | 00:00:00 | |
| DO3MHA-11 | 2026-08-31 17:47:57 | 48.28719 | 12.57693 | 54° | 144km/h | 9245m | -7.0m/s | -40.5°C | 11.1% | 310.1hPa | 2.5V | 00:00:00 | 01:41:40 | 00:00:00 | |
| DO7DH-14 | 2026-08-31 17:47:56 | 48.28697 | 12.57650 | 54° | 146km/h | 9251m | -6.1m/s | -40.5°C | 11.2% | 309.7hPa | 2.5V | 01:46:00 | 01:41:39 | 00:00:00 | |
| OE5MMP-10 | 2026-08-31 17:47:53 | 48.28633 | 12.57517 | 55° | 146km/h | 9269m | -5.9m/s | -40.6°C | 11.3% | 308.9hPa | 2.5V | 00:00:00 | 01:41:36 | 00:00:00 | |
| OE3JTB-15 | 2026-08-31 17:47:51 | 48.28591 | 12.57427 | 56° | 146km/h | 9282m | -6.7m/s | -40.6°C | 11.5% | 308.3hPa | 2.5V | 01:46:00 | 01:41:34 | 00:00:00 | |
| OE5REO-15 | 2026-08-31 17:47:49 | 48.28571 | 12.57383 | 56° | 144km/h | 9289m | -6.0m/s | -40.7°C | 9.8% | 308.1hPa | 2.5V | 01:47:00 | 00:00:00 | 00:00:00 | |
| DO3MHA-11 | 2026-08-31 17:47:47 | 48.28508 | 12.57248 | 55° | 150km/h | 9308m | -7.5m/s | -40.8°C | 11.7% | 307.2hPa | 2.5V | 01:46:00 | 01:41:30 | 00:00:00 | |
| DB0UT-7 | 2026-08-31 17:47:46 | 48.28486 | 12.57203 | 55° | 146km/h | 9314m | -5.9m/s | -40.9°C | 11.8% | 306.8hPa | 2.5V | 01:46:00 | 01:41:29 | 00:00:00 | |
| OE5MMP-10 | 2026-08-31 17:47:43 | 48.28419 | 12.57067 | 53° | 150km/h | 9335m | -7.6m/s | -41.0°C | 11.8% | 305.9hPa | 2.5V | 01:46:00 | 01:41:26 | 00:00:00 | |
| OE5DRO-10 | 2026-08-31 17:47:41 | 48.28373 | 12.56976 | 53° | 146km/h | 9350m | -7.6m/s | -41.1°C | 11.9% | 305.2hPa | 2.5V | 01:46:00 | 00:00:00 | 00:00:00 | |
| DG1MFX-10 | 2026-08-31 17:47:38 | 48.28325 | 12.56885 | 53° | 151km/h | 9366m | -8.5m/s | -41.1°C | 10.3% | 304.6hPa | 2.5V | 01:47:00 | 00:00:00 | 00:00:00 | |
| DO3MHA-11 | 2026-08-31 17:47:37 | 48.28278 | 12.56795 | 52° | 144km/h | 9379m | -6.8m/s | -41.1°C | 12.5% | 303.9hPa | 2.5V | 00:00:00 | 01:41:20 | 00:00:00 | |
| DF3TZ-5 | 2026-08-31 17:47:34 | 48.28187 | 12.56619 | 53° | 142km/h | 9406m | -5.8m/s | -41.3°C | 11.0% | 302.8hPa | 2.5V | 00:00:00 | 00:00:00 | 00:00:00 | |
| OE5MMP-10 | 2026-08-31 17:47:33 | 48.28187 | 12.56619 | 54° | 144km/h | 9406m | -5.8m/s | -41.3°C | 12.8% | 302.7hPa | 2.5V | 00:00:00 | 01:41:16 | 00:00:00 | |
| DL6DJ-15 | 2026-08-31 17:47:32 | 48.28166 | 12.56575 | 54° | 142km/h | 9411m | -6.4m/s | -41.4°C | 10.9% | 302.5hPa | 2.6V | 00:00:00 | 00:00:00 | 00:00:00 | |
| OE5DXL-15 | 2026-08-31 17:47:30 | 48.28124 | 12.56487 | 56° | 146km/h | 9425m | -6.2m/s | -41.4°C | 12.8% | 301.9hPa | 2.6V | 01:47:00 | 00:00:00 | 00:00:00 | |
| NBG1-10 | 2026-08-31 17:47:28 | 48.28083 | 12.56397 | 56° | 146km/h | 9438m | -6.8m/s | -41.4°C | 12.9% | 301.3hPa | 2.5V | 01:47:00 | 01:41:11 | 00:00:00 | |
| DO3MHA-12 | 2026-08-31 17:47:27 | 48.28063 | 12.56352 | 57° | 144km/h | 9444m | -6.2m/s | -41.5°C | 13.0% | 300.9hPa | 2.5V | 00:00:00 | 01:41:10 | 00:00:00 | |
| DO7DH-14 | 2026-08-31 17:47:26 | 48.28042 | 12.56306 | 57° | 146km/h | 9450m | -6.2m/s | -41.5°C | 13.1% | 300.7hPa | 2.5V | 00:00:00 | 01:41:09 | 00:00:00 | |
| OE5MMP-10 | 2026-08-31 17:47:23 | 48.27981 | 12.56169 | 56° | 144km/h | 9468m | -6.6m/s | -41.6°C | 13.3% | 299.9hPa | 2.5V | 01:47:00 | 01:41:06 | 00:00:00 | |
| OE3JTB-15 | 2026-08-31 17:47:22 | 48.27960 | 12.56124 | 55° | 146km/h | 9475m | -6.8m/s | -41.6°C | 13.3% | 299.6hPa | 2.5V | 00:00:00 | 00:00:00 | 00:00:00 | |
| DG1MFX-10 | 2026-08-31 17:47:18 | 48.27874 | 12.55945 | 56° | 144km/h | 9500m | -6.0m/s | -41.8°C | 11.7% | 298.6hPa | 2.5V | 01:47:00 | 00:00:00 | 00:00:00 | |
| DO3MHA-11 | 2026-08-31 17:47:17 | 48.27853 | 12.55900 | 56° | 144km/h | 9506m | -4.8m/s | -41.7°C | 13.6% | 298.3hPa | 2.5V | 00:00:00 | 01:41:00 | 00:00:00 | |
| OE5WHR-10 | 2026-08-31 17:47:16 | 48.27832 | 12.55855 | 56° | 148km/h | 9511m | -6.1m/s | -41.8°C | 13.7% | 298.0hPa | 2.5V | 00:00:00 | 01:40:59 | 00:00:00 | |
| BAUMI2-15 | 2026-08-31 17:47:14 | 48.27792 | 12.55766 | 57° | 148km/h | 9524m | -6.6m/s | -41.9°C | 13.9% | 297.4hPa | 2.5V | 00:00:00 | 01:40:57 | 00:00:00 | |
| OE5MMP-10 | 2026-08-31 17:47:13 | 48.27773 | 12.55721 | 58° | 148km/h | 9530m | -5.6m/s | -42.0°C | 13.8% | 297.1hPa | 2.5V | 00:00:00 | 01:40:56 | 00:00:00 | |
| DO3MHA-11 | 2026-08-31 17:47:07 | 48.27655 | 12.55440 | 58° | 150km/h | 9568m | -5.8m/s | -42.2°C | 14.3% | 295.5hPa | 2.5V | 01:47:00 | 01:40:50 | 00:00:00 | |
| PG1ADW-2 | 2026-08-31 17:47:06 | 48.27634 | 12.55392 | 58° | 148km/h | 9574m | -5.5m/s | -42.3°C | 14.4% | 295.2hPa | 2.5V | 01:47:00 | 00:00:00 | 00:00:00 | |
| BAUMI2-15 | 2026-08-31 17:47:04 | 48.27593 | 12.55297 | 57° | 150km/h | 9587m | -7.3m/s | -42.4°C | 14.4% | 294.6hPa | 2.5V | 01:47:00 | 01:40:47 | 00:00:00 | |
| OE5MMP-10 | 2026-08-31 17:47:03 | 48.27572 | 12.55249 | 57° | 148km/h | 9594m | -6.0m/s | -42.4°C | 14.4% | 294.4hPa | 2.5V | 01:47:00 | 01:40:46 | 00:00:00 | |
| OE5REO-15 | 2026-08-31 17:47:02 | 48.27572 | 12.55249 | 57° | 151km/h | 9594m | -6.1m/s | -42.5°C | 12.4% | 294.4hPa | 2.5V | 01:47:00 | 00:00:00 | 00:00:00 | |
| DL6DJ-15 | 2026-08-31 17:47:01 | 48.27529 | 12.55155 | 55° | 151km/h | 9607m | -6.9m/s | -42.6°C | 12.3% | 293.9hPa | 2.5V | 00:00:00 | 00:00:00 | 00:00:00 | |
| OE5DXL-15 | 2026-08-31 17:47:00 | 48.27507 | 12.55108 | 56° | 146km/h | 9614m | -7.3m/s | -42.6°C | 14.4% | 293.5hPa | 2.5V | 00:00:00 | 00:00:00 | 00:00:00 | |
| BAUMI2-15 | 2026-08-31 17:46:59 | 48.27485 | 12.55061 | 55° | 148km/h | 9621m | -7.1m/s | -42.7°C | 14.5% | 293.2hPa | 2.5V | 00:00:00 | 01:40:42 | 00:00:00 | |
| DO3MHA-11 | 2026-08-31 17:46:57 | 48.27442 | 12.54969 | 55° | 144km/h | 9636m | -6.5m/s | -42.8°C | 14.7% | 292.6hPa | 2.5V | 00:00:00 | 01:40:40 | 00:00:00 | |
| DO7DH-14 | 2026-08-31 17:46:56 | 48.27421 | 12.54923 | 56° | 146km/h | 9642m | -6.4m/s | -42.8°C | 14.7% | 292.4hPa | 2.5V | 01:47:00 | 01:40:39 | 00:00:00 | |
| OE5WHR-10 | 2026-08-31 17:46:55 | 48.27400 | 12.54878 | 57° | 146km/h | 9648m | -5.6m/s | -42.9°C | 14.8% | 292.0hPa | 2.6V | 01:47:00 | 00:00:00 | 00:00:00 | |
| BAUMI2-15 | 2026-08-31 17:46:54 | 48.27380 | 12.54832 | 58° | 142km/h | 9654m | -5.7m/s | -43.0°C | 14.9% | 291.8hPa | 2.6V | 01:47:00 | 01:40:37 | 00:00:00 | |
| OE5MMP-10 | 2026-08-31 17:46:53 | 48.27361 | 12.54786 | 59° | 144km/h | 9660m | -6.4m/s | -43.0°C | 14.8% | 291.6hPa | 2.6V | 00:00:00 | 01:40:36 | 00:00:00 | |
| BAUMI2-15 | 2026-08-31 17:46:49 | 48.27285 | 12.54600 | 58° | 146km/h | 9684m | -6.2m/s | -43.2°C | 15.1% | 290.4hPa | 2.6V | 00:00:00 | 01:40:32 | 00:00:00 | |
| DO3MHA-11 | 2026-08-31 17:46:47 | 48.27245 | 12.54507 | 57° | 146km/h | 9697m | -6.6m/s | -43.3°C | 15.1% | 289.8hPa | 2.6V | 01:47:00 | 01:40:30 | 00:00:00 | |
| PG1ADW-2 | 2026-08-31 17:46:46 | 48.27225 | 12.54460 | 58° | 146km/h | 9703m | -5.7m/s | -43.3°C | 15.1% | 289.6hPa | 2.5V | 00:00:00 | 00:00:00 | 00:00:00 | |
| OE5DRO-10 | 2026-08-31 17:46:45 | 48.27185 | 12.54368 | 58° | 146km/h | 9716m | -7.3m/s | -43.4°C | 15.2% | 289.1hPa | 2.5V | 00:00:00 | 00:00:00 | 00:00:00 | |
| BAUMI2-15 | 2026-08-31 17:46:44 | 48.27185 | 12.54368 | 58° | 146km/h | 9716m | -7.3m/s | -43.4°C | 15.2% | 289.1hPa | 2.5V | 01:47:00 | 01:40:27 | 00:00:00 | |
| OE5MMP-10 | 2026-08-31 17:46:43 | 48.27166 | 12.54321 | 58° | 148km/h | 9723m | -6.3m/s | -43.5°C | 15.4% | 288.7hPa | 2.6V | 01:47:00 | 01:40:26 | 00:00:00 | |
| BAUMI2-15 | 2026-08-31 17:46:39 | 48.27088 | 12.54132 | 60° | 148km/h | 9747m | -5.8m/s | -43.7°C | 15.7% | 287.8hPa | 2.6V | 00:00:00 | 01:40:22 | 00:00:00 | |
| DG1MFX-10 | 2026-08-31 17:46:37 | 48.27051 | 12.54035 | 61° | 148km/h | 9758m | -6.4m/s | -43.8°C | 13.5% | 287.4hPa | 2.6V | 01:47:00 | 00:00:00 | 00:00:00 | |
| OE5WHR-10 | 2026-08-31 17:46:34 | 48.26995 | 12.53889 | 61° | 146km/h | 9778m | -5.4m/s | -44.0°C | 16.0% | 286.5hPa | 2.6V | 00:00:00 | 00:00:00 | 00:00:00 | |
| OE5MMP-10 | 2026-08-31 17:46:33 | 48.26976 | 12.53840 | 61° | 146km/h | 9785m | -7.6m/s | -44.0°C | 16.0% | 286.3hPa | 2.6V | 00:00:00 | 01:40:16 | 00:00:00 | |
| DF3TZ-5 | 2026-08-31 17:46:32 | 48.26939 | 12.53744 | 59° | 144km/h | 9800m | -7.9m/s | -44.2°C | 14.0% | 285.6hPa | 2.6V | 00:00:00 | 00:00:00 | 00:00:00 | |
| OE5HKT-10 | 2026-08-31 17:46:31 | 48.26939 | 12.53744 | 60° | 146km/h | 9800m | -7.9m/s | -44.1°C | 16.3% | 285.6hPa | 2.6V | 00:00:00 | 00:00:00 | 00:00:00 | |
| OE5DXL-15 | 2026-08-31 17:46:30 | 48.26920 | 12.53697 | 60° | 146km/h | 9808m | -7.0m/s | -44.2°C | 16.3% | 285.3hPa | 2.6V | 01:48:00 | 00:00:00 | 00:00:00 | |
| DO3MHA-11 | 2026-08-31 17:46:27 | 48.26863 | 12.53557 | 58° | 148km/h | 9828m | -6.5m/s | -44.4°C | 16.2% | 284.4hPa | 2.6V | 01:48:00 | 01:40:10 | 00:00:00 | |
| DO7DH-14 | 2026-08-31 17:46:26 | 48.26843 | 12.53510 | 58° | 146km/h | 9836m | -9.0m/s | -44.4°C | 16.2% | 284.2hPa | 2.6V | 00:00:00 | 01:40:09 | 00:00:00 | |
| OE5DRO-10 | 2026-08-31 17:46:25 | 48.26823 | 12.53464 | 58° | 146km/h | 9845m | -9.1m/s | -44.5°C | 16.1% | 283.7hPa | 2.6V | 01:48:00 | 00:00:00 | 00:00:00 | |
| OE3JTB-15 | 2026-08-31 17:46:24 | 48.26803 | 12.53417 | 58° | 146km/h | 9854m | -8.7m/s | -44.6°C | 16.2% | 283.3hPa | 2.6V | 00:00:00 | 01:40:07 | 00:00:00 | |
| OE5MMP-10 | 2026-08-31 17:46:23 | 48.26783 | 12.53370 | 57° | 146km/h | 9862m | -8.5m/s | -44.6°C | 16.3% | 283.0hPa | 2.6V | 01:48:00 | 01:40:06 | 00:00:00 | |
| NBG1-10 | 2026-08-31 17:46:22 | 48.26762 | 12.53323 | 57° | 144km/h | 9870m | -7.6m/s | -44.7°C | 16.5% | 282.6hPa | 2.6V | 01:48:00 | 01:40:05 | 00:00:00 | |
| DB0UT-7 | 2026-08-31 17:46:19 | 48.26702 | 12.53180 | 59° | 144km/h | 9891m | -7.4m/s | -44.9°C | 16.5% | 281.7hPa | 2.6V | 01:48:00 | 01:40:02 | 00:00:00 | |
| DO3MHA-11 | 2026-08-31 17:46:17 | 48.26664 | 12.53084 | 60° | 144km/h | 9906m | -7.6m/s | -45.0°C | 16.4% | 281.0hPa | 2.5V | 00:00:00 | 01:40:00 | 00:00:00 | |
| DG1MFX-10 | 2026-08-31 17:46:16 | 48.26664 | 12.53084 | 61° | 146km/h | 9906m | -7.6m/s | -45.0°C | 14.1% | 281.1hPa | 2.6V | 00:00:00 | 00:00:00 | 00:00:00 | |
| OE5MMP-10 | 2026-08-31 17:46:13 | 48.26593 | 12.52894 | 61° | 146km/h | 9933m | -7.3m/s | -45.2°C | 16.7% | 279.9hPa | 2.6V | 00:00:00 | 01:39:56 | 00:00:00 | |
| OE5HKT-10 | 2026-08-31 17:46:10 | 48.26539 | 12.52752 | 60° | 144km/h | 9953m | -6.5m/s | -45.4°C | 17.0% | 279.1hPa | 2.6V | 01:48:00 | 01:39:53 | 00:00:00 | |
| DO3MHA-12 | 2026-08-31 17:46:07 | 48.26482 | 12.52610 | 59° | 144km/h | 9972m | -5.5m/s | -45.5°C | 17.2% | 278.3hPa | 2.6V | 00:00:00 | 01:39:50 | 00:00:00 | |
| PG1ADW-2 | 2026-08-31 17:46:06 | 48.26463 | 12.52563 | 59° | 146km/h | 9978m | -5.7m/s | -45.6°C | 17.4% | 278.1hPa | 2.6V | 00:00:00 | 00:00:00 | 00:00:00 | |
| DG1MJG | 2026-08-31 17:46:04 | 48.26424 | 12.52469 | 60° | 146km/h | 9991m | -6.1m/s | -45.8°C | 14.9% | 277.6hPa | 2.5V | 00:00:00 | 00:00:00 | 00:00:00 | |
| DF3TZ-5 | 2026-08-31 17:46:01 | 48.26350 | 12.52282 | 59° | 141km/h | 10016m | -6.8m/s | -46.0°C | 15.3% | 276.6hPa | 2.5V | 00:00:00 | 00:00:00 | 00:00:00 | |
| DL6DJ-15 | 2026-08-31 17:45:59 | 48.26332 | 12.52236 | 59° | 142km/h | 10022m | -6.4m/s | -46.0°C | 15.3% | 276.2hPa | 2.5V | 00:00:00 | 00:00:00 | 00:00:00 | |
| DO3MHA-11 | 2026-08-31 17:45:57 | 48.26295 | 12.52142 | 60° | 146km/h | 10037m | -7.2m/s | -46.1°C | 17.9% | 275.7hPa | 2.5V | 00:00:00 | 01:39:40 | 00:00:00 | |
| DO7DH-14 | 2026-08-31 17:45:56 | 48.26276 | 12.52095 | 60° | 142km/h | 10044m | -7.7m/s | -46.1°C | 18.0% | 275.4hPa | 2.5V | 01:48:00 | 01:39:39 | 00:00:00 | |
| OE3JTB-15 | 2026-08-31 17:45:55 | 48.26257 | 12.52048 | 60° | 144km/h | 10051m | -6.5m/s | -46.2°C | 18.1% | 275.1hPa | 2.5V | 01:48:00 | 00:00:00 | 00:00:00 | |
| OE5MMP-10 | 2026-08-31 17:45:53 | 48.26219 | 12.51952 | 60° | 146km/h | 10064m | -6.1m/s | -46.3°C | 18.5% | 274.5hPa | 2.6V | 00:00:00 | 01:39:36 | 00:00:00 | |
| OE5WHR-10 | 2026-08-31 17:45:52 | 48.26201 | 12.51904 | 60° | 144km/h | 10071m | -6.9m/s | -46.4°C | 18.6% | 274.2hPa | 2.6V | 00:00:00 | 00:00:00 | 00:00:00 | |
| DB0UT-7 | 2026-08-31 17:45:49 | 48.26144 | 12.51760 | 60° | 144km/h | 10091m | -6.6m/s | -46.5°C | 18.8% | 273.5hPa | 2.5V | 00:00:00 | 00:00:00 | 00:00:00 | |
| DO3MHA-11 | 2026-08-31 17:45:47 | 48.26106 | 12.51664 | 60° | 144km/h | 10105m | -6.2m/s | -46.6°C | 18.7% | 272.9hPa | 2.5V | 01:48:00 | 01:39:30 | 00:00:00 | |
| PG1ADW-2 | 2026-08-31 17:45:46 | 48.26087 | 12.51616 | 60° | 142km/h | 10111m | -6.2m/s | -46.6°C | 18.5% | 272.6hPa | 2.5V | 01:48:00 | 00:00:00 | 00:00:00 | |
| DB0NH | 2026-08-31 17:45:45 | 48.26068 | 12.51569 | 60° | 142km/h | 10118m | -6.9m/s | -46.6°C | 18.4% | 272.3hPa | 2.5V | 00:00:00 | 01:39:28 | 00:00:00 | |
| OE5MMP-10 | 2026-08-31 17:45:43 | 48.26030 | 12.51474 | 60° | 142km/h | 10134m | -7.1m/s | -46.8°C | 18.4% | 271.7hPa | 2.5V | 01:48:00 | 01:39:26 | 00:00:00 | |
| DO3MHA-11 | 2026-08-31 17:45:37 | 48.25919 | 12.51194 | 59° | 141km/h | 10179m | -6.8m/s | -47.2°C | 19.5% | 269.8hPa | 2.5V | 00:00:00 | 01:39:20 | 00:00:00 | |
| DK5PH-5 | 2026-08-31 17:45:35 | 48.25882 | 12.51103 | 60° | 142km/h | 10192m | -6.7m/s | -47.3°C | 19.9% | 269.3hPa | 2.5V | 01:48:00 | 01:39:18 | 00:00:00 | |
| OE5MMP-10 | 2026-08-31 17:45:33 | 48.25846 | 12.51011 | 59° | 141km/h | 10205m | -6.9m/s | -47.4°C | 20.4% | 268.7hPa | 2.5V | 00:00:00 | 01:39:16 | 00:00:00 | |
| OE5REO-15 | 2026-08-31 17:45:32 | 48.25846 | 12.51011 | 60° | 141km/h | 10205m | -6.9m/s | -47.4°C | 17.5% | 268.8hPa | 2.5V | 00:00:00 | 00:00:00 | 00:00:00 | |
| OE5WHR-10 | 2026-08-31 17:45:31 | 48.25809 | 12.50920 | 60° | 142km/h | 10220m | -7.3m/s | -47.5°C | 20.7% | 268.2hPa | 2.5V | 01:49:00 | 00:00:00 | 00:00:00 | |
| DF3TZ-5 | 2026-08-31 17:45:30 | 48.25773 | 12.50828 | 59° | 141km/h | 10233m | -7.1m/s | -47.6°C | 17.8% | 267.7hPa | 2.5V | 00:00:00 | 00:00:00 | 00:00:00 | |
| OE5DRO-10 | 2026-08-31 17:45:28 | 48.25755 | 12.50782 | 61° | 142km/h | 10240m | -7.7m/s | -47.6°C | 20.7% | 267.3hPa | 2.5V | 00:00:00 | 00:00:00 | 00:00:00 | |
| DO3MHA-12 | 2026-08-31 17:45:27 | 48.25738 | 12.50735 | 61° | 142km/h | 10248m | -8.0m/s | -47.7°C | 20.8% | 267.1hPa | 2.5V | 00:00:00 | 01:39:10 | 00:00:00 | |
| PG1ADW-2 | 2026-08-31 17:45:26 | 48.25720 | 12.50688 | 62° | 142km/h | 10257m | -8.4m/s | -47.8°C | 20.9% | 266.8hPa | 2.6V | 00:00:00 | 00:00:00 | 00:00:00 | |
| OE5HKT-10 | 2026-08-31 17:45:25 | 48.25703 | 12.50641 | 62° | 142km/h | 10264m | -6.4m/s | -47.8°C | 21.0% | 266.4hPa | 2.6V | 01:49:00 | 00:00:00 | 00:00:00 | |
| DO7DH-14 | 2026-08-31 17:45:23 | 48.25668 | 12.50546 | 62° | 142km/h | 10278m | -7.2m/s | -47.9°C | 20.9% | 265.7hPa | 2.6V | 00:00:00 | 01:39:06 | 00:00:00 | |
| DB0UT-7 | 2026-08-31 17:45:19 | 48.25599 | 12.50354 | 63° | 142km/h | 10312m | -7.9m/s | -48.1°C | 21.2% | 264.4hPa | 2.6V | 01:49:00 | 01:39:02 | 00:00:00 | |
| DO3MHA-11 | 2026-08-31 17:45:17 | 48.25565 | 12.50258 | 63° | 142km/h | 10327m | -8.8m/s | -48.2°C | 21.3% | 263.8hPa | 2.6V | 00:00:00 | 01:39:00 | 00:00:00 | |
| NBG1-10 | 2026-08-31 17:45:16 | 48.25549 | 12.50210 | 63° | 142km/h | 10335m | -7.4m/s | -48.3°C | 21.5% | 263.5hPa | 2.6V | 01:49:00 | 01:38:59 | 00:00:00 | |
| DG1MFX-10 | 2026-08-31 17:45:14 | 48.25532 | 12.50161 | 64° | 144km/h | 10343m | -8.1m/s | -48.4°C | 18.4% | 263.2hPa | 2.5V | 01:49:00 | 00:00:00 | 00:00:00 | |
| OE5MMP-10 | 2026-08-31 17:45:13 | 48.25500 | 12.50064 | 65° | 142km/h | 10360m | -8.4m/s | -48.5°C | 21.8% | 262.5hPa | 2.5V | 00:00:00 | 01:38:56 | 00:00:00 | |
| OE5REO-15 | 2026-08-31 17:45:12 | 48.25500 | 12.50064 | 65° | 144km/h | 10360m | -8.5m/s | -48.5°C | 18.7% | 262.5hPa | 2.5V | 00:00:00 | 00:00:00 | 00:00:00 | |
| DB0NH | 2026-08-31 17:45:10 | 48.25453 | 12.49918 | 65° | 144km/h | 10381m | -6.9m/s | -48.6°C | 21.9% | 261.6hPa | 2.5V | 01:49:00 | 01:38:53 | 00:00:00 | |
| OE5DRO-10 | 2026-08-31 17:45:09 | 48.25438 | 12.49869 | 65° | 142km/h | 10388m | -7.5m/s | -48.7°C | 21.9% | 261.4hPa | 2.5V | 01:49:00 | 00:00:00 | 00:00:00 | |
| DO3MHA-12 | 2026-08-31 17:45:07 | 48.25407 | 12.49772 | 65° | 141km/h | 10403m | -7.5m/s | -48.8°C | 21.9% | 260.9hPa | 2.5V | 00:00:00 | 01:38:50 | 00:00:00 | |
| PG1ADW-2 | 2026-08-31 17:45:06 | 48.25392 | 12.49723 | 66° | 142km/h | 10411m | -6.8m/s | -48.8°C | 22.0% | 260.5hPa | 2.5V | 01:49:00 | 01:38:49 | 00:00:00 | |
| OE5HKT-10 | 2026-08-31 17:45:04 | 48.25362 | 12.49625 | 65° | 144km/h | 10426m | -7.4m/s | -49.0°C | 22.1% | 259.9hPa | 2.5V | 00:00:00 | 01:38:47 | 00:00:00 | |
| DF3TZ-5 | 2026-08-31 17:44:58 | 48.25266 | 12.49340 | 62° | 139km/h | 10469m | -7.0m/s | -49.4°C | 19.3% | 258.3hPa | 2.5V | 00:00:00 | 00:00:00 | 00:00:00 | |
| DO3MHA-11 | 2026-08-31 17:44:57 | 48.25249 | 12.49293 | 63° | 142km/h | 10476m | -6.7m/s | -49.4°C | 22.6% | 257.9hPa | 2.5V | 00:00:00 | 01:38:40 | 00:00:00 | |
| DO7DH-14 | 2026-08-31 17:44:53 | 48.25184 | 12.49101 | 64° | 148km/h | 10503m | -6.3m/s | 0°C | 0% | 0hPa | 2.5V | 01:49:00 | 01:38:36 | 00:00:00 | |
| DG1MFX-10 | 2026-08-31 17:44:52 | 48.25184 | 12.49101 | 65° | 142km/h | 10503m | -6.4m/s | -49.6°C | 19.8% | 256.9hPa | 2.5V | 01:49:00 | 00:00:00 | 00:00:00 | |
| OE5DRO-10 | 2026-08-31 17:44:50 | 48.25136 | 12.48954 | 65° | 146km/h | 10523m | -6.5m/s | -49.7°C | 23.4% | 256.1hPa | 2.5V | 00:00:00 | 00:00:00 | 00:00:00 | |
| OE5WHR-10 | 2026-08-31 17:44:49 | 48.25120 | 12.48905 | 65° | 146km/h | 10530m | -7.6m/s | -49.7°C | 23.7% | 255.8hPa | 2.6V | 01:49:00 | 00:00:00 | 00:00:00 | |
| DO3MHA-12 | 2026-08-31 17:44:47 | 48.25089 | 12.48806 | 66° | 148km/h | 10543m | -6.0m/s | -49.8°C | 23.9% | 255.2hPa | 2.5V | 00:00:00 | 01:38:30 | 00:00:00 | |
| DB0UT-7 | 2026-08-31 17:44:46 | 48.25074 | 12.48756 | 66° | 148km/h | 10550m | -6.7m/s | -49.9°C | 23.8% | 255.0hPa | 2.5V | 00:00:00 | 00:00:00 | 00:00:00 | |
| DF7PN | 2026-08-31 17:44:45 | 48.25043 | 12.48656 | 65° | 146km/h | 10563m | -8.6m/s | 0°C | -1.0% | -1.0hPa | 2.5V | 00:00:00 | 00:00:00 | 00:00:00 | |
| NBG1-10 | 2026-08-31 17:44:43 | 48.25027 | 12.48606 | 65° | 148km/h | 10572m | -9.1m/s | -50.0°C | 23.3% | 254.2hPa | 2.5V | 00:00:00 | 01:38:26 | 00:00:00 | |
| DO3MHA-11 | 2026-08-31 17:44:37 | 48.24928 | 12.48302 | 64° | 146km/h | 10622m | -8.4m/s | -50.1°C | 23.0% | 252.3hPa | 2.5V | 00:00:00 | 01:38:20 | 00:00:00 | |
| OE5HKT-10 | 2026-08-31 17:44:36 | 48.24912 | 12.48252 | 65° | 148km/h | 10630m | -7.8m/s | -50.1°C | 22.8% | 252.0hPa | 2.5V | 01:49:00 | 00:00:00 | 00:00:00 | |
| DK5PH-5 | 2026-08-31 17:44:34 | 48.24880 | 12.48152 | 65° | 148km/h | 10649m | -9.6m/s | -50.2°C | 22.9% | 251.3hPa | 2.6V | 01:49:00 | 01:38:17 | 00:00:00 | |
| OE5MMP-10 | 2026-08-31 17:44:33 | 48.24864 | 12.48103 | 65° | 148km/h | 10658m | -8.9m/s | -50.3°C | 23.1% | 250.9hPa | 2.6V | 00:00:00 | 01:38:16 | 00:00:00 | |
| DG1MFX-10 | 2026-08-31 17:44:32 | 48.24864 | 12.48103 | 66° | 144km/h | 10658m | -9.0m/s | -50.3°C | 19.8% | 251.0hPa | 2.5V | 01:50:00 | 00:00:00 | 00:00:00 | |
| OE5DRO-10 | 2026-08-31 17:44:31 | 48.24833 | 12.48004 | 65° | 150km/h | 10674m | -6.7m/s | -50.4°C | 23.3% | 250.2hPa | 2.5V | 01:50:00 | 00:00:00 | 00:00:00 | |
| OE5DXL-15 | 2026-08-31 17:44:30 | 48.24818 | 12.47954 | 66° | 148km/h | 10681m | -7.3m/s | -50.5°C | 23.5% | 250.0hPa | 2.5V | 01:50:00 | 00:00:00 | 00:00:00 | |
| OE5WHR-10 | 2026-08-31 17:44:28 | 48.24786 | 12.47852 | 66° | 150km/h | 10696m | -6.9m/s | -50.6°C | 23.5% | 249.5hPa | 2.5V | 00:00:00 | 00:00:00 | 00:00:00 | |
| DO3MHA-11 | 2026-08-31 17:44:27 | 48.24771 | 12.47800 | 66° | 150km/h | 10703m | -6.9m/s | -50.7°C | 23.4% | 249.1hPa | 2.5V | 01:50:00 | 01:38:10 | 00:00:00 | |
| DL6DJ-15 | 2026-08-31 17:44:26 | 48.24740 | 12.47696 | 65° | 150km/h | 10717m | -7.2m/s | -50.7°C | 19.9% | 248.7hPa | 2.5V | 00:00:00 | 00:00:00 | 00:00:00 | |
| OE5MMP-10 | 2026-08-31 17:44:23 | 48.24709 | 12.47593 | 67° | 150km/h | 10731m | -6.9m/s | -50.8°C | 23.3% | 248.0hPa | 2.5V | 01:50:00 | 01:38:06 | 00:00:00 | |
| DH7VM-15 | 2026-08-31 17:44:22 | 48.24709 | 12.47593 | 67° | 148km/h | 10731m | -6.9m/s | -50.8°C | 19.8% | 248.1hPa | 2.5V | 00:00:00 | 00:00:00 | 00:00:00 | |
| DO3MHA-11 | 2026-08-31 17:44:17 | 48.24622 | 12.47280 | 68° | 148km/h | 10773m | -6.5m/s | -50.8°C | 23.1% | 246.5hPa | 2.5V | 00:00:00 | 01:38:00 | 00:00:00 | |
| DB0UT-7 | 2026-08-31 17:44:16 | 48.24608 | 12.47227 | 68° | 146km/h | 10780m | -8.4m/s | -50.8°C | 23.1% | 246.3hPa | 2.6V | 01:50:00 | 01:37:59 | 00:00:00 | |
| OE5MMP-10 | 2026-08-31 17:44:13 | 48.24564 | 12.47069 | 68° | 146km/h | 10801m | -6.9m/s | -51.0°C | 22.8% | 245.5hPa | 2.6V | 00:00:00 | 01:37:56 | 00:00:00 | |
| OE5DRO-10 | 2026-08-31 17:44:12 | 48.24550 | 12.47018 | 68° | 146km/h | 10808m | -6.9m/s | -51.0°C | 22.8% | 245.1hPa | 2.6V | 00:00:00 | 00:00:00 | 00:00:00 | |
| DG1MFX-10 | 2026-08-31 17:44:11 | 48.24550 | 12.47018 | 68° | 148km/h | 10808m | -7.0m/s | -51.1°C | 19.3% | 245.2hPa | 2.6V | 01:50:00 | 00:00:00 | 00:00:00 | |
| NBG1-10 | 2026-08-31 17:44:10 | 48.24521 | 12.46915 | 67° | 142km/h | 10823m | -7.9m/s | -51.0°C | 22.4% | 244.6hPa | 2.6V | 01:50:00 | 01:37:53 | 00:00:00 | |
| DO3MHA-11 | 2026-08-31 17:44:07 | 48.24478 | 12.46762 | 68° | 144km/h | 10847m | -7.0m/s | -51.2°C | 22.8% | 243.7hPa | 2.6V | 01:50:00 | 01:37:50 | 00:00:00 | |
| PG1ADW-2 | 2026-08-31 17:44:06 | 48.24464 | 12.46712 | 69° | 144km/h | 10855m | -7.6m/s | -51.2°C | 22.6% | 243.4hPa | 2.6V | 00:00:00 | 00:00:00 | 00:00:00 | |
| DK5PH-5 | 2026-08-31 17:44:04 | 48.24437 | 12.46610 | 69° | 142km/h | 10870m | -7.4m/s | -51.2°C | 22.4% | 242.9hPa | 2.5V | 00:00:00 | 01:37:47 | 00:00:00 | |
| OE5MMP-10 | 2026-08-31 17:44:03 | 48.24424 | 12.46559 | 70° | 146km/h | 10879m | -8.9m/s | -51.2°C | 22.3% | 242.5hPa | 2.5V | 01:50:00 | 01:37:46 | 00:00:00 | |
| DF3TZ-5 | 2026-08-31 17:43:56 | 48.24338 | 12.46194 | 71° | 144km/h | 10931m | -7.6m/s | -51.5°C | 18.1% | 240.6hPa | 2.5V | 00:00:00 | 00:00:00 | 00:00:00 | |
| DL6DJ-15 | 2026-08-31 17:43:55 | 48.24314 | 12.46090 | 70° | 144km/h | 10946m | -7.4m/s | -51.6°C | 17.8% | 240.1hPa | 2.5V | 00:00:00 | 00:00:00 | 00:00:00 | |
| OE5MMP-10 | 2026-08-31 17:43:53 | 48.24301 | 12.46038 | 71° | 142km/h | 10955m | -8.4m/s | -51.6°C | 21.2% | 239.7hPa | 2.5V | 00:00:00 | 01:37:36 | 00:00:00 | |
| DG1MFX-10 | 2026-08-31 17:43:50 | 48.24277 | 12.45936 | 71° | 142km/h | 10970m | -7.5m/s | -51.7°C | 17.7% | 239.1hPa | 2.5V | 01:51:00 | 00:00:00 | 00:00:00 | |
| DO3MHA-11 | 2026-08-31 17:43:47 | 48.24229 | 12.45735 | 71° | 141km/h | 11001m | -7.0m/s | -51.8°C | 21.1% | 238.0hPa | 2.5V | 01:50:00 | 01:37:30 | 00:00:00 | |
| DB0UT-7 | 2026-08-31 17:43:46 | 48.24218 | 12.45684 | 71° | 141km/h | 11008m | -6.6m/s | -51.8°C | 21.0% | 237.7hPa | 2.5V | 00:00:00 | 00:00:00 | 00:00:00 | |
| OE5MMP-10 | 2026-08-31 17:43:43 | 48.24182 | 12.45534 | 71° | 139km/h | 11027m | -6.8m/s | -51.7°C | 20.5% | 237.0hPa | 2.5V | 01:50:00 | 01:37:26 | 00:00:00 | |
| OE5HKT-10 | 2026-08-31 17:43:41 | 48.24159 | 12.45433 | 71° | 141km/h | 11041m | -7.7m/s | -51.8°C | 20.1% | 236.5hPa | 2.5V | 00:00:00 | 00:00:00 | 00:00:00 | |
| DO3MHA-11 | 2026-08-31 17:43:37 | 48.24114 | 12.45234 | 72° | 139km/h | 11076m | -7.4m/s | -51.7°C | 19.6% | 235.2hPa | 2.5V | 00:00:00 | 01:37:20 | 00:00:00 | |
| OE5DRO-10 | 2026-08-31 17:43:34 | 48.24081 | 12.45085 | 72° | 141km/h | 11101m | -8.2m/s | -51.9°C | 19.5% | 234.3hPa | 2.5V | 00:00:00 | 00:00:00 | 00:00:00 | |
| OE5MMP-10 | 2026-08-31 17:43:33 | 48.24070 | 12.45036 | 72° | 139km/h | 11109m | -7.6m/s | -52.0°C | 19.4% | 234.0hPa | 2.5V | 00:00:00 | 01:37:16 | 00:00:00 | |
| OE3JTB-15 | 2026-08-31 17:43:30 | 48.24036 | 12.44886 | 72° | 144km/h | 11133m | -8.5m/s | -52.1°C | 19.0% | 233.1hPa | 2.5V | 00:00:00 | 01:37:13 | 00:00:00 | |
| DO3MHA-12 | 2026-08-31 17:43:27 | 48.24003 | 12.44738 | 72° | 142km/h | 11159m | -8.4m/s | -52.0°C | 18.3% | 232.2hPa | 2.5V | 00:00:00 | 01:37:10 | 00:00:00 | |
| DL6DJ-15 | 2026-08-31 17:43:24 | 48.23960 | 12.44537 | 72° | 141km/h | 11194m | -10.2m/s | -52.1°C | 14.1% | 231.1hPa | 2.6V | 00:00:00 | 00:00:00 | 00:00:00 | |
| OE5MMP-10 | 2026-08-31 17:43:23 | 48.23960 | 12.44537 | 73° | 144km/h | 11194m | -10.1m/s | -52.1°C | 17.5% | 231.0hPa | 2.6V | 01:51:00 | 01:37:06 | 00:00:00 | |
| OE5HKT-10 | 2026-08-31 17:43:20 | 48.23927 | 12.44383 | 73° | 137km/h | 11222m | -8.8m/s | -51.9°C | 17.0% | 229.9hPa | 2.6V | 01:51:00 | 01:37:03 | 00:00:00 | |
| DO3MHA-11 | 2026-08-31 17:43:17 | 48.23893 | 12.44225 | 73° | 146km/h | 11251m | -10.6m/s | -51.9°C | 16.3% | 229.0hPa | 2.6V | 00:00:00 | 01:37:00 | 00:00:00 | |
| DB0UT-7 | 2026-08-31 17:43:16 | 48.23882 | 12.44173 | 72° | 142km/h | 11262m | -10.3m/s | -52.0°C | 16.3% | 228.6hPa | 2.6V | 01:51:00 | 01:36:59 | 00:00:00 | |
| OE5DRO-10 | 2026-08-31 17:43:15 | 48.23871 | 12.44120 | 72° | 144km/h | 11272m | -9.9m/s | -52.0°C | 16.3% | 228.3hPa | 2.6V | 01:51:00 | 00:00:00 | 00:00:00 | |
| OE5MMP-10 | 2026-08-31 17:43:13 | 48.23847 | 12.44016 | 71° | 146km/h | 11290m | -8.6m/s | -52.1°C | 16.2% | 227.6hPa | 2.6V | 00:00:00 | 01:36:56 | 00:00:00 | |
| DG1MFX-10 | 2026-08-31 17:43:09 | 48.23810 | 12.43860 | 71° | 146km/h | 11313m | -7.1m/s | -52.3°C | 12.4% | 226.8hPa | 2.6V | 00:00:00 | 00:00:00 | 00:00:00 | |
| DO3MHA-11 | 2026-08-31 17:43:07 | 48.23773 | 12.43703 | 71° | 144km/h | 11339m | -10.1m/s | -52.3°C | 15.1% | 225.9hPa | 2.6V | 01:51:00 | 01:36:50 | 00:00:00 | |
| NBG1-10 | 2026-08-31 17:43:04 | 48.23737 | 12.43546 | 72° | 137km/h | 11365m | -9.9m/s | -51.3°C | 12.7% | 225.0hPa | 2.6V | 01:51:00 | 01:36:47 | 00:00:00 | |
| OE5MMP-10 | 2026-08-31 17:43:03 | 48.23726 | 12.43493 | 72° | 141km/h | 11375m | -10.1m/s | -51.3°C | 12.5% | 224.6hPa | 2.6V | 01:51:00 | 01:36:46 | 00:00:00 | |
| DF3TZ-5 | 2026-08-31 17:42:54 | 48.23620 | 12.43039 | 70° | 137km/h | 11453m | -7.3m/s | -51.3°C | 9.5% | 221.9hPa | 2.6V | 00:00:00 | 00:00:00 | 00:00:00 | |
| DL6DJ-15 | 2026-08-31 17:42:52 | 48.23597 | 12.42942 | 70° | 135km/h | 11468m | -8.1m/s | -51.4°C | 9.4% | 221.4hPa | 2.6V | 00:00:00 | 00:00:00 | 00:00:00 | |
| DB0ND-19 | 2026-08-31 17:42:49 | 48.23515 | 12.42605 | 68° | 133km/h | 11529m | -8.8m/s | -51.4°C | 9.0% | 219.4hPa | 2.6V | 00:00:00 | 00:00:00 | 00:00:00 | |
| DO3MHA-12 | 2026-08-31 17:42:47 | 48.23540 | 12.42699 | 70° | 135km/h | 11512m | -7.8m/s | -51.4°C | 12.1% | 219.9hPa | 2.6V | 00:00:00 | 01:36:30 | 00:00:00 | |
| DB0UT-7 | 2026-08-31 17:42:46 | 48.23527 | 12.42652 | 69° | 135km/h | 11520m | -8.8m/s | -51.4°C | 11.9% | 219.6hPa | 2.6V | 00:00:00 | 00:00:00 | 00:00:00 | |
| OE5MMP-10 | 2026-08-31 17:42:43 | 48.23489 | 12.42511 | 68° | 135km/h | 11547m | -8.4m/s | -51.4°C | 11.8% | 218.8hPa | 2.6V | 01:51:00 | 01:36:26 | 00:00:00 | |
| BAUMI2-15 | 2026-08-31 17:42:40 | 48.23449 | 12.42371 | 67° | 135km/h | 11571m | -7.4m/s | -51.6°C | 12.0% | 217.9hPa | 2.6V | 01:51:00 | 01:36:23 | 00:00:00 | |
| OE5HKT-10 | 2026-08-31 17:42:39 | 48.23436 | 12.42324 | 67° | 137km/h | 11578m | -7.0m/s | -51.6°C | 12.0% | 217.6hPa | 2.6V | 00:00:00 | 00:00:00 | 00:00:00 | |
| DO3MHA-11 | 2026-08-31 17:42:37 | 48.23408 | 12.42230 | 67° | 135km/h | 11593m | -8.0m/s | -51.7°C | 11.9% | 217.2hPa | 2.6V | 00:00:00 | 01:36:20 | 00:00:00 | |
| DO7DH-14 | 2026-08-31 17:42:36 | 48.23395 | 12.42184 | 67° | 142km/h | 11600m | -7.5m/s | 0°C | 0% | 0hPa | 2.6V | 01:51:00 | 01:36:19 | 00:00:00 | |
| BAUMI2-15 | 2026-08-31 17:42:35 | 48.23381 | 12.42137 | 66° | 135km/h | 11608m | -8.4m/s | -51.9°C | 12.0% | 216.6hPa | 2.6V | 00:00:00 | 01:36:18 | 00:00:00 | |
| DK5PH-5 | 2026-08-31 17:42:34 | 48.23367 | 12.42091 | 66° | 142km/h | 11617m | -8.6m/s | -52.0°C | 12.0% | 216.3hPa | 2.6V | 01:51:00 | 01:36:17 | 00:00:00 | |
| OE5MMP-10 | 2026-08-31 17:42:33 | 48.23352 | 12.42045 | 65° | 137km/h | 11626m | -9.0m/s | -52.1°C | 12.0% | 216.1hPa | 2.6V | 00:00:00 | 01:36:16 | 00:00:00 | |
| OE3JTB-15 | 2026-08-31 17:42:32 | 48.23337 | 12.41998 | 65° | 142km/h | 11635m | -9.4m/s | -52.1°C | 11.9% | 215.8hPa | 2.5V | 00:00:00 | 00:00:00 | 00:00:00 | |
| NBG1-10 | 2026-08-31 17:42:31 | 48.23322 | 12.41952 | 65° | 146km/h | 11645m | -9.4m/s | -52.1°C | 12.0% | 215.5hPa | 2.5V | 00:00:00 | 01:36:14 | 00:00:00 | |
| OE5DXL-15 | 2026-08-31 17:42:30 | 48.23307 | 12.41906 | 64° | 144km/h | 11653m | -7.4m/s | -52.2°C | 12.0% | 215.2hPa | 2.5V | 01:52:00 | 00:00:00 | 00:00:00 | |
| DO3MHA-11 | 2026-08-31 17:42:27 | 48.23261 | 12.41766 | 65° | 141km/h | 11676m | -9.0m/s | -52.4°C | 11.8% | 214.4hPa | 2.5V | 01:52:00 | 01:36:10 | 00:00:00 | |
| BAUMI2-15 | 2026-08-31 17:42:24 | 48.23216 | 12.41624 | 65° | 142km/h | 11699m | -6.8m/s | -52.6°C | 11.9% | 213.6hPa | 2.5V | 00:00:00 | 01:36:07 | 00:00:00 | |
| OE5MMP-10 | 2026-08-31 17:42:23 | 48.23200 | 12.41576 | 65° | 144km/h | 11705m | -6.6m/s | -52.7°C | 12.0% | 213.4hPa | 2.5V | 01:52:00 | 01:36:06 | 00:00:00 | |
| OE5WHR-10 | 2026-08-31 17:42:22 | 48.23184 | 12.41528 | 65° | 146km/h | 11712m | -6.7m/s | -52.7°C | 11.9% | 213.2hPa | 2.5V | 00:00:00 | 00:00:00 | 00:00:00 | |
| DL6DJ-15 | 2026-08-31 17:42:21 | 48.23169 | 12.41480 | 63° | 141km/h | 11719m | -7.3m/s | -52.7°C | 8.8% | 213.1hPa | 2.5V | 00:00:00 | 00:00:00 | 00:00:00 | |
| OE5DRO-10 | 2026-08-31 17:42:18 | 48.23121 | 12.41334 | 64° | 148km/h | 11741m | -7.4m/s | -52.8°C | 11.6% | 212.2hPa | 2.5V | 00:00:00 | 00:00:00 | 00:00:00 | |
| DO3MHA-12 | 2026-08-31 17:42:17 | 48.23105 | 12.41285 | 64° | 146km/h | 11748m | -7.5m/s | -52.8°C | 11.6% | 212.0hPa | 2.5V | 01:52:00 | 01:36:00 | 00:00:00 | |
| DB0UT-7 | 2026-08-31 17:42:16 | 48.23088 | 12.41236 | 64° | 151km/h | 11756m | -6.8m/s | -52.8°C | 11.5% | 211.7hPa | 2.5V | 01:52:00 | 01:35:59 | 00:00:00 | |
| OE5MMP-10 | 2026-08-31 17:42:13 | 48.23039 | 12.41088 | 63° | 148km/h | 11776m | -6.9m/s | -52.9°C | 11.3% | 211.1hPa | 2.5V | 00:00:00 | 01:35:56 | 00:00:00 | |
| DH7VM-15 | 2026-08-31 17:42:11 | 48.23022 | 12.41039 | 64° | 146km/h | 11783m | -7.1m/s | -53.0°C | 8.3% | 210.9hPa | 2.5V | 00:00:00 | 00:00:00 | 00:00:00 | |
| DO3MHA-12 | 2026-08-31 17:42:07 | 48.22939 | 12.40792 | 64° | 153km/h | 11819m | -6.9m/s | -53.2°C | 11.3% | 209.7hPa | 2.5V | 00:00:00 | 01:35:50 | 00:00:00 | |
| DO7DH-14 | 2026-08-31 17:42:06 | 48.22922 | 12.40742 | 65° | 115km/h | 11826m | -7.4m/s | 0°C | 0% | 0hPa | 2.5V | 00:00:00 | 01:35:49 | 00:00:00 | |
| BAUMI2-15 | 2026-08-31 17:42:05 | 48.22906 | 12.40690 | 65° | 155km/h | 11833m | -6.6m/s | -53.4°C | 11.2% | 209.2hPa | 2.5V | 00:00:00 | 01:35:48 | 00:00:00 | |
| DF3TZ-5 | 2026-08-31 17:41:52 | 48.22700 | 12.39998 | 68° | 151km/h | 11936m | -7.5m/s | -53.5°C | 6.3% | 206.0hPa | 2.5V | 00:00:00 | 00:00:00 | 00:00:00 | |
| DL6DJ-15 | 2026-08-31 17:41:50 | 48.22673 | 12.39891 | 70° | 151km/h | 11952m | -9.7m/s | -52.9°C | 5.6% | 205.4hPa | 2.5V | 00:00:00 | 00:00:00 | 00:00:00 | |
| DO3MHA-11 | 2026-08-31 17:41:47 | 48.22635 | 12.39729 | 71° | 151km/h | 11979m | -9.1m/s | -52.4°C | 7.7% | 204.6hPa | 2.5V | 01:52:00 | 01:35:30 | 00:00:00 | |
| PG1ADW-2 | 2026-08-31 17:41:46 | 48.22622 | 12.39676 | 71° | 144km/h | 11988m | -8.9m/s | -52.2°C | 7.5% | 204.2hPa | 2.5V | 01:52:00 | 00:00:00 | 00:00:00 | |
| OE5MMP-10 | 2026-08-31 17:41:43 | 48.22584 | 12.39517 | 70° | 157km/h | 12015m | -8.4m/s | -52.3°C | 7.3% | 203.4hPa | 2.5V | 01:52:00 | 01:35:26 | 00:00:00 | |
| DB0UT-7 | 2026-08-31 17:41:42 | 48.22570 | 12.39465 | 69° | 155km/h | 12023m | -8.3m/s | -52.1°C | 7.2% | 203.1hPa | 2.5V | 00:00:00 | 00:00:00 | 00:00:00 | |
| OE5WHR-10 | 2026-08-31 17:41:40 | 48.22542 | 12.39357 | 68° | 157km/h | 12041m | -7.9m/s | -51.9°C | 6.9% | 202.6hPa | 2.5V | 00:00:00 | 00:00:00 | 00:00:00 | |
| DF7PN | 2026-08-31 17:41:38 | 48.22511 | 12.39246 | 67° | 161km/h | 12055m | -8.0m/s | -51.7°C | 4.1% | 202.2hPa | 2.6V | 00:00:00 | 00:00:00 | 00:00:00 | |
| DO3MHA-12 | 2026-08-31 17:41:37 | 48.22495 | 12.39189 | 68° | 161km/h | 12064m | -8.0m/s | -51.7°C | 6.5% | 201.9hPa | 2.6V | 01:52:00 | 01:35:20 | 00:00:00 | |
| BAUMI2-15 | 2026-08-31 17:41:36 | 48.22480 | 12.39132 | 69° | 161km/h | 12072m | -8.3m/s | -51.6°C | 6.4% | 201.7hPa | 2.6V | 01:52:00 | 01:35:19 | 00:00:00 | |
| DK5PH-5 | 2026-08-31 17:41:34 | 48.22449 | 12.39019 | 69° | 151km/h | 12089m | -8.1m/s | -51.4°C | 6.3% | 201.1hPa | 2.6V | 01:52:00 | 01:35:17 | 00:00:00 | |
| OE5MMP-10 | 2026-08-31 17:41:33 | 48.22434 | 12.38962 | 68° | 159km/h | 12097m | -8.3m/s | -51.3°C | 6.1% | 200.8hPa | 2.6V | 00:00:00 | 01:35:16 | 00:00:00 | |
| BAUMI2-15 | 2026-08-31 17:41:31 | 48.22403 | 12.38851 | 67° | 159km/h | 12114m | -8.5m/s | -50.9°C | 6.0% | 200.3hPa | 2.5V | 00:00:00 | 01:35:14 | 00:00:00 | |
| OE5DXL-15 | 2026-08-31 17:41:30 | 48.22386 | 12.38796 | 67° | 148km/h | 12123m | -8.4m/s | -50.8°C | 6.0% | 200.1hPa | 2.5V | 01:53:00 | 00:00:00 | 00:00:00 | |
| DO3MHA-12 | 2026-08-31 17:41:27 | 48.22340 | 12.38629 | 68° | 153km/h | 12149m | -9.4m/s | -50.9°C | 6.2% | 199.3hPa | 2.6V | 00:00:00 | 01:35:10 | 00:00:00 | |
| NBG1-10 | 2026-08-31 17:41:25 | 48.22310 | 12.38518 | 69° | 142km/h | 12168m | -10.7m/s | -51.1°C | 6.2% | 198.8hPa | 2.5V | 00:00:00 | 01:35:08 | 00:00:00 | |
| OE5MMP-10 | 2026-08-31 17:41:23 | 48.22283 | 12.38409 | 71° | 150km/h | 12190m | -11.1m/s | -51.2°C | 6.3% | 198.1hPa | 2.5V | 01:53:00 | 01:35:06 | 00:00:00 | |
| OE5DRO-10 | 2026-08-31 17:41:21 | 48.22258 | 12.38301 | 71° | 146km/h | 12210m | -8.4m/s | -51.4°C | 6.3% | 197.4hPa | 2.5V | 01:53:00 | 00:00:00 | 00:00:00 | |
| BAUMI2-15 | 2026-08-31 17:41:20 | 48.22245 | 12.38248 | 71° | 141km/h | 12218m | -8.4m/s | -51.4°C | 6.4% | 197.2hPa | 2.5V | 00:00:00 | 01:35:03 | 00:00:00 | |
| OE5WHR-10 | 2026-08-31 17:41:19 | 48.22233 | 12.38194 | 72° | 142km/h | 12227m | -8.6m/s | -51.4°C | 6.4% | 196.9hPa | 2.5V | 01:53:00 | 00:00:00 | 00:00:00 | |
| DO3MHA-11 | 2026-08-31 17:41:17 | 48.22209 | 12.38087 | 72° | 148km/h | 12244m | -7.7m/s | -51.1°C | 6.2% | 196.4hPa | 2.5V | 00:00:00 | 01:35:00 | 00:00:00 | |
| OE5MMP-10 | 2026-08-31 17:41:13 | 48.22165 | 12.37873 | 75° | 144km/h | 12278m | -8.5m/s | -50.8°C | 5.9% | 195.3hPa | 2.5V | 00:00:00 | 01:34:56 | 00:00:00 | |
| DB0UT-7 | 2026-08-31 17:41:12 | 48.22155 | 12.37819 | 75° | 137km/h | 12286m | -8.1m/s | -50.8°C | 5.9% | 195.1hPa | 2.5V | 01:53:00 | 01:34:55 | 00:00:00 | |
| DO3MHA-11 | 2026-08-31 17:41:07 | 48.22109 | 12.37552 | 77° | 137km/h | 12329m | -8.1m/s | -50.7°C | 5.7% | 193.8hPa | 2.5V | 01:53:00 | 01:34:50 | 00:00:00 | |
| DH7VM-15 | 2026-08-31 17:41:06 | 48.22109 | 12.37552 | 77° | 142km/h | 12329m | -8.1m/s | -50.7°C | 3.4% | 193.8hPa | 2.5V | 00:00:00 | 00:00:00 | 00:00:00 | |
| OE3JTB-15 | 2026-08-31 17:41:05 | 48.22092 | 12.37449 | 77° | 135km/h | 12348m | -8.8m/s | -50.6°C | 5.6% | 193.3hPa | 2.5V | 01:53:00 | 00:00:00 | 00:00:00 | |
| DK5PH-5 | 2026-08-31 17:41:04 | 48.22084 | 12.37399 | 76° | 135km/h | 12357m | -8.0m/s | -50.6°C | 5.6% | 193.0hPa | 2.5V | 00:00:00 | 01:34:47 | 00:00:00 | |
| OE5MMP-10 | 2026-08-31 17:41:03 | 48.22075 | 12.37349 | 75° | 133km/h | 12364m | -6.9m/s | -50.5°C | 5.6% | 192.8hPa | 2.5V | 01:53:00 | 01:34:46 | 00:00:00 | |
| DG1MFX-10 | 2026-08-31 17:41:02 | 48.22075 | 12.37349 | 76° | 135km/h | 12364m | -7.0m/s | -50.6°C | 3.3% | 192.8hPa | 2.5V | 01:53:00 | 00:00:00 | 00:00:00 | |
| DF3TZ-5 | 2026-08-31 17:40:50 | 48.21945 | 12.36730 | 77° | 131km/h | 12469m | -8.6m/s | -50.0°C | 2.9% | 189.8hPa | 2.5V | 00:00:00 | 00:00:00 | 00:00:00 | |
| DL6DJ-15 | 2026-08-31 17:40:48 | 48.21929 | 12.36632 | 75° | 133km/h | 12486m | -8.3m/s | -49.7°C | 2.9% | 189.3hPa | 2.5V | 00:00:00 | 00:00:00 | 00:00:00 | |
| DO3MHA-12 | 2026-08-31 17:40:47 | 48.21921 | 12.36583 | 75° | 137km/h | 12495m | -8.4m/s | -49.7°C | 5.0% | 189.0hPa | 2.5V | 00:00:00 | 01:34:30 | 00:00:00 | |
| OE5MMP-10 | 2026-08-31 17:40:43 | 48.21882 | 12.36384 | 74° | 141km/h | 12529m | -8.4m/s | -49.9°C | 5.1% | 188.0hPa | 2.5V | 01:53:00 | 01:34:26 | 00:00:00 | |
| DB0UT-7 | 2026-08-31 17:40:42 | 48.21872 | 12.36334 | 75° | 142km/h | 12538m | -9.2m/s | -50.0°C | 5.1% | 187.7hPa | 2.5V | 00:00:00 | 00:00:00 | 00:00:00 | |
| DO3MHA-11 | 2026-08-31 17:40:37 | 48.21826 | 12.36080 | 76° | 144km/h | 12590m | -11.0m/s | -50.4°C | 5.0% | 186.3hPa | 2.5V | 00:00:00 | 01:34:20 | 00:00:00 | |
| OE3JTB-15 | 2026-08-31 17:40:36 | 48.21817 | 12.36028 | 75° | 142km/h | 12601m | -11.3m/s | -50.5°C | 5.0% | 186.0hPa | 2.5V | 00:00:00 | 01:34:19 | 00:00:00 | |
| DK5PH-5 | 2026-08-31 17:40:34 | 48.21797 | 12.35923 | 74° | 142km/h | 12624m | -10.7m/s | -50.6°C | 5.0% | 185.4hPa | 2.5V | 01:53:00 | 01:34:17 | 00:00:00 | |
| OE5MMP-10 | 2026-08-31 17:40:33 | 48.21787 | 12.35871 | 74° | 144km/h | 12635m | -11.2m/s | -50.7°C | 5.0% | 185.0hPa | 2.5V | 00:00:00 | 01:34:16 | 00:00:00 | |
| OE5DXL-15 | 2026-08-31 17:40:30 | 48.21754 | 12.35714 | 73° | 139km/h | 12661m | -8.2m/s | -50.9°C | 5.1% | 184.2hPa | 2.5V | 01:54:00 | 00:00:00 | 00:00:00 | |
| PG1ADW-2 | 2026-08-31 17:40:28 | 48.21731 | 12.35610 | 72° | 142km/h | 12678m | -8.1m/s | -51.0°C | 5.1% | 183.7hPa | 2.5V | 01:54:00 | 01:34:11 | 00:00:00 | |
| DO3MHA-11 | 2026-08-31 17:40:27 | 48.21720 | 12.35559 | 73° | 142km/h | 12686m | -8.3m/s | -51.0°C | 5.1% | 183.5hPa | 2.6V | 01:54:00 | 01:34:10 | 00:00:00 | |
| OE5DRO-10 | 2026-08-31 17:40:24 | 48.21687 | 12.35405 | 73° | 141km/h | 12712m | -8.2m/s | -51.0°C | 5.1% | 182.8hPa | 2.6V | 00:00:00 | 00:00:00 | 00:00:00 | |
| OE5MMP-10 | 2026-08-31 17:40:23 | 48.21676 | 12.35354 | 73° | 144km/h | 12720m | -8.1m/s | -51.0°C | 5.0% | 182.6hPa | 2.6V | 01:54:00 | 01:34:06 | 00:00:00 | |
| DG1MFX-10 | 2026-08-31 17:40:21 | 48.21665 | 12.35303 | 73° | 142km/h | 12728m | -8.3m/s | -50.8°C | 2.6% | 182.4hPa | 2.6V | 01:54:00 | 00:00:00 | 00:00:00 | |
| NBG1-10 | 2026-08-31 17:40:19 | 48.21633 | 12.35147 | 74° | 131km/h | 12758m | -10.8m/s | -50.6°C | 4.7% | 181.6hPa | 2.6V | 00:00:00 | 01:34:02 | 00:00:00 | |
| DO3MHA-11 | 2026-08-31 17:40:17 | 48.21612 | 12.35041 | 74° | 141km/h | 12778m | -9.6m/s | -50.7°C | 4.6% | 181.1hPa | 2.5V | 00:00:00 | 01:34:00 | 00:00:00 | |
| OE5WHR-10 | 2026-08-31 17:40:16 | 48.21601 | 12.34989 | 74° | 133km/h | 12788m | -10.8m/s | -50.7°C | 4.6% | 180.8hPa | 2.6V | 00:00:00 | 00:00:00 | 00:00:00 | |
| OE5MMP-10 | 2026-08-31 17:40:13 | 48.21573 | 12.34832 | 76° | 135km/h | 12820m | -10.2m/s | -50.9°C | 4.6% | 179.9hPa | 2.6V | 00:00:00 | 01:33:56 | 00:00:00 | |
| DB0UT-7 | 2026-08-31 17:40:12 | 48.21564 | 12.34781 | 76° | 126km/h | 12830m | -10.4m/s | -50.9°C | 4.6% | 179.6hPa | 2.6V | 01:54:00 | 01:33:55 | 00:00:00 | |
| DB0NH | 2026-08-31 17:40:11 | 48.21555 | 12.34729 | 76° | 122km/h | 12839m | -7.8m/s | -51.0°C | 4.6% | 179.3hPa | 2.6V | 00:00:00 | 01:33:54 | 00:00:00 | |
| PG1ADW-2 | 2026-08-31 17:40:08 | 48.21530 | 12.34578 | 76° | 126km/h | 12867m | -10.7m/s | -50.9°C | 4.4% | 178.5hPa | 2.6V | 00:00:00 | 00:00:00 | 00:00:00 | |
| DO3MHA-12 | 2026-08-31 17:40:07 | 48.21521 | 12.34529 | 76° | 130km/h | 12877m | -9.1m/s | -50.7°C | 4.3% | 178.3hPa | 2.6V | 00:00:00 | 01:33:50 | 00:00:00 | |
| OE5DRO-10 | 2026-08-31 17:40:05 | 48.21504 | 12.34432 | 75° | 124km/h | 12898m | -11.9m/s | -50.3°C | 4.1% | 177.8hPa | 2.6V | 01:54:00 | 00:00:00 | 00:00:00 | |
| DK5PH-5 | 2026-08-31 17:40:04 | 48.21495 | 12.34385 | 75° | 122km/h | 12909m | -9.5m/s | -50.3°C | 4.1% | 177.5hPa | 2.5V | 00:00:00 | 01:33:47 | 00:00:00 | |
| OE5MMP-10 | 2026-08-31 17:40:03 | 48.21486 | 12.34338 | 75° | 126km/h | 12918m | -8.5m/s | -50.2°C | 4.1% | 177.2hPa | 2.5V | 01:54:00 | 01:33:46 | 00:00:00 | |
| DG1MFX-10 | 2026-08-31 17:40:01 | 48.21478 | 12.34290 | 76° | 130km/h | 12927m | -8.1m/s | -50.3°C | 2.0% | 177.0hPa | 2.5V | 01:54:00 | 00:00:00 | 00:00:00 | |
| OE5DXL-15 | 2026-08-31 17:40:00 | 48.21461 | 12.34196 | 75° | 120km/h | 12945m | -9.9m/s | -50.3°C | 4.1% | 176.5hPa | 2.5V | 00:00:00 | 00:00:00 | 00:00:00 | |
| DO3MHA-11 | 2026-08-31 17:39:57 | 48.21436 | 12.34058 | 75° | 120km/h | 12974m | -9.6m/s | -50.4°C | 4.1% | 175.8hPa | 2.6V | 00:00:00 | 01:33:40 | 00:00:00 | |
| OE5WHR-10 | 2026-08-31 17:39:54 | 48.21412 | 12.33924 | 75° | 119km/h | 13007m | -11.7m/s | -50.5°C | 4.0% | 174.9hPa | 2.6V | 01:54:00 | 01:33:37 | 00:00:00 | |
| OE5MMP-10 | 2026-08-31 17:39:53 | 48.21404 | 12.33881 | 75° | 120km/h | 13020m | -13.7m/s | -50.5°C | 4.0% | 174.6hPa | 2.6V | 00:00:00 | 01:33:36 | 00:00:00 | |
| PG1ADW-2 | 2026-08-31 17:39:48 | 48.21362 | 12.33666 | 73° | 119km/h | 13084m | -11.8m/s | -51.0°C | 4.0% | 172.8hPa | 2.6V | 01:54:00 | 00:00:00 | 00:00:00 | |
| DO3MHA-12 | 2026-08-31 17:39:47 | 48.21353 | 12.33622 | 73° | 120km/h | 13096m | -11.8m/s | -51.0°C | 4.1% | 172.6hPa | 2.6V | 00:00:00 | 01:33:30 | 00:00:00 | |
| NBG1-10 | 2026-08-31 17:39:46 | 48.21344 | 12.33578 | 73° | 117km/h | 13108m | -10.8m/s | -51.1°C | 4.1% | 172.3hPa | 2.6V | 01:54:00 | 01:33:29 | 00:00:00 | |
| OE5MMP-10 | 2026-08-31 17:39:43 | 48.21314 | 12.33446 | 71° | 119km/h | 13137m | -9.8m/s | -51.0°C | 4.1% | 171.4hPa | 2.6V | 01:54:00 | 01:33:26 | 00:00:00 | |
| DB0UT-7 | 2026-08-31 17:39:42 | 48.21304 | 12.33403 | 70° | 117km/h | 13146m | -7.7m/s | -51.0°C | 4.1% | 171.1hPa | 2.6V | 00:00:00 | 00:00:00 | 00:00:00 | |
| DG1MFX-10 | 2026-08-31 17:39:41 | 48.21304 | 12.33403 | 71° | 120km/h | 13146m | -7.7m/s | -51.1°C | 1.9% | 171.1hPa | 2.6V | 01:55:00 | 00:00:00 | 00:00:00 | |
| DO3MHA-12 | 2026-08-31 17:39:37 | 48.21250 | 12.33197 | 68° | 119km/h | 13185m | -8.0m/s | -50.8°C | 4.1% | 170.1hPa | 2.6V | 01:54:00 | 01:33:20 | 00:00:00 | |
| DK5PH-5 | 2026-08-31 17:39:34 | 48.21217 | 12.33073 | 69° | 113km/h | 13212m | -8.8m/s | -50.7°C | 4.0% | 169.4hPa | 2.6V | 01:54:00 | 01:33:17 | 00:00:00 | |
| OE5MMP-10 | 2026-08-31 17:39:33 | 48.21206 | 12.33030 | 70° | 119km/h | 13221m | -9.9m/s | -50.6°C | 4.0% | 169.1hPa | 2.5V | 00:00:00 | 01:33:16 | 00:00:00 | |
| OE5DXL-15 | 2026-08-31 17:39:30 | 48.21178 | 12.32903 | 75° | 110km/h | 13250m | -8.5m/s | -50.4°C | 3.9% | 168.4hPa | 2.6V | 01:55:00 | 00:00:00 | 00:00:00 | |
| PG1ADW-2 | 2026-08-31 17:39:28 | 48.21162 | 12.32815 | 77° | 113km/h | 13272m | -11.7m/s | -50.2°C | 3.8% | 167.8hPa | 2.6V | 00:00:00 | 00:00:00 | 00:00:00 | |
| OE5MMP-10 | 2026-08-31 17:39:23 | 48.21128 | 12.32597 | 77° | 113km/h | 13321m | -9.1m/s | -50.0°C | 3.8% | 166.5hPa | 2.5V | 01:55:00 | 01:33:06 | 00:00:00 | |
| DG1MFX-10 | 2026-08-31 17:39:20 | 48.21113 | 12.32511 | 76° | 119km/h | 13338m | -8.5m/s | -49.7°C | 1.6% | 166.1hPa | 2.5V | 01:55:00 | 00:00:00 | 00:00:00 | |
| DO3MHA-11 | 2026-08-31 17:39:17 | 48.21080 | 12.32343 | 74° | 106km/h | 13372m | -8.4m/s | -49.4°C | 3.5% | 165.2hPa | 2.5V | 00:00:00 | 01:33:00 | 00:00:00 | |
| DL6DJ-15 | 2026-08-31 17:39:15 | 48.21064 | 12.32263 | 73° | 108km/h | 13390m | -8.9m/s | -49.3°C | 1.5% | 164.8hPa | 2.6V | 00:00:00 | 00:00:00 | 00:00:00 | |
| BAUMI2-15 | 2026-08-31 17:39:14 | 48.21057 | 12.32224 | 75° | 106km/h | 13399m | -8.4m/s | -49.2°C | 3.5% | 164.5hPa | 2.6V | 01:55:00 | 01:32:57 | 00:00:00 | |
| OE5MMP-10 | 2026-08-31 17:39:13 | 48.21050 | 12.32186 | 76° | 104km/h | 13408m | -8.7m/s | -49.2°C | 3.5% | 164.3hPa | 2.5V | 00:00:00 | 01:32:56 | 00:00:00 | |
| DB0UT-7 | 2026-08-31 17:39:12 | 48.21043 | 12.32147 | 77° | 89km/h | 13416m | -8.7m/s | -49.2°C | 3.5% | 164.1hPa | 2.5V | 01:55:00 | 01:32:55 | 00:00:00 | |
| OE3JTB-15 | 2026-08-31 17:39:09 | 48.21025 | 12.32031 | 77° | 91km/h | 13445m | -9.5m/s | -49.3°C | 3.5% | 163.5hPa | 2.5V | 01:55:00 | 01:32:52 | 00:00:00 | |
| PG1ADW-2 | 2026-08-31 17:39:08 | 48.21019 | 12.31992 | 78° | 95km/h | 13454m | -9.3m/s | -49.3°C | 3.5% | 163.3hPa | 2.5V | 01:55:00 | 01:32:51 | 00:00:00 | |
| DO3MHA-11 | 2026-08-31 17:39:07 | 48.21013 | 12.31954 | 78° | 99km/h | 13464m | -9.0m/s | -49.3°C | 3.5% | 163.0hPa | 2.5V | 01:55:00 | 01:32:50 | 00:00:00 | |
| DK5PH-5 | 2026-08-31 17:39:04 | 48.20997 | 12.31840 | 79° | 88km/h | 13490m | -8.5m/s | -49.4°C | 3.6% | 162.3hPa | 2.5V | 00:00:00 | 01:32:47 | 00:00:00 | |
| OE5MMP-10 | 2026-08-31 17:39:03 | 48.20992 | 12.31803 | 79° | 93km/h | 13498m | -8.9m/s | -49.4°C | 3.6% | 162.1hPa | 2.5V | 01:55:00 | 01:32:46 | 00:00:00 | |
| DF3TZ-5 | 2026-08-31 17:38:46 | 48.20911 | 12.31235 | 72° | 86km/h | 13680m | -8.6m/s | -50.0°C | 1.5% | 157.7hPa | 2.5V | 00:00:00 | 00:00:00 | 00:00:00 | |
| BAUMI2-15 | 2026-08-31 17:38:44 | 48.20897 | 12.31173 | 72° | 84km/h | 13698m | -8.6m/s | -50.1°C | 3.6% | 157.3hPa | 2.5V | 01:55:00 | 01:32:27 | 00:00:00 | |
| OE5MMP-10 | 2026-08-31 17:38:43 | 48.20890 | 12.31142 | 71° | 84km/h | 13707m | -8.6m/s | -50.1°C | 3.6% | 157.1hPa | 2.5V | 01:55:00 | 01:32:26 | 00:00:00 | |
| DB0UT-7 | 2026-08-31 17:38:42 | 48.20883 | 12.31112 | 71° | 88km/h | 13716m | -9.0m/s | -50.2°C | 3.7% | 156.9hPa | 2.5V | 00:00:00 | 00:00:00 | 00:00:00 | |
| DB0ND-19 | 2026-08-31 17:38:41 | 48.20870 | 12.31053 | 72° | 80km/h | 13734m | -8.2m/s | 0°C | -1.0% | 156.5hPa | 2.6V | 00:00:00 | 00:00:00 | 00:00:00 | |
| NBG1-10 | 2026-08-31 17:38:40 | 48.20870 | 12.31053 | 73° | 89km/h | 13734m | -8.1m/s | -50.3°C | 3.7% | 156.4hPa | 2.6V | 01:55:00 | 01:32:23 | 00:00:00 | |
| BAUMI2-15 | 2026-08-31 17:38:39 | 48.20864 | 12.31024 | 74° | 82km/h | 13742m | -7.6m/s | -50.3°C | 3.7% | 156.2hPa | 2.5V | 00:00:00 | 01:32:22 | 00:00:00 | |
| DO3MHA-11 | 2026-08-31 17:38:37 | 48.20853 | 12.30964 | 75° | 89km/h | 13758m | -9.4m/s | -50.4°C | 3.7% | 155.8hPa | 2.5V | 00:00:00 | 01:32:20 | 00:00:00 | |
| OM5KV | 2026-08-31 17:38:35 | 48.20847 | 12.30934 | 76° | 84km/h | 13767m | -7.9m/s | -50.5°C | 1.6% | 155.6hPa | 2.5V | 00:00:00 | 00:00:00 | 00:00:00 | |
| DK5PH-5 | 2026-08-31 17:38:34 | 48.20836 | 12.30871 | 75° | 91km/h | 13785m | -9.7m/s | -50.5°C | 3.8% | 155.2hPa | 2.5V | 01:55:00 | 01:32:17 | 00:00:00 | |
| OE5MMP-10 | 2026-08-31 17:38:33 | 48.20829 | 12.30838 | 74° | 89km/h | 13794m | -8.4m/s | -50.5°C | 3.8% | 155.0hPa | 2.5V | 00:00:00 | 01:32:16 | 00:00:00 | |
| DF7PN | 2026-08-31 17:38:32 | 48.20823 | 12.30805 | 73° | 91km/h | 13803m | -8.6m/s | -50.6°C | 1.7% | 154.8hPa | 2.6V | 00:00:00 | 00:00:00 | 00:00:00 | |
| OE5DXL-15 | 2026-08-31 17:38:30 | 48.20809 | 12.30738 | 73° | 93km/h | 13822m | -9.5m/s | -50.6°C | 3.8% | 154.3hPa | 2.6V | 01:56:00 | 00:00:00 | 00:00:00 | |
| DO3MHA-11 | 2026-08-31 17:38:27 | 48.20788 | 12.30639 | 72° | 88km/h | 13853m | -11.2m/s | -50.7°C | 3.8% | 153.6hPa | 2.6V | 01:56:00 | 01:32:10 | 00:00:00 | |
| BAUMI2-15 | 2026-08-31 17:38:24 | 48.20766 | 12.30545 | 70° | 86km/h | 13884m | -10.4m/s | -50.8°C | 3.8% | 152.9hPa | 2.6V | 01:56:00 | 01:32:07 | 00:00:00 | |
| OE5MMP-10 | 2026-08-31 17:38:23 | 48.20758 | 12.30515 | 69° | 89km/h | 13895m | -11.9m/s | -50.9°C | 3.8% | 152.6hPa | 2.6V | 01:56:00 | 01:32:06 | 00:00:00 | |
| BAUMI2-15 | 2026-08-31 17:38:19 | 48.20725 | 12.30396 | 66° | 93km/h | 13937m | -8.2m/s | -51.1°C | 3.9% | 151.6hPa | 2.6V | 00:00:00 | 01:32:02 | 00:00:00 | |
| DG1MFX-10 | 2026-08-31 17:38:18 | 48.20724 | 12.30396 | 67° | 89km/h | 13937m | -8.2m/s | -51.2°C | 1.7% | 151.6hPa | 2.6V | 01:56:00 | 00:00:00 | 00:00:00 | |
| DO3MHA-11 | 2026-08-31 17:38:17 | 48.20705 | 12.30333 | 66° | 95km/h | 13953m | -9.1m/s | -51.2°C | 3.9% | 151.1hPa | 2.6V | 00:00:00 | 01:32:00 | 00:00:00 | |
| BAUMI2-15 | 2026-08-31 17:38:14 | 48.20675 | 12.30234 | 66° | 97km/h | 13980m | -9.7m/s | -51.3°C | 3.9% | 150.6hPa | 2.5V | 01:56:00 | 01:31:57 | 00:00:00 | |
| OE5MMP-10 | 2026-08-31 17:38:13 | 48.20665 | 12.30201 | 66° | 95km/h | 13989m | -9.8m/s | -51.2°C | 3.9% | 150.3hPa | 2.5V | 00:00:00 | 01:31:56 | 00:00:00 | |
| DB0UT-7 | 2026-08-31 17:38:12 | 48.20655 | 12.30168 | 67° | 95km/h | 13999m | -9.6m/s | -51.2°C | 3.9% | 150.1hPa | 2.5V | 01:56:00 | 01:31:55 | 00:00:00 | |
| OE3JTB-15 | 2026-08-31 17:38:11 | 48.20645 | 12.30134 | 67° | 93km/h | 14008m | -8.3m/s | -51.3°C | 3.9% | 149.9hPa | 2.5V | 01:56:00 | 00:00:00 | 00:00:00 | |
| OE5WHR-10 | 2026-08-31 17:38:09 | 48.20627 | 12.30068 | 70° | 97km/h | 14026m | -9.2m/s | -51.4°C | 3.9% | 149.6hPa | 2.5V | 00:00:00 | 00:00:00 | 00:00:00 | |
| PG1ADW-2 | 2026-08-31 17:38:08 | 48.20619 | 12.30035 | 71° | 93km/h | 14035m | -9.5m/s | -51.4°C | 4.0% | 149.3hPa | 2.5V | 00:00:00 | 00:00:00 | 00:00:00 | |
| DO3MHA-12 | 2026-08-31 17:38:07 | 48.20612 | 12.30001 | 72° | 99km/h | 14044m | -8.5m/s | -51.5°C | 4.0% | 149.1hPa | 2.5V | 00:00:00 | 01:31:50 | 00:00:00 | |
| OM5KV | 2026-08-31 17:38:05 | 48.20604 | 12.29968 | 73° | 93km/h | 14052m | -9.1m/s | -51.6°C | 1.8% | 148.9hPa | 2.5V | 00:00:00 | 00:00:00 | 00:00:00 | |
| BAUMI2-15 | 2026-08-31 17:38:04 | 48.20589 | 12.29899 | 72° | 99km/h | 14071m | -9.8m/s | -51.7°C | 4.1% | 148.5hPa | 2.5V | 01:56:00 | 01:31:47 | 00:00:00 | |
| DF7PN | 2026-08-31 17:38:01 | 48.20566 | 12.29793 | 72° | 100km/h | 14096m | -9.1m/s | -51.9°C | 1.8% | 147.9hPa | 2.5V | 00:00:00 | 00:00:00 | 00:00:00 | |
| OE5DXL-15 | 2026-08-31 17:38:00 | 48.20558 | 12.29756 | 73° | 89km/h | 14106m | -9.8m/s | -51.9°C | 4.1% | 147.7hPa | 2.5V | 00:00:00 | 00:00:00 | 00:00:00 | |
| BAUMI2-15 | 2026-08-31 17:37:59 | 48.20550 | 12.29719 | 73° | 99km/h | 14116m | -10.7m/s | -52.0°C | 4.2% | 147.5hPa | 2.5V | 00:00:00 | 01:31:42 | 00:00:00 | |
| OM5KV | 2026-08-31 17:37:58 | 48.20542 | 12.29682 | 72° | 100km/h | 14127m | -11.0m/s | -52.2°C | 1.8% | 147.3hPa | 2.6V | 00:00:00 | 00:00:00 | 00:00:00 | |
| DO3MHA-11 | 2026-08-31 17:37:57 | 48.20534 | 12.29647 | 72° | 93km/h | 14139m | -14.6m/s | -52.2°C | 4.1% | 147.0hPa | 2.6V | 00:00:00 | 01:31:40 | 00:00:00 | |
| OE5REO-15 | 2026-08-31 17:37:55 | 48.20527 | 12.29611 | 75° | 97km/h | 14155m | -16.0m/s | -52.4°C | 1.8% | 146.8hPa | 2.6V | 01:57:00 | 00:00:00 | 00:00:00 | |
| BAUMI2-15 | 2026-08-31 17:37:54 | 48.20513 | 12.29541 | 75° | 93km/h | 14185m | -14.4m/s | -52.6°C | 4.3% | 145.9hPa | 2.6V | 01:56:00 | 01:31:37 | 00:00:00 | |
| OE5MMP-10 | 2026-08-31 17:37:53 | 48.20506 | 12.29506 | 75° | 89km/h | 14199m | -13.7m/s | -52.7°C | 4.3% | 145.7hPa | 2.6V | 00:00:00 | 01:31:36 | 00:00:00 | |
| OE5DRO-10 | 2026-08-31 17:37:52 | 48.20500 | 12.29472 | 76° | 86km/h | 14213m | -14.2m/s | -52.7°C | 4.3% | 145.3hPa | 2.6V | 00:00:00 | 00:00:00 | 00:00:00 | |
| OM5KV | 2026-08-31 17:37:50 | 48.20494 | 12.29438 | 76° | 91km/h | 14227m | -13.9m/s | -52.6°C | 1.8% | 145.1hPa | 2.6V | 00:00:00 | 00:00:00 | 00:00:00 | |
| BAUMI2-15 | 2026-08-31 17:37:49 | 48.20482 | 12.29372 | 76° | 88km/h | 14251m | -10.9m/s | -52.5°C | 4.2% | 144.4hPa | 2.6V | 00:00:00 | 01:31:32 | 00:00:00 | |
| OE5WHR-10 | 2026-08-31 17:37:48 | 48.20477 | 12.29339 | 77° | 84km/h | 14263m | -12.8m/s | -52.5°C | 4.1% | 144.2hPa | 2.6V | 01:56:00 | 01:31:31 | 00:00:00 | |
| DO3MHA-11 | 2026-08-31 17:37:47 | 48.20471 | 12.29306 | 77° | 84km/h | 14276m | -14.1m/s | -52.4°C | 4.1% | 143.9hPa | 2.6V | 01:56:00 | 01:31:30 | 00:00:00 | |
| BAUMI2-15 | 2026-08-31 17:37:44 | 48.20455 | 12.29212 | 75° | 84km/h | 14316m | -10.1m/s | -52.2°C | 4.0% | 143.0hPa | 2.5V | 01:56:00 | 01:31:27 | 00:00:00 | |
| OE5MMP-10 | 2026-08-31 17:37:43 | 48.20449 | 12.29181 | 75° | 84km/h | 14327m | -11.3m/s | -52.2°C | 3.9% | 142.8hPa | 2.6V | 01:56:00 | 01:31:26 | 00:00:00 | |
| DB0UT-7 | 2026-08-31 17:37:42 | 48.20443 | 12.29151 | 76° | 84km/h | 14337m | -10.4m/s | -52.1°C | 3.9% | 142.5hPa | 2.6V | 00:00:00 | 00:00:00 | 00:00:00 | |
| DB0ND-19 | 2026-08-31 17:37:39 | 48.20423 | 12.29029 | 76° | 84km/h | 14379m | -9.3m/s | 0°C | -1.0% | -1.0hPa | 2.6V | 00:00:00 | 00:00:00 | 00:00:00 | |
| DO3MHA-11 | 2026-08-31 17:37:37 | 48.20418 | 12.28997 | 76° | 84km/h | 14388m | -9.6m/s | -51.8°C | 3.8% | 141.4hPa | 2.6V | 00:00:00 | 01:31:20 | 00:00:00 | |
| OE5MMP-10 | 2026-08-31 17:37:33 | 48.20395 | 12.28874 | 72° | 84km/h | 14427m | -10.2m/s | -52.1°C | 4.0% | 140.6hPa | 2.6V | 00:00:00 | 01:31:16 | 00:00:00 | |
| DG1MJG | 2026-08-31 17:37:32 | 48.20395 | 12.28874 | 73° | 84km/h | 14427m | -10.2m/s | -52.1°C | 1.7% | 140.7hPa | 2.6V | 01:57:00 | 00:00:00 | 00:00:00 | |
| OE5DXL-15 | 2026-08-31 17:37:30 | 48.20375 | 12.28784 | 71° | 82km/h | 14457m | -11.0m/s | -52.3°C | 4.0% | 140.0hPa | 2.6V | 01:57:00 | 00:00:00 | 00:00:00 | |
| PG1ADW-2 | 2026-08-31 17:37:28 | 48.20361 | 12.28725 | 70° | 84km/h | 14481m | -11.9m/s | -52.4°C | 4.0% | 139.5hPa | 2.6V | 00:00:00 | 00:00:00 | 00:00:00 | |
| DO3MHA-12 | 2026-08-31 17:37:27 | 48.20354 | 12.28695 | 70° | 86km/h | 14493m | -10.8m/s | -52.5°C | 4.0% | 139.2hPa | 2.6V | 00:00:00 | 01:31:10 | 00:00:00 | |
| BAUMI2-15 | 2026-08-31 17:37:24 | 48.20331 | 12.28605 | 69° | 86km/h | 14542m | -17.8m/s | -52.9°C | 4.0% | 138.3hPa | 2.6V | 01:57:00 | 01:31:07 | 00:00:00 | |
| OE5MMP-10 | 2026-08-31 17:37:23 | 48.20323 | 12.28575 | 69° | 86km/h | 14560m | -17.4m/s | -53.0°C | 4.1% | 137.9hPa | 2.6V | 01:57:00 | 01:31:06 | 00:00:00 | |
| DH7VM-15 | 2026-08-31 17:37:20 | 48.20306 | 12.28514 | 68° | 88km/h | 14591m | -13.6m/s | -53.4°C | 1.7% | 137.2hPa | 2.6V | 00:00:00 | 00:00:00 | 00:00:00 | |
| BAUMI2-15 | 2026-08-31 17:37:19 | 48.20289 | 12.28454 | 68° | 84km/h | 14618m | -14.6m/s | -53.6°C | 4.1% | 136.6hPa | 2.6V | 00:00:00 | 01:31:02 | 00:00:00 | |
| OM5KV | 2026-08-31 17:37:18 | 48.20289 | 12.28454 | 68° | 86km/h | 14618m | -14.6m/s | -53.6°C | 1.7% | 136.6hPa | 2.6V | 00:00:00 | 00:00:00 | 00:00:00 | |
| DO3MHA-11 | 2026-08-31 17:37:17 | 48.20273 | 12.28395 | 68° | 80km/h | 14644m | -11.8m/s | -53.8°C | 4.3% | 136.0hPa | 2.6V | 00:00:00 | 01:31:00 | 00:00:00 | |
| OE5DRO-10 | 2026-08-31 17:37:14 | 48.20250 | 12.28306 | 71° | 77km/h | 14676m | -9.7m/s | -53.9°C | 4.4% | 135.3hPa | 2.5V | 00:00:00 | 00:00:00 | 00:00:00 | |
| OE5MMP-10 | 2026-08-31 17:37:13 | 48.20243 | 12.28277 | 72° | 78km/h | 14685m | -9.6m/s | -53.7°C | 4.4% | 135.1hPa | 2.6V | 00:00:00 | 01:30:56 | 00:00:00 | |
| DB0UT-7 | 2026-08-31 17:37:12 | 48.20237 | 12.28248 | 73° | 73km/h | 14695m | -10.2m/s | -53.4°C | 4.2% | 134.8hPa | 2.6V | 01:57:00 | 01:30:55 | 00:00:00 | |
| DL6DJ-15 | 2026-08-31 17:37:11 | 48.20226 | 12.28191 | 75° | 77km/h | 14715m | -9.8m/s | -53.3°C | 1.7% | 134.5hPa | 2.6V | 00:00:00 | 00:00:00 | 00:00:00 | |
| DB0ND-19 | 2026-08-31 17:37:08 | 48.20212 | 12.28105 | 78° | 77km/h | 14744m | -9.7m/s | 0°C | -1.0% | -1.0hPa | 2.6V | 00:00:00 | 00:00:00 | 00:00:00 | |
| DO3MHA-11 | 2026-08-31 17:37:07 | 48.20212 | 12.28105 | 79° | 75km/h | 14744m | -9.7m/s | -53.3°C | 4.2% | 133.8hPa | 2.6V | 01:57:00 | 01:30:50 | 00:00:00 | |
| OE5WHR-10 | 2026-08-31 17:37:06 | 48.20209 | 12.28076 | 80° | 71km/h | 14754m | -10.3m/s | -53.3°C | 4.2% | 133.6hPa | 2.6V | 01:57:00 | 00:00:00 | 00:00:00 | |
| DO7DH-14 | 2026-08-31 17:37:04 | 48.20201 | 12.28020 | 77° | 68km/h | 14776m | -10.2m/s | 0°C | 0% | 0hPa | 2.6V | 01:57:00 | 01:30:47 | 00:00:00 | |
| OE5MMP-10 | 2026-08-31 17:37:03 | 48.20196 | 12.27993 | 75° | 75km/h | 14786m | -8.9m/s | -53.5°C | 4.3% | 132.9hPa | 2.6V | 01:57:00 | 01:30:46 | 00:00:00 | |
| DF7PN | 2026-08-31 17:36:59 | 48.20165 | 12.27860 | 69° | 75km/h | 14832m | -10.5m/s | -53.7°C | 1.7% | 132.1hPa | 2.6V | 00:00:00 | 00:00:00 | 00:00:00 | |
| DO3MHA-11 | 2026-08-31 17:36:57 | 48.20158 | 12.27834 | 71° | 71km/h | 14843m | -10.1m/s | -53.6°C | 4.2% | 131.7hPa | 2.6V | 00:00:00 | 01:30:40 | 00:00:00 | |
| DG1MFX-10 | 2026-08-31 17:36:56 | 48.20158 | 12.27834 | 71° | 75km/h | 14843m | -10.1m/s | -53.7°C | 1.7% | 131.8hPa | 2.6V | 01:58:00 | 00:00:00 | 00:00:00 | |
| OE5DRO-10 | 2026-08-31 17:36:55 | 48.20147 | 12.27780 | 74° | 73km/h | 14863m | -9.8m/s | -53.7°C | 4.3% | 131.3hPa | 2.6V | 01:57:00 | 00:00:00 | 00:00:00 | |
| OE5MMP-10 | 2026-08-31 17:36:53 | 48.20138 | 12.27726 | 77° | 69km/h | 14883m | -9.9m/s | -53.6°C | 4.2% | 130.9hPa | 2.6V | 00:00:00 | 01:30:36 | 00:00:00 | |
| OE5REO-15 | 2026-08-31 17:36:52 | 48.20138 | 12.27726 | 78° | 71km/h | 14883m | -9.9m/s | -53.6°C | 1.7% | 131.0hPa | 2.6V | 01:58:00 | 00:00:00 | 00:00:00 | |
| PG1ADW-2 | 2026-08-31 17:36:48 | 48.20117 | 12.27600 | 73° | 77km/h | 14933m | -8.8m/s | -53.5°C | 4.3% | 129.9hPa | 2.6V | 00:00:00 | 00:00:00 | 00:00:00 | |
| DO3MHA-12 | 2026-08-31 17:36:47 | 48.20112 | 12.27576 | 70° | 75km/h | 14942m | -9.2m/s | -53.5°C | 4.2% | 129.7hPa | 2.6V | 00:00:00 | 01:30:30 | 00:00:00 | |
| OE5WHR-10 | 2026-08-31 17:36:45 | 48.20099 | 12.27530 | 66° | 73km/h | 14960m | -9.2m/s | -53.6°C | 4.2% | 129.3hPa | 2.6V | 00:00:00 | 01:30:28 | 00:00:00 | |
| OE3JTB-15 | 2026-08-31 17:36:44 | 48.20091 | 12.27506 | 65° | 69km/h | 14970m | -10.3m/s | -53.6°C | 4.2% | 129.2hPa | 2.6V | 00:00:00 | 00:00:00 | 00:00:00 | |
| OE5MMP-10 | 2026-08-31 17:36:43 | 48.20083 | 12.27480 | 66° | 78km/h | 14981m | -10.3m/s | -53.6°C | 4.2% | 129.0hPa | 2.6V | 01:57:00 | 01:30:26 | 00:00:00 | |
| DB0UT-7 | 2026-08-31 17:36:42 | 48.20075 | 12.27454 | 66° | 69km/h | 14991m | -10.7m/s | -53.6°C | 4.2% | 128.8hPa | 2.6V | 00:00:00 | 00:00:00 | 00:00:00 | |
| OM5KV | 2026-08-31 17:36:41 | 48.20075 | 12.27454 | 67° | 77km/h | 14991m | -10.8m/s | -53.7°C | 1.7% | 128.8hPa | 2.6V | 01:58:00 | 00:00:00 | 00:00:00 | |
| DL6DJ-15 | 2026-08-31 17:36:40 | 48.20053 | 12.27371 | 70° | 80km/h | 15022m | -10.6m/s | -53.9°C | 1.7% | 128.2hPa | 2.6V | 00:00:00 | 00:00:00 | 00:00:00 | |
| DO3MHA-11 | 2026-08-31 17:36:37 | 48.20040 | 12.27313 | 74° | 73km/h | 15043m | -10.9m/s | -53.8°C | 4.3% | 127.7hPa | 2.6V | 00:00:00 | 01:30:20 | 00:00:00 | |
| OE5DRO-10 | 2026-08-31 17:36:36 | 48.20035 | 12.27285 | 75° | 64km/h | 15054m | -10.4m/s | -53.9°C | 4.3% | 127.5hPa | 2.6V | 00:00:00 | 00:00:00 | 00:00:00 | |
| DK5PH-5 | 2026-08-31 17:36:34 | 48.20025 | 12.27229 | 77° | 69km/h | 15075m | -10.9m/s | -54.0°C | 4.4% | 127.1hPa | 2.6V | 01:57:00 | 01:30:17 | 00:00:00 | |
| OE5MMP-10 | 2026-08-31 17:36:33 | 48.20021 | 12.27202 | 77° | 66km/h | 15086m | -10.4m/s | -53.9°C | 4.4% | 126.9hPa | 2.6V | 00:00:00 | 01:30:16 | 00:00:00 | |
| DG1MJG | 2026-08-31 17:36:31 | 48.20016 | 12.27175 | 77° | 71km/h | 15096m | -10.8m/s | -53.9°C | 1.8% | 126.7hPa | 2.5V | 01:58:00 | 00:00:00 | 00:00:00 | |
| OE5DXL-15 | 2026-08-31 17:36:30 | 48.20007 | 12.27124 | 73° | 69km/h | 15117m | -10.4m/s | -53.9°C | 4.3% | 126.2hPa | 2.5V | 01:58:00 | 00:00:00 | 00:00:00 | |
| DF7PN | 2026-08-31 17:36:28 | 48.19990 | 12.27054 | 68° | 62km/h | 15148m | -11.7m/s | -54.0°C | 1.8% | 125.7hPa | 2.5V | 00:00:00 | 00:00:00 | 00:00:00 | |
| DO3MHA-11 | 2026-08-31 17:36:27 | 48.19990 | 12.27054 | 69° | 58km/h | 15148m | -11.6m/s | -54.0°C | 4.3% | 125.7hPa | 2.5V | 01:58:00 | 01:30:10 | 00:00:00 | |
| OE5WHR-10 | 2026-08-31 17:36:24 | 48.19973 | 12.26989 | 68° | 69km/h | 15183m | -6.4m/s | -54.1°C | 4.3% | 125.0hPa | 2.5V | 01:58:00 | 00:00:00 | 00:00:00 | |
| OE5MMP-10 | 2026-08-31 17:36:23 | 48.19968 | 12.26969 | 72° | 64km/h | 15192m | -11.0m/s | -54.0°C | 4.3% | 124.8hPa | 2.6V | 01:58:00 | 01:30:06 | 00:00:00 | |
| OM5KV | 2026-08-31 17:36:22 | 48.19968 | 12.26969 | 73° | 55km/h | 15192m | -11.1m/s | -54.1°C | 1.8% | 124.9hPa | 2.6V | 01:58:00 | 00:00:00 | 00:00:00 | |
| OE5REO-15 | 2026-08-31 17:36:21 | 48.19963 | 12.26950 | 73° | 53km/h | 15203m | -11.2m/s | -54.1°C | 1.7% | 124.6hPa | 2.6V | 01:58:00 | 00:00:00 | 00:00:00 | |
| OM5KV | 2026-08-31 17:36:20 | 48.19959 | 12.26930 | 72° | 53km/h | 15214m | -10.6m/s | -54.0°C | 1.8% | 124.4hPa | 2.6V | 01:58:00 | 00:00:00 | 00:00:00 | |
| DO3MHA-11 | 2026-08-31 17:36:17 | 48.19937 | 12.26848 | 68° | 77km/h | 15259m | -11.4m/s | -54.1°C | 4.2% | 123.5hPa | 2.6V | 00:00:00 | 01:30:00 | 00:00:00 | |
| OM5KV | 2026-08-31 17:36:16 | 48.19937 | 12.26848 | 68° | 68km/h | 15259m | -11.5m/s | -54.2°C | 1.7% | 123.6hPa | 2.6V | 01:58:00 | 00:00:00 | 00:00:00 | |
| OE3JTB-15 | 2026-08-31 17:36:15 | 48.19923 | 12.26797 | 67° | 73km/h | 15282m | -9.8m/s | -54.3°C | 4.3% | 123.1hPa | 2.6V | 01:58:00 | 01:29:58 | 00:00:00 | |
| OM5KV | 2026-08-31 17:36:14 | 48.19923 | 12.26797 | 68° | 77km/h | 15282m | -9.9m/s | -54.3°C | 1.7% | 123.1hPa | 2.6V | 01:58:00 | 00:00:00 | 00:00:00 | |
| OE5MMP-10 | 2026-08-31 17:36:13 | 48.19907 | 12.26741 | 68° | 75km/h | 15301m | -9.2m/s | -54.4°C | 4.3% | 122.7hPa | 2.6V | 00:00:00 | 01:29:56 | 00:00:00 | |
| DB0UT-7 | 2026-08-31 17:36:12 | 48.19899 | 12.26712 | 69° | 75km/h | 15311m | -9.8m/s | -54.5°C | 4.4% | 122.5hPa | 2.6V | 01:58:00 | 01:29:55 | 00:00:00 | |
| OM5KV | 2026-08-31 17:36:10 | 48.19892 | 12.26682 | 71° | 82km/h | 15321m | -9.9m/s | -54.7°C | 1.9% | 122.4hPa | 2.6V | 01:58:00 | 00:00:00 | 00:00:00 | |
| DL6DJ-15 | 2026-08-31 17:36:09 | 48.19873 | 12.26599 | 73° | 71km/h | 15350m | -9.8m/s | -54.9°C | 1.9% | 121.8hPa | 2.6V | 00:00:00 | 00:00:00 | 00:00:00 | |
| DO3MHA-11 | 2026-08-31 17:36:07 | 48.19868 | 12.26574 | 74° | 71km/h | 15360m | -9.9m/s | -54.9°C | 4.6% | 121.6hPa | 2.6V | 01:58:00 | 01:29:50 | 00:00:00 | |
| OM5KV | 2026-08-31 17:36:05 | 48.19858 | 12.26523 | 74° | 71km/h | 15381m | -10.4m/s | -55.1°C | 1.9% | 121.2hPa | 2.6V | 01:58:00 | 00:00:00 | 00:00:00 | |
| DK5PH-5 | 2026-08-31 17:36:04 | 48.19853 | 12.26497 | 73° | 78km/h | 15391m | -10.5m/s | -55.1°C | 4.6% | 121.0hPa | 2.6V | 00:00:00 | 01:29:47 | 00:00:00 | |
| OE5MMP-10 | 2026-08-31 17:36:03 | 48.19847 | 12.26471 | 74° | 75km/h | 15402m | -11.0m/s | -55.1°C | 4.7% | 120.8hPa | 2.6V | 01:58:00 | 01:29:46 | 00:00:00 | |
| OM5KV | 2026-08-31 17:36:02 | 48.19847 | 12.26471 | 75° | 73km/h | 15402m | -11.0m/s | -55.1°C | 1.9% | 120.8hPa | 2.5V | 01:58:00 | 00:00:00 | 00:00:00 | |
| DF7PN | 2026-08-31 17:35:57 | 48.19811 | 12.26286 | 69° | 75km/h | 15483m | -11.3m/s | -55.5°C | 1.9% | 119.4hPa | 2.5V | 00:00:00 | 00:00:00 | 00:00:00 | |
| OM5KV | 2026-08-31 17:35:56 | 48.19817 | 12.26312 | 72° | 75km/h | 15472m | -11.2m/s | -55.4°C | 2.0% | 119.5hPa | 2.5V | 01:58:00 | 00:00:00 | 00:00:00 | |
| NBG1-10 | 2026-08-31 17:35:55 | 48.19803 | 12.26259 | 68° | 82km/h | 15495m | -12.2m/s | -55.5°C | 4.8% | 119.1hPa | 2.5V | 00:00:00 | 01:29:38 | 00:00:00 | |
| OE5MMP-10 | 2026-08-31 17:35:53 | 48.19787 | 12.26206 | 63° | 77km/h | 15518m | -11.5m/s | -55.7°C | 4.9% | 118.7hPa | 2.5V | 00:00:00 | 01:29:36 | 00:00:00 | |
| OM5KV | 2026-08-31 17:35:52 | 48.19787 | 12.26206 | 63° | 78km/h | 15518m | -11.5m/s | -55.8°C | 2.0% | 118.7hPa | 2.5V | 01:58:00 | 00:00:00 | 00:00:00 | |
| OM5KV | 2026-08-31 17:35:50 | 48.19769 | 12.26155 | 61° | 75km/h | 15541m | -10.1m/s | -55.9°C | 2.0% | 118.2hPa | 2.5V | 01:58:00 | 00:00:00 | 00:00:00 | |
| OE5REO-15 | 2026-08-31 17:35:49 | 48.19759 | 12.26130 | 62° | 75km/h | 15551m | -10.5m/s | -56.0°C | 2.1% | 118.1hPa | 2.5V | 01:58:00 | 00:00:00 | 00:00:00 | |
| OE3JTB-15 | 2026-08-31 17:35:46 | 48.19726 | 12.26027 | 69° | 84km/h | 15593m | -10.5m/s | -55.9°C | 5.1% | 117.3hPa | 2.5V | 00:00:00 | 00:00:00 | 00:00:00 | |
| PG1ADW-2 | 2026-08-31 17:35:44 | 48.19712 | 12.25970 | 70° | 75km/h | 15613m | -10.7m/s | -55.9°C | 5.1% | 116.9hPa | 2.5V | 00:00:00 | 00:00:00 | 00:00:00 | |
| OE5MMP-10 | 2026-08-31 17:35:43 | 48.19704 | 12.25942 | 69° | 84km/h | 15624m | -10.9m/s | -55.8°C | 5.0% | 116.7hPa | 2.5V | 01:58:00 | 01:29:26 | 00:00:00 | |
| OE5WHR-10 | 2026-08-31 17:35:42 | 48.19697 | 12.25913 | 67° | 84km/h | 15635m | -10.9m/s | -55.7°C | 5.0% | 116.5hPa | 2.5V | 01:58:00 | 01:29:25 | 00:00:00 | |
| DF3TZ-5 | 2026-08-31 17:35:40 | 48.19668 | 12.25832 | 59° | 80km/h | 15669m | -10.7m/s | -55.8°C | 2.0% | 115.9hPa | 2.5V | 00:00:00 | 00:00:00 | 00:00:00 | |
| OE5DRO-10 | 2026-08-31 17:35:39 | 48.19668 | 12.25832 | 60° | 86km/h | 15669m | -10.7m/s | -55.7°C | 5.0% | 115.9hPa | 2.5V | 01:58:00 | 00:00:00 | 00:00:00 | |
| OM5KV | 2026-08-31 17:35:38 | 48.19669 | 12.25832 | 60° | 82km/h | 15669m | -10.7m/s | -55.8°C | 2.0% | 115.9hPa | 2.5V | 01:58:00 | 00:00:00 | 00:00:00 | |
| DO3MHA-11 | 2026-08-31 17:35:37 | 48.19646 | 12.25779 | 58° | 88km/h | 15690m | -11.2m/s | -55.7°C | 4.9% | 115.5hPa | 2.5V | 00:00:00 | 01:29:20 | 00:00:00 | |
| DK5PH-5 | 2026-08-31 17:35:34 | 48.19611 | 12.25695 | 60° | 82km/h | 15724m | -10.9m/s | -55.5°C | 4.7% | 114.9hPa | 2.5V | 01:58:00 | 01:29:17 | 00:00:00 | |
| OE5MMP-10 | 2026-08-31 17:35:33 | 48.19600 | 12.25665 | 61° | 86km/h | 15736m | -11.8m/s | -55.4°C | 4.7% | 114.7hPa | 2.5V | 00:00:00 | 01:29:16 | 00:00:00 | |
| OM5KV | 2026-08-31 17:35:32 | 48.19599 | 12.25665 | 61° | 91km/h | 15736m | -11.9m/s | -55.4°C | 1.9% | 114.7hPa | 2.6V | 01:58:00 | 00:00:00 | 00:00:00 | |
| OE5DXL-15 | 2026-08-31 17:35:30 | 48.19567 | 12.25577 | 63° | 78km/h | 15769m | -10.9m/s | -55.4°C | 4.7% | 114.1hPa | 2.6V | 01:59:00 | 00:00:00 | 00:00:00 | |
| DG1MJG | 2026-08-31 17:35:29 | 48.19567 | 12.25577 | 63° | 84km/h | 15769m | -10.9m/s | -55.4°C | 1.9% | 114.1hPa | 2.5V | 01:59:00 | 00:00:00 | 00:00:00 | |
| OM5KV | 2026-08-31 17:35:28 | 48.19558 | 12.25549 | 64° | 82km/h | 15780m | -11.2m/s | -55.4°C | 1.9% | 114.0hPa | 2.5V | 01:59:00 | 00:00:00 | 00:00:00 | |
| DO3MHA-12 | 2026-08-31 17:35:27 | 48.19538 | 12.25494 | 61° | 84km/h | 15803m | -11.6m/s | -55.2°C | 4.7% | 113.5hPa | 2.5V | 00:00:00 | 01:29:10 | 00:00:00 | |
| DF7PN | 2026-08-31 17:35:26 | 48.19517 | 12.25439 | 59° | 84km/h | 15826m | -11.3m/s | -55.1°C | 1.9% | 113.1hPa | 2.5V | 00:00:00 | 00:00:00 | 00:00:00 | |
| OE5MMP-10 | 2026-08-31 17:35:23 | 48.19495 | 12.25384 | 59° | 82km/h | 15847m | -10.1m/s | -55.2°C | 4.5% | 112.7hPa | 2.5V | 01:59:00 | 01:29:06 | 00:00:00 | |
| NBG1-10 | 2026-08-31 17:35:22 | 48.19484 | 12.25357 | 59° | 75km/h | 15857m | -10.5m/s | -55.3°C | 4.5% | 112.5hPa | 2.5V | 01:59:00 | 01:29:05 | 00:00:00 | |
| OE5WHR-10 | 2026-08-31 17:35:21 | 48.19472 | 12.25330 | 58° | 77km/h | 15868m | -10.8m/s | -55.4°C | 4.6% | 112.4hPa | 2.5V | 00:00:00 | 00:00:00 | 00:00:00 | |
| OE5DRO-10 | 2026-08-31 17:35:20 | 48.19461 | 12.25303 | 58° | 77km/h | 15879m | -9.9m/s | -55.4°C | 4.6% | 112.1hPa | 2.7V | 00:00:00 | 00:00:00 | 00:00:00 | |
| OE5REO-15 | 2026-08-31 17:35:19 | 48.19461 | 12.25303 | 58° | 82km/h | 15879m | -10.0m/s | -55.5°C | 1.9% | 112.2hPa | 2.5V | 00:00:00 | 00:00:00 | 00:00:00 | |
| DO3MHA-11 | 2026-08-31 17:35:17 | 48.19427 | 12.25225 | 58° | 78km/h | 15912m | -11.5m/s | -55.7°C | 4.7% | 111.6hPa | 2.5V | 00:00:00 | 01:29:00 | 00:00:00 | |
| OE3JTB-15 | 2026-08-31 17:35:16 | 48.19417 | 12.25199 | 59° | 73km/h | 15925m | -12.8m/s | -55.8°C | 4.7% | 111.4hPa | 2.5V | 01:59:00 | 00:00:00 | 00:00:00 | |
| BAUMI2-15 | 2026-08-31 17:35:14 | 48.19396 | 12.25146 | 61° | 78km/h | 15949m | -12.2m/s | -56.0°C | 4.8% | 111.0hPa | 2.5V | 01:59:00 | 01:28:57 | 00:00:00 | |
| OE5MMP-10 | 2026-08-31 17:35:13 | 48.19386 | 12.25120 | 61° | 77km/h | 15961m | -11.3m/s | -56.0°C | 4.8% | 110.7hPa | 2.5V | 00:00:00 | 01:28:56 | 00:00:00 | |
| DB0UT-7 | 2026-08-31 17:35:12 | 48.19376 | 12.25094 | 61° | 73km/h | 15973m | -13.7m/s | -56.1°C | 4.8% | 110.5hPa | 2.5V | 01:59:00 | 01:28:55 | 00:00:00 | |
| OM5KV | 2026-08-31 17:35:11 | 48.19376 | 12.25094 | 61° | 78km/h | 15973m | -13.8m/s | -56.1°C | 1.9% | 110.6hPa | 2.5V | 01:59:00 | 00:00:00 | 00:00:00 | |
| DF3TZ-5 | 2026-08-31 17:35:09 | 48.19336 | 12.24994 | 57° | 77km/h | 16022m | -12.6m/s | -56.4°C | 1.9% | 109.8hPa | 2.5V | 00:00:00 | 00:00:00 | 00:00:00 | |
| DO3MHA-11 | 2026-08-31 17:35:07 | 48.19326 | 12.24969 | 58° | 71km/h | 16034m | -10.2m/s | -56.4°C | 4.7% | 109.5hPa | 2.5V | 01:59:00 | 01:28:50 | 00:00:00 | |
| IN3HCDX | 2026-08-31 17:35:06 | 48.19325 | 12.24970 | 59° | 77km/h | 16034m | -10.3m/s | 0°C | 0% | 0hPa | 2.5V | 00:00:00 | 00:00:00 | 00:00:00 | |
| DK5PH-5 | 2026-08-31 17:35:04 | 48.19296 | 12.24898 | 59° | 71km/h | 16070m | -11.0m/s | -56.6°C | 4.8% | 108.8hPa | 2.5V | 00:00:00 | 01:28:47 | 00:00:00 | |
| OE5REO-15 | 2026-08-31 17:35:03 | 48.19287 | 12.24875 | 57° | 69km/h | 16082m | -14.3m/s | -56.7°C | 1.9% | 108.7hPa | 2.5V | 00:00:00 | 00:00:00 | 00:00:00 | |
| DF7PN | 2026-08-31 17:34:55 | 48.19201 | 12.24684 | 62° | 71km/h | 16184m | -10.3m/s | -57.1°C | 2.0% | 106.9hPa | 2.5V | 00:00:00 | 00:00:00 | 00:00:00 | |
| BAUMI2-15 | 2026-08-31 17:34:54 | 48.19201 | 12.24684 | 63° | 75km/h | 16184m | -10.3m/s | -57.0°C | 5.1% | 106.9hPa | 2.5V | 01:59:00 | 01:28:37 | 00:00:00 | |
| OE5MMP-10 | 2026-08-31 17:34:53 | 48.19193 | 12.24659 | 65° | 75km/h | 16195m | -10.3m/s | -57.1°C | 5.1% | 106.7hPa | 2.5V | 00:00:00 | 01:28:36 | 00:00:00 | |
| BAUMI2-15 | 2026-08-31 17:34:49 | 48.19163 | 12.24552 | 70° | 75km/h | 16235m | -11.2m/s | -57.2°C | 5.1% | 106.1hPa | 2.5V | 00:00:00 | 01:28:32 | 00:00:00 | |
| DO3MHA-11 | 2026-08-31 17:34:47 | 48.19149 | 12.24498 | 71° | 69km/h | 16257m | -12.2m/s | -57.3°C | 5.1% | 105.7hPa | 2.5V | 01:59:00 | 01:28:30 | 00:00:00 | |
| OE5REO-15 | 2026-08-31 17:34:46 | 48.19149 | 12.24498 | 71° | 75km/h | 16257m | -12.2m/s | -57.4°C | 1.9% | 105.8hPa | 2.6V | 00:00:00 | 00:00:00 | 00:00:00 | |
| BAUMI2-15 | 2026-08-31 17:34:44 | 48.19131 | 12.24421 | 71° | 68km/h | 16292m | -10.8m/s | -57.4°C | 5.0% | 105.1hPa | 2.6V | 01:59:00 | 01:28:27 | 00:00:00 | |
| OE5MMP-10 | 2026-08-31 17:34:43 | 48.19126 | 12.24397 | 70° | 68km/h | 16302m | -9.5m/s | -57.4°C | 5.0% | 104.9hPa | 2.5V | 01:59:00 | 01:28:26 | 00:00:00 | |
| DB0UT-7 | 2026-08-31 17:34:42 | 48.19120 | 12.24373 | 70° | 55km/h | 16312m | -10.5m/s | -57.4°C | 5.0% | 104.7hPa | 2.5V | 00:00:00 | 00:00:00 | 00:00:00 | |
| PG1ADW-2 | 2026-08-31 17:34:41 | 48.19114 | 12.24350 | 71° | 60km/h | 16323m | -11.4m/s | -57.4°C | 5.1% | 104.6hPa | 2.5V | 01:59:00 | 00:00:00 | 00:00:00 | |
| OE5WHR-10 | 2026-08-31 17:34:39 | 48.19103 | 12.24302 | 73° | 57km/h | 16344m | -11.4m/s | -57.4°C | 5.1% | 104.2hPa | 2.5V | 00:00:00 | 01:28:22 | 00:00:00 | |
| OM5KV | 2026-08-31 17:34:38 | 48.19103 | 12.24302 | 73° | 68km/h | 16344m | -11.5m/s | -57.4°C | 1.9% | 104.3hPa | 2.5V | 02:00:00 | 00:00:00 | 00:00:00 | |
| DO3MHA-11 | 2026-08-31 17:34:37 | 48.19095 | 12.24253 | 77° | 64km/h | 16367m | -11.1m/s | -57.2°C | 5.1% | 103.9hPa | 2.5V | 00:00:00 | 01:28:20 | 00:00:00 | |
| DB0NH | 2026-08-31 17:34:36 | 48.19091 | 12.24227 | 78° | 51km/h | 16378m | -11.4m/s | -57.0°C | 5.0% | 103.7hPa | 2.5V | 00:00:00 | 01:28:19 | 00:00:00 | |
| DL6DJ-15 | 2026-08-31 17:34:35 | 48.19087 | 12.24201 | 78° | 69km/h | 16390m | -12.2m/s | -56.9°C | 1.9% | 103.5hPa | 2.5V | 00:00:00 | 00:00:00 | 00:00:00 | |
| DK5PH-5 | 2026-08-31 17:34:34 | 48.19084 | 12.24175 | 79° | 47km/h | 16401m | -10.2m/s | -56.7°C | 4.9% | 103.3hPa | 2.5V | 01:59:00 | 01:28:17 | 00:00:00 | |
| OE5MMP-10 | 2026-08-31 17:34:33 | 48.19080 | 12.24150 | 79° | 57km/h | 16412m | -11.3m/s | -56.7°C | 4.9% | 103.1hPa | 2.5V | 00:00:00 | 01:28:16 | 00:00:00 | |
| OM5KV | 2026-08-31 17:34:32 | 48.19080 | 12.24150 | 79° | 68km/h | 16412m | -11.3m/s | -56.8°C | 1.8% | 103.1hPa | 2.5V | 02:00:00 | 00:00:00 | 00:00:00 | |
| OE5REO-15 | 2026-08-31 17:34:31 | 48.19077 | 12.24126 | 79° | 64km/h | 16424m | -12.1m/s | -56.8°C | 1.8% | 103.0hPa | 2.5V | 00:00:00 | 00:00:00 | 00:00:00 | |
| OE5DXL-15 | 2026-08-31 17:34:30 | 48.19071 | 12.24080 | 79° | 46km/h | 16446m | -11.6m/s | -56.8°C | 4.8% | 102.5hPa | 2.5V | 00:00:00 | 00:00:00 | 00:00:00 | |
| BAUMI2-15 | 2026-08-31 17:34:29 | 48.19068 | 12.24059 | 80° | 53km/h | 16460m | -15.1m/s | -56.8°C | 4.8% | 102.4hPa | 2.5V | 02:00:00 | 01:28:12 | 00:00:00 | |
| DG1MJG | 2026-08-31 17:34:28 | 48.19068 | 12.24058 | 80° | 57km/h | 16460m | -15.2m/s | -56.9°C | 1.8% | 102.5hPa | 2.5V | 02:00:00 | 00:00:00 | 00:00:00 | |
| DO3MHA-11 | 2026-08-31 17:34:27 | 48.19063 | 12.24018 | 80° | 46km/h | 16492m | -15.4m/s | -56.9°C | 4.8% | 101.9hPa | 2.5V | 00:00:00 | 01:28:10 | 00:00:00 | |
| BAUMI2-15 | 2026-08-31 17:34:24 | 48.19058 | 12.23963 | 85° | 46km/h | 16536m | -11.9m/s | -57.2°C | 5.0% | 101.2hPa | 2.5V | 00:00:00 | 01:28:07 | 00:00:00 | |
| OE5MMP-10 | 2026-08-31 17:34:23 | 48.19057 | 12.23946 | 86° | 42km/h | 16547m | -10.7m/s | -57.2°C | 5.0% | 100.9hPa | 2.5V | 00:00:00 | 01:28:06 | 00:00:00 | |
| IN3HCDX | 2026-08-31 17:34:22 | 48.19057 | 12.23946 | 86° | 44km/h | 16547m | -10.8m/s | 0°C | 0% | 0hPa | 2.5V | 00:00:00 | 00:00:00 | 00:00:00 | |
| PG1ADW-2 | 2026-08-31 17:34:21 | 48.19056 | 12.23913 | 88° | 44km/h | 16569m | -11.1m/s | -57.0°C | 4.9% | 100.6hPa | 2.5V | 02:00:00 | 00:00:00 | 00:00:00 | |
| BAUMI2-15 | 2026-08-31 17:34:19 | 48.19055 | 12.23879 | 88° | 40km/h | 16592m | -10.3m/s | -57.0°C | 4.9% | 100.2hPa | 2.5V | 00:00:00 | 01:28:02 | 00:00:00 | |
| OE5WHR-10 | 2026-08-31 17:34:18 | 48.19054 | 12.23863 | 88° | 44km/h | 16603m | -11.6m/s | -56.9°C | 4.9% | 100.1hPa | 2.5V | 02:00:00 | 00:00:00 | 00:00:00 | |
| DO3MHA-12 | 2026-08-31 17:34:17 | 48.19053 | 12.23847 | 87° | 40km/h | 16616m | -14.0m/s | -56.5°C | 4.7% | 99.9hPa | 2.6V | 00:00:00 | 01:28:00 | 00:00:00 | |
| NBG1-10 | 2026-08-31 17:34:16 | 48.19053 | 12.23832 | 87° | 44km/h | 16629m | -12.3m/s | -56.2°C | 4.6% | 99.7hPa | 2.6V | 00:00:00 | 01:27:59 | 00:00:00 | |
| OE5REO-15 | 2026-08-31 17:34:15 | 48.19053 | 12.23832 | 88° | 38km/h | 16629m | -12.3m/s | -56.2°C | 1.6% | 99.7hPa | 2.6V | 00:00:00 | 00:00:00 | 00:00:00 | |
| BAUMI2-15 | 2026-08-31 17:34:14 | 48.19051 | 12.23804 | 84° | 40km/h | 16652m | -11.1m/s | -56.1°C | 4.5% | 99.3hPa | 2.6V | 02:00:00 | 01:27:57 | 00:00:00 | |
| OE5MMP-10 | 2026-08-31 17:34:13 | 48.19050 | 12.23790 | 81° | 44km/h | 16663m | -10.6m/s | -56.1°C | 4.5% | 99.2hPa | 2.5V | 00:00:00 | 01:27:56 | 00:00:00 | |
| DB0UT-7 | 2026-08-31 17:34:12 | 48.19048 | 12.23775 | 80° | 44km/h | 16674m | -12.1m/s | -56.2°C | 4.6% | 99.0hPa | 2.5V | 02:00:00 | 01:27:55 | 00:00:00 | |
| OM5KV | 2026-08-31 17:34:11 | 48.19048 | 12.23775 | 81° | 40km/h | 16674m | -12.1m/s | -56.3°C | 1.6% | 99.0hPa | 2.5V | 02:00:00 | 00:00:00 | 00:00:00 | |
| BAUMI2-15 | 2026-08-31 17:34:09 | 48.19043 | 12.23729 | 86° | 46km/h | 16711m | -11.9m/s | -56.3°C | 4.6% | 98.4hPa | 2.5V | 00:00:00 | 01:27:52 | 00:00:00 | |
| OM5KV | 2026-08-31 17:34:07 | 48.19043 | 12.23695 | 92° | 47km/h | 16736m | -13.3m/s | -56.1°C | 1.5% | 98.1hPa | 2.5V | 02:00:00 | 00:00:00 | 00:00:00 | |
| DB0NH | 2026-08-31 17:34:04 | 48.19043 | 12.23641 | 90° | 49km/h | 16771m | -10.8m/s | -56.2°C | 4.6% | 97.5hPa | 2.5V | 00:00:00 | 01:27:47 | 00:00:00 | |
| OE5MMP-10 | 2026-08-31 17:34:03 | 48.19043 | 12.23622 | 89° | 46km/h | 16782m | -11.3m/s | -56.3°C | 4.6% | 97.3hPa | 2.5V | 02:00:00 | 01:27:46 | 00:00:00 | |
| IN3HCDX | 2026-08-31 17:34:02 | 48.19043 | 12.23622 | 89° | 49km/h | 16782m | -11.4m/s | 0°C | 0% | 0hPa | 2.5V | 00:00:00 | 00:00:00 | 00:00:00 | |
| PG1ADW-2 | 2026-08-31 17:34:01 | 48.19042 | 12.23585 | 87° | 44km/h | 16804m | -11.3m/s | -56.4°C | 4.9% | 97.0hPa | 2.5V | 00:00:00 | 01:27:44 | 00:00:00 | |
| OE5DXL-15 | 2026-08-31 17:34:00 | 48.19041 | 12.23567 | 85° | 49km/h | 16816m | -11.7m/s | -56.4°C | 4.9% | 96.8hPa | 2.5V | 02:00:00 | 00:00:00 | 00:00:00 | |
| BAUMI2-15 | 2026-08-31 17:33:59 | 48.19040 | 12.23549 | 84° | 44km/h | 16827m | -10.8m/s | -56.4°C | 5.0% | 96.6hPa | 2.5V | 02:00:00 | 01:27:42 | 00:00:00 | |
| DO3MHA-11 | 2026-08-31 17:33:57 | 48.19037 | 12.23515 | 83° | 42km/h | 16850m | -10.4m/s | -56.5°C | 5.1% | 96.3hPa | 2.5V | 00:00:00 | 01:27:40 | 00:00:00 | |
| OM5KV | 2026-08-31 17:33:55 | 48.19036 | 12.23499 | 86° | 40km/h | 16860m | -10.6m/s | -56.6°C | 1.7% | 96.1hPa | 2.5V | 02:00:00 | 00:00:00 | 00:00:00 | |
| BAUMI2-15 | 2026-08-31 17:33:54 | 48.19034 | 12.23469 | 84° | 42km/h | 16885m | -13.4m/s | -56.6°C | 5.2% | 95.8hPa | 2.5V | 00:00:00 | 01:27:37 | 00:00:00 | |
| OE5MMP-10 | 2026-08-31 17:33:53 | 48.19033 | 12.23454 | 82° | 44km/h | 16898m | -12.6m/s | -56.6°C | 5.2% | 95.6hPa | 2.5V | 00:00:00 | 01:27:36 | 00:00:00 | |
| OM5KV | 2026-08-31 17:33:52 | 48.19033 | 12.23454 | 82° | 40km/h | 16898m | -12.7m/s | -56.6°C | 1.8% | 95.6hPa | 2.5V | 02:00:00 | 00:00:00 | 00:00:00 | |
| DG1MFX-10 | 2026-08-31 17:33:51 | 48.19031 | 12.23438 | 80° | 42km/h | 16910m | -12.5m/s | -56.5°C | 1.8% | 95.4hPa | 2.5V | 02:00:00 | 00:00:00 | 00:00:00 | |
| OM5KV | 2026-08-31 17:33:50 | 48.19029 | 12.23423 | 76° | 42km/h | 16923m | -14.5m/s | -56.4°C | 1.7% | 95.3hPa | 2.5V | 02:00:00 | 00:00:00 | 00:00:00 | |
| BAUMI2-15 | 2026-08-31 17:33:49 | 48.19023 | 12.23391 | 75° | 46km/h | 16951m | -14.7m/s | -56.1°C | 4.9% | 94.8hPa | 2.5V | 00:00:00 | 01:27:32 | 00:00:00 | |
| OE3JTB-15 | 2026-08-31 17:33:48 | 48.19019 | 12.23375 | 72° | 57km/h | 16965m | -14.4m/s | -55.6°C | 4.7% | 94.6hPa | 2.5V | 00:00:00 | 00:00:00 | 00:00:00 | |
| DM0DOS-11 | 2026-08-31 17:33:47 | 48.18994 | 12.23277 | 67° | 51km/h | 17058m | -13.4m/s | -54°C | 4.2% | 93.3hPa | 2.5V | 02:00:49 | 01:27:25 | 00:00:00 | |
| DO3MHA-11 | 2026-08-31 17:33:47 | 48.19016 | 12.23358 | 71° | 51km/h | 16981m | -16.3m/s | -55.4°C | 4.6% | 94.4hPa | 2.5V | 02:00:00 | 01:27:30 | 00:00:00 | |
| OM5KV | 2026-08-31 17:33:46 | 48.19016 | 12.23358 | 71° | 46km/h | 16981m | -16.3m/s | -55.4°C | 1.5% | 94.5hPa | 2.6V | 02:01:00 | 00:00:00 | 00:00:00 | |
| OE5DRO-10 | 2026-08-31 17:33:45 | 48.19008 | 12.23327 | 70° | 57km/h | 17014m | -15.5m/s | -55.3°C | 4.7% | 93.9hPa | 2.6V | 00:00:00 | 00:00:00 | 00:00:00 | |
| BAUMI2-15 | 2026-08-31 17:33:44 | 48.19003 | 12.23310 | 69° | 51km/h | 17029m | -14.2m/s | -55.1°C | 4.7% | 93.6hPa | 2.6V | 02:00:00 | 01:27:27 | 00:00:00 | |
| NBG1-10 | 2026-08-31 17:33:43 | 48.18999 | 12.23294 | 68° | 60km/h | 17044m | -14.8m/s | -54.6°C | 4.5% | 93.4hPa | 2.5V | 02:00:00 | 01:27:26 | 00:00:00 | |
| DB0UT-7 | 2026-08-31 17:33:42 | 48.18994 | 12.23277 | 68° | 62km/h | 17058m | -13.4m/s | -54.0°C | 4.2% | 93.2hPa | 2.7V | 00:00:00 | 00:00:00 | 00:00:00 | |
| PG1ADW-2 | 2026-08-31 17:33:41 | 48.18989 | 12.23258 | 69° | 60km/h | 17072m | -16.0m/s | -53.5°C | 4.0% | 93.0hPa | 2.7V | 00:00:00 | 00:00:00 | 00:00:00 | |
| BAUMI2-15 | 2026-08-31 17:33:39 | 48.18979 | 12.23219 | 71° | 58km/h | 17104m | -14.3m/s | -53.2°C | 4.0% | 92.6hPa | 2.7V | 00:00:00 | 01:27:22 | 00:00:00 | |
| DO3MHA-12 | 2026-08-31 17:33:37 | 48.18970 | 12.23178 | 72° | 60km/h | 17129m | -10.1m/s | -53.2°C | 4.0% | 92.1hPa | 2.7V | 00:00:00 | 01:27:20 | 00:00:00 | |
| DF3TZ-5 | 2026-08-31 17:33:36 | 48.18962 | 12.23135 | 75° | 58km/h | 17153m | -10.8m/s | 0°C | -1.0% | -1.0hPa | 2.7V | 00:00:00 | 00:00:00 | 00:00:00 | |
| BAUMI2-15 | 2026-08-31 17:33:34 | 48.18958 | 12.23114 | 77° | 58km/h | 17164m | -11.0m/s | -53.0°C | 3.9% | 91.7hPa | 2.7V | 00:00:00 | 01:27:17 | 00:00:00 | |
| OE5MMP-10 | 2026-08-31 17:33:33 | 48.18954 | 12.23092 | 77° | 62km/h | 17175m | -12.8m/s | -53.1°C | 3.9% | 91.5hPa | 2.7V | 02:00:00 | 01:27:16 | 00:00:00 | |
| DM0DOS-11 | 2026-08-31 17:33:31 | 48.18917 | 12.22943 | 65° | 64km/h | 17269m | -10.1m/s | -53.1°C | 4% | 90.2hPa | 2.6V | 02:01:05 | 01:27:09 | 00:00:00 | |
| OE5DXL-15 | 2026-08-31 17:33:30 | 48.18941 | 12.23027 | 71° | 60km/h | 17221m | -13.2m/s | -53.2°C | 4.1% | 90.8hPa | 2.5V | 00:00:00 | 00:00:00 | 00:00:00 | |
| BAUMI2-15 | 2026-08-31 17:33:29 | 48.18936 | 12.23006 | 69° | 62km/h | 17233m | -11.1m/s | -53.2°C | 4.0% | 90.7hPa | 2.5V | 02:01:00 | 01:27:12 | 00:00:00 | |
| OM5KV | 2026-08-31 17:33:28 | 48.18936 | 12.23006 | 69° | 60km/h | 17233m | -11.2m/s | -53.3°C | 1.3% | 90.7hPa | 2.6V | 02:01:00 | 00:00:00 | 00:00:00 | |
| DG1MJG | 2026-08-31 17:33:27 | 48.18924 | 12.22964 | 68° | 62km/h | 17258m | -12.9m/s | -53.1°C | 1.4% | 90.4hPa | 2.6V | 02:01:00 | 00:00:00 | 00:00:00 | |
| OE5DRO-10 | 2026-08-31 17:33:26 | 48.18918 | 12.22942 | 66° | 64km/h | 17269m | -10.1m/s | -53.1°C | 4.0% | 90.1hPa | 2.6V | 02:01:00 | 00:00:00 | 00:00:00 | |
| BAUMI2-15 | 2026-08-31 17:33:24 | 48.18904 | 12.22899 | 68° | 66km/h | 17292m | -12.3m/s | -53.2°C | 4.0% | 89.9hPa | 2.7V | 00:00:00 | 01:27:07 | 00:00:00 | |
| OE5MMP-10 | 2026-08-31 17:33:23 | 48.18898 | 12.22876 | 69° | 66km/h | 17305m | -14.7m/s | -53.2°C | 4.0% | 89.7hPa | 2.7V | 00:00:00 | 01:27:06 | 00:00:00 | |
| OM5KV | 2026-08-31 17:33:22 | 48.18898 | 12.22876 | 69° | 64km/h | 17305m | -14.8m/s | -53.3°C | 1.3% | 89.8hPa | 2.7V | 02:01:00 | 00:00:00 | 00:00:00 | |
| DF7PN | 2026-08-31 17:33:21 | 48.18886 | 12.22830 | 71° | 66km/h | 17336m | -14.9m/s | -53.1°C | 1.3% | 89.4hPa | 2.7V | 00:00:00 | 00:00:00 | 00:00:00 | |
| BAUMI2-15 | 2026-08-31 17:33:19 | 48.18875 | 12.22782 | 73° | 53km/h | 17367m | -15.0m/s | -52.5°C | 3.8% | 88.9hPa | 2.7V | 00:00:00 | 01:27:02 | 00:00:00 | |
| DO3MHA-11 | 2026-08-31 17:33:17 | 48.18866 | 12.22734 | 75° | 64km/h | 17396m | -15.7m/s | -52.4°C | 3.8% | 88.5hPa | 2.7V | 02:01:00 | 01:27:00 | 00:00:00 | |
| OM5KV | 2026-08-31 17:33:16 | 48.18866 | 12.22734 | 75° | 66km/h | 17396m | -15.7m/s | -52.4°C | 1.3% | 88.5hPa | 2.6V | 02:01:00 | 00:00:00 | 00:00:00 | |
| OE5WHR-10 | 2026-08-31 17:33:15 | 48.18858 | 12.22686 | 78° | 55km/h | 17424m | -13.5m/s | -52.3°C | 3.7% | 88.1hPa | 2.6V | 02:01:00 | 00:00:00 | 00:00:00 | |
| OE5MMP-10 | 2026-08-31 17:33:13 | 48.18851 | 12.22639 | 78° | 60km/h | 17456m | -16.4m/s | -52.3°C | 3.8% | 87.7hPa | 2.7V | 00:00:00 | 01:26:56 | 00:00:00 | |
| DB0UT-7 | 2026-08-31 17:33:12 | 48.18848 | 12.22615 | 80° | 46km/h | 17472m | -16.5m/s | -52.4°C | 3.8% | 87.5hPa | 2.7V | 00:00:00 | 01:26:55 | 00:00:00 | |
| OM5KV | 2026-08-31 17:33:11 | 48.18847 | 12.22615 | 81° | 64km/h | 17472m | -16.6m/s | -52.4°C | 1.2% | 87.6hPa | 2.7V | 02:01:00 | 00:00:00 | 00:00:00 | |
| DM0DOS-11 | 2026-08-31 17:33:10 | 48.18834 | 12.22460 | 88° | 55km/h | 17579m | -15.3m/s | -52.6°C | 3.8% | 86.1hPa | 2.7V | 02:01:26 | 01:26:48 | 00:00:00 | |
| NBG1-10 | 2026-08-31 17:33:10 | 48.18842 | 12.22568 | 82° | 40km/h | 17502m | -14.9m/s | -52.3°C | 3.8% | 87.0hPa | 2.5V | 00:00:00 | 01:26:53 | 00:00:00 | |
| DO3MHA-11 | 2026-08-31 17:33:07 | 48.18836 | 12.22502 | 84° | 51km/h | 17549m | -14.9m/s | -52.4°C | 3.8% | 86.4hPa | 2.5V | 00:00:00 | 01:26:50 | 00:00:00 | |
| IN3HCDX | 2026-08-31 17:33:06 | 48.18836 | 12.22502 | 85° | 58km/h | 17549m | -14.9m/s | 0°C | 0% | 0hPa | 2.5V | 00:00:00 | 00:00:00 | 00:00:00 | |
| DK5PH-5 | 2026-08-31 17:33:04 | 48.18834 | 12.22439 | 87° | 37km/h | 17596m | -17.3m/s | -52.6°C | 3.8% | 85.8hPa | 2.5V | 00:00:00 | 01:26:47 | 00:00:00 | |
| OE5MMP-10 | 2026-08-31 17:33:03 | 48.18833 | 12.22420 | 89° | 46km/h | 17613m | -17.6m/s | -52.7°C | 3.9% | 85.6hPa | 2.5V | 02:01:00 | 01:26:46 | 00:00:00 | |
| DL6DJ-15 | 2026-08-31 17:33:02 | 48.18833 | 12.22401 | 90° | 47km/h | 17630m | -15.3m/s | -52.8°C | 1.3% | 85.4hPa | 2.7V | 00:00:00 | 00:00:00 | 00:00:00 | |
| OE5DXL-15 | 2026-08-31 17:33:00 | 48.18833 | 12.22366 | 90° | 31km/h | 17659m | -14.7m/s | -52.7°C | 4.0% | 85.0hPa | 2.7V | 00:00:00 | 00:00:00 | 00:00:00 | |
| DM0DOS-11 | 2026-08-31 17:32:59 | 48.18828 | 12.22250 | 88° | 42km/h | 17756m | -12.9m/s | -53°C | 4.1% | 83.7hPa | 2.7V | 02:01:38 | 01:26:36 | 00:00:00 | |
| DF7PN | 2026-08-31 17:32:50 | 48.18828 | 12.22206 | 91° | 35km/h | 17795m | -14.2m/s | -52.8°C | 1.3% | 83.2hPa | 2.7V | 00:00:00 | 00:00:00 | 00:00:00 | |
| DL1ZP-14 | 2026-08-31 17:32:48 | 48.18828 | 12.22170 | 87° | 29km/h | 17838m | -16.5m/s | -52.2°C | 1.2% | 82.7hPa | 2.7V | 00:00:00 | 00:00:00 | 00:00:00 | |
| DO3MHA-11 | 2026-08-31 17:32:47 | 48.18828 | 12.22170 | 88° | 29km/h | 17838m | -16.5m/s | -52.1°C | 3.7% | 82.7hPa | 2.7V | 02:01:00 | 01:26:30 | 00:00:00 | |
| OE5MMP-10 | 2026-08-31 17:32:43 | 48.18826 | 12.22125 | 87° | 24km/h | 17893m | -11.5m/s | -51.8°C | 3.7% | 81.9hPa | 2.7V | 00:00:00 | 01:26:26 | 00:00:00 | |
| DB0UT-7 | 2026-08-31 17:32:42 | 48.18826 | 12.22113 | 91° | 20km/h | 17905m | -12.3m/s | -51.6°C | 3.6% | 81.7hPa | 2.7V | 02:01:00 | 00:00:00 | 00:00:00 | |
| OM5KV | 2026-08-31 17:32:40 | 48.18826 | 12.22102 | 95° | 27km/h | 17917m | -11.9m/s | -51.5°C | 1.2% | 81.6hPa | 2.5V | 00:00:00 | 00:00:00 | 00:00:00 | |
| OE5REO-15 | 2026-08-31 17:32:38 | 48.18827 | 12.22082 | 93° | 26km/h | 17941m | -13.0m/s | -51.5°C | 1.2% | 81.3hPa | 2.5V | 02:02:00 | 00:00:00 | 00:00:00 | |
| DO3MHA-11 | 2026-08-31 17:32:37 | 48.18828 | 12.22064 | 99° | 18km/h | 17966m | -12.0m/s | -51.6°C | 3.5% | 80.9hPa | 2.5V | 00:00:00 | 01:26:20 | 00:00:00 | |
| NBG1-10 | 2026-08-31 17:32:36 | 48.18829 | 12.22056 | 99° | 20km/h | 17978m | -12.9m/s | -51.6°C | 3.5% | 80.8hPa | 2.5V | 00:00:00 | 01:26:19 | 00:00:00 | |
| OM5KV | 2026-08-31 17:32:35 | 48.18829 | 12.22056 | 99° | 20km/h | 17978m | -13.0m/s | -51.6°C | 1.2% | 80.8hPa | 2.5V | 00:00:00 | 00:00:00 | 00:00:00 | |
| DK5PH-5 | 2026-08-31 17:32:34 | 48.18829 | 12.22042 | 91° | 20km/h | 18003m | -11.1m/s | -51.6°C | 3.5% | 80.5hPa | 2.5V | 00:00:00 | 01:26:17 | 00:00:00 | |
| OE5MMP-10 | 2026-08-31 17:32:33 | 48.18829 | 12.22036 | 88° | 18km/h | 18014m | -11.5m/s | -51.7°C | 3.5% | 80.3hPa | 2.5V | 02:01:00 | 01:26:16 | 00:00:00 | |
| OM5KV | 2026-08-31 17:32:32 | 48.18829 | 12.22036 | 88° | 15km/h | 18014m | -11.5m/s | -51.7°C | 1.2% | 80.4hPa | 2.7V | 02:02:00 | 00:00:00 | 00:00:00 | |
| DL6DJ-15 | 2026-08-31 17:32:31 | 48.18829 | 12.22024 | 77° | 16km/h | 18040m | -14.6m/s | -51.8°C | 1.2% | 80.1hPa | 2.7V | 00:00:00 | 00:00:00 | 00:00:00 | |
| OE5DXL-15 | 2026-08-31 17:32:30 | 48.18828 | 12.22018 | 78° | 20km/h | 18055m | -15.7m/s | -51.8°C | 3.5% | 79.9hPa | 2.7V | 02:02:00 | 00:00:00 | 00:00:00 | |
| OE5DRO-10 | 2026-08-31 17:32:29 | 48.18827 | 12.22012 | 78° | 20km/h | 18071m | -16.9m/s | -51.9°C | 3.5% | 79.4hPa | 2.5V | 02:02:00 | 00:00:00 | 00:00:00 | |
| DG1MFX-10 | 2026-08-31 17:32:28 | 48.18827 | 12.22012 | 79° | 16km/h | 18071m | -17.0m/s | -52.0°C | 1.2% | 79.5hPa | 2.5V | 02:02:00 | 00:00:00 | 00:00:00 | |
| DO3MHA-11 | 2026-08-31 17:32:27 | 48.18824 | 12.21999 | 72° | 18km/h | 18103m | -14.5m/s | -52.2°C | 3.5% | 79.3hPa | 2.5V | 00:00:00 | 01:26:10 | 00:00:00 | |
| OM5KV | 2026-08-31 17:32:26 | 48.18824 | 12.21999 | 73° | 18km/h | 18103m | -14.5m/s | -52.2°C | 1.2% | 79.3hPa | 2.5V | 02:02:00 | 00:00:00 | 00:00:00 | |
| DG1MJG | 2026-08-31 17:32:24 | 48.18821 | 12.21985 | 71° | 20km/h | 18130m | -14.7m/s | -52.4°C | 1.2% | 79.0hPa | 2.5V | 02:02:00 | 00:00:00 | 00:00:00 | |
| OM5KV | 2026-08-31 17:32:23 | 48.18817 | 12.21972 | 62° | 18km/h | 18159m | -15.7m/s | -52.6°C | 1.2% | 78.6hPa | 2.5V | 00:00:00 | 00:00:00 | 00:00:00 | |
| IN3HCDX | 2026-08-31 17:32:22 | 48.18817 | 12.21972 | 62° | 18km/h | 18159m | -15.7m/s | 0°C | 0% | 0hPa | 2.5V | 00:00:00 | 00:00:00 | 00:00:00 | |
| OE3JTB-15 | 2026-08-31 17:32:21 | 48.18812 | 12.21962 | 45° | 20km/h | 18194m | -17.2m/s | -52.8°C | 3.6% | 78.2hPa | 2.5V | 00:00:00 | 00:00:00 | 00:00:00 | |
| OM5KV | 2026-08-31 17:32:20 | 48.18812 | 12.21962 | 46° | 16km/h | 18194m | -17.3m/s | -52.9°C | 1.2% | 78.2hPa | 2.5V | 02:02:00 | 00:00:00 | 00:00:00 | |
| DF7PN | 2026-08-31 17:32:19 | 48.18805 | 12.21953 | 36° | 18km/h | 18225m | -15.2m/s | -53.2°C | 1.2% | 77.8hPa | 2.5V | 00:00:00 | 00:00:00 | 00:00:00 | |
| DO3MHA-12 | 2026-08-31 17:32:17 | 48.18797 | 12.21945 | 36° | 24km/h | 18253m | -14.1m/s | -53.4°C | 3.8% | 77.4hPa | 2.5V | 00:00:00 | 01:26:00 | 00:00:00 | |
| OM5KV | 2026-08-31 17:32:16 | 48.18797 | 12.21945 | 36° | 20km/h | 18253m | -14.1m/s | -53.5°C | 1.2% | 77.5hPa | 2.5V | 00:00:00 | 00:00:00 | 00:00:00 | |
| OE5MMP-10 | 2026-08-31 17:32:13 | 48.18780 | 12.21924 | 48° | 24km/h | 18306m | -14.1m/s | -53.8°C | 3.9% | 76.8hPa | 2.5V | 00:00:00 | 01:25:56 | 00:00:00 | |
| DB0UT-7 | 2026-08-31 17:32:12 | 48.18776 | 12.21917 | 50° | 22km/h | 18319m | -13.0m/s | -53.9°C | 4.0% | 76.6hPa | 2.5V | 00:00:00 | 01:25:55 | 00:00:00 | |
| OM5KV | 2026-08-31 17:32:11 | 48.18776 | 12.21917 | 51° | 24km/h | 18319m | -13.1m/s | -54.0°C | 1.3% | 76.7hPa | 2.5V | 00:00:00 | 00:00:00 | 00:00:00 | |
| PETON7-10 | 2026-08-31 17:32:10 | 48.18769 | 12.21903 | 59° | 22km/h | 18345m | -12.3m/s | -54.1°C | 4.1% | 76.3hPa | 2.5V | 02:02:00 | 00:00:00 | 00:00:00 | |
| OM5KV | 2026-08-31 17:32:08 | 48.18766 | 12.21895 | 62° | 24km/h | 18357m | -12.2m/s | -54.3°C | 1.3% | 76.2hPa | 2.7V | 02:02:00 | 00:00:00 | 00:00:00 | |
| DO3MHA-11 | 2026-08-31 17:32:07 | 48.18760 | 12.21878 | 64° | 20km/h | 18381m | -11.9m/s | -54.3°C | 4.2% | 75.9hPa | 2.7V | 00:00:00 | 01:25:50 | 00:00:00 | |
| OE5REO-15 | 2026-08-31 17:32:05 | 48.18758 | 12.21870 | 69° | 24km/h | 18393m | -13.4m/s | -54.2°C | 1.3% | 75.8hPa | 2.7V | 02:03:00 | 00:00:00 | 00:00:00 | |
| DK5PH-5 | 2026-08-31 17:32:04 | 48.18754 | 12.21853 | 74° | 24km/h | 18418m | -12.6m/s | -54.1°C | 4.0% | 75.4hPa | 2.7V | 02:02:00 | 01:25:47 | 00:00:00 | |
| OM5KV | 2026-08-31 17:32:03 | 48.18752 | 12.21845 | 76° | 22km/h | 18431m | -13.6m/s | -54.2°C | 1.3% | 75.4hPa | 2.5V | 02:03:00 | 00:00:00 | 00:00:00 | |
| DF3TZ-5 | 2026-08-31 17:32:02 | 48.18751 | 12.21837 | 77° | 20km/h | 18443m | -12.0m/s | 0°C | -1.0% | -1.0hPa | 2.5V | 00:00:00 | 00:00:00 | 00:00:00 | |
| DM0DOS-11 | 2026-08-31 17:32:01 | 48.18744 | 12.21798 | 64° | 18km/h | 18516m | -11.4m/s | -54.3°C | 4.2% | 74.3hPa | 2.5V | 02:02:35 | 01:25:39 | 00:00:00 | |
| DL6DJ-15 | 2026-08-31 17:32:00 | 48.18749 | 12.21823 | 79° | 16km/h | 18468m | -11.5m/s | -54.3°C | 1.4% | 74.9hPa | 2.7V | 00:00:00 | 00:00:00 | 00:00:00 | |
| DB0ND-19 | 2026-08-31 17:31:57 | 48.18738 | 12.21780 | 63° | 18km/h | 18550m | -10.8m/s | 0°C | -1.0% | -1.0hPa | 2.7V | 00:00:00 | 00:00:00 | 00:00:00 | |
| SONDE2-11 | 2026-08-31 17:31:56 | 48.18736 | 12.21774 | 63° | 16km/h | 18561m | -12.4m/s | -54.1°C | 1.3% | 73.8hPa | 2.7V | 00:00:00 | 00:00:00 | 00:00:00 | |
| PETON7-10 | 2026-08-31 17:31:55 | 48.18742 | 12.21792 | 67° | 22km/h | 18527m | -11.0m/s | -54.2°C | 4.1% | 74.2hPa | 2.7V | 00:00:00 | 00:00:00 | 00:00:00 | |
| OM5KV | 2026-08-31 17:31:54 | 48.18742 | 12.21792 | 67° | 16km/h | 18527m | -11.0m/s | -54.2°C | 1.4% | 74.2hPa | 2.7V | 02:03:00 | 00:00:00 | 00:00:00 | |
| OE5MMP-10 | 2026-08-31 17:31:53 | 48.18738 | 12.21780 | 64° | 26km/h | 18550m | -10.8m/s | -54.1°C | 4.0% | 73.9hPa | 2.7V | 00:00:00 | 01:25:36 | 00:00:00 | |
| OE3JTB-15 | 2026-08-31 17:31:52 | 48.18736 | 12.21774 | 64° | 29km/h | 18561m | -12.3m/s | -54.0°C | 4.0% | 73.8hPa | 2.7V | 00:00:00 | 01:25:35 | 00:00:00 | |
| DM0DOS-11 | 2026-08-31 17:31:51 | 48.18716 | 12.21732 | 51° | 31km/h | 18631m | -12.4m/s | -53.9°C | 3.9% | 73hPa | 2.7V | 02:02:45 | 01:25:29 | 00:00:00 | |
| DF7PN | 2026-08-31 17:31:48 | 48.18725 | 12.21748 | 51° | 24km/h | 18607m | -11.4m/s | -53.9°C | 1.3% | 73.3hPa | 2.7V | 00:00:00 | 00:00:00 | 00:00:00 | |
| DO3MHA-11 | 2026-08-31 17:31:47 | 48.18721 | 12.21740 | 50° | 29km/h | 18619m | -11.8m/s | -53.8°C | 3.9% | 73.1hPa | 2.7V | 02:02:00 | 01:25:30 | 00:00:00 | |
| DG1MFX-10 | 2026-08-31 17:31:46 | 48.18721 | 12.21740 | 50° | 27km/h | 18619m | -11.9m/s | -53.9°C | 1.3% | 73.1hPa | 2.7V | 02:03:00 | 00:00:00 | 00:00:00 | |
| OM5KV | 2026-08-31 17:31:45 | 48.18716 | 12.21732 | 52° | 31km/h | 18631m | -12.4m/s | -53.9°C | 1.3% | 73.0hPa | 2.7V | 02:03:00 | 00:00:00 | 00:00:00 | |
| OE5MMP-10 | 2026-08-31 17:31:43 | 48.18701 | 12.21703 | 54° | 27km/h | 18671m | -13.4m/s | -53.9°C | 3.9% | 72.5hPa | 2.7V | 00:00:00 | 01:25:26 | 00:00:00 | |
| DB0UT-7 | 2026-08-31 17:31:42 | 48.18696 | 12.21694 | 51° | 33km/h | 18685m | -13.3m/s | -54.0°C | 4.0% | 72.4hPa | 2.7V | 00:00:00 | 00:00:00 | 00:00:00 | |
| DM0DOS-11 | 2026-08-31 17:31:41 | 48.18666 | 12.21654 | 36° | 26km/h | 18762m | -13.3m/s | -54.6°C | 4.2% | 71.6hPa | 2.7V | 02:02:55 | 01:25:19 | 00:00:00 | |
| PETON7-10 | 2026-08-31 17:31:40 | 48.18687 | 12.21679 | 45° | 33km/h | 18712m | -13.1m/s | -54.2°C | 4.1% | 72.1hPa | 2.5V | 00:00:00 | 01:25:23 | 00:00:00 | |
| OM5KV | 2026-08-31 17:31:39 | 48.18687 | 12.21679 | 46° | 26km/h | 18712m | -13.1m/s | -54.3°C | 1.3% | 72.1hPa | 2.5V | 02:03:00 | 00:00:00 | 00:00:00 | |
| OM5KV | 2026-08-31 17:31:38 | 48.18682 | 12.21672 | 43° | 26km/h | 18725m | -12.8m/s | -54.3°C | 1.3% | 72.0hPa | 2.5V | 02:03:00 | 00:00:00 | 00:00:00 | |
| DO3MHA-12 | 2026-08-31 17:31:37 | 48.18672 | 12.21660 | 36° | 33km/h | 18750m | -12.1m/s | -54.5°C | 4.2% | 71.7hPa | 2.5V | 00:00:00 | 01:25:20 | 00:00:00 | |
| DK5PH-5 | 2026-08-31 17:31:34 | 48.18656 | 12.21642 | 39° | 33km/h | 18789m | -13.7m/s | -54.8°C | 4.3% | 71.2hPa | 2.5V | 00:00:00 | 01:25:17 | 00:00:00 | |
| OE5MMP-10 | 2026-08-31 17:31:33 | 48.18650 | 12.21635 | 42° | 37km/h | 18804m | -15.5m/s | -54.8°C | 4.3% | 71.1hPa | 2.5V | 02:02:00 | 01:25:16 | 00:00:00 | |
| OM5KV | 2026-08-31 17:31:32 | 48.18644 | 12.21627 | 45° | 31km/h | 18818m | -13.8m/s | -55.0°C | 0% | 71.0hPa | 2.5V | 02:03:00 | 00:00:00 | 00:00:00 | |
| DF3TZ-5 | 2026-08-31 17:31:31 | 48.18638 | 12.21618 | 48° | 33km/h | 18831m | -12.9m/s | 0°C | -1.0% | -1.0hPa | 2.5V | 00:00:00 | 00:00:00 | 00:00:00 | |
| NBG1-10 | 2026-08-31 17:31:30 | 48.18632 | 12.21608 | 50° | 31km/h | 18845m | -13.6m/s | -55.1°C | 4.3% | 70.6hPa | 2.5V | 00:00:00 | 01:25:13 | 00:00:00 | |
| DL6DJ-15 | 2026-08-31 17:31:29 | 48.18626 | 12.21597 | 52° | 38km/h | 18857m | -12.4m/s | -55.2°C | 1.4% | 70.5hPa | 2.5V | 00:00:00 | 00:00:00 | 00:00:00 | |
| DM0DOS-11 | 2026-08-31 17:31:28 | 48.18597 | 12.21522 | 64° | 37km/h | 18934m | -11.5m/s | -54.4°C | 4.1% | 69.7hPa | 2.5V | 02:03:08 | 01:25:06 | 00:00:00 | |
| DO3MHA-11 | 2026-08-31 17:31:27 | 48.18614 | 12.21572 | 57° | 37km/h | 18885m | -13.3m/s | -55.3°C | 4.5% | 70.2hPa | 2.7V | 00:00:00 | 01:25:10 | 00:00:00 | |
| DG1MFX-10 | 2026-08-31 17:31:26 | 48.18614 | 12.21572 | 58° | 40km/h | 18885m | -13.4m/s | -55.3°C | 1.5% | 70.2hPa | 2.7V | 02:03:00 | 00:00:00 | 00:00:00 | |
| SONDE2-11 | 2026-08-31 17:31:25 | 48.18605 | 12.21547 | 62° | 37km/h | 18910m | -12.2m/s | -54.6°C | 1.3% | 69.9hPa | 2.7V | 00:00:00 | 00:00:00 | 00:00:00 | |
| S52SK | 2026-08-31 17:31:24 | 48.18605 | 12.21547 | 63° | 37km/h | 18910m | -12.2m/s | -54.6°C | 1.3% | 69.9hPa | 2.7V | 00:00:00 | 00:00:00 | 00:00:00 | |
| OE5MMP-10 | 2026-08-31 17:31:23 | 48.18597 | 12.21522 | 65° | 35km/h | 18934m | -11.4m/s | -54.4°C | 4.1% | 69.6hPa | 2.7V | 00:00:00 | 01:25:06 | 00:00:00 | |
| PETON7-10 | 2026-08-31 17:31:20 | 48.18584 | 12.21488 | 60° | 33km/h | 18970m | -12.1m/s | -54.4°C | 4.1% | 69.3hPa | 2.7V | 02:03:00 | 00:00:00 | 00:00:00 | |
| EDDB2-11 | 2026-08-31 17:31:19 | 48.18575 | 12.21467 | 53° | 33km/h | 18996m | -12.6m/s | -54.3°C | 1.3% | 69.0hPa | 2.7V | 00:00:00 | 00:00:00 | 00:00:00 | |
| DM0DOS-11 | 2026-08-31 17:31:18 | 48.18553 | 12.21409 | 69° | 35km/h | 19064m | -13.9m/s | -54.3°C | 4.2% | 68.3hPa | 2.7V | 02:03:18 | 01:24:56 | 00:00:00 | |
| DO3MHA-11 | 2026-08-31 17:31:17 | 48.18570 | 12.21456 | 57° | 33km/h | 19009m | -13.0m/s | -54.2°C | 4.1% | 68.8hPa | 2.5V | 02:03:00 | 01:25:00 | 00:00:00 | |
| DL1ZP-14 | 2026-08-31 17:31:15 | 48.18556 | 12.21421 | 64° | 35km/h | 19050m | -13.7m/s | -54.3°C | 1.3% | 68.4hPa | 2.7V | 00:00:00 | 00:00:00 | 00:00:00 | |
| OE5MMP-10 | 2026-08-31 17:31:13 | 48.18553 | 12.21409 | 70° | 27km/h | 19064m | -13.9m/s | -54.3°C | 4.2% | 68.2hPa | 2.5V | 00:00:00 | 01:24:56 | 00:00:00 | |
| DB0UT-7 | 2026-08-31 17:31:12 | 48.18550 | 12.21397 | 73° | 29km/h | 19078m | -12.6m/s | -54.2°C | 4.2% | 68.1hPa | 2.5V | 02:03:00 | 01:24:55 | 00:00:00 | |
| BAUMI2-15 | 2026-08-31 17:31:11 | 48.18548 | 12.21386 | 78° | 27km/h | 19091m | -15.3m/s | -54.2°C | 4.1% | 68.0hPa | 2.5V | 02:03:00 | 01:24:54 | 00:00:00 | |
| OE5WHR-10 | 2026-08-31 17:31:09 | 48.18545 | 12.21363 | 78° | 27km/h | 19122m | -15.5m/s | -54.3°C | 4.1% | 67.7hPa | 2.7V | 02:03:00 | 00:00:00 | 00:00:00 | |
| DM0DOS-11 | 2026-08-31 17:31:08 | 48.18539 | 12.21313 | 69° | 22km/h | 19215m | -16m/s | -54.9°C | 4.3% | 66.8hPa | 2.7V | 02:03:28 | 01:24:46 | 00:00:00 | |
| DO3MHA-11 | 2026-08-31 17:31:07 | 48.18543 | 12.21344 | 85° | 22km/h | 19152m | -13.9m/s | -54.4°C | 4.1% | 67.3hPa | 2.7V | 00:00:00 | 01:24:50 | 00:00:00 | |
| BAUMI2-15 | 2026-08-31 17:31:06 | 48.18542 | 12.21336 | 81° | 22km/h | 19168m | -16.3m/s | -54.5°C | 4.2% | 67.2hPa | 2.7V | 00:00:00 | 01:24:49 | 00:00:00 | |
| S52SK | 2026-08-31 17:31:05 | 48.18542 | 12.21336 | 82° | 24km/h | 19168m | -16.4m/s | -54.6°C | 1.3% | 67.3hPa | 2.7V | 02:04:00 | 00:00:00 | 00:00:00 | |
| DK5PH-5 | 2026-08-31 17:31:04 | 48.18540 | 12.21320 | 81° | 31km/h | 19200m | -14.6m/s | -54.8°C | 4.3% | 66.9hPa | 2.7V | 00:00:00 | 01:24:47 | 00:00:00 | |
| OE5MMP-10 | 2026-08-31 17:31:03 | 48.18539 | 12.21313 | 70° | 26km/h | 19215m | -16.0m/s | -54.8°C | 4.3% | 66.7hPa | 2.7V | 02:03:00 | 01:24:46 | 00:00:00 | |
| DL6DJ-15 | 2026-08-31 17:30:58 | 48.18525 | 12.21274 | 54° | 26km/h | 19297m | -15.6m/s | -54.9°C | 1.4% | 65.9hPa | 2.5V | 00:00:00 | 00:00:00 | 00:00:00 | |
| SONDE2-11 | 2026-08-31 17:30:54 | 48.18505 | 12.21244 | 46° | 29km/h | 19360m | -15.5m/s | -54.4°C | 1.4% | 65.2hPa | 2.5V | 00:00:00 | 00:00:00 | 00:00:00 | |
| EDDB2-11 | 2026-08-31 17:30:48 | 48.18465 | 12.21171 | 54° | 38km/h | 19466m | -14.9m/s | -53.9°C | 1.3% | 64.2hPa | 2.5V | 00:00:00 | 00:00:00 | 00:00:00 | |
| DF7PN | 2026-08-31 17:30:46 | 48.18460 | 12.21159 | 56° | 37km/h | 19482m | -16.5m/s | -53.8°C | 1.2% | 64.1hPa | 2.5V | 00:00:00 | 00:00:00 | 00:00:00 | |
| BAUMI2-15 | 2026-08-31 17:30:45 | 48.18455 | 12.21147 | 60° | 33km/h | 19498m | -15.0m/s | -53.7°C | 3.9% | 63.8hPa | 2.5V | 00:00:00 | 01:24:28 | 00:00:00 | |
| OE5MMP-10 | 2026-08-31 17:30:43 | 48.18445 | 12.21124 | 62° | 29km/h | 19530m | -15.7m/s | -54.0°C | 4.0% | 63.5hPa | 2.5V | 00:00:00 | 01:24:26 | 00:00:00 | |
| DB0UT-7 | 2026-08-31 17:30:42 | 48.18441 | 12.21113 | 64° | 16km/h | 19545m | -13.9m/s | -54.0°C | 4.0% | 63.4hPa | 2.5V | 00:00:00 | 00:00:00 | 00:00:00 | |
| DM0DOS-11 | 2026-08-31 17:30:41 | 48.18432 | 12.21067 | 83° | 31km/h | 19604m | -12.6m/s | -53.8°C | 3.9% | 62.8hPa | 2.5V | 02:03:53 | 01:24:21 | 00:00:00 | |
| S52SK | 2026-08-31 17:30:41 | 48.18438 | 12.21101 | 67° | 33km/h | 19559m | -13.3m/s | -54.1°C | 1.3% | 63.2hPa | 2.7V | 02:04:00 | 00:00:00 | 00:00:00 | |
| DO3MHA-11 | 2026-08-31 17:30:37 | 48.18432 | 12.21056 | 99° | 18km/h | 19618m | -14.6m/s | -53.7°C | 3.9% | 62.6hPa | 2.7V | 00:00:00 | 01:24:20 | 00:00:00 | |
| BAUMI2-15 | 2026-08-31 17:30:36 | 48.18433 | 12.21047 | 103° | 18km/h | 19633m | -14.8m/s | -53.8°C | 4.0% | 62.5hPa | 2.7V | 02:03:00 | 01:24:19 | 00:00:00 | |
| OE5DRO-10 | 2026-08-31 17:30:35 | 48.18434 | 12.21039 | 103° | 15km/h | 19648m | -13.4m/s | -53.9°C | 4.0% | 62.3hPa | 2.5V | 02:03:00 | 00:00:00 | 00:00:00 | |
| DK5PH-5 | 2026-08-31 17:30:34 | 48.18435 | 12.21031 | 102° | 11km/h | 19662m | -14.6m/s | -54.0°C | 4.1% | 62.2hPa | 2.5V | 02:03:00 | 01:24:17 | 00:00:00 | |
| PETON7-10 | 2026-08-31 17:30:33 | 48.18436 | 12.21024 | 105° | 15km/h | 19677m | -14.8m/s | -54.1°C | 4.1% | 62.1hPa | 2.5V | 00:00:00 | 01:24:16 | 00:00:00 | |
| DM0DOS-11 | 2026-08-31 17:30:31 | 48.18438 | 12.20996 | 76° | 13km/h | 19753m | -14.3m/s | -54.6°C | 4.2% | 61.4hPa | 2.5V | 02:04:03 | 01:24:11 | 00:00:00 | |
| OM5KV | 2026-08-31 17:30:30 | 48.18438 | 12.21011 | 102° | 16km/h | 19707m | -14.5m/s | 0°C | 0% | 0hPa | 2.5V | 02:04:00 | 00:00:00 | 00:00:00 | |
| PG1ADW-2 | 2026-08-31 17:30:28 | 48.18438 | 12.20996 | 77° | 9km/h | 19753m | -14.3m/s | -54.5°C | 4.2% | 61.4hPa | 2.5V | 00:00:00 | 00:00:00 | 00:00:00 | |
| DO3MHA-11 | 2026-08-31 17:30:27 | 48.18437 | 12.20991 | 69° | 13km/h | 19768m | -15.4m/s | -54.6°C | 4.3% | 61.2hPa | 2.5V | 00:00:00 | 01:24:10 | 00:00:00 | |
| OE3JTB-15 | 2026-08-31 17:30:25 | 48.18434 | 12.20981 | 69° | 11km/h | 19798m | -13.7m/s | -54.6°C | 4.3% | 60.9hPa | 2.5V | 00:00:00 | 01:24:08 | 00:00:00 | |
| NBG1-10 | 2026-08-31 17:30:24 | 48.18433 | 12.20976 | 79° | 11km/h | 19814m | -16.9m/s | -54.6°C | 4.2% | 60.8hPa | 2.5V | 02:04:00 | 01:24:07 | 00:00:00 | |
| OE5MMP-10 | 2026-08-31 17:30:23 | 48.18432 | 12.20971 | 60° | 11km/h | 19832m | -19.3m/s | -54.6°C | 4.2% | 60.7hPa | 2.5V | 00:00:00 | 01:24:06 | 00:00:00 | |
| BAUMI2-15 | 2026-08-31 17:30:22 | 48.18430 | 12.20967 | 61° | 11km/h | 19851m | -19.4m/s | -54.6°C | 4.2% | 60.5hPa | 2.5V | 00:00:00 | 01:24:05 | 00:00:00 | |
| DM0DOS-11 | 2026-08-31 17:30:21 | 48.18423 | 12.20953 | 46° | 11km/h | 19929m | -18.6m/s | -53.8°C | 3.9% | 59.8hPa | 2.5V | 02:04:13 | 01:24:01 | 00:00:00 | |
| PETON7-10 | 2026-08-31 17:30:18 | 48.18423 | 12.20953 | 47° | 11km/h | 19929m | -18.6m/s | -53.8°C | 3.9% | 59.7hPa | 2.5V | 02:04:00 | 00:00:00 | 00:00:00 | |
| EDDB2-11 | 2026-08-31 17:30:17 | 48.18420 | 12.20949 | 24° | 5km/h | 19964m | -16.3m/s | -53.8°C | 1.2% | 59.4hPa | 2.5V | 00:00:00 | 00:00:00 | 00:00:00 | |
| OE5DRO-10 | 2026-08-31 17:30:16 | 48.18420 | 12.20949 | 25° | 9km/h | 19964m | -16.2m/s | -53.7°C | 3.8% | 59.4hPa | 2.5V | 00:00:00 | 00:00:00 | 00:00:00 | |
| DF7PN | 2026-08-31 17:30:15 | 48.18418 | 12.20948 | 12° | 7km/h | 19980m | -15.7m/s | -53.8°C | 1.2% | 59.3hPa | 2.5V | 00:00:00 | 00:00:00 | 00:00:00 | |
| OE5HKT-10 | 2026-08-31 17:30:14 | 48.18416 | 12.20947 | 31° | 11km/h | 19997m | -18.0m/s | 0°C | 0% | 0hPa | 2.5V | 02:04:00 | 00:00:00 | 00:00:00 | |
| OE5MMP-10 | 2026-08-31 17:30:13 | 48.18415 | 12.20946 | 8° | 7km/h | 20014m | -16.0m/s | -53.9°C | 3.9% | 58.9hPa | 2.5V | 00:00:00 | 01:23:56 | 00:00:00 | |
| BAUMI2-15 | 2026-08-31 17:30:12 | 48.18414 | 12.20945 | 39° | 5km/h | 20030m | -14.8m/s | -54.0°C | 3.9% | 58.7hPa | 2.5V | 00:00:00 | 01:23:55 | 00:00:00 | |
| S52SK | 2026-08-31 17:30:11 | 48.18414 | 12.20945 | 40° | 4km/h | 20030m | -14.8m/s | -54.1°C | 1.2% | 58.8hPa | 2.5V | 02:04:00 | 00:00:00 | 00:00:00 | |
| PG1ADW-2 | 2026-08-31 17:30:08 | 48.18411 | 12.20939 | 75° | 11km/h | 20094m | -16.7m/s | -54.5°C | 4.1% | 58.2hPa | 2.5V | 02:04:00 | 01:23:51 | 00:00:00 | |
| DO3MHA-11 | 2026-08-31 17:30:07 | 48.18410 | 12.20936 | 73° | 13km/h | 20110m | -15.4m/s | -54.6°C | 4.1% | 58.0hPa | 2.7V | 00:00:00 | 01:23:50 | 00:00:00 | |
| OE5WHR-10 | 2026-08-31 17:30:06 | 48.18409 | 12.20933 | 68° | 11km/h | 20124m | -12.9m/s | -54.7°C | 4.2% | 57.9hPa | 2.7V | 02:04:00 | 00:00:00 | 00:00:00 | |
| DG1MFX-10 | 2026-08-31 17:30:05 | 48.18409 | 12.20933 | 68° | 11km/h | 20124m | -13.0m/s | -54.8°C | 1.3% | 57.9hPa | 2.5V | 02:04:00 | 00:00:00 | 00:00:00 | |
| DK5PH-5 | 2026-08-31 17:30:04 | 48.18407 | 12.20925 | 62° | 11km/h | 20153m | -14.0m/s | -54.6°C | 4.1% | 57.6hPa | 2.5V | 00:00:00 | 01:23:47 | 00:00:00 | |
| BAUMI2-15 | 2026-08-31 17:30:02 | 48.18403 | 12.20917 | 48° | 15km/h | 20183m | -15.1m/s | -54.6°C | 4.1% | 57.4hPa | 2.5V | 02:04:00 | 01:23:45 | 00:00:00 | |
| DM0DOS-11 | 2026-08-31 17:30:01 | 48.18396 | 12.20906 | 46° | 13km/h | 20233m | -17.1m/s | -54.7°C | 4.1% | 57hPa | 2.7V | 02:04:32 | 01:23:42 | 00:00:00 | |
| SONCRA | 2026-08-31 17:29:58 | 48.18385 | 12.20898 | 4° | 11km/h | 20302m | -18.2m/s | -54.9°C | -1.0% | -1.0hPa | 2.5V | 00:00:00 | 00:00:00 | 00:00:00 | |
| DO3MHA-12 | 2026-08-31 17:29:57 | 48.18390 | 12.20901 | 17° | 11km/h | 20265m | -15.1m/s | -54.6°C | 4.1% | 56.6hPa | 2.5V | 02:04:00 | 01:23:40 | 00:00:00 | |
| OE3JTB-15 | 2026-08-31 17:29:56 | 48.18388 | 12.20899 | 22° | 13km/h | 20284m | -19.2m/s | -54.7°C | 4.1% | 56.5hPa | 2.5V | 02:04:00 | 00:00:00 | 00:00:00 | |
| OE5MMP-10 | 2026-08-31 17:29:53 | 48.18379 | 12.20899 | 346° | 9km/h | 20340m | -17.6m/s | -55.0°C | 4.3% | 56.0hPa | 2.7V | 00:00:00 | 01:23:36 | 00:00:00 | |
| BAUMI2-15 | 2026-08-31 17:29:52 | 48.18377 | 12.20900 | 349° | 11km/h | 20356m | -14.8m/s | -55.2°C | 4.4% | 55.8hPa | 2.7V | 00:00:00 | 01:23:35 | 00:00:00 | |
| DM0DOS-11 | 2026-08-31 17:29:51 | 48.18369 | 12.20900 | 15° | 9km/h | 20398m | -15.5m/s | -55.1°C | 4.4% | 55.5hPa | 2.7V | 02:04:42 | 01:23:32 | 00:00:00 | |
| NBG1-10 | 2026-08-31 17:29:51 | 48.18375 | 12.20900 | 4° | 15km/h | 20370m | -12.8m/s | -55.2°C | 4.4% | 55.7hPa | 2.5V | 00:00:00 | 01:23:34 | 00:00:00 | |
| PG1ADW-2 | 2026-08-31 17:29:48 | 48.18367 | 12.20899 | 8° | 13km/h | 20414m | -16.8m/s | -54.9°C | 4.3% | 55.3hPa | 2.5V | 00:00:00 | 00:00:00 | 00:00:00 | |
| DO3MHA-11 | 2026-08-31 17:29:47 | 48.18364 | 12.20898 | 19° | 11km/h | 20431m | -17.1m/s | -54.9°C | 4.2% | 55.2hPa | 2.5V | 02:04:00 | 01:23:30 | 00:00:00 | |
| OE8JPQ-2 | 2026-08-31 17:29:46 | 48.18361 | 12.20896 | 29° | 15km/h | 20448m | -18.0m/s | 0°C | 0% | 0hPa | 2.7V | 00:00:00 | 01:23:29 | 00:00:00 | |
| OE5WHR-10 | 2026-08-31 17:29:45 | 48.18359 | 12.20895 | 18° | 15km/h | 20466m | -18.0m/s | -55.1°C | 4.3% | 54.9hPa | 2.7V | 00:00:00 | 00:00:00 | 00:00:00 | |
| DF7PN | 2026-08-31 17:29:44 | 48.18357 | 12.20894 | 22° | 7km/h | 20484m | -19.1m/s | -55.2°C | 1.3% | 54.8hPa | 2.7V | 00:00:00 | 00:00:00 | 00:00:00 | |
| OE5MMP-10 | 2026-08-31 17:29:43 | 48.18355 | 12.20893 | 11° | 13km/h | 20504m | -20.3m/s | -55.2°C | 4.3% | 54.6hPa | 2.7V | 00:00:00 | 01:23:26 | 00:00:00 | |
| PETON7-10 | 2026-08-31 17:29:42 | 48.18352 | 12.20892 | 23° | 15km/h | 20525m | -22.2m/s | -55.2°C | 4.2% | 54.4hPa | 2.7V | 00:00:00 | 01:23:25 | 00:00:00 | |
| DM0DOS-11 | 2026-08-31 17:29:41 | 48.18344 | 12.20887 | 26° | 15km/h | 20585m | -20.3m/s | -55.3°C | 4.3% | 54hPa | 2.7V | 02:04:52 | 01:23:22 | 00:00:00 | |
| S52SK | 2026-08-31 17:29:39 | 48.18347 | 12.20889 | 34° | 11km/h | 20565m | -18.8m/s | -55.3°C | 1.3% | 54.1hPa | 2.7V | 02:04:00 | 00:00:00 | 00:00:00 | |
| OE5DRO-10 | 2026-08-31 17:29:38 | 48.18341 | 12.20885 | 25° | 16km/h | 20605m | -19.4m/s | -55.3°C | 4.3% | 53.7hPa | 2.7V | 02:04:00 | 00:00:00 | 00:00:00 | |
| DO3MHA-12 | 2026-08-31 17:29:37 | 48.18338 | 12.20882 | 39° | 16km/h | 20625m | -20.6m/s | -55.3°C | 4.4% | 53.6hPa | 2.5V | 00:00:00 | 01:23:20 | 00:00:00 | |
| DK5PH-5 | 2026-08-31 17:29:34 | 48.18328 | 12.20874 | 24° | 15km/h | 20680m | -16.7m/s | -55.2°C | 4.4% | 53.1hPa | 2.5V | 00:00:00 | 01:23:17 | 00:00:00 | |
| S52SK | 2026-08-31 17:29:33 | 48.18328 | 12.20874 | 24° | 16km/h | 20680m | -16.8m/s | -55.3°C | 1.4% | 53.1hPa | 2.5V | 02:05:00 | 00:00:00 | 00:00:00 | |
| OE5DXL-15 | 2026-08-31 17:29:30 | 48.18312 | 12.20861 | 35° | 16km/h | 20747m | -16.6m/s | -55.3°C | 4.5% | 52.5hPa | 2.5V | 02:05:00 | 00:00:00 | 00:00:00 | |
| PG1ADW-2 | 2026-08-31 17:29:28 | 48.18304 | 12.20853 | 31° | 15km/h | 20779m | -16.3m/s | -55.3°C | 4.5% | 52.2hPa | 2.5V | 00:00:00 | 00:00:00 | 00:00:00 | |
| DO3MHA-11 | 2026-08-31 17:29:27 | 48.18300 | 12.20850 | 26° | 16km/h | 20795m | -15.2m/s | -55.2°C | 4.5% | 52.1hPa | 2.5V | 00:00:00 | 01:23:10 | 00:00:00 | |
| OE8JPQ-2 | 2026-08-31 17:29:26 | 48.18296 | 12.20847 | 30° | 16km/h | 20812m | -17.8m/s | 0°C | 0% | 0hPa | 2.5V | 00:00:00 | 00:00:00 | 00:00:00 | |
| DL6DJ-15 | 2026-08-31 17:29:25 | 48.18289 | 12.20840 | 31° | 16km/h | 20846m | -17.1m/s | -55.1°C | 1.4% | 51.8hPa | 2.5V | 00:00:00 | 00:00:00 | 00:00:00 | |
| OE5WHR-10 | 2026-08-31 17:29:24 | 48.18288 | 12.20840 | 32° | 15km/h | 20846m | -17.1m/s | -55.1°C | 4.4% | 51.7hPa | 2.5V | 00:00:00 | 01:23:07 | 00:00:00 | |
| OE5MMP-10 | 2026-08-31 17:29:23 | 48.18285 | 12.20837 | 37° | 15km/h | 20865m | -19.7m/s | -55.0°C | 4.3% | 51.6hPa | 2.5V | 00:00:00 | 01:23:06 | 00:00:00 | |
| SONDE2-11 | 2026-08-31 17:29:21 | 48.18276 | 12.20825 | 52° | 16km/h | 20920m | -19.8m/s | -55.0°C | 1.3% | 51.2hPa | 2.5V | 00:00:00 | 00:00:00 | 00:00:00 | |
| DM0DOS-11 | 2026-08-31 17:29:20 | 48.18263 | 12.20805 | 50° | 11km/h | 21007m | -16.9m/s | -54.8°C | 4.3% | 50.5hPa | 2.5V | 02:05:16 | 01:22:58 | 00:00:00 | |
| OE5DRO-10 | 2026-08-31 17:29:19 | 48.18273 | 12.20820 | 44° | 15km/h | 20939m | -17.8m/s | -54.9°C | 4.3% | 51.0hPa | 2.5V | 00:00:00 | 00:00:00 | 00:00:00 | |
| NBG1-10 | 2026-08-31 17:29:18 | 48.18270 | 12.20816 | 43° | 18km/h | 20956m | -17.3m/s | -54.8°C | 4.3% | 50.8hPa | 2.5V | 00:00:00 | 01:23:01 | 00:00:00 | |
| DO3MHA-11 | 2026-08-31 17:29:17 | 48.18267 | 12.20812 | 46° | 13km/h | 20973m | -16.8m/s | -54.7°C | 4.2% | 50.7hPa | 2.5V | 02:05:00 | 01:23:00 | 00:00:00 | |
| OE5REO-15 | 2026-08-31 17:29:16 | 48.18267 | 12.20812 | 47° | 13km/h | 20973m | -16.8m/s | -54.8°C | 1.3% | 50.7hPa | 2.5V | 02:05:00 | 00:00:00 | 00:00:00 | |
| EDDB2-11 | 2026-08-31 17:29:15 | 48.18261 | 12.20803 | 50° | 9km/h | 21023m | -15.3m/s | -54.9°C | 1.3% | 50.3hPa | 2.5V | 00:00:00 | 00:00:00 | 00:00:00 | |
| OE5MMP-10 | 2026-08-31 17:29:13 | 48.18260 | 12.20799 | 53° | 15km/h | 21038m | -16.1m/s | -54.9°C | 4.4% | 50.2hPa | 2.5V | 00:00:00 | 01:22:56 | 00:00:00 | |
| PETON7-10 | 2026-08-31 17:29:12 | 48.18258 | 12.20796 | 54° | 18km/h | 21053m | -15.0m/s | -54.9°C | 4.4% | 50.1hPa | 2.5V | 00:00:00 | 00:00:00 | 00:00:00 | |
| S52SK | 2026-08-31 17:29:11 | 48.18258 | 12.20796 | 54° | 13km/h | 21053m | -15.0m/s | -54.9°C | 1.3% | 50.1hPa | 2.5V | 02:05:00 | 00:00:00 | 00:00:00 | |
| DL1ZP-14 | 2026-08-31 17:29:10 | 48.18253 | 12.20787 | 54° | 13km/h | 21085m | -13.6m/s | -54.7°C | 1.4% | 49.8hPa | 2.5V | 00:00:00 | 00:00:00 | 00:00:00 | |
| PG1ADW-2 | 2026-08-31 17:29:08 | 48.18249 | 12.20779 | 47° | 22km/h | 21112m | -12.7m/s | -54.5°C | 4.3% | 49.6hPa | 2.7V | 02:05:00 | 00:00:00 | 00:00:00 | |
| DO3MHA-11 | 2026-08-31 17:29:07 | 48.18246 | 12.20776 | 40° | 22km/h | 21125m | -14.1m/s | -54.4°C | 4.3% | 49.5hPa | 2.5V | 00:00:00 | 01:22:50 | 00:00:00 | |
| OE8JPQ-2 | 2026-08-31 17:29:06 | 48.18243 | 12.20772 | 32° | 20km/h | 21139m | -14.6m/s | 0°C | 0% | 0hPa | 2.5V | 00:00:00 | 00:00:00 | 00:00:00 | |
| S52SK | 2026-08-31 17:29:05 | 48.18243 | 12.20772 | 33° | 16km/h | 21139m | -14.7m/s | -54.4°C | 1.3% | 49.4hPa | 2.5V | 02:05:00 | 00:00:00 | 00:00:00 | |
| DK5PH-5 | 2026-08-31 17:29:04 | 48.18235 | 12.20767 | 17° | 18km/h | 21173m | -16.5m/s | -54.4°C | 4.2% | 49.2hPa | 2.5V | 02:05:00 | 01:22:47 | 00:00:00 | |
| OE5WHR-10 | 2026-08-31 17:29:03 | 48.18230 | 12.20765 | 21° | 22km/h | 21190m | -17.5m/s | -54.5°C | 4.3% | 49.0hPa | 2.7V | 02:05:00 | 00:00:00 | 00:00:00 | |
| DG1MFX-10 | 2026-08-31 17:29:02 | 48.18230 | 12.20765 | 21° | 18km/h | 21190m | -17.6m/s | -54.5°C | 1.4% | 49.0hPa | 2.7V | 02:05:00 | 00:00:00 | 00:00:00 | |
| DM0DOS-11 | 2026-08-31 17:29:01 | 48.18197 | 12.20743 | 33° | 26km/h | 21292m | -16.4m/s | -54.5°C | 4.4% | 48.2hPa | 2.7V | 02:05:34 | 01:22:40 | 00:00:00 | |
| SONCRA | 2026-08-31 17:28:56 | 48.18192 | 12.20737 | 40° | 22km/h | 21308m | -15.2m/s | -54.5°C | -1.0% | -1.0hPa | 2.7V | 00:00:00 | 00:00:00 | 00:00:00 | |
| DL6DJ-15 | 2026-08-31 17:28:54 | 48.18179 | 12.20719 | 44° | 24km/h | 21349m | -12.6m/s | -54.4°C | 1.4% | 47.8hPa | 2.7V | 00:00:00 | 00:00:00 | 00:00:00 | |
| OE5MMP-10 | 2026-08-31 17:28:53 | 48.18179 | 12.20719 | 45° | 20km/h | 21349m | -12.5m/s | -54.3°C | 4.4% | 47.7hPa | 2.7V | 00:00:00 | 01:22:36 | 00:00:00 | |
| DM0DOS-11 | 2026-08-31 17:28:51 | 48.18158 | 12.20677 | 57° | 18km/h | 21443m | -15.8m/s | -53.7°C | 4.1% | 47.1hPa | 2.7V | 02:05:44 | 01:22:30 | 00:00:00 | |
| SONDE2-11 | 2026-08-31 17:28:50 | 48.18163 | 12.20690 | 54° | 22km/h | 21407m | -17.8m/s | -53.7°C | 1.3% | 47.4hPa | 2.7V | 00:00:00 | 00:00:00 | 00:00:00 | |
| PG1ADW-2 | 2026-08-31 17:28:48 | 48.18160 | 12.20683 | 58° | 9km/h | 21426m | -18.9m/s | -53.6°C | 4.1% | 47.2hPa | 2.7V | 00:00:00 | 01:22:31 | 00:00:00 | |
| DO3MHA-11 | 2026-08-31 17:28:47 | 48.18158 | 12.20677 | 58° | 11km/h | 21443m | -15.7m/s | -53.6°C | 4.1% | 47.1hPa | 2.7V | 02:05:00 | 01:22:30 | 00:00:00 | |
| NBG1-10 | 2026-08-31 17:28:45 | 48.18154 | 12.20666 | 68° | 9km/h | 21469m | -12.5m/s | -53.5°C | 4.0% | 46.9hPa | 2.5V | 02:05:00 | 01:22:28 | 00:00:00 | |
| EDDB2-11 | 2026-08-31 17:28:44 | 48.18152 | 12.20658 | 80° | 7km/h | 21500m | -16.1m/s | -53.4°C | 1.1% | 46.7hPa | 2.7V | 00:00:00 | 00:00:00 | 00:00:00 | |
| OE5MMP-10 | 2026-08-31 17:28:43 | 48.18152 | 12.20658 | 81° | 7km/h | 21500m | -16.0m/s | -53.4°C | 3.8% | 46.6hPa | 2.7V | 00:00:00 | 01:22:26 | 00:00:00 | |
| PETON7-10 | 2026-08-31 17:28:42 | 48.18152 | 12.20655 | 86° | 5km/h | 21514m | -12.8m/s | -53.4°C | 3.8% | 46.5hPa | 2.7V | 02:05:00 | 00:00:00 | 00:00:00 | |
| DM0DOS-11 | 2026-08-31 17:28:41 | 48.18154 | 12.20643 | 97° | 7km/h | 21574m | -7.7m/s | -53.3°C | 4% | 46.1hPa | 2.7V | 02:05:54 | 01:22:20 | 00:00:00 | |
| OE5DRO-10 | 2026-08-31 17:28:41 | 48.18152 | 12.20653 | 109° | 5km/h | 21526m | -11.4m/s | -53.4°C | 3.9% | 46.4hPa | 2.7V | 02:05:00 | 00:00:00 | 00:00:00 | |
| DL1ZP-14 | 2026-08-31 17:28:39 | 48.18153 | 12.20649 | 105° | 5km/h | 21549m | -9.4m/s | -53.4°C | 1.2% | 46.3hPa | 2.5V | 00:00:00 | 00:00:00 | 00:00:00 | |
| S52SK | 2026-08-31 17:28:37 | 48.18154 | 12.20643 | 98° | 7km/h | 21574m | -7.7m/s | -53.3°C | 1.2% | 46.1hPa | 2.5V | 02:06:00 | 00:00:00 | 00:00:00 | |
| DK5PH-5 | 2026-08-31 17:28:34 | 48.18153 | 12.20636 | 60° | 15km/h | 21568m | 5.7m/s | -53.4°C | 4.0% | 46.1hPa | 2.5V | 00:00:00 | 01:22:17 | 00:00:00 | |
| OE5MMP-10 | 2026-08-31 17:28:33 | 48.18153 | 12.20635 | 47° | 5km/h | 21563m | 4.5m/s | -53.4°C | 4.0% | 46.1hPa | 2.5V | 02:05:00 | 01:22:16 | 00:00:00 | |
| DM0DOS-11 | 2026-08-31 17:28:31 | 48.18151 | 12.20624 | 51° | 5km/h | 21533m | 4.4m/s | -53.4°C | 3.9% | 46.4hPa | 2.5V | 02:06:04 | 01:22:10 | 00:00:00 | |
| OE5DXL-15 | 2026-08-31 17:28:30 | 48.18151 | 12.20630 | 91° | 16km/h | 21548m | 4.3m/s | -53.3°C | 4.0% | 46.2hPa | 2.7V | 00:00:00 | 00:00:00 | 00:00:00 | |
| OE5REO-15 | 2026-08-31 17:28:29 | 48.18151 | 12.20628 | 88° | 5km/h | 21544m | 4.3m/s | -53.4°C | 1.2% | 46.3hPa | 2.7V | 02:06:00 | 00:00:00 | 00:00:00 | |
| PG1ADW-2 | 2026-08-31 17:28:28 | 48.18151 | 12.20626 | 69° | 15km/h | 21539m | 5.6m/s | -53.3°C | 4.0% | 46.3hPa | 2.7V | 00:00:00 | 00:00:00 | 00:00:00 | |
| PETON7-10 | 2026-08-31 17:28:27 | 48.18151 | 12.20624 | 52° | 13km/h | 21534m | 4.3m/s | -53.3°C | 3.9% | 46.4hPa | 2.7V | 00:00:00 | 00:00:00 | 00:00:00 | |
| DO3MHA-12 | 2026-08-31 17:28:26 | 48.18150 | 12.20622 | 52° | 13km/h | 21529m | 4.7m/s | -53.4°C | 3.9% | 46.4hPa | 2.7V | 02:06:00 | 01:22:09 | 00:00:00 | |
| SONCRA | 2026-08-31 17:28:25 | 48.18149 | 12.20621 | 69° | 5km/h | 21523m | 6.1m/s | 0°C | -1.0% | -1.0hPa | 2.5V | 00:00:00 | 00:00:00 | 00:00:00 | |
| DB0NH | 2026-08-31 17:28:24 | 48.18148 | 12.20618 | 70° | 20km/h | 21518m | 4.5m/s | -53.3°C | 3.9% | 46.5hPa | 2.5V | 00:00:00 | 01:22:07 | 00:00:00 | |
| DL6DJ-15 | 2026-08-31 17:28:23 | 48.18146 | 12.20612 | 46° | 11km/h | 21508m | 5.5m/s | -53.4°C | 1.2% | 46.6hPa | 2.5V | 00:00:00 | 00:00:00 | 00:00:00 | |
| OE5DRO-10 | 2026-08-31 17:28:22 | 48.18146 | 12.20612 | 47° | 20km/h | 21508m | 5.4m/s | -53.4°C | 3.9% | 46.6hPa | 2.5V | 00:00:00 | 00:00:00 | 00:00:00 | |
| DM0DOS-11 | 2026-08-31 17:28:21 | 48.18134 | 12.20588 | 59° | 18km/h | 21484m | 5.8m/s | -53.6°C | 4% | 46.8hPa | 2.5V | 02:06:14 | 01:22:00 | 00:00:00 | |
| OE8JPQ-2 | 2026-08-31 17:28:21 | 48.18143 | 12.20608 | 46° | 16km/h | 21504m | 4.1m/s | 0°C | 0% | 0hPa | 2.5V | 00:00:00 | 00:00:00 | 00:00:00 | |
| DG1MFX-10 | 2026-08-31 17:28:20 | 48.18143 | 12.20608 | 46° | 15km/h | 21504m | 4.1m/s | -53.5°C | 1.3% | 46.6hPa | 2.5V | 02:06:00 | 00:00:00 | 00:00:00 | |
| SONDE2-11 | 2026-08-31 17:28:19 | 48.18136 | 12.20593 | 62° | 16km/h | 21489m | 4.3m/s | -53.6°C | 1.2% | 46.7hPa | 2.5V | 00:00:00 | 00:00:00 | 00:00:00 | |
| DO3MHA-11 | 2026-08-31 17:28:17 | 48.18134 | 12.20588 | 60° | 20km/h | 21484m | 5.7m/s | -53.5°C | 4.0% | 46.7hPa | 2.5V | 02:06:00 | 01:22:00 | 00:00:00 | |
| DO3MHA-12 | 2026-08-31 17:28:16 | 48.18132 | 12.20582 | 58° | 20km/h | 21479m | 4.8m/s | -53.5°C | 3.9% | 46.8hPa | 2.5V | 00:00:00 | 01:21:59 | 00:00:00 | |
| OE5MMP-10 | 2026-08-31 17:28:13 | 48.18126 | 12.20563 | 79° | 22km/h | 21463m | 4.8m/s | -53.5°C | 4.0% | 46.8hPa | 2.5V | 00:00:00 | 01:21:56 | 00:00:00 | |
| PETON7-10 | 2026-08-31 17:28:12 | 48.18125 | 12.20556 | 80° | 20km/h | 21459m | 4.0m/s | -53.5°C | 4.0% | 46.9hPa | 2.5V | 00:00:00 | 01:21:55 | 00:00:00 | |
| DM0DOS-11 | 2026-08-31 17:28:11 | 48.18115 | 12.20518 | 59° | 24km/h | 21433m | 4.5m/s | -53.6°C | 3.9% | 47.1hPa | 2.5V | 02:06:24 | 01:21:50 | 00:00:00 | |
| DF7PN | 2026-08-31 17:28:11 | 48.18123 | 12.20542 | 67° | 20km/h | 21448m | 4.8m/s | -53.6°C | 1.2% | 47.0hPa | 2.5V | 00:00:00 | 00:00:00 | 00:00:00 | |
| S52SK | 2026-08-31 17:28:08 | 48.18118 | 12.20526 | 67° | 24km/h | 21438m | 4.5m/s | -53.6°C | 1.2% | 47.1hPa | 2.5V | 02:06:00 | 00:00:00 | 00:00:00 | |
| DO3MHA-11 | 2026-08-31 17:28:07 | 48.18115 | 12.20518 | 60° | 22km/h | 21433m | 4.5m/s | -53.5°C | 3.9% | 47.1hPa | 2.5V | 00:00:00 | 01:21:50 | 00:00:00 | |
| DO3MHA-12 | 2026-08-31 17:28:06 | 48.18112 | 12.20510 | 52° | 22km/h | 21428m | 5.6m/s | -53.6°C | 3.9% | 47.1hPa | 2.5V | 00:00:00 | 01:21:49 | 00:00:00 | |
| DK5PH-5 | 2026-08-31 17:28:04 | 48.18104 | 12.20498 | 44° | 24km/h | 21418m | 5.2m/s | -53.6°C | 4.0% | 47.2hPa | 2.5V | 00:00:00 | 01:21:47 | 00:00:00 | |
| OE5MMP-10 | 2026-08-31 17:28:03 | 48.18101 | 12.20493 | 48° | 22km/h | 21413m | 5.2m/s | -53.6°C | 3.9% | 47.2hPa | 2.5V | 02:06:00 | 01:21:46 | 00:00:00 | |
| DM0DOS-11 | 2026-08-31 17:28:01 | 48.18081 | 12.20458 | 55° | 26km/h | 21382m | 5.2m/s | -54.2°C | 4% | 47.5hPa | 2.5V | 02:06:34 | 01:21:40 | 00:00:00 | |
| DL6DJ-15 | 2026-08-31 17:27:52 | 48.18054 | 12.20418 | 37° | 22km/h | 21351m | 4.0m/s | -54.4°C | 1.3% | 47.7hPa | 2.5V | 00:00:00 | 00:00:00 | 00:00:00 | |
| DM0DOS-11 | 2026-08-31 17:27:51 | 48.18033 | 12.20401 | 23° | 24km/h | 21332m | 4.7m/s | -54.5°C | 4.1% | 47.9hPa | 2.5V | 02:06:44 | 01:21:30 | 00:00:00 | |
| SONDE2-11 | 2026-08-31 17:27:48 | 48.18033 | 12.20401 | 23° | 24km/h | 21332m | 4.7m/s | -54.5°C | 1.3% | 47.9hPa | 2.5V | 00:00:00 | 00:00:00 | 00:00:00 | |
| DO3MHA-11 | 2026-08-31 17:27:47 | 48.18033 | 12.20401 | 24° | 26km/h | 21332m | 4.6m/s | -54.4°C | 4.1% | 47.8hPa | 2.5V | 02:06:00 | 01:21:30 | 00:00:00 | |
| DO3MHA-12 | 2026-08-31 17:27:46 | 48.18028 | 12.20397 | 29° | 26km/h | 21327m | 5.6m/s | -54.5°C | 4.2% | 47.8hPa | 2.7V | 00:00:00 | 01:21:29 | 00:00:00 | |
| OE5DRO-10 | 2026-08-31 17:27:44 | 48.18017 | 12.20388 | 31° | 22km/h | 21316m | 5.7m/s | -54.5°C | 4.2% | 47.9hPa | 2.7V | 02:06:00 | 00:00:00 | 00:00:00 | |
| OE5MMP-10 | 2026-08-31 17:27:43 | 48.18011 | 12.20382 | 29° | 24km/h | 21311m | 4.9m/s | -54.5°C | 4.3% | 48.0hPa | 2.5V | 00:00:00 | 01:21:26 | 00:00:00 | |
| PETON7-10 | 2026-08-31 17:27:42 | 48.18005 | 12.20377 | 29° | 22km/h | 21307m | 4.0m/s | -54.6°C | 4.3% | 48.0hPa | 2.5V | 00:00:00 | 00:00:00 | 00:00:00 | |
| DM0DOS-11 | 2026-08-31 17:27:41 | 48.17978 | 12.20356 | 20° | 22km/h | 21281m | 4.6m/s | -54.6°C | 4.2% | 48.2hPa | 2.5V | 02:06:54 | 01:21:20 | 00:00:00 | |
| DF7PN | 2026-08-31 17:27:40 | 48.17988 | 12.20363 | 28° | 22km/h | 21291m | 4.5m/s | -54.6°C | 1.3% | 48.2hPa | 2.7V | 00:00:00 | 00:00:00 | 00:00:00 | |
| NBG1-10 | 2026-08-31 17:27:39 | 48.17988 | 12.20362 | 29° | 18km/h | 21292m | 4.4m/s | -54.6°C | 4.2% | 48.1hPa | 2.7V | 00:00:00 | 01:21:22 | 00:00:00 | |
| S52SK | 2026-08-31 17:27:38 | 48.17988 | 12.20362 | 29° | 22km/h | 21292m | 4.5m/s | -54.6°C | 1.3% | 48.2hPa | 2.7V | 00:00:00 | 00:00:00 | 00:00:00 | |
| DO3MHA-11 | 2026-08-31 17:27:37 | 48.17977 | 12.20356 | 21° | 22km/h | 21281m | 4.6m/s | -54.6°C | 4.2% | 48.2hPa | 2.7V | 00:00:00 | 01:21:20 | 00:00:00 | |
| DO3MHA-12 | 2026-08-31 17:27:36 | 48.17973 | 12.20353 | 22° | 20km/h | 21277m | 5.0m/s | -54.6°C | 4.2% | 48.2hPa | 2.7V | 00:00:00 | 01:21:19 | 00:00:00 | |
| DK5PH-5 | 2026-08-31 17:27:34 | 48.17964 | 12.20346 | 29° | 18km/h | 21266m | 4.1m/s | -54.5°C | 4.2% | 48.3hPa | 2.7V | 02:06:00 | 01:21:17 | 00:00:00 | |
| OE5MMP-10 | 2026-08-31 17:27:33 | 48.17960 | 12.20343 | 26° | 18km/h | 21262m | 4.9m/s | -54.5°C | 4.2% | 48.3hPa | 2.7V | 02:06:00 | 01:21:16 | 00:00:00 | |
| S52SK | 2026-08-31 17:27:32 | 48.17960 | 12.20343 | 27° | 20km/h | 21262m | 5.0m/s | -54.5°C | 1.3% | 48.4hPa | 2.7V | 00:00:00 | 00:00:00 | 00:00:00 | |
| OE3JTB-15 | 2026-08-31 17:27:31 | 48.17949 | 12.20337 | 22° | 16km/h | 21252m | 4.0m/s | -54.4°C | 4.3% | 48.4hPa | 2.7V | 00:00:00 | 01:21:14 | 00:00:00 | |
| DM0DOS-11 | 2026-08-31 17:27:30 | 48.17930 | 12.20323 | 25° | 16km/h | 21231m | 4.9m/s | -54.5°C | 4.1% | 48.6hPa | 2.7V | 02:07:04 | 01:21:10 | 00:00:00 | |
| OE5DXL-15 | 2026-08-31 17:27:30 | 48.17944 | 12.20333 | 23° | 16km/h | 21247m | 5.0m/s | -54.5°C | 4.3% | 48.5hPa | 2.5V | 00:00:00 | 00:00:00 | 00:00:00 | |
| PG1ADW-2 | 2026-08-31 17:27:28 | 48.17934 | 12.20326 | 30° | 16km/h | 21236m | 4.8m/s | -54.4°C | 4.2% | 48.6hPa | 2.5V | 00:00:00 | 01:21:11 | 00:00:00 | |
| DO3MHA-11 | 2026-08-31 17:27:27 | 48.17930 | 12.20323 | 26° | 13km/h | 21231m | 4.8m/s | -54.4°C | 4.1% | 48.6hPa | 2.5V | 00:00:00 | 01:21:10 | 00:00:00 | |
| DO3MHA-12 | 2026-08-31 17:27:26 | 48.17926 | 12.20321 | 17° | 13km/h | 21226m | 5.8m/s | -54.4°C | 4.1% | 48.6hPa | 2.5V | 02:07:00 | 01:21:09 | 00:00:00 | |
| OE5DRO-10 | 2026-08-31 17:27:25 | 48.17922 | 12.20319 | 8° | 16km/h | 21221m | 4.0m/s | -54.4°C | 4.1% | 48.7hPa | 2.7V | 00:00:00 | 00:00:00 | 00:00:00 | |
| DB0NH | 2026-08-31 17:27:24 | 48.17919 | 12.20319 | 6° | 15km/h | 21217m | 4.6m/s | -54.5°C | 4.1% | 48.7hPa | 2.7V | 00:00:00 | 01:21:07 | 00:00:00 | |
| OE5MMP-10 | 2026-08-31 17:27:23 | 48.17916 | 12.20318 | 11° | 15km/h | 21211m | 5.7m/s | -54.4°C | 4.1% | 48.7hPa | 2.7V | 00:00:00 | 01:21:06 | 00:00:00 | |
| DM0DOS-11 | 2026-08-31 17:27:20 | 48.17900 | 12.20306 | 44° | 18km/h | 21181m | 5.9m/s | -54.4°C | 4.2% | 49hPa | 2.7V | 02:07:14 | 01:21:00 | 00:00:00 | |
| DG1MFX-10 | 2026-08-31 17:27:19 | 48.17909 | 12.20315 | 20° | 13km/h | 21196m | 5.0m/s | -54.5°C | 1.3% | 48.9hPa | 2.7V | 02:07:00 | 00:00:00 | 00:00:00 | |
| OE5WHR-10 | 2026-08-31 17:27:18 | 48.17903 | 12.20310 | 35° | 16km/h | 21187m | 5.1m/s | -54.4°C | 4.2% | 48.9hPa | 2.7V | 00:00:00 | 01:21:01 | 00:00:00 | |
| SONDE2-11 | 2026-08-31 17:27:17 | 48.17897 | 12.20301 | 48° | 18km/h | 21176m | 4.4m/s | -54.4°C | 1.3% | 49.1hPa | 2.7V | 00:00:00 | 00:00:00 | 00:00:00 | |
| DO3MHA-12 | 2026-08-31 17:27:16 | 48.17897 | 12.20301 | 49° | 20km/h | 21176m | 4.4m/s | -54.4°C | 4.2% | 49.0hPa | 2.7V | 00:00:00 | 01:20:59 | 00:00:00 | |
| S52SK | 2026-08-31 17:27:14 | 48.17893 | 12.20296 | 46° | 20km/h | 21170m | 6.0m/s | -54.5°C | 1.3% | 49.1hPa | 2.7V | 00:00:00 | 00:00:00 | 00:00:00 | |
| OE5MMP-10 | 2026-08-31 17:27:13 | 48.17885 | 12.20284 | 47° | 18km/h | 21160m | 5.2m/s | -54.5°C | 4.2% | 49.1hPa | 2.7V | 00:00:00 | 01:20:56 | 00:00:00 | |
| DM0DOS-11 | 2026-08-31 17:27:12 | 48.17864 | 12.20255 | 27° | 16km/h | 21130m | 5.2m/s | -54.6°C | 4.2% | 49.4hPa | 2.7V | 02:07:24 | 01:20:50 | 00:00:00 | |
| PETON7-10 | 2026-08-31 17:27:12 | 48.17882 | 12.20278 | 52° | 15km/h | 21155m | 5.3m/s | -54.5°C | 4.2% | 49.2hPa | 2.7V | 02:07:00 | 00:00:00 | 00:00:00 | |
| BAUMI2-15 | 2026-08-31 17:27:11 | 48.17878 | 12.20271 | 53° | 20km/h | 21150m | 4.3m/s | -54.4°C | 4.2% | 49.2hPa | 2.7V | 00:00:00 | 01:20:54 | 00:00:00 | |
| DH7VM-15 | 2026-08-31 17:27:10 | 48.17878 | 12.20271 | 53° | 22km/h | 21150m | 4.4m/s | -54.5°C | 1.3% | 49.3hPa | 2.7V | 02:07:00 | 00:00:00 | 00:00:00 | |
| DF7PN | 2026-08-31 17:27:09 | 48.17868 | 12.20258 | 27° | 16km/h | 21135m | 4.1m/s | -54.6°C | 1.3% | 49.4hPa | 2.7V | 00:00:00 | 00:00:00 | 00:00:00 | |
| PG1ADW-2 | 2026-08-31 17:27:08 | 48.17868 | 12.20258 | 28° | 15km/h | 21135m | 4.1m/s | -54.6°C | 4.1% | 49.3hPa | 2.7V | 02:07:00 | 00:00:00 | 00:00:00 | |
| NBG1-10 | 2026-08-31 17:27:06 | 48.17861 | 12.20252 | 34° | 15km/h | 21125m | 5.5m/s | -54.5°C | 4.1% | 49.4hPa | 2.7V | 02:07:00 | 01:20:49 | 00:00:00 | |
| DK5PH-5 | 2026-08-31 17:27:04 | 48.17855 | 12.20245 | 30° | 15km/h | 21115m | 4.8m/s | -54.6°C | 4.1% | 49.5hPa | 2.5V | 00:00:00 | 01:20:47 | 00:00:00 | |
| OE5MMP-10 | 2026-08-31 17:27:03 | 48.17852 | 12.20243 | 21° | 13km/h | 21110m | 5.6m/s | -54.6°C | 4.1% | 49.5hPa | 2.5V | 02:07:00 | 01:20:46 | 00:00:00 | |
| DM0DOS-11 | 2026-08-31 17:27:02 | 48.17841 | 12.20230 | 52° | 11km/h | 21079m | 4.8m/s | -54.9°C | 4.3% | 49.8hPa | 2.7V | 02:07:34 | 01:20:40 | 00:00:00 | |
| OE3JTB-15 | 2026-08-31 17:27:02 | 48.17849 | 12.20242 | 16° | 15km/h | 21104m | 4.9m/s | -54.6°C | 4.1% | 49.5hPa | 2.7V | 02:07:00 | 00:00:00 | 00:00:00 | |
| BAUMI2-15 | 2026-08-31 17:27:01 | 48.17847 | 12.20241 | 27° | 9km/h | 21099m | 5.3m/s | -54.7°C | 4.1% | 49.6hPa | 2.5V | 00:00:00 | 01:20:44 | 00:00:00 | |
| OE5DXL-15 | 2026-08-31 17:27:00 | 48.17845 | 12.20239 | 48° | 16km/h | 21094m | 5.5m/s | -54.8°C | 4.2% | 49.7hPa | 2.5V | 00:00:00 | 01:20:43 | 00:00:00 | |
| DG1MFX-10 | 2026-08-31 17:26:58 | 48.17844 | 12.20236 | 62° | 9km/h | 21089m | 4.3m/s | -54.9°C | 1.3% | 49.7hPa | 2.5V | 02:08:00 | 00:00:00 | 00:00:00 | |
| PETON7-10 | 2026-08-31 17:26:57 | 48.17841 | 12.20230 | 53° | 15km/h | 21079m | 4.7m/s | -54.8°C | 4.3% | 49.7hPa | 2.5V | 00:00:00 | 00:00:00 | 00:00:00 | |
| DO3MHA-12 | 2026-08-31 17:26:56 | 48.17839 | 12.20227 | 52° | 18km/h | 21074m | 4.3m/s | -54.8°C | 4.4% | 49.8hPa | 2.5V | 02:07:00 | 01:20:39 | 00:00:00 | |
| OE5REO-15 | 2026-08-31 17:26:55 | 48.17839 | 12.20226 | 52° | 15km/h | 21074m | 4.4m/s | -54.9°C | 1.4% | 49.9hPa | 2.7V | 02:08:00 | 00:00:00 | 00:00:00 | |
| OE5MMP-10 | 2026-08-31 17:26:53 | 48.17831 | 12.20208 | 56° | 15km/h | 21058m | 4.8m/s | -54.9°C | 4.4% | 49.9hPa | 2.7V | 00:00:00 | 01:20:36 | 00:00:00 | |
| DM0DOS-11 | 2026-08-31 17:26:52 | 48.17813 | 12.20175 | 48° | 9km/h | 21026m | 6.2m/s | -54.8°C | 4.2% | 50.2hPa | 2.7V | 02:07:44 | 01:20:30 | 00:00:00 | |
| DL6DJ-15 | 2026-08-31 17:26:49 | 48.17817 | 12.20183 | 55° | 16km/h | 21037m | 5.1m/s | -54.9°C | 1.3% | 50.1hPa | 2.5V | 00:00:00 | 00:00:00 | 00:00:00 | |
| SONDE2-11 | 2026-08-31 17:26:46 | 48.17810 | 12.20171 | 45° | 5km/h | 21017m | 5.2m/s | -54.8°C | 1.3% | 50.3hPa | 2.5V | 00:00:00 | 00:00:00 | 00:00:00 | |
| S52SK | 2026-08-31 17:26:44 | 48.17810 | 12.20170 | 47° | 7km/h | 21017m | 5.2m/s | -54.8°C | 1.3% | 50.3hPa | 2.5V | 02:08:00 | 00:00:00 | 00:00:00 | |
| OE5MMP-10 | 2026-08-31 17:26:43 | 48.17808 | 12.20164 | 63° | 18km/h | 21007m | 4.7m/s | -54.7°C | 4.2% | 50.3hPa | 2.5V | 00:00:00 | 01:20:26 | 00:00:00 | |
| DM0DOS-11 | 2026-08-31 17:26:42 | 48.17794 | 12.20131 | 58° | 22km/h | 20976m | 4.8m/s | -54.8°C | 4.1% | 50.6hPa | 2.5V | 02:07:54 | 01:20:20 | 00:00:00 | |
| PETON7-10 | 2026-08-31 17:26:42 | 48.17806 | 12.20160 | 60° | 18km/h | 21002m | 4.5m/s | -54.7°C | 4.1% | 50.4hPa | 2.7V | 00:00:00 | 01:20:25 | 00:00:00 | |
| DB0NH | 2026-08-31 17:26:40 | 48.17801 | 12.20150 | 55° | 18km/h | 20992m | 4.8m/s | -54.7°C | 4.1% | 50.4hPa | 2.7V | 00:00:00 | 01:20:23 | 00:00:00 | |
| S52SK | 2026-08-31 17:26:39 | 48.17801 | 12.20150 | 56° | 16km/h | 20992m | 4.8m/s | -54.8°C | 1.3% | 50.5hPa | 2.7V | 02:08:00 | 00:00:00 | 00:00:00 | |
| DF7PN | 2026-08-31 17:26:38 | 48.17794 | 12.20131 | 58° | 20km/h | 20977m | 4.8m/s | -54.8°C | 1.2% | 50.6hPa | 2.7V | 00:00:00 | 00:00:00 | 00:00:00 | |
| DO3MHA-11 | 2026-08-31 17:26:37 | 48.17794 | 12.20130 | 59° | 18km/h | 20977m | 4.7m/s | -54.8°C | 4.1% | 50.5hPa | 2.7V | 00:00:00 | 01:20:20 | 00:00:00 | |
| DO3MHA-12 | 2026-08-31 17:26:36 | 48.17791 | 12.20124 | 52° | 18km/h | 20971m | 6.2m/s | -54.8°C | 4.1% | 50.6hPa | 2.7V | 00:00:00 | 01:20:19 | 00:00:00 | |
| BAUMI2-15 | 2026-08-31 17:26:35 | 48.17787 | 12.20119 | 44° | 18km/h | 20966m | 4.7m/s | -54.8°C | 4.2% | 50.6hPa | 2.7V | 02:07:00 | 01:20:18 | 00:00:00 | |
| DK5PH-5 | 2026-08-31 17:26:34 | 48.17784 | 12.20114 | 40° | 18km/h | 20961m | 4.8m/s | -54.8°C | 4.2% | 50.7hPa | 2.5V | 00:00:00 | 01:20:17 | 00:00:00 | |
| OE5MMP-10 | 2026-08-31 17:26:33 | 48.17780 | 12.20109 | 42° | 16km/h | 20956m | 6.5m/s | -54.9°C | 4.3% | 50.7hPa | 2.5V | 02:07:00 | 01:20:16 | 00:00:00 | |
| DM0DOS-11 | 2026-08-31 17:26:32 | 48.17761 | 12.20082 | 57° | 18km/h | 20925m | 5.1m/s | -55.1°C | 4.3% | 51hPa | 2.7V | 02:08:04 | 01:20:10 | 00:00:00 | |
| BAUMI2-15 | 2026-08-31 17:26:30 | 48.17770 | 12.20095 | 38° | 16km/h | 20941m | 5.7m/s | -55.0°C | 4.4% | 50.8hPa | 2.7V | 00:00:00 | 01:20:13 | 00:00:00 | |
| PG1ADW-2 | 2026-08-31 17:26:28 | 48.17764 | 12.20087 | 49° | 18km/h | 20930m | 5.5m/s | -55.0°C | 4.3% | 50.9hPa | 2.7V | 00:00:00 | 00:00:00 | 00:00:00 | |
| DO3MHA-11 | 2026-08-31 17:26:27 | 48.17761 | 12.20082 | 58° | 16km/h | 20925m | 5.0m/s | -55.0°C | 4.3% | 51.0hPa | 2.7V | 00:00:00 | 01:20:10 | 00:00:00 | |
| DO3MHA-12 | 2026-08-31 17:26:26 | 48.17759 | 12.20076 | 63° | 16km/h | 20921m | 4.1m/s | -55.0°C | 4.3% | 51.0hPa | 2.7V | 02:08:00 | 01:20:09 | 00:00:00 | |
| BAUMI2-15 | 2026-08-31 17:26:25 | 48.17757 | 12.20071 | 64° | 15km/h | 20916m | 5.7m/s | -55.1°C | 4.3% | 51.0hPa | 2.5V | 00:00:00 | 01:20:08 | 00:00:00 | |
| OE5REO-15 | 2026-08-31 17:26:24 | 48.17757 | 12.20071 | 64° | 16km/h | 20916m | 5.7m/s | -55.1°C | 1.3% | 51.1hPa | 2.5V | 02:08:00 | 00:00:00 | 00:00:00 | |
| OE5MMP-10 | 2026-08-31 17:26:23 | 48.17753 | 12.20062 | 53° | 18km/h | 20906m | 4.2m/s | -55.1°C | 4.3% | 51.1hPa | 2.5V | 00:00:00 | 01:20:06 | 00:00:00 | |
| DM0DOS-11 | 2026-08-31 17:26:21 | 48.17737 | 12.20036 | 30° | 16km/h | 20875m | 4.3m/s | -55°C | 4.2% | 51.4hPa | 2.5V | 02:08:14 | 01:20:00 | 00:00:00 | |
| BAUMI2-15 | 2026-08-31 17:26:20 | 48.17746 | 12.20048 | 51° | 16km/h | 20890m | 4.6m/s | -55.0°C | 4.2% | 51.3hPa | 2.7V | 02:08:00 | 01:20:03 | 00:00:00 | |
| S52SK | 2026-08-31 17:26:19 | 48.17746 | 12.20048 | 52° | 16km/h | 20890m | 4.6m/s | -55.0°C | 1.3% | 51.3hPa | 2.5V | 02:08:00 | 00:00:00 | 00:00:00 | |
| DL6DJ-15 | 2026-08-31 17:26:18 | 48.17740 | 12.20039 | 33° | 15km/h | 20880m | 6.2m/s | -55.0°C | 1.3% | 51.4hPa | 2.5V | 00:00:00 | 00:00:00 | 00:00:00 | |
| DO3MHA-11 | 2026-08-31 17:26:17 | 48.17737 | 12.20036 | 31° | 22km/h | 20875m | 4.2m/s | -54.9°C | 4.2% | 51.4hPa | 2.5V | 02:08:00 | 01:20:00 | 00:00:00 | |
| DO3MHA-12 | 2026-08-31 17:26:16 | 48.17733 | 12.20033 | 34° | 22km/h | 20870m | 5.9m/s | -54.9°C | 4.2% | 51.4hPa | 2.5V | 00:00:00 | 01:19:59 | 00:00:00 | |
| OE5WHR-10 | 2026-08-31 17:26:15 | 48.17729 | 12.20028 | 36° | 18km/h | 20864m | 4.8m/s | -54.8°C | 4.2% | 51.5hPa | 2.5V | 00:00:00 | 01:19:58 | 00:00:00 | |
| S52SK | 2026-08-31 17:26:14 | 48.17729 | 12.20028 | 36° | 22km/h | 20864m | 4.8m/s | -54.9°C | 1.3% | 51.5hPa | 2.5V | 02:08:00 | 00:00:00 | 00:00:00 | |
| OE5MMP-10 | 2026-08-31 17:26:13 | 48.17719 | 12.20019 | 32° | 18km/h | 20854m | 6.1m/s | -54.9°C | 4.3% | 51.5hPa | 2.5V | 00:00:00 | 01:19:56 | 00:00:00 | |
| DB0UT-7 | 2026-08-31 17:26:12 | 48.17714 | 12.20014 | 29° | 16km/h | 20848m | 4.8m/s | -55.0°C | 4.3% | 51.6hPa | 2.5V | 00:00:00 | 01:19:55 | 00:00:00 | |
| DM0DOS-11 | 2026-08-31 17:26:11 | 48.17691 | 12.19988 | 44° | 15km/h | 20823m | 5.3m/s | -55.2°C | 4.3% | 51.8hPa | 2.5V | 02:08:24 | 01:19:50 | 00:00:00 | |
| PETON7-10 | 2026-08-31 17:26:11 | 48.17708 | 12.20009 | 32° | 16km/h | 20844m | 4.3m/s | -55.1°C | 4.3% | 51.6hPa | 2.7V | 00:00:00 | 00:00:00 | 00:00:00 | |
| DB0NH | 2026-08-31 17:26:10 | 48.17703 | 12.20004 | 37° | 16km/h | 20839m | 5.8m/s | -55.1°C | 4.3% | 51.7hPa | 2.7V | 02:08:00 | 01:19:53 | 00:00:00 | |
| OE5DRO-10 | 2026-08-31 17:26:09 | 48.17698 | 12.19998 | 43° | 16km/h | 20834m | 4.0m/s | -55.1°C | 4.3% | 51.7hPa | 2.5V | 00:00:00 | 00:00:00 | 00:00:00 | |
| BAUMI2-15 | 2026-08-31 17:26:08 | 48.17694 | 12.19992 | 44° | 13km/h | 20829m | 5.3m/s | -55.2°C | 4.3% | 51.7hPa | 2.5V | 00:00:00 | 01:19:51 | 00:00:00 | |
| DF7PN | 2026-08-31 17:26:07 | 48.17688 | 12.19984 | 48° | 11km/h | 20818m | 4.5m/s | -55.2°C | 1.3% | 51.9hPa | 2.5V | 00:00:00 | 00:00:00 | 00:00:00 | |
| DO3MHA-12 | 2026-08-31 17:26:06 | 48.17688 | 12.19984 | 49° | 13km/h | 20819m | 4.4m/s | -55.2°C | 4.3% | 51.8hPa | 2.5V | 00:00:00 | 01:19:49 | 00:00:00 | |
| DK5PH-5 | 2026-08-31 17:26:04 | 48.17685 | 12.19978 | 55° | 15km/h | 20808m | 4.8m/s | -55.1°C | 4.3% | 51.9hPa | 2.5V | 02:08:00 | 01:19:47 | 00:00:00 | |
| S52SK | 2026-08-31 17:26:03 | 48.17683 | 12.19975 | 44° | 11km/h | 20804m | 3.8m/s | -55.2°C | 1.3% | 52.0hPa | 2.5V | 02:09:00 | 00:00:00 | 00:00:00 | |
| BAUMI2-15 | 2026-08-31 17:26:02 | 48.17681 | 12.19973 | 23° | 15km/h | 20800m | 4.8m/s | -55.1°C | 4.3% | 52.0hPa | 2.5V | 02:08:00 | 01:19:45 | 00:00:00 | |
| DM0DOS-11 | 2026-08-31 17:26:01 | 48.17664 | 12.19967 | 26° | 16km/h | 20775m | 3.8m/s | -55.2°C | 4.4% | 52.2hPa | 2.5V | 02:08:34 | 01:19:40 | 00:00:00 | |
| OE5DXL-15 | 2026-08-31 17:26:00 | 48.17675 | 12.19972 | 3° | 15km/h | 20790m | 4.1m/s | -55.2°C | 4.4% | 52.1hPa | 2.5V | 00:00:00 | 00:00:00 | 00:00:00 | |
| DO3MHA-11 | 2026-08-31 17:25:57 | 48.17664 | 12.19967 | 27° | 18km/h | 20775m | 3.8m/s | -55.2°C | 4.4% | 52.2hPa | 2.5V | 00:00:00 | 01:19:40 | 00:00:00 | |
| DO3MHA-12 | 2026-08-31 17:25:56 | 48.17660 | 12.19964 | 27° | 18km/h | 20771m | 5.0m/s | -55.2°C | 4.3% | 52.2hPa | 2.5V | 02:08:00 | 01:19:39 | 00:00:00 | |
| IN3HCDX | 2026-08-31 17:25:55 | 48.17660 | 12.19964 | 28° | 18km/h | 20771m | 5.1m/s | 0°C | 0% | 0hPa | 2.7V | 00:00:00 | 00:00:00 | 00:00:00 | |
| OE5WHR-10 | 2026-08-31 17:25:54 | 48.17651 | 12.19958 | 24° | 15km/h | 20761m | 4.3m/s | -55.2°C | 4.3% | 52.3hPa | 2.7V | 02:08:00 | 00:00:00 | 00:00:00 | |
| OE5MMP-10 | 2026-08-31 17:25:53 | 48.17647 | 12.19955 | 30° | 16km/h | 20756m | 5.6m/s | -55.2°C | 4.3% | 52.3hPa | 2.5V | 00:00:00 | 01:19:36 | 00:00:00 | |
| BAUMI2-15 | 2026-08-31 17:25:52 | 48.17643 | 12.19951 | 35° | 16km/h | 20750m | 5.3m/s | -55.1°C | 4.3% | 52.4hPa | 2.5V | 00:00:00 | 01:19:35 | 00:00:00 | |
| DM0DOS-11 | 2026-08-31 17:25:51 | 48.17624 | 12.19936 | 31° | 15km/h | 20725m | 5.7m/s | -55.1°C | 4.4% | 52.6hPa | 2.5V | 02:08:44 | 01:19:30 | 00:00:00 | |
| OE5DRO-10 | 2026-08-31 17:25:50 | 48.17635 | 12.19944 | 29° | 15km/h | 20740m | 6.0m/s | -55.1°C | 4.3% | 52.5hPa | 2.7V | 02:08:00 | 00:00:00 | 00:00:00 | |
| PG1ADW-2 | 2026-08-31 17:25:48 | 48.17628 | 12.19938 | 24° | 13km/h | 20730m | 4.8m/s | -55.1°C | 4.4% | 52.5hPa | 2.5V | 00:00:00 | 00:00:00 | 00:00:00 | |
| DO3MHA-11 | 2026-08-31 17:25:47 | 48.17624 | 12.19936 | 32° | 15km/h | 20725m | 5.6m/s | -55.1°C | 4.4% | 52.6hPa | 2.5V | 02:08:00 | 01:19:30 | 00:00:00 | |
| DO3MHA-12 | 2026-08-31 17:25:46 | 48.17621 | 12.19933 | 36° | 15km/h | 20720m | 4.4m/s | -55.1°C | 4.3% | 52.6hPa | 2.5V | 00:00:00 | 01:19:29 | 00:00:00 | |
| BAUMI2-15 | 2026-08-31 17:25:45 | 48.17618 | 12.19930 | 32° | 15km/h | 20715m | 5.0m/s | -55.1°C | 4.3% | 52.7hPa | 2.5V | 00:00:00 | 01:19:28 | 00:00:00 | |
| S52SK | 2026-08-31 17:25:44 | 48.17618 | 12.19930 | 33° | 15km/h | 20715m | 5.1m/s | -55.2°C | 1.4% | 52.7hPa | 2.5V | 02:09:00 | 00:00:00 | 00:00:00 | |
| OE5MMP-10 | 2026-08-31 17:25:43 | 48.17612 | 12.19925 | 28° | 13km/h | 20706m | 3.5m/s | -55.1°C | 4.2% | 52.8hPa | 2.5V | 00:00:00 | 01:19:26 | 00:00:00 | |
| DB0UT-7 | 2026-08-31 17:25:42 | 48.17608 | 12.19922 | 36° | 13km/h | 20701m | 5.7m/s | -55.1°C | 4.2% | 52.8hPa | 2.5V | 00:00:00 | 00:00:00 | 00:00:00 | |
| DM0DOS-11 | 2026-08-31 17:25:41 | 48.17593 | 12.19903 | 25° | 15km/h | 20676m | 3.7m/s | -55°C | 4.3% | 53hPa | 2.5V | 02:08:54 | 01:19:20 | 00:00:00 | |
| PETON7-10 | 2026-08-31 17:25:41 | 48.17606 | 12.19918 | 45° | 13km/h | 20695m | 5.1m/s | -55.1°C | 4.2% | 52.8hPa | 2.5V | 02:08:00 | 00:00:00 | 00:00:00 | |
| DB0NH | 2026-08-31 17:25:40 | 48.17603 | 12.19914 | 48° | 9km/h | 20691m | 4.4m/s | -55.1°C | 4.2% | 52.9hPa | 2.7V | 00:00:00 | 01:19:23 | 00:00:00 | |
| S52SK | 2026-08-31 17:25:39 | 48.17603 | 12.19914 | 48° | 16km/h | 20691m | 4.4m/s | -55.1°C | 1.3% | 52.9hPa | 2.7V | 02:09:00 | 00:00:00 | 00:00:00 | |
| DO3MHA-11 | 2026-08-31 17:25:37 | 48.17593 | 12.19903 | 26° | 11km/h | 20676m | 3.7m/s | -55.0°C | 4.3% | 53.0hPa | 2.7V | 00:00:00 | 01:19:20 | 00:00:00 | |
| DO3MHA-12 | 2026-08-31 17:25:36 | 48.17590 | 12.19901 | 24° | 11km/h | 20672m | 4.9m/s | -55.0°C | 4.3% | 53.0hPa | 2.7V | 00:00:00 | 01:19:19 | 00:00:00 | |
| DK5PH-5 | 2026-08-31 17:25:34 | 48.17586 | 12.19899 | 1° | 11km/h | 20662m | 3.8m/s | -55.0°C | 4.5% | 53.1hPa | 2.7V | 00:00:00 | 01:19:17 | 00:00:00 | |
| OE5MMP-10 | 2026-08-31 17:25:33 | 48.17584 | 12.19899 | 346° | 15km/h | 20658m | 5.3m/s | -55.0°C | 4.4% | 53.1hPa | 2.7V | 02:08:00 | 01:19:16 | 00:00:00 | |
| DM0DOS-11 | 2026-08-31 17:25:31 | 48.17566 | 12.19899 | 24° | 16km/h | 20628m | 5.8m/s | -55.3°C | 4.3% | 53.4hPa | 2.5V | 02:09:04 | 01:19:10 | 00:00:00 | |
| OE5DRO-10 | 2026-08-31 17:25:31 | 48.17579 | 12.19902 | 345° | 11km/h | 20647m | 4.5m/s | -55.1°C | 4.4% | 53.2hPa | 2.5V | 00:00:00 | 00:00:00 | 00:00:00 | |
| OE5DXL-15 | 2026-08-31 17:25:30 | 48.17576 | 12.19903 | 353° | 11km/h | 20643m | 4.9m/s | -55.2°C | 4.4% | 53.3hPa | 2.5V | 00:00:00 | 00:00:00 | 00:00:00 | |
| PG1ADW-2 | 2026-08-31 17:25:28 | 48.17570 | 12.19901 | 23° | 11km/h | 20633m | 4.1m/s | -55.2°C | 4.3% | 53.4hPa | 2.5V | 00:00:00 | 00:00:00 | 00:00:00 | |
| DO3MHA-11 | 2026-08-31 17:25:27 | 48.17566 | 12.19899 | 25° | 13km/h | 20628m | 5.7m/s | -55.2°C | 4.3% | 53.4hPa | 2.5V | 00:00:00 | 01:19:10 | 00:00:00 | |
| PETON7-10 | 2026-08-31 17:25:26 | 48.17562 | 12.19896 | 26° | 11km/h | 20623m | 4.7m/s | -55.2°C | 4.3% | 53.4hPa | 2.5V | 00:00:00 | 00:00:00 | 00:00:00 | |
| S52SK | 2026-08-31 17:25:24 | 48.17558 | 12.19893 | 31° | 18km/h | 20618m | 4.6m/s | -55.3°C | 1.3% | 53.5hPa | 2.5V | 02:09:00 | 00:00:00 | 00:00:00 | |
| OE5MMP-10 | 2026-08-31 17:25:23 | 48.17551 | 12.19885 | 39° | 9km/h | 20608m | 4.2m/s | -55.1°C | 4.3% | 53.6hPa | 2.5V | 00:00:00 | 01:19:06 | 00:00:00 | |
| BAUMI2-15 | 2026-08-31 17:25:22 | 48.17548 | 12.19882 | 30° | 9km/h | 20604m | 4.8m/s | -55.1°C | 4.2% | 53.6hPa | 2.5V | 02:09:00 | 01:19:05 | 00:00:00 | |
| DM0DOS-11 | 2026-08-31 17:25:21 | 48.17537 | 12.19882 | 339° | 7km/h | 20578m | 5.4m/s | -55.1°C | 4.4% | 53.9hPa | 2.5V | 02:09:14 | 01:19:00 | 00:00:00 | |
| OE5REO-15 | 2026-08-31 17:25:20 | 48.17545 | 12.19881 | 14° | 11km/h | 20598m | 5.4m/s | -55.1°C | 1.3% | 53.7hPa | 2.5V | 02:09:00 | 00:00:00 | 00:00:00 | |
| S52SK | 2026-08-31 17:25:18 | 48.17540 | 12.19881 | 348° | 7km/h | 20588m | 5.8m/s | -55.1°C | 1.4% | 53.8hPa | 2.5V | 00:00:00 | 00:00:00 | 00:00:00 | |
| DO3MHA-11 | 2026-08-31 17:25:17 | 48.17537 | 12.19882 | 340° | 9km/h | 20579m | 5.4m/s | -55.1°C | 4.4% | 53.8hPa | 2.5V | 02:09:00 | 01:19:00 | 00:00:00 | |
| DO3MHA-12 | 2026-08-31 17:25:16 | 48.17536 | 12.19883 | 349° | 9km/h | 20573m | 4.7m/s | -55.1°C | 4.4% | 53.8hPa | 2.5V | 00:00:00 | 01:18:59 | 00:00:00 | |
| OE5MMP-10 | 2026-08-31 17:25:13 | 48.17531 | 12.19881 | 39° | 9km/h | 20559m | 4.1m/s | -55.0°C | 4.2% | 54.0hPa | 2.5V | 00:00:00 | 01:18:56 | 00:00:00 | |
| DB0UT-7 | 2026-08-31 17:25:12 | 48.17529 | 12.19879 | 36° | 9km/h | 20554m | 5.9m/s | -55.1°C | 4.2% | 54.0hPa | 2.5V | 02:09:00 | 01:18:55 | 00:00:00 | |
| DM0DOS-11 | 2026-08-31 17:25:11 | 48.17520 | 12.19868 | 27° | 7km/h | 20531m | 4.8m/s | -55.2°C | 4.3% | 54.2hPa | 2.7V | 02:09:24 | 01:18:50 | 00:00:00 | |
| PETON7-10 | 2026-08-31 17:25:11 | 48.17527 | 12.19877 | 34° | 9km/h | 20549m | 4.6m/s | -55.1°C | 4.2% | 54.1hPa | 2.7V | 00:00:00 | 01:18:54 | 00:00:00 | |
| S52SK | 2026-08-31 17:25:10 | 48.17527 | 12.19877 | 34° | 11km/h | 20549m | 4.6m/s | -55.1°C | 1.3% | 54.1hPa | 2.7V | 00:00:00 | 00:00:00 | 00:00:00 | |
| PG1ADW-2 | 2026-08-31 17:25:08 | 48.17521 | 12.19870 | 43° | 9km/h | 20535m | 3.6m/s | -55.1°C | 4.2% | 54.2hPa | 2.7V | 02:09:00 | 00:00:00 | 00:00:00 | |
| DO3MHA-11 | 2026-08-31 17:25:07 | 48.17520 | 12.19868 | 28° | 7km/h | 20531m | 4.8m/s | -55.1°C | 4.3% | 54.2hPa | 2.7V | 00:00:00 | 01:18:50 | 00:00:00 | |
| DO3MHA-12 | 2026-08-31 17:25:06 | 48.17518 | 12.19867 | 8° | 9km/h | 20526m | 5.0m/s | -55.1°C | 4.3% | 54.3hPa | 2.7V | 00:00:00 | 01:18:49 | 00:00:00 | |
| OE3JTB-15 | 2026-08-31 17:25:05 | 48.17516 | 12.19867 | 1° | 9km/h | 20522m | 3.9m/s | -55.1°C | 4.3% | 54.3hPa | 2.7V | 00:00:00 | 00:00:00 | 00:00:00 | |
| DK5PH-5 | 2026-08-31 17:25:04 | 48.17514 | 12.19867 | 5° | 9km/h | 20517m | 4.8m/s | -55.1°C | 4.3% | 54.3hPa | 2.7V | 00:00:00 | 01:18:47 | 00:00:00 | |
| OE5MMP-10 | 2026-08-31 17:25:03 | 48.17512 | 12.19867 | 20° | 11km/h | 20512m | 4.8m/s | -55.1°C | 4.3% | 54.4hPa | 2.7V | 02:09:00 | 01:18:46 | 00:00:00 | |
| DB0NH | 2026-08-31 17:25:02 | 48.17511 | 12.19866 | 36° | 26km/h | 20508m | 3.9m/s | -55.1°C | 4.3% | 54.4hPa | 2.5V | 00:00:00 | 01:18:45 | 00:00:00 | |
| OE5DXL-15 | 2026-08-31 17:25:00 | 48.17508 | 12.19863 | 29° | 11km/h | 20498m | 4.9m/s | -55.1°C | 4.3% | 54.5hPa | 2.5V | 02:09:00 | 00:00:00 | 00:00:00 | |
| DO3MHA-11 | 2026-08-31 17:24:57 | 48.17501 | 12.19856 | 34° | 11km/h | 20483m | 3.9m/s | -55.1°C | 4.3% | 54.6hPa | 2.5V | 00:00:00 | 01:18:40 | 00:00:00 | |
| PETON7-10 | 2026-08-31 17:24:56 | 48.17498 | 12.19854 | 27° | 11km/h | 20479m | 5.0m/s | -55.1°C | 4.3% | 54.7hPa | 2.5V | 02:09:00 | 00:00:00 | 00:00:00 | |
| NBG1-10 | 2026-08-31 17:24:54 | 48.17491 | 12.19851 | 14° | 11km/h | 20469m | 4.4m/s | -55.0°C | 4.3% | 54.7hPa | 2.5V | 00:00:00 | 01:18:37 | 00:00:00 | |
| OE5MMP-10 | 2026-08-31 17:24:53 | 48.17488 | 12.19849 | 11° | 9km/h | 20464m | 5.9m/s | -55.0°C | 4.2% | 54.8hPa | 2.5V | 00:00:00 | 01:18:36 | 00:00:00 | |
| DM0DOS-11 | 2026-08-31 17:24:51 | 48.17481 | 12.19849 | 357° | 9km/h | 20450m | 5.8m/s | -55°C | 4.3% | 54.9hPa | 2.5V | 02:09:41 | 01:18:33 | 00:00:00 | |
| DL6DJ-15 | 2026-08-31 17:24:45 | 48.17469 | 12.19846 | 32° | 7km/h | 20426m | 3.6m/s | -55.1°C | 1.3% | 55.2hPa | 2.5V | 00:00:00 | 00:00:00 | 00:00:00 | |
| OE5MMP-10 | 2026-08-31 17:24:43 | 48.17464 | 12.19843 | 18° | 9km/h | 20416m | 4.3m/s | -55.3°C | 4.4% | 55.2hPa | 2.5V | 00:00:00 | 01:18:26 | 00:00:00 | |
| DB0UT-7 | 2026-08-31 17:24:42 | 48.17462 | 12.19842 | 19° | 9km/h | 20412m | 4.8m/s | -55.3°C | 4.4% | 55.2hPa | 2.5V | 00:00:00 | 00:00:00 | 00:00:00 | |
| PETON7-10 | 2026-08-31 17:24:41 | 48.17460 | 12.19841 | 20° | 11km/h | 20407m | 5.2m/s | -55.4°C | 4.5% | 55.3hPa | 2.5V | 00:00:00 | 00:00:00 | 00:00:00 | |
| S52SK | 2026-08-31 17:24:40 | 48.17460 | 12.19841 | 20° | 7km/h | 20407m | 5.3m/s | -55.4°C | 1.4% | 55.3hPa | 2.5V | 00:00:00 | 00:00:00 | 00:00:00 | |
| DO3MHA-11 | 2026-08-31 17:24:37 | 48.17451 | 12.19842 | 352° | 11km/h | 20388m | 4.0m/s | -55.3°C | 4.5% | 55.4hPa | 2.5V | 00:00:00 | 01:18:20 | 00:00:00 | |
| DO3MHA-12 | 2026-08-31 17:24:36 | 48.17448 | 12.19842 | 359° | 11km/h | 20383m | 5.3m/s | -55.2°C | 4.4% | 55.5hPa | 2.5V | 00:00:00 | 01:18:19 | 00:00:00 | |
| DG1MFX-10 | 2026-08-31 17:24:35 | 48.17448 | 12.19842 | 360° | 11km/h | 20383m | 5.3m/s | -55.3°C | 1.4% | 55.5hPa | 2.5V | 02:10:00 | 00:00:00 | 00:00:00 | |
| DK5PH-5 | 2026-08-31 17:24:34 | 48.17443 | 12.19841 | 19° | 11km/h | 20374m | 3.4m/s | -55.1°C | 4.4% | 55.6hPa | 2.5V | 02:09:00 | 01:18:17 | 00:00:00 | |
| OE5MMP-10 | 2026-08-31 17:24:33 | 48.17440 | 12.19839 | 16° | 11km/h | 20370m | 5.5m/s | -55.1°C | 4.4% | 55.6hPa | 2.7V | 02:09:00 | 01:18:16 | 00:00:00 | |
| DL1ZP-14 | 2026-08-31 17:24:31 | 48.17432 | 12.19837 | 8° | 9km/h | 20355m | 5.5m/s | -55.0°C | 1.3% | 55.8hPa | 2.5V | 00:00:00 | 00:00:00 | 00:00:00 | |
| OE5WHR-10 | 2026-08-31 17:24:30 | 48.17432 | 12.19837 | 9° | 9km/h | 20355m | 5.4m/s | -55.0°C | 4.3% | 55.7hPa | 2.7V | 00:00:00 | 00:00:00 | 00:00:00 | |
| S52SK | 2026-08-31 17:24:29 | 48.17432 | 12.19837 | 10° | 9km/h | 20355m | 5.5m/s | -55.0°C | 1.3% | 55.8hPa | 2.7V | 00:00:00 | 00:00:00 | 00:00:00 | |
| DO3MHA-11 | 2026-08-31 17:24:27 | 48.17425 | 12.19837 | 348° | 11km/h | 20342m | 5.4m/s | -54.8°C | 4.3% | 55.9hPa | 2.7V | 00:00:00 | 01:18:10 | 00:00:00 | |
| PETON7-10 | 2026-08-31 17:24:26 | 48.17422 | 12.19838 | 349° | 9km/h | 20337m | 3.9m/s | -54.8°C | 4.2% | 55.9hPa | 2.7V | 00:00:00 | 01:18:09 | 00:00:00 | |
| NBG1-10 | 2026-08-31 17:24:21 | 48.17410 | 12.19835 | 25° | 11km/h | 20315m | 5.6m/s | -54.6°C | 4.2% | 56.1hPa | 2.7V | 00:00:00 | 01:18:04 | 00:00:00 | |
| S52SK | 2026-08-31 17:24:20 | 48.17410 | 12.19835 | 25° | 11km/h | 20315m | 5.6m/s | -54.6°C | 1.3% | 56.1hPa | 2.7V | 02:10:00 | 00:00:00 | 00:00:00 | |
| OE5REO-15 | 2026-08-31 17:24:18 | 48.17405 | 12.19832 | 12° | 9km/h | 20306m | 4.6m/s | -54.6°C | 1.3% | 56.2hPa | 2.7V | 02:10:00 | 00:00:00 | 00:00:00 | |
| DO3MHA-11 | 2026-08-31 17:24:17 | 48.17401 | 12.19832 | 355° | 11km/h | 20296m | 4.3m/s | -54.6°C | 4.3% | 56.3hPa | 2.7V | 02:10:00 | 01:18:00 | 00:00:00 | |
| DO3MHA-12 | 2026-08-31 17:24:16 | 48.17399 | 12.19832 | 346° | 11km/h | 20291m | 5.9m/s | -54.6°C | 4.3% | 56.3hPa | 2.7V | 00:00:00 | 01:17:59 | 00:00:00 | |
| OE5DRO-10 | 2026-08-31 17:24:15 | 48.17396 | 12.19834 | 338° | 11km/h | 20285m | 5.1m/s | -54.5°C | 4.3% | 56.4hPa | 2.7V | 00:00:00 | 00:00:00 | 00:00:00 | |
| DL6DJ-15 | 2026-08-31 17:24:14 | 48.17394 | 12.19835 | 338° | 11km/h | 20280m | 4.4m/s | -54.6°C | 1.3% | 56.4hPa | 2.7V | 00:00:00 | 00:00:00 | 00:00:00 | |
| OE5MMP-10 | 2026-08-31 17:24:13 | 48.17391 | 12.19837 | 344° | 11km/h | 20276m | 5.7m/s | -54.5°C | 4.3% | 56.4hPa | 2.7V | 00:00:00 | 01:17:56 | 00:00:00 | |
| DB0UT-7 | 2026-08-31 17:24:12 | 48.17389 | 12.19837 | 358° | 11km/h | 20271m | 4.1m/s | -54.5°C | 4.2% | 56.4hPa | 2.7V | 00:00:00 | 01:17:55 | 00:00:00 | |
| PETON7-10 | 2026-08-31 17:24:11 | 48.17387 | 12.19837 | 9° | 11km/h | 20266m | 5.4m/s | -54.5°C | 4.2% | 56.5hPa | 2.7V | 02:10:00 | 00:00:00 | 00:00:00 | |
| SONDE2-11 | 2026-08-31 17:24:10 | 48.17384 | 12.19836 | 15° | 11km/h | 20260m | 5.3m/s | -54.5°C | 1.3% | 56.6hPa | 2.7V | 00:00:00 | 00:00:00 | 00:00:00 | |
| OE5WHR-10 | 2026-08-31 17:24:09 | 48.17381 | 12.19834 | 27° | 13km/h | 20255m | 4.9m/s | -54.4°C | 4.1% | 56.6hPa | 2.7V | 00:00:00 | 01:17:52 | 00:00:00 | |
| DO3MHA-11 | 2026-08-31 17:24:07 | 48.17377 | 12.19828 | 55° | 13km/h | 20245m | 4.4m/s | -54.2°C | 4.1% | 56.7hPa | 2.7V | 00:00:00 | 01:17:50 | 00:00:00 | |
| DO3MHA-12 | 2026-08-31 17:24:06 | 48.17375 | 12.19825 | 55° | 11km/h | 20240m | 4.1m/s | -54.2°C | 4.1% | 56.8hPa | 2.7V | 00:00:00 | 01:17:49 | 00:00:00 | |
| S52SK | 2026-08-31 17:24:05 | 48.17375 | 12.19825 | 56° | 13km/h | 20240m | 4.2m/s | -54.3°C | 1.3% | 56.8hPa | 2.7V | 02:10:00 | 00:00:00 | 00:00:00 | |
| DK5PH-5 | 2026-08-31 17:24:04 | 48.17371 | 12.19818 | 36° | 11km/h | 20230m | 4.6m/s | -54.2°C | 4.1% | 56.8hPa | 2.7V | 00:00:00 | 01:17:47 | 00:00:00 | |
| OE5MMP-10 | 2026-08-31 17:24:03 | 48.17368 | 12.19815 | 32° | 11km/h | 20226m | 4.9m/s | -54.3°C | 4.1% | 56.9hPa | 2.7V | 02:10:00 | 01:17:46 | 00:00:00 | |
| DF7PN | 2026-08-31 17:24:02 | 48.17366 | 12.19813 | 34° | 9km/h | 20220m | 5.5m/s | -54.4°C | 1.3% | 56.9hPa | 2.5V | 00:00:00 | 00:00:00 | 00:00:00 | |
| DL1ZP-14 | 2026-08-31 17:24:00 | 48.17358 | 12.19807 | 21° | 13km/h | 20205m | 4.8m/s | -54.4°C | 1.3% | 57.1hPa | 2.5V | 00:00:00 | 00:00:00 | 00:00:00 | |
| DF3TZ-5 | 2026-08-31 17:23:46 | 48.17331 | 12.19758 | 61° | 7km/h | 20134m | 5.0m/s | -54.1°C | 1.3% | 57.8hPa | 2.7V | 00:00:00 | 00:00:00 | 00:00:00 | |
| OE5MMP-10 | 2026-08-31 17:23:43 | 48.17329 | 12.19753 | 60° | 9km/h | 20125m | 5.8m/s | -54.0°C | 4.1% | 57.8hPa | 2.7V | 00:00:00 | 01:17:26 | 00:00:00 | |
| DB0UT-7 | 2026-08-31 17:23:42 | 48.17328 | 12.19750 | 63° | 7km/h | 20120m | 4.3m/s | -53.9°C | 4.0% | 57.8hPa | 2.7V | 02:10:00 | 00:00:00 | 00:00:00 | |
| PETON7-10 | 2026-08-31 17:23:41 | 48.17327 | 12.19747 | 77° | 5km/h | 20115m | 5.8m/s | -53.9°C | 4.0% | 57.9hPa | 2.5V | 00:00:00 | 01:17:24 | 00:00:00 | |
| SONDE2-11 | 2026-08-31 17:23:39 | 48.17327 | 12.19740 | 82° | 7km/h | 20105m | 4.1m/s | -54.0°C | 1.2% | 58.0hPa | 2.5V | 00:00:00 | 00:00:00 | 00:00:00 | |
| OE3JTB-15 | 2026-08-31 17:23:38 | 48.17326 | 12.19737 | 64° | 7km/h | 20100m | 5.7m/s | -54.0°C | 4.0% | 58.0hPa | 2.5V | 00:00:00 | 00:00:00 | 00:00:00 | |
| DO3MHA-11 | 2026-08-31 17:23:37 | 48.17325 | 12.19734 | 47° | 5km/h | 20095m | 4.5m/s | -54.0°C | 4.1% | 58.0hPa | 2.5V | 00:00:00 | 01:17:20 | 00:00:00 | |
| DO3MHA-12 | 2026-08-31 17:23:36 | 48.17323 | 12.19732 | 39° | 4km/h | 20091m | 3.7m/s | -54.0°C | 4.2% | 58.1hPa | 2.5V | 00:00:00 | 01:17:19 | 00:00:00 | |
| S52SK | 2026-08-31 17:23:35 | 48.17323 | 12.19732 | 40° | 9km/h | 20091m | 3.8m/s | -54.1°C | 1.3% | 58.2hPa | 2.5V | 00:00:00 | 00:00:00 | 00:00:00 | |
| DK5PH-5 | 2026-08-31 17:23:34 | 48.17320 | 12.19728 | 49° | 7km/h | 20081m | 5.1m/s | -54.0°C | 4.3% | 58.2hPa | 2.5V | 00:00:00 | 01:17:17 | 00:00:00 | |
| OE5MMP-10 | 2026-08-31 17:23:33 | 48.17319 | 12.19727 | 39° | 4km/h | 20075m | 4.8m/s | -54.0°C | 4.3% | 58.2hPa | 2.5V | 02:10:00 | 01:17:16 | 00:00:00 | |
| DG1MFX-10 | 2026-08-31 17:23:32 | 48.17319 | 12.19727 | 40° | 2km/h | 20075m | 4.8m/s | -54.1°C | 1.4% | 58.3hPa | 2.7V | 02:11:00 | 00:00:00 | 00:00:00 | |
| DF7PN | 2026-08-31 17:23:31 | 48.17318 | 12.19727 | 351° | 4km/h | 20065m | 4.7m/s | -54.0°C | 1.3% | 58.4hPa | 2.7V | 00:00:00 | 00:00:00 | 00:00:00 | |
| OE5DXL-15 | 2026-08-31 17:23:30 | 48.17317 | 12.19727 | 360° | 9km/h | 20060m | 4.0m/s | -53.9°C | 4.2% | 58.4hPa | 2.7V | 02:11:00 | 00:00:00 | 00:00:00 | |
| DL1ZP-14 | 2026-08-31 17:23:29 | 48.17316 | 12.19726 | 85° | 2km/h | 20050m | 4.9m/s | -53.9°C | 1.3% | 58.5hPa | 2.5V | 00:00:00 | 00:00:00 | 00:00:00 | |
| DO3MHA-11 | 2026-08-31 17:23:27 | 48.17316 | 12.19725 | 75° | 5km/h | 20045m | 5.5m/s | -53.8°C | 4.1% | 58.5hPa | 2.7V | 00:00:00 | 01:17:10 | 00:00:00 | |
| PETON7-10 | 2026-08-31 17:23:26 | 48.17315 | 12.19724 | 47° | 7km/h | 20040m | 5.0m/s | -53.8°C | 4.1% | 58.6hPa | 2.7V | 02:11:00 | 00:00:00 | 00:00:00 | |
| DM0DOS-11 | 2026-08-31 17:23:23 | 48.17308 | 12.19709 | 55° | 9km/h | 19998m | 5.1m/s | -53.5°C | 4% | 59hPa | 2.5V | 02:11:13 | 01:17:01 | 00:00:00 | |
| OE5MMP-10 | 2026-08-31 17:23:23 | 48.17314 | 12.19719 | 82° | 9km/h | 20024m | 4.9m/s | -53.7°C | 4.0% | 58.7hPa | 2.7V | 00:00:00 | 01:17:06 | 00:00:00 | |
| S52SK | 2026-08-31 17:23:22 | 48.17314 | 12.19719 | 83° | 5km/h | 20024m | 4.9m/s | -53.7°C | 1.3% | 58.8hPa | 2.7V | 00:00:00 | 00:00:00 | 00:00:00 | |
| OE5DRO-10 | 2026-08-31 17:23:18 | 48.17308 | 12.19709 | 56° | 11km/h | 19999m | 5.0m/s | -53.5°C | 4.0% | 58.9hPa | 2.7V | 00:00:00 | 00:00:00 | 00:00:00 | |
| DO3MHA-11 | 2026-08-31 17:23:17 | 48.17307 | 12.19706 | 56° | 7km/h | 19993m | 4.9m/s | -53.4°C | 4.0% | 59.0hPa | 2.7V | 02:11:00 | 01:17:00 | 00:00:00 | |
| DO3MHA-12 | 2026-08-31 17:23:16 | 48.17305 | 12.19703 | 48° | 7km/h | 19988m | 6.0m/s | -53.4°C | 4.0% | 59.0hPa | 2.5V | 00:00:00 | 01:16:59 | 00:00:00 | |
| NBG1-10 | 2026-08-31 17:23:15 | 48.17303 | 12.19701 | 48° | 13km/h | 19983m | 4.3m/s | -53.4°C | 4.0% | 59.1hPa | 2.5V | 00:00:00 | 01:16:58 | 00:00:00 | |
| DF3TZ-5 | 2026-08-31 17:23:14 | 48.17302 | 12.19698 | 57° | 9km/h | 19978m | 5.5m/s | -53.4°C | 1.3% | 59.2hPa | 2.5V | 00:00:00 | 00:00:00 | 00:00:00 | |
| DM0DOS-11 | 2026-08-31 17:23:13 | 48.17297 | 12.19683 | 60° | 7km/h | 19948m | 5m/s | -53.3°C | 3.9% | 59.4hPa | 2.5V | 02:11:23 | 01:16:51 | 00:00:00 | |
| OE5MMP-10 | 2026-08-31 17:23:13 | 48.17301 | 12.19695 | 74° | 9km/h | 19972m | 5.3m/s | -53.3°C | 4.0% | 59.2hPa | 2.5V | 00:00:00 | 01:16:56 | 00:00:00 | |
| DB0UT-7 | 2026-08-31 17:23:12 | 48.17301 | 12.19692 | 76° | 13km/h | 19967m | 4.6m/s | -53.3°C | 4.0% | 59.2hPa | 2.5V | 00:00:00 | 01:16:55 | 00:00:00 | |
| PETON7-10 | 2026-08-31 17:23:11 | 48.17300 | 12.19689 | 62° | 11km/h | 19962m | 5.7m/s | -53.3°C | 4.0% | 59.3hPa | 2.5V | 00:00:00 | 00:00:00 | 00:00:00 | |
| OE3JTB-15 | 2026-08-31 17:23:09 | 48.17298 | 12.19685 | 49° | 13km/h | 19953m | 4.2m/s | -53.2°C | 3.9% | 59.3hPa | 2.5V | 00:00:00 | 01:16:52 | 00:00:00 | |
| SONDE2-11 | 2026-08-31 17:23:08 | 48.17297 | 12.19683 | 60° | 5km/h | 19949m | 5.0m/s | -53.3°C | 1.2% | 59.4hPa | 2.5V | 00:00:00 | 00:00:00 | 00:00:00 | |
| DO3MHA-11 | 2026-08-31 17:23:07 | 48.17296 | 12.19681 | 70° | 15km/h | 19944m | 4.5m/s | -53.2°C | 4.0% | 59.4hPa | 2.5V | 00:00:00 | 01:16:50 | 00:00:00 | |
| DO3MHA-12 | 2026-08-31 17:23:06 | 48.17295 | 12.19677 | 65° | 16km/h | 19939m | 4.8m/s | -53.2°C | 3.9% | 59.5hPa | 2.5V | 00:00:00 | 01:16:49 | 00:00:00 | |
| DK5PH-5 | 2026-08-31 17:23:04 | 48.17291 | 12.19669 | 49° | 15km/h | 19929m | 4.3m/s | -53.2°C | 4.0% | 59.6hPa | 2.5V | 02:11:00 | 01:16:47 | 00:00:00 | |
| DM0DOS-11 | 2026-08-31 17:23:03 | 48.17276 | 12.19636 | 50° | 15km/h | 19899m | 4.4m/s | -53.1°C | 3.8% | 59.9hPa | 2.5V | 02:11:33 | 01:16:41 | 00:00:00 | |
| OE5MMP-10 | 2026-08-31 17:23:03 | 48.17288 | 12.19664 | 52° | 15km/h | 19924m | 5.4m/s | -53.1°C | 3.9% | 59.6hPa | 2.5V | 02:11:00 | 01:16:46 | 00:00:00 | |
| S52SK | 2026-08-31 17:23:02 | 48.17288 | 12.19664 | 52° | 18km/h | 19924m | 5.4m/s | -53.2°C | 1.2% | 59.7hPa | 2.5V | 00:00:00 | 00:00:00 | 00:00:00 | |
| DF7PN | 2026-08-31 17:23:00 | 48.17281 | 12.19646 | 59° | 16km/h | 19909m | 4.5m/s | -53.1°C | 1.2% | 59.8hPa | 2.5V | 00:00:00 | 00:00:00 | 00:00:00 | |
| DL1ZP-14 | 2026-08-31 17:22:58 | 48.17274 | 12.19632 | 56° | 11km/h | 19895m | 4.9m/s | -53.1°C | 1.2% | 60.0hPa | 2.5V | 00:00:00 | 00:00:00 | 00:00:00 | |
| DO3MHA-11 | 2026-08-31 17:22:57 | 48.17274 | 12.19632 | 57° | 9km/h | 19895m | 4.9m/s | -53.1°C | 3.8% | 59.9hPa | 2.5V | 00:00:00 | 01:16:40 | 00:00:00 | |
| PETON7-10 | 2026-08-31 17:22:56 | 48.17273 | 12.19628 | 70° | 13km/h | 19890m | 4.6m/s | -53.2°C | 3.8% | 59.9hPa | 2.5V | 00:00:00 | 01:16:39 | 00:00:00 | |
| BAUMI2-15 | 2026-08-31 17:22:55 | 48.17272 | 12.19625 | 81° | 7km/h | 19885m | 3.8m/s | -53.2°C | 3.8% | 60.0hPa | 2.5V | 00:00:00 | 01:16:38 | 00:00:00 | |
| S52SK | 2026-08-31 17:22:54 | 48.17272 | 12.19625 | 82° | 9km/h | 19885m | 3.9m/s | -53.3°C | 1.2% | 60.0hPa | 2.5V | 00:00:00 | 00:00:00 | 00:00:00 | |
| DM0DOS-11 | 2026-08-31 17:22:53 | 48.17265 | 12.19604 | 58° | 15km/h | 19852m | 5.7m/s | -53.5°C | 3.9% | 60.3hPa | 2.5V | 02:11:43 | 01:16:31 | 00:00:00 | |
| OE5MMP-10 | 2026-08-31 17:22:53 | 48.17271 | 12.19620 | 48° | 13km/h | 19876m | 4.8m/s | -53.3°C | 3.8% | 60.1hPa | 2.7V | 00:00:00 | 01:16:36 | 00:00:00 | |
| BAUMI2-15 | 2026-08-31 17:22:50 | 48.17268 | 12.19614 | 63° | 16km/h | 19861m | 4.7m/s | -53.4°C | 3.9% | 60.2hPa | 2.7V | 00:00:00 | 01:16:33 | 00:00:00 | |
| DH7VM-15 | 2026-08-31 17:22:48 | 48.17266 | 12.19609 | 64° | 15km/h | 19857m | 4.0m/s | -53.5°C | 0% | 60.3hPa | 2.7V | 00:00:00 | 00:00:00 | 00:00:00 | |
| DO3MHA-11 | 2026-08-31 17:22:47 | 48.17262 | 12.19599 | 58° | 16km/h | 19847m | 4.6m/s | -53.6°C | 3.9% | 60.3hPa | 2.7V | 02:11:00 | 01:16:30 | 00:00:00 | |
| DO3MHA-12 | 2026-08-31 17:22:46 | 48.17260 | 12.19594 | 63° | 16km/h | 19842m | 5.2m/s | -53.7°C | 4.0% | 60.4hPa | 2.5V | 00:00:00 | 01:16:29 | 00:00:00 | |
| PG1ADW-2 | 2026-08-31 17:22:45 | 48.17258 | 12.19588 | 71° | 16km/h | 19837m | 5.1m/s | -53.8°C | 4.0% | 60.4hPa | 2.5V | 00:00:00 | 00:00:00 | 00:00:00 | |
| BAUMI2-15 | 2026-08-31 17:22:44 | 48.17257 | 12.19581 | 74° | 15km/h | 19832m | 4.6m/s | -53.8°C | 4.1% | 60.5hPa | 2.5V | 02:11:00 | 01:16:27 | 00:00:00 | |
| DM0DOS-11 | 2026-08-31 17:22:43 | 48.17247 | 12.19552 | 45° | 15km/h | 19801m | 5.3m/s | -54°C | 4% | 60.8hPa | 2.5V | 02:11:53 | 01:16:21 | 00:00:00 | |
| OE5MMP-10 | 2026-08-31 17:22:43 | 48.17256 | 12.19575 | 69° | 16km/h | 19827m | 5.8m/s | -53.8°C | 4.0% | 60.5hPa | 2.7V | 00:00:00 | 01:16:26 | 00:00:00 | |
| OE5HKT-10 | 2026-08-31 17:22:42 | 48.17254 | 12.19570 | 64° | 16km/h | 19821m | 4.6m/s | 0°C | 0% | 0hPa | 2.7V | 00:00:00 | 00:00:00 | 00:00:00 | |
| DL6DJ-15 | 2026-08-31 17:22:41 | 48.17253 | 12.19566 | 63° | 13km/h | 19816m | 5.4m/s | -54.0°C | 1.3% | 60.6hPa | 2.7V | 00:00:00 | 00:00:00 | 00:00:00 | |
| OE3JTB-15 | 2026-08-31 17:22:40 | 48.17251 | 12.19561 | 63° | 16km/h | 19811m | 5.0m/s | -53.9°C | 4.0% | 60.7hPa | 2.7V | 02:11:00 | 00:00:00 | 00:00:00 | |
| PETON7-10 | 2026-08-31 17:22:39 | 48.17249 | 12.19556 | 54° | 16km/h | 19807m | 4.1m/s | -53.9°C | 4.0% | 60.7hPa | 2.5V | 02:11:00 | 00:00:00 | 00:00:00 | |
| DO3MHA-11 | 2026-08-31 17:22:37 | 48.17244 | 12.19548 | 46° | 18km/h | 19797m | 4.0m/s | -54.0°C | 4.1% | 60.8hPa | 2.5V | 00:00:00 | 01:16:20 | 00:00:00 | |
| DO3MHA-12 | 2026-08-31 17:22:36 | 48.17241 | 12.19543 | 56° | 18km/h | 19792m | 5.3m/s | -54.1°C | 4.1% | 60.8hPa | 2.5V | 00:00:00 | 01:16:19 | 00:00:00 | |
| S52SK | 2026-08-31 17:22:35 | 48.17241 | 12.19543 | 57° | 16km/h | 19792m | 5.4m/s | -54.1°C | 1.3% | 60.9hPa | 2.5V | 02:12:00 | 00:00:00 | 00:00:00 | |
| BAUMI2-15 | 2026-08-31 17:22:34 | 48.17237 | 12.19531 | 70° | 18km/h | 19783m | 5.1m/s | -54.1°C | 4.1% | 61.0hPa | 2.5V | 00:00:00 | 01:16:17 | 00:00:00 | |
| DM0DOS-11 | 2026-08-31 17:22:33 | 48.17231 | 12.19491 | 76° | 18km/h | 19753m | 5.4m/s | -53.9°C | 4.1% | 61.2hPa | 2.5V | 02:12:03 | 01:16:11 | 00:00:00 | |
| OE5MMP-10 | 2026-08-31 17:22:33 | 48.17236 | 12.19525 | 71° | 16km/h | 19777m | 5.3m/s | -54.0°C | 4.1% | 61.0hPa | 2.5V | 02:11:00 | 01:16:16 | 00:00:00 | |
| OE5DXL-15 | 2026-08-31 17:22:30 | 48.17232 | 12.19505 | 82° | 18km/h | 19763m | 5.3m/s | -53.9°C | 4.1% | 61.1hPa | 2.5V | 00:00:00 | 00:00:00 | 00:00:00 | |
| BAUMI2-15 | 2026-08-31 17:22:29 | 48.17232 | 12.19498 | 81° | 16km/h | 19758m | 4.4m/s | -53.9°C | 4.1% | 61.2hPa | 2.5V | 02:12:00 | 01:16:12 | 00:00:00 | |
| DO3MHA-11 | 2026-08-31 17:22:27 | 48.17229 | 12.19485 | 69° | 16km/h | 19748m | 4.7m/s | -53.8°C | 4.1% | 61.3hPa | 2.7V | 00:00:00 | 01:16:10 | 00:00:00 | |
| DO3MHA-12 | 2026-08-31 17:22:26 | 48.17228 | 12.19480 | 62° | 16km/h | 19744m | 3.4m/s | -53.9°C | 4.0% | 61.3hPa | 2.7V | 02:12:00 | 01:16:09 | 00:00:00 | |
| PG1ADW-2 | 2026-08-31 17:22:25 | 48.17226 | 12.19475 | 62° | 16km/h | 19740m | 4.9m/s | -53.9°C | 4.0% | 61.3hPa | 2.5V | 00:00:00 | 00:00:00 | 00:00:00 | |
| PETON7-10 | 2026-08-31 17:22:24 | 48.17224 | 12.19470 | 68° | 16km/h | 19735m | 5.0m/s | -53.9°C | 4.2% | 61.4hPa | 2.5V | 00:00:00 | 00:00:00 | 00:00:00 | |
| DM0DOS-11 | 2026-08-31 17:22:23 | 48.17220 | 12.19436 | 103° | 16km/h | 19707m | 3.7m/s | -54°C | 4.2% | 61.7hPa | 2.5V | 02:12:13 | 01:16:01 | 00:00:00 | |
| OE5MMP-10 | 2026-08-31 17:22:23 | 48.17223 | 12.19464 | 71° | 16km/h | 19731m | 3.8m/s | -53.9°C | 4.1% | 61.4hPa | 2.7V | 00:00:00 | 01:16:06 | 00:00:00 | |
| OE5DRO-10 | 2026-08-31 17:22:21 | 48.17220 | 12.19453 | 73° | 20km/h | 19721m | 4.8m/s | -54.0°C | 4.2% | 61.5hPa | 2.7V | 00:00:00 | 00:00:00 | 00:00:00 | |
| BAUMI2-15 | 2026-08-31 17:22:19 | 48.17219 | 12.19442 | 97° | 16km/h | 19711m | 5.7m/s | -54.0°C | 4.2% | 61.6hPa | 2.7V | 00:00:00 | 01:16:02 | 00:00:00 | |
| DO3MHA-11 | 2026-08-31 17:22:17 | 48.17221 | 12.19430 | 107° | 16km/h | 19702m | 5.0m/s | -54.0°C | 4.2% | 61.7hPa | 2.7V | 02:12:00 | 01:16:00 | 00:00:00 | |
| DO3MHA-12 | 2026-08-31 17:22:16 | 48.17222 | 12.19424 | 105° | 18km/h | 19697m | 5.1m/s | -54.0°C | 4.2% | 61.8hPa | 2.5V | 00:00:00 | 01:15:59 | 00:00:00 | |
| BAUMI2-15 | 2026-08-31 17:22:14 | 48.17224 | 12.19412 | 106° | 16km/h | 19687m | 5.5m/s | -54.0°C | 4.1% | 61.9hPa | 2.5V | 02:12:00 | 01:15:57 | 00:00:00 | |
| DM0DOS-11 | 2026-08-31 17:22:13 | 48.17229 | 12.19375 | 92° | 22km/h | 19657m | 5.3m/s | -53.8°C | 4% | 62.2hPa | 2.5V | 02:12:23 | 01:15:51 | 00:00:00 | |
| OE5MMP-10 | 2026-08-31 17:22:13 | 48.17225 | 12.19406 | 106° | 22km/h | 19682m | 4.4m/s | -53.9°C | 4.1% | 61.9hPa | 2.5V | 00:00:00 | 01:15:56 | 00:00:00 | |
| DB0UT-7 | 2026-08-31 17:22:12 | 48.17227 | 12.19400 | 105° | 27km/h | 19678m | 4.2m/s | -53.9°C | 4.1% | 61.9hPa | 2.5V | 02:12:00 | 01:15:55 | 00:00:00 | |
| OE3JTB-15 | 2026-08-31 17:22:11 | 48.17227 | 12.19395 | 102° | 27km/h | 19673m | 6.0m/s | -53.9°C | 4.1% | 62.0hPa | 2.5V | 00:00:00 | 00:00:00 | 00:00:00 | |
| DL6DJ-15 | 2026-08-31 17:22:10 | 48.17229 | 12.19383 | 96° | 18km/h | 19663m | 5.8m/s | -53.8°C | 1.3% | 62.1hPa | 2.5V | 00:00:00 | 00:00:00 | 00:00:00 | |
| PETON7-10 | 2026-08-31 17:22:09 | 48.17229 | 12.19383 | 97° | 27km/h | 19663m | 5.7m/s | -53.8°C | 4.0% | 62.1hPa | 2.5V | 00:00:00 | 01:15:52 | 00:00:00 | |
| DO3MHA-11 | 2026-08-31 17:22:07 | 48.17229 | 12.19366 | 85° | 27km/h | 19653m | 4.1m/s | -53.7°C | 4.0% | 62.2hPa | 2.5V | 00:00:00 | 01:15:50 | 00:00:00 | |
| DO3MHA-12 | 2026-08-31 17:22:06 | 48.17228 | 12.19356 | 78° | 27km/h | 19649m | 4.4m/s | -53.7°C | 4.1% | 62.2hPa | 2.5V | 00:00:00 | 01:15:49 | 00:00:00 | |
| PG1ADW-2 | 2026-08-31 17:22:05 | 48.17226 | 12.19346 | 71° | 29km/h | 19643m | 6.1m/s | -53.6°C | 4.0% | 62.3hPa | 2.5V | 02:12:00 | 01:15:48 | 00:00:00 | |
| BAUMI2-15 | 2026-08-31 17:22:04 | 48.17223 | 12.19336 | 62° | 27km/h | 19638m | 4.4m/s | -53.6°C | 3.9% | 62.3hPa | 2.5V | 00:00:00 | 01:15:47 | 00:00:00 | |
| DM0DOS-11 | 2026-08-31 17:22:03 | 48.17207 | 12.19281 | 76° | 24km/h | 19608m | 3.6m/s | -53.6°C | 4% | 62.6hPa | 2.5V | 02:12:33 | 01:15:41 | 00:00:00 | |
| OE5MMP-10 | 2026-08-31 17:22:03 | 48.17219 | 12.19327 | 61° | 27km/h | 19633m | 4.8m/s | -53.6°C | 4.0% | 62.4hPa | 2.5V | 02:12:00 | 01:15:46 | 00:00:00 | |
| DF7PN | 2026-08-31 17:21:58 | 48.17206 | 12.19281 | 76° | 24km/h | 19608m | 3.6m/s | -53.6°C | 1.3% | 62.6hPa | 2.7V | 00:00:00 | 00:00:00 | 00:00:00 | |
| DL1ZP-14 | 2026-08-31 17:21:55 | 48.17203 | 12.19249 | 80° | 31km/h | 19593m | 3.8m/s | -53.5°C | 1.2% | 62.8hPa | 2.7V | 00:00:00 | 00:00:00 | 00:00:00 | |
| BAUMI2-15 | 2026-08-31 17:21:54 | 48.17201 | 12.19237 | 78° | 29km/h | 19589m | 5.0m/s | -53.4°C | 4.0% | 62.8hPa | 2.5V | 00:00:00 | 01:15:37 | 00:00:00 | |
| DM0DOS-11 | 2026-08-31 17:21:53 | 48.17188 | 12.19172 | 73° | 33km/h | 19559m | 5.2m/s | -53.8°C | 4% | 63.1hPa | 2.5V | 02:12:43 | 01:15:31 | 00:00:00 | |
| PETON7-10 | 2026-08-31 17:21:53 | 48.17199 | 12.19226 | 74° | 33km/h | 19584m | 4.8m/s | -53.5°C | 4.0% | 62.8hPa | 2.5V | 02:12:00 | 00:00:00 | 00:00:00 | |
| S52SK | 2026-08-31 17:21:51 | 48.17197 | 12.19216 | 72° | 27km/h | 19580m | 4.3m/s | -53.5°C | 1.3% | 62.9hPa | 2.7V | 02:13:00 | 00:00:00 | 00:00:00 | |
| BAUMI2-15 | 2026-08-31 17:21:49 | 48.17190 | 12.19184 | 76° | 33km/h | 19565m | 4.5m/s | -53.7°C | 4.0% | 63.1hPa | 2.7V | 00:00:00 | 01:15:32 | 00:00:00 | |
| DG1MFX-10 | 2026-08-31 17:21:48 | 48.17190 | 12.19184 | 76° | 33km/h | 19565m | 4.5m/s | -53.7°C | 1.3% | 63.1hPa | 2.7V | 02:13:00 | 00:00:00 | 00:00:00 | |
| DO3MHA-11 | 2026-08-31 17:21:47 | 48.17186 | 12.19160 | 71° | 33km/h | 19554m | 5.1m/s | -53.8°C | 4.0% | 63.1hPa | 2.7V | 02:12:00 | 01:15:30 | 00:00:00 | |
| DO3MHA-12 | 2026-08-31 17:21:46 | 48.17183 | 12.19149 | 70° | 33km/h | 19550m | 4.2m/s | -53.8°C | 4.0% | 63.2hPa | 2.5V | 00:00:00 | 01:15:29 | 00:00:00 | |
| PG1ADW-2 | 2026-08-31 17:21:45 | 48.17180 | 12.19137 | 71° | 37km/h | 19545m | 5.8m/s | -53.7°C | 4.0% | 63.3hPa | 2.5V | 00:00:00 | 00:00:00 | 00:00:00 | |
| BAUMI2-15 | 2026-08-31 17:21:44 | 48.17177 | 12.19125 | 70° | 35km/h | 19540m | 4.4m/s | -53.7°C | 4.1% | 63.3hPa | 2.5V | 02:12:00 | 01:15:27 | 00:00:00 | |
| OE5MMP-10 | 2026-08-31 17:21:43 | 48.17173 | 12.19112 | 66° | 35km/h | 19536m | 3.0m/s | -53.7°C | 4.0% | 63.3hPa | 2.7V | 00:00:00 | 01:15:26 | 00:00:00 | |
| DM0DOS-11 | 2026-08-31 17:21:42 | 48.17144 | 12.19052 | 48° | 33km/h | 19508m | 4m/s | -53.6°C | 3.9% | 63.6hPa | 2.7V | 02:12:54 | 01:15:20 | 00:00:00 | |
| OE5WHR-10 | 2026-08-31 17:21:42 | 48.17169 | 12.19100 | 61° | 37km/h | 19532m | 5.0m/s | -53.7°C | 4.0% | 63.4hPa | 2.5V | 02:12:00 | 00:00:00 | 00:00:00 | |
| DF3TZ-5 | 2026-08-31 17:21:41 | 48.17165 | 12.19089 | 53° | 33km/h | 19527m | 5.3m/s | -53.7°C | 1.2% | 63.5hPa | 2.5V | 00:00:00 | 00:00:00 | 00:00:00 | |
| DG1MJG | 2026-08-31 17:21:40 | 48.17165 | 12.19089 | 54° | 33km/h | 19527m | 5.3m/s | -53.7°C | 1.2% | 63.5hPa | 2.5V | 02:13:00 | 00:00:00 | 00:00:00 | |
| DL6DJ-15 | 2026-08-31 17:21:39 | 48.17149 | 12.19062 | 49° | 31km/h | 19512m | 4.3m/s | -53.6°C | 1.2% | 63.6hPa | 2.5V | 00:00:00 | 00:00:00 | 00:00:00 | |
| PETON7-10 | 2026-08-31 17:21:38 | 48.17149 | 12.19062 | 50° | 37km/h | 19512m | 4.3m/s | -53.6°C | 3.9% | 63.6hPa | 2.5V | 00:00:00 | 00:00:00 | 00:00:00 | |
| DO3MHA-11 | 2026-08-31 17:21:37 | 48.17144 | 12.19052 | 49° | 38km/h | 19508m | 3.9m/s | -53.6°C | 3.9% | 63.6hPa | 2.5V | 00:00:00 | 01:15:20 | 00:00:00 | |
| NBG1-10 | 2026-08-31 17:21:36 | 48.17138 | 12.19043 | 48° | 37km/h | 19504m | 4.9m/s | -53.6°C | 3.9% | 63.6hPa | 2.5V | 00:00:00 | 01:15:19 | 00:00:00 | |
| SONDE2-11 | 2026-08-31 17:21:35 | 48.17132 | 12.19033 | 48° | 35km/h | 19499m | 4.4m/s | -53.7°C | -1.0% | -1.0hPa | 2.5V | 00:00:00 | 00:00:00 | 00:00:00 | |
| BAUMI2-15 | 2026-08-31 17:21:34 | 48.17126 | 12.19023 | 53° | 42km/h | 19494m | 5.5m/s | -53.7°C | 3.9% | 63.7hPa | 2.5V | 00:00:00 | 01:15:17 | 00:00:00 | |
| OE5MMP-10 | 2026-08-31 17:21:33 | 48.17121 | 12.19011 | 56° | 38km/h | 19489m | 3.9m/s | -53.7°C | 3.9% | 63.8hPa | 2.5V | 02:12:00 | 01:15:16 | 00:00:00 | |
| DM0DOS-11 | 2026-08-31 17:21:32 | 48.17082 | 12.18937 | 49° | 37km/h | 19463m | 4.3m/s | -53.9°C | 3.9% | 64.1hPa | 2.5V | 02:13:04 | 01:15:10 | 00:00:00 | |
| S52SK | 2026-08-31 17:21:31 | 48.17114 | 12.18998 | 57° | 42km/h | 19485m | 3.6m/s | -53.8°C | 1.2% | 63.9hPa | 2.5V | 02:13:00 | 00:00:00 | 00:00:00 | |
| OE5DXL-15 | 2026-08-31 17:21:30 | 48.17102 | 12.18972 | 51° | 35km/h | 19476m | 4.3m/s | -53.8°C | 4.0% | 63.9hPa | 2.5V | 00:00:00 | 00:00:00 | 00:00:00 | |
| BAUMI2-15 | 2026-08-31 17:21:29 | 48.17095 | 12.18960 | 50° | 37km/h | 19472m | 3.2m/s | -53.8°C | 3.9% | 64.0hPa | 2.5V | 02:13:00 | 01:15:12 | 00:00:00 | |
| DG1MFX-10 | 2026-08-31 17:21:28 | 48.17095 | 12.18960 | 50° | 42km/h | 19472m | 3.2m/s | -53.8°C | 1.3% | 64.0hPa | 2.7V | 02:13:00 | 00:00:00 | 00:00:00 | |
| DO3MHA-11 | 2026-08-31 17:21:27 | 48.17082 | 12.18937 | 50° | 37km/h | 19463m | 4.3m/s | -53.8°C | 3.9% | 64.1hPa | 2.7V | 00:00:00 | 01:15:10 | 00:00:00 | |
| DO3MHA-12 | 2026-08-31 17:21:26 | 48.17076 | 12.18927 | 46° | 37km/h | 19459m | 3.9m/s | -53.9°C | 4.0% | 64.1hPa | 2.7V | 02:13:00 | 01:15:09 | 00:00:00 | |
| DL1ZP-14 | 2026-08-31 17:21:25 | 48.17063 | 12.18911 | 37° | 33km/h | 19449m | 4.9m/s | -54.2°C | 1.3% | 64.3hPa | 2.5V | 00:00:00 | 00:00:00 | 00:00:00 | |
| BAUMI2-15 | 2026-08-31 17:21:24 | 48.17063 | 12.18910 | 38° | 35km/h | 19449m | 4.8m/s | -54.1°C | 4.1% | 64.2hPa | 2.7V | 00:00:00 | 01:15:07 | 00:00:00 | |
| OE5MMP-10 | 2026-08-31 17:21:23 | 48.17056 | 12.18903 | 40° | 38km/h | 19444m | 5.5m/s | -54.3°C | 4.1% | 64.2hPa | 2.7V | 00:00:00 | 01:15:06 | 00:00:00 | |
| DM0DOS-11 | 2026-08-31 17:21:22 | 48.17014 | 12.18848 | 43° | 40km/h | 19417m | 5m/s | -54.6°C | 4.2% | 64.5hPa | 2.7V | 02:13:14 | 01:15:00 | 00:00:00 | |
| OE5WHR-10 | 2026-08-31 17:21:21 | 48.17043 | 12.18886 | 41° | 35km/h | 19436m | 3.9m/s | -54.4°C | 4.1% | 64.3hPa | 2.7V | 00:00:00 | 00:00:00 | 00:00:00 | |
| BAUMI2-15 | 2026-08-31 17:21:19 | 48.17029 | 12.18868 | 39° | 40km/h | 19426m | 4.1m/s | -54.5°C | 4.1% | 64.4hPa | 2.7V | 00:00:00 | 01:15:02 | 00:00:00 | |
| DF9NV-10 | 2026-08-31 17:21:18 | 48.17029 | 12.18868 | 39° | 40km/h | 19426m | 4.2m/s | -54.5°C | 0% | 64.5hPa | 2.7V | 02:13:00 | 00:00:00 | 00:00:00 | |
| DO3MHA-11 | 2026-08-31 17:21:17 | 48.17013 | 12.18848 | 44° | 38km/h | 19417m | 4.9m/s | -54.5°C | 4.2% | 64.5hPa | 2.7V | 02:13:00 | 01:15:00 | 00:00:00 | |
| DO3MHA-12 | 2026-08-31 17:21:16 | 48.17006 | 12.18838 | 45° | 37km/h | 19412m | 4.3m/s | -54.5°C | 4.1% | 64.6hPa | 2.7V | 00:00:00 | 01:14:59 | 00:00:00 | |
| DM0DOS-11 | 2026-08-31 17:21:12 | 48.16943 | 12.18756 | 36° | 26km/h | 19372m | 5.4m/s | -54.3°C | 4.1% | 65hPa | 2.7V | 02:13:24 | 01:14:50 | 00:00:00 | |
| DB0UT-7 | 2026-08-31 17:21:12 | 48.16975 | 12.18794 | 46° | 26km/h | 19393m | 4.2m/s | -54.4°C | 4.2% | 64.8hPa | 2.5V | 00:00:00 | 01:14:55 | 00:00:00 | |
| OE5REO-15 | 2026-08-31 17:21:10 | 48.16961 | 12.18775 | 38° | 35km/h | 19384m | 5.2m/s | -54.4°C | 0% | 64.9hPa | 2.5V | 02:13:00 | 00:00:00 | 00:00:00 | |
| PG1ADW-2 | 2026-08-31 17:21:09 | 48.16955 | 12.18768 | 33° | 31km/h | 19380m | 3.2m/s | -54.3°C | 4.2% | 64.9hPa | 2.5V | 00:00:00 | 00:00:00 | 00:00:00 | |
| OE5DRO-10 | 2026-08-31 17:21:05 | 48.16934 | 12.18744 | 47° | 24km/h | 19362m | 4.4m/s | -54.2°C | 4.0% | 65.1hPa | 2.5V | 02:13:00 | 00:00:00 | 00:00:00 | |
| DK5PH-5 | 2026-08-31 17:21:04 | 48.16929 | 12.18737 | 45° | 24km/h | 19357m | 5.1m/s | -54.3°C | 4.0% | 65.1hPa | 2.5V | 00:00:00 | 01:14:47 | 00:00:00 | |
| NBG1-10 | 2026-08-31 17:21:03 | 48.16925 | 12.18731 | 41° | 24km/h | 19352m | 4.6m/s | -54.3°C | 4.0% | 65.2hPa | 2.5V | 00:00:00 | 01:14:46 | 00:00:00 | |
| DM0DOS-11 | 2026-08-31 17:21:02 | 48.16889 | 12.18679 | 43° | 35km/h | 19324m | 4m/s | -54.8°C | 4.1% | 65.5hPa | 2.5V | 02:13:34 | 01:14:40 | 00:00:00 | |
| S52SK | 2026-08-31 17:21:01 | 48.16919 | 12.18724 | 43° | 29km/h | 19348m | 4.0m/s | -54.5°C | 1.3% | 65.3hPa | 2.7V | 02:14:00 | 00:00:00 | 00:00:00 | |
| OE5WHR-10 | 2026-08-31 17:21:00 | 48.16908 | 12.18706 | 48° | 22km/h | 19338m | 4.5m/s | -54.6°C | 4.1% | 65.3hPa | 2.7V | 00:00:00 | 01:14:43 | 00:00:00 | |
| DF9NV-10 | 2026-08-31 17:20:58 | 48.16902 | 12.18697 | 45° | 35km/h | 19333m | 5.5m/s | 0°C | 0% | 65.4hPa | 2.7V | 00:00:00 | 00:00:00 | 00:00:00 | |
| DO3MHA-11 | 2026-08-31 17:20:57 | 48.16889 | 12.18679 | 44° | 22km/h | 19325m | 4.0m/s | -54.8°C | 4.1% | 65.5hPa | 2.7V | 00:00:00 | 01:14:40 | 00:00:00 | |
| DO3MHA-12 | 2026-08-31 17:20:56 | 48.16883 | 12.18670 | 48° | 20km/h | 19320m | 5.3m/s | -54.9°C | 4.2% | 65.5hPa | 2.7V | 02:13:00 | 01:14:39 | 00:00:00 | |
| PETON7-10 | 2026-08-31 17:20:53 | 48.16870 | 12.18648 | 45° | 18km/h | 19306m | 5.1m/s | -55.1°C | 4.3% | 65.7hPa | 2.7V | 00:00:00 | 00:00:00 | 00:00:00 | |
| DM0DOS-11 | 2026-08-31 17:20:53 | 48.16855 | 12.18622 | 47° | 16km/h | 19277m | 3.4m/s | -54.9°C | 4.3% | 66hPa | 2.7V | 02:13:44 | 01:14:30 | 00:00:00 | |
| S52SK | 2026-08-31 17:20:52 | 48.16870 | 12.18648 | 45° | 22km/h | 19306m | 5.2m/s | -55.1°C | 1.4% | 65.7hPa | 2.7V | 02:14:00 | 00:00:00 | 00:00:00 | |
| DO3MHA-11 | 2026-08-31 17:20:47 | 48.16855 | 12.18622 | 48° | 20km/h | 19278m | 3.3m/s | -54.9°C | 4.3% | 65.9hPa | 2.7V | 02:13:00 | 01:14:30 | 00:00:00 | |
| DO3MHA-12 | 2026-08-31 17:20:46 | 48.16852 | 12.18617 | 54° | 20km/h | 19273m | 4.9m/s | -54.9°C | 4.3% | 66.0hPa | 2.7V | 00:00:00 | 01:14:29 | 00:00:00 | |
| OE5MMP-10 | 2026-08-31 17:20:43 | 48.16844 | 12.18598 | 54° | 22km/h | 19260m | 5.3m/s | -54.8°C | 4.3% | 66.1hPa | 2.7V | 00:00:00 | 01:14:26 | 00:00:00 | |
| DM0DOS-11 | 2026-08-31 17:20:42 | 48.16827 | 12.18558 | 59° | 22km/h | 19232m | 4.3m/s | -54.9°C | 4.3% | 66.5hPa | 2.7V | 02:13:54 | 01:14:20 | 00:00:00 | |
| DB0UT-7 | 2026-08-31 17:20:42 | 48.16840 | 12.18592 | 51° | 26km/h | 19255m | 4.0m/s | -54.8°C | 4.3% | 66.2hPa | 2.5V | 02:13:00 | 00:00:00 | 00:00:00 | |
| DG1MJG | 2026-08-31 17:20:40 | 48.16837 | 12.18585 | 55° | 22km/h | 19251m | 4.6m/s | -54.9°C | 1.4% | 66.3hPa | 2.5V | 02:14:00 | 00:00:00 | 00:00:00 | |
| OE5WHR-10 | 2026-08-31 17:20:39 | 48.16832 | 12.18571 | 64° | 26km/h | 19241m | 3.9m/s | -54.9°C | 4.3% | 66.3hPa | 2.5V | 02:13:00 | 00:00:00 | 00:00:00 | |
| PETON7-10 | 2026-08-31 17:20:38 | 48.16829 | 12.18564 | 62° | 26km/h | 19237m | 4.9m/s | -54.9°C | 4.3% | 66.3hPa | 2.5V | 00:00:00 | 01:14:21 | 00:00:00 | |
| DO3MHA-11 | 2026-08-31 17:20:37 | 48.16827 | 12.18558 | 60° | 26km/h | 19232m | 4.3m/s | -54.8°C | 4.3% | 66.4hPa | 2.5V | 00:00:00 | 01:14:20 | 00:00:00 | |
| DO3MHA-12 | 2026-08-31 17:20:36 | 48.16824 | 12.18550 | 64° | 26km/h | 19228m | 4.2m/s | -54.8°C | 4.2% | 66.4hPa | 2.5V | 00:00:00 | 01:14:19 | 00:00:00 | |
| DK5PH-5 | 2026-08-31 17:20:34 | 48.16819 | 12.18533 | 70° | 29km/h | 19218m | 4.8m/s | -54.7°C | 4.2% | 66.6hPa | 2.5V | 00:00:00 | 01:14:17 | 00:00:00 | |
| OE5MMP-10 | 2026-08-31 17:20:33 | 48.16817 | 12.18524 | 68° | 26km/h | 19213m | 5.6m/s | -54.7°C | 4.2% | 66.6hPa | 2.5V | 02:13:00 | 01:14:16 | 00:00:00 | |
| S52SK | 2026-08-31 17:20:32 | 48.16817 | 12.18524 | 68° | 26km/h | 19213m | 5.7m/s | -54.7°C | 1.4% | 66.6hPa | 2.7V | 02:14:00 | 00:00:00 | 00:00:00 | |
| OE5DXL-15 | 2026-08-31 17:20:30 | 48.16809 | 12.18497 | 72° | 29km/h | 19199m | 5.6m/s | -54.6°C | 4.2% | 66.8hPa | 2.7V | 02:14:00 | 00:00:00 | 00:00:00 | |
| DM0DOS-11 | 2026-08-31 17:20:29 | 48.16795 | 12.18441 | 72° | 27km/h | 19171m | 4.9m/s | -54.4°C | 4.3% | 67.1hPa | 2.5V | 02:14:07 | 01:14:07 | 00:00:00 | |
| DO3MHA-11 | 2026-08-31 17:20:27 | 48.16803 | 12.18469 | 67° | 29km/h | 19185m | 4.8m/s | -54.4°C | 4.2% | 66.9hPa | 2.7V | 00:00:00 | 01:14:10 | 00:00:00 | |
| DO3MHA-12 | 2026-08-31 17:20:26 | 48.16800 | 12.18460 | 66° | 29km/h | 19180m | 3.6m/s | -54.4°C | 4.2% | 66.9hPa | 2.7V | 02:14:00 | 01:14:09 | 00:00:00 | |
| DF7PN | 2026-08-31 17:20:25 | 48.16798 | 12.18450 | 68° | 26km/h | 19176m | 5.4m/s | -54.4°C | 1.3% | 67.0hPa | 2.5V | 00:00:00 | 00:00:00 | 00:00:00 | |
| S52SK | 2026-08-31 17:20:24 | 48.16797 | 12.18450 | 69° | 27km/h | 19176m | 5.4m/s | -54.4°C | 1.3% | 67.0hPa | 2.5V | 02:14:00 | 00:00:00 | 00:00:00 | |
| PETON7-10 | 2026-08-31 17:20:23 | 48.16793 | 12.18430 | 74° | 29km/h | 19166m | 4.0m/s | -54.3°C | 4.3% | 67.1hPa | 2.5V | 02:14:00 | 00:00:00 | 00:00:00 | |
| DL1ZP-14 | 2026-08-31 17:20:22 | 48.16791 | 12.18420 | 70° | 27km/h | 19162m | 5.1m/s | -54.4°C | 1.3% | 67.2hPa | 2.5V | 00:00:00 | 00:00:00 | 00:00:00 | |
| DM0DOS-11 | 2026-08-31 17:20:19 | 48.16775 | 12.18333 | 79° | 26km/h | 19124m | 5.4m/s | -54.3°C | 4.1% | 67.6hPa | 2.7V | 02:14:17 | 01:13:57 | 00:00:00 | |
| OE5WHR-10 | 2026-08-31 17:20:18 | 48.16780 | 12.18375 | 77° | 31km/h | 19144m | 4.3m/s | -54.3°C | 4.1% | 67.3hPa | 2.5V | 00:00:00 | 00:00:00 | 00:00:00 | |
| DO3MHA-11 | 2026-08-31 17:20:17 | 48.16779 | 12.18363 | 80° | 27km/h | 19140m | 4.1m/s | -54.3°C | 4.0% | 67.4hPa | 2.5V | 02:14:00 | 01:14:00 | 00:00:00 | |
| DO3MHA-12 | 2026-08-31 17:20:16 | 48.16777 | 12.18352 | 78° | 27km/h | 19135m | 5.4m/s | -54.3°C | 4.1% | 67.4hPa | 2.7V | 00:00:00 | 01:13:59 | 00:00:00 | |
| OE3JTB-15 | 2026-08-31 17:20:15 | 48.16776 | 12.18342 | 78° | 33km/h | 19130m | 4.4m/s | -54.3°C | 4.1% | 67.5hPa | 2.7V | 00:00:00 | 01:13:58 | 00:00:00 | |
| OE5MMP-10 | 2026-08-31 17:20:13 | 48.16773 | 12.18323 | 82° | 29km/h | 19119m | 4.8m/s | -54.3°C | 4.1% | 67.6hPa | 2.7V | 00:00:00 | 01:13:56 | 00:00:00 | |
| DB0UT-7 | 2026-08-31 17:20:12 | 48.16772 | 12.18314 | 77° | 35km/h | 19115m | 4.1m/s | -54.3°C | 4.1% | 67.6hPa | 2.7V | 00:00:00 | 01:13:55 | 00:00:00 | |
| DG1MJG | 2026-08-31 17:20:10 | 48.16770 | 12.18304 | 71° | 26km/h | 19110m | 5.4m/s | -54.3°C | 1.4% | 67.7hPa | 2.7V | 02:15:00 | 00:00:00 | 00:00:00 | |
| DM0DOS-11 | 2026-08-31 17:20:09 | 48.16747 | 12.18228 | 61° | 31km/h | 19077m | 4.4m/s | -54.4°C | 4.2% | 68.1hPa | 2.7V | 02:14:27 | 01:13:47 | 00:00:00 | |
| PETON7-10 | 2026-08-31 17:20:08 | 48.16761 | 12.18274 | 68° | 33km/h | 19096m | 4.3m/s | -54.3°C | 4.2% | 67.8hPa | 2.7V | 00:00:00 | 00:00:00 | 00:00:00 | |
| DO3MHA-11 | 2026-08-31 17:20:07 | 48.16758 | 12.18262 | 68° | 33km/h | 19092m | 3.9m/s | -54.3°C | 4.2% | 67.9hPa | 2.7V | 00:00:00 | 01:13:50 | 00:00:00 | |
| DG1MFX-10 | 2026-08-31 17:20:06 | 48.16755 | 12.18250 | 67° | 35km/h | 19087m | 5.2m/s | -54.3°C | 1.4% | 68.0hPa | 2.7V | 02:15:00 | 00:00:00 | 00:00:00 | |
| DK5PH-5 | 2026-08-31 17:20:04 | 48.16747 | 12.18228 | 62° | 38km/h | 19078m | 4.3m/s | -54.3°C | 4.2% | 68.0hPa | 2.7V | 02:14:00 | 01:13:47 | 00:00:00 | |
| OE5MMP-10 | 2026-08-31 17:20:03 | 48.16743 | 12.18218 | 64° | 33km/h | 19073m | 5.0m/s | -54.3°C | 4.1% | 68.0hPa | 2.7V | 02:14:00 | 01:13:46 | 00:00:00 | |
| SONDE2-11 | 2026-08-31 17:20:02 | 48.16719 | 12.18140 | 64° | 35km/h | 19039m | 3.3m/s | 0°C | -1.0% | -1.0hPa | 2.5V | 00:00:00 | 00:00:00 | 00:00:00 | |
| OE5DXL-15 | 2026-08-31 17:20:00 | 48.16734 | 12.18185 | 66° | 38km/h | 19058m | 5.3m/s | -54.4°C | 4.1% | 68.2hPa | 2.5V | 00:00:00 | 00:00:00 | 00:00:00 | |
| DM0DOS-11 | 2026-08-31 17:19:59 | 48.16710 | 12.18116 | 55° | 38km/h | 19030m | 4.8m/s | -54.4°C | 4.1% | 68.5hPa | 2.5V | 02:14:37 | 01:13:37 | 00:00:00 | |
| DF7PN | 2026-08-31 17:19:54 | 48.16710 | 12.18116 | 55° | 37km/h | 19030m | 4.9m/s | -54.4°C | 1.3% | 68.5hPa | 2.7V | 00:00:00 | 00:00:00 | 00:00:00 | |
| DL1ZP-14 | 2026-08-31 17:19:51 | 48.16693 | 12.18079 | 55° | 40km/h | 19016m | 3.7m/s | -54.5°C | 1.3% | 68.7hPa | 2.7V | 00:00:00 | 00:00:00 | 00:00:00 | |
| DM0DOS-11 | 2026-08-31 17:19:49 | 48.16653 | 12.17993 | 55° | 38km/h | 18983m | 5.2m/s | -54.5°C | 4.1% | 69.1hPa | 2.5V | 02:14:47 | 01:13:27 | 00:00:00 | |
| DO3MHA-11 | 2026-08-31 17:19:47 | 48.16668 | 12.18031 | 57° | 40km/h | 18997m | 5.7m/s | -54.5°C | 4.2% | 68.9hPa | 2.7V | 02:14:00 | 01:13:30 | 00:00:00 | |
| DO3MHA-12 | 2026-08-31 17:19:46 | 48.16663 | 12.18018 | 60° | 40km/h | 18991m | 4.3m/s | -54.5°C | 4.2% | 68.9hPa | 2.7V | 00:00:00 | 01:13:29 | 00:00:00 | |
| DG1MFX-10 | 2026-08-31 17:19:45 | 48.16663 | 12.18018 | 60° | 38km/h | 18991m | 4.3m/s | -54.5°C | 1.4% | 69.0hPa | 2.7V | 02:15:00 | 00:00:00 | 00:00:00 | |
| OE5MMP-10 | 2026-08-31 17:19:43 | 48.16647 | 12.17982 | 52° | 42km/h | 18978m | 3.9m/s | -54.4°C | 4.2% | 69.1hPa | 2.7V | 00:00:00 | 01:13:26 | 00:00:00 | |
| DB0UT-7 | 2026-08-31 17:19:42 | 48.16641 | 12.17970 | 52° | 38km/h | 18974m | 4.9m/s | -54.5°C | 4.2% | 69.1hPa | 2.7V | 00:00:00 | 00:00:00 | 00:00:00 | |
| S52SK | 2026-08-31 17:19:40 | 48.16635 | 12.17958 | 52° | 38km/h | 18969m | 4.3m/s | -54.5°C | 1.4% | 69.2hPa | 2.7V | 02:15:00 | 00:00:00 | 00:00:00 | |
| DM0DOS-11 | 2026-08-31 17:19:39 | 48.16581 | 12.17876 | 42° | 44km/h | 18936m | 5.5m/s | -54.5°C | 4.1% | 69.6hPa | 2.7V | 02:14:57 | 01:13:17 | 00:00:00 | |
| PETON7-10 | 2026-08-31 17:19:38 | 48.16613 | 12.17923 | 44° | 38km/h | 18955m | 4.6m/s | -54.4°C | 4.0% | 69.3hPa | 2.5V | 02:14:00 | 00:00:00 | 00:00:00 | |
| DO3MHA-11 | 2026-08-31 17:19:37 | 48.16605 | 12.17912 | 45° | 40km/h | 18951m | 4.9m/s | -54.3°C | 4.1% | 69.4hPa | 2.5V | 00:00:00 | 01:13:20 | 00:00:00 | |
| DO3MHA-12 | 2026-08-31 17:19:36 | 48.16597 | 12.17899 | 46° | 38km/h | 18946m | 4.4m/s | -54.3°C | 4.1% | 69.4hPa | 2.5V | 00:00:00 | 01:13:19 | 00:00:00 | |
| DK5PH-5 | 2026-08-31 17:19:34 | 48.16581 | 12.17876 | 43° | 35km/h | 18937m | 5.4m/s | -54.4°C | 4.1% | 69.5hPa | 2.5V | 00:00:00 | 01:13:17 | 00:00:00 | |
| OE5MMP-10 | 2026-08-31 17:19:33 | 48.16573 | 12.17865 | 42° | 35km/h | 18932m | 4.1m/s | -54.4°C | 4.1% | 69.6hPa | 2.5V | 02:14:00 | 01:13:16 | 00:00:00 | |
| SONDE2-11 | 2026-08-31 17:19:31 | 48.16559 | 12.17845 | 45° | 35km/h | 18922m | 5.0m/s | 0°C | -1.0% | -1.0hPa | 2.5V | 00:00:00 | 00:00:00 | 00:00:00 | |
| OE5DXL-15 | 2026-08-31 17:19:30 | 48.16553 | 12.17836 | 46° | 35km/h | 18918m | 4.1m/s | -54.4°C | 4.0% | 69.8hPa | 2.5V | 00:00:00 | 00:00:00 | 00:00:00 | |
| DO3MHA-11 | 2026-08-31 17:19:27 | 48.16534 | 12.17811 | 41° | 37km/h | 18903m | 5.0m/s | -54.9°C | 4.2% | 69.9hPa | 2.5V | 00:00:00 | 01:13:10 | 00:00:00 | |
| DO3MHA-12 | 2026-08-31 17:19:26 | 48.16528 | 12.17803 | 42° | 38km/h | 18898m | 4.6m/s | -55.1°C | 4.4% | 70.0hPa | 2.5V | 02:15:00 | 01:13:09 | 00:00:00 | |
| S52SK | 2026-08-31 17:19:25 | 48.16528 | 12.17803 | 43° | 33km/h | 18898m | 4.6m/s | -55.2°C | 1.4% | 70.0hPa | 2.7V | 02:15:00 | 00:00:00 | 00:00:00 | |
| DG1MFX-10 | 2026-08-31 17:19:24 | 48.16521 | 12.17795 | 41° | 35km/h | 18894m | 3.4m/s | -55.2°C | 1.5% | 70.0hPa | 2.7V | 02:15:00 | 00:00:00 | 00:00:00 | |
| DM0DOS-11 | 2026-08-31 17:19:23 | 48.16499 | 12.17770 | 36° | 40km/h | 18879m | 5.2m/s | -55.1°C | 4.4% | 70.2hPa | 2.7V | 02:15:09 | 01:13:05 | 00:00:00 | |
| OE5MMP-10 | 2026-08-31 17:19:23 | 48.16507 | 12.17779 | 35° | 37km/h | 18884m | 4.8m/s | -55.1°C | 4.4% | 70.1hPa | 2.5V | 00:00:00 | 01:13:06 | 00:00:00 | |
| OE5REO-15 | 2026-08-31 17:19:21 | 48.16499 | 12.17770 | 37° | 40km/h | 18879m | 5.3m/s | -55.1°C | 0% | 70.2hPa | 2.5V | 02:15:00 | 00:00:00 | 00:00:00 | |
| DL1ZP-14 | 2026-08-31 17:19:20 | 48.16483 | 12.17751 | 38° | 40km/h | 18870m | 3.3m/s | -55.1°C | 1.4% | 70.3hPa | 2.5V | 00:00:00 | 00:00:00 | 00:00:00 | |
| DB0NH | 2026-08-31 17:19:19 | 48.16475 | 12.17742 | 36° | 33km/h | 18866m | 5.2m/s | -55.1°C | 4.4% | 70.3hPa | 2.5V | 02:15:00 | 01:13:02 | 00:00:00 | |
| DO3MHA-11 | 2026-08-31 17:19:17 | 48.16459 | 12.17726 | 35° | 33km/h | 18857m | 4.3m/s | -55.0°C | 4.4% | 70.4hPa | 2.7V | 02:15:00 | 01:13:00 | 00:00:00 | |
| DO3MHA-12 | 2026-08-31 17:19:16 | 48.16452 | 12.17719 | 37° | 33km/h | 18852m | 5.4m/s | -55.0°C | 4.4% | 70.5hPa | 2.7V | 00:00:00 | 01:12:59 | 00:00:00 | |
| OE5WHR-10 | 2026-08-31 17:19:15 | 48.16445 | 12.17711 | 38° | 33km/h | 18847m | 4.3m/s | -54.9°C | 4.4% | 70.5hPa | 2.7V | 00:00:00 | 00:00:00 | 00:00:00 | |
| DM0DOS-11 | 2026-08-31 17:19:13 | 48.16424 | 12.17691 | 27° | 33km/h | 18832m | 4.3m/s | -54.9°C | 4.4% | 70.7hPa | 2.7V | 02:15:19 | 01:12:55 | 00:00:00 | |
| OE5MMP-10 | 2026-08-31 17:19:13 | 48.16431 | 12.17697 | 29° | 33km/h | 18837m | 4.8m/s | -54.8°C | 4.4% | 70.6hPa | 2.7V | 00:00:00 | 01:12:56 | 00:00:00 | |
| DB0UT-7 | 2026-08-31 17:19:12 | 48.16424 | 12.17691 | 28° | 31km/h | 18832m | 4.2m/s | -54.8°C | 4.4% | 70.7hPa | 2.7V | 02:15:00 | 01:12:55 | 00:00:00 | |
| OE5DRO-10 | 2026-08-31 17:19:11 | 48.16416 | 12.17685 | 30° | 33km/h | 18827m | 5.9m/s | -54.8°C | 4.4% | 70.7hPa | 2.7V | 02:15:00 | 00:00:00 | 00:00:00 | |
| S52SK | 2026-08-31 17:19:10 | 48.16417 | 12.17685 | 31° | 33km/h | 18827m | 6.0m/s | -54.8°C | 1.4% | 70.8hPa | 2.5V | 00:00:00 | 00:00:00 | 00:00:00 | |
| BAUMI2-15 | 2026-08-31 17:19:09 | 48.16402 | 12.17672 | 31° | 33km/h | 18817m | 4.8m/s | -54.7°C | 4.4% | 70.9hPa | 2.5V | 00:00:00 | 01:12:52 | 00:00:00 | |
| PETON7-10 | 2026-08-31 17:19:08 | 48.16395 | 12.17666 | 28° | 33km/h | 18812m | 4.8m/s | -54.6°C | 4.3% | 70.9hPa | 2.5V | 00:00:00 | 01:12:51 | 00:00:00 | |
| DO3MHA-11 | 2026-08-31 17:19:07 | 48.16387 | 12.17660 | 29° | 31km/h | 18807m | 4.1m/s | -54.6°C | 4.4% | 70.9hPa | 2.5V | 00:00:00 | 01:12:50 | 00:00:00 | |
| DO3MHA-12 | 2026-08-31 17:19:06 | 48.16380 | 12.17654 | 32° | 31km/h | 18803m | 5.8m/s | -54.6°C | 4.3% | 71.0hPa | 2.5V | 00:00:00 | 01:12:49 | 00:00:00 | |
| S52SK | 2026-08-31 17:19:04 | 48.16373 | 12.17647 | 35° | 33km/h | 18797m | 4.8m/s | -54.5°C | 1.4% | 71.1hPa | 2.5V | 00:00:00 | 00:00:00 | 00:00:00 | |
| DM0DOS-11 | 2026-08-31 17:19:03 | 48.16353 | 12.17629 | 26° | 31km/h | 18782m | 4.4m/s | -54.4°C | 4.2% | 71.3hPa | 2.5V | 02:15:29 | 01:12:45 | 00:00:00 | |
| OE5MMP-10 | 2026-08-31 17:19:03 | 48.16360 | 12.17634 | 30° | 33km/h | 18787m | 5.4m/s | -54.4°C | 4.3% | 71.2hPa | 2.5V | 02:15:00 | 01:12:46 | 00:00:00 | |
| OE5DXL-15 | 2026-08-31 17:19:00 | 48.16339 | 12.17618 | 29° | 31km/h | 18772m | 4.9m/s | -54.3°C | 4.1% | 71.4hPa | 2.7V | 02:15:00 | 00:00:00 | 00:00:00 | |
| BAUMI2-15 | 2026-08-31 17:18:59 | 48.16332 | 12.17612 | 27° | 33km/h | 18768m | 3.7m/s | -54.2°C | 4.1% | 71.4hPa | 2.5V | 02:15:00 | 01:12:42 | 00:00:00 | |
| DO3MHA-11 | 2026-08-31 17:18:57 | 48.16317 | 12.17603 | 22° | 31km/h | 18758m | 4.3m/s | -54.2°C | 4.3% | 71.5hPa | 2.7V | 00:00:00 | 01:12:40 | 00:00:00 | |
| DO3MHA-12 | 2026-08-31 17:18:56 | 48.16308 | 12.17597 | 24° | 31km/h | 18753m | 5.3m/s | -54.2°C | 4.2% | 71.6hPa | 2.7V | 02:15:00 | 01:12:39 | 00:00:00 | |
| S52SK | 2026-08-31 17:18:55 | 48.16308 | 12.17597 | 25° | 35km/h | 18753m | 5.3m/s | -54.2°C | 1.4% | 71.6hPa | 2.5V | 00:00:00 | 00:00:00 | 00:00:00 | |
| OE5REO-15 | 2026-08-31 17:18:54 | 48.16301 | 12.17592 | 28° | 35km/h | 18748m | 5.1m/s | -54.2°C | 0% | 71.6hPa | 2.5V | 02:15:00 | 00:00:00 | 00:00:00 | |
| DM0DOS-11 | 2026-08-31 17:18:53 | 48.16278 | 12.17576 | 24° | 31km/h | 18733m | 3.9m/s | -54°C | 4.2% | 71.8hPa | 2.5V | 02:15:39 | 01:12:35 | 00:00:00 | |
| DF7PN | 2026-08-31 17:18:52 | 48.16271 | 12.17571 | 27° | 29km/h | 18728m | 5.7m/s | -54.0°C | 1.4% | 71.9hPa | 2.6V | 00:00:00 | 00:00:00 | 00:00:00 | |
| NBG1-10 | 2026-08-31 17:18:51 | 48.16271 | 12.17571 | 28° | 29km/h | 18729m | 5.7m/s | -53.9°C | 4.2% | 71.8hPa | 2.6V | 02:15:00 | 01:12:34 | 00:00:00 | |
| BAUMI2-15 | 2026-08-31 17:18:49 | 48.16258 | 12.17560 | 28° | 29km/h | 18719m | 4.4m/s | -53.8°C | 4.2% | 71.9hPa | 2.5V | 00:00:00 | 01:12:32 | 00:00:00 | |
| OE3JTB-15 | 2026-08-31 17:18:48 | 48.16252 | 12.17556 | 24° | 29km/h | 18714m | 5.1m/s | -53.8°C | 4.2% | 72.0hPa | 2.5V | 00:00:00 | 01:12:31 | 00:00:00 | |
| DO3MHA-11 | 2026-08-31 17:18:47 | 48.16246 | 12.17552 | 23° | 31km/h | 18710m | 4.3m/s | -53.8°C | 4.2% | 72.1hPa | 2.5V | 02:15:00 | 01:12:30 | 00:00:00 | |
| DO3MHA-12 | 2026-08-31 17:18:46 | 48.16239 | 12.17548 | 26° | 31km/h | 18705m | 5.6m/s | -53.7°C | 4.2% | 72.1hPa | 2.5V | 00:00:00 | 01:12:29 | 00:00:00 | |
| DM0DOS-11 | 2026-08-31 17:18:43 | 48.16209 | 12.17528 | 25° | 35km/h | 18685m | 4.9m/s | -53.6°C | 4.1% | 72.4hPa | 2.5V | 02:15:49 | 01:12:25 | 00:00:00 | |
| OE5MMP-10 | 2026-08-31 17:18:43 | 48.16217 | 12.17533 | 23° | 29km/h | 18689m | 3.9m/s | -53.6°C | 4.1% | 72.3hPa | 2.7V | 00:00:00 | 01:12:26 | 00:00:00 | |
| DB0UT-7 | 2026-08-31 17:18:42 | 48.16209 | 12.17528 | 26° | 27km/h | 18685m | 4.9m/s | -53.5°C | 4.1% | 72.3hPa | 2.7V | 00:00:00 | 00:00:00 | 00:00:00 | |
| S52SK | 2026-08-31 17:18:40 | 48.16201 | 12.17522 | 31° | 35km/h | 18680m | 4.7m/s | -53.6°C | 1.4% | 72.4hPa | 2.7V | 00:00:00 | 00:00:00 | 00:00:00 | |
| BAUMI2-15 | 2026-08-31 17:18:39 | 48.16188 | 12.17509 | 33° | 27km/h | 18670m | 5.6m/s | -53.5°C | 4.1% | 72.5hPa | 2.7V | 00:00:00 | 01:12:22 | 00:00:00 | |
| PETON7-10 | 2026-08-31 17:18:38 | 48.16181 | 12.17503 | 31° | 29km/h | 18665m | 4.8m/s | -53.4°C | 4.1% | 72.6hPa | 2.7V | 00:00:00 | 00:00:00 | 00:00:00 | |
| DO3MHA-11 | 2026-08-31 17:18:37 | 48.16175 | 12.17498 | 32° | 29km/h | 18661m | 3.5m/s | -53.4°C | 4.0% | 72.6hPa | 2.7V | 00:00:00 | 01:12:20 | 00:00:00 | |
| DO3MHA-12 | 2026-08-31 17:18:36 | 48.16170 | 12.17493 | 35° | 29km/h | 18656m | 5.5m/s | -53.4°C | 3.9% | 72.7hPa | 2.7V | 00:00:00 | 01:12:19 | 00:00:00 | |
| DF3TZ-5 | 2026-08-31 17:18:35 | 48.16165 | 12.17487 | 38° | 26km/h | 18651m | 4.6m/s | -53.4°C | 1.2% | 72.8hPa | 2.7V | 00:00:00 | 00:00:00 | 00:00:00 | |
| DN1GJH-1 | 2026-08-31 17:18:34 | 48.16165 | 12.17487 | 39° | 26km/h | 18651m | 4.6m/s | -53.4°C | 1.3% | 72.8hPa | 2.7V | 00:00:00 | 00:00:00 | 00:00:00 | |
| DM0DOS-11 | 2026-08-31 17:18:33 | 48.16147 | 12.17470 | 28° | 31km/h | 18637m | 4.4m/s | -53.3°C | 4% | 72.9hPa | 2.7V | 02:15:59 | 01:12:15 | 00:00:00 | |
| OE5MMP-10 | 2026-08-31 17:18:33 | 48.16154 | 12.17475 | 31° | 29km/h | 18642m | 5.6m/s | -53.3°C | 4.0% | 72.8hPa | 2.7V | 02:15:00 | 01:12:16 | 00:00:00 | |
| DL6DJ-15 | 2026-08-31 17:18:32 | 48.16147 | 12.17470 | 28° | 29km/h | 18637m | 4.4m/s | -53.3°C | 1.3% | 72.9hPa | 2.5V | 00:00:00 | 00:00:00 | 00:00:00 | |
| OE5DXL-15 | 2026-08-31 17:18:30 | 48.16133 | 12.17458 | 31° | 26km/h | 18628m | 4.1m/s | -53.2°C | 4.1% | 73.0hPa | 2.5V | 00:00:00 | 00:00:00 | 00:00:00 | |
| BAUMI2-15 | 2026-08-31 17:18:29 | 48.16126 | 12.17452 | 30° | 29km/h | 18624m | 3.4m/s | -53.2°C | 4.1% | 73.0hPa | 2.5V | 02:16:00 | 01:12:12 | 00:00:00 | |
| DO3MHA-11 | 2026-08-31 17:18:27 | 48.16112 | 12.17442 | 27° | 26km/h | 18614m | 3.8m/s | -53.2°C | 4.1% | 73.2hPa | 2.7V | 00:00:00 | 01:12:10 | 00:00:00 | |
| DO3MHA-12 | 2026-08-31 17:18:26 | 48.16106 | 12.17436 | 30° | 26km/h | 18610m | 4.9m/s | -53.1°C | 4.1% | 73.2hPa | 2.7V | 02:16:00 | 01:12:09 | 00:00:00 | |
| S52SK | 2026-08-31 17:18:25 | 48.16106 | 12.17437 | 30° | 27km/h | 18610m | 4.9m/s | -53.2°C | 1.3% | 73.2hPa | 2.7V | 02:16:00 | 00:00:00 | 00:00:00 | |
| DM0DOS-11 | 2026-08-31 17:18:23 | 48.16085 | 12.17413 | 39° | 24km/h | 18590m | 5.2m/s | -53°C | 4% | 73.5hPa | 2.7V | 02:16:09 | 01:12:05 | 00:00:00 | |
| PETON7-10 | 2026-08-31 17:18:23 | 48.16090 | 12.17418 | 41° | 26km/h | 18596m | 5.0m/s | -53.0°C | 3.9% | 73.4hPa | 2.6V | 00:00:00 | 01:12:06 | 00:00:00 | |
| DF7PN | 2026-08-31 17:18:21 | 48.16076 | 12.17401 | 40° | 26km/h | 18581m | 5.7m/s | -53.0°C | 1.3% | 73.5hPa | 2.6V | 00:00:00 | 00:00:00 | 00:00:00 | |
| BAUMI2-15 | 2026-08-31 17:18:19 | 48.16071 | 12.17395 | 40° | 27km/h | 18576m | 3.8m/s | -52.9°C | 3.9% | 73.6hPa | 2.6V | 00:00:00 | 01:12:02 | 00:00:00 | |
| DO3MHA-11 | 2026-08-31 17:18:17 | 48.16060 | 12.17382 | 36° | 24km/h | 18567m | 4.4m/s | -52.9°C | 3.8% | 73.7hPa | 2.6V | 02:16:00 | 01:12:00 | 00:00:00 | |
| NBG1-10 | 2026-08-31 17:18:16 | 48.16055 | 12.17377 | 38° | 22km/h | 18562m | 4.5m/s | -52.9°C | 3.9% | 73.7hPa | 2.5V | 00:00:00 | 01:11:59 | 00:00:00 | |
| DM0DOS-11 | 2026-08-31 17:18:13 | 48.16035 | 12.17349 | 47° | 22km/h | 18544m | 4.7m/s | -52.9°C | 3.9% | 74hPa | 2.5V | 02:16:19 | 01:11:55 | 00:00:00 | |
| OE5MMP-10 | 2026-08-31 17:18:13 | 48.16040 | 12.17356 | 47° | 24km/h | 18550m | 4.8m/s | -52.8°C | 3.9% | 73.9hPa | 2.5V | 00:00:00 | 01:11:56 | 00:00:00 | |
| DB0UT-7 | 2026-08-31 17:18:12 | 48.16036 | 12.17349 | 48° | 20km/h | 18545m | 4.7m/s | -52.8°C | 3.9% | 73.9hPa | 2.5V | 00:00:00 | 01:11:55 | 00:00:00 | |
| DB0NH | 2026-08-31 17:18:11 | 48.16032 | 12.17343 | 55° | 22km/h | 18540m | 4.5m/s | -52.8°C | 3.9% | 74.0hPa | 2.5V | 00:00:00 | 01:11:54 | 00:00:00 | |
| S52SK | 2026-08-31 17:18:10 | 48.16032 | 12.17343 | 55° | 22km/h | 18540m | 4.5m/s | -52.9°C | 1.3% | 74.0hPa | 2.5V | 02:16:00 | 00:00:00 | 00:00:00 | |
| BAUMI2-15 | 2026-08-31 17:18:09 | 48.16026 | 12.17329 | 57° | 22km/h | 18531m | 4.0m/s | -52.8°C | 3.9% | 74.1hPa | 2.5V | 00:00:00 | 01:11:52 | 00:00:00 | |
| PETON7-10 | 2026-08-31 17:18:08 | 48.16023 | 12.17323 | 51° | 22km/h | 18526m | 5.1m/s | -52.8°C | 3.8% | 74.2hPa | 2.5V | 02:16:00 | 00:00:00 | 00:00:00 | |
| DO3MHA-11 | 2026-08-31 17:18:07 | 48.16019 | 12.17317 | 44° | 26km/h | 18522m | 3.4m/s | -52.8°C | 3.8% | 74.2hPa | 2.5V | 00:00:00 | 01:11:50 | 00:00:00 | |
| DO3MHA-12 | 2026-08-31 17:18:06 | 48.16015 | 12.17312 | 43° | 24km/h | 18518m | 4.2m/s | -52.8°C | 3.8% | 74.2hPa | 2.5V | 00:00:00 | 01:11:49 | 00:00:00 | |
| OE5REO-15 | 2026-08-31 17:18:05 | 48.16015 | 12.17312 | 43° | 24km/h | 18518m | 4.2m/s | -52.9°C | 0% | 0hPa | 2.5V | 00:00:00 | 00:00:00 | 00:00:00 | |
| S52SK | 2026-08-31 17:18:04 | 48.16010 | 12.17305 | 44° | 26km/h | 18514m | 5.1m/s | -53.0°C | 1.3% | 74.3hPa | 2.5V | 02:16:00 | 00:00:00 | 00:00:00 | |
| DM0DOS-11 | 2026-08-31 17:18:03 | 48.15994 | 12.17284 | 34° | 27km/h | 18500m | 4.8m/s | -52.9°C | 3.8% | 74.5hPa | 2.5V | 02:16:29 | 01:11:45 | 00:00:00 | |
| DL6DJ-15 | 2026-08-31 17:18:01 | 48.15988 | 12.17278 | 35° | 24km/h | 18496m | 3.2m/s | -52.9°C | 1.2% | 74.5hPa | 2.7V | 00:00:00 | 00:00:00 | 00:00:00 | |
| OE5DXL-15 | 2026-08-31 17:18:00 | 48.15984 | 12.17273 | 43° | 20km/h | 18493m | 4.2m/s | -52.9°C | 3.8% | 74.5hPa | 2.7V | 00:00:00 | 00:00:00 | 00:00:00 | |
| BAUMI2-15 | 2026-08-31 17:17:59 | 48.15980 | 12.17267 | 53° | 18km/h | 18488m | 5.0m/s | -52.9°C | 3.9% | 74.6hPa | 2.7V | 02:16:00 | 01:11:42 | 00:00:00 | |
| DO3MHA-11 | 2026-08-31 17:17:57 | 48.15975 | 12.17253 | 69° | 18km/h | 18479m | 4.5m/s | -53.0°C | 3.9% | 74.7hPa | 2.5V | 00:00:00 | 01:11:40 | 00:00:00 | |
| DO3MHA-12 | 2026-08-31 17:17:56 | 48.15973 | 12.17247 | 68° | 18km/h | 18473m | 5.5m/s | -53.0°C | 3.9% | 74.7hPa | 2.5V | 02:16:00 | 01:11:39 | 00:00:00 | |
| OE5DRO-10 | 2026-08-31 17:17:55 | 48.15971 | 12.17241 | 64° | 18km/h | 18468m | 4.4m/s | -53.0°C | 3.9% | 74.8hPa | 2.7V | 00:00:00 | 00:00:00 | 00:00:00 | |
| DM0DOS-11 | 2026-08-31 17:17:53 | 48.15967 | 12.17225 | 70° | 18km/h | 18454m | 4.3m/s | -53.1°C | 3.9% | 75hPa | 2.7V | 02:16:39 | 01:11:35 | 00:00:00 | |
| DF7PN | 2026-08-31 17:17:50 | 48.15960 | 12.17200 | 74° | 18km/h | 18436m | 5.4m/s | -53.1°C | 1.3% | 75.2hPa | 2.7V | 00:00:00 | 00:00:00 | 00:00:00 | |
| OE3JTB-15 | 2026-08-31 17:17:49 | 48.15961 | 12.17206 | 69° | 26km/h | 18441m | 3.5m/s | -53.1°C | 3.9% | 75.1hPa | 2.7V | 00:00:00 | 00:00:00 | 00:00:00 | |
| DO3MHA-11 | 2026-08-31 17:17:47 | 48.15959 | 12.17192 | 80° | 20km/h | 18432m | 4.1m/s | -53.1°C | 3.9% | 75.2hPa | 2.7V | 02:16:00 | 01:11:30 | 00:00:00 | |
| DO3MHA-12 | 2026-08-31 17:17:46 | 48.15958 | 12.17186 | 79° | 20km/h | 18427m | 5.5m/s | -53.2°C | 3.9% | 75.3hPa | 2.7V | 00:00:00 | 01:11:29 | 00:00:00 | |
| DM0DOS-11 | 2026-08-31 17:17:43 | 48.15955 | 12.17158 | 86° | 20km/h | 18408m | 4.3m/s | -53.4°C | 4% | 75.5hPa | 2.7V | 02:16:49 | 01:11:25 | 00:00:00 | |
| NBG1-10 | 2026-08-31 17:17:43 | 48.15956 | 12.17165 | 88° | 26km/h | 18413m | 5.1m/s | -53.3°C | 3.9% | 75.5hPa | 2.7V | 00:00:00 | 01:11:26 | 00:00:00 | |
| DB0UT-7 | 2026-08-31 17:17:42 | 48.15955 | 12.17158 | 87° | 26km/h | 18408m | 4.2m/s | -53.3°C | 4.0% | 75.5hPa | 2.7V | 02:16:00 | 00:00:00 | 00:00:00 | |
| S52SK | 2026-08-31 17:17:41 | 48.15955 | 12.17158 | 88° | 20km/h | 18408m | 4.3m/s | -53.4°C | 1.3% | 75.5hPa | 2.5V | 02:16:00 | 00:00:00 | 00:00:00 | |
| DG1MFX-10 | 2026-08-31 17:17:40 | 48.15955 | 12.17150 | 85° | 18km/h | 18403m | 5.0m/s | -53.4°C | 1.3% | 75.6hPa | 2.5V | 02:16:00 | 00:00:00 | 00:00:00 | |
| BAUMI2-15 | 2026-08-31 17:17:39 | 48.15954 | 12.17135 | 84° | 22km/h | 18394m | 5.3m/s | -53.3°C | 4.0% | 75.7hPa | 2.5V | 00:00:00 | 01:11:22 | 00:00:00 | |
| PETON7-10 | 2026-08-31 17:17:38 | 48.15953 | 12.17127 | 87° | 26km/h | 18389m | 4.2m/s | -53.2°C | 4.0% | 75.7hPa | 2.5V | 00:00:00 | 01:11:21 | 00:00:00 | |
| DO3MHA-11 | 2026-08-31 17:17:37 | 48.15953 | 12.17118 | 86° | 24km/h | 18385m | 3.5m/s | -53.2°C | 4.0% | 75.8hPa | 2.5V | 00:00:00 | 01:11:20 | 00:00:00 | |
| DO3MHA-12 | 2026-08-31 17:17:36 | 48.15952 | 12.17109 | 82° | 26km/h | 18381m | 5.1m/s | -53.2°C | 3.9% | 75.8hPa | 2.5V | 00:00:00 | 01:11:19 | 00:00:00 | |
| S52SK | 2026-08-31 17:17:35 | 48.15952 | 12.17109 | 82° | 24km/h | 18381m | 5.1m/s | -53.3°C | 1.3% | 75.9hPa | 2.5V | 00:00:00 | 00:00:00 | 00:00:00 | |
| DM0DOS-11 | 2026-08-31 17:17:33 | 48.15949 | 12.17075 | 81° | 24km/h | 18362m | 3.9m/s | -53.2°C | 3.9% | 76.1hPa | 2.5V | 02:16:59 | 01:11:15 | 00:00:00 | |
| OE5MMP-10 | 2026-08-31 17:17:33 | 48.15949 | 12.17084 | 84° | 27km/h | 18367m | 4.6m/s | -53.2°C | 3.9% | 76.0hPa | 2.5V | 02:16:00 | 01:11:16 | 00:00:00 | |
| OE5DXL-15 | 2026-08-31 17:17:30 | 48.15946 | 12.17057 | 75° | 26km/h | 18354m | 3.8m/s | -53.2°C | 3.9% | 76.2hPa | 2.7V | 02:17:00 | 00:00:00 | 00:00:00 | |
| BAUMI2-15 | 2026-08-31 17:17:29 | 48.15945 | 12.17047 | 79° | 27km/h | 18349m | 5.4m/s | -53.2°C | 4.0% | 76.2hPa | 2.7V | 02:17:00 | 01:11:12 | 00:00:00 | |
| DO3MHA-11 | 2026-08-31 17:17:27 | 48.15942 | 12.17027 | 81° | 29km/h | 18340m | 4.3m/s | -53.2°C | 3.9% | 76.3hPa | 2.6V | 00:00:00 | 01:11:10 | 00:00:00 | |
| DO3MHA-12 | 2026-08-31 17:17:26 | 48.15941 | 12.17017 | 79° | 29km/h | 18335m | 5.0m/s | -53.3°C | 3.9% | 76.4hPa | 2.6V | 02:17:00 | 01:11:09 | 00:00:00 | |
| DN1GJH-1 | 2026-08-31 17:17:25 | 48.15941 | 12.17017 | 79° | 27km/h | 18335m | 5.0m/s | -53.3°C | 1.3% | 76.4hPa | 2.5V | 00:00:00 | 00:00:00 | 00:00:00 | |
| DM0DOS-11 | 2026-08-31 17:17:23 | 48.15936 | 12.16972 | 77° | 31km/h | 18318m | 2.9m/s | -53.8°C | 4.1% | 76.6hPa | 2.5V | 02:17:09 | 01:11:05 | 00:00:00 | |
| OE5MMP-10 | 2026-08-31 17:17:23 | 48.15937 | 12.16984 | 82° | 27km/h | 18322m | 4.2m/s | -53.7°C | 4.1% | 76.5hPa | 2.5V | 00:00:00 | 01:11:06 | 00:00:00 | |
| OE3JTB-15 | 2026-08-31 17:17:20 | 48.15931 | 12.16951 | 67° | 24km/h | 18309m | 5.0m/s | -53.7°C | 4.0% | 76.7hPa | 2.5V | 00:00:00 | 01:11:03 | 00:00:00 | |
| DF7PN | 2026-08-31 17:17:19 | 48.15921 | 12.16922 | 62° | 27km/h | 18295m | 3.6m/s | -53.7°C | 1.4% | 76.9hPa | 2.5V | 00:00:00 | 00:00:00 | 00:00:00 | |
| DO3MHA-11 | 2026-08-31 17:17:17 | 48.15921 | 12.16922 | 63° | 26km/h | 18295m | 3.6m/s | -53.6°C | 4.1% | 76.8hPa | 2.5V | 02:17:00 | 01:11:00 | 00:00:00 | |
| DO3MHA-12 | 2026-08-31 17:17:16 | 48.15918 | 12.16913 | 60° | 26km/h | 18291m | 4.7m/s | -53.6°C | 4.1% | 76.9hPa | 2.7V | 00:00:00 | 01:10:59 | 00:00:00 | |
| DM0DOS-11 | 2026-08-31 17:17:13 | 48.15906 | 12.16881 | 71° | 26km/h | 18274m | 4.2m/s | -53.5°C | 4.1% | 77.1hPa | 2.7V | 02:17:19 | 01:10:55 | 00:00:00 | |
| OE5MMP-10 | 2026-08-31 17:17:13 | 48.15908 | 12.16889 | 66° | 24km/h | 18279m | 4.8m/s | -53.5°C | 4.1% | 77.0hPa | 2.5V | 00:00:00 | 01:10:56 | 00:00:00 | |
| DB0UT-7 | 2026-08-31 17:17:12 | 48.15906 | 12.16880 | 72° | 22km/h | 18274m | 4.2m/s | -53.5°C | 4.1% | 77.1hPa | 2.5V | 00:00:00 | 01:10:55 | 00:00:00 | |
| NBG1-10 | 2026-08-31 17:17:10 | 48.15902 | 12.16861 | 71° | 22km/h | 18266m | 4.1m/s | -53.4°C | 4.1% | 77.2hPa | 2.5V | 02:17:00 | 01:10:53 | 00:00:00 | |
| OE5WHR-10 | 2026-08-31 17:17:09 | 48.15899 | 12.16852 | 68° | 22km/h | 18262m | 4.1m/s | -53.4°C | 4.1% | 77.3hPa | 2.7V | 00:00:00 | 00:00:00 | 00:00:00 | |
| PETON7-10 | 2026-08-31 17:17:08 | 48.15897 | 12.16843 | 69° | 22km/h | 18258m | 4.3m/s | -53.4°C | 4.1% | 77.3hPa | 2.7V | 00:00:00 | 00:00:00 | 00:00:00 | |
| DO3MHA-11 | 2026-08-31 17:17:07 | 48.15895 | 12.16836 | 73° | 22km/h | 18253m | 5.2m/s | -53.4°C | 4.2% | 77.3hPa | 2.7V | 00:00:00 | 01:10:50 | 00:00:00 | |
| DO3MHA-12 | 2026-08-31 17:17:06 | 48.15894 | 12.16828 | 77° | 22km/h | 18248m | 4.1m/s | -53.3°C | 4.1% | 77.4hPa | 2.7V | 00:00:00 | 01:10:49 | 00:00:00 | |
| DN1GJH-1 | 2026-08-31 17:17:04 | 48.15893 | 12.16821 | 74° | 20km/h | 18244m | 4.3m/s | -53.4°C | 1.4% | 77.5hPa | 2.7V | 00:00:00 | 00:00:00 | 00:00:00 | |
| DM0DOS-11 | 2026-08-31 17:17:03 | 48.15887 | 12.16800 | 67° | 22km/h | 18231m | 5.5m/s | -53.2°C | 3.9% | 77.7hPa | 2.7V | 02:17:29 | 01:10:45 | 00:00:00 | |
| OE5MMP-10 | 2026-08-31 17:17:03 | 48.15889 | 12.16807 | 66° | 22km/h | 18235m | 3.4m/s | -53.2°C | 4.0% | 77.6hPa | 2.6V | 02:17:00 | 01:10:46 | 00:00:00 | |
| DF3TZ-5 | 2026-08-31 17:17:02 | 48.15887 | 12.16800 | 67° | 22km/h | 18231m | 5.5m/s | -53.2°C | 1.3% | 77.7hPa | 2.7V | 00:00:00 | 00:00:00 | 00:00:00 | |
| DL6DJ-15 | 2026-08-31 17:16:59 | 48.15879 | 12.16774 | 61° | 26km/h | 18218m | 4.7m/s | -53.1°C | 1.3% | 77.8hPa | 2.7V | 00:00:00 | 00:00:00 | 00:00:00 | |
| OE5DRO-10 | 2026-08-31 17:16:58 | 48.15876 | 12.16765 | 61° | 22km/h | 18213m | 4.0m/s | -53.0°C | 3.9% | 77.8hPa | 2.7V | 00:00:00 | 00:00:00 | 00:00:00 | |
| DO3MHA-11 | 2026-08-31 17:16:57 | 48.15873 | 12.16758 | 66° | 20km/h | 18209m | 4.4m/s | -53.0°C | 4.0% | 77.9hPa | 2.7V | 00:00:00 | 01:10:40 | 00:00:00 | |
| DO3MHA-12 | 2026-08-31 17:16:56 | 48.15872 | 12.16750 | 75° | 20km/h | 18204m | 4.7m/s | -53.0°C | 4.0% | 77.9hPa | 2.7V | 02:17:00 | 01:10:39 | 00:00:00 | |
| DM0DOS-11 | 2026-08-31 17:16:53 | 48.15869 | 12.16723 | 83° | 18km/h | 18187m | 3.7m/s | -52.9°C | 4% | 78.2hPa | 2.6V | 02:17:39 | 01:10:35 | 00:00:00 | |
| PETON7-10 | 2026-08-31 17:16:53 | 48.15869 | 12.16729 | 81° | 24km/h | 18191m | 4.5m/s | -52.9°C | 4.1% | 78.1hPa | 2.7V | 00:00:00 | 01:10:36 | 00:00:00 | |
| S52SK | 2026-08-31 17:16:52 | 48.15869 | 12.16729 | 82° | 18km/h | 18191m | 4.5m/s | -53.0°C | 1.4% | 78.2hPa | 2.7V | 00:00:00 | 00:00:00 | 00:00:00 | |
| OE3JTB-15 | 2026-08-31 17:16:51 | 48.15869 | 12.16715 | 89° | 26km/h | 18183m | 5.4m/s | -52.8°C | 4.0% | 78.2hPa | 2.7V | 02:17:00 | 00:00:00 | 00:00:00 | |
| OE5WHR-10 | 2026-08-31 17:16:48 | 48.15866 | 12.16691 | 72° | 26km/h | 18169m | 4.8m/s | -52.8°C | 3.9% | 78.4hPa | 2.5V | 00:00:00 | 01:10:31 | 00:00:00 | |
| DO3MHA-11 | 2026-08-31 17:16:47 | 48.15864 | 12.16684 | 66° | 24km/h | 18165m | 3.7m/s | -52.8°C | 3.9% | 78.4hPa | 2.5V | 02:17:00 | 01:10:30 | 00:00:00 | |
| DO3MHA-12 | 2026-08-31 17:16:46 | 48.15862 | 12.16676 | 67° | 24km/h | 18161m | 4.7m/s | -52.7°C | 3.9% | 78.5hPa | 2.5V | 00:00:00 | 01:10:29 | 00:00:00 | |
| DN1GJH-1 | 2026-08-31 17:16:44 | 48.15860 | 12.16668 | 74° | 22km/h | 18156m | 4.8m/s | -52.8°C | 1.3% | 78.6hPa | 2.5V | 02:18:00 | 00:00:00 | 00:00:00 | |
| DM0DOS-11 | 2026-08-31 17:16:43 | 48.15857 | 12.16640 | 82° | 27km/h | 18141m | 4.5m/s | -52.7°C | 3.8% | 78.7hPa | 2.5V | 02:17:49 | 01:10:25 | 00:00:00 | |
| OE5MMP-10 | 2026-08-31 17:16:43 | 48.15857 | 12.16650 | 82° | 24km/h | 18147m | 4.8m/s | -52.7°C | 3.9% | 78.6hPa | 2.6V | 00:00:00 | 01:10:26 | 00:00:00 | |
| DB0UT-7 | 2026-08-31 17:16:42 | 48.15856 | 12.16640 | 83° | 31km/h | 18142m | 4.5m/s | -52.7°C | 3.8% | 78.7hPa | 2.6V | 00:00:00 | 00:00:00 | 00:00:00 | |
| S52SK | 2026-08-31 17:16:41 | 48.15856 | 12.16640 | 84° | 27km/h | 18142m | 4.5m/s | -52.7°C | 1.3% | 78.7hPa | 2.6V | 00:00:00 | 00:00:00 | 00:00:00 | |
| OE5DRO-10 | 2026-08-31 17:16:39 | 48.15853 | 12.16610 | 78° | 27km/h | 18127m | 4.9m/s | -52.7°C | 3.8% | 78.9hPa | 2.6V | 00:00:00 | 00:00:00 | 00:00:00 | |
| PETON7-10 | 2026-08-31 17:16:38 | 48.15852 | 12.16602 | 81° | 27km/h | 18121m | 5.7m/s | -52.7°C | 3.8% | 78.9hPa | 2.6V | 02:17:00 | 00:00:00 | 00:00:00 | |
| DO3MHA-11 | 2026-08-31 17:16:37 | 48.15851 | 12.16593 | 87° | 27km/h | 18116m | 5.3m/s | -52.8°C | 3.9% | 79.0hPa | 2.5V | 00:00:00 | 01:10:20 | 00:00:00 | |
| DO3MHA-12 | 2026-08-31 17:16:36 | 48.15851 | 12.16584 | 95° | 27km/h | 18111m | 3.8m/s | -52.8°C | 3.9% | 79.1hPa | 2.5V | 00:00:00 | 01:10:19 | 00:00:00 | |
| DG1MJG | 2026-08-31 17:16:35 | 48.15851 | 12.16584 | 96° | 24km/h | 18111m | 3.9m/s | -52.8°C | 1.3% | 79.1hPa | 2.5V | 02:18:00 | 00:00:00 | 00:00:00 | |
| DM0DOS-11 | 2026-08-31 17:16:33 | 48.15858 | 12.16552 | 114° | 26km/h | 18092m | 5.2m/s | -52.7°C | 3.9% | 79.3hPa | 2.5V | 02:17:59 | 01:10:15 | 00:00:00 | |
| OE5MMP-10 | 2026-08-31 17:16:33 | 48.15855 | 12.16560 | 113° | 31km/h | 18097m | 3.4m/s | -52.7°C | 3.9% | 79.2hPa | 2.5V | 02:17:00 | 01:10:16 | 00:00:00 | |
| DF3TZ-5 | 2026-08-31 17:16:31 | 48.15860 | 12.16542 | 112° | 29km/h | 18087m | 5.3m/s | -52.8°C | 1.3% | 79.5hPa | 2.7V | 00:00:00 | 00:00:00 | 00:00:00 | |
| OE5DXL-15 | 2026-08-31 17:16:30 | 48.15863 | 12.16531 | 109° | 37km/h | 18083m | 4.0m/s | -52.7°C | 3.8% | 79.4hPa | 2.7V | 00:00:00 | 00:00:00 | 00:00:00 | |
| S52SK | 2026-08-31 17:16:29 | 48.15863 | 12.16531 | 110° | 33km/h | 18083m | 4.1m/s | -52.7°C | 1.3% | 79.4hPa | 2.7V | 00:00:00 | 00:00:00 | 00:00:00 | |
| DL6DJ-15 | 2026-08-31 17:16:28 | 48.15868 | 12.16508 | 101° | 31km/h | 18072m | 4.9m/s | -52.7°C | 1.3% | 79.6hPa | 2.7V | 00:00:00 | 00:00:00 | 00:00:00 | |
| DO3MHA-11 | 2026-08-31 17:16:27 | 48.15869 | 12.16496 | 100° | 33km/h | 18068m | 4.2m/s | -52.7°C | 3.8% | 79.6hPa | 2.7V | 00:00:00 | 01:10:10 | 00:00:00 | |
| DO3MHA-12 | 2026-08-31 17:16:26 | 48.15870 | 12.16484 | 99° | 33km/h | 18063m | 5.1m/s | -52.7°C | 3.8% | 79.6hPa | 2.7V | 02:18:00 | 01:10:09 | 00:00:00 | |
| DM0DOS-11 | 2026-08-31 17:16:23 | 48.15874 | 12.16436 | 95° | 29km/h | 18043m | 3.8m/s | -53.1°C | 3.9% | 80hPa | 2.6V | 02:18:09 | 01:10:05 | 00:00:00 | |
| PETON7-10 | 2026-08-31 17:16:23 | 48.15874 | 12.16447 | 97° | 37km/h | 18048m | 5.5m/s | -53.0°C | 3.8% | 79.9hPa | 2.7V | 00:00:00 | 00:00:00 | 00:00:00 | |
| OE3JTB-15 | 2026-08-31 17:16:22 | 48.15875 | 12.16436 | 96° | 38km/h | 18043m | 3.8m/s | -53.1°C | 3.9% | 79.9hPa | 2.7V | 00:00:00 | 00:00:00 | 00:00:00 | |
| DB0NH | 2026-08-31 17:16:21 | 48.15875 | 12.16425 | 97° | 58km/h | 18039m | 4.5m/s | -53.1°C | 3.9% | 80.0hPa | 2.7V | 00:00:00 | 01:10:04 | 00:00:00 | |
| OE5DRO-10 | 2026-08-31 17:16:20 | 48.15876 | 12.16412 | 98° | 38km/h | 18033m | 6.0m/s | -53.1°C | 3.9% | 80.0hPa | 2.7V | 02:18:00 | 00:00:00 | 00:00:00 | |
| DO3MHA-11 | 2026-08-31 17:16:17 | 48.15879 | 12.16372 | 93° | 40km/h | 18018m | 4.7m/s | -53.0°C | 3.8% | 80.2hPa | 2.6V | 02:18:00 | 01:10:00 | 00:00:00 | |
| DO3MHA-12 | 2026-08-31 17:16:16 | 48.15879 | 12.16358 | 92° | 40km/h | 18013m | 4.4m/s | -53.0°C | 3.9% | 80.3hPa | 2.5V | 00:00:00 | 01:09:59 | 00:00:00 | |
| S52SK | 2026-08-31 17:16:15 | 48.15879 | 12.16358 | 92° | 38km/h | 18013m | 4.5m/s | -53.0°C | 1.3% | 80.4hPa | 2.5V | 00:00:00 | 00:00:00 | 00:00:00 | |
| DM0DOS-11 | 2026-08-31 17:16:13 | 48.15881 | 12.16282 | 95° | 38km/h | 17988m | 3.7m/s | -53.2°C | 3.9% | 80.7hPa | 2.5V | 02:18:20 | 01:09:54 | 00:00:00 | |
| OE5MMP-10 | 2026-08-31 17:16:13 | 48.15880 | 12.16312 | 92° | 40km/h | 17998m | 5.2m/s | -53.1°C | 3.9% | 80.5hPa | 2.5V | 00:00:00 | 01:09:56 | 00:00:00 | |
| DB0UT-7 | 2026-08-31 17:16:12 | 48.15880 | 12.16297 | 94° | 38km/h | 17993m | 5.0m/s | -53.2°C | 4.0% | 80.5hPa | 2.5V | 02:18:00 | 01:09:55 | 00:00:00 | |
| PETON7-10 | 2026-08-31 17:16:08 | 48.15884 | 12.16238 | 95° | 37km/h | 17974m | 4.5m/s | -53.2°C | 4.0% | 80.8hPa | 2.5V | 00:00:00 | 01:09:51 | 00:00:00 | |
| DO3MHA-11 | 2026-08-31 17:16:07 | 48.15885 | 12.16222 | 94° | 38km/h | 17969m | 5.5m/s | -53.3°C | 4.0% | 80.8hPa | 2.5V | 00:00:00 | 01:09:50 | 00:00:00 | |
| OE5WHR-10 | 2026-08-31 17:16:06 | 48.15885 | 12.16208 | 93° | 38km/h | 17964m | 4.7m/s | -53.4°C | 4.0% | 80.9hPa | 2.5V | 00:00:00 | 00:00:00 | 00:00:00 | |
| DG1MJG | 2026-08-31 17:16:05 | 48.15885 | 12.16208 | 93° | 38km/h | 17964m | 4.7m/s | -53.4°C | 1.3% | 80.9hPa | 2.5V | 02:18:00 | 00:00:00 | 00:00:00 | |
| NBG1-10 | 2026-08-31 17:16:04 | 48.15885 | 12.16179 | 88° | 40km/h | 17953m | 5.9m/s | -53.4°C | 3.9% | 81.0hPa | 2.5V | 00:00:00 | 01:09:47 | 00:00:00 | |
| DM0DOS-11 | 2026-08-31 17:16:03 | 48.15882 | 12.16133 | 83° | 38km/h | 17938m | 5.5m/s | -53.4°C | 3.9% | 81.2hPa | 2.5V | 02:18:30 | 01:09:44 | 00:00:00 | |
| OE5MMP-10 | 2026-08-31 17:16:03 | 48.15884 | 12.16163 | 86° | 37km/h | 17948m | 4.2m/s | -53.4°C | 4.0% | 81.1hPa | 2.7V | 02:18:00 | 01:09:46 | 00:00:00 | |
| DF9NV-10 | 2026-08-31 17:16:02 | 48.15884 | 12.16163 | 87° | 40km/h | 17948m | 4.2m/s | 0°C | 0% | 0hPa | 2.5V | 00:00:00 | 00:00:00 | 00:00:00 | |
| OE5DRO-10 | 2026-08-31 17:16:01 | 48.15882 | 12.16133 | 84° | 37km/h | 17939m | 5.4m/s | -53.4°C | 3.9% | 81.2hPa | 2.5V | 00:00:00 | 00:00:00 | 00:00:00 | |
| OE5DXL-15 | 2026-08-31 17:16:00 | 48.15882 | 12.16119 | 84° | 40km/h | 17934m | 4.1m/s | -53.4°C | 3.9% | 81.3hPa | 2.5V | 02:18:00 | 00:00:00 | 00:00:00 | |
| DO3MHA-11 | 2026-08-31 17:15:57 | 48.15878 | 12.16078 | 85° | 37km/h | 17918m | 5.5m/s | -53.5°C | 4.0% | 81.5hPa | 2.7V | 00:00:00 | 01:09:40 | 00:00:00 | |
| DO3MHA-12 | 2026-08-31 17:15:56 | 48.15877 | 12.16066 | 85° | 37km/h | 17913m | 4.7m/s | -53.6°C | 4.2% | 81.5hPa | 2.7V | 02:18:00 | 01:09:39 | 00:00:00 | |
| DM0DOS-11 | 2026-08-31 17:15:53 | 48.15878 | 12.15969 | 94° | 38km/h | 17877m | 4.9m/s | -53.8°C | 4.1% | 82hPa | 2.6V | 02:18:42 | 01:09:32 | 00:00:00 | |
| OE5MMP-10 | 2026-08-31 17:15:53 | 48.15876 | 12.16027 | 89° | 38km/h | 17898m | 5.3m/s | -53.7°C | 4.2% | 81.7hPa | 2.7V | 00:00:00 | 01:09:36 | 00:00:00 | |
| PETON7-10 | 2026-08-31 17:15:52 | 48.15876 | 12.16012 | 91° | 38km/h | 17894m | 4.8m/s | -53.7°C | 4.2% | 81.8hPa | 2.7V | 02:18:00 | 00:00:00 | 00:00:00 | |
| S52SK | 2026-08-31 17:15:51 | 48.15876 | 12.16012 | 92° | 38km/h | 17894m | 4.9m/s | -53.8°C | 1.4% | 81.8hPa | 2.7V | 02:19:00 | 00:00:00 | 00:00:00 | |
| DO3MHA-11 | 2026-08-31 17:15:47 | 48.15879 | 12.15940 | 95° | 38km/h | 17868m | 4.3m/s | -53.8°C | 4.2% | 82.1hPa | 2.7V | 02:18:00 | 01:09:30 | 00:00:00 | |
| DO3MHA-12 | 2026-08-31 17:15:46 | 48.15880 | 12.15925 | 96° | 38km/h | 17862m | 5.5m/s | -53.8°C | 4.1% | 82.2hPa | 2.7V | 00:00:00 | 01:09:29 | 00:00:00 | |
| OE5WHR-10 | 2026-08-31 17:15:45 | 48.15880 | 12.15911 | 97° | 46km/h | 17857m | 5.1m/s | -53.7°C | 4.1% | 82.3hPa | 2.7V | 00:00:00 | 01:09:28 | 00:00:00 | |
| DM0DOS-11 | 2026-08-31 17:15:43 | 48.15883 | 12.15828 | 94° | 42km/h | 17826m | 4.7m/s | -53.5°C | 4.2% | 82.7hPa | 2.7V | 02:18:52 | 01:09:22 | 00:00:00 | |
| DL1ZP-14 | 2026-08-31 17:15:43 | 48.15882 | 12.15872 | 90° | 37km/h | 17841m | 5.1m/s | -53.7°C | 1.4% | 82.5hPa | 2.6V | 00:00:00 | 00:00:00 | 00:00:00 | |
| DB0UT-7 | 2026-08-31 17:15:42 | 48.15882 | 12.15872 | 91° | 47km/h | 17841m | 5.1m/s | -53.6°C | 4.2% | 82.5hPa | 2.7V | 00:00:00 | 00:00:00 | 00:00:00 | |
| DF9NV-10 | 2026-08-31 17:15:41 | 48.15882 | 12.15872 | 91° | 37km/h | 17841m | 5.1m/s | 0°C | 0% | 0hPa | 2.7V | 00:00:00 | 00:00:00 | 00:00:00 | |
| S52SK | 2026-08-31 17:15:38 | 48.15883 | 12.15827 | 96° | 42km/h | 17826m | 4.7m/s | -53.6°C | 1.4% | 82.7hPa | 2.7V | 02:19:00 | 00:00:00 | 00:00:00 | |
| PETON7-10 | 2026-08-31 17:15:37 | 48.15885 | 12.15794 | 95° | 49km/h | 17815m | 5.9m/s | -53.4°C | 4.1% | 82.8hPa | 2.7V | 00:00:00 | 00:00:00 | 00:00:00 | |
| DO3MHA-12 | 2026-08-31 17:15:36 | 48.15886 | 12.15775 | 96° | 51km/h | 17810m | 4.7m/s | -53.4°C | 4.1% | 82.8hPa | 2.7V | 00:00:00 | 01:09:19 | 00:00:00 | |
| DK5PH-5 | 2026-08-31 17:15:34 | 48.15889 | 12.15737 | 97° | 49km/h | 17799m | 4.6m/s | -53.2°C | 4.0% | 83.0hPa | 2.7V | 02:18:00 | 01:09:17 | 00:00:00 | |
| DM0DOS-11 | 2026-08-31 17:15:33 | 48.15893 | 12.15641 | 90° | 47km/h | 17772m | 5.5m/s | -53.1°C | 4% | 83.4hPa | 2.7V | 02:19:02 | 01:09:12 | 00:00:00 | |
| OE5MMP-10 | 2026-08-31 17:15:33 | 48.15890 | 12.15717 | 95° | 49km/h | 17794m | 6.1m/s | -53.2°C | 4.0% | 83.1hPa | 2.5V | 02:18:00 | 01:09:16 | 00:00:00 | |
| S52SK | 2026-08-31 17:15:32 | 48.15890 | 12.15717 | 95° | 53km/h | 17794m | 6.1m/s | -53.3°C | 1.3% | 83.1hPa | 2.6V | 02:19:00 | 00:00:00 | 00:00:00 | |
| NBG1-10 | 2026-08-31 17:15:31 | 48.15892 | 12.15678 | 94° | 51km/h | 17783m | 6.2m/s | -53.2°C | 4.0% | 83.2hPa | 2.6V | 02:19:00 | 01:09:14 | 00:00:00 | |
| OE5DXL-15 | 2026-08-31 17:15:30 | 48.15892 | 12.15659 | 94° | 51km/h | 17777m | 4.6m/s | -53.1°C | 4.0% | 83.3hPa | 2.5V | 00:00:00 | 00:00:00 | 00:00:00 | |
| DF3TZ-5 | 2026-08-31 17:15:29 | 48.15893 | 12.15622 | 89° | 47km/h | 17766m | 5.7m/s | -53.1°C | 1.3% | 83.5hPa | 2.5V | 00:00:00 | 00:00:00 | 00:00:00 | |
| DO3MHA-11 | 2026-08-31 17:15:27 | 48.15893 | 12.15604 | 90° | 47km/h | 17761m | 5.2m/s | -53.0°C | 3.9% | 83.5hPa | 2.5V | 00:00:00 | 01:09:10 | 00:00:00 | |
| DO3MHA-12 | 2026-08-31 17:15:26 | 48.15892 | 12.15586 | 90° | 49km/h | 17756m | 5.3m/s | -52.9°C | 3.9% | 83.5hPa | 2.5V | 02:19:00 | 01:09:09 | 00:00:00 | |
| OE5WHR-10 | 2026-08-31 17:15:24 | 48.15892 | 12.15551 | 87° | 51km/h | 17746m | 6.3m/s | -52.8°C | 3.9% | 83.7hPa | 2.7V | 02:19:00 | 00:00:00 | 00:00:00 | |
| OE5MMP-10 | 2026-08-31 17:15:23 | 48.15891 | 12.15533 | 86° | 49km/h | 17740m | 4.7m/s | -52.8°C | 3.9% | 83.7hPa | 2.7V | 00:00:00 | 01:09:06 | 00:00:00 | |
| DM0DOS-11 | 2026-08-31 17:15:22 | 48.15892 | 12.15422 | 89° | 51km/h | 17709m | 5.3m/s | -52.9°C | 4% | 84.2hPa | 2.7V | 02:19:14 | 01:09:00 | 00:00:00 | |
| PETON7-10 | 2026-08-31 17:15:22 | 48.15890 | 12.15514 | 87° | 49km/h | 17735m | 4.7m/s | -52.8°C | 4.0% | 83.8hPa | 2.5V | 00:00:00 | 01:09:05 | 00:00:00 | |
| S52SK | 2026-08-31 17:15:21 | 48.15890 | 12.15514 | 88° | 49km/h | 17735m | 4.8m/s | -52.8°C | 1.3% | 83.9hPa | 2.5V | 02:19:00 | 00:00:00 | 00:00:00 | |
| OE3JTB-15 | 2026-08-31 17:15:20 | 48.15890 | 12.15478 | 94° | 55km/h | 17725m | 4.3m/s | -52.7°C | 3.9% | 83.9hPa | 2.5V | 02:19:00 | 00:00:00 | 00:00:00 | |
| DF9NV-10 | 2026-08-31 17:15:19 | 48.15890 | 12.15478 | 94° | 47km/h | 17725m | 4.4m/s | 0°C | 0% | 0hPa | 2.7V | 00:00:00 | 00:00:00 | 00:00:00 | |
| DO3MHA-11 | 2026-08-31 17:15:17 | 48.15891 | 12.15422 | 90° | 51km/h | 17709m | 5.2m/s | -52.8°C | 4.0% | 84.2hPa | 2.7V | 02:19:00 | 01:09:00 | 00:00:00 | |
| DO3MHA-12 | 2026-08-31 17:15:16 | 48.15891 | 12.15403 | 89° | 51km/h | 17704m | 5.0m/s | -52.8°C | 3.9% | 84.2hPa | 2.6V | 00:00:00 | 01:08:59 | 00:00:00 | |
| DF7PN | 2026-08-31 17:15:15 | 48.15891 | 12.15366 | 89° | 47km/h | 17693m | 4.9m/s | -52.9°C | 1.3% | 84.4hPa | 2.6V | 00:00:00 | 00:00:00 | 00:00:00 | |
| BAUMI2-15 | 2026-08-31 17:15:14 | 48.15891 | 12.15366 | 90° | 51km/h | 17693m | 4.8m/s | -52.8°C | 4.0% | 84.3hPa | 2.6V | 02:19:00 | 01:08:57 | 00:00:00 | |
| OE5MMP-10 | 2026-08-31 17:15:13 | 48.15890 | 12.15347 | 90° | 53km/h | 17688m | 6.3m/s | -52.8°C | 4.0% | 84.4hPa | 2.7V | 00:00:00 | 01:08:56 | 00:00:00 | |
| DM0DOS-11 | 2026-08-31 17:15:12 | 48.15891 | 12.15230 | 89° | 53km/h | 17657m | 6.2m/s | -52.7°C | 3.9% | 84.9hPa | 2.7V | 02:19:24 | 01:08:50 | 00:00:00 | |
| DL1ZP-14 | 2026-08-31 17:15:12 | 48.15890 | 12.15308 | 89° | 51km/h | 17677m | 4.8m/s | -52.8°C | 1.3% | 84.6hPa | 2.7V | 00:00:00 | 00:00:00 | 00:00:00 | |
| BAUMI2-15 | 2026-08-31 17:15:09 | 48.15890 | 12.15269 | 92° | 53km/h | 17667m | 4.7m/s | -52.7°C | 3.9% | 84.7hPa | 2.7V | 00:00:00 | 01:08:52 | 00:00:00 | |
| PETON7-10 | 2026-08-31 17:15:07 | 48.15891 | 12.15230 | 90° | 55km/h | 17657m | 6.1m/s | -52.7°C | 3.9% | 84.8hPa | 2.7V | 02:19:00 | 00:00:00 | 00:00:00 | |
| DO3MHA-12 | 2026-08-31 17:15:06 | 48.15891 | 12.15210 | 90° | 57km/h | 17652m | 5.1m/s | -52.7°C | 4.0% | 84.9hPa | 2.6V | 00:00:00 | 01:08:49 | 00:00:00 | |
| DK5PH-5 | 2026-08-31 17:15:04 | 48.15890 | 12.15169 | 90° | 62km/h | 17640m | 6.3m/s | -52.6°C | 3.9% | 85.0hPa | 2.6V | 00:00:00 | 01:08:47 | 00:00:00 | |
| OE5MMP-10 | 2026-08-31 17:15:03 | 48.15890 | 12.15148 | 91° | 60km/h | 17635m | 4.2m/s | -52.6°C | 3.9% | 85.1hPa | 2.6V | 02:19:00 | 01:08:46 | 00:00:00 | |
| DM0DOS-11 | 2026-08-31 17:15:02 | 48.15888 | 12.15016 | 85° | 62km/h | 17602m | 6.5m/s | -52.5°C | 3.8% | 85.6hPa | 2.6V | 02:19:34 | 01:08:40 | 00:00:00 | |
| DF3TZ-5 | 2026-08-31 17:14:58 | 48.15888 | 12.15016 | 85° | 60km/h | 17603m | 6.5m/s | -52.5°C | 1.3% | 85.6hPa | 2.5V | 00:00:00 | 00:00:00 | 00:00:00 | |
| DL6DJ-15 | 2026-08-31 17:14:55 | 48.15885 | 12.14945 | 87° | 60km/h | 17585m | 5.3m/s | -52.4°C | 1.3% | 85.8hPa | 2.5V | 00:00:00 | 00:00:00 | 00:00:00 | |
| BAUMI2-15 | 2026-08-31 17:14:54 | 48.15884 | 12.14945 | 88° | 60km/h | 17586m | 5.3m/s | -52.3°C | 3.9% | 85.8hPa | 2.5V | 00:00:00 | 01:08:37 | 00:00:00 | |
| OE5MMP-10 | 2026-08-31 17:14:53 | 48.15884 | 12.14923 | 89° | 62km/h | 17581m | 4.1m/s | -52.3°C | 4.0% | 85.9hPa | 2.5V | 00:00:00 | 01:08:36 | 00:00:00 | |
| PETON7-10 | 2026-08-31 17:14:52 | 48.15884 | 12.14900 | 88° | 64km/h | 17576m | 5.3m/s | -52.3°C | 3.9% | 85.9hPa | 2.5V | 00:00:00 | 00:00:00 | 00:00:00 | |
| DM0DOS-11 | 2026-08-31 17:14:51 | 48.15878 | 12.14760 | 86° | 66km/h | 17543m | 5.5m/s | -52.1°C | 3.8% | 86.4hPa | 2.5V | 02:19:45 | 01:08:29 | 00:00:00 | |
| OE3JTB-15 | 2026-08-31 17:14:51 | 48.15883 | 12.14877 | 87° | 64km/h | 17571m | 5.5m/s | 0°C | 0% | 0hPa | 2.5V | 00:00:00 | 00:00:00 | 00:00:00 | |
| BAUMI2-15 | 2026-08-31 17:14:49 | 48.15881 | 12.14831 | 87° | 64km/h | 17560m | 6.1m/s | -52.2°C | 3.9% | 86.1hPa | 2.5V | 00:00:00 | 01:08:32 | 00:00:00 | |
| DO3MHA-11 | 2026-08-31 17:14:47 | 48.15879 | 12.14784 | 87° | 64km/h | 17549m | 5.4m/s | -52.1°C | 3.9% | 86.3hPa | 2.5V | 02:19:00 | 01:08:30 | 00:00:00 | |
| DO3MHA-12 | 2026-08-31 17:14:46 | 48.15878 | 12.14760 | 87° | 64km/h | 17543m | 5.5m/s | -52.1°C | 3.8% | 86.3hPa | 2.7V | 00:00:00 | 01:08:29 | 00:00:00 | |
| OE5DRO-10 | 2026-08-31 17:14:45 | 48.15877 | 12.14735 | 87° | 68km/h | 17538m | 4.5m/s | -52.1°C | 3.9% | 86.4hPa | 2.7V | 00:00:00 | 00:00:00 | 00:00:00 | |
| BAUMI2-15 | 2026-08-31 17:14:44 | 48.15876 | 12.14710 | 87° | 64km/h | 17533m | 6.0m/s | -52.1°C | 3.8% | 86.5hPa | 2.7V | 02:19:00 | 01:08:27 | 00:00:00 | |
| OE5MMP-10 | 2026-08-31 17:14:43 | 48.15875 | 12.14686 | 87° | 64km/h | 17528m | 5.1m/s | -52.1°C | 3.8% | 86.6hPa | 2.5V | 00:00:00 | 01:08:26 | 00:00:00 | |
| OE5WHR-10 | 2026-08-31 17:14:42 | 48.15873 | 12.14662 | 87° | 68km/h | 17522m | 6.2m/s | -52.1°C | 3.8% | 86.6hPa | 2.5V | 00:00:00 | 01:08:25 | 00:00:00 | |
| DM0DOS-11 | 2026-08-31 17:14:41 | 48.15865 | 12.14519 | 81° | 68km/h | 17490m | 4.5m/s | -51.9°C | 3.7% | 87.1hPa | 2.5V | 02:19:55 | 01:08:19 | 00:00:00 | |
| DL1ZP-14 | 2026-08-31 17:14:40 | 48.15872 | 12.14613 | 86° | 62km/h | 17511m | 5.5m/s | -52.1°C | 1.3% | 86.8hPa | 2.6V | 00:00:00 | 00:00:00 | 00:00:00 | |
| BAUMI2-15 | 2026-08-31 17:14:39 | 48.15871 | 12.14590 | 87° | 64km/h | 17506m | 5.5m/s | -52.0°C | 3.7% | 86.8hPa | 2.7V | 00:00:00 | 01:08:22 | 00:00:00 | |
| DO3MHA-11 | 2026-08-31 17:14:37 | 48.15868 | 12.14543 | 83° | 69km/h | 17496m | 6.2m/s | -51.9°C | 3.7% | 87.0hPa | 2.7V | 00:00:00 | 01:08:20 | 00:00:00 | |
| DO3MHA-12 | 2026-08-31 17:14:36 | 48.15865 | 12.14519 | 82° | 69km/h | 17490m | 4.5m/s | -51.9°C | 3.7% | 87.1hPa | 2.7V | 00:00:00 | 01:08:19 | 00:00:00 | |
| BAUMI2-15 | 2026-08-31 17:14:34 | 48.15860 | 12.14469 | 82° | 71km/h | 17479m | 5.0m/s | -51.9°C | 3.7% | 87.2hPa | 2.7V | 00:00:00 | 01:08:17 | 00:00:00 | |
| OE5MMP-10 | 2026-08-31 17:14:33 | 48.15858 | 12.14443 | 82° | 69km/h | 17474m | 5.8m/s | -52.0°C | 3.7% | 87.3hPa | 2.7V | 02:19:00 | 01:08:16 | 00:00:00 | |
| DG1MJG | 2026-08-31 17:14:32 | 48.15858 | 12.14443 | 82° | 69km/h | 17474m | 5.8m/s | -52.0°C | 1.2% | 87.3hPa | 2.5V | 02:20:00 | 00:00:00 | 00:00:00 | |
| OE5DXL-15 | 2026-08-31 17:14:30 | 48.15849 | 12.14362 | 84° | 66km/h | 17458m | 6.0m/s | -52.1°C | 3.8% | 87.5hPa | 2.5V | 02:20:00 | 00:00:00 | 00:00:00 | |
| BAUMI2-15 | 2026-08-31 17:14:29 | 48.15847 | 12.14336 | 84° | 68km/h | 17453m | 4.4m/s | -52.0°C | 3.8% | 87.5hPa | 2.5V | 02:20:00 | 01:08:12 | 00:00:00 | |
| S52SK | 2026-08-31 17:14:28 | 48.15847 | 12.14336 | 84° | 68km/h | 17453m | 4.4m/s | -52.1°C | 1.3% | 87.6hPa | 2.7V | 02:20:00 | 00:00:00 | 00:00:00 | |
| DO3MHA-11 | 2026-08-31 17:14:27 | 48.15843 | 12.14285 | 82° | 68km/h | 17443m | 5.5m/s | -52.0°C | 3.8% | 87.7hPa | 2.7V | 00:00:00 | 01:08:10 | 00:00:00 | |
| DO3MHA-12 | 2026-08-31 17:14:26 | 48.15840 | 12.14260 | 80° | 68km/h | 17438m | 4.6m/s | -52.0°C | 3.8% | 87.7hPa | 2.7V | 02:20:00 | 01:08:09 | 00:00:00 | |
| NBG1-10 | 2026-08-31 17:14:25 | 48.15837 | 12.14235 | 81° | 64km/h | 17433m | 5.3m/s | -52.0°C | 3.8% | 87.8hPa | 2.7V | 00:00:00 | 01:08:08 | 00:00:00 | |
| BAUMI2-15 | 2026-08-31 17:14:24 | 48.15835 | 12.14210 | 82° | 68km/h | 17427m | 6.0m/s | -52.0°C | 3.8% | 87.9hPa | 2.7V | 00:00:00 | 01:08:07 | 00:00:00 | |
| DM0DOS-11 | 2026-08-31 17:14:23 | 48.15827 | 12.14135 | 79° | 69km/h | 17413m | 6m/s | -52°C | 3.8% | 88.1hPa | 2.7V | 02:20:10 | 01:08:04 | 00:00:00 | |
| OE5MMP-10 | 2026-08-31 17:14:23 | 48.15832 | 12.14185 | 82° | 68km/h | 17422m | 4.4m/s | -52.0°C | 3.8% | 88.0hPa | 2.7V | 00:00:00 | 01:08:06 | 00:00:00 | |
| PETON7-10 | 2026-08-31 17:14:22 | 48.15830 | 12.14160 | 81° | 64km/h | 17418m | 4.1m/s | -52.0°C | 3.7% | 88.0hPa | 2.7V | 02:20:00 | 00:00:00 | 00:00:00 | |
| OE5WHR-10 | 2026-08-31 17:14:21 | 48.15827 | 12.14135 | 80° | 66km/h | 17413m | 5.9m/s | -52.0°C | 3.8% | 88.1hPa | 2.7V | 02:20:00 | 00:00:00 | 00:00:00 | |
| BAUMI2-15 | 2026-08-31 17:14:19 | 48.15819 | 12.14084 | 78° | 68km/h | 17403m | 4.9m/s | -51.9°C | 3.8% | 88.2hPa | 2.6V | 00:00:00 | 01:08:02 | 00:00:00 | |
| OE5REO-15 | 2026-08-31 17:14:18 | 48.15815 | 12.14058 | 78° | 69km/h | 17397m | 5.2m/s | 0°C | 0% | 0hPa | 2.6V | 02:20:00 | 00:00:00 | 00:00:00 | |
| DO3MHA-11 | 2026-08-31 17:14:17 | 48.15811 | 12.14033 | 76° | 62km/h | 17392m | 4.7m/s | -51.8°C | 3.7% | 88.4hPa | 2.6V | 02:20:00 | 01:08:00 | 00:00:00 | |
| DO3MHA-12 | 2026-08-31 17:14:16 | 48.15807 | 12.14009 | 75° | 62km/h | 17387m | 5.7m/s | -51.8°C | 3.8% | 88.4hPa | 2.7V | 00:00:00 | 01:07:59 | 00:00:00 | |
| BAUMI2-15 | 2026-08-31 17:14:14 | 48.15798 | 12.13962 | 74° | 60km/h | 17376m | 5.2m/s | -51.9°C | 3.7% | 88.6hPa | 2.7V | 02:20:00 | 01:07:57 | 00:00:00 | |
| DM0DOS-11 | 2026-08-31 17:14:13 | 48.15786 | 12.13896 | 75° | 60km/h | 17360m | 6m/s | -52°C | 3.7% | 88.8hPa | 2.6V | 02:20:20 | 01:07:54 | 00:00:00 | |
| OE5MMP-10 | 2026-08-31 17:14:13 | 48.15794 | 12.13940 | 76° | 64km/h | 17371m | 5.8m/s | -51.9°C | 3.7% | 88.7hPa | 2.6V | 00:00:00 | 01:07:56 | 00:00:00 | |
| DB0UT-7 | 2026-08-31 17:14:12 | 48.15790 | 12.13918 | 77° | 66km/h | 17366m | 4.4m/s | -51.9°C | 3.7% | 88.7hPa | 2.6V | 00:00:00 | 01:07:55 | 00:00:00 | |
| BAUMI2-15 | 2026-08-31 17:14:09 | 48.15777 | 12.13851 | 73° | 64km/h | 17350m | 4.9m/s | -51.8°C | 3.7% | 88.9hPa | 2.6V | 00:00:00 | 01:07:52 | 00:00:00 | |
| DO3MHA-11 | 2026-08-31 17:14:07 | 48.15768 | 12.13806 | 72° | 66km/h | 17339m | 5.1m/s | -51.9°C | 3.6% | 89.1hPa | 2.6V | 00:00:00 | 01:07:50 | 00:00:00 | |
| DO3MHA-12 | 2026-08-31 17:14:06 | 48.15762 | 12.13783 | 71° | 64km/h | 17334m | 4.3m/s | -51.9°C | 3.7% | 89.1hPa | 2.6V | 00:00:00 | 01:07:49 | 00:00:00 | |
| DN1GJH-1 | 2026-08-31 17:14:05 | 48.15762 | 12.13783 | 72° | 64km/h | 17334m | 4.4m/s | -52.0°C | 1.3% | 89.2hPa | 2.6V | 02:21:00 | 00:00:00 | 00:00:00 | |
| BAUMI2-15 | 2026-08-31 17:14:04 | 48.15750 | 12.13736 | 68° | 66km/h | 17323m | 4.8m/s | -52.0°C | 3.6% | 89.3hPa | 2.6V | 00:00:00 | 01:07:47 | 00:00:00 | |
| DM0DOS-11 | 2026-08-31 17:14:03 | 48.15731 | 12.13666 | 66° | 66km/h | 17307m | 5.6m/s | -52.3°C | 3.7% | 89.5hPa | 2.6V | 02:20:30 | 01:07:44 | 00:00:00 | |
| OE5MMP-10 | 2026-08-31 17:14:03 | 48.15744 | 12.13712 | 68° | 64km/h | 17318m | 5.8m/s | -52.0°C | 3.6% | 89.4hPa | 2.7V | 02:20:00 | 01:07:46 | 00:00:00 | |
| DF3TZ-5 | 2026-08-31 17:13:56 | 48.15694 | 12.13536 | 68° | 62km/h | 17277m | 5.4m/s | -52.6°C | 1.3% | 90.0hPa | 2.6V | 00:00:00 | 00:00:00 | 00:00:00 | |
| DL6DJ-15 | 2026-08-31 17:13:53 | 48.15676 | 12.13467 | 70° | 66km/h | 17261m | 4.5m/s | -52.8°C | 1.4% | 90.2hPa | 2.6V | 00:00:00 | 00:00:00 | 00:00:00 | |
| DM0DOS-11 | 2026-08-31 17:13:52 | 48.15670 | 12.13443 | 69° | 69km/h | 17256m | 5m/s | -52.8°C | 3.9% | 90.3hPa | 2.6V | 02:20:40 | 01:07:34 | 00:00:00 | |
| PETON7-10 | 2026-08-31 17:13:52 | 48.15676 | 12.13467 | 71° | 64km/h | 17261m | 4.4m/s | -52.8°C | 4.0% | 90.1hPa | 2.7V | 00:00:00 | 01:07:35 | 00:00:00 | |
| OE3JTB-15 | 2026-08-31 17:13:51 | 48.15671 | 12.13443 | 70° | 64km/h | 17256m | 4.9m/s | 0°C | 0% | 0hPa | 2.7V | 02:20:00 | 00:00:00 | 00:00:00 | |
| BAUMI2-15 | 2026-08-31 17:13:49 | 48.15658 | 12.13394 | 69° | 69km/h | 17246m | 4.5m/s | -52.7°C | 3.9% | 90.3hPa | 2.7V | 00:00:00 | 01:07:32 | 00:00:00 | |
| OE5DRO-10 | 2026-08-31 17:13:48 | 48.15651 | 12.13369 | 71° | 62km/h | 17241m | 5.8m/s | -52.7°C | 4.0% | 90.4hPa | 2.7V | 00:00:00 | 00:00:00 | 00:00:00 | |
| DO3MHA-11 | 2026-08-31 17:13:47 | 48.15646 | 12.13345 | 72° | 64km/h | 17236m | 4.5m/s | -52.6°C | 3.9% | 90.5hPa | 2.7V | 02:20:00 | 01:07:30 | 00:00:00 | |
| DO3MHA-12 | 2026-08-31 17:13:46 | 48.15640 | 12.13320 | 73° | 64km/h | 17231m | 4.5m/s | -52.6°C | 3.9% | 90.6hPa | 2.7V | 00:00:00 | 01:07:29 | 00:00:00 | |
| DN1GJH-1 | 2026-08-31 17:13:44 | 48.15635 | 12.13295 | 72° | 68km/h | 17226m | 5.5m/s | -52.7°C | 1.4% | 90.7hPa | 2.7V | 02:21:00 | 00:00:00 | 00:00:00 | |
| DM0DOS-11 | 2026-08-31 17:13:42 | 48.15614 | 12.13203 | 71° | 60km/h | 17206m | 4.2m/s | -52.7°C | 3.9% | 91hPa | 2.7V | 02:20:50 | 01:07:24 | 00:00:00 | |
| DB0UT-7 | 2026-08-31 17:13:42 | 48.15619 | 12.13225 | 72° | 58km/h | 17211m | 5.3m/s | -52.6°C | 3.9% | 90.9hPa | 2.7V | 00:00:00 | 00:00:00 | 00:00:00 | |
| S52SK | 2026-08-31 17:13:40 | 48.15614 | 12.13203 | 72° | 60km/h | 17206m | 4.2m/s | -52.7°C | 1.4% | 91.0hPa | 2.7V | 02:21:00 | 00:00:00 | 00:00:00 | |
| BAUMI2-15 | 2026-08-31 17:13:39 | 48.15603 | 12.13159 | 70° | 58km/h | 17196m | 4.7m/s | -52.7°C | 3.8% | 91.1hPa | 2.7V | 00:00:00 | 01:07:22 | 00:00:00 | |
| DO3MHA-11 | 2026-08-31 17:13:37 | 48.15592 | 12.13117 | 70° | 60km/h | 17186m | 5.6m/s | -52.7°C | 3.8% | 91.2hPa | 2.7V | 00:00:00 | 01:07:20 | 00:00:00 | |
| PETON7-10 | 2026-08-31 17:13:36 | 48.15588 | 12.13096 | 70° | 60km/h | 17181m | 4.7m/s | -52.8°C | 3.8% | 91.3hPa | 2.7V | 02:20:00 | 00:00:00 | 00:00:00 | |
| S52SK | 2026-08-31 17:13:34 | 48.15582 | 12.13076 | 70° | 58km/h | 17176m | 5.3m/s | -52.8°C | 1.3% | 91.4hPa | 2.7V | 02:21:00 | 00:00:00 | 00:00:00 | |
| DM0DOS-11 | 2026-08-31 17:13:32 | 48.15559 | 12.12990 | 69° | 62km/h | 17155m | 5m/s | -52.9°C | 0% | 91.7hPa | 2.7V | 02:21:00 | 01:07:14 | 00:00:00 | |
| DG1MFX-10 | 2026-08-31 17:13:31 | 48.15565 | 12.13012 | 70° | 60km/h | 17160m | 5.4m/s | -52.9°C | 1.4% | 91.6hPa | 2.6V | 02:21:00 | 00:00:00 | 00:00:00 | |
| OE5DXL-15 | 2026-08-31 17:13:30 | 48.15554 | 12.12968 | 71° | 55km/h | 17150m | 4.7m/s | -52.9°C | 3.8% | 91.7hPa | 2.6V | 00:00:00 | 00:00:00 | 00:00:00 | |
| BAUMI2-15 | 2026-08-31 17:13:29 | 48.15549 | 12.12945 | 73° | 58km/h | 17146m | 3.5m/s | -52.9°C | 3.7% | 91.8hPa | 2.6V | 02:21:00 | 01:07:12 | 00:00:00 | |
| OE5REO-15 | 2026-08-31 17:13:28 | 48.15549 | 12.12945 | 74° | 62km/h | 17146m | 3.6m/s | 0°C | 0% | 0hPa | 2.7V | 02:21:00 | 00:00:00 | 00:00:00 | |
| DO3MHA-11 | 2026-08-31 17:13:27 | 48.15541 | 12.12901 | 78° | 57km/h | 17136m | 5.0m/s | -52.9°C | 3.7% | 91.9hPa | 2.7V | 00:00:00 | 01:07:10 | 00:00:00 | |
| DO3MHA-12 | 2026-08-31 17:13:26 | 48.15538 | 12.12880 | 80° | 57km/h | 17131m | 4.2m/s | -53.0°C | 3.7% | 92.0hPa | 2.7V | 02:21:00 | 01:07:09 | 00:00:00 | |
| DF3TZ-5 | 2026-08-31 17:13:25 | 48.15533 | 12.12839 | 77° | 57km/h | 17121m | 5.3m/s | -53.2°C | 1.4% | 92.2hPa | 2.7V | 00:00:00 | 00:00:00 | 00:00:00 | |
| BAUMI2-15 | 2026-08-31 17:13:24 | 48.15532 | 12.12838 | 78° | 58km/h | 17121m | 5.3m/s | -53.1°C | 3.8% | 92.1hPa | 2.7V | 00:00:00 | 01:07:07 | 00:00:00 | |
| DN1GJH-1 | 2026-08-31 17:13:23 | 48.15533 | 12.12838 | 78° | 57km/h | 17121m | 5.3m/s | -53.1°C | 1.4% | 92.2hPa | 2.7V | 00:00:00 | 00:00:00 | 00:00:00 | |
| DM0DOS-11 | 2026-08-31 17:13:22 | 48.15523 | 12.12774 | 76° | 58km/h | 17106m | 4.5m/s | -53.7°C | 0% | 92.4hPa | 2.7V | 00:00:00 | 01:07:04 | 00:00:00 | |
| DL6DJ-15 | 2026-08-31 17:13:22 | 48.15523 | 12.12774 | 76° | 58km/h | 17106m | 4.5m/s | -53.7°C | 1.4% | 92.4hPa | 2.6V | 00:00:00 | 00:00:00 | 00:00:00 | |
| PETON7-10 | 2026-08-31 17:13:21 | 48.15523 | 12.12774 | 77° | 57km/h | 17106m | 4.4m/s | -53.6°C | 4.0% | 92.4hPa | 2.6V | 00:00:00 | 00:00:00 | 00:00:00 | |
| BAUMI2-15 | 2026-08-31 17:13:19 | 48.15514 | 12.12732 | 70° | 51km/h | 17096m | 4.2m/s | -54.1°C | 3.9% | 92.5hPa | 2.6V | 00:00:00 | 01:07:02 | 00:00:00 | |
| OE5WHR-10 | 2026-08-31 17:13:18 | 48.15509 | 12.12712 | 67° | 49km/h | 17092m | 4.8m/s | -54.2°C | 4.0% | 92.6hPa | 2.6V | 02:21:00 | 00:00:00 | 00:00:00 | |
| DO3MHA-11 | 2026-08-31 17:13:17 | 48.15503 | 12.12694 | 68° | 55km/h | 17087m | 5.2m/s | -54.3°C | 4.0% | 92.6hPa | 2.7V | 02:21:00 | 01:07:00 | 00:00:00 | |
| DO3MHA-12 | 2026-08-31 17:13:16 | 48.15498 | 12.12675 | 68° | 55km/h | 17082m | 4.5m/s | -54.4°C | 4.1% | 92.7hPa | 2.7V | 00:00:00 | 01:06:59 | 00:00:00 | |
| OE3JTB-15 | 2026-08-31 17:13:15 | 48.15493 | 12.12656 | 68° | 46km/h | 17077m | 4.7m/s | 0°C | 0% | 0hPa | 2.7V | 00:00:00 | 00:00:00 | 00:00:00 | |
| OE5MMP-10 | 2026-08-31 17:13:13 | 48.15482 | 12.12617 | 67° | 53km/h | 17068m | 3.7m/s | -54.7°C | 4.1% | 92.9hPa | 2.7V | 00:00:00 | 01:06:56 | 00:00:00 | |
| DM0DOS-11 | 2026-08-31 17:13:12 | 48.15467 | 12.12556 | 71° | 57km/h | 17053m | 4.5m/s | -54.8°C | 0% | 0hPa | 2.7V | 00:00:00 | 01:06:53 | 00:00:00 | |
| DB0UT-7 | 2026-08-31 17:13:12 | 48.15476 | 12.12597 | 70° | 44km/h | 17063m | 5.5m/s | -54.7°C | 4.1% | 93.0hPa | 2.7V | 02:21:00 | 01:06:55 | 00:00:00 | |
| DG1MFX-10 | 2026-08-31 17:13:11 | 48.15476 | 12.12597 | 70° | 58km/h | 17063m | 5.5m/s | -54.8°C | 1.5% | 93.0hPa | 2.6V | 02:21:00 | 00:00:00 | 00:00:00 | |
| OE5DRO-10 | 2026-08-31 17:13:10 | 48.15467 | 12.12556 | 72° | 44km/h | 17053m | 4.4m/s | -54.8°C | 4.1% | 93.1hPa | 2.6V | 00:00:00 | 00:00:00 | 00:00:00 | |
| S52SK | 2026-08-31 17:13:09 | 48.15467 | 12.12556 | 73° | 57km/h | 17053m | 4.5m/s | -54.8°C | 1.5% | 93.2hPa | 2.6V | 02:21:00 | 00:00:00 | 00:00:00 | |
| DO3MHA-11 | 2026-08-31 17:13:07 | 48.15454 | 12.12497 | 75° | 42km/h | 17038m | 4.8m/s | -55.4°C | 4.4% | 93.3hPa | 2.6V | 00:00:00 | 01:06:50 | 00:00:00 | |
| PETON7-10 | 2026-08-31 17:13:06 | 48.15451 | 12.12478 | 79° | 42km/h | 17033m | 5.6m/s | -55.9°C | 4.7% | 93.4hPa | 2.6V | 00:00:00 | 01:06:49 | 00:00:00 | |
| DK5PH-5 | 2026-08-31 17:13:04 | 48.15447 | 12.12442 | 85° | 42km/h | 17022m | 6.1m/s | -55.8°C | 4.7% | 93.6hPa | 2.6V | 00:00:00 | 01:06:47 | 00:00:00 | |
| OE5MMP-10 | 2026-08-31 17:13:03 | 48.15446 | 12.12426 | 87° | 38km/h | 17017m | 4.4m/s | -55.7°C | 4.6% | 93.6hPa | 2.6V | 02:21:00 | 01:06:46 | 00:00:00 | |
| DM0DOS-11 | 2026-08-31 17:13:02 | 48.15447 | 12.12382 | 93° | 37km/h | 17003m | 4.1m/s | -55.7°C | 0% | 0hPa | 2.7V | 00:00:00 | 01:06:43 | 00:00:00 | |
| DF3TZ-5 | 2026-08-31 17:12:54 | 48.15440 | 12.12279 | 82° | 44km/h | 16969m | 6.0m/s | -55.6°C | 1.6% | 94.4hPa | 2.7V | 00:00:00 | 00:00:00 | 00:00:00 | |
| OE5MMP-10 | 2026-08-31 17:12:53 | 48.15440 | 12.12279 | 83° | 42km/h | 16969m | 6.0m/s | -55.5°C | 4.3% | 94.3hPa | 2.7V | 00:00:00 | 01:06:36 | 00:00:00 | |
| DM0DOS-11 | 2026-08-31 17:12:52 | 48.15437 | 12.12228 | 88° | 46km/h | 16953m | 4.4m/s | -55.9°C | 0% | 0hPa | 2.7V | 00:00:00 | 01:06:33 | 00:00:00 | |
| OE5DRO-10 | 2026-08-31 17:12:51 | 48.15438 | 12.12245 | 86° | 44km/h | 16958m | 5.9m/s | -55.7°C | 4.4% | 94.5hPa | 2.6V | 00:00:00 | 00:00:00 | 00:00:00 | |
| PETON7-10 | 2026-08-31 17:12:50 | 48.15437 | 12.12228 | 89° | 42km/h | 16953m | 4.4m/s | 0°C | 0% | 0hPa | 2.6V | 02:21:00 | 00:00:00 | 00:00:00 | |
| S52SK | 2026-08-31 17:12:48 | 48.15437 | 12.12211 | 90° | 44km/h | 16949m | 3.5m/s | -56.0°C | 1.6% | 94.7hPa | 2.6V | 02:21:00 | 00:00:00 | 00:00:00 | |
| DO3MHA-11 | 2026-08-31 17:12:47 | 48.15435 | 12.12179 | 84° | 42km/h | 16940m | 4.9m/s | -56.1°C | 4.5% | 94.8hPa | 2.6V | 02:21:00 | 01:06:30 | 00:00:00 | |
| NBG1-10 | 2026-08-31 17:12:46 | 48.15434 | 12.12164 | 83° | 44km/h | 16935m | 4.4m/s | -56.2°C | 4.5% | 94.9hPa | 2.6V | 00:00:00 | 01:06:29 | 00:00:00 | |
| OE3JTB-15 | 2026-08-31 17:12:45 | 48.15433 | 12.12149 | 86° | 44km/h | 16930m | 5.5m/s | 0°C | 0% | 0hPa | 2.6V | 00:00:00 | 01:06:28 | 00:00:00 | |
| OE5MMP-10 | 2026-08-31 17:12:43 | 48.15432 | 12.12120 | 89° | 44km/h | 16921m | 4.1m/s | -56.4°C | 4.6% | 95.1hPa | 2.6V | 00:00:00 | 01:06:26 | 00:00:00 | |
| DM0DOS-11 | 2026-08-31 17:12:42 | 48.15430 | 12.12071 | 83° | 46km/h | 16906m | 4.5m/s | 0°C | 0% | 0hPa | 2.6V | 00:00:00 | 01:06:23 | 00:00:00 | |
| DB0UT-7 | 2026-08-31 17:12:42 | 48.15432 | 12.12104 | 87° | 46km/h | 16916m | 5.0m/s | -56.5°C | 4.7% | 95.1hPa | 2.7V | 00:00:00 | 00:00:00 | 00:00:00 | |
| DO3MHA-11 | 2026-08-31 17:12:37 | 48.15426 | 12.12020 | 83° | 46km/h | 16892m | 5.5m/s | -56.7°C | 4.8% | 95.5hPa | 2.7V | 00:00:00 | 01:06:20 | 00:00:00 | |
| DO3MHA-12 | 2026-08-31 17:12:36 | 48.15425 | 12.12003 | 81° | 46km/h | 16887m | 4.3m/s | -56.7°C | 4.9% | 95.6hPa | 2.7V | 00:00:00 | 01:06:19 | 00:00:00 | |
| PETON7-10 | 2026-08-31 17:12:35 | 48.15423 | 12.11986 | 83° | 47km/h | 16883m | 4.3m/s | 0°C | 0% | 0hPa | 2.7V | 00:00:00 | 00:00:00 | 00:00:00 | |
| DK5PH-5 | 2026-08-31 17:12:34 | 48.15422 | 12.11969 | 86° | 42km/h | 16878m | 5.2m/s | -56.6°C | 4.9% | 95.7hPa | 2.7V | 02:21:00 | 01:06:17 | 00:00:00 | |
| OE5MMP-10 | 2026-08-31 17:12:33 | 48.15421 | 12.11952 | 87° | 47km/h | 16873m | 4.5m/s | -56.6°C | 4.9% | 95.8hPa | 2.6V | 02:21:00 | 01:06:16 | 00:00:00 | |
| OE5DRO-10 | 2026-08-31 17:12:32 | 48.15420 | 12.11935 | 86° | 46km/h | 16868m | 5.7m/s | -56.6°C | 5.0% | 95.9hPa | 2.6V | 02:21:00 | 00:00:00 | 00:00:00 | |
| S52SK | 2026-08-31 17:12:30 | 48.15418 | 12.11900 | 86° | 47km/h | 16859m | 4.4m/s | -56.7°C | 1.8% | 96.1hPa | 2.6V | 02:22:00 | 00:00:00 | 00:00:00 | |
| DG1MJG | 2026-08-31 17:12:29 | 48.15418 | 12.11900 | 86° | 47km/h | 16859m | 4.4m/s | -56.7°C | 1.8% | 96.1hPa | 2.6V | 02:22:00 | 00:00:00 | 00:00:00 | |
| DO3MHA-11 | 2026-08-31 17:12:27 | 48.15416 | 12.11846 | 88° | 47km/h | 16844m | 4.8m/s | -56.6°C | 4.9% | 96.2hPa | 2.6V | 00:00:00 | 01:06:10 | 00:00:00 | |
| DO3MHA-12 | 2026-08-31 17:12:26 | 48.15416 | 12.11827 | 87° | 47km/h | 16839m | 5.3m/s | -56.7°C | 4.9% | 96.3hPa | 2.6V | 02:22:00 | 01:06:09 | 00:00:00 | |
| OE5MMP-10 | 2026-08-31 17:12:23 | 48.15414 | 12.11769 | 89° | 42km/h | 16824m | 4.0m/s | -56.7°C | 4.8% | 96.5hPa | 2.6V | 00:00:00 | 01:06:06 | 00:00:00 | |
| DM0DOS-11 | 2026-08-31 17:12:22 | 48.15412 | 12.11714 | 87° | 44km/h | 16811m | 4m/s | 0°C | 0% | 0hPa | 2.6V | 00:00:00 | 01:06:03 | 00:00:00 | |
| DL6DJ-15 | 2026-08-31 17:12:19 | 48.15412 | 12.11697 | 89° | 42km/h | 16806m | 5.5m/s | -56.7°C | 1.8% | 96.9hPa | 2.6V | 00:00:00 | 00:00:00 | 00:00:00 | |
| S52SK | 2026-08-31 17:12:18 | 48.15412 | 12.11697 | 90° | 44km/h | 16806m | 5.5m/s | -56.7°C | 1.8% | 96.9hPa | 2.6V | 02:22:00 | 00:00:00 | 00:00:00 | |
| PETON7-10 | 2026-08-31 17:12:17 | 48.15412 | 12.11667 | 90° | 35km/h | 16797m | 4.9m/s | 0°C | 0% | 0hPa | 2.6V | 00:00:00 | 01:06:00 | 00:00:00 | |
| DO3MHA-12 | 2026-08-31 17:12:16 | 48.15411 | 12.11653 | 86° | 37km/h | 16791m | 5.1m/s | -56.5°C | 4.8% | 97.0hPa | 2.6V | 00:00:00 | 01:05:59 | 00:00:00 | |
| OE5WHR-10 | 2026-08-31 17:12:15 | 48.15410 | 12.11640 | 85° | 37km/h | 16787m | 4.8m/s | -56.5°C | 4.9% | 97.1hPa | 2.6V | 02:22:00 | 00:00:00 | 00:00:00 | |
| OE3JTB-15 | 2026-08-31 17:12:14 | 48.15410 | 12.11627 | 86° | 46km/h | 16781m | 5.6m/s | 0°C | 0% | 0hPa | 2.7V | 02:22:00 | 00:00:00 | 00:00:00 | |
| NBG1-10 | 2026-08-31 17:12:13 | 48.15409 | 12.11613 | 85° | 37km/h | 16776m | 4.2m/s | -56.5°C | 4.9% | 97.3hPa | 2.7V | 02:22:00 | 01:05:56 | 00:00:00 | |
| DB0UT-7 | 2026-08-31 17:12:12 | 48.15408 | 12.11599 | 83° | 37km/h | 16771m | 5.6m/s | -56.4°C | 4.8% | 97.4hPa | 2.6V | 00:00:00 | 01:05:55 | 00:00:00 | |
| DF7PN | 2026-08-31 17:12:08 | 48.15405 | 12.11545 | 90° | 33km/h | 16752m | 4.3m/s | -56.4°C | 1.8% | 97.7hPa | 2.6V | 00:00:00 | 00:00:00 | 00:00:00 | |
| DO3MHA-11 | 2026-08-31 17:12:07 | 48.15405 | 12.11532 | 88° | 37km/h | 16747m | 5.7m/s | -56.3°C | 4.8% | 97.7hPa | 2.6V | 00:00:00 | 01:05:50 | 00:00:00 | |
| DO3MHA-12 | 2026-08-31 17:12:06 | 48.15404 | 12.11519 | 86° | 37km/h | 16742m | 4.5m/s | -56.3°C | 4.9% | 97.8hPa | 2.6V | 00:00:00 | 01:05:49 | 00:00:00 | |
| DL1ZP-14 | 2026-08-31 17:12:05 | 48.15403 | 12.11506 | 85° | 33km/h | 16737m | 4.7m/s | -56.4°C | -1.0% | -1.0hPa | 2.6V | 00:00:00 | 00:00:00 | 00:00:00 | |
| DM0DOS-11 | 2026-08-31 17:12:04 | 48.15400 | 12.11425 | 88° | 38km/h | 16708m | 5.8m/s | 0°C | 0% | 0hPa | 2.6V | 00:00:00 | 01:05:42 | 00:00:00 | |
| DK5PH-5 | 2026-08-31 17:12:04 | 48.15403 | 12.11493 | 88° | 38km/h | 16732m | 5.4m/s | -56.3°C | 4.8% | 98.0hPa | 2.7V | 00:00:00 | 01:05:47 | 00:00:00 | |
| OE5MMP-10 | 2026-08-31 17:12:03 | 48.15403 | 12.11480 | 88° | 38km/h | 16727m | 4.5m/s | -56.3°C | 4.8% | 98.0hPa | 2.7V | 02:22:00 | 01:05:46 | 00:00:00 | |
| DF3TZ-5 | 2026-08-31 17:11:52 | 48.15407 | 12.11302 | 95° | 38km/h | 16669m | 5.8m/s | -56.1°C | 1.8% | 99.0hPa | 2.6V | 00:00:00 | 00:00:00 | 00:00:00 | |
| DL6DJ-15 | 2026-08-31 17:11:48 | 48.15408 | 12.11260 | 92° | 33km/h | 16653m | 5.2m/s | -56.2°C | 1.8% | 99.2hPa | 2.6V | 00:00:00 | 00:00:00 | 00:00:00 | |
| DM0DOS-11 | 2026-08-31 17:11:47 | 48.15407 | 12.11226 | 80° | 27km/h | 16638m | 4.3m/s | 0°C | 0% | 0hPa | 2.6V | 00:00:00 | 01:05:28 | 00:00:00 | |
| PETON7-10 | 2026-08-31 17:11:47 | 48.15408 | 12.11248 | 88° | 35km/h | 16648m | 5.1m/s | 0°C | 0% | 0hPa | 2.7V | 00:00:00 | 00:00:00 | 00:00:00 | |
| DO3MHA-12 | 2026-08-31 17:11:46 | 48.15408 | 12.11237 | 83° | 37km/h | 16642m | 5.2m/s | -56.1°C | 4.7% | 99.3hPa | 2.7V | 00:00:00 | 01:05:29 | 00:00:00 | |
| OE5REO-15 | 2026-08-31 17:11:43 | 48.15406 | 12.11216 | 85° | 27km/h | 16633m | 5.3m/s | 0°C | 0% | 0hPa | 2.7V | 02:22:00 | 00:00:00 | 00:00:00 | |
| DB0UT-7 | 2026-08-31 17:11:42 | 48.15405 | 12.11193 | 87° | 40km/h | 16623m | 5.4m/s | -56.3°C | 4.7% | 99.7hPa | 2.7V | 02:22:00 | 00:00:00 | 00:00:00 | |
| NBG1-10 | 2026-08-31 17:11:40 | 48.15404 | 12.11164 | 91° | 42km/h | 16614m | 4.2m/s | -56.6°C | 4.9% | 99.8hPa | 2.7V | 00:00:00 | 01:05:23 | 00:00:00 | |
| DO3MHA-11 | 2026-08-31 17:11:37 | 48.15407 | 12.11114 | 97° | 40km/h | 16599m | 5.4m/s | -56.6°C | 5.0% | 100.0hPa | 2.7V | 00:00:00 | 01:05:20 | 00:00:00 | |
| DO3MHA-12 | 2026-08-31 17:11:36 | 48.15408 | 12.11098 | 95° | 40km/h | 16594m | 5.0m/s | -56.6°C | 4.9% | 100.1hPa | 2.7V | 00:00:00 | 01:05:19 | 00:00:00 | |
| OE5DRO-10 | 2026-08-31 17:11:35 | 48.15409 | 12.11083 | 94° | 40km/h | 16590m | 3.9m/s | -56.5°C | 5.0% | 100.2hPa | 2.7V | 02:22:00 | 00:00:00 | 00:00:00 | |
| DK5PH-5 | 2026-08-31 17:11:34 | 48.15409 | 12.11068 | 93° | 44km/h | 16585m | 5.5m/s | -56.6°C | 5.0% | 100.3hPa | 2.6V | 00:00:00 | 01:05:17 | 00:00:00 | |
| PG1ADW-2 | 2026-08-31 17:11:33 | 48.15409 | 12.11054 | 89° | 40km/h | 16580m | 4.1m/s | -56.5°C | 5.0% | 100.4hPa | 2.6V | 00:00:00 | 00:00:00 | 00:00:00 | |
| PETON7-10 | 2026-08-31 17:11:32 | 48.15408 | 12.11041 | 82° | 46km/h | 16575m | 5.1m/s | 0°C | 0% | 0hPa | 2.6V | 00:00:00 | 01:05:15 | 00:00:00 | |
| OE5DXL-15 | 2026-08-31 17:11:30 | 48.15404 | 12.11013 | 73° | 46km/h | 16565m | 4.7m/s | -56.4°C | 4.9% | 100.6hPa | 2.6V | 02:23:00 | 00:00:00 | 00:00:00 | |
| DG1MFX-10 | 2026-08-31 17:11:28 | 48.15401 | 12.10999 | 76° | 42km/h | 16560m | 5.9m/s | -56.5°C | 1.9% | 100.7hPa | 2.6V | 02:23:00 | 00:00:00 | 00:00:00 | |
| DO3MHA-11 | 2026-08-31 17:11:27 | 48.15397 | 12.10966 | 82° | 42km/h | 16550m | 5.0m/s | -56.5°C | 5.0% | 100.8hPa | 2.6V | 00:00:00 | 01:05:10 | 00:00:00 | |
| DO3MHA-12 | 2026-08-31 17:11:26 | 48.15395 | 12.10950 | 82° | 40km/h | 16544m | 6.0m/s | -56.5°C | 5.0% | 100.9hPa | 2.6V | 02:23:00 | 01:05:09 | 00:00:00 | |
| OE5MMP-10 | 2026-08-31 17:11:23 | 48.15393 | 12.10902 | 90° | 40km/h | 16528m | 4.7m/s | -56.5°C | 5.1% | 101.1hPa | 2.7V | 00:00:00 | 01:05:06 | 00:00:00 | |
| S52SK | 2026-08-31 17:11:22 | 48.15393 | 12.10902 | 91° | 40km/h | 16528m | 4.7m/s | -56.5°C | 2.0% | 101.2hPa | 2.7V | 02:23:00 | 00:00:00 | 00:00:00 | |
| DF3TZ-5 | 2026-08-31 17:11:21 | 48.15391 | 12.10858 | 81° | 38km/h | 16513m | 3.8m/s | -56.4°C | 2.0% | 101.5hPa | 2.7V | 00:00:00 | 00:00:00 | 00:00:00 | |
| DO3MHA-11 | 2026-08-31 17:11:17 | 48.15387 | 12.10812 | 85° | 47km/h | 16498m | 5.5m/s | -56.3°C | 4.9% | 101.6hPa | 2.7V | 02:23:00 | 01:05:00 | 00:00:00 | |
| DO3MHA-12 | 2026-08-31 17:11:16 | 48.15386 | 12.10797 | 85° | 47km/h | 16492m | 5.7m/s | -56.3°C | 4.9% | 101.7hPa | 2.7V | 00:00:00 | 01:04:59 | 00:00:00 | |
| OE5MMP-10 | 2026-08-31 17:11:13 | 48.15386 | 12.10748 | 96° | 51km/h | 16476m | 6.3m/s | -56.2°C | 4.9% | 102.0hPa | 2.7V | 00:00:00 | 01:04:56 | 00:00:00 | |
| DB0UT-7 | 2026-08-31 17:11:12 | 48.15387 | 12.10730 | 96° | 58km/h | 16471m | 4.0m/s | -56.2°C | 4.9% | 102.1hPa | 2.7V | 00:00:00 | 01:04:55 | 00:00:00 | |
| BAUMI2-15 | 2026-08-31 17:11:10 | 48.15388 | 12.10692 | 89° | 53km/h | 16459m | 5.7m/s | -56.1°C | 5.0% | 102.2hPa | 2.7V | 02:23:00 | 01:04:53 | 00:00:00 | |
| S52SK | 2026-08-31 17:11:08 | 48.15387 | 12.10673 | 84° | 51km/h | 16454m | 3.9m/s | -56.1°C | 1.9% | 102.4hPa | 2.6V | 02:23:00 | 00:00:00 | 00:00:00 | |
| DO3MHA-11 | 2026-08-31 17:11:07 | 48.15383 | 12.10633 | 80° | 55km/h | 16444m | 5.9m/s | -56.0°C | 5.0% | 102.5hPa | 2.6V | 00:00:00 | 01:04:50 | 00:00:00 | |
| PETON7-10 | 2026-08-31 17:11:06 | 48.15381 | 12.10613 | 79° | 64km/h | 16438m | 5.5m/s | 0°C | 0% | 0hPa | 2.6V | 02:23:00 | 00:00:00 | 00:00:00 | |
| BAUMI2-15 | 2026-08-31 17:11:05 | 48.15378 | 12.10593 | 80° | 53km/h | 16432m | 6.4m/s | -55.9°C | 4.9% | 102.7hPa | 2.6V | 00:00:00 | 01:04:48 | 00:00:00 | |
| DK5PH-5 | 2026-08-31 17:11:04 | 48.15376 | 12.10574 | 82° | 62km/h | 16426m | 5.2m/s | -55.9°C | 4.8% | 102.8hPa | 2.6V | 02:23:00 | 01:04:47 | 00:00:00 | |
| OE5MMP-10 | 2026-08-31 17:11:03 | 48.15374 | 12.10555 | 83° | 58km/h | 16421m | 5.0m/s | -55.9°C | 4.8% | 102.8hPa | 2.7V | 02:23:00 | 01:04:46 | 00:00:00 | |
| DF3TZ-5 | 2026-08-31 17:10:49 | 48.15354 | 12.10249 | 80° | 58km/h | 16340m | 6.3m/s | -56.4°C | 2.1% | 104.2hPa | 2.6V | 00:00:00 | 00:00:00 | 00:00:00 | |
| DO3MHA-11 | 2026-08-31 17:10:47 | 48.15349 | 12.10204 | 81° | 68km/h | 16330m | 5.5m/s | -56.4°C | 5.0% | 104.3hPa | 2.6V | 02:23:00 | 01:04:30 | 00:00:00 | |
| DO3MHA-12 | 2026-08-31 17:10:46 | 48.15347 | 12.10180 | 81° | 69km/h | 16324m | 6.4m/s | -56.4°C | 5.0% | 104.4hPa | 2.6V | 00:00:00 | 01:04:29 | 00:00:00 | |
| BAUMI2-15 | 2026-08-31 17:10:45 | 48.15344 | 12.10155 | 82° | 69km/h | 16318m | 4.9m/s | -56.3°C | 5.0% | 104.5hPa | 2.6V | 00:00:00 | 01:04:28 | 00:00:00 | |
| OE5MMP-10 | 2026-08-31 17:10:43 | 48.15339 | 12.10103 | 83° | 69km/h | 16307m | 5.6m/s | -56.2°C | 4.9% | 104.7hPa | 2.6V | 00:00:00 | 01:04:26 | 00:00:00 | |
| DB0UT-7 | 2026-08-31 17:10:42 | 48.15336 | 12.10078 | 83° | 71km/h | 16302m | 4.6m/s | -56.2°C | 4.9% | 104.8hPa | 2.6V | 00:00:00 | 00:00:00 | 00:00:00 | |
| BAUMI2-15 | 2026-08-31 17:10:40 | 48.15331 | 12.10026 | 81° | 69km/h | 16289m | 6.4m/s | -56.2°C | 4.9% | 105.0hPa | 2.6V | 02:23:00 | 01:04:23 | 00:00:00 | |
| OE5DRO-10 | 2026-08-31 17:10:38 | 48.15325 | 12.09974 | 79° | 71km/h | 16278m | 6.6m/s | -56.3°C | 5.0% | 105.2hPa | 2.7V | 02:23:00 | 00:00:00 | 00:00:00 | |
| DO3MHA-11 | 2026-08-31 17:10:37 | 48.15321 | 12.09948 | 77° | 71km/h | 16272m | 4.5m/s | -56.3°C | 5.1% | 105.3hPa | 2.7V | 00:00:00 | 01:04:20 | 00:00:00 | |
| DO3MHA-12 | 2026-08-31 17:10:36 | 48.15317 | 12.09923 | 76° | 71km/h | 16267m | 5.3m/s | -56.3°C | 5.1% | 105.4hPa | 2.7V | 00:00:00 | 01:04:19 | 00:00:00 | |
| BAUMI2-15 | 2026-08-31 17:10:35 | 48.15312 | 12.09897 | 75° | 71km/h | 16262m | 5.7m/s | -56.4°C | 5.1% | 105.5hPa | 2.7V | 00:00:00 | 01:04:18 | 00:00:00 | |
| DK5PH-5 | 2026-08-31 17:10:34 | 48.15308 | 12.09871 | 76° | 71km/h | 16257m | 5.0m/s | -56.4°C | 5.2% | 105.5hPa | 2.7V | 00:00:00 | 01:04:17 | 00:00:00 | |
| OE5MMP-10 | 2026-08-31 17:10:33 | 48.15303 | 12.09845 | 77° | 71km/h | 16251m | 6.2m/s | -56.4°C | 5.1% | 105.7hPa | 2.7V | 02:23:00 | 01:04:16 | 00:00:00 | |
| OE5DXL-15 | 2026-08-31 17:10:30 | 48.15291 | 12.09766 | 78° | 71km/h | 16235m | 5.6m/s | -56.4°C | 5.0% | 105.9hPa | 2.7V | 00:00:00 | 00:00:00 | 00:00:00 | |
| OE3JTB-15 | 2026-08-31 17:10:29 | 48.15287 | 12.09739 | 79° | 84km/h | 16230m | 5.2m/s | 0°C | 0% | 0hPa | 2.7V | 00:00:00 | 01:04:12 | 00:00:00 | |
| S52SK | 2026-08-31 17:10:28 | 48.15287 | 12.09739 | 79° | 71km/h | 16230m | 5.3m/s | -56.4°C | 2.0% | 106.0hPa | 2.7V | 02:24:00 | 00:00:00 | 00:00:00 | |
| DO3MHA-11 | 2026-08-31 17:10:27 | 48.15280 | 12.09687 | 80° | 73km/h | 16218m | 4.5m/s | -56.3°C | 4.9% | 106.2hPa | 2.7V | 00:00:00 | 01:04:10 | 00:00:00 | |
| DO3MHA-12 | 2026-08-31 17:10:26 | 48.15277 | 12.09661 | 81° | 73km/h | 16213m | 6.6m/s | -56.3°C | 5.0% | 106.3hPa | 2.7V | 02:24:00 | 01:04:09 | 00:00:00 | |
| BAUMI2-15 | 2026-08-31 17:10:25 | 48.15274 | 12.09635 | 80° | 71km/h | 16207m | 4.4m/s | -56.3°C | 5.0% | 106.4hPa | 2.7V | 02:24:00 | 01:04:08 | 00:00:00 | |
| OE5MMP-10 | 2026-08-31 17:10:23 | 48.15267 | 12.09583 | 77° | 73km/h | 16196m | 4.8m/s | -56.2°C | 5.1% | 106.6hPa | 2.6V | 00:00:00 | 01:04:06 | 00:00:00 | |
| BAUMI2-15 | 2026-08-31 17:10:20 | 48.15251 | 12.09504 | 70° | 75km/h | 16180m | 5.6m/s | -56.2°C | 5.2% | 106.8hPa | 2.6V | 00:00:00 | 01:04:03 | 00:00:00 | |
| OE5DRO-10 | 2026-08-31 17:10:19 | 48.15244 | 12.09477 | 69° | 69km/h | 16175m | 5.7m/s | -56.2°C | 5.1% | 106.9hPa | 2.6V | 00:00:00 | 00:00:00 | 00:00:00 | |
| DF3TZ-5 | 2026-08-31 17:10:18 | 48.15237 | 12.09451 | 68° | 73km/h | 16169m | 6.1m/s | -56.2°C | -1.0% | -1.0hPa | 2.6V | 00:00:00 | 00:00:00 | 00:00:00 | |
| DO3MHA-11 | 2026-08-31 17:10:17 | 48.15230 | 12.09425 | 68° | 69km/h | 16164m | 4.5m/s | -56.2°C | 5.1% | 107.1hPa | 2.6V | 02:24:00 | 01:04:00 | 00:00:00 | |
| DO3MHA-12 | 2026-08-31 17:10:16 | 48.15223 | 12.09400 | 68° | 69km/h | 16159m | 5.0m/s | -56.2°C | 5.0% | 107.2hPa | 2.6V | 00:00:00 | 01:03:59 | 00:00:00 | |
| BAUMI2-15 | 2026-08-31 17:10:15 | 48.15216 | 12.09375 | 67° | 69km/h | 16153m | 6.9m/s | -56.2°C | 5.0% | 107.3hPa | 2.6V | 00:00:00 | 01:03:58 | 00:00:00 | |
| S52SK | 2026-08-31 17:10:14 | 48.15216 | 12.09375 | 68° | 73km/h | 16153m | 6.9m/s | -56.2°C | 2.0% | 107.4hPa | 2.6V | 02:24:00 | 00:00:00 | 00:00:00 | |
| OE5MMP-10 | 2026-08-31 17:10:13 | 48.15201 | 12.09325 | 68° | 69km/h | 16141m | 5.9m/s | -56.2°C | 4.9% | 107.5hPa | 2.6V | 00:00:00 | 01:03:56 | 00:00:00 | |
| DB0UT-7 | 2026-08-31 17:10:12 | 48.15195 | 12.09301 | 69° | 71km/h | 16136m | 5.2m/s | -56.2°C | 4.9% | 107.6hPa | 2.6V | 02:24:00 | 01:03:55 | 00:00:00 | |
| BAUMI2-15 | 2026-08-31 17:10:10 | 48.15182 | 12.09254 | 69° | 69km/h | 16126m | 6.8m/s | -56.5°C | 5.0% | 107.7hPa | 2.7V | 02:24:00 | 01:03:53 | 00:00:00 | |
| OE5WHR-10 | 2026-08-31 17:10:09 | 48.15176 | 12.09230 | 67° | 71km/h | 16119m | 5.8m/s | -56.5°C | 5.1% | 107.9hPa | 2.6V | 02:24:00 | 00:00:00 | 00:00:00 | |
| DO3MHA-11 | 2026-08-31 17:10:07 | 48.15161 | 12.09182 | 65° | 69km/h | 16109m | 5.6m/s | -56.5°C | 5.2% | 108.1hPa | 2.7V | 00:00:00 | 01:03:50 | 00:00:00 | |
| DO3MHA-12 | 2026-08-31 17:10:06 | 48.15153 | 12.09159 | 63° | 69km/h | 16103m | 5.0m/s | -56.4°C | 5.3% | 108.1hPa | 2.7V | 00:00:00 | 01:03:49 | 00:00:00 | |
| BAUMI2-15 | 2026-08-31 17:10:05 | 48.15145 | 12.09137 | 61° | 69km/h | 16098m | 5.8m/s | -56.4°C | 5.4% | 108.2hPa | 2.7V | 00:00:00 | 01:03:48 | 00:00:00 | |
| DK5PH-5 | 2026-08-31 17:10:04 | 48.15136 | 12.09114 | 61° | 75km/h | 16093m | 4.7m/s | -56.4°C | 5.4% | 108.3hPa | 2.7V | 00:00:00 | 01:03:47 | 00:00:00 | |
| OE5MMP-10 | 2026-08-31 17:10:03 | 48.15127 | 12.09091 | 60° | 71km/h | 16088m | 5.0m/s | -56.4°C | 5.3% | 108.4hPa | 2.7V | 02:24:00 | 01:03:46 | 00:00:00 | |
| S52SK | 2026-08-31 17:10:02 | 48.15127 | 12.09091 | 61° | 71km/h | 16088m | 5.1m/s | -56.4°C | 2.2% | 108.5hPa | 2.6V | 02:24:00 | 00:00:00 | 00:00:00 | |
| NBG1-10 | 2026-08-31 17:10:01 | 48.15110 | 12.09045 | 62° | 75km/h | 16078m | 3.6m/s | -56.2°C | 5.2% | 108.5hPa | 2.6V | 00:00:00 | 01:03:44 | 00:00:00 | |
| OE5DXL-15 | 2026-08-31 17:10:00 | 48.15102 | 12.09023 | 62° | 75km/h | 16074m | 5.0m/s | -56.2°C | 5.2% | 108.7hPa | 2.6V | 02:24:00 | 00:00:00 | 00:00:00 | |
| DO3MHA-11 | 2026-08-31 17:09:57 | 48.15077 | 12.08950 | 64° | 71km/h | 16059m | 5.2m/s | -56.1°C | 5.1% | 108.9hPa | 2.7V | 00:00:00 | 01:03:40 | 00:00:00 | |
| DO3MHA-12 | 2026-08-31 17:09:56 | 48.15069 | 12.08925 | 64° | 71km/h | 16054m | 4.9m/s | -56.1°C | 5.1% | 109.0hPa | 2.7V | 02:24:00 | 01:03:39 | 00:00:00 | |
| BAUMI2-15 | 2026-08-31 17:09:55 | 48.15060 | 12.08901 | 64° | 71km/h | 16050m | 4.0m/s | -56.0°C | 5.1% | 109.0hPa | 2.6V | 02:24:00 | 01:03:38 | 00:00:00 | |
| DG1MJG | 2026-08-31 17:09:54 | 48.15060 | 12.08901 | 64° | 71km/h | 16050m | 4.0m/s | -56.1°C | 2.1% | 109.1hPa | 2.6V | 02:25:00 | 00:00:00 | 00:00:00 | |
| OE5MMP-10 | 2026-08-31 17:09:53 | 48.15043 | 12.08853 | 61° | 73km/h | 16039m | 4.5m/s | -55.9°C | 5.0% | 109.3hPa | 2.6V | 00:00:00 | 01:03:36 | 00:00:00 | |
| BAUMI2-15 | 2026-08-31 17:09:50 | 48.15015 | 12.08786 | 56° | 73km/h | 16024m | 5.8m/s | -55.8°C | 5.1% | 109.5hPa | 2.6V | 00:00:00 | 01:03:33 | 00:00:00 | |
| OE5WHR-10 | 2026-08-31 17:09:48 | 48.14994 | 12.08740 | 55° | 77km/h | 16014m | 4.8m/s | -55.7°C | 5.1% | 109.6hPa | 2.6V | 00:00:00 | 00:00:00 | 00:00:00 | |
| DO3MHA-11 | 2026-08-31 17:09:47 | 48.14983 | 12.08718 | 55° | 77km/h | 16009m | 5.0m/s | -55.7°C | 5.0% | 109.8hPa | 2.6V | 02:24:00 | 01:03:30 | 00:00:00 | |
| DO3MHA-12 | 2026-08-31 17:09:46 | 48.14972 | 12.08695 | 56° | 77km/h | 16004m | 4.2m/s | -55.6°C | 5.0% | 109.8hPa | 2.6V | 00:00:00 | 01:03:29 | 00:00:00 | |
| BAUMI2-15 | 2026-08-31 17:09:45 | 48.14961 | 12.08670 | 57° | 77km/h | 16000m | 5.1m/s | -55.6°C | 5.1% | 109.9hPa | 2.6V | 00:00:00 | 01:03:28 | 00:00:00 | |
| DL6DJ-15 | 2026-08-31 17:09:44 | 48.14950 | 12.08645 | 57° | 78km/h | 15995m | 4.2m/s | -55.6°C | 2.0% | 110.0hPa | 2.6V | 00:00:00 | 00:00:00 | 00:00:00 | |
| OE5MMP-10 | 2026-08-31 17:09:43 | 48.14940 | 12.08621 | 59° | 77km/h | 15990m | 5.5m/s | -55.5°C | 5.0% | 110.1hPa | 2.6V | 00:00:00 | 01:03:26 | 00:00:00 | |
| DB0UT-7 | 2026-08-31 17:09:42 | 48.14930 | 12.08596 | 60° | 78km/h | 15986m | 4.1m/s | -55.5°C | 4.9% | 110.2hPa | 2.6V | 00:00:00 | 00:00:00 | 00:00:00 | |
| OE5DRO-10 | 2026-08-31 17:09:41 | 48.14920 | 12.08571 | 61° | 78km/h | 15981m | 4.4m/s | -55.5°C | 4.9% | 110.2hPa | 2.6V | 02:24:00 | 00:00:00 | 00:00:00 | |
| BAUMI2-15 | 2026-08-31 17:09:40 | 48.14911 | 12.08545 | 62° | 77km/h | 15976m | 5.3m/s | -55.4°C | 4.8% | 110.3hPa | 2.7V | 02:24:00 | 01:03:23 | 00:00:00 | |
| S52SK | 2026-08-31 17:09:39 | 48.14911 | 12.08545 | 62° | 77km/h | 15976m | 5.3m/s | -55.5°C | 2.0% | 110.4hPa | 2.7V | 00:00:00 | 00:00:00 | 00:00:00 | |
| OE5HKT-10 | 2026-08-31 17:09:38 | 48.14892 | 12.08495 | 60° | 78km/h | 15967m | 5.6m/s | 0°C | 0% | 0hPa | 2.7V | 00:00:00 | 00:00:00 | 00:00:00 | |
| DO3MHA-11 | 2026-08-31 17:09:37 | 48.14882 | 12.08471 | 58° | 77km/h | 15961m | 4.6m/s | -55.3°C | 4.8% | 110.6hPa | 2.7V | 00:00:00 | 01:03:20 | 00:00:00 | |
| DO3MHA-12 | 2026-08-31 17:09:36 | 48.14872 | 12.08447 | 58° | 78km/h | 15956m | 5.7m/s | -55.3°C | 4.9% | 110.7hPa | 2.7V | 00:00:00 | 01:03:19 | 00:00:00 | |
| BAUMI2-15 | 2026-08-31 17:09:35 | 48.14861 | 12.08423 | 58° | 77km/h | 15951m | 4.2m/s | -55.2°C | 4.9% | 110.7hPa | 2.7V | 00:00:00 | 01:03:18 | 00:00:00 | |
| DF7PN | 2026-08-31 17:09:33 | 48.14830 | 12.08351 | 54° | 75km/h | 15938m | 4.0m/s | -55.2°C | 2.0% | 111.0hPa | 2.7V | 00:00:00 | 00:00:00 | 00:00:00 | |
| DK5PH-5 | 2026-08-31 17:09:32 | 48.14830 | 12.08351 | 55° | 80km/h | 15939m | 3.9m/s | -55.1°C | 4.8% | 111.0hPa | 2.7V | 02:24:00 | 01:03:15 | 00:00:00 | |
| BAUMI2-15 | 2026-08-31 17:09:30 | 48.14807 | 12.08302 | 57° | 80km/h | 15929m | 4.8m/s | -55.0°C | 4.8% | 111.1hPa | 2.6V | 00:00:00 | 01:03:13 | 00:00:00 | |
| NBG1-10 | 2026-08-31 17:09:28 | 48.14786 | 12.08250 | 59° | 80km/h | 15921m | 4.8m/s | -55.0°C | 4.9% | 111.2hPa | 2.6V | 00:00:00 | 01:03:11 | 00:00:00 | |
| OE5WHR-10 | 2026-08-31 17:09:27 | 48.14775 | 12.08224 | 60° | 80km/h | 15916m | 4.5m/s | -55.0°C | 4.8% | 111.4hPa | 2.6V | 00:00:00 | 01:03:10 | 00:00:00 | |
| DO3MHA-12 | 2026-08-31 17:09:26 | 48.14765 | 12.08198 | 60° | 78km/h | 15912m | 4.4m/s | -55.0°C | 4.9% | 111.4hPa | 2.6V | 02:25:00 | 01:03:09 | 00:00:00 | |
| BAUMI2-15 | 2026-08-31 17:09:25 | 48.14755 | 12.08172 | 61° | 78km/h | 15907m | 4.8m/s | -55.0°C | 4.8% | 111.5hPa | 2.6V | 02:25:00 | 01:03:08 | 00:00:00 | |
| DG1MFX-10 | 2026-08-31 17:09:24 | 48.14755 | 12.08172 | 61° | 80km/h | 15907m | 4.9m/s | -55.1°C | 2.0% | 111.6hPa | 2.7V | 02:25:00 | 00:00:00 | 00:00:00 | |
| OE5MMP-10 | 2026-08-31 17:09:23 | 48.14734 | 12.08120 | 59° | 78km/h | 15898m | 5.2m/s | -55.0°C | 4.7% | 111.7hPa | 2.7V | 00:00:00 | 01:03:06 | 00:00:00 | |
| OE5DRO-10 | 2026-08-31 17:09:22 | 48.14724 | 12.08095 | 59° | 80km/h | 15893m | 4.1m/s | -55.0°C | 4.6% | 111.8hPa | 2.7V | 00:00:00 | 00:00:00 | 00:00:00 | |
| BAUMI2-15 | 2026-08-31 17:09:20 | 48.14704 | 12.08045 | 59° | 77km/h | 15883m | 3.9m/s | -55.0°C | 4.7% | 111.9hPa | 2.7V | 00:00:00 | 01:03:03 | 00:00:00 | |
| DO3MHA-11 | 2026-08-31 17:09:17 | 48.14674 | 12.07972 | 59° | 84km/h | 15870m | 4.3m/s | -55.2°C | 4.8% | 112.2hPa | 2.7V | 02:25:00 | 01:03:00 | 00:00:00 | |
| DO3MHA-12 | 2026-08-31 17:09:16 | 48.14664 | 12.07947 | 60° | 84km/h | 15865m | 4.4m/s | -55.2°C | 4.8% | 112.3hPa | 2.7V | 00:00:00 | 01:02:59 | 00:00:00 | |
| OE5MMP-10 | 2026-08-31 17:09:13 | 48.14632 | 12.07868 | 59° | 84km/h | 15853m | 4.3m/s | -55.2°C | 4.8% | 112.5hPa | 2.7V | 00:00:00 | 01:02:56 | 00:00:00 | |
| DB0UT-7 | 2026-08-31 17:09:12 | 48.14621 | 12.07842 | 58° | 78km/h | 15849m | 3.7m/s | -55.3°C | 4.8% | 112.6hPa | 2.7V | 00:00:00 | 01:02:55 | 00:00:00 | |
| S52SK | 2026-08-31 17:09:11 | 48.14621 | 12.07842 | 59° | 84km/h | 15849m | 3.8m/s | -55.3°C | 1.9% | 112.6hPa | 2.7V | 00:00:00 | 00:00:00 | 00:00:00 | |
| DO3MHA-11 | 2026-08-31 17:09:07 | 48.14563 | 12.07704 | 59° | 78km/h | 15826m | 4.7m/s | -55.2°C | 4.8% | 112.9hPa | 2.7V | 00:00:00 | 01:02:50 | 00:00:00 | |
| DO3MHA-12 | 2026-08-31 17:09:06 | 48.14552 | 12.07677 | 60° | 78km/h | 15822m | 4.5m/s | -55.2°C | 4.8% | 113.0hPa | 2.7V | 00:00:00 | 01:02:49 | 00:00:00 | |
| DG1MFX-10 | 2026-08-31 17:09:04 | 48.14542 | 12.07651 | 60° | 80km/h | 15817m | 3.8m/s | -55.2°C | 2.0% | 113.2hPa | 2.7V | 02:26:00 | 00:00:00 | 00:00:00 | |
| OE5MMP-10 | 2026-08-31 17:09:03 | 48.14521 | 12.07601 | 58° | 78km/h | 15808m | 3.8m/s | -55.1°C | 4.8% | 113.3hPa | 2.7V | 02:25:00 | 01:02:46 | 00:00:00 | |
| DF7PN | 2026-08-31 17:09:02 | 48.14501 | 12.07552 | 58° | 77km/h | 15800m | 4.6m/s | -55.1°C | 2.0% | 113.5hPa | 2.6V | 00:00:00 | 00:00:00 | 00:00:00 | |
| OE5DXL-15 | 2026-08-31 17:09:00 | 48.14490 | 12.07527 | 59° | 77km/h | 15796m | 3.5m/s | -55.1°C | 4.9% | 113.5hPa | 2.6V | 00:00:00 | 00:00:00 | 00:00:00 | |
| DO3MHA-11 | 2026-08-31 17:08:57 | 48.14461 | 12.07452 | 61° | 77km/h | 15783m | 4.2m/s | -54.9°C | 4.8% | 113.7hPa | 2.6V | 00:00:00 | 01:02:40 | 00:00:00 | |
| DO3MHA-12 | 2026-08-31 17:08:56 | 48.14451 | 12.07426 | 60° | 77km/h | 15779m | 4.5m/s | -54.9°C | 4.8% | 113.8hPa | 2.6V | 02:25:00 | 01:02:39 | 00:00:00 | |
| NBG1-10 | 2026-08-31 17:08:55 | 48.14440 | 12.07400 | 59° | 77km/h | 15774m | 5.0m/s | -54.9°C | 4.8% | 113.9hPa | 2.6V | 02:25:00 | 01:02:38 | 00:00:00 | |
| DK5PH-5 | 2026-08-31 17:08:54 | 48.14429 | 12.07375 | 57° | 77km/h | 15769m | 4.6m/s | -54.9°C | 4.8% | 114.0hPa | 2.6V | 00:00:00 | 01:02:37 | 00:00:00 | |
| OE5MMP-10 | 2026-08-31 17:08:53 | 48.14418 | 12.07350 | 55° | 75km/h | 15765m | 4.3m/s | -54.9°C | 4.8% | 114.0hPa | 2.6V | 00:00:00 | 01:02:36 | 00:00:00 | |
| S52SK | 2026-08-31 17:08:51 | 48.14406 | 12.07325 | 56° | 77km/h | 15760m | 4.4m/s | -55.0°C | 1.9% | 114.2hPa | 2.6V | 02:26:00 | 00:00:00 | 00:00:00 | |
| DO3MHA-11 | 2026-08-31 17:08:47 | 48.14353 | 12.07213 | 58° | 77km/h | 15739m | 5.2m/s | -54.9°C | 4.9% | 114.5hPa | 2.6V | 02:25:00 | 01:02:30 | 00:00:00 | |
| DO3MHA-12 | 2026-08-31 17:08:46 | 48.14344 | 12.07190 | 59° | 78km/h | 15734m | 3.4m/s | -54.8°C | 4.8% | 114.6hPa | 2.7V | 00:00:00 | 01:02:29 | 00:00:00 | |
| OE5WHR-10 | 2026-08-31 17:08:45 | 48.14334 | 12.07166 | 59° | 77km/h | 15730m | 4.0m/s | -54.8°C | 4.9% | 114.6hPa | 2.7V | 00:00:00 | 00:00:00 | 00:00:00 | |
| OE5DRO-10 | 2026-08-31 17:08:44 | 48.14324 | 12.07142 | 57° | 77km/h | 15726m | 4.8m/s | -54.7°C | 4.8% | 114.7hPa | 2.7V | 02:25:00 | 00:00:00 | 00:00:00 | |
| OE5MMP-10 | 2026-08-31 17:08:43 | 48.14313 | 12.07117 | 56° | 77km/h | 15722m | 3.9m/s | -54.7°C | 4.8% | 114.8hPa | 2.6V | 00:00:00 | 01:02:26 | 00:00:00 | |
| DB0UT-7 | 2026-08-31 17:08:42 | 48.14301 | 12.07092 | 57° | 75km/h | 15717m | 5.1m/s | -54.7°C | 4.8% | 114.9hPa | 2.6V | 02:25:00 | 00:00:00 | 00:00:00 | |
| DO3MHA-11 | 2026-08-31 17:08:37 | 48.14243 | 12.06970 | 54° | 75km/h | 15696m | 5.0m/s | -54.5°C | 4.7% | 115.3hPa | 2.6V | 00:00:00 | 01:02:20 | 00:00:00 | |
| DO3MHA-12 | 2026-08-31 17:08:36 | 48.14233 | 12.06948 | 55° | 75km/h | 15691m | 4.1m/s | -54.5°C | 4.7% | 115.4hPa | 2.6V | 00:00:00 | 01:02:19 | 00:00:00 | |
| S52SK | 2026-08-31 17:08:34 | 48.14223 | 12.06926 | 56° | 71km/h | 15687m | 4.9m/s | -54.5°C | 1.9% | 115.5hPa | 2.6V | 02:26:00 | 00:00:00 | 00:00:00 | |
| OE5MMP-10 | 2026-08-31 17:08:33 | 48.14202 | 12.06882 | 57° | 77km/h | 15678m | 4.0m/s | -54.5°C | 4.6% | 115.6hPa | 2.6V | 02:25:00 | 01:02:16 | 00:00:00 | |
| DF7PN | 2026-08-31 17:08:31 | 48.14171 | 12.06811 | 56° | 77km/h | 15665m | 5.2m/s | -54.5°C | 1.9% | 115.9hPa | 2.7V | 00:00:00 | 00:00:00 | 00:00:00 | |
| OE5DXL-15 | 2026-08-31 17:08:30 | 48.14171 | 12.06810 | 57° | 75km/h | 15665m | 5.2m/s | -54.5°C | 4.6% | 115.9hPa | 2.7V | 02:26:00 | 00:00:00 | 00:00:00 | |
| S52SK | 2026-08-31 17:08:28 | 48.14160 | 12.06786 | 55° | 80km/h | 15661m | 3.3m/s | -54.5°C | 1.9% | 116.0hPa | 2.7V | 02:26:00 | 00:00:00 | 00:00:00 | |
| DO3MHA-11 | 2026-08-31 17:08:27 | 48.14135 | 12.06738 | 53° | 73km/h | 15653m | 4.6m/s | -54.4°C | 4.6% | 116.0hPa | 2.7V | 00:00:00 | 01:02:10 | 00:00:00 | |
| DO3MHA-12 | 2026-08-31 17:08:26 | 48.14123 | 12.06714 | 52° | 73km/h | 15648m | 4.1m/s | -54.4°C | 4.6% | 116.1hPa | 2.7V | 02:26:00 | 01:02:09 | 00:00:00 | |
| OE5DRO-10 | 2026-08-31 17:08:25 | 48.14111 | 12.06692 | 51° | 73km/h | 15644m | 5.1m/s | -54.3°C | 4.6% | 116.2hPa | 2.6V | 00:00:00 | 00:00:00 | 00:00:00 | |
| OE5WHR-10 | 2026-08-31 17:08:24 | 48.14098 | 12.06669 | 51° | 73km/h | 15640m | 3.0m/s | -54.3°C | 4.6% | 116.3hPa | 2.6V | 00:00:00 | 01:02:07 | 00:00:00 | |
| OE5MMP-10 | 2026-08-31 17:08:23 | 48.14086 | 12.06647 | 52° | 73km/h | 15636m | 4.2m/s | -54.2°C | 4.6% | 116.4hPa | 2.6V | 00:00:00 | 01:02:06 | 00:00:00 | |
| NBG1-10 | 2026-08-31 17:08:22 | 48.14075 | 12.06626 | 54° | 75km/h | 15632m | 4.4m/s | -54.2°C | 4.6% | 116.5hPa | 2.6V | 00:00:00 | 01:02:05 | 00:00:00 | |
| S52SK | 2026-08-31 17:08:20 | 48.14066 | 12.06605 | 56° | 68km/h | 15628m | 2.9m/s | -54.2°C | 1.9% | 116.6hPa | 2.6V | 02:26:00 | 00:00:00 | 00:00:00 | |
| DO3MHA-11 | 2026-08-31 17:08:17 | 48.14025 | 12.06516 | 58° | 75km/h | 15611m | 5.2m/s | -54.2°C | 4.6% | 116.8hPa | 2.6V | 02:26:00 | 01:02:00 | 00:00:00 | |
| DO3MHA-12 | 2026-08-31 17:08:16 | 48.14015 | 12.06492 | 57° | 75km/h | 15606m | 3.9m/s | -54.3°C | 4.6% | 116.9hPa | 2.6V | 00:00:00 | 01:01:59 | 00:00:00 | |
| S52SK | 2026-08-31 17:08:14 | 48.14005 | 12.06468 | 57° | 78km/h | 15602m | 5.4m/s | -54.4°C | 1.9% | 117.0hPa | 2.6V | 00:00:00 | 00:00:00 | 00:00:00 | |
| OE5MMP-10 | 2026-08-31 17:08:13 | 48.13981 | 12.06419 | 55° | 73km/h | 15594m | 3.9m/s | -54.3°C | 4.4% | 117.1hPa | 2.6V | 00:00:00 | 01:01:56 | 00:00:00 | |
| DB0UT-7 | 2026-08-31 17:08:12 | 48.13970 | 12.06396 | 55° | 75km/h | 15590m | 4.3m/s | -54.3°C | 4.4% | 117.2hPa | 2.6V | 00:00:00 | 01:01:55 | 00:00:00 | |
| DL6DJ-15 | 2026-08-31 17:08:11 | 48.13948 | 12.06350 | 54° | 71km/h | 15582m | 4.0m/s | -54.4°C | 1.8% | 117.4hPa | 2.6V | 00:00:00 | 00:00:00 | 00:00:00 | |
| DO3MHA-11 | 2026-08-31 17:08:07 | 48.13916 | 12.06284 | 55° | 75km/h | 15569m | 5.3m/s | -54.2°C | 4.4% | 117.6hPa | 2.6V | 00:00:00 | 01:01:50 | 00:00:00 | |
| OE5DRO-10 | 2026-08-31 17:08:06 | 48.13906 | 12.06262 | 56° | 75km/h | 15565m | 3.6m/s | -54.2°C | 4.4% | 117.7hPa | 2.6V | 00:00:00 | 00:00:00 | 00:00:00 | |
| OE5MMP-10 | 2026-08-31 17:08:03 | 48.13876 | 12.06195 | 58° | 77km/h | 15553m | 3.5m/s | -54.3°C | 4.5% | 117.9hPa | 2.6V | 02:26:00 | 01:01:46 | 00:00:00 | |
| DG1MFX-10 | 2026-08-31 17:08:02 | 48.13875 | 12.06195 | 59° | 73km/h | 15553m | 3.6m/s | -54.3°C | 1.9% | 117.9hPa | 2.7V | 02:27:00 | 00:00:00 | 00:00:00 | |
| DF7PN | 2026-08-31 17:07:59 | 48.13838 | 12.06094 | 61° | 80km/h | 15536m | 4.6m/s | -55.2°C | 1.9% | 118.3hPa | 2.7V | 00:00:00 | 00:00:00 | 00:00:00 | |
| DO3MHA-11 | 2026-08-31 17:07:57 | 48.13818 | 12.06040 | 62° | 75km/h | 15528m | 4.8m/s | -55.2°C | 4.7% | 118.3hPa | 2.7V | 00:00:00 | 01:01:40 | 00:00:00 | |
| DO3MHA-12 | 2026-08-31 17:07:56 | 48.13809 | 12.06014 | 61° | 75km/h | 15524m | 4.0m/s | -55.3°C | 4.7% | 118.4hPa | 2.7V | 02:26:00 | 01:01:39 | 00:00:00 | |
| DK5PH-5 | 2026-08-31 17:07:54 | 48.13789 | 12.05965 | 56° | 77km/h | 15515m | 4.4m/s | -55.5°C | 4.7% | 118.5hPa | 2.7V | 02:26:00 | 01:01:37 | 00:00:00 | |
| OE5MMP-10 | 2026-08-31 17:07:53 | 48.13778 | 12.05942 | 55° | 77km/h | 15512m | 2.7m/s | -55.4°C | 4.7% | 118.6hPa | 2.6V | 00:00:00 | 01:01:36 | 00:00:00 | |
| DG1MJG | 2026-08-31 17:07:51 | 48.13768 | 12.05920 | 56° | 73km/h | 15509m | 4.0m/s | -55.5°C | 1.9% | 118.7hPa | 2.6V | 02:27:00 | 00:00:00 | 00:00:00 | |
| DM7RM-13 | 2026-08-31 17:07:50 | 48.13758 | 12.05897 | 59° | 73km/h | 15504m | 4.1m/s | -55.4°C | 1.9% | 118.8hPa | 2.6V | 00:00:00 | 00:00:00 | 00:00:00 | |
| NBG1-10 | 2026-08-31 17:07:49 | 48.13739 | 12.05848 | 63° | 77km/h | 15495m | 5.0m/s | -55.3°C | 4.7% | 119.0hPa | 2.6V | 00:00:00 | 01:01:32 | 00:00:00 | |
| DN1GJH-1 | 2026-08-31 17:07:48 | 48.13739 | 12.05848 | 64° | 77km/h | 15495m | 5.1m/s | -55.4°C | 1.9% | 119.0hPa | 2.6V | 02:27:00 | 00:00:00 | 00:00:00 | |
| DO3MHA-11 | 2026-08-31 17:07:47 | 48.13722 | 12.05794 | 68° | 77km/h | 15487m | 4.9m/s | -55.3°C | 4.7% | 119.1hPa | 2.6V | 02:26:00 | 01:01:30 | 00:00:00 | |
| DO3MHA-12 | 2026-08-31 17:07:46 | 48.13715 | 12.05766 | 71° | 77km/h | 15482m | 4.9m/s | -55.3°C | 4.8% | 119.2hPa | 2.6V | 00:00:00 | 01:01:29 | 00:00:00 | |
| OE5MMP-10 | 2026-08-31 17:07:43 | 48.13696 | 12.05681 | 73° | 75km/h | 15470m | 4.7m/s | -55.2°C | 4.9% | 119.4hPa | 2.6V | 00:00:00 | 01:01:26 | 00:00:00 | |
| DB0UT-7 | 2026-08-31 17:07:42 | 48.13690 | 12.05652 | 71° | 77km/h | 15466m | 3.3m/s | -55.2°C | 4.8% | 119.5hPa | 2.6V | 00:00:00 | 00:00:00 | 00:00:00 | |
| DG1MFX-10 | 2026-08-31 17:07:41 | 48.13690 | 12.05652 | 72° | 78km/h | 15466m | 3.4m/s | -55.3°C | 2.0% | 119.5hPa | 2.6V | 02:27:00 | 00:00:00 | 00:00:00 | |
| S52SK | 2026-08-31 17:07:39 | 48.13677 | 12.05598 | 70° | 73km/h | 15458m | 4.2m/s | -55.2°C | 1.9% | 119.7hPa | 2.6V | 00:00:00 | 00:00:00 | 00:00:00 | |
| DO3MHA-11 | 2026-08-31 17:07:37 | 48.13655 | 12.05522 | 66° | 77km/h | 15446m | 3.6m/s | -55.2°C | 4.6% | 119.9hPa | 2.6V | 00:00:00 | 01:01:20 | 00:00:00 | |
| DO3MHA-12 | 2026-08-31 17:07:36 | 48.13647 | 12.05496 | 66° | 77km/h | 15442m | 3.8m/s | -55.2°C | 4.7% | 119.9hPa | 2.6V | 00:00:00 | 01:01:19 | 00:00:00 | |
| OE5MMP-10 | 2026-08-31 17:07:33 | 48.13625 | 12.05419 | 68° | 78km/h | 15430m | 4.5m/s | -55.2°C | 4.7% | 120.1hPa | 2.6V | 02:26:00 | 01:01:16 | 00:00:00 | |
| OE5DXL-15 | 2026-08-31 17:07:30 | 48.13604 | 12.05337 | 72° | 77km/h | 15419m | 2.6m/s | -55.1°C | 4.6% | 120.4hPa | 2.7V | 00:00:00 | 00:00:00 | 00:00:00 | |
| OE5DRO-10 | 2026-08-31 17:07:28 | 48.13591 | 12.05279 | 72° | 78km/h | 15411m | 4.1m/s | -55.0°C | 4.6% | 120.5hPa | 2.7V | 00:00:00 | 00:00:00 | 00:00:00 | |
| DO3MHA-11 | 2026-08-31 17:07:27 | 48.13585 | 12.05251 | 71° | 77km/h | 15407m | 3.5m/s | -55.0°C | 4.6% | 120.6hPa | 2.7V | 00:00:00 | 01:01:10 | 00:00:00 | |
| DO3MHA-12 | 2026-08-31 17:07:26 | 48.13578 | 12.05222 | 72° | 77km/h | 15404m | 4.3m/s | -55.0°C | 4.7% | 120.6hPa | 2.7V | 02:27:00 | 01:01:09 | 00:00:00 | |
| S52SK | 2026-08-31 17:07:25 | 48.13578 | 12.05222 | 72° | 78km/h | 15404m | 4.4m/s | -55.0°C | 1.9% | 120.7hPa | 2.6V | 00:00:00 | 00:00:00 | 00:00:00 | |
| DK5PH-5 | 2026-08-31 17:07:24 | 48.13565 | 12.05167 | 70° | 75km/h | 15396m | 4.5m/s | -54.9°C | 4.7% | 120.8hPa | 2.6V | 00:00:00 | 01:01:07 | 00:00:00 | |
| OE5MMP-10 | 2026-08-31 17:07:23 | 48.13558 | 12.05140 | 69° | 77km/h | 15392m | 3.5m/s | -54.9°C | 4.6% | 120.9hPa | 2.6V | 00:00:00 | 01:01:06 | 00:00:00 | |
| DG1MJG | 2026-08-31 17:07:22 | 48.13551 | 12.05112 | 69° | 77km/h | 15388m | 3.9m/s | -54.9°C | 1.8% | 121.0hPa | 2.6V | 02:27:00 | 00:00:00 | 00:00:00 | |
| OE5WHR-10 | 2026-08-31 17:07:21 | 48.13543 | 12.05086 | 68° | 75km/h | 15384m | 4.2m/s | -54.8°C | 4.6% | 121.0hPa | 2.6V | 00:00:00 | 01:01:04 | 00:00:00 | |
| DN1GJH-1 | 2026-08-31 17:07:20 | 48.13544 | 12.05086 | 69° | 75km/h | 15384m | 4.3m/s | -54.9°C | 1.9% | 121.1hPa | 2.6V | 00:00:00 | 00:00:00 | 00:00:00 | |
| DO3MHA-11 | 2026-08-31 17:07:17 | 48.13515 | 12.04978 | 70° | 77km/h | 15369m | 3.6m/s | -54.8°C | 4.6% | 121.3hPa | 2.6V | 02:27:00 | 01:01:00 | 00:00:00 | |
| DO3MHA-12 | 2026-08-31 17:07:16 | 48.13508 | 12.04950 | 71° | 77km/h | 15365m | 4.2m/s | -54.8°C | 4.6% | 121.4hPa | 2.7V | 00:00:00 | 01:00:59 | 00:00:00 | |
| OE5MMP-10 | 2026-08-31 17:07:13 | 48.13488 | 12.04867 | 69° | 75km/h | 15354m | 3.9m/s | -54.8°C | 4.5% | 121.6hPa | 2.7V | 00:00:00 | 01:00:56 | 00:00:00 | |
| DB0UT-7 | 2026-08-31 17:07:12 | 48.13480 | 12.04840 | 68° | 71km/h | 15350m | 4.0m/s | -54.8°C | 4.6% | 121.7hPa | 2.7V | 02:27:00 | 01:00:55 | 00:00:00 | |
| S52SK | 2026-08-31 17:07:10 | 48.13473 | 12.04812 | 68° | 77km/h | 15346m | 4.2m/s | -54.8°C | 1.8% | 121.8hPa | 2.6V | 00:00:00 | 00:00:00 | 00:00:00 | |
| OE5DRO-10 | 2026-08-31 17:07:09 | 48.13458 | 12.04760 | 67° | 73km/h | 15338m | 4.8m/s | -54.8°C | 4.6% | 121.9hPa | 2.6V | 00:00:00 | 00:00:00 | 00:00:00 | |
| DM7RM-13 | 2026-08-31 17:07:08 | 48.13458 | 12.04760 | 68° | 77km/h | 15338m | 4.9m/s | -54.8°C | 1.8% | 122.0hPa | 2.6V | 00:00:00 | 00:00:00 | 00:00:00 | |
| DO3MHA-11 | 2026-08-31 17:07:07 | 48.13443 | 12.04708 | 66° | 71km/h | 15330m | 5.0m/s | -54.8°C | 4.5% | 122.1hPa | 2.6V | 00:00:00 | 01:00:50 | 00:00:00 | |
| DO3MHA-12 | 2026-08-31 17:07:06 | 48.13435 | 12.04684 | 66° | 71km/h | 15325m | 3.5m/s | -54.7°C | 4.6% | 122.2hPa | 2.6V | 00:00:00 | 01:00:49 | 00:00:00 | |
| S52SK | 2026-08-31 17:07:04 | 48.13428 | 12.04659 | 66° | 73km/h | 15321m | 5.1m/s | -54.8°C | 1.8% | 122.3hPa | 2.6V | 00:00:00 | 00:00:00 | 00:00:00 | |
| OE5MMP-10 | 2026-08-31 17:07:03 | 48.13412 | 12.04608 | 67° | 71km/h | 15313m | 3.4m/s | -54.7°C | 4.6% | 122.4hPa | 2.6V | 02:27:00 | 01:00:46 | 00:00:00 | |
| BAUMI2-15 | 2026-08-31 17:07:01 | 48.13399 | 12.04558 | 70° | 71km/h | 15305m | 3.7m/s | -54.6°C | 4.6% | 122.6hPa | 2.7V | 02:27:00 | 01:00:44 | 00:00:00 | |
| OE5WHR-10 | 2026-08-31 17:07:00 | 48.13393 | 12.04533 | 72° | 71km/h | 15301m | 4.2m/s | -54.5°C | 4.6% | 122.6hPa | 2.7V | 02:27:00 | 00:00:00 | 00:00:00 | |
| S52SK | 2026-08-31 17:06:59 | 48.13393 | 12.04533 | 72° | 71km/h | 15301m | 4.2m/s | -54.6°C | 1.8% | 122.6hPa | 2.7V | 00:00:00 | 00:00:00 | 00:00:00 | |
| DO3MHA-11 | 2026-08-31 17:06:57 | 48.13378 | 12.04456 | 77° | 71km/h | 15289m | 4.3m/s | -54.4°C | 4.5% | 122.8hPa | 2.7V | 00:00:00 | 01:00:40 | 00:00:00 | |
| DO3MHA-12 | 2026-08-31 17:06:56 | 48.13374 | 12.04430 | 77° | 71km/h | 15285m | 2.9m/s | -54.4°C | 4.5% | 122.9hPa | 2.7V | 02:27:00 | 01:00:39 | 00:00:00 | |
| DK5PH-5 | 2026-08-31 17:06:54 | 48.13364 | 12.04378 | 72° | 68km/h | 15277m | 3.5m/s | -54.3°C | 4.5% | 123.1hPa | 2.6V | 00:00:00 | 01:00:37 | 00:00:00 | |
| OE5MMP-10 | 2026-08-31 17:06:53 | 48.13358 | 12.04352 | 70° | 71km/h | 15274m | 3.4m/s | -54.3°C | 4.5% | 123.1hPa | 2.6V | 00:00:00 | 01:00:36 | 00:00:00 | |
| DG1MJG | 2026-08-31 17:06:51 | 48.13351 | 12.04326 | 69° | 71km/h | 15270m | 4.6m/s | -54.4°C | 1.8% | 123.3hPa | 2.6V | 02:27:00 | 00:00:00 | 00:00:00 | |
| BAUMI2-15 | 2026-08-31 17:06:50 | 48.13338 | 12.04277 | 68° | 69km/h | 15263m | 4.4m/s | -54.2°C | 4.4% | 123.3hPa | 2.6V | 00:00:00 | 01:00:33 | 00:00:00 | |
| DO3MHA-11 | 2026-08-31 17:06:47 | 48.13319 | 12.04201 | 74° | 69km/h | 15250m | 3.3m/s | -54.2°C | 4.4% | 123.6hPa | 2.6V | 02:27:00 | 01:00:30 | 00:00:00 | |
| DO3MHA-12 | 2026-08-31 17:06:46 | 48.13315 | 12.04177 | 76° | 69km/h | 15246m | 4.3m/s | -54.1°C | 4.4% | 123.7hPa | 2.6V | 00:00:00 | 01:00:29 | 00:00:00 | |
| NBG1-10 | 2026-08-31 17:06:43 | 48.13303 | 12.04100 | 78° | 64km/h | 15233m | 4.6m/s | -54.0°C | 4.4% | 124.0hPa | 2.6V | 00:00:00 | 01:00:26 | 00:00:00 | |
| DB0UT-7 | 2026-08-31 17:06:42 | 48.13299 | 12.04075 | 77° | 64km/h | 15230m | 3.2m/s | -54.0°C | 4.4% | 124.0hPa | 2.6V | 00:00:00 | 00:00:00 | 00:00:00 | |
| S52SK | 2026-08-31 17:06:41 | 48.13299 | 12.04075 | 77° | 68km/h | 15230m | 3.2m/s | -54.1°C | 1.7% | 124.1hPa | 2.6V | 00:00:00 | 00:00:00 | 00:00:00 | |
| OE5WHR-10 | 2026-08-31 17:06:39 | 48.13285 | 12.04000 | 73° | 66km/h | 15217m | 4.6m/s | -53.9°C | 4.4% | 124.3hPa | 2.6V | 00:00:00 | 00:00:00 | 00:00:00 | |
| DL6DJ-15 | 2026-08-31 17:06:38 | 48.13274 | 12.03951 | 71° | 68km/h | 15209m | 3.6m/s | -53.9°C | 1.7% | 124.5hPa | 2.6V | 00:00:00 | 00:00:00 | 00:00:00 | |
| DO3MHA-11 | 2026-08-31 17:06:37 | 48.13274 | 12.03951 | 72° | 66km/h | 15209m | 3.5m/s | -53.8°C | 4.3% | 124.4hPa | 2.6V | 00:00:00 | 01:00:20 | 00:00:00 | |
| DO3MHA-12 | 2026-08-31 17:06:36 | 48.13269 | 12.03927 | 73° | 66km/h | 15205m | 4.6m/s | -53.8°C | 4.3% | 124.5hPa | 2.6V | 00:00:00 | 01:00:19 | 00:00:00 | |
| S52SK | 2026-08-31 17:06:35 | 48.13269 | 12.03927 | 73° | 68km/h | 15205m | 4.7m/s | -53.9°C | 1.7% | 124.5hPa | 2.6V | 02:28:00 | 00:00:00 | 00:00:00 | |
| OE5MMP-10 | 2026-08-31 17:06:33 | 48.13254 | 12.03855 | 75° | 64km/h | 15192m | 4.1m/s | -53.8°C | 4.3% | 124.7hPa | 2.6V | 02:27:00 | 01:00:16 | 00:00:00 | |
| OE5DRO-10 | 2026-08-31 17:06:31 | 48.13246 | 12.03809 | 77° | 62km/h | 15184m | 4.8m/s | -53.9°C | 4.3% | 124.8hPa | 2.7V | 00:00:00 | 00:00:00 | 00:00:00 | |
| OE5DXL-15 | 2026-08-31 17:06:30 | 48.13242 | 12.03785 | 77° | 64km/h | 15180m | 3.7m/s | -53.8°C | 4.3% | 125.0hPa | 2.7V | 00:00:00 | 00:00:00 | 00:00:00 | |
| DO3MHA-11 | 2026-08-31 17:06:27 | 48.13230 | 12.03714 | 76° | 64km/h | 15167m | 4.2m/s | -54.0°C | 4.3% | 125.2hPa | 2.7V | 00:00:00 | 01:00:10 | 00:00:00 | |
| DO3MHA-12 | 2026-08-31 17:06:26 | 48.13227 | 12.03691 | 77° | 64km/h | 15163m | 3.9m/s | -54.0°C | 4.3% | 125.3hPa | 2.7V | 02:28:00 | 01:00:09 | 00:00:00 | |
| DK5PH-5 | 2026-08-31 17:06:24 | 48.13219 | 12.03644 | 75° | 64km/h | 15155m | 3.4m/s | -54.1°C | 4.4% | 125.5hPa | 2.7V | 02:28:00 | 01:00:07 | 00:00:00 | |
| OE5MMP-10 | 2026-08-31 17:06:23 | 48.13214 | 12.03620 | 74° | 62km/h | 15150m | 5.2m/s | -54.1°C | 4.5% | 125.5hPa | 2.6V | 00:00:00 | 01:00:06 | 00:00:00 | |
| DG1MJG | 2026-08-31 17:06:20 | 48.13204 | 12.03574 | 72° | 66km/h | 15141m | 5.0m/s | -54.1°C | 1.8% | 125.7hPa | 2.6V | 02:28:00 | 00:00:00 | 00:00:00 | |
| DG1MFX-10 | 2026-08-31 17:06:19 | 48.13199 | 12.03551 | 72° | 64km/h | 15137m | 3.9m/s | -54.1°C | 1.8% | 125.8hPa | 2.6V | 02:28:00 | 00:00:00 | 00:00:00 | |
| S52SK | 2026-08-31 17:06:18 | 48.13193 | 12.03528 | 72° | 62km/h | 15133m | 4.8m/s | -54.1°C | 1.8% | 125.9hPa | 2.6V | 02:28:00 | 00:00:00 | 00:00:00 | |
| DO3MHA-11 | 2026-08-31 17:06:17 | 48.13184 | 12.03484 | 74° | 62km/h | 15124m | 4.1m/s | -54.0°C | 4.5% | 126.0hPa | 2.6V | 02:28:00 | 01:00:00 | 00:00:00 | |
| DO3MHA-12 | 2026-08-31 17:06:16 | 48.13180 | 12.03462 | 77° | 62km/h | 15120m | 4.7m/s | -54.0°C | 4.4% | 126.2hPa | 2.6V | 00:00:00 | 00:59:59 | 00:00:00 | |
| BAUMI2-15 | 2026-08-31 17:06:15 | 48.13177 | 12.03440 | 78° | 60km/h | 15115m | 3.9m/s | -54.0°C | 4.4% | 126.2hPa | 2.6V | 00:00:00 | 00:59:58 | 00:00:00 | |
| OE5MMP-10 | 2026-08-31 17:06:13 | 48.13171 | 12.03396 | 80° | 64km/h | 15106m | 3.7m/s | -53.9°C | 4.4% | 126.4hPa | 2.6V | 00:00:00 | 00:59:56 | 00:00:00 | |
| DB0UT-7 | 2026-08-31 17:06:12 | 48.13168 | 12.03374 | 80° | 68km/h | 15102m | 5.1m/s | -53.9°C | 4.4% | 126.5hPa | 2.6V | 00:00:00 | 00:59:55 | 00:00:00 | |
| NBG1-10 | 2026-08-31 17:06:10 | 48.13162 | 12.03328 | 77° | 68km/h | 15093m | 4.5m/s | -53.8°C | 4.4% | 126.6hPa | 2.6V | 00:00:00 | 00:59:53 | 00:00:00 | |
| DO3MHA-11 | 2026-08-31 17:06:07 | 48.13150 | 12.03258 | 76° | 68km/h | 15080m | 4.4m/s | -53.7°C | 4.3% | 126.9hPa | 2.6V | 00:00:00 | 00:59:50 | 00:00:00 | |
| DO3MHA-12 | 2026-08-31 17:06:06 | 48.13146 | 12.03233 | 76° | 69km/h | 15075m | 4.2m/s | -53.7°C | 4.2% | 127.0hPa | 2.6V | 00:00:00 | 00:59:49 | 00:00:00 | |
| DM7RM-13 | 2026-08-31 17:06:05 | 48.13146 | 12.03233 | 77° | 68km/h | 15075m | 4.3m/s | -53.7°C | 1.7% | 127.0hPa | 2.6V | 00:00:00 | 00:00:00 | 00:00:00 | |
| OE5MMP-10 | 2026-08-31 17:06:03 | 48.13134 | 12.03161 | 77° | 68km/h | 15063m | 4.3m/s | -53.6°C | 4.2% | 127.2hPa | 2.6V | 02:28:00 | 00:59:46 | 00:00:00 | |
| DB0ND-19 | 2026-08-31 17:06:01 | 48.13109 | 12.03035 | 71° | 71km/h | 15041m | 4.6m/s | -53.6°C | -1.0% | 127.8hPa | 2.6V | 00:00:00 | 00:00:00 | 00:00:00 | |
| DF7PN | 2026-08-31 17:05:55 | 48.13092 | 12.02961 | 72° | 64km/h | 15028m | 3.8m/s | -53.6°C | 1.7% | 128.0hPa | 2.6V | 00:00:00 | 00:00:00 | 00:00:00 | |
| OE5MMP-10 | 2026-08-31 17:05:53 | 48.13083 | 12.02915 | 76° | 68km/h | 15021m | 4.7m/s | -53.6°C | 4.4% | 128.1hPa | 2.6V | 00:00:00 | 00:59:36 | 00:00:00 | |
| DG1MJG | 2026-08-31 17:05:50 | 48.13075 | 12.02867 | 77° | 66km/h | 15012m | 4.2m/s | -53.7°C | 1.8% | 128.3hPa | 2.6V | 02:28:00 | 00:00:00 | 00:00:00 | |
| DO3MHA-11 | 2026-08-31 17:05:47 | 48.13058 | 12.02771 | 76° | 69km/h | 14995m | 4.8m/s | -53.6°C | 4.4% | 128.6hPa | 2.6V | 02:28:00 | 00:59:30 | 00:00:00 | |
| DO3MHA-12 | 2026-08-31 17:05:46 | 48.13053 | 12.02745 | 75° | 69km/h | 14991m | 2.8m/s | -53.5°C | 4.3% | 128.7hPa | 2.7V | 00:00:00 | 00:59:29 | 00:00:00 | |
| S52SK | 2026-08-31 17:05:45 | 48.13053 | 12.02745 | 75° | 69km/h | 14991m | 2.9m/s | -53.6°C | 1.7% | 128.7hPa | 2.7V | 02:29:00 | 00:00:00 | 00:00:00 | |
| DM7RM-13 | 2026-08-31 17:05:44 | 48.13049 | 12.02720 | 74° | 71km/h | 14987m | 4.6m/s | -53.6°C | 1.8% | 128.8hPa | 2.7V | 00:00:00 | 00:00:00 | 00:00:00 | |
| OE5MMP-10 | 2026-08-31 17:05:43 | 48.13037 | 12.02670 | 69° | 68km/h | 14978m | 4.1m/s | -53.4°C | 4.3% | 128.9hPa | 2.7V | 00:00:00 | 00:59:26 | 00:00:00 | |
| S52SK | 2026-08-31 17:05:39 | 48.13018 | 12.02597 | 69° | 69km/h | 14965m | 5.2m/s | -53.4°C | 1.7% | 129.2hPa | 2.7V | 02:29:00 | 00:00:00 | 00:00:00 | |
| DB0UT-7 | 2026-08-31 17:05:38 | 48.13005 | 12.02549 | 69° | 68km/h | 14956m | 4.8m/s | -53.3°C | 4.2% | 129.4hPa | 2.7V | 02:28:00 | 00:00:00 | 00:00:00 | |
| DO3MHA-11 | 2026-08-31 17:05:37 | 48.12999 | 12.02525 | 71° | 68km/h | 14951m | 4.5m/s | -53.2°C | 4.3% | 129.4hPa | 2.6V | 00:00:00 | 00:59:20 | 00:00:00 | |
| DO3MHA-12 | 2026-08-31 17:05:36 | 48.12993 | 12.02501 | 71° | 68km/h | 14946m | 4.3m/s | -53.2°C | 4.2% | 129.6hPa | 2.6V | 00:00:00 | 00:59:19 | 00:00:00 | |
| DL6DJ-15 | 2026-08-31 17:05:35 | 48.12988 | 12.02478 | 69° | 66km/h | 14942m | 4.8m/s | -53.2°C | 1.7% | 129.7hPa | 2.6V | 00:00:00 | 00:00:00 | 00:00:00 | |
| OE5DRO-10 | 2026-08-31 17:05:34 | 48.12982 | 12.02454 | 71° | 68km/h | 14938m | 3.8m/s | -53.1°C | 4.2% | 129.7hPa | 2.6V | 00:00:00 | 00:00:00 | 00:00:00 | |
| OE5MMP-10 | 2026-08-31 17:05:33 | 48.12977 | 12.02431 | 73° | 69km/h | 14933m | 5.2m/s | -53.1°C | 4.2% | 129.9hPa | 2.6V | 02:28:00 | 00:59:16 | 00:00:00 | |
| OE5DXL-15 | 2026-08-31 17:05:30 | 48.12960 | 12.02358 | 70° | 68km/h | 14919m | 3.9m/s | -53.1°C | 4.2% | 130.1hPa | 2.7V | 02:29:00 | 00:00:00 | 00:00:00 | |
| S52SK | 2026-08-31 17:05:28 | 48.12954 | 12.02334 | 70° | 68km/h | 14915m | 4.3m/s | -53.1°C | 1.7% | 130.2hPa | 2.7V | 02:29:00 | 00:00:00 | 00:00:00 | |
| DO3MHA-11 | 2026-08-31 17:05:27 | 48.12942 | 12.02286 | 71° | 68km/h | 14906m | 3.3m/s | -53.2°C | 4.3% | 130.4hPa | 2.7V | 00:00:00 | 00:59:10 | 00:00:00 | |
| DO3MHA-12 | 2026-08-31 17:05:26 | 48.12936 | 12.02261 | 69° | 66km/h | 14902m | 5.2m/s | -53.2°C | 4.3% | 130.5hPa | 2.7V | 02:29:00 | 00:59:09 | 00:00:00 | |
| DK5PH-5 | 2026-08-31 17:05:24 | 48.12923 | 12.02211 | 70° | 68km/h | 14894m | 3.3m/s | -53.1°C | 4.3% | 130.6hPa | 2.6V | 00:00:00 | 00:59:07 | 00:00:00 | |
| DB0NH | 2026-08-31 17:05:23 | 48.12918 | 12.02187 | 72° | 69km/h | 14889m | 5.2m/s | -53.1°C | 4.3% | 130.7hPa | 2.6V | 02:29:00 | 00:59:06 | 00:00:00 | |
| DN1GJH-1 | 2026-08-31 17:05:21 | 48.12912 | 12.02163 | 74° | 66km/h | 14885m | 3.9m/s | -53.1°C | 1.7% | 130.9hPa | 2.6V | 02:29:00 | 00:00:00 | 00:00:00 | |
| DG1MJG | 2026-08-31 17:05:19 | 48.12902 | 12.02117 | 72° | 64km/h | 14876m | 4.9m/s | -53.1°C | 1.7% | 131.0hPa | 2.6V | 02:29:00 | 00:00:00 | 00:00:00 | |
| DO3MHA-11 | 2026-08-31 17:05:17 | 48.12886 | 12.02048 | 73° | 68km/h | 14861m | 4.2m/s | -52.9°C | 4.2% | 131.3hPa | 2.6V | 02:29:00 | 00:59:00 | 00:00:00 | |
| DO3MHA-12 | 2026-08-31 17:05:16 | 48.12882 | 12.02025 | 73° | 69km/h | 14857m | 5.1m/s | -52.9°C | 4.3% | 131.3hPa | 2.6V | 00:00:00 | 00:58:59 | 00:00:00 | |
| OE5WHR-10 | 2026-08-31 17:05:15 | 48.12876 | 12.02001 | 72° | 69km/h | 14852m | 4.4m/s | -52.9°C | 4.2% | 131.5hPa | 2.6V | 00:00:00 | 00:58:58 | 00:00:00 | |
| OE5MMP-10 | 2026-08-31 17:05:13 | 48.12866 | 12.01952 | 74° | 68km/h | 14842m | 4.3m/s | -52.8°C | 4.2% | 131.7hPa | 2.6V | 00:00:00 | 00:58:56 | 00:00:00 | |
| S52SK | 2026-08-31 17:05:10 | 48.12856 | 12.01901 | 73° | 71km/h | 14833m | 4.5m/s | -52.8°C | 1.7% | 131.9hPa | 2.6V | 02:29:00 | 00:00:00 | 00:00:00 | |
| DB0UT-7 | 2026-08-31 17:05:08 | 48.12840 | 12.01826 | 75° | 71km/h | 14820m | 4.5m/s | -52.8°C | 4.2% | 132.1hPa | 2.6V | 00:00:00 | 00:58:51 | 00:00:00 | |
| DO3MHA-11 | 2026-08-31 17:05:07 | 48.12835 | 12.01802 | 75° | 68km/h | 14815m | 4.3m/s | -52.8°C | 4.2% | 132.2hPa | 2.6V | 00:00:00 | 00:58:50 | 00:00:00 | |
| DO3MHA-12 | 2026-08-31 17:05:06 | 48.12830 | 12.01777 | 73° | 68km/h | 14811m | 5.5m/s | -52.8°C | 4.2% | 132.3hPa | 2.6V | 00:00:00 | 00:58:49 | 00:00:00 | |
| S52SK | 2026-08-31 17:05:05 | 48.12830 | 12.01777 | 73° | 68km/h | 14811m | 5.6m/s | -52.9°C | 1.7% | 132.4hPa | 2.6V | 02:29:00 | 00:00:00 | 00:00:00 | |
| NBG1-10 | 2026-08-31 17:05:04 | 48.12819 | 12.01729 | 72° | 73km/h | 14802m | 4.3m/s | -52.7°C | 4.2% | 132.5hPa | 2.6V | 00:00:00 | 00:58:47 | 00:00:00 | |
| OE5MMP-10 | 2026-08-31 17:05:03 | 48.12814 | 12.01706 | 74° | 69km/h | 14797m | 5.0m/s | -52.7°C | 4.2% | 132.6hPa | 2.6V | 02:29:00 | 00:58:46 | 00:00:00 | |
| DB0ND-19 | 2026-08-31 17:04:59 | 48.12773 | 12.01477 | 75° | 73km/h | 14754m | 4.8m/s | 0°C | -1.0% | 133.5hPa | 2.7V | 00:00:00 | 00:00:00 | 00:00:00 | |
| DO3MHA-11 | 2026-08-31 17:04:57 | 48.12787 | 12.01558 | 77° | 71km/h | 14768m | 4.6m/s | -52.6°C | 4.1% | 133.2hPa | 2.7V | 00:00:00 | 00:58:40 | 00:00:00 | |
| DO3MHA-12 | 2026-08-31 17:04:56 | 48.12783 | 12.01531 | 76° | 71km/h | 14764m | 5.4m/s | -52.6°C | 4.2% | 133.3hPa | 2.7V | 02:29:00 | 00:58:39 | 00:00:00 | |
| DK5PH-5 | 2026-08-31 17:04:54 | 48.12773 | 12.01477 | 76° | 77km/h | 14754m | 4.8m/s | -52.6°C | 4.2% | 133.5hPa | 2.7V | 02:29:00 | 00:58:37 | 00:00:00 | |
| OE5MMP-10 | 2026-08-31 17:04:53 | 48.12768 | 12.01450 | 77° | 71km/h | 14749m | 5.3m/s | -52.6°C | 4.1% | 133.6hPa | 2.6V | 00:00:00 | 00:58:36 | 00:00:00 | |
| DB0NH | 2026-08-31 17:04:51 | 48.12760 | 12.01397 | 76° | 77km/h | 14739m | 5.2m/s | -52.6°C | 4.2% | 133.7hPa | 2.6V | 00:00:00 | 00:58:34 | 00:00:00 | |
| DO3MHA-11 | 2026-08-31 17:04:47 | 48.12743 | 12.01294 | 78° | 75km/h | 14720m | 4.0m/s | -52.6°C | 4.3% | 134.2hPa | 2.6V | 02:29:00 | 00:58:30 | 00:00:00 | |
| DO3MHA-12 | 2026-08-31 17:04:46 | 48.12740 | 12.01268 | 77° | 77km/h | 14715m | 5.2m/s | -52.5°C | 4.3% | 134.3hPa | 2.6V | 00:00:00 | 00:58:29 | 00:00:00 | |
| S52SK | 2026-08-31 17:04:45 | 48.12740 | 12.01268 | 77° | 71km/h | 14715m | 5.3m/s | -52.6°C | 1.8% | 134.3hPa | 2.6V | 02:30:00 | 00:00:00 | 00:00:00 | |
| OE5MMP-10 | 2026-08-31 17:04:43 | 48.12726 | 12.01187 | 78° | 78km/h | 14701m | 5.5m/s | -52.5°C | 4.2% | 134.6hPa | 2.6V | 00:00:00 | 00:58:26 | 00:00:00 | |
| DM7RM-13 | 2026-08-31 17:04:39 | 48.12716 | 12.01102 | 81° | 78km/h | 14686m | 5.6m/s | -52.4°C | 1.7% | 134.9hPa | 2.6V | 02:30:00 | 00:00:00 | 00:00:00 | |
| DB0UT-7 | 2026-08-31 17:04:38 | 48.12709 | 12.01043 | 82° | 80km/h | 14676m | 5.5m/s | -52.4°C | 4.2% | 135.1hPa | 2.6V | 00:00:00 | 00:00:00 | 00:00:00 | |
| DO3MHA-11 | 2026-08-31 17:04:37 | 48.12706 | 12.01013 | 82° | 80km/h | 14671m | 4.6m/s | -52.3°C | 4.1% | 135.2hPa | 2.6V | 00:00:00 | 00:58:20 | 00:00:00 | |
| DO3MHA-12 | 2026-08-31 17:04:36 | 48.12703 | 12.00983 | 81° | 80km/h | 14666m | 6.0m/s | -52.3°C | 4.2% | 135.3hPa | 2.6V | 00:00:00 | 00:58:19 | 00:00:00 | |
| OE5MMP-10 | 2026-08-31 17:04:33 | 48.12691 | 12.00892 | 79° | 78km/h | 14651m | 5.6m/s | -52.3°C | 4.2% | 135.6hPa | 2.6V | 02:29:00 | 00:58:16 | 00:00:00 | |
| NBG1-10 | 2026-08-31 17:04:31 | 48.12682 | 12.00833 | 76° | 80km/h | 14641m | 5.9m/s | -52.2°C | 4.1% | 135.8hPa | 2.7V | 00:00:00 | 00:58:14 | 00:00:00 | |
| S52SK | 2026-08-31 17:04:28 | 48.12671 | 12.00776 | 75° | 78km/h | 14631m | 5.2m/s | -52.2°C | 1.7% | 136.1hPa | 2.7V | 02:30:00 | 00:00:00 | 00:00:00 | |
| DO3MHA-11 | 2026-08-31 17:04:27 | 48.12662 | 12.00720 | 77° | 78km/h | 14622m | 3.6m/s | -52.2°C | 4.1% | 136.2hPa | 2.7V | 00:00:00 | 00:58:10 | 00:00:00 | |
| DO3MHA-12 | 2026-08-31 17:04:26 | 48.12657 | 12.00692 | 76° | 78km/h | 14617m | 4.9m/s | -52.2°C | 4.1% | 136.3hPa | 2.7V | 02:30:00 | 00:58:09 | 00:00:00 | |
| DK5PH-5 | 2026-08-31 17:04:24 | 48.12647 | 12.00633 | 76° | 82km/h | 14607m | 5.2m/s | -52.2°C | 4.1% | 136.5hPa | 2.6V | 00:00:00 | 00:58:07 | 00:00:00 | |
| OE5MMP-10 | 2026-08-31 17:04:23 | 48.12642 | 12.00603 | 77° | 78km/h | 14601m | 5.6m/s | -52.2°C | 4.2% | 136.7hPa | 2.6V | 00:00:00 | 00:58:06 | 00:00:00 | |
| DF7PN | 2026-08-31 17:04:22 | 48.12637 | 12.00574 | 76° | 78km/h | 14596m | 4.3m/s | -52.3°C | 1.7% | 136.8hPa | 2.6V | 00:00:00 | 00:00:00 | 00:00:00 | |
| DB0NH | 2026-08-31 17:04:21 | 48.12632 | 12.00544 | 75° | 82km/h | 14591m | 5.8m/s | -52.2°C | 4.2% | 136.8hPa | 2.6V | 00:00:00 | 00:58:04 | 00:00:00 | |
| OE5DRO-10 | 2026-08-31 17:04:18 | 48.12612 | 12.00460 | 70° | 82km/h | 14576m | 5.6m/s | -52.6°C | 4.2% | 137.2hPa | 2.6V | 00:00:00 | 00:00:00 | 00:00:00 | |
| DO3MHA-11 | 2026-08-31 17:04:17 | 48.12606 | 12.00433 | 70° | 82km/h | 14572m | 4.4m/s | -52.7°C | 4.3% | 137.3hPa | 2.6V | 02:30:00 | 00:58:00 | 00:00:00 | |
| DO3MHA-12 | 2026-08-31 17:04:16 | 48.12599 | 12.00406 | 69° | 84km/h | 14567m | 5.2m/s | -52.8°C | 4.3% | 137.4hPa | 2.6V | 00:00:00 | 00:57:59 | 00:00:00 | |
| S52SK | 2026-08-31 17:04:15 | 48.12599 | 12.00406 | 70° | 77km/h | 14567m | 5.2m/s | -52.9°C | 0% | 137.4hPa | 2.6V | 02:30:00 | 00:00:00 | 00:00:00 | |
| OE5MMP-10 | 2026-08-31 17:04:13 | 48.12578 | 12.00322 | 72° | 84km/h | 14552m | 5.6m/s | -52.7°C | 4.2% | 137.7hPa | 2.6V | 00:00:00 | 00:57:56 | 00:00:00 | |
| OE5WHR-10 | 2026-08-31 17:04:12 | 48.12572 | 12.00293 | 74° | 84km/h | 14547m | 3.7m/s | -52.7°C | 4.3% | 137.8hPa | 2.6V | 00:00:00 | 00:57:55 | 00:00:00 | |
| S52SK | 2026-08-31 17:04:10 | 48.12566 | 12.00262 | 74° | 86km/h | 14543m | 5.6m/s | 0°C | 0% | 138.0hPa | 2.6V | 02:30:00 | 00:00:00 | 00:00:00 | |
| DB0UT-7 | 2026-08-31 17:04:08 | 48.12543 | 12.00168 | 68° | 84km/h | 14528m | 5.1m/s | -52.5°C | 4.3% | 138.2hPa | 2.6V | 02:30:00 | 00:57:51 | 00:00:00 | |
| DO3MHA-11 | 2026-08-31 17:04:07 | 48.12535 | 12.00139 | 67° | 82km/h | 14523m | 4.2m/s | -52.4°C | 4.3% | 138.4hPa | 2.7V | 00:00:00 | 00:57:50 | 00:00:00 | |
| DO3MHA-12 | 2026-08-31 17:04:06 | 48.12526 | 12.00110 | 65° | 82km/h | 14519m | 3.9m/s | -52.4°C | 4.3% | 138.4hPa | 2.7V | 00:00:00 | 00:57:49 | 00:00:00 | |
| S52SK | 2026-08-31 17:04:04 | 48.12517 | 12.00082 | 64° | 82km/h | 14514m | 5.2m/s | 0°C | 0% | 138.6hPa | 2.7V | 02:30:00 | 00:00:00 | 00:00:00 | |
| OE5MMP-10 | 2026-08-31 17:04:03 | 48.12498 | 12.00027 | 63° | 84km/h | 14504m | 5.8m/s | -52.3°C | 4.3% | 138.7hPa | 2.7V | 02:30:00 | 00:57:46 | 00:00:00 | |
| DL6DJ-15 | 2026-08-31 17:04:02 | 48.12489 | 12.00000 | 63° | 78km/h | 14499m | 4.5m/s | -52.3°C | 1.8% | 138.9hPa | 2.6V | 00:00:00 | 00:00:00 | 00:00:00 | |
| PG1ADW-2 | 2026-08-31 17:04:01 | 48.12480 | 11.99973 | 64° | 84km/h | 14494m | 5.0m/s | -52.2°C | 4.2% | 138.9hPa | 2.6V | 00:00:00 | 00:57:44 | 00:00:00 | |
| OE5DXL-15 | 2026-08-31 17:04:00 | 48.12471 | 11.99945 | 64° | 82km/h | 14489m | 5.0m/s | -52.1°C | 4.3% | 139.1hPa | 2.6V | 02:30:00 | 00:00:00 | 00:00:00 | |
| OE5DRO-10 | 2026-08-31 17:03:59 | 48.12462 | 11.99917 | 65° | 84km/h | 14484m | 4.4m/s | -52.1°C | 4.2% | 139.2hPa | 2.6V | 02:30:00 | 00:00:00 | 00:00:00 | |
| NBG1-10 | 2026-08-31 17:03:58 | 48.12453 | 11.99887 | 67° | 82km/h | 14479m | 5.8m/s | -52.1°C | 4.3% | 139.3hPa | 2.6V | 02:30:00 | 00:57:41 | 00:00:00 | |
| DO3MHA-11 | 2026-08-31 17:03:57 | 48.12444 | 11.99858 | 68° | 84km/h | 14474m | 4.6m/s | -52.0°C | 4.3% | 139.4hPa | 2.7V | 00:00:00 | 00:57:40 | 00:00:00 | |
| DO3MHA-12 | 2026-08-31 17:03:56 | 48.12436 | 11.99828 | 68° | 84km/h | 14469m | 4.6m/s | -52.0°C | 4.3% | 139.5hPa | 2.7V | 02:30:00 | 00:57:39 | 00:00:00 | |
| DG1MFX-10 | 2026-08-31 17:03:55 | 48.12436 | 11.99828 | 68° | 86km/h | 14469m | 4.7m/s | -52.1°C | 1.9% | 139.6hPa | 2.7V | 02:31:00 | 00:00:00 | 00:00:00 | |
| DK5PH-5 | 2026-08-31 17:03:54 | 48.12419 | 11.99768 | 67° | 82km/h | 14459m | 5.3m/s | -51.9°C | 4.3% | 139.7hPa | 2.7V | 00:00:00 | 00:57:37 | 00:00:00 | |
| S52SK | 2026-08-31 17:03:53 | 48.12419 | 11.99768 | 68° | 86km/h | 14459m | 5.3m/s | 0°C | 0% | 139.7hPa | 2.7V | 00:00:00 | 00:00:00 | 00:00:00 | |
| DB0NH | 2026-08-31 17:03:51 | 48.12393 | 11.99680 | 66° | 82km/h | 14444m | 5.7m/s | -51.8°C | 4.2% | 140.0hPa | 2.7V | 02:30:00 | 00:57:34 | 00:00:00 | |
| DO3MHA-11 | 2026-08-31 17:03:47 | 48.12359 | 11.99566 | 69° | 82km/h | 14426m | 4.0m/s | -51.7°C | 4.1% | 140.4hPa | 2.6V | 02:30:00 | 00:57:30 | 00:00:00 | |
| DO3MHA-12 | 2026-08-31 17:03:46 | 48.12352 | 11.99537 | 69° | 82km/h | 14420m | 5.9m/s | -51.7°C | 4.1% | 140.5hPa | 2.7V | 00:00:00 | 00:57:29 | 00:00:00 | |
| OE5MMP-10 | 2026-08-31 17:03:43 | 48.12328 | 11.99451 | 68° | 80km/h | 14405m | 5.6m/s | -51.5°C | 4.1% | 140.9hPa | 2.7V | 00:00:00 | 00:57:26 | 00:00:00 | |
| S52SK | 2026-08-31 17:03:42 | 48.12328 | 11.99451 | 69° | 84km/h | 14405m | 5.6m/s | 0°C | 0% | 0hPa | 2.7V | 00:00:00 | 00:00:00 | 00:00:00 | |
| PG1ADW-2 | 2026-08-31 17:03:41 | 48.12312 | 11.99393 | 68° | 82km/h | 14396m | 5.0m/s | -51.4°C | 4.1% | 141.1hPa | 2.7V | 00:00:00 | 00:00:00 | 00:00:00 | |
| OE5DRO-10 | 2026-08-31 17:03:40 | 48.12304 | 11.99364 | 66° | 82km/h | 14391m | 5.0m/s | -51.3°C | 4.1% | 141.2hPa | 2.7V | 00:00:00 | 00:00:00 | 00:00:00 | |
| DB0UT-7 | 2026-08-31 17:03:38 | 48.12287 | 11.99308 | 67° | 82km/h | 14381m | 5.3m/s | -51.2°C | 4.1% | 141.4hPa | 2.7V | 00:00:00 | 00:00:00 | 00:00:00 | |
| DO3MHA-11 | 2026-08-31 17:03:37 | 48.12279 | 11.99281 | 67° | 82km/h | 14377m | 4.6m/s | -51.2°C | 4.1% | 141.5hPa | 2.7V | 00:00:00 | 00:57:20 | 00:00:00 | |
| DO3MHA-12 | 2026-08-31 17:03:36 | 48.12271 | 11.99253 | 67° | 82km/h | 14371m | 5.7m/s | -51.2°C | 4.1% | 141.6hPa | 2.7V | 00:00:00 | 00:57:19 | 00:00:00 | |
| DG1MFX-10 | 2026-08-31 17:03:34 | 48.12263 | 11.99226 | 69° | 78km/h | 14366m | 4.0m/s | -51.2°C | 1.8% | 141.8hPa | 2.7V | 02:31:00 | 00:00:00 | 00:00:00 | |
| OE5MMP-10 | 2026-08-31 17:03:33 | 48.12249 | 11.99168 | 72° | 82km/h | 14356m | 5.3m/s | -51.0°C | 4.0% | 142.0hPa | 2.7V | 02:30:00 | 00:57:16 | 00:00:00 | |
| DH7VM-15 | 2026-08-31 17:03:32 | 48.12249 | 11.99168 | 73° | 84km/h | 14356m | 5.3m/s | 0°C | 0% | 0hPa | 2.7V | 00:00:00 | 00:00:00 | 00:00:00 | |
| DL6DJ-15 | 2026-08-31 17:03:31 | 48.12237 | 11.99108 | 73° | 82km/h | 14346m | 5.6m/s | -51.0°C | 1.7% | 142.2hPa | 2.7V | 00:00:00 | 00:00:00 | 00:00:00 | |
| OE5WHR-10 | 2026-08-31 17:03:30 | 48.12231 | 11.99079 | 73° | 82km/h | 14341m | 3.7m/s | -50.9°C | 3.9% | 142.3hPa | 2.7V | 00:00:00 | 00:00:00 | 00:00:00 | |
| DO3MHA-11 | 2026-08-31 17:03:27 | 48.12212 | 11.98990 | 73° | 82km/h | 14327m | 4.8m/s | -50.8°C | 3.9% | 142.5hPa | 2.7V | 00:00:00 | 00:57:10 | 00:00:00 | |
| DO3MHA-12 | 2026-08-31 17:03:26 | 48.12206 | 11.98961 | 73° | 82km/h | 14322m | 5.1m/s | -50.8°C | 3.9% | 142.7hPa | 2.7V | 02:31:00 | 00:57:09 | 00:00:00 | |
| NBG1-10 | 2026-08-31 17:03:25 | 48.12200 | 11.98933 | 72° | 86km/h | 14318m | 3.5m/s | -50.7°C | 3.9% | 142.8hPa | 2.6V | 00:00:00 | 00:57:08 | 00:00:00 | |
| DK5PH-5 | 2026-08-31 17:03:24 | 48.12193 | 11.98904 | 70° | 86km/h | 14313m | 5.7m/s | -50.7°C | 3.9% | 142.9hPa | 2.6V | 02:31:00 | 00:57:07 | 00:00:00 | |
| OE5MMP-10 | 2026-08-31 17:03:23 | 48.12186 | 11.98875 | 69° | 84km/h | 14308m | 4.7m/s | -50.7°C | 3.8% | 143.0hPa | 2.7V | 00:00:00 | 00:57:06 | 00:00:00 | |
| DM7RM-13 | 2026-08-31 17:03:22 | 48.12186 | 11.98875 | 69° | 84km/h | 14308m | 4.8m/s | -50.8°C | 1.7% | 143.1hPa | 2.7V | 02:31:00 | 00:00:00 | 00:00:00 | |
| PG1ADW-2 | 2026-08-31 17:03:21 | 48.12169 | 11.98817 | 68° | 84km/h | 14299m | 5.1m/s | -50.8°C | 3.8% | 143.2hPa | 2.7V | 02:31:00 | 00:00:00 | 00:00:00 | |
| DO3MHA-11 | 2026-08-31 17:03:17 | 48.12139 | 11.98699 | 70° | 82km/h | 14281m | 4.6m/s | -51.1°C | 3.9% | 143.6hPa | 2.6V | 02:31:00 | 00:57:00 | 00:00:00 | |
| DO3MHA-12 | 2026-08-31 17:03:16 | 48.12132 | 11.98669 | 71° | 82km/h | 14276m | 4.9m/s | -51.1°C | 4.0% | 143.6hPa | 2.6V | 00:00:00 | 00:56:59 | 00:00:00 | |
| S52SK | 2026-08-31 17:03:15 | 48.12132 | 11.98669 | 72° | 84km/h | 14276m | 5.0m/s | 0°C | 0% | 0hPa | 2.6V | 00:00:00 | 00:00:00 | 00:00:00 | |
| DG1MFX-10 | 2026-08-31 17:03:14 | 48.12125 | 11.98640 | 73° | 82km/h | 14271m | 5.1m/s | -51.3°C | 1.8% | 143.9hPa | 2.6V | 02:31:00 | 00:00:00 | 00:00:00 | |
| OE5MMP-10 | 2026-08-31 17:03:13 | 48.12112 | 11.98581 | 73° | 84km/h | 14262m | 5.6m/s | -51.6°C | 4.2% | 144.0hPa | 2.6V | 00:00:00 | 00:56:56 | 00:00:00 | |
| OE5WHR-10 | 2026-08-31 17:03:09 | 48.12091 | 11.98462 | 77° | 91km/h | 14243m | 4.0m/s | -51.9°C | 4.2% | 144.4hPa | 2.6V | 00:00:00 | 00:56:52 | 00:00:00 | |
| DB0UT-7 | 2026-08-31 17:03:08 | 48.12086 | 11.98432 | 78° | 95km/h | 14238m | 5.5m/s | -51.9°C | 4.2% | 144.5hPa | 2.6V | 00:00:00 | 00:56:51 | 00:00:00 | |
| DO3MHA-11 | 2026-08-31 17:03:07 | 48.12081 | 11.98400 | 78° | 88km/h | 14233m | 3.6m/s | -52.0°C | 4.2% | 144.7hPa | 2.6V | 00:00:00 | 00:56:50 | 00:00:00 | |
| DO3MHA-12 | 2026-08-31 17:03:06 | 48.12076 | 11.98369 | 77° | 88km/h | 14230m | 4.1m/s | -52.0°C | 4.2% | 144.7hPa | 2.6V | 00:00:00 | 00:56:49 | 00:00:00 | |
| S52SK | 2026-08-31 17:03:02 | 48.12061 | 11.98275 | 77° | 86km/h | 14217m | 4.7m/s | 0°C | 0% | 0hPa | 2.6V | 00:00:00 | 00:00:00 | 00:00:00 | |
| DL6DJ-15 | 2026-08-31 17:03:00 | 48.12045 | 11.98177 | 75° | 89km/h | 14203m | 5.0m/s | -52.4°C | 1.9% | 145.4hPa | 2.6V | 00:00:00 | 00:00:00 | 00:00:00 | |
| DB0ND-19 | 2026-08-31 17:02:55 | 48.12004 | 11.97936 | 74° | 99km/h | 14174m | 4.7m/s | 0°C | -1.0% | 146.0hPa | 2.6V | 00:00:00 | 00:00:00 | 00:00:00 | |
| DF7PN | 2026-08-31 17:02:49 | 48.11975 | 11.97790 | 72° | 102km/h | 14157m | 4.1m/s | -52.5°C | 2.0% | 146.4hPa | 2.6V | 00:00:00 | 00:00:00 | 00:00:00 | |
| OE5WHR-10 | 2026-08-31 17:02:48 | 48.11967 | 11.97753 | 74° | 102km/h | 14153m | 4.1m/s | -52.5°C | 4.5% | 146.4hPa | 2.6V | 02:31:00 | 00:00:00 | 00:00:00 | |
| DO3MHA-11 | 2026-08-31 17:02:47 | 48.11960 | 11.97715 | 75° | 102km/h | 14150m | 3.1m/s | -52.5°C | 4.5% | 146.5hPa | 2.6V | 02:31:00 | 00:56:30 | 00:00:00 | |
| DO3MHA-12 | 2026-08-31 17:02:46 | 48.11953 | 11.97679 | 74° | 102km/h | 14145m | 4.7m/s | -52.5°C | 4.4% | 146.6hPa | 2.7V | 00:00:00 | 00:56:29 | 00:00:00 | |
| BAUMI2-15 | 2026-08-31 17:02:45 | 48.11946 | 11.97642 | 74° | 100km/h | 14142m | 3.5m/s | -52.5°C | 4.5% | 146.7hPa | 2.7V | 00:00:00 | 00:56:28 | 00:00:00 | |
| OE5MMP-10 | 2026-08-31 17:02:43 | 48.11932 | 11.97569 | 75° | 102km/h | 14133m | 3.2m/s | -52.4°C | 4.5% | 146.8hPa | 2.7V | 00:00:00 | 00:56:26 | 00:00:00 | |
| DN1GJH-1 | 2026-08-31 17:02:42 | 48.11932 | 11.97569 | 75° | 100km/h | 14133m | 3.3m/s | -52.5°C | 0% | 146.9hPa | 2.7V | 00:00:00 | 00:00:00 | 00:00:00 | |
| DB0NH | 2026-08-31 17:02:41 | 48.11918 | 11.97496 | 72° | 100km/h | 14125m | 3.2m/s | -52.4°C | 4.5% | 147.1hPa | 2.7V | 00:00:00 | 00:56:24 | 00:00:00 | |
| BAUMI2-15 | 2026-08-31 17:02:39 | 48.11901 | 11.97423 | 71° | 104km/h | 14118m | 4.2m/s | -52.3°C | 4.4% | 147.2hPa | 2.7V | 00:00:00 | 00:56:22 | 00:00:00 | |
| DB0UT-7 | 2026-08-31 17:02:38 | 48.11892 | 11.97385 | 71° | 97km/h | 14114m | 2.6m/s | -52.2°C | 4.4% | 147.3hPa | 2.7V | 02:31:00 | 00:00:00 | 00:00:00 | |
| DO3MHA-11 | 2026-08-31 17:02:37 | 48.11882 | 11.97348 | 70° | 102km/h | 14111m | 3.5m/s | -52.2°C | 4.3% | 147.4hPa | 2.7V | 00:00:00 | 00:56:20 | 00:00:00 | |
| DO3MHA-12 | 2026-08-31 17:02:36 | 48.11873 | 11.97311 | 69° | 100km/h | 14107m | 3.8m/s | -52.2°C | 4.3% | 147.5hPa | 2.7V | 00:00:00 | 00:56:19 | 00:00:00 | |
| OE5MMP-10 | 2026-08-31 17:02:33 | 48.11845 | 11.97202 | 71° | 99km/h | 14096m | 3.8m/s | -52.1°C | 4.3% | 147.7hPa | 2.7V | 02:31:00 | 00:56:16 | 00:00:00 | |
| BAUMI2-15 | 2026-08-31 17:02:32 | 48.11836 | 11.97166 | 71° | 95km/h | 14092m | 4.1m/s | -52.1°C | 4.3% | 147.8hPa | 2.7V | 02:31:00 | 00:56:15 | 00:00:00 | |
| OE5DXL-15 | 2026-08-31 17:02:30 | 48.11819 | 11.97095 | 71° | 97km/h | 14084m | 3.9m/s | -52.0°C | 4.3% | 148.0hPa | 2.6V | 02:32:00 | 00:00:00 | 00:00:00 | |
| DL6DJ-15 | 2026-08-31 17:02:29 | 48.11811 | 11.97059 | 70° | 100km/h | 14080m | 4.1m/s | -52.0°C | 2.0% | 148.1hPa | 2.6V | 00:00:00 | 00:00:00 | 00:00:00 | |
| DO3MHA-11 | 2026-08-31 17:02:27 | 48.11794 | 11.96988 | 71° | 99km/h | 14073m | 4.2m/s | -52.0°C | 4.3% | 148.2hPa | 2.6V | 00:00:00 | 00:56:10 | 00:00:00 | |
| DO3MHA-12 | 2026-08-31 17:02:26 | 48.11786 | 11.96954 | 71° | 99km/h | 14069m | 3.1m/s | -52.0°C | 4.3% | 148.4hPa | 2.6V | 02:32:00 | 00:56:09 | 00:00:00 | |
| DB0ND-19 | 2026-08-31 17:02:24 | 48.11762 | 11.96849 | 70° | 97km/h | 14057m | 4.8m/s | 0°C | -1.0% | 148.7hPa | 2.6V | 00:00:00 | 00:00:00 | 00:00:00 | |
| OE5MMP-10 | 2026-08-31 17:02:23 | 48.11762 | 11.96849 | 71° | 99km/h | 14057m | 4.8m/s | -52.0°C | 4.4% | 148.6hPa | 2.6V | 00:00:00 | 00:56:06 | 00:00:00 | |
| PG1ADW-2 | 2026-08-31 17:02:21 | 48.11745 | 11.96779 | 70° | 97km/h | 14049m | 4.1m/s | -51.9°C | 4.3% | 148.8hPa | 2.6V | 02:32:00 | 00:00:00 | 00:00:00 | |
| NBG1-10 | 2026-08-31 17:02:19 | 48.11727 | 11.96707 | 70° | 95km/h | 14041m | 2.7m/s | -51.9°C | 4.3% | 149.0hPa | 2.7V | 02:32:00 | 00:56:02 | 00:00:00 | |
| DF7PN | 2026-08-31 17:02:18 | 48.11710 | 11.96636 | 69° | 99km/h | 14033m | 4.1m/s | -52.1°C | 1.9% | 149.2hPa | 2.6V | 00:00:00 | 00:00:00 | 00:00:00 | |
| DO3MHA-11 | 2026-08-31 17:02:17 | 48.11710 | 11.96636 | 70° | 95km/h | 14033m | 4.0m/s | -52.0°C | 4.3% | 149.1hPa | 2.6V | 02:32:00 | 00:56:00 | 00:00:00 | |
| DO3MHA-12 | 2026-08-31 17:02:16 | 48.11701 | 11.96601 | 71° | 95km/h | 14029m | 4.1m/s | -52.1°C | 4.3% | 149.3hPa | 2.6V | 00:00:00 | 00:55:59 | 00:00:00 | |
| DG1MJG | 2026-08-31 17:02:15 | 48.11701 | 11.96601 | 71° | 99km/h | 14029m | 4.1m/s | -52.1°C | 1.9% | 149.4hPa | 2.6V | 02:32:00 | 00:00:00 | 00:00:00 | |
| OE5MMP-10 | 2026-08-31 17:02:13 | 48.11676 | 11.96499 | 70° | 95km/h | 14018m | 2.9m/s | -52.1°C | 4.3% | 149.5hPa | 2.6V | 00:00:00 | 00:55:56 | 00:00:00 | |
| DG1MFX-10 | 2026-08-31 17:02:12 | 48.11676 | 11.96499 | 70° | 93km/h | 14018m | 3.0m/s | -52.2°C | 1.9% | 149.6hPa | 2.6V | 02:32:00 | 00:00:00 | 00:00:00 | |
| DB0NH | 2026-08-31 17:02:11 | 48.11659 | 11.96433 | 70° | 93km/h | 14010m | 4.2m/s | -52.2°C | 4.3% | 149.7hPa | 2.6V | 02:32:00 | 00:55:54 | 00:00:00 | |
| DO3MHA-11 | 2026-08-31 17:02:07 | 48.11627 | 11.96301 | 73° | 95km/h | 13993m | 5.0m/s | -52.1°C | 4.3% | 150.1hPa | 2.6V | 00:00:00 | 00:55:50 | 00:00:00 | |
| DO3MHA-12 | 2026-08-31 17:02:06 | 48.11620 | 11.96266 | 74° | 95km/h | 13989m | 2.9m/s | -52.1°C | 4.3% | 150.2hPa | 2.6V | 00:00:00 | 00:55:49 | 00:00:00 | |
| OE5DRO-10 | 2026-08-31 17:02:05 | 48.11613 | 11.96230 | 75° | 95km/h | 13985m | 5.1m/s | -52.1°C | 4.3% | 150.2hPa | 2.6V | 02:32:00 | 00:00:00 | 00:00:00 | |
| OE5MMP-10 | 2026-08-31 17:02:03 | 48.11600 | 11.96160 | 75° | 95km/h | 13977m | 3.9m/s | -52.0°C | 4.2% | 150.5hPa | 2.7V | 02:32:00 | 00:55:46 | 00:00:00 | |
| DB0ND-19 | 2026-08-31 17:01:53 | 48.11514 | 11.95747 | 72° | 95km/h | 13930m | 4.2m/s | 0°C | -1.0% | 151.6hPa | 2.6V | 00:00:00 | 00:00:00 | 00:00:00 | |
| DF7PN | 2026-08-31 17:01:47 | 48.11478 | 11.95575 | 71° | 91km/h | 13911m | 2.5m/s | -51.4°C | 1.8% | 152.1hPa | 2.6V | 00:00:00 | 00:00:00 | 00:00:00 | |
| DO3MHA-12 | 2026-08-31 17:01:46 | 48.11478 | 11.95575 | 72° | 93km/h | 13911m | 2.5m/s | -51.4°C | 4.1% | 152.0hPa | 2.6V | 00:00:00 | 00:55:29 | 00:00:00 | |
| OE5WHR-10 | 2026-08-31 17:01:45 | 48.11471 | 11.95542 | 72° | 93km/h | 13907m | 4.4m/s | -51.4°C | 4.1% | 152.1hPa | 2.6V | 02:32:00 | 00:00:00 | 00:00:00 | |
| OE5MMP-10 | 2026-08-31 17:01:43 | 48.11456 | 11.95477 | 72° | 93km/h | 13900m | 3.8m/s | -51.3°C | 4.1% | 152.2hPa | 2.7V | 00:00:00 | 00:55:26 | 00:00:00 | |
| DO8TBO-1 | 2026-08-31 17:01:42 | 48.11441 | 11.95412 | 72° | 93km/h | 13892m | 3.9m/s | -51.2°C | 4.1% | 152.4hPa | 2.7V | 00:00:00 | 00:55:24 | 00:00:00 | |
| DB0NH | 2026-08-31 17:01:41 | 48.11441 | 11.95412 | 72° | 93km/h | 13892m | 3.9m/s | -51.2°C | 4.1% | 152.4hPa | 2.7V | 00:00:00 | 00:55:24 | 00:00:00 | |
| DO3MHA-11 | 2026-08-31 17:01:37 | 48.11413 | 11.95277 | 73° | 95km/h | 13876m | 4.0m/s | -51.1°C | 4.1% | 152.8hPa | 2.7V | 00:00:00 | 00:55:20 | 00:00:00 | |
| DO3MHA-12 | 2026-08-31 17:01:36 | 48.11406 | 11.95243 | 74° | 95km/h | 13872m | 4.1m/s | -51.1°C | 4.1% | 152.9hPa | 2.7V | 00:00:00 | 00:55:19 | 00:00:00 | |
| DN1GJH-1 | 2026-08-31 17:01:35 | 48.11406 | 11.95243 | 75° | 95km/h | 13872m | 4.2m/s | 0°C | 0% | 152.9hPa | 2.7V | 02:32:00 | 00:00:00 | 00:00:00 | |
| OE5MMP-10 | 2026-08-31 17:01:33 | 48.11385 | 11.95140 | 72° | 93km/h | 13861m | 3.1m/s | -51.0°C | 4.1% | 153.2hPa | 2.7V | 02:32:00 | 00:55:16 | 00:00:00 | |
| DG1MFX-10 | 2026-08-31 17:01:32 | 48.11385 | 11.95140 | 73° | 97km/h | 13861m | 3.1m/s | -51.1°C | 1.8% | 153.2hPa | 2.6V | 02:32:00 | 00:00:00 | 00:00:00 | |
| DB0UT-7 | 2026-08-31 17:01:30 | 48.11361 | 11.95037 | 70° | 91km/h | 13850m | 4.8m/s | -51.0°C | 4.0% | 153.4hPa | 2.6V | 00:00:00 | 00:00:00 | 00:00:00 | |
| DO3MHA-11 | 2026-08-31 17:01:27 | 48.11336 | 11.94940 | 70° | 91km/h | 13838m | 3.1m/s | -50.9°C | 4.1% | 153.7hPa | 2.6V | 00:00:00 | 00:55:10 | 00:00:00 | |
| DO3MHA-12 | 2026-08-31 17:01:26 | 48.11328 | 11.94908 | 69° | 91km/h | 13835m | 3.6m/s | -50.8°C | 4.0% | 153.8hPa | 2.6V | 02:33:00 | 00:55:09 | 00:00:00 | |
| OE5WHR-10 | 2026-08-31 17:01:24 | 48.11312 | 11.94847 | 70° | 91km/h | 13827m | 3.9m/s | -50.8°C | 4.0% | 154.0hPa | 2.6V | 00:00:00 | 00:00:00 | 00:00:00 | |
| OE5MMP-10 | 2026-08-31 17:01:23 | 48.11304 | 11.94815 | 72° | 93km/h | 13823m | 4.5m/s | -50.8°C | 4.0% | 154.1hPa | 2.6V | 00:00:00 | 00:55:06 | 00:00:00 | |
| DB0ND-19 | 2026-08-31 17:01:22 | 48.11290 | 11.94749 | 73° | 91km/h | 13815m | 4.9m/s | 0°C | -1.0% | 154.3hPa | 2.6V | 00:00:00 | 00:00:00 | 00:00:00 | |
| PG1ADW-2 | 2026-08-31 17:01:21 | 48.11290 | 11.94749 | 74° | 91km/h | 13815m | 4.9m/s | -50.7°C | 4.0% | 154.3hPa | 2.6V | 02:33:00 | 00:55:04 | 00:00:00 | |
| BAUMI2-15 | 2026-08-31 17:01:20 | 48.11284 | 11.94716 | 73° | 104km/h | 13811m | 2.8m/s | -50.7°C | 3.9% | 154.4hPa | 2.7V | 00:00:00 | 00:55:03 | 00:00:00 | |
| DO3MHA-11 | 2026-08-31 17:01:17 | 48.11264 | 11.94614 | 74° | 93km/h | 13799m | 3.3m/s | -50.7°C | 3.8% | 154.6hPa | 2.7V | 02:33:00 | 00:55:00 | 00:00:00 | |
| DF7PN | 2026-08-31 17:01:16 | 48.11249 | 11.94548 | 71° | 93km/h | 13790m | 4.0m/s | -50.6°C | 1.7% | 154.9hPa | 2.7V | 00:00:00 | 00:00:00 | 00:00:00 | |
| DN1GJH-1 | 2026-08-31 17:01:14 | 48.11249 | 11.94548 | 73° | 93km/h | 13790m | 4.0m/s | 0°C | 0% | 0hPa | 2.7V | 00:00:00 | 00:00:00 | 00:00:00 | |
| OE5MMP-10 | 2026-08-31 17:01:13 | 48.11236 | 11.94480 | 75° | 91km/h | 13780m | 5.2m/s | -50.5°C | 3.9% | 155.1hPa | 2.7V | 00:00:00 | 00:54:56 | 00:00:00 | |
| DO8TBO-1 | 2026-08-31 17:01:12 | 48.11229 | 11.94445 | 76° | 95km/h | 13776m | 3.0m/s | -50.5°C | 3.9% | 155.2hPa | 2.7V | 00:00:00 | 00:54:55 | 00:00:00 | |
| DB0NH | 2026-08-31 17:01:11 | 48.11223 | 11.94411 | 76° | 131km/h | 13772m | 4.2m/s | -50.6°C | 4.0% | 155.3hPa | 2.7V | 00:00:00 | 00:54:54 | 00:00:00 | |
| OE5DRO-10 | 2026-08-31 17:01:08 | 48.11206 | 11.94311 | 76° | 91km/h | 13761m | 4.8m/s | -50.6°C | 4.0% | 155.5hPa | 2.7V | 02:33:00 | 00:00:00 | 00:00:00 | |
| DO3MHA-11 | 2026-08-31 17:01:07 | 48.11200 | 11.94278 | 76° | 89km/h | 13757m | 2.9m/s | -50.6°C | 4.1% | 155.6hPa | 2.7V | 00:00:00 | 00:54:50 | 00:00:00 | |
| DO3MHA-12 | 2026-08-31 17:01:06 | 48.11194 | 11.94245 | 75° | 89km/h | 13753m | 4.6m/s | -50.7°C | 4.0% | 155.7hPa | 2.7V | 00:00:00 | 00:54:49 | 00:00:00 | |
| OE5MMP-10 | 2026-08-31 17:01:03 | 48.11175 | 11.94150 | 75° | 91km/h | 13743m | 4.1m/s | -50.8°C | 4.1% | 156.0hPa | 2.7V | 02:33:00 | 00:54:46 | 00:00:00 | |
| PG1ADW-2 | 2026-08-31 17:01:01 | 48.11164 | 11.94086 | 76° | 97km/h | 13735m | 4.9m/s | -50.9°C | 4.1% | 156.1hPa | 2.6V | 00:00:00 | 00:00:00 | 00:00:00 | |
| DB0UT-7 | 2026-08-31 17:01:00 | 48.11158 | 11.94054 | 77° | 100km/h | 13731m | 2.6m/s | -50.9°C | 4.1% | 156.3hPa | 2.6V | 02:33:00 | 00:54:43 | 00:00:00 | |
| DO3MHA-11 | 2026-08-31 17:00:57 | 48.11144 | 11.93953 | 80° | 97km/h | 13720m | 3.5m/s | -50.9°C | 4.1% | 156.5hPa | 2.7V | 00:00:00 | 00:54:40 | 00:00:00 | |
| DO3MHA-12 | 2026-08-31 17:00:56 | 48.11140 | 11.93918 | 79° | 99km/h | 13716m | 4.6m/s | -50.9°C | 4.1% | 156.6hPa | 2.7V | 02:33:00 | 00:54:39 | 00:00:00 | |
| DK5PH-5 | 2026-08-31 17:00:54 | 48.11130 | 11.93848 | 78° | 104km/h | 13709m | 4.5m/s | -50.9°C | 4.1% | 156.8hPa | 2.7V | 00:00:00 | 00:54:37 | 00:00:00 | |
| OE5MMP-10 | 2026-08-31 17:00:53 | 48.11124 | 11.93813 | 77° | 100km/h | 13704m | 3.8m/s | -50.9°C | 4.1% | 156.9hPa | 2.7V | 00:00:00 | 00:54:36 | 00:00:00 | |
| DN1GJH-1 | 2026-08-31 17:00:51 | 48.11118 | 11.93777 | 77° | 99km/h | 13701m | 3.8m/s | 0°C | 0% | 0hPa | 2.7V | 00:00:00 | 00:00:00 | 00:00:00 | |
| OE5DRO-10 | 2026-08-31 17:00:49 | 48.11099 | 11.93669 | 76° | 104km/h | 13689m | 4.2m/s | -50.8°C | 4.1% | 157.3hPa | 2.7V | 00:00:00 | 00:00:00 | 00:00:00 | |
| DO3MHA-11 | 2026-08-31 17:00:47 | 48.11086 | 11.93596 | 76° | 102km/h | 13682m | 4.6m/s | -50.8°C | 4.1% | 157.5hPa | 2.7V | 02:33:00 | 00:54:30 | 00:00:00 | |
| DO3MHA-12 | 2026-08-31 17:00:46 | 48.11079 | 11.93559 | 76° | 104km/h | 13678m | 3.1m/s | -50.8°C | 4.1% | 157.5hPa | 2.7V | 00:00:00 | 00:54:29 | 00:00:00 | |
| DF7PN | 2026-08-31 17:00:45 | 48.11067 | 11.93484 | 77° | 102km/h | 13670m | 3.4m/s | -50.8°C | 1.9% | 157.8hPa | 2.7V | 00:00:00 | 00:00:00 | 00:00:00 | |
| OE5MMP-10 | 2026-08-31 17:00:43 | 48.11062 | 11.93445 | 78° | 104km/h | 13666m | 4.0m/s | -50.7°C | 4.1% | 157.8hPa | 2.7V | 00:00:00 | 00:54:26 | 00:00:00 | |
| OE5WHR-10 | 2026-08-31 17:00:42 | 48.11056 | 11.93408 | 77° | 108km/h | 13662m | 3.9m/s | -50.7°C | 4.1% | 157.9hPa | 2.7V | 02:33:00 | 00:00:00 | 00:00:00 | |
| PG1ADW-2 | 2026-08-31 17:00:41 | 48.11050 | 11.93370 | 77° | 108km/h | 13659m | 2.7m/s | -50.7°C | 4.1% | 158.0hPa | 2.7V | 00:00:00 | 00:00:00 | 00:00:00 | |
| NBG1-10 | 2026-08-31 17:00:40 | 48.11044 | 11.93332 | 77° | 111km/h | 13655m | 4.2m/s | -50.7°C | 4.1% | 158.1hPa | 2.7V | 02:33:00 | 00:54:23 | 00:00:00 | |
| DO3MHA-11 | 2026-08-31 17:00:37 | 48.11023 | 11.93218 | 74° | 108km/h | 13644m | 2.9m/s | -50.6°C | 4.1% | 158.4hPa | 2.6V | 00:00:00 | 00:54:20 | 00:00:00 | |
| DO3MHA-12 | 2026-08-31 17:00:36 | 48.11016 | 11.93180 | 75° | 108km/h | 13641m | 3.7m/s | -50.6°C | 4.1% | 158.4hPa | 2.6V | 00:00:00 | 00:54:19 | 00:00:00 | |
| OE5MMP-10 | 2026-08-31 17:00:33 | 48.10996 | 11.93064 | 77° | 110km/h | 13630m | 3.7m/s | -50.6°C | 4.1% | 158.7hPa | 2.6V | 02:33:00 | 00:54:16 | 00:00:00 | |
| DG1MFX-10 | 2026-08-31 17:00:31 | 48.10990 | 11.93025 | 78° | 106km/h | 13626m | 3.2m/s | -50.7°C | 1.9% | 158.9hPa | 2.7V | 02:34:00 | 00:00:00 | 00:00:00 | |
| DB0UT-7 | 2026-08-31 17:00:30 | 48.10977 | 11.92945 | 78° | 115km/h | 13619m | 4.1m/s | -50.6°C | 4.1% | 159.0hPa | 2.7V | 00:00:00 | 00:00:00 | 00:00:00 | |
| DO3MHA-11 | 2026-08-31 17:00:27 | 48.10959 | 11.92823 | 78° | 111km/h | 13606m | 3.0m/s | -50.6°C | 4.1% | 159.3hPa | 2.7V | 00:00:00 | 00:54:10 | 00:00:00 | |
| DO3MHA-12 | 2026-08-31 17:00:26 | 48.10953 | 11.92783 | 78° | 111km/h | 13603m | 3.3m/s | -50.6°C | 4.1% | 159.4hPa | 2.7V | 02:34:00 | 00:54:09 | 00:00:00 | |
| DL6DJ-15 | 2026-08-31 17:00:25 | 48.10940 | 11.92700 | 76° | 111km/h | 13596m | 3.7m/s | -50.7°C | 1.9% | 159.6hPa | 2.6V | 00:00:00 | 00:00:00 | 00:00:00 | |
| DK5PH-5 | 2026-08-31 17:00:24 | 48.10940 | 11.92700 | 77° | 117km/h | 13596m | 3.6m/s | -50.6°C | 4.1% | 159.6hPa | 2.6V | 02:34:00 | 00:54:07 | 00:00:00 | |
| OE5MMP-10 | 2026-08-31 17:00:23 | 48.10933 | 11.92659 | 77° | 111km/h | 13591m | 4.7m/s | -50.7°C | 4.1% | 159.7hPa | 2.6V | 00:00:00 | 00:54:06 | 00:00:00 | |
| OE5WHR-10 | 2026-08-31 17:00:21 | 48.10920 | 11.92577 | 76° | 115km/h | 13584m | 4.6m/s | -50.7°C | 4.1% | 159.9hPa | 2.6V | 00:00:00 | 00:00:00 | 00:00:00 | |
| DB0ND-19 | 2026-08-31 17:00:19 | 48.10891 | 11.92414 | 75° | 111km/h | 13568m | 3.4m/s | 0°C | -1.0% | -1.0hPa | 2.6V | 00:00:00 | 00:00:00 | 00:00:00 | |
| DO3MHA-11 | 2026-08-31 17:00:17 | 48.10891 | 11.92414 | 76° | 115km/h | 13568m | 3.4m/s | -50.9°C | 4.2% | 160.3hPa | 2.6V | 02:34:00 | 00:54:00 | 00:00:00 | |
| DO3MHA-12 | 2026-08-31 17:00:16 | 48.10884 | 11.92373 | 76° | 115km/h | 13565m | 4.6m/s | -51.0°C | 4.2% | 160.3hPa | 2.6V | 00:00:00 | 00:53:59 | 00:00:00 | |
| DF7PN | 2026-08-31 17:00:14 | 48.10862 | 11.92249 | 76° | 113km/h | 13552m | 3.4m/s | -51.0°C | 2.0% | 160.6hPa | 2.6V | 00:00:00 | 00:00:00 | 00:00:00 | |
| OE5MMP-10 | 2026-08-31 17:00:13 | 48.10862 | 11.92249 | 77° | 117km/h | 13552m | 3.4m/s | -51.0°C | 4.3% | 160.6hPa | 2.6V | 00:00:00 | 00:53:56 | 00:00:00 | |
| DO8TBO-1 | 2026-08-31 17:00:12 | 48.10855 | 11.92207 | 77° | 117km/h | 13549m | 4.1m/s | -51.0°C | 4.3% | 160.7hPa | 2.6V | 00:00:00 | 00:53:55 | 00:00:00 | |
| OE5DRO-10 | 2026-08-31 17:00:11 | 48.10849 | 11.92165 | 77° | 119km/h | 13544m | 3.8m/s | -51.0°C | 4.2% | 160.8hPa | 2.6V | 02:34:00 | 00:00:00 | 00:00:00 | |
| DG1MFX-10 | 2026-08-31 17:00:10 | 48.10849 | 11.92165 | 77° | 117km/h | 13544m | 3.8m/s | -51.0°C | 2.0% | 160.9hPa | 2.7V | 02:34:00 | 00:00:00 | 00:00:00 | |
| DO3MHA-11 | 2026-08-31 17:00:07 | 48.10823 | 11.91993 | 78° | 120km/h | 13528m | 4.7m/s | -50.9°C | 4.3% | 161.2hPa | 2.7V | 00:00:00 | 00:53:50 | 00:00:00 | |
| DO3MHA-12 | 2026-08-31 17:00:06 | 48.10816 | 11.91950 | 76° | 120km/h | 13524m | 3.9m/s | -50.9°C | 4.3% | 161.3hPa | 2.7V | 00:00:00 | 00:53:49 | 00:00:00 | |
| DL6DJ-15 | 2026-08-31 16:59:54 | 48.10713 | 11.91381 | 74° | 119km/h | 13472m | 3.5m/s | -51.1°C | 2.0% | 162.6hPa | 2.7V | 00:00:00 | 00:00:00 | 00:00:00 | |
| OE5MMP-10 | 2026-08-31 16:59:53 | 48.10713 | 11.91381 | 75° | 117km/h | 13472m | 3.5m/s | -51.0°C | 4.2% | 162.6hPa | 2.7V | 00:00:00 | 00:53:36 | 00:00:00 | |
| OE5DRO-10 | 2026-08-31 16:59:52 | 48.10705 | 11.91337 | 74° | 115km/h | 13468m | 4.9m/s | -51.1°C | 4.2% | 162.7hPa | 2.7V | 00:00:00 | 00:00:00 | 00:00:00 | |
| DG1MFX-10 | 2026-08-31 16:59:49 | 48.10687 | 11.91251 | 74° | 119km/h | 13459m | 4.7m/s | -51.1°C | 2.0% | 162.9hPa | 2.7V | 02:34:00 | 00:00:00 | 00:00:00 | |
| DO3MHA-11 | 2026-08-31 16:59:47 | 48.10660 | 11.91124 | 73° | 111km/h | 13447m | 4.7m/s | -51.2°C | 4.4% | 163.2hPa | 2.7V | 02:34:00 | 00:53:30 | 00:00:00 | |
| DO3MHA-12 | 2026-08-31 16:59:46 | 48.10651 | 11.91082 | 72° | 111km/h | 13443m | 4.1m/s | -51.2°C | 4.4% | 163.3hPa | 2.6V | 00:00:00 | 00:53:29 | 00:00:00 | |
| OE5MMP-10 | 2026-08-31 16:59:43 | 48.10627 | 11.90962 | 73° | 113km/h | 13429m | 4.6m/s | -51.2°C | 4.4% | 163.7hPa | 2.6V | 00:00:00 | 00:53:26 | 00:00:00 | |
| DF7PN | 2026-08-31 16:59:42 | 48.10618 | 11.90923 | 72° | 108km/h | 13425m | 4.0m/s | -51.2°C | 2.1% | 163.8hPa | 2.6V | 00:00:00 | 00:00:00 | 00:00:00 | |
| PG1ADW-2 | 2026-08-31 16:59:41 | 48.10610 | 11.90884 | 74° | 115km/h | 13421m | 4.4m/s | -51.2°C | 4.4% | 163.9hPa | 2.6V | 00:00:00 | 00:00:00 | 00:00:00 | |
| OE5WHR-10 | 2026-08-31 16:59:39 | 48.10595 | 11.90804 | 73° | 117km/h | 13413m | 4.3m/s | -51.1°C | 4.3% | 164.1hPa | 2.6V | 02:34:00 | 00:00:00 | 00:00:00 | |
| DO3MHA-11 | 2026-08-31 16:59:37 | 48.10576 | 11.90723 | 71° | 115km/h | 13404m | 3.6m/s | -51.1°C | 4.3% | 164.3hPa | 2.7V | 00:00:00 | 00:53:20 | 00:00:00 | |
| DO3MHA-12 | 2026-08-31 16:59:36 | 48.10566 | 11.90682 | 70° | 115km/h | 13400m | 3.6m/s | -51.1°C | 4.3% | 164.4hPa | 2.7V | 00:00:00 | 00:53:19 | 00:00:00 | |
| NBG1-10 | 2026-08-31 16:59:34 | 48.10546 | 11.90598 | 71° | 119km/h | 13391m | 3.7m/s | -51.2°C | 4.3% | 164.6hPa | 2.7V | 00:00:00 | 00:53:17 | 00:00:00 | |
| OE5MMP-10 | 2026-08-31 16:59:33 | 48.10536 | 11.90556 | 70° | 115km/h | 13387m | 4.7m/s | -51.2°C | 4.3% | 164.7hPa | 2.7V | 02:34:00 | 00:53:16 | 00:00:00 | |
| DN1GJH-1 | 2026-08-31 16:59:32 | 48.10536 | 11.90556 | 71° | 117km/h | 13387m | 4.8m/s | 0°C | 0% | 0hPa | 2.6V | 00:00:00 | 00:00:00 | 00:00:00 | |
| DB0UT-7 | 2026-08-31 16:59:30 | 48.10507 | 11.90434 | 72° | 119km/h | 13374m | 4.7m/s | -51.1°C | 4.3% | 165.1hPa | 2.6V | 02:35:00 | 00:00:00 | 00:00:00 | |
| DG1MFX-10 | 2026-08-31 16:59:28 | 48.10498 | 11.90393 | 74° | 111km/h | 13369m | 3.8m/s | -51.2°C | 2.1% | 165.2hPa | 2.7V | 02:35:00 | 00:00:00 | 00:00:00 | |
| DO3MHA-11 | 2026-08-31 16:59:27 | 48.10481 | 11.90312 | 74° | 120km/h | 13361m | 3.7m/s | -51.1°C | 4.3% | 165.4hPa | 2.7V | 00:00:00 | 00:53:10 | 00:00:00 | |
| DO3MHA-12 | 2026-08-31 16:59:26 | 48.10473 | 11.90271 | 75° | 122km/h | 13356m | 5.3m/s | -51.0°C | 4.3% | 165.5hPa | 2.7V | 02:35:00 | 00:53:09 | 00:00:00 | |
| DK5PH-5 | 2026-08-31 16:59:24 | 48.10457 | 11.90184 | 75° | 119km/h | 13347m | 5.3m/s | -50.9°C | 4.4% | 165.7hPa | 2.6V | 00:00:00 | 00:53:07 | 00:00:00 | |
| DL6DJ-15 | 2026-08-31 16:59:23 | 48.10439 | 11.90095 | 73° | 124km/h | 13338m | 4.0m/s | -50.9°C | 2.1% | 166.0hPa | 2.6V | 00:00:00 | 00:00:00 | 00:00:00 | |
| PG1ADW-2 | 2026-08-31 16:59:21 | 48.10430 | 11.90050 | 74° | 120km/h | 13334m | 4.4m/s | -50.9°C | 4.4% | 166.0hPa | 2.6V | 02:35:00 | 00:00:00 | 00:00:00 | |
| OE5WHR-10 | 2026-08-31 16:59:18 | 48.10401 | 11.89916 | 71° | 117km/h | 13321m | 3.4m/s | -50.8°C | 4.3% | 166.4hPa | 2.7V | 00:00:00 | 00:00:00 | 00:00:00 | |
| DO3MHA-11 | 2026-08-31 16:59:17 | 48.10391 | 11.89873 | 72° | 119km/h | 13316m | 4.5m/s | -50.8°C | 4.3% | 166.5hPa | 2.7V | 02:35:00 | 00:53:00 | 00:00:00 | |
| DO3MHA-12 | 2026-08-31 16:59:16 | 48.10382 | 11.89830 | 72° | 119km/h | 13312m | 4.4m/s | -50.8°C | 4.3% | 166.6hPa | 2.6V | 00:00:00 | 00:52:59 | 00:00:00 | |
| OE5DRO-10 | 2026-08-31 16:59:14 | 48.10363 | 11.89744 | 72° | 117km/h | 13303m | 5.3m/s | -50.9°C | 4.2% | 166.9hPa | 2.6V | 02:35:00 | 00:00:00 | 00:00:00 | |
| OE5MMP-10 | 2026-08-31 16:59:13 | 48.10353 | 11.89702 | 72° | 119km/h | 13298m | 4.2m/s | -50.9°C | 4.1% | 167.0hPa | 2.7V | 00:00:00 | 00:52:56 | 00:00:00 | |
| DF7PN | 2026-08-31 16:59:11 | 48.10335 | 11.89616 | 72° | 119km/h | 13289m | 3.9m/s | -51.0°C | 2.0% | 167.3hPa | 2.7V | 00:00:00 | 00:00:00 | 00:00:00 | |
| DG1MJG | 2026-08-31 16:59:10 | 48.10335 | 11.89616 | 74° | 119km/h | 13289m | 3.9m/s | -51.0°C | 2.0% | 167.3hPa | 2.7V | 02:35:00 | 00:00:00 | 00:00:00 | |
| DN1GJH-1 | 2026-08-31 16:59:08 | 48.10317 | 11.89531 | 73° | 119km/h | 13280m | 4.2m/s | 0°C | 0% | 0hPa | 2.7V | 00:00:00 | 00:00:00 | 00:00:00 | |
| DO3MHA-11 | 2026-08-31 16:59:07 | 48.10299 | 11.89445 | 73° | 115km/h | 13270m | 3.8m/s | -50.8°C | 4.3% | 167.7hPa | 2.7V | 00:00:00 | 00:52:50 | 00:00:00 | |
| DO3MHA-12 | 2026-08-31 16:59:06 | 48.10289 | 11.89403 | 72° | 115km/h | 13266m | 5.3m/s | -50.9°C | 4.3% | 167.8hPa | 2.7V | 00:00:00 | 00:52:49 | 00:00:00 | |
| DL6DJ-15 | 2026-08-31 16:58:51 | 48.10147 | 11.88785 | 72° | 122km/h | 13194m | 5.4m/s | -51.4°C | 2.2% | 169.7hPa | 2.7V | 00:00:00 | 00:00:00 | 00:00:00 | |
| DG1MFX-10 | 2026-08-31 16:58:48 | 48.10129 | 11.88697 | 74° | 120km/h | 13184m | 6.1m/s | -51.3°C | 2.3% | 170.0hPa | 2.7V | 02:36:00 | 00:00:00 | 00:00:00 | |
| DO3MHA-11 | 2026-08-31 16:58:47 | 48.10111 | 11.88611 | 74° | 119km/h | 13173m | 4.8m/s | -51.2°C | 4.6% | 170.2hPa | 2.7V | 02:35:00 | 00:52:30 | 00:00:00 | |
| DO3MHA-12 | 2026-08-31 16:58:46 | 48.10103 | 11.88569 | 74° | 119km/h | 13168m | 5.1m/s | -51.1°C | 4.6% | 170.4hPa | 2.7V | 00:00:00 | 00:52:29 | 00:00:00 | |
| DN1GJH-1 | 2026-08-31 16:58:45 | 48.10103 | 11.88569 | 75° | 117km/h | 13168m | 5.2m/s | 0°C | 0% | 0hPa | 2.7V | 02:36:00 | 00:00:00 | 00:00:00 | |
| OE5MMP-10 | 2026-08-31 16:58:43 | 48.10079 | 11.88440 | 76° | 120km/h | 13154m | 4.7m/s | -51.0°C | 4.6% | 170.8hPa | 2.7V | 00:00:00 | 00:52:26 | 00:00:00 | |
| PG1ADW-2 | 2026-08-31 16:58:41 | 48.10066 | 11.88354 | 78° | 122km/h | 13145m | 5.5m/s | -51.0°C | 4.6% | 171.0hPa | 2.7V | 00:00:00 | 00:52:24 | 00:00:00 | |
| DO8TBO-1 | 2026-08-31 16:58:40 | 48.10060 | 11.88310 | 79° | 128km/h | 13140m | 5.0m/s | -50.9°C | 4.6% | 171.1hPa | 2.7V | 00:00:00 | 00:52:23 | 00:00:00 | |
| DM7RM-13 | 2026-08-31 16:58:38 | 48.10053 | 11.88266 | 79° | 120km/h | 13135m | 4.5m/s | -51.0°C | 2.3% | 171.3hPa | 2.7V | 00:00:00 | 00:00:00 | 00:00:00 | |
| DO3MHA-11 | 2026-08-31 16:58:37 | 48.10042 | 11.88177 | 80° | 122km/h | 13126m | 4.6m/s | -50.9°C | 4.6% | 171.5hPa | 2.7V | 00:00:00 | 00:52:20 | 00:00:00 | |
| DO3MHA-12 | 2026-08-31 16:58:36 | 48.10036 | 11.88132 | 80° | 124km/h | 13121m | 5.7m/s | -50.9°C | 4.7% | 171.7hPa | 2.7V | 00:00:00 | 00:52:19 | 00:00:00 | |
| OE5MMP-10 | 2026-08-31 16:58:33 | 48.10018 | 11.87996 | 79° | 124km/h | 13106m | 3.8m/s | -50.8°C | 4.7% | 172.0hPa | 2.7V | 02:35:00 | 00:52:16 | 00:00:00 | |
| OE5DXL-15 | 2026-08-31 16:58:30 | 48.09998 | 11.87859 | 78° | 130km/h | 13091m | 5.3m/s | -50.8°C | 4.6% | 172.4hPa | 2.7V | 00:00:00 | 00:00:00 | 00:00:00 | |
| NBG1-10 | 2026-08-31 16:58:28 | 48.09984 | 11.87767 | 78° | 131km/h | 13081m | 6.2m/s | -50.8°C | 4.7% | 172.7hPa | 2.7V | 00:00:00 | 00:52:11 | 00:00:00 | |
| DO3MHA-11 | 2026-08-31 16:58:27 | 48.09978 | 11.87720 | 79° | 126km/h | 13076m | 4.8m/s | -50.8°C | 4.6% | 172.8hPa | 2.7V | 00:00:00 | 00:52:10 | 00:00:00 | |
| DO3MHA-12 | 2026-08-31 16:58:26 | 48.09972 | 11.87674 | 79° | 126km/h | 13070m | 5.8m/s | -50.8°C | 4.7% | 172.9hPa | 2.7V | 02:36:00 | 00:52:09 | 00:00:00 | |
| DK5PH-5 | 2026-08-31 16:58:24 | 48.09961 | 11.87581 | 81° | 133km/h | 13061m | 4.5m/s | -50.8°C | 4.7% | 173.2hPa | 2.7V | 00:00:00 | 00:52:07 | 00:00:00 | |
| OE5MMP-10 | 2026-08-31 16:58:23 | 48.09956 | 11.87535 | 81° | 126km/h | 13056m | 5.6m/s | -50.8°C | 4.8% | 173.3hPa | 2.7V | 00:00:00 | 00:52:06 | 00:00:00 | |
| PG1ADW-2 | 2026-08-31 16:58:21 | 48.09944 | 11.87440 | 79° | 131km/h | 13046m | 4.8m/s | -50.7°C | 4.7% | 173.6hPa | 2.7V | 02:36:00 | 00:00:00 | 00:00:00 | |
| DL6DJ-15 | 2026-08-31 16:58:20 | 48.09938 | 11.87393 | 77° | 126km/h | 13041m | 5.7m/s | -50.7°C | 2.5% | 173.8hPa | 2.7V | 00:00:00 | 00:00:00 | 00:00:00 | |
| DM7RM-13 | 2026-08-31 16:58:18 | 48.09931 | 11.87347 | 78° | 128km/h | 13036m | 4.3m/s | -50.6°C | 2.5% | 173.9hPa | 2.7V | 00:00:00 | 00:00:00 | 00:00:00 | |
| DO3MHA-11 | 2026-08-31 16:58:17 | 48.09916 | 11.87253 | 78° | 131km/h | 13026m | 5.0m/s | -50.5°C | 4.7% | 174.2hPa | 2.7V | 02:36:00 | 00:52:00 | 00:00:00 | |
| DO3MHA-12 | 2026-08-31 16:58:16 | 48.09910 | 11.87207 | 78° | 131km/h | 13021m | 4.1m/s | -50.5°C | 4.8% | 174.3hPa | 2.6V | 00:00:00 | 00:51:59 | 00:00:00 | |
| OE5WHR-10 | 2026-08-31 16:58:15 | 48.09903 | 11.87160 | 78° | 137km/h | 13016m | 6.0m/s | -50.5°C | 4.7% | 174.4hPa | 2.6V | 00:00:00 | 00:00:00 | 00:00:00 | |
| OE5MMP-10 | 2026-08-31 16:58:13 | 48.09889 | 11.87066 | 78° | 135km/h | 13007m | 4.1m/s | -50.4°C | 4.7% | 174.7hPa | 2.6V | 00:00:00 | 00:51:56 | 00:00:00 | |
| DF7PN | 2026-08-31 16:58:09 | 48.09862 | 11.86870 | 77° | 135km/h | 12986m | 4.9m/s | -50.3°C | 2.5% | 175.3hPa | 2.6V | 00:00:00 | 00:00:00 | 00:00:00 | |
| DO3MHA-11 | 2026-08-31 16:58:07 | 48.09847 | 11.86769 | 78° | 139km/h | 12977m | 5.6m/s | -50.2°C | 4.7% | 175.5hPa | 2.6V | 00:00:00 | 00:51:50 | 00:00:00 | |
| DO3MHA-12 | 2026-08-31 16:58:06 | 48.09839 | 11.86718 | 78° | 139km/h | 12972m | 4.8m/s | -50.2°C | 4.8% | 175.6hPa | 2.6V | 00:00:00 | 00:51:49 | 00:00:00 | |
| OE5MMP-10 | 2026-08-31 16:58:03 | 48.09816 | 11.86568 | 77° | 141km/h | 12957m | 4.2m/s | -50.1°C | 4.8% | 176.0hPa | 2.6V | 02:36:00 | 00:51:46 | 00:00:00 | |
| DL6DJ-15 | 2026-08-31 16:57:49 | 48.09706 | 11.85848 | 76° | 139km/h | 12888m | 5.1m/s | -50.2°C | 2.7% | 177.9hPa | 2.6V | 00:00:00 | 00:00:00 | 00:00:00 | |
| DO3MHA-11 | 2026-08-31 16:57:47 | 48.09689 | 11.85743 | 77° | 148km/h | 12880m | 3.8m/s | -50.1°C | 4.9% | 178.1hPa | 2.6V | 02:36:00 | 00:51:30 | 00:00:00 | |
| DO3MHA-12 | 2026-08-31 16:57:46 | 48.09680 | 11.85690 | 76° | 148km/h | 12875m | 5.4m/s | -50.1°C | 4.8% | 178.3hPa | 2.6V | 00:00:00 | 00:51:29 | 00:00:00 | |
| DG1MFX-10 | 2026-08-31 16:57:45 | 48.09680 | 11.85690 | 77° | 146km/h | 12875m | 5.4m/s | -50.1°C | 2.7% | 178.3hPa | 2.6V | 02:37:00 | 00:00:00 | 00:00:00 | |
| OE5MMP-10 | 2026-08-31 16:57:43 | 48.09652 | 11.85527 | 77° | 148km/h | 12861m | 4.8m/s | -50.0°C | 4.9% | 178.7hPa | 2.6V | 00:00:00 | 00:51:26 | 00:00:00 | |
| PG1ADW-2 | 2026-08-31 16:57:41 | 48.09634 | 11.85418 | 76° | 146km/h | 12852m | 5.5m/s | -50.0°C | 4.9% | 178.9hPa | 2.6V | 00:00:00 | 00:00:00 | 00:00:00 | |
| OE5DRO-10 | 2026-08-31 16:57:39 | 48.09615 | 11.85309 | 77° | 146km/h | 12841m | 5.7m/s | -50.1°C | 5.0% | 179.2hPa | 2.6V | 00:00:00 | 00:00:00 | 00:00:00 | |
| DF7PN | 2026-08-31 16:57:38 | 48.09606 | 11.85255 | 76° | 146km/h | 12836m | 4.1m/s | -50.2°C | 2.8% | 179.4hPa | 2.6V | 00:00:00 | 00:00:00 | 00:00:00 | |
| DO3MHA-11 | 2026-08-31 16:57:37 | 48.09597 | 11.85201 | 76° | 144km/h | 12831m | 5.7m/s | -50.2°C | 5.1% | 179.5hPa | 2.6V | 00:00:00 | 00:51:20 | 00:00:00 | |
| DO3MHA-12 | 2026-08-31 16:57:36 | 48.09588 | 11.85147 | 76° | 144km/h | 12827m | 3.9m/s | -50.3°C | 5.1% | 179.6hPa | 2.6V | 00:00:00 | 00:51:19 | 00:00:00 | |
| DM7RM-13 | 2026-08-31 16:57:35 | 48.09588 | 11.85147 | 77° | 146km/h | 12827m | 4.0m/s | -50.3°C | 2.9% | 179.6hPa | 2.6V | 00:00:00 | 00:00:00 | 00:00:00 | |
| OE5MMP-10 | 2026-08-31 16:57:33 | 48.09563 | 11.84987 | 78° | 144km/h | 12813m | 4.6m/s | -50.4°C | 5.1% | 180.0hPa | 2.6V | 02:36:00 | 00:51:16 | 00:00:00 | |
| DB0UT-7 | 2026-08-31 16:57:30 | 48.09538 | 11.84829 | 77° | 146km/h | 12799m | 5.4m/s | -50.5°C | 5.1% | 180.4hPa | 2.7V | 00:00:00 | 00:00:00 | 00:00:00 | |
| DB0NH | 2026-08-31 16:57:29 | 48.09529 | 11.84776 | 78° | 146km/h | 12794m | 3.9m/s | -50.5°C | 5.1% | 180.5hPa | 2.7V | 02:37:00 | 00:51:12 | 00:00:00 | |
| DO3MHA-11 | 2026-08-31 16:57:27 | 48.09512 | 11.84671 | 76° | 146km/h | 12784m | 4.6m/s | -50.6°C | 5.3% | 180.8hPa | 2.6V | 00:00:00 | 00:51:10 | 00:00:00 | |
| DO3MHA-12 | 2026-08-31 16:57:26 | 48.09503 | 11.84618 | 77° | 146km/h | 12780m | 4.9m/s | -50.6°C | 5.3% | 180.9hPa | 2.6V | 02:37:00 | 00:51:09 | 00:00:00 | |
| DK5PH-5 | 2026-08-31 16:57:24 | 48.09485 | 11.84512 | 76° | 146km/h | 12771m | 4.4m/s | -50.5°C | 5.3% | 181.1hPa | 2.7V | 02:37:00 | 00:51:07 | 00:00:00 | |
| OE5MMP-10 | 2026-08-31 16:57:23 | 48.09476 | 11.84458 | 75° | 146km/h | 12766m | 5.0m/s | -50.5°C | 5.3% | 181.3hPa | 2.6V | 00:00:00 | 00:51:06 | 00:00:00 | |
| NBG1-10 | 2026-08-31 16:57:22 | 48.09466 | 11.84404 | 75° | 146km/h | 12761m | 4.2m/s | -50.5°C | 5.4% | 181.4hPa | 2.6V | 02:37:00 | 00:51:05 | 00:00:00 | |
| PG1ADW-2 | 2026-08-31 16:57:21 | 48.09456 | 11.84351 | 76° | 146km/h | 12757m | 5.1m/s | -50.5°C | 5.4% | 181.5hPa | 2.6V | 02:37:00 | 00:51:04 | 00:00:00 | |
| OE5DRO-10 | 2026-08-31 16:57:20 | 48.09447 | 11.84297 | 76° | 146km/h | 12752m | 3.6m/s | -50.5°C | 5.4% | 181.7hPa | 2.7V | 02:37:00 | 00:00:00 | 00:00:00 | |
| DL6DJ-15 | 2026-08-31 16:57:18 | 48.09428 | 11.84190 | 74° | 146km/h | 12743m | 4.5m/s | -50.6°C | 3.0% | 182.0hPa | 2.6V | 00:00:00 | 00:00:00 | 00:00:00 | |
| DO3MHA-11 | 2026-08-31 16:57:17 | 48.09418 | 11.84136 | 75° | 146km/h | 12739m | 5.0m/s | -50.5°C | 5.3% | 182.1hPa | 2.6V | 02:37:00 | 00:51:00 | 00:00:00 | |
| DO3MHA-12 | 2026-08-31 16:57:16 | 48.09409 | 11.84083 | 75° | 146km/h | 12734m | 3.7m/s | -50.4°C | 5.3% | 182.1hPa | 2.7V | 00:00:00 | 00:50:59 | 00:00:00 | |
| OE5MMP-10 | 2026-08-31 16:57:13 | 48.09379 | 11.83923 | 75° | 146km/h | 12720m | 5.3m/s | -50.4°C | 5.2% | 182.6hPa | 2.7V | 00:00:00 | 00:50:56 | 00:00:00 | |
| OE5WHR-10 | 2026-08-31 16:57:12 | 48.09369 | 11.83871 | 75° | 144km/h | 12715m | 4.2m/s | -50.3°C | 5.1% | 182.7hPa | 2.7V | 00:00:00 | 00:00:00 | 00:00:00 | |
| DG1MJG | 2026-08-31 16:57:08 | 48.09337 | 11.83711 | 74° | 146km/h | 12701m | 4.9m/s | -50.2°C | 2.9% | 183.1hPa | 2.7V | 02:38:00 | 00:00:00 | 00:00:00 | |
| DO3MHA-11 | 2026-08-31 16:57:07 | 48.09316 | 11.83605 | 74° | 144km/h | 12692m | 4.6m/s | -50.1°C | 5.2% | 183.3hPa | 2.7V | 00:00:00 | 00:50:50 | 00:00:00 | |
| DO3MHA-12 | 2026-08-31 16:57:06 | 48.09305 | 11.83553 | 73° | 144km/h | 12687m | 4.5m/s | -50.0°C | 5.3% | 183.5hPa | 2.7V | 00:00:00 | 00:50:49 | 00:00:00 | |
| OE5MMP-10 | 2026-08-31 16:57:03 | 48.09274 | 11.83396 | 75° | 142km/h | 12675m | 3.7m/s | -50.0°C | 5.4% | 183.8hPa | 2.7V | 02:37:00 | 00:50:46 | 00:00:00 | |
| PG1ADW-2 | 2026-08-31 16:57:01 | 48.09255 | 11.83292 | 75° | 144km/h | 12666m | 3.7m/s | -49.9°C | 5.3% | 184.1hPa | 2.7V | 00:00:00 | 00:00:00 | 00:00:00 | |
| DB0UT-7 | 2026-08-31 16:57:00 | 48.09245 | 11.83240 | 75° | 142km/h | 12662m | 4.1m/s | -49.9°C | 5.2% | 184.2hPa | 2.7V | 00:00:00 | 00:50:43 | 00:00:00 | |
| DO3MHA-11 | 2026-08-31 16:56:57 | 48.09217 | 11.83084 | 75° | 144km/h | 12649m | 5.1m/s | -49.8°C | 5.2% | 184.5hPa | 2.7V | 00:00:00 | 00:50:40 | 00:00:00 | |
| DO3MHA-12 | 2026-08-31 16:56:56 | 48.09207 | 11.83032 | 74° | 144km/h | 12645m | 3.9m/s | -49.7°C | 5.1% | 184.7hPa | 2.7V | 02:37:00 | 00:50:39 | 00:00:00 | |
| DK5PH-5 | 2026-08-31 16:56:54 | 48.09186 | 11.82927 | 75° | 141km/h | 12636m | 4.2m/s | -49.6°C | 5.1% | 184.9hPa | 2.7V | 00:00:00 | 00:50:37 | 00:00:00 | |
| OE5MMP-10 | 2026-08-31 16:56:53 | 48.09176 | 11.82875 | 74° | 144km/h | 12632m | 5.0m/s | -49.6°C | 5.1% | 185.1hPa | 2.7V | 00:00:00 | 00:50:36 | 00:00:00 | |
| OE5WHR-10 | 2026-08-31 16:56:51 | 48.09156 | 11.82769 | 75° | 142km/h | 12624m | 3.9m/s | -49.5°C | 5.1% | 185.3hPa | 2.7V | 00:00:00 | 00:50:34 | 00:00:00 | |
| NBG1-10 | 2026-08-31 16:56:49 | 48.09136 | 11.82665 | 75° | 141km/h | 12616m | 2.9m/s | -49.5°C | 5.2% | 185.5hPa | 2.7V | 00:00:00 | 00:50:32 | 00:00:00 | |
| DO3MHA-11 | 2026-08-31 16:56:47 | 48.09117 | 11.82561 | 74° | 142km/h | 12608m | 3.9m/s | -49.4°C | 5.1% | 185.8hPa | 2.7V | 02:37:00 | 00:50:30 | 00:00:00 | |
| DO3MHA-12 | 2026-08-31 16:56:46 | 48.09107 | 11.82509 | 74° | 142km/h | 12604m | 3.4m/s | -49.5°C | 5.1% | 185.8hPa | 2.6V | 00:00:00 | 00:50:29 | 00:00:00 | |
| OE5MMP-10 | 2026-08-31 16:56:43 | 48.09076 | 11.82351 | 74° | 141km/h | 12591m | 4.9m/s | -49.3°C | 5.1% | 186.2hPa | 2.6V | 00:00:00 | 00:50:26 | 00:00:00 | |
| OE5DRO-10 | 2026-08-31 16:56:42 | 48.09066 | 11.82299 | 73° | 139km/h | 12586m | 3.6m/s | -49.3°C | 5.2% | 186.3hPa | 2.6V | 00:00:00 | 00:00:00 | 00:00:00 | |
| PG1ADW-2 | 2026-08-31 16:56:41 | 48.09055 | 11.82248 | 73° | 139km/h | 12583m | 3.4m/s | -49.3°C | 5.2% | 186.4hPa | 2.6V | 00:00:00 | 00:00:00 | 00:00:00 | |
| DO3MHA-11 | 2026-08-31 16:56:37 | 48.09013 | 11.82048 | 73° | 139km/h | 12566m | 3.7m/s | -49.3°C | 5.3% | 186.9hPa | 2.6V | 00:00:00 | 00:50:20 | 00:00:00 | |
| DO3MHA-12 | 2026-08-31 16:56:36 | 48.09003 | 11.81998 | 74° | 139km/h | 12562m | 4.4m/s | -49.5°C | 5.4% | 187.0hPa | 2.6V | 00:00:00 | 00:50:19 | 00:00:00 | |
| OE5MMP-10 | 2026-08-31 16:56:33 | 48.08973 | 11.81844 | 74° | 137km/h | 12551m | 4.4m/s | -49.7°C | 5.6% | 187.3hPa | 2.6V | 02:37:00 | 00:50:16 | 00:00:00 | |
| OE5WHR-10 | 2026-08-31 16:56:30 | 48.08943 | 11.81691 | 74° | 137km/h | 12539m | 3.7m/s | -49.9°C | 5.7% | 187.7hPa | 2.7V | 02:38:00 | 00:00:00 | 00:00:00 | |
| DB0NH | 2026-08-31 16:56:29 | 48.08933 | 11.81641 | 73° | 137km/h | 12535m | 4.8m/s | -49.9°C | 5.8% | 187.8hPa | 2.6V | 00:00:00 | 00:50:12 | 00:00:00 | |
| DO3MHA-11 | 2026-08-31 16:56:27 | 48.08912 | 11.81543 | 73° | 139km/h | 12527m | 4.6m/s | -50.0°C | 5.8% | 188.0hPa | 2.6V | 00:00:00 | 00:50:10 | 00:00:00 | |
| DO3MHA-12 | 2026-08-31 16:56:26 | 48.08902 | 11.81495 | 73° | 139km/h | 12522m | 3.7m/s | -50.0°C | 5.8% | 188.2hPa | 2.6V | 02:38:00 | 00:50:09 | 00:00:00 | |
| DK5PH-5 | 2026-08-31 16:56:24 | 48.08880 | 11.81397 | 72° | 139km/h | 12514m | 2.6m/s | -50.1°C | 6.0% | 188.4hPa | 2.6V | 00:00:00 | 00:50:07 | 00:00:00 | |
| OE5MMP-10 | 2026-08-31 16:56:23 | 48.08870 | 11.81348 | 73° | 139km/h | 12511m | 4.0m/s | -50.2°C | 6.0% | 188.5hPa | 2.6V | 00:00:00 | 00:50:06 | 00:00:00 | |
| OE5DRO-10 | 2026-08-31 16:56:22 | 48.08860 | 11.81298 | 74° | 139km/h | 12507m | 3.9m/s | -50.3°C | 6.2% | 188.5hPa | 2.6V | 02:38:00 | 00:00:00 | 00:00:00 | |
| PG1ADW-2 | 2026-08-31 16:56:21 | 48.08850 | 11.81247 | 75° | 139km/h | 12504m | 3.1m/s | -50.3°C | 6.2% | 188.7hPa | 2.6V | 02:38:00 | 00:00:00 | 00:00:00 | |
| DO3MHA-11 | 2026-08-31 16:56:17 | 48.08813 | 11.81040 | 76° | 135km/h | 12489m | 3.4m/s | -50.4°C | 6.3% | 189.1hPa | 2.7V | 02:38:00 | 00:50:00 | 00:00:00 | |
| DO3MHA-12 | 2026-08-31 16:56:16 | 48.08803 | 11.80991 | 75° | 137km/h | 12485m | 3.2m/s | -50.4°C | 6.3% | 189.2hPa | 2.7V | 00:00:00 | 00:49:59 | 00:00:00 | |
| OE5MMP-10 | 2026-08-31 16:56:13 | 48.08773 | 11.80844 | 73° | 139km/h | 12475m | 3.8m/s | -50.5°C | 6.4% | 189.5hPa | 2.7V | 00:00:00 | 00:49:56 | 00:00:00 | |
| DM7RM-13 | 2026-08-31 16:56:10 | 48.08753 | 11.80748 | 74° | 133km/h | 12468m | 3.4m/s | -50.6°C | 4.1% | 189.8hPa | 2.7V | 02:38:00 | 00:00:00 | 00:00:00 | |
| OE5WHR-10 | 2026-08-31 16:56:09 | 48.08733 | 11.80649 | 74° | 139km/h | 12461m | 3.0m/s | -50.5°C | 6.4% | 190.0hPa | 2.7V | 00:00:00 | 00:00:00 | 00:00:00 | |
| DO3MHA-11 | 2026-08-31 16:56:07 | 48.08714 | 11.80549 | 75° | 141km/h | 12454m | 3.1m/s | -50.5°C | 6.3% | 190.2hPa | 2.7V | 00:00:00 | 00:49:50 | 00:00:00 | |
| DO3MHA-12 | 2026-08-31 16:56:06 | 48.08705 | 11.80497 | 75° | 141km/h | 12450m | 4.7m/s | -50.4°C | 6.2% | 190.3hPa | 2.7V | 00:00:00 | 00:49:49 | 00:00:00 | |
| DF7PN | 2026-08-31 16:56:05 | 48.08695 | 11.80445 | 74° | 142km/h | 12446m | 3.1m/s | -50.4°C | 3.9% | 190.5hPa | 2.7V | 00:00:00 | 00:00:00 | 00:00:00 | |
| DG1MFX-10 | 2026-08-31 16:56:03 | 48.08675 | 11.80342 | 74° | 141km/h | 12439m | 3.1m/s | -50.4°C | 4.0% | 190.7hPa | 2.7V | 02:38:00 | 00:00:00 | 00:00:00 | |
| DL6DJ-15 | 2026-08-31 16:55:45 | 48.08495 | 11.79450 | 72° | 133km/h | 12373m | 3.4m/s | -50.3°C | 3.8% | 192.6hPa | 2.7V | 00:00:00 | 00:00:00 | 00:00:00 | |
| OE5DRO-10 | 2026-08-31 16:55:44 | 48.08485 | 11.79402 | 73° | 135km/h | 12370m | 3.1m/s | -50.3°C | 6.2% | 192.6hPa | 2.7V | 00:00:00 | 00:00:00 | 00:00:00 | |
| OE5MMP-10 | 2026-08-31 16:55:43 | 48.08475 | 11.79353 | 73° | 133km/h | 12366m | 3.9m/s | -50.4°C | 6.3% | 192.8hPa | 2.7V | 00:00:00 | 00:49:26 | 00:00:00 | |
| DG1MFX-10 | 2026-08-31 16:55:42 | 48.08475 | 11.79353 | 74° | 135km/h | 12366m | 3.9m/s | -50.4°C | 4.0% | 192.8hPa | 2.7V | 02:38:00 | 00:00:00 | 00:00:00 | |
| PG1ADW-2 | 2026-08-31 16:55:41 | 48.08455 | 11.79256 | 75° | 135km/h | 12359m | 4.6m/s | -50.5°C | 6.4% | 193.0hPa | 2.7V | 00:00:00 | 00:00:00 | 00:00:00 | |
| DB0NH | 2026-08-31 16:55:38 | 48.08428 | 11.79110 | 75° | 139km/h | 12348m | 2.7m/s | -50.6°C | 6.5% | 193.3hPa | 2.7V | 02:38:00 | 00:49:21 | 00:00:00 | |
| DO3MHA-11 | 2026-08-31 16:55:37 | 48.08419 | 11.79062 | 75° | 135km/h | 12345m | 3.8m/s | -50.6°C | 6.5% | 193.3hPa | 2.7V | 00:00:00 | 00:49:20 | 00:00:00 | |
| DO3MHA-12 | 2026-08-31 16:55:36 | 48.08410 | 11.79013 | 76° | 135km/h | 12341m | 3.7m/s | -50.7°C | 6.5% | 193.5hPa | 2.7V | 00:00:00 | 00:49:19 | 00:00:00 | |
| DF7PN | 2026-08-31 16:55:34 | 48.08393 | 11.78916 | 74° | 133km/h | 12333m | 3.8m/s | -50.7°C | 4.1% | 193.8hPa | 2.7V | 00:00:00 | 00:00:00 | 00:00:00 | |
| OE5MMP-10 | 2026-08-31 16:55:33 | 48.08384 | 11.78867 | 75° | 135km/h | 12330m | 3.9m/s | -50.7°C | 6.6% | 193.8hPa | 2.7V | 02:38:00 | 00:49:16 | 00:00:00 | |
| DB0UT-7 | 2026-08-31 16:55:30 | 48.08356 | 11.78721 | 75° | 139km/h | 12319m | 3.2m/s | -50.8°C | 6.6% | 194.2hPa | 2.7V | 00:00:00 | 00:00:00 | 00:00:00 | |
| DM7RM-13 | 2026-08-31 16:55:29 | 48.08356 | 11.78721 | 75° | 137km/h | 12319m | 3.2m/s | -50.8°C | 4.2% | 194.2hPa | 2.7V | 02:39:00 | 00:00:00 | 00:00:00 | |
| DO3MHA-11 | 2026-08-31 16:55:27 | 48.08328 | 11.78572 | 76° | 137km/h | 12309m | 2.5m/s | -50.7°C | 6.6% | 194.5hPa | 2.7V | 00:00:00 | 00:49:10 | 00:00:00 | |
| DO3MHA-12 | 2026-08-31 16:55:26 | 48.08319 | 11.78523 | 75° | 137km/h | 12306m | 4.0m/s | -50.7°C | 6.5% | 194.6hPa | 2.7V | 02:39:00 | 00:49:09 | 00:00:00 | |
| OE5DRO-10 | 2026-08-31 16:55:25 | 48.08310 | 11.78473 | 75° | 141km/h | 12302m | 3.5m/s | -50.7°C | 6.6% | 194.7hPa | 2.7V | 02:39:00 | 00:00:00 | 00:00:00 | |
| DK5PH-5 | 2026-08-31 16:55:24 | 48.08301 | 11.78422 | 75° | 141km/h | 12298m | 4.0m/s | -50.7°C | 6.6% | 194.8hPa | 2.7V | 00:00:00 | 00:49:07 | 00:00:00 | |
| OE5MMP-10 | 2026-08-31 16:55:23 | 48.08291 | 11.78372 | 74° | 137km/h | 12295m | 3.1m/s | -50.6°C | 6.6% | 194.9hPa | 2.7V | 00:00:00 | 00:49:06 | 00:00:00 | |
| PG1ADW-2 | 2026-08-31 16:55:21 | 48.08271 | 11.78272 | 73° | 141km/h | 12287m | 3.3m/s | -50.5°C | 6.5% | 195.1hPa | 2.7V | 02:39:00 | 00:00:00 | 00:00:00 | |
| DO3MHA-11 | 2026-08-31 16:55:17 | 48.08227 | 11.78075 | 72° | 141km/h | 12273m | 3.7m/s | -50.5°C | 6.3% | 195.6hPa | 2.6V | 02:39:00 | 00:49:00 | 00:00:00 | |
| DO3MHA-12 | 2026-08-31 16:55:16 | 48.08217 | 11.78026 | 73° | 142km/h | 12269m | 3.0m/s | -50.4°C | 6.2% | 195.7hPa | 2.7V | 00:00:00 | 00:48:59 | 00:00:00 | |
| DL6DJ-15 | 2026-08-31 16:55:14 | 48.08196 | 11.77930 | 72° | 133km/h | 12263m | 2.7m/s | -50.4°C | 4.0% | 195.9hPa | 2.7V | 00:00:00 | 00:00:00 | 00:00:00 | |
| OE5MMP-10 | 2026-08-31 16:55:13 | 48.08186 | 11.77881 | 73° | 144km/h | 12259m | 4.6m/s | -50.4°C | 6.3% | 196.0hPa | 2.7V | 00:00:00 | 00:48:56 | 00:00:00 | |
| NBG1-10 | 2026-08-31 16:55:10 | 48.08153 | 11.77729 | 71° | 146km/h | 12248m | 3.8m/s | -50.3°C | 6.3% | 196.3hPa | 2.7V | 00:00:00 | 00:48:53 | 00:00:00 | |
| DM7RM-13 | 2026-08-31 16:55:09 | 48.08153 | 11.77729 | 72° | 144km/h | 12248m | 3.9m/s | -50.3°C | 4.0% | 196.4hPa | 2.7V | 02:39:00 | 00:00:00 | 00:00:00 | |
| DO3MHA-12 | 2026-08-31 16:55:06 | 48.08099 | 11.77519 | 69° | 141km/h | 12232m | 3.9m/s | -50.3°C | 6.4% | 196.8hPa | 2.7V | 00:00:00 | 00:48:49 | 00:00:00 | |
| DG1MJG | 2026-08-31 16:55:05 | 48.08099 | 11.77519 | 70° | 148km/h | 12232m | 3.9m/s | -50.4°C | 4.0% | 196.8hPa | 2.7V | 02:39:00 | 00:00:00 | 00:00:00 | |
| OE5MMP-10 | 2026-08-31 16:55:03 | 48.08062 | 11.77366 | 72° | 141km/h | 12222m | 4.2m/s | -50.6°C | 6.2% | 197.1hPa | 2.7V | 02:39:00 | 00:48:46 | 00:00:00 | |
| PG1ADW-2 | 2026-08-31 16:55:01 | 48.08039 | 11.77267 | 72° | 146km/h | 12214m | 3.9m/s | -50.7°C | 6.3% | 197.4hPa | 2.7V | 00:00:00 | 00:00:00 | 00:00:00 | |
| DO8TBO-1 | 2026-08-31 16:55:00 | 48.08017 | 11.77170 | 71° | 150km/h | 12207m | 4.6m/s | -50.7°C | 6.4% | 197.6hPa | 2.7V | 00:00:00 | 00:48:42 | 00:00:00 | |
| DO3MHA-11 | 2026-08-31 16:54:57 | 48.07992 | 11.77070 | 70° | 146km/h | 12200m | 3.7m/s | -50.7°C | 6.3% | 197.8hPa | 2.7V | 00:00:00 | 00:48:40 | 00:00:00 | |
| DO3MHA-12 | 2026-08-31 16:54:56 | 48.07980 | 11.77019 | 70° | 146km/h | 12195m | 4.8m/s | -50.7°C | 6.3% | 197.9hPa | 2.7V | 02:39:00 | 00:48:39 | 00:00:00 | |
| DK5PH-5 | 2026-08-31 16:54:54 | 48.07954 | 11.76916 | 70° | 150km/h | 12188m | 4.1m/s | -50.7°C | 6.3% | 198.2hPa | 2.6V | 00:00:00 | 00:48:37 | 00:00:00 | |
| OE5MMP-10 | 2026-08-31 16:54:53 | 48.07940 | 11.76864 | 70° | 146km/h | 12184m | 3.4m/s | -50.7°C | 6.3% | 198.3hPa | 2.6V | 00:00:00 | 00:48:36 | 00:00:00 | |
| DM7RM-13 | 2026-08-31 16:54:49 | 48.07900 | 11.76710 | 69° | 146km/h | 12172m | 4.4m/s | -51.0°C | 4.1% | 198.7hPa | 2.6V | 02:39:00 | 00:00:00 | 00:00:00 | |
| DO3MHA-11 | 2026-08-31 16:54:47 | 48.07860 | 11.76556 | 69° | 151km/h | 12161m | 3.5m/s | -51.0°C | 6.7% | 199.0hPa | 2.6V | 02:39:00 | 00:48:30 | 00:00:00 | |
| OE5WHR-10 | 2026-08-31 16:54:45 | 48.07833 | 11.76452 | 70° | 151km/h | 12154m | 4.0m/s | -51.1°C | 6.9% | 199.2hPa | 2.6V | 00:00:00 | 00:48:28 | 00:00:00 | |
| OE5MMP-10 | 2026-08-31 16:54:43 | 48.07806 | 11.76345 | 70° | 153km/h | 12147m | 3.9m/s | -51.2°C | 7.0% | 199.4hPa | 2.6V | 00:00:00 | 00:48:26 | 00:00:00 | |
| PG1ADW-2 | 2026-08-31 16:54:41 | 48.07779 | 11.76237 | 69° | 151km/h | 12140m | 4.3m/s | -51.2°C | 7.1% | 199.6hPa | 2.6V | 00:00:00 | 00:48:24 | 00:00:00 | |
| DO3MHA-11 | 2026-08-31 16:54:37 | 48.07721 | 11.76020 | 69° | 153km/h | 12125m | 4.9m/s | -51.2°C | 7.3% | 200.1hPa | 2.6V | 00:00:00 | 00:48:20 | 00:00:00 | |
| DO3MHA-12 | 2026-08-31 16:54:36 | 48.07706 | 11.75966 | 69° | 151km/h | 12121m | 3.2m/s | -51.2°C | 7.3% | 200.3hPa | 2.6V | 00:00:00 | 00:48:19 | 00:00:00 | |
| DG1MJG | 2026-08-31 16:54:35 | 48.07706 | 11.75966 | 69° | 153km/h | 12121m | 3.3m/s | -51.3°C | 4.8% | 200.3hPa | 2.6V | 02:40:00 | 00:00:00 | 00:00:00 | |
| OE5MMP-10 | 2026-08-31 16:54:33 | 48.07664 | 11.75803 | 70° | 151km/h | 12109m | 3.4m/s | -51.2°C | 7.4% | 200.6hPa | 2.6V | 02:39:00 | 00:48:16 | 00:00:00 | |
| DF7PN | 2026-08-31 16:54:32 | 48.07650 | 11.75749 | 69° | 151km/h | 12105m | 4.8m/s | -51.3°C | 5.0% | 200.7hPa | 2.6V | 00:00:00 | 00:00:00 | 00:00:00 | |
| OE5DXL-15 | 2026-08-31 16:54:30 | 48.07623 | 11.75642 | 70° | 148km/h | 12097m | 4.8m/s | -51.2°C | 7.5% | 200.9hPa | 2.6V | 00:00:00 | 00:00:00 | 00:00:00 | |
| DM7RM-13 | 2026-08-31 16:54:29 | 48.07623 | 11.75642 | 71° | 151km/h | 12097m | 4.8m/s | -51.2°C | 5.0% | 201.0hPa | 2.6V | 02:40:00 | 00:00:00 | 00:00:00 | |
| OE5DRO-10 | 2026-08-31 16:54:28 | 48.07597 | 11.75535 | 70° | 148km/h | 12089m | 4.4m/s | -51.2°C | 7.6% | 201.2hPa | 2.6V | 02:40:00 | 00:00:00 | 00:00:00 | |
| DO3MHA-11 | 2026-08-31 16:54:27 | 48.07584 | 11.75482 | 70° | 148km/h | 12085m | 3.3m/s | -51.1°C | 7.6% | 201.4hPa | 2.7V | 00:00:00 | 00:48:10 | 00:00:00 | |
| DO3MHA-12 | 2026-08-31 16:54:26 | 48.07571 | 11.75429 | 70° | 148km/h | 12081m | 4.9m/s | -51.1°C | 7.5% | 201.5hPa | 2.7V | 02:40:00 | 00:48:09 | 00:00:00 | |
| DK5PH-5 | 2026-08-31 16:54:24 | 48.07545 | 11.75323 | 70° | 148km/h | 12073m | 4.8m/s | -51.1°C | 7.5% | 201.8hPa | 2.7V | 02:40:00 | 00:48:07 | 00:00:00 | |
| OE5MMP-10 | 2026-08-31 16:54:23 | 48.07531 | 11.75271 | 70° | 146km/h | 12069m | 3.6m/s | -51.1°C | 7.5% | 201.8hPa | 2.6V | 00:00:00 | 00:48:06 | 00:00:00 | |
| PG1ADW-2 | 2026-08-31 16:54:21 | 48.07505 | 11.75165 | 70° | 148km/h | 12060m | 3.7m/s | -51.1°C | 7.5% | 202.2hPa | 2.6V | 02:40:00 | 00:00:00 | 00:00:00 | |
| DG1MFX-10 | 2026-08-31 16:54:20 | 48.07505 | 11.75165 | 70° | 150km/h | 12060m | 3.7m/s | -51.1°C | 5.0% | 202.2hPa | 2.7V | 02:40:00 | 00:00:00 | 00:00:00 | |
| DO3MHA-11 | 2026-08-31 16:54:17 | 48.07453 | 11.74957 | 71° | 146km/h | 12043m | 5.0m/s | -51.1°C | 7.4% | 202.6hPa | 2.7V | 02:40:00 | 00:48:00 | 00:00:00 | |
| DO3MHA-12 | 2026-08-31 16:54:16 | 48.07441 | 11.74905 | 71° | 146km/h | 12039m | 3.1m/s | -51.1°C | 7.4% | 202.8hPa | 2.7V | 00:00:00 | 00:47:59 | 00:00:00 | |
| OE5MMP-10 | 2026-08-31 16:54:13 | 48.07406 | 11.74752 | 72° | 148km/h | 12027m | 3.5m/s | -51.3°C | 7.8% | 203.2hPa | 2.7V | 00:00:00 | 00:47:56 | 00:00:00 | |
| DL6DJ-15 | 2026-08-31 16:54:12 | 48.07395 | 11.74701 | 70° | 142km/h | 12023m | 4.9m/s | -51.4°C | 5.3% | 203.3hPa | 2.7V | 00:00:00 | 00:00:00 | 00:00:00 | |
| OE5DRO-10 | 2026-08-31 16:54:09 | 48.07358 | 11.74542 | 72° | 150km/h | 12011m | 4.5m/s | -51.4°C | 8.0% | 203.7hPa | 2.7V | 00:00:00 | 00:00:00 | 00:00:00 | |
| DM7RM-13 | 2026-08-31 16:54:08 | 48.07358 | 11.74542 | 73° | 150km/h | 12011m | 4.6m/s | -51.4°C | 5.4% | 203.7hPa | 2.7V | 02:40:00 | 00:00:00 | 00:00:00 | |
| DO3MHA-11 | 2026-08-31 16:54:07 | 48.07336 | 11.74434 | 74° | 148km/h | 12003m | 3.6m/s | -51.3°C | 8.0% | 203.9hPa | 2.7V | 00:00:00 | 00:47:50 | 00:00:00 | |
| DG1MJG | 2026-08-31 16:54:06 | 48.07325 | 11.74380 | 74° | 150km/h | 11999m | 4.8m/s | -51.4°C | 5.5% | 204.1hPa | 2.7V | 02:40:00 | 00:00:00 | 00:00:00 | |
| NBG1-10 | 2026-08-31 16:54:04 | 48.07303 | 11.74272 | 74° | 150km/h | 11991m | 4.6m/s | -51.3°C | 8.2% | 204.3hPa | 2.7V | 02:40:00 | 00:47:47 | 00:00:00 | |
| OE5MMP-10 | 2026-08-31 16:54:03 | 48.07292 | 11.74218 | 74° | 148km/h | 11987m | 3.6m/s | -51.3°C | 8.2% | 204.4hPa | 2.7V | 02:40:00 | 00:47:46 | 00:00:00 | |
| PG1ADW-2 | 2026-08-31 16:54:01 | 48.07271 | 11.74111 | 74° | 150km/h | 11978m | 4.2m/s | -51.3°C | 8.2% | 204.7hPa | 2.7V | 00:00:00 | 00:00:00 | 00:00:00 | |
| OE5DXL-15 | 2026-08-31 16:54:00 | 48.07260 | 11.74057 | 74° | 150km/h | 11973m | 4.8m/s | -51.3°C | 8.3% | 204.8hPa | 2.7V | 00:00:00 | 00:00:00 | 00:00:00 | |
| DO3MHA-11 | 2026-08-31 16:53:57 | 48.07227 | 11.73897 | 73° | 150km/h | 11960m | 3.9m/s | -51.3°C | 8.5% | 205.3hPa | 2.7V | 00:00:00 | 00:47:40 | 00:00:00 | |
| DO3MHA-12 | 2026-08-31 16:53:56 | 48.07216 | 11.73843 | 73° | 150km/h | 11956m | 4.6m/s | -51.3°C | 8.4% | 205.5hPa | 2.7V | 02:40:00 | 00:47:39 | 00:00:00 | |
| DK5PH-5 | 2026-08-31 16:53:54 | 48.07193 | 11.73735 | 72° | 150km/h | 11947m | 4.0m/s | -51.2°C | 8.5% | 205.7hPa | 2.7V | 00:00:00 | 00:47:37 | 00:00:00 | |
| OE5MMP-10 | 2026-08-31 16:53:53 | 48.07181 | 11.73682 | 72° | 150km/h | 11943m | 4.4m/s | -51.3°C | 8.5% | 205.8hPa | 2.7V | 00:00:00 | 00:47:36 | 00:00:00 | |
| OE5DRO-10 | 2026-08-31 16:53:50 | 48.07146 | 11.73521 | 73° | 150km/h | 11930m | 3.8m/s | -51.3°C | 8.5% | 206.2hPa | 2.7V | 00:00:00 | 00:00:00 | 00:00:00 | |
| DO3MHA-11 | 2026-08-31 16:53:47 | 48.07111 | 11.73358 | 72° | 150km/h | 11918m | 3.9m/s | -51.4°C | 8.7% | 206.7hPa | 2.7V | 02:40:00 | 00:47:30 | 00:00:00 | |
| DF3TZ-5 | 2026-08-31 16:53:45 | 48.07074 | 11.73196 | 70° | 150km/h | 11904m | 4.6m/s | 0°C | -1.0% | -1.0hPa | 2.7V | 00:00:00 | 00:00:00 | 00:00:00 | |
| OE5MMP-10 | 2026-08-31 16:53:43 | 48.07062 | 11.73142 | 71° | 150km/h | 11900m | 4.5m/s | -51.4°C | 9.1% | 207.2hPa | 2.7V | 00:00:00 | 00:47:26 | 00:00:00 | |
| OE5WHR-10 | 2026-08-31 16:53:42 | 48.07049 | 11.73089 | 71° | 151km/h | 11895m | 3.9m/s | -51.3°C | 9.2% | 207.3hPa | 2.7V | 00:00:00 | 00:47:25 | 00:00:00 | |
| PG1ADW-2 | 2026-08-31 16:53:41 | 48.07036 | 11.73036 | 70° | 151km/h | 11891m | 5.3m/s | -51.3°C | 9.1% | 207.5hPa | 2.7V | 00:00:00 | 00:00:00 | 00:00:00 | |
| DG1MFX-10 | 2026-08-31 16:53:40 | 48.07022 | 11.72982 | 70° | 151km/h | 11886m | 4.0m/s | -51.4°C | 6.5% | 207.7hPa | 2.7V | 02:41:00 | 00:00:00 | 00:00:00 | |
| DO3MHA-11 | 2026-08-31 16:53:37 | 48.06982 | 11.72824 | 69° | 150km/h | 11873m | 4.7m/s | -51.4°C | 9.3% | 208.1hPa | 2.7V | 00:00:00 | 00:47:20 | 00:00:00 | |
| DG1MJG | 2026-08-31 16:53:34 | 48.06954 | 11.72718 | 70° | 150km/h | 11864m | 5.0m/s | -51.6°C | 6.7% | 208.4hPa | 2.7V | 02:41:00 | 00:00:00 | 00:00:00 | |
| OE5MMP-10 | 2026-08-31 16:53:33 | 48.06927 | 11.72613 | 69° | 151km/h | 11855m | 4.7m/s | -51.8°C | 9.9% | 208.6hPa | 2.7V | 02:40:00 | 00:47:16 | 00:00:00 | |
| OE5DRO-10 | 2026-08-31 16:53:32 | 48.06899 | 11.72508 | 68° | 153km/h | 11846m | 4.1m/s | -51.8°C | 10.0% | 209.0hPa | 2.6V | 02:41:00 | 00:00:00 | 00:00:00 | |
| NBG1-10 | 2026-08-31 16:53:31 | 48.06899 | 11.72508 | 68° | 151km/h | 11846m | 4.1m/s | -51.8°C | 10.0% | 209.0hPa | 2.7V | 00:00:00 | 00:47:14 | 00:00:00 | |
| DF7PN | 2026-08-31 16:53:30 | 48.06870 | 11.72403 | 68° | 151km/h | 11837m | 4.1m/s | -51.8°C | 7.1% | 209.3hPa | 2.7V | 00:00:00 | 00:00:00 | 00:00:00 | |
| DO3MHA-11 | 2026-08-31 16:53:27 | 48.06840 | 11.72296 | 67° | 153km/h | 11828m | 4.4m/s | -51.7°C | 10.0% | 209.6hPa | 2.7V | 00:00:00 | 00:47:10 | 00:00:00 | |
| DO3MHA-12 | 2026-08-31 16:53:26 | 48.06824 | 11.72243 | 67° | 153km/h | 11823m | 4.6m/s | -51.6°C | 10.0% | 209.7hPa | 2.7V | 02:41:00 | 00:47:09 | 00:00:00 | |
| DK5PH-5 | 2026-08-31 16:53:24 | 48.06793 | 11.72139 | 67° | 150km/h | 11814m | 3.6m/s | -51.6°C | 10.0% | 210.0hPa | 2.7V | 00:00:00 | 00:47:07 | 00:00:00 | |
| OE5MMP-10 | 2026-08-31 16:53:23 | 48.06778 | 11.72087 | 66° | 153km/h | 11809m | 5.7m/s | -51.5°C | 10.1% | 210.1hPa | 2.7V | 00:00:00 | 00:47:06 | 00:00:00 | |
| OE5WHR-10 | 2026-08-31 16:53:21 | 48.06746 | 11.71982 | 67° | 151km/h | 11799m | 5.2m/s | -51.4°C | 10.1% | 210.4hPa | 2.7V | 02:41:00 | 00:00:00 | 00:00:00 | |
| DG1MFX-10 | 2026-08-31 16:53:19 | 48.06730 | 11.71928 | 67° | 155km/h | 11794m | 4.5m/s | -51.4°C | 7.4% | 210.6hPa | 2.6V | 02:41:00 | 00:00:00 | 00:00:00 | |
| DO3MHA-11 | 2026-08-31 16:53:17 | 48.06681 | 11.71767 | 66° | 150km/h | 11780m | 4.9m/s | -51.3°C | 10.2% | 211.1hPa | 2.6V | 02:41:00 | 00:47:00 | 00:00:00 | |
| DO3MHA-12 | 2026-08-31 16:53:16 | 48.06665 | 11.71713 | 67° | 150km/h | 11775m | 4.9m/s | -51.2°C | 10.2% | 211.2hPa | 2.7V | 00:00:00 | 00:46:59 | 00:00:00 | |
| OE5MMP-10 | 2026-08-31 16:53:13 | 48.06619 | 11.71556 | 67° | 150km/h | 11760m | 4.4m/s | -51.1°C | 10.4% | 211.8hPa | 2.7V | 00:00:00 | 00:46:56 | 00:00:00 | |
| OE5DRO-10 | 2026-08-31 16:53:12 | 48.06605 | 11.71505 | 67° | 146km/h | 11756m | 5.5m/s | -51.1°C | 10.5% | 211.9hPa | 2.7V | 00:00:00 | 00:00:00 | 00:00:00 | |
| DL6DJ-15 | 2026-08-31 16:53:10 | 48.06559 | 11.71354 | 64° | 148km/h | 11741m | 4.0m/s | -51.1°C | 7.9% | 212.4hPa | 2.7V | 00:00:00 | 00:00:00 | 00:00:00 | |
| DO3MHA-11 | 2026-08-31 16:53:07 | 48.06526 | 11.71251 | 65° | 150km/h | 11731m | 4.5m/s | -51.0°C | 10.6% | 212.7hPa | 2.7V | 00:00:00 | 00:46:50 | 00:00:00 | |
| DO3MHA-12 | 2026-08-31 16:53:06 | 48.06509 | 11.71199 | 64° | 148km/h | 11726m | 5.9m/s | -50.9°C | 10.6% | 212.8hPa | 2.7V | 00:00:00 | 00:46:49 | 00:00:00 | |
| DG1MJG | 2026-08-31 16:53:05 | 48.06475 | 11.71095 | 65° | 155km/h | 11716m | 5.6m/s | -50.9°C | 8.2% | 213.2hPa | 2.7V | 02:41:00 | 00:00:00 | 00:00:00 | |
| OE5MMP-10 | 2026-08-31 16:53:03 | 48.06458 | 11.71043 | 65° | 144km/h | 11711m | 4.4m/s | -50.9°C | 11.2% | 213.3hPa | 2.7V | 02:41:00 | 00:46:46 | 00:00:00 | |
| DF7PN | 2026-08-31 16:52:59 | 48.06381 | 11.70791 | 66° | 141km/h | 11686m | 4.6m/s | -51.5°C | 9.7% | 214.2hPa | 2.7V | 00:00:00 | 00:00:00 | 00:00:00 | |
| NBG1-10 | 2026-08-31 16:52:58 | 48.06380 | 11.70791 | 67° | 142km/h | 11686m | 4.6m/s | -51.4°C | 12.7% | 214.1hPa | 2.7V | 00:00:00 | 00:46:41 | 00:00:00 | |
| DO3MHA-11 | 2026-08-31 16:52:57 | 48.06366 | 11.70743 | 66° | 141km/h | 11681m | 5.7m/s | -51.6°C | 13.0% | 214.3hPa | 2.7V | 00:00:00 | 00:46:40 | 00:00:00 | |
| DO3MHA-12 | 2026-08-31 16:52:56 | 48.06352 | 11.70695 | 66° | 141km/h | 11676m | 4.9m/s | -51.6°C | 13.2% | 214.5hPa | 2.7V | 02:41:00 | 00:46:39 | 00:00:00 | |
| DK5PH-5 | 2026-08-31 16:52:54 | 48.06323 | 11.70600 | 66° | 142km/h | 11665m | 4.5m/s | -51.9°C | 13.8% | 214.9hPa | 2.7V | 02:41:00 | 00:46:37 | 00:00:00 | |
| OE5MMP-10 | 2026-08-31 16:52:53 | 48.06308 | 11.70551 | 66° | 142km/h | 11660m | 6.2m/s | -52.0°C | 14.0% | 215.0hPa | 2.7V | 00:00:00 | 00:46:36 | 00:00:00 | |
| DO3MHA-11 | 2026-08-31 16:52:47 | 48.06223 | 11.70258 | 68° | 144km/h | 11626m | 5.2m/s | -52.2°C | 14.4% | 216.1hPa | 2.7V | 02:41:00 | 00:46:30 | 00:00:00 | |
| DO3MHA-12 | 2026-08-31 16:52:46 | 48.06209 | 11.70208 | 68° | 146km/h | 11621m | 4.5m/s | -52.2°C | 14.6% | 216.3hPa | 2.7V | 00:00:00 | 00:46:29 | 00:00:00 | |
| DM7RM-13 | 2026-08-31 16:52:44 | 48.06195 | 11.70159 | 69° | 144km/h | 11617m | 4.6m/s | -52.4°C | 11.6% | 216.5hPa | 2.7V | 02:42:00 | 00:00:00 | 00:00:00 | |
| OE5MMP-10 | 2026-08-31 16:52:43 | 48.06167 | 11.70057 | 68° | 146km/h | 11607m | 4.4m/s | -52.5°C | 15.2% | 216.8hPa | 2.7V | 00:00:00 | 00:46:26 | 00:00:00 | |
| PG1ADW-2 | 2026-08-31 16:52:41 | 48.06138 | 11.69956 | 67° | 144km/h | 11597m | 3.8m/s | -52.5°C | 15.5% | 217.2hPa | 2.7V | 00:00:00 | 00:00:00 | 00:00:00 | |
| DL6DJ-15 | 2026-08-31 16:52:39 | 48.06093 | 11.69804 | 65° | 144km/h | 11583m | 5.1m/s | -52.6°C | 12.5% | 217.6hPa | 2.7V | 00:00:00 | 00:00:00 | 00:00:00 | |
| DO3MHA-11 | 2026-08-31 16:52:37 | 48.06078 | 11.69755 | 65° | 144km/h | 11579m | 4.1m/s | -52.6°C | 16.1% | 217.8hPa | 2.7V | 00:00:00 | 00:46:20 | 00:00:00 | |
| DO3MHA-12 | 2026-08-31 16:52:36 | 48.06062 | 11.69706 | 65° | 144km/h | 11574m | 5.6m/s | -52.6°C | 16.0% | 217.9hPa | 2.7V | 00:00:00 | 00:46:19 | 00:00:00 | |
| OE5DRO-10 | 2026-08-31 16:52:34 | 48.06030 | 11.69607 | 64° | 141km/h | 11564m | 5.6m/s | -52.6°C | 15.8% | 218.3hPa | 2.7V | 02:41:00 | 00:00:00 | 00:00:00 | |
| OE5MMP-10 | 2026-08-31 16:52:33 | 48.06014 | 11.69557 | 65° | 142km/h | 11559m | 3.8m/s | -52.5°C | 15.8% | 218.4hPa | 2.7V | 02:41:00 | 00:46:16 | 00:00:00 | |
| OE5DXL-15 | 2026-08-31 16:52:31 | 48.05967 | 11.69410 | 66° | 139km/h | 11545m | 5.2m/s | -52.6°C | 15.6% | 218.9hPa | 2.7V | 00:00:00 | 00:00:00 | 00:00:00 | |
| DB0UT-7 | 2026-08-31 16:52:30 | 48.05967 | 11.69410 | 66° | 139km/h | 11545m | 5.2m/s | -52.6°C | 15.6% | 218.9hPa | 2.7V | 00:00:00 | 00:00:00 | 00:00:00 | |
| DF7PN | 2026-08-31 16:52:28 | 48.05922 | 11.69264 | 64° | 139km/h | 11530m | 4.8m/s | -52.5°C | -1.0% | 219.4hPa | 2.7V | 00:00:00 | 00:00:00 | 00:00:00 | |
| DO3MHA-11 | 2026-08-31 16:52:27 | 48.05921 | 11.69264 | 65° | 141km/h | 11531m | 4.8m/s | -52.5°C | 15.9% | 219.4hPa | 2.7V | 00:00:00 | 00:46:10 | 00:00:00 | |
| DO3MHA-12 | 2026-08-31 16:52:26 | 48.05906 | 11.69216 | 65° | 141km/h | 11526m | 4.0m/s | -52.4°C | 15.8% | 219.5hPa | 2.7V | 02:42:00 | 00:46:09 | 00:00:00 | |
| NBG1-10 | 2026-08-31 16:52:25 | 48.05891 | 11.69169 | 64° | 137km/h | 11521m | 5.5m/s | -52.4°C | 15.8% | 219.7hPa | 2.7V | 02:42:00 | 00:46:08 | 00:00:00 | |
| OE5MMP-10 | 2026-08-31 16:52:23 | 48.05858 | 11.69074 | 62° | 139km/h | 11512m | 4.4m/s | -52.3°C | 15.8% | 220.0hPa | 2.7V | 00:00:00 | 00:46:06 | 00:00:00 | |
| PG1ADW-2 | 2026-08-31 16:52:21 | 48.05824 | 11.68982 | 61° | 137km/h | 11503m | 4.7m/s | -52.2°C | 15.6% | 220.4hPa | 2.7V | 02:42:00 | 00:00:00 | 00:00:00 | |
| OE5WHR-10 | 2026-08-31 16:52:18 | 48.05771 | 11.68844 | 61° | 135km/h | 11488m | 5.8m/s | -52.1°C | 15.7% | 220.9hPa | 2.7V | 02:42:00 | 00:00:00 | 00:00:00 | |
| DO3MHA-11 | 2026-08-31 16:52:17 | 48.05754 | 11.68798 | 62° | 137km/h | 11483m | 4.0m/s | -52.0°C | 15.6% | 221.1hPa | 2.7V | 02:42:00 | 00:46:00 | 00:00:00 | |
| DO3MHA-12 | 2026-08-31 16:52:16 | 48.05738 | 11.68752 | 64° | 135km/h | 11479m | 3.7m/s | -52.0°C | 15.3% | 221.2hPa | 2.6V | 00:00:00 | 00:45:59 | 00:00:00 | |
| OE5DRO-10 | 2026-08-31 16:52:15 | 48.05722 | 11.68705 | 64° | 135km/h | 11474m | 6.1m/s | -52.0°C | 15.2% | 221.3hPa | 2.6V | 00:00:00 | 00:00:00 | 00:00:00 | |
| OE5MMP-10 | 2026-08-31 16:52:13 | 48.05692 | 11.68611 | 64° | 135km/h | 11463m | 5.8m/s | -51.9°C | 15.0% | 221.7hPa | 2.6V | 00:00:00 | 00:45:56 | 00:00:00 | |
| DL6DJ-15 | 2026-08-31 16:52:08 | 48.05597 | 11.68340 | 60° | 131km/h | 11430m | 4.3m/s | -51.7°C | 11.4% | 222.9hPa | 2.6V | 00:00:00 | 00:00:00 | 00:00:00 | |
| DO3MHA-11 | 2026-08-31 16:52:07 | 48.05597 | 11.68340 | 61° | 135km/h | 11430m | 4.2m/s | -51.6°C | 14.5% | 222.8hPa | 2.6V | 00:00:00 | 00:45:50 | 00:00:00 | |
| DO3MHA-12 | 2026-08-31 16:52:06 | 48.05580 | 11.68297 | 61° | 135km/h | 11425m | 5.2m/s | -51.6°C | 14.5% | 223.0hPa | 2.6V | 00:00:00 | 00:45:49 | 00:00:00 | |
| PG1ADW-2 | 2026-08-31 16:52:01 | 48.05500 | 11.68069 | 64° | 131km/h | 11400m | 4.5m/s | -51.4°C | 14.7% | 223.8hPa | 2.6V | 00:00:00 | 00:45:44 | 00:00:00 | |
| DB0UT-7 | 2026-08-31 16:52:00 | 48.05484 | 11.68025 | 63° | 130km/h | 11395m | 5.5m/s | -51.4°C | 14.9% | 224.0hPa | 2.6V | 02:42:00 | 00:45:43 | 00:00:00 | |
| DO3MHA-11 | 2026-08-31 16:51:58 | 48.05439 | 11.67890 | 65° | 131km/h | 11380m | 5.5m/s | -51.2°C | 15.0% | 224.6hPa | 2.7V | 00:00:00 | 00:45:40 | 00:00:00 | |
| DO3MHA-12 | 2026-08-31 16:51:56 | 48.05425 | 11.67846 | 66° | 131km/h | 11375m | 4.3m/s | -51.1°C | 14.8% | 224.7hPa | 2.7V | 02:42:00 | 00:45:39 | 00:00:00 | |
| DK5PH-5 | 2026-08-31 16:51:54 | 48.05397 | 11.67756 | 65° | 130km/h | 11366m | 4.3m/s | 0°C | 0% | 0hPa | 2.7V | 00:00:00 | 00:45:37 | 00:00:00 | |
| OE5MMP-10 | 2026-08-31 16:51:53 | 48.05382 | 11.67710 | 64° | 130km/h | 11362m | 4.6m/s | -51.0°C | 14.2% | 225.2hPa | 2.7V | 00:00:00 | 00:45:36 | 00:00:00 | |
| NBG1-10 | 2026-08-31 16:51:52 | 48.05367 | 11.67666 | 64° | 128km/h | 11356m | 5.9m/s | -51.0°C | 13.9% | 225.4hPa | 2.7V | 00:00:00 | 00:45:35 | 00:00:00 | |
| DO3MHA-11 | 2026-08-31 16:51:47 | 48.05288 | 11.67451 | 63° | 128km/h | 11331m | 5.0m/s | -50.8°C | 13.9% | 226.2hPa | 2.7V | 02:42:00 | 00:45:30 | 00:00:00 | |
| DO3MHA-12 | 2026-08-31 16:51:46 | 48.05273 | 11.67408 | 64° | 126km/h | 11327m | 4.0m/s | -50.8°C | 14.0% | 226.4hPa | 2.7V | 00:00:00 | 00:45:29 | 00:00:00 | |
| OE5MMP-10 | 2026-08-31 16:51:43 | 48.05231 | 11.67277 | 65° | 124km/h | 11311m | 2.9m/s | -50.6°C | 14.2% | 227.0hPa | 2.7V | 00:00:00 | 00:45:26 | 00:00:00 | |
| PG1ADW-2 | 2026-08-31 16:51:41 | 48.05204 | 11.67189 | 67° | 126km/h | 11301m | 5.1m/s | -50.5°C | 14.5% | 227.4hPa | 2.7V | 00:00:00 | 00:00:00 | 00:00:00 | |
| DL6DJ-15 | 2026-08-31 16:51:37 | 48.05136 | 11.66978 | 62° | 119km/h | 11278m | 4.0m/s | -50.6°C | 11.5% | 228.2hPa | 2.7V | 00:00:00 | 00:00:00 | 00:00:00 | |
| DO3MHA-12 | 2026-08-31 16:51:36 | 48.05136 | 11.66978 | 63° | 131km/h | 11278m | 3.9m/s | -50.5°C | 14.5% | 228.2hPa | 2.7V | 00:00:00 | 00:45:19 | 00:00:00 | |
| DB0ND-19 | 2026-08-31 16:51:32 | 48.05076 | 11.66812 | 61° | 130km/h | 11260m | 5.4m/s | -50.5°C | 11.4% | 228.9hPa | 2.7V | 00:00:00 | 00:00:00 | 00:00:00 | |
| DB0UT-7 | 2026-08-31 16:51:30 | 48.05045 | 11.66720 | 66° | 130km/h | 11250m | 5.9m/s | -50.4°C | 14.5% | 229.1hPa | 2.7V | 00:00:00 | 00:00:00 | 00:00:00 | |
| DO3MHA-11 | 2026-08-31 16:51:27 | 48.05008 | 11.66573 | 71° | 122km/h | 11234m | 6.1m/s | -50.2°C | 14.6% | 229.7hPa | 2.7V | 00:00:00 | 00:45:10 | 00:00:00 | |
| DO3MHA-12 | 2026-08-31 16:51:26 | 48.04996 | 11.66527 | 69° | 122km/h | 11228m | 7.4m/s | -50.1°C | 14.6% | 229.9hPa | 2.7V | 02:43:00 | 00:45:09 | 00:00:00 | |
| DK5PH-5 | 2026-08-31 16:51:25 | 48.04972 | 11.66443 | 66° | 117km/h | 11214m | 7.1m/s | 0°C | 0% | 0hPa | 2.7V | 00:00:00 | 00:45:07 | 00:00:00 | |
| OE5MMP-10 | 2026-08-31 16:51:24 | 48.04960 | 11.66403 | 66° | 124km/h | 11206m | 9.1m/s | -50.2°C | 14.6% | 230.6hPa | 2.7V | 00:00:00 | 00:45:06 | 00:00:00 | |
| PG1ADW-2 | 2026-08-31 16:51:21 | 48.04936 | 11.66322 | 69° | 131km/h | 11189m | 6.8m/s | -50.3°C | 15.0% | 231.3hPa | 2.7V | 02:43:00 | 00:00:00 | 00:00:00 | |
| DM7RM-13 | 2026-08-31 16:51:20 | 48.04936 | 11.66322 | 70° | 122km/h | 11189m | 6.8m/s | -50.4°C | 12.1% | 231.3hPa | 2.7V | 00:00:00 | 00:00:00 | 00:00:00 | |
| NBG1-10 | 2026-08-31 16:51:19 | 48.04915 | 11.66234 | 70° | 133km/h | 11175m | 9.1m/s | -50.4°C | 15.2% | 231.8hPa | 2.7V | 00:00:00 | 00:45:02 | 00:00:00 | |
| OE5DRO-10 | 2026-08-31 16:51:18 | 48.04904 | 11.66190 | 71° | 131km/h | 11167m | 5.8m/s | -50.3°C | 15.6% | 232.0hPa | 2.7V | 00:00:00 | 00:00:00 | 00:00:00 | |
| DO3MHA-11 | 2026-08-31 16:51:17 | 48.04894 | 11.66146 | 71° | 133km/h | 11162m | 4.1m/s | -50.3°C | 15.5% | 232.3hPa | 2.7V | 02:43:00 | 00:45:00 | 00:00:00 | |
| DO3MHA-12 | 2026-08-31 16:51:16 | 48.04883 | 11.66100 | 71° | 133km/h | 11157m | 5.9m/s | -50.3°C | 15.5% | 232.4hPa | 2.7V | 00:00:00 | 00:44:59 | 00:00:00 | |
| OE5WHR-10 | 2026-08-31 16:51:15 | 48.04871 | 11.66054 | 70° | 133km/h | 11151m | 6.4m/s | -50.2°C | 15.5% | 232.7hPa | 2.7V | 02:43:00 | 00:00:00 | 00:00:00 | |
| OE5MMP-10 | 2026-08-31 16:51:13 | 48.04848 | 11.65960 | 71° | 133km/h | 11141m | 3.7m/s | -50.1°C | 15.8% | 233.0hPa | 2.7V | 00:00:00 | 00:44:56 | 00:00:00 | |
| BAUMI2-15 | 2026-08-31 16:51:08 | 48.04793 | 11.65721 | 71° | 133km/h | 11118m | 5.3m/s | -50.3°C | 15.9% | 233.9hPa | 2.7V | 02:43:00 | 00:44:51 | 00:00:00 | |
| DO3MHA-11 | 2026-08-31 16:51:07 | 48.04782 | 11.65673 | 71° | 133km/h | 11113m | 3.7m/s | -50.3°C | 16.1% | 234.0hPa | 2.7V | 00:00:00 | 00:44:50 | 00:00:00 | |
| OE5MMP-10 | 2026-08-31 16:51:03 | 48.04737 | 11.65485 | 71° | 133km/h | 11095m | 3.9m/s | -50.2°C | 16.1% | 234.7hPa | 2.7V | 02:43:00 | 00:44:46 | 00:00:00 | |
| PG1ADW-2 | 2026-08-31 16:51:01 | 48.04714 | 11.65391 | 70° | 135km/h | 11085m | 4.3m/s | -50.2°C | 16.4% | 235.0hPa | 2.7V | 00:00:00 | 00:00:00 | 00:00:00 | |
| OE5DXL-15 | 2026-08-31 16:51:00 | 48.04703 | 11.65343 | 71° | 135km/h | 11080m | 5.0m/s | -50.2°C | 16.6% | 235.2hPa | 2.7V | 00:00:00 | 00:00:00 | 00:00:00 | |
| OE5DRO-10 | 2026-08-31 16:50:59 | 48.04691 | 11.65296 | 71° | 135km/h | 11076m | 4.1m/s | -50.2°C | 16.8% | 235.3hPa | 2.7V | 00:00:00 | 00:00:00 | 00:00:00 | |
| DO3MHA-11 | 2026-08-31 16:50:57 | 48.04668 | 11.65202 | 70° | 135km/h | 11067m | 3.3m/s | -50.1°C | 17.1% | 235.6hPa | 2.7V | 00:00:00 | 00:44:40 | 00:00:00 | |
| DO3MHA-12 | 2026-08-31 16:50:56 | 48.04656 | 11.65155 | 70° | 135km/h | 11062m | 4.8m/s | -50.1°C | 17.2% | 235.8hPa | 2.7V | 02:43:00 | 00:44:39 | 00:00:00 | |
| DG1MFX-10 | 2026-08-31 16:50:55 | 48.04656 | 11.65155 | 71° | 133km/h | 11062m | 4.8m/s | -50.2°C | 14.1% | 235.8hPa | 2.7V | 02:44:00 | 00:00:00 | 00:00:00 | |
| OE5WHR-10 | 2026-08-31 16:50:54 | 48.04634 | 11.65061 | 70° | 137km/h | 11054m | 4.7m/s | -50.1°C | 17.2% | 236.1hPa | 2.7V | 00:00:00 | 00:00:00 | 00:00:00 | |
| OE5MMP-10 | 2026-08-31 16:50:53 | 48.04622 | 11.65014 | 70° | 137km/h | 11049m | 4.2m/s | -50.1°C | 17.3% | 236.3hPa | 2.7V | 00:00:00 | 00:44:36 | 00:00:00 | |
| DM7RM-13 | 2026-08-31 16:50:52 | 48.04622 | 11.65014 | 70° | 133km/h | 11049m | 4.3m/s | -50.1°C | 14.2% | 236.3hPa | 2.7V | 02:44:00 | 00:00:00 | 00:00:00 | |
| DO3MHA-11 | 2026-08-31 16:50:47 | 48.04550 | 11.64723 | 71° | 137km/h | 11023m | 3.5m/s | -50.2°C | 17.6% | 237.2hPa | 2.7V | 02:43:00 | 00:44:30 | 00:00:00 | |
| NBG1-10 | 2026-08-31 16:50:46 | 48.04538 | 11.64673 | 71° | 139km/h | 11020m | 3.0m/s | -50.3°C | 17.7% | 237.3hPa | 2.7V | 02:43:00 | 00:44:29 | 00:00:00 | |
| OE5MMP-10 | 2026-08-31 16:50:43 | 48.04503 | 11.64527 | 71° | 137km/h | 11008m | 4.7m/s | -50.4°C | 18.3% | 237.8hPa | 2.7V | 00:00:00 | 00:44:26 | 00:00:00 | |
| PG1ADW-2 | 2026-08-31 16:50:41 | 48.04480 | 11.64431 | 71° | 139km/h | 11000m | 4.0m/s | -50.5°C | 18.3% | 238.0hPa | 2.7V | 00:00:00 | 00:44:24 | 00:00:00 | |
| OE5DRO-10 | 2026-08-31 16:50:40 | 48.04469 | 11.64384 | 70° | 139km/h | 10996m | 3.9m/s | -50.5°C | 18.4% | 238.1hPa | 2.7V | 02:43:00 | 00:00:00 | 00:00:00 | |
| DO3MHA-11 | 2026-08-31 16:50:37 | 48.04434 | 11.64240 | 70° | 139km/h | 10983m | 4.5m/s | -50.4°C | 18.7% | 238.6hPa | 2.7V | 00:00:00 | 00:44:20 | 00:00:00 | |
| DO3MHA-12 | 2026-08-31 16:50:36 | 48.04421 | 11.64191 | 70° | 139km/h | 10980m | 3.6m/s | -50.4°C | 18.9% | 238.8hPa | 2.7V | 00:00:00 | 00:44:19 | 00:00:00 | |
| DL6DJ-15 | 2026-08-31 16:50:34 | 48.04396 | 11.64092 | 69° | 139km/h | 10971m | 4.2m/s | -50.5°C | 15.9% | 239.2hPa | 2.7V | 00:00:00 | 00:00:00 | 00:00:00 | |
| OE5WHR-10 | 2026-08-31 16:50:33 | 48.04384 | 11.64043 | 70° | 139km/h | 10968m | 3.3m/s | -50.5°C | 19.1% | 239.2hPa | 2.7V | 00:00:00 | 00:44:16 | 00:00:00 | |
| DM7RM-13 | 2026-08-31 16:50:31 | 48.04371 | 11.63994 | 70° | 137km/h | 10964m | 4.9m/s | -50.6°C | 16.0% | 239.4hPa | 2.7V | 02:44:00 | 00:00:00 | 00:00:00 | |
| OE5DXL-15 | 2026-08-31 16:50:30 | 48.04347 | 11.63898 | 70° | 139km/h | 10956m | 4.6m/s | -50.5°C | 19.3% | 239.7hPa | 2.7V | 02:44:00 | 00:00:00 | 00:00:00 | |
| DO3MHA-11 | 2026-08-31 16:50:27 | 48.04309 | 11.63753 | 69° | 141km/h | 10944m | 3.9m/s | -50.5°C | 19.5% | 240.1hPa | 2.7V | 00:00:00 | 00:44:10 | 00:00:00 | |
| DO3MHA-12 | 2026-08-31 16:50:26 | 48.04297 | 11.63704 | 70° | 141km/h | 10940m | 4.5m/s | -50.4°C | 19.6% | 240.3hPa | 2.7V | 02:44:00 | 00:44:09 | 00:00:00 | |
| OE5MMP-10 | 2026-08-31 16:50:23 | 48.04259 | 11.63554 | 70° | 139km/h | 10927m | 3.3m/s | -50.4°C | 19.5% | 240.7hPa | 2.7V | 00:00:00 | 00:44:06 | 00:00:00 | |
| PG1ADW-2 | 2026-08-31 16:50:21 | 48.04235 | 11.63454 | 71° | 139km/h | 10919m | 3.5m/s | -50.4°C | 19.6% | 241.0hPa | 2.7V | 02:44:00 | 00:00:00 | 00:00:00 | |
| DO3MHA-11 | 2026-08-31 16:50:17 | 48.04186 | 11.63257 | 71° | 139km/h | 10905m | 4.3m/s | -50.3°C | 19.1% | 241.5hPa | 2.7V | 02:44:00 | 00:44:00 | 00:00:00 | |
| DO3MHA-12 | 2026-08-31 16:50:16 | 48.04174 | 11.63208 | 70° | 139km/h | 10901m | 3.1m/s | -50.3°C | 19.0% | 241.7hPa | 2.7V | 00:00:00 | 00:43:59 | 00:00:00 | |
| BAUMI2-15 | 2026-08-31 16:50:14 | 48.04150 | 11.63111 | 70° | 139km/h | 10894m | 3.4m/s | -50.3°C | 19.1% | 241.9hPa | 2.7V | 00:00:00 | 00:43:57 | 00:00:00 | |
| NBG1-10 | 2026-08-31 16:50:13 | 48.04137 | 11.63063 | 70° | 137km/h | 10890m | 4.0m/s | -50.2°C | 19.3% | 242.1hPa | 2.7V | 00:00:00 | 00:43:56 | 00:00:00 | |
| OE5WHR-10 | 2026-08-31 16:50:12 | 48.04125 | 11.63014 | 70° | 137km/h | 10886m | 3.7m/s | -50.2°C | 19.3% | 242.2hPa | 2.7V | 02:44:00 | 00:00:00 | 00:00:00 | |
| DM7RM-13 | 2026-08-31 16:50:11 | 48.04125 | 11.63014 | 70° | 139km/h | 10886m | 3.8m/s | -50.2°C | 16.1% | 242.3hPa | 2.7V | 02:44:00 | 00:00:00 | 00:00:00 | |
| BAUMI2-15 | 2026-08-31 16:50:09 | 48.04087 | 11.62867 | 70° | 137km/h | 10874m | 4.3m/s | -50.2°C | 19.8% | 242.7hPa | 2.7V | 00:00:00 | 00:43:52 | 00:00:00 | |
| DO3MHA-11 | 2026-08-31 16:50:08 | 48.04064 | 11.62770 | 70° | 139km/h | 10866m | 4.4m/s | -50.2°C | 19.7% | 243.0hPa | 2.7V | 00:00:00 | 00:43:50 | 00:00:00 | |
| DO3MHA-12 | 2026-08-31 16:50:06 | 48.04052 | 11.62721 | 71° | 139km/h | 10862m | 3.2m/s | -50.2°C | 19.9% | 243.1hPa | 2.7V | 00:00:00 | 00:43:49 | 00:00:00 | |
| OE5MMP-10 | 2026-08-31 16:50:03 | 48.04017 | 11.62571 | 72° | 137km/h | 10851m | 4.0m/s | -50.2°C | 20.0% | 243.5hPa | 2.7V | 02:44:00 | 00:43:46 | 00:00:00 | |
| DB0ND-19 | 2026-08-31 16:49:59 | 48.03888 | 11.62042 | 69° | 133km/h | 10808m | 3.3m/s | -50.2°C | 16.7% | 245.2hPa | 2.7V | 00:00:00 | 00:00:00 | 00:00:00 | |
| DO3MHA-11 | 2026-08-31 16:49:57 | 48.03947 | 11.62278 | 70° | 133km/h | 10828m | 2.8m/s | -50.2°C | 20.3% | 244.4hPa | 2.7V | 00:00:00 | 00:43:40 | 00:00:00 | |
| DO3MHA-12 | 2026-08-31 16:49:56 | 48.03936 | 11.62230 | 70° | 133km/h | 10824m | 4.6m/s | -50.1°C | 20.1% | 244.5hPa | 2.7V | 02:44:00 | 00:43:39 | 00:00:00 | |
| DO8TBO-1 | 2026-08-31 16:49:55 | 48.03900 | 11.62089 | 70° | 135km/h | 10812m | 3.6m/s | -50.1°C | 20.0% | 245.0hPa | 2.7V | 02:44:00 | 00:43:36 | 00:00:00 | |
| OE5MMP-10 | 2026-08-31 16:49:53 | 48.03900 | 11.62089 | 70° | 135km/h | 10812m | 3.6m/s | -50.1°C | 20.0% | 245.0hPa | 2.7V | 00:00:00 | 00:43:36 | 00:00:00 | |
| OE5WHR-10 | 2026-08-31 16:49:51 | 48.03877 | 11.61995 | 71° | 137km/h | 10805m | 3.9m/s | -50.2°C | 20.1% | 245.3hPa | 2.7V | 00:00:00 | 00:00:00 | 00:00:00 | |
| DO3MHA-11 | 2026-08-31 16:49:47 | 48.03829 | 11.61804 | 69° | 139km/h | 10790m | 4.5m/s | -50.0°C | 19.7% | 245.8hPa | 2.7V | 02:44:00 | 00:43:30 | 00:00:00 | |
| DO3MHA-12 | 2026-08-31 16:49:46 | 48.03817 | 11.61757 | 70° | 139km/h | 10786m | 3.2m/s | -50.0°C | 19.7% | 245.9hPa | 2.7V | 00:00:00 | 00:43:29 | 00:00:00 | |
| OE5MMP-10 | 2026-08-31 16:49:43 | 48.03780 | 11.61611 | 71° | 139km/h | 10774m | 4.3m/s | -49.9°C | 19.9% | 246.4hPa | 2.7V | 00:00:00 | 00:43:26 | 00:00:00 | |
| PG1ADW-2 | 2026-08-31 16:49:41 | 48.03756 | 11.61512 | 71° | 139km/h | 10766m | 3.7m/s | -49.8°C | 19.9% | 246.7hPa | 2.7V | 00:00:00 | 00:00:00 | 00:00:00 | |
| NBG1-10 | 2026-08-31 16:49:40 | 48.03745 | 11.61461 | 72° | 137km/h | 10763m | 3.0m/s | -49.8°C | 19.8% | 246.8hPa | 2.7V | 00:00:00 | 00:43:23 | 00:00:00 | |
| DO3MHA-11 | 2026-08-31 16:49:37 | 48.03710 | 11.61313 | 70° | 135km/h | 10752m | 4.0m/s | -49.8°C | 20.2% | 247.2hPa | 2.7V | 00:00:00 | 00:43:20 | 00:00:00 | |
| DO3MHA-12 | 2026-08-31 16:49:36 | 48.03698 | 11.61265 | 70° | 135km/h | 10748m | 3.6m/s | -49.8°C | 19.9% | 247.4hPa | 2.7V | 00:00:00 | 00:43:19 | 00:00:00 | |
| DL6DJ-15 | 2026-08-31 16:49:33 | 48.03649 | 11.61076 | 68° | 133km/h | 10732m | 3.5m/s | -49.8°C | 16.9% | 248.0hPa | 2.7V | 00:00:00 | 00:00:00 | 00:00:00 | |
| DM7RM-13 | 2026-08-31 16:49:31 | 48.03649 | 11.61076 | 69° | 135km/h | 10733m | 3.5m/s | 0°C | 0% | 248.0hPa | 2.7V | 00:00:00 | 00:00:00 | 00:00:00 | |
| DB0UT-7 | 2026-08-31 16:49:30 | 48.03623 | 11.60981 | 69° | 139km/h | 10725m | 4.2m/s | -49.7°C | 20.0% | 248.3hPa | 2.7V | 00:00:00 | 00:00:00 | 00:00:00 | |
| DO3MHA-11 | 2026-08-31 16:49:27 | 48.03588 | 11.60834 | 72° | 137km/h | 10713m | 3.9m/s | -49.6°C | 19.9% | 248.7hPa | 2.7V | 00:00:00 | 00:43:10 | 00:00:00 | |
| DO3MHA-12 | 2026-08-31 16:49:26 | 48.03577 | 11.60785 | 72° | 137km/h | 10710m | 2.7m/s | -49.5°C | 19.9% | 248.9hPa | 2.7V | 02:45:00 | 00:43:09 | 00:00:00 | |
| OE5DRO-10 | 2026-08-31 16:49:24 | 48.03553 | 11.60686 | 70° | 139km/h | 10702m | 3.4m/s | -49.5°C | 19.7% | 249.1hPa | 2.7V | 00:00:00 | 00:00:00 | 00:00:00 | |
| OE5MMP-10 | 2026-08-31 16:49:23 | 48.03541 | 11.60637 | 70° | 141km/h | 10698m | 4.1m/s | -49.4°C | 19.4% | 249.3hPa | 2.7V | 00:00:00 | 00:43:06 | 00:00:00 | |
| PG1ADW-2 | 2026-08-31 16:49:21 | 48.03516 | 11.60540 | 69° | 139km/h | 10691m | 4.2m/s | 0°C | 0% | 0hPa | 2.7V | 02:45:00 | 00:43:04 | 00:00:00 | |
| DO3MHA-11 | 2026-08-31 16:49:17 | 48.03464 | 11.60349 | 69° | 139km/h | 10676m | 2.9m/s | -49.4°C | 19.9% | 250.1hPa | 2.7V | 02:45:00 | 00:43:00 | 00:00:00 | |
| DO3MHA-12 | 2026-08-31 16:49:16 | 48.03452 | 11.60301 | 69° | 141km/h | 10673m | 4.3m/s | -49.3°C | 19.8% | 250.3hPa | 2.7V | 00:00:00 | 00:42:59 | 00:00:00 | |
| DG1MFX-10 | 2026-08-31 16:49:12 | 48.03413 | 11.60156 | 70° | 139km/h | 10661m | 3.5m/s | -49.3°C | 16.4% | 250.8hPa | 2.7V | 02:45:00 | 00:00:00 | 00:00:00 | |
| DM7RM-13 | 2026-08-31 16:49:11 | 48.03401 | 11.60107 | 71° | 141km/h | 10657m | 4.1m/s | 0°C | 0% | 0hPa | 2.7V | 00:00:00 | 00:00:00 | 00:00:00 | |
| DB0NH | 2026-08-31 16:49:10 | 48.03377 | 11.60008 | 71° | 141km/h | 10649m | 4.0m/s | -49.2°C | 19.1% | 251.2hPa | 2.7V | 02:45:00 | 00:42:53 | 00:00:00 | |
| OE5WHR-10 | 2026-08-31 16:49:09 | 48.03365 | 11.59958 | 71° | 141km/h | 10645m | 3.4m/s | -49.2°C | 19.3% | 251.3hPa | 2.7V | 02:45:00 | 00:00:00 | 00:00:00 | |
| DO3MHA-11 | 2026-08-31 16:49:07 | 48.03341 | 11.59856 | 72° | 139km/h | 10638m | 4.7m/s | -49.1°C | 19.2% | 251.7hPa | 2.7V | 00:00:00 | 00:42:50 | 00:00:00 | |
| DO3MHA-12 | 2026-08-31 16:49:06 | 48.03330 | 11.59805 | 72° | 139km/h | 10633m | 3.3m/s | -49.1°C | 19.5% | 251.8hPa | 2.7V | 00:00:00 | 00:42:49 | 00:00:00 | |
| DL6DJ-15 | 2026-08-31 16:49:01 | 48.03269 | 11.59556 | 68° | 137km/h | 10613m | 4.6m/s | -49.0°C | 16.3% | 252.6hPa | 2.7V | 00:00:00 | 00:00:00 | 00:00:00 | |
| DF7PN | 2026-08-31 16:48:50 | 48.03134 | 11.59017 | 70° | 139km/h | 10572m | 4.5m/s | 0°C | -1.0% | -1.0hPa | 2.7V | 00:00:00 | 00:00:00 | 00:00:00 | |
| OE5WHR-10 | 2026-08-31 16:48:48 | 48.03110 | 11.58918 | 70° | 141km/h | 10565m | 4.4m/s | -48.8°C | 19.6% | 254.5hPa | 2.7V | 00:00:00 | 00:00:00 | 00:00:00 | |
| OE5MMP-10 | 2026-08-31 16:48:47 | 48.03097 | 11.58868 | 70° | 139km/h | 10561m | 3.3m/s | -48.7°C | 19.8% | 254.7hPa | 2.7V | 00:00:00 | 00:42:30 | 00:00:00 | |
| DO3MHA-12 | 2026-08-31 16:48:46 | 48.03085 | 11.58819 | 70° | 139km/h | 10557m | 4.7m/s | -48.7°C | 19.5% | 254.8hPa | 2.7V | 00:00:00 | 00:42:29 | 00:00:00 | |
| PG1ADW-2 | 2026-08-31 16:48:41 | 48.03023 | 11.58575 | 70° | 141km/h | 10536m | 3.5m/s | 0°C | 0% | 0hPa | 2.7V | 00:00:00 | 00:00:00 | 00:00:00 | |
| DO3MHA-11 | 2026-08-31 16:48:37 | 48.02973 | 11.58377 | 70° | 142km/h | 10521m | 3.4m/s | -48.5°C | 19.4% | 256.2hPa | 2.7V | 00:00:00 | 00:42:20 | 00:00:00 | |
| DO3MHA-12 | 2026-08-31 16:48:36 | 48.02960 | 11.58326 | 69° | 142km/h | 10517m | 4.3m/s | -48.4°C | 19.3% | 256.4hPa | 2.7V | 00:00:00 | 00:42:19 | 00:00:00 | |
| DB0NH | 2026-08-31 16:48:34 | 48.02934 | 11.58225 | 69° | 139km/h | 10509m | 4.2m/s | -48.4°C | 19.4% | 256.7hPa | 2.7V | 00:00:00 | 00:42:17 | 00:00:00 | |
| DG1MFX-10 | 2026-08-31 16:48:32 | 48.02921 | 11.58175 | 70° | 142km/h | 10505m | 3.0m/s | -48.5°C | 16.4% | 256.9hPa | 2.7V | 02:46:00 | 00:00:00 | 00:00:00 | |
| DG1MJG | 2026-08-31 16:48:31 | 48.02880 | 11.58027 | 69° | 141km/h | 10493m | 4.9m/s | -48.4°C | 16.3% | 257.4hPa | 2.7V | 02:46:00 | 00:00:00 | 00:00:00 | |
| DO3MHA-11 | 2026-08-31 16:48:27 | 48.02839 | 11.57880 | 67° | 142km/h | 10481m | 3.4m/s | -48.3°C | 19.2% | 257.8hPa | 2.7V | 00:00:00 | 00:42:10 | 00:00:00 | |
| DO3MHA-12 | 2026-08-31 16:48:26 | 48.02825 | 11.57832 | 67° | 142km/h | 10478m | 4.4m/s | -48.3°C | 19.1% | 257.9hPa | 2.7V | 02:46:00 | 00:42:09 | 00:00:00 | |
| DO8TBO-1 | 2026-08-31 16:48:23 | 48.02756 | 11.57585 | 69° | 141km/h | 10457m | 3.7m/s | -48.1°C | 19.0% | 258.7hPa | 2.7V | 02:46:00 | 00:42:04 | 00:00:00 | |
| PG1ADW-2 | 2026-08-31 16:48:20 | 48.02742 | 11.57535 | 69° | 142km/h | 10453m | 5.0m/s | 0°C | 0% | 0hPa | 2.7V | 00:00:00 | 00:00:00 | 00:00:00 | |
| DF7PN | 2026-08-31 16:48:19 | 48.02729 | 11.57485 | 67° | 144km/h | 10448m | 3.8m/s | 0°C | -1.0% | -1.0hPa | 2.7V | 00:00:00 | 00:00:00 | 00:00:00 | |
| DO3MHA-11 | 2026-08-31 16:48:17 | 48.02701 | 11.57385 | 68° | 141km/h | 10439m | 3.6m/s | -48.0°C | 19.1% | 259.4hPa | 2.7V | 02:46:00 | 00:42:00 | 00:00:00 | |
| DO3MHA-12 | 2026-08-31 16:48:16 | 48.02688 | 11.57336 | 67° | 142km/h | 10435m | 3.5m/s | -48.0°C | 19.0% | 259.5hPa | 2.7V | 00:00:00 | 00:41:59 | 00:00:00 | |
| DG1MFX-10 | 2026-08-31 16:48:11 | 48.02630 | 11.57139 | 67° | 141km/h | 10420m | 4.4m/s | -48.0°C | 16.0% | 260.2hPa | 2.7V | 02:46:00 | 00:00:00 | 00:00:00 | |
| OE5DRO-10 | 2026-08-31 16:48:08 | 48.02572 | 11.56945 | 67° | 141km/h | 10404m | 3.4m/s | -47.8°C | 19.0% | 260.8hPa | 2.7V | 00:00:00 | 00:00:00 | 00:00:00 | |
| OE5MMP-10 | 2026-08-31 16:48:07 | 48.02558 | 11.56896 | 67° | 142km/h | 10400m | 4.2m/s | -47.8°C | 19.1% | 260.9hPa | 2.7V | 00:00:00 | 00:41:50 | 00:00:00 | |
| OE5WHR-10 | 2026-08-31 16:48:06 | 48.02543 | 11.56847 | 67° | 141km/h | 10396m | 3.3m/s | -47.8°C | 19.0% | 261.1hPa | 2.7V | 02:46:00 | 00:00:00 | 00:00:00 | |
| DL6DJ-15 | 2026-08-31 16:47:59 | 48.02443 | 11.56502 | 66° | 142km/h | 10367m | 4.6m/s | -47.7°C | 15.6% | 262.3hPa | 2.7V | 00:00:00 | 00:00:00 | 00:00:00 | |
| DG1MJG | 2026-08-31 16:47:58 | 48.02443 | 11.56502 | 67° | 142km/h | 10367m | 4.6m/s | -47.7°C | 15.6% | 262.3hPa | 2.7V | 02:46:00 | 00:00:00 | 00:00:00 | |
| DO3MHA-11 | 2026-08-31 16:47:57 | 48.02414 | 11.56404 | 66° | 139km/h | 10359m | 4.7m/s | -47.6°C | 18.5% | 262.6hPa | 2.7V | 00:00:00 | 00:41:40 | 00:00:00 | |
| DO3MHA-12 | 2026-08-31 16:47:56 | 48.02399 | 11.56356 | 66° | 139km/h | 10354m | 3.4m/s | -47.5°C | 18.4% | 262.8hPa | 2.7V | 02:46:00 | 00:41:39 | 00:00:00 | |
| DG1MFX-10 | 2026-08-31 16:47:50 | 48.02326 | 11.56119 | 66° | 139km/h | 10333m | 4.1m/s | -47.5°C | 15.7% | 263.7hPa | 2.7V | 02:47:00 | 00:00:00 | 00:00:00 | |
| OE5DRO-10 | 2026-08-31 16:47:49 | 48.02297 | 11.56023 | 66° | 139km/h | 10325m | 3.7m/s | -47.3°C | 18.7% | 264.0hPa | 2.7V | 02:46:00 | 00:00:00 | 00:00:00 | |
| DO3MHA-11 | 2026-08-31 16:47:47 | 48.02268 | 11.55928 | 67° | 139km/h | 10317m | 3.9m/s | -47.3°C | 18.5% | 264.3hPa | 2.7V | 02:46:00 | 00:41:30 | 00:00:00 | |
| DO3MHA-12 | 2026-08-31 16:47:46 | 48.02254 | 11.55880 | 67° | 139km/h | 10313m | 3.7m/s | -47.3°C | 18.7% | 264.4hPa | 2.7V | 00:00:00 | 00:41:29 | 00:00:00 | |
| OE5WHR-10 | 2026-08-31 16:47:45 | 48.02240 | 11.55832 | 67° | 141km/h | 10309m | 3.9m/s | -47.3°C | 18.8% | 264.6hPa | 2.7V | 00:00:00 | 00:00:00 | 00:00:00 | |
| DO3MHA-11 | 2026-08-31 16:47:37 | 48.02122 | 11.55451 | 65° | 141km/h | 10276m | 4.1m/s | -47.1°C | 18.5% | 266.0hPa | 2.7V | 00:00:00 | 00:41:20 | 00:00:00 | |
| DO3MHA-12 | 2026-08-31 16:47:36 | 48.02107 | 11.55403 | 65° | 141km/h | 10271m | 5.2m/s | -47.1°C | 18.4% | 266.1hPa | 2.7V | 00:00:00 | 00:41:19 | 00:00:00 | |
| PG1ADW-2 | 2026-08-31 16:47:33 | 48.02062 | 11.55260 | 65° | 141km/h | 10258m | 4.1m/s | 0°C | 0% | 0hPa | 2.7V | 00:00:00 | 00:00:00 | 00:00:00 | |
| DG1MFX-10 | 2026-08-31 16:47:31 | 48.02032 | 11.55165 | 65° | 139km/h | 10249m | 3.7m/s | -47.0°C | 15.7% | 267.1hPa | 2.7V | 02:47:00 | 00:00:00 | 00:00:00 | |
| DB0UT-7 | 2026-08-31 16:47:30 | 48.02016 | 11.55117 | 65° | 141km/h | 10245m | 5.0m/s | -46.9°C | 18.4% | 267.2hPa | 2.7V | 02:47:00 | 00:00:00 | 00:00:00 | |
| NBG1-10 | 2026-08-31 16:47:28 | 48.01985 | 11.55021 | 65° | 141km/h | 10236m | 5.1m/s | -46.8°C | 18.0% | 267.5hPa | 2.7V | 02:47:00 | 00:41:11 | 00:00:00 | |
| OE5MMP-10 | 2026-08-31 16:47:27 | 48.01970 | 11.54973 | 65° | 141km/h | 10232m | 3.6m/s | -46.8°C | 17.9% | 267.8hPa | 2.7V | 02:47:00 | 00:41:10 | 00:00:00 | |
| DO3MHA-12 | 2026-08-31 16:47:26 | 48.01954 | 11.54925 | 65° | 141km/h | 10227m | 5.2m/s | -46.8°C | 18.0% | 267.9hPa | 2.7V | 02:47:00 | 00:41:09 | 00:00:00 | |
| OE5WHR-10 | 2026-08-31 16:47:24 | 48.01924 | 11.54828 | 65° | 142km/h | 10218m | 4.8m/s | -46.7°C | 18.0% | 268.3hPa | 2.7V | 00:00:00 | 00:41:07 | 00:00:00 | |
| OE5MMP-10 | 2026-08-31 16:47:18 | 48.01815 | 11.54496 | 63° | 142km/h | 10188m | 4.3m/s | -46.5°C | 18.2% | 269.4hPa | 2.7V | 00:00:00 | 00:41:00 | 00:00:00 | |
| DO3MHA-11 | 2026-08-31 16:47:17 | 48.01815 | 11.54496 | 63° | 142km/h | 10188m | 4.3m/s | -46.5°C | 18.2% | 269.4hPa | 2.7V | 02:47:00 | 00:41:00 | 00:00:00 | |
| DO3MHA-12 | 2026-08-31 16:47:16 | 48.01798 | 11.54448 | 63° | 142km/h | 10184m | 2.9m/s | -46.5°C | 18.2% | 269.6hPa | 2.7V | 00:00:00 | 00:40:59 | 00:00:00 | |
| DO8TBO-1 | 2026-08-31 16:47:14 | 48.01734 | 11.54257 | 64° | 141km/h | 10168m | 4.2m/s | -46.4°C | 17.9% | 270.3hPa | 2.7V | 00:00:00 | 00:40:55 | 00:00:00 | |
| PG1ADW-2 | 2026-08-31 16:47:12 | 48.01734 | 11.54257 | 64° | 141km/h | 10168m | 4.2m/s | 0°C | 0% | 0hPa | 2.7V | 00:00:00 | 00:00:00 | 00:00:00 | |
| OE5DRO-10 | 2026-08-31 16:47:11 | 48.01718 | 11.54209 | 64° | 141km/h | 10163m | 5.2m/s | -46.4°C | 18.0% | 270.5hPa | 2.7V | 00:00:00 | 00:00:00 | 00:00:00 | |
| DG1MFX-10 | 2026-08-31 16:47:09 | 48.01702 | 11.54161 | 64° | 141km/h | 10158m | 4.0m/s | -46.4°C | 15.3% | 270.8hPa | 2.7V | 02:47:00 | 00:00:00 | 00:00:00 | |
| BAUMI2-15 | 2026-08-31 16:47:08 | 48.01669 | 11.54066 | 63° | 141km/h | 10150m | 3.5m/s | -46.3°C | 17.7% | 271.0hPa | 2.7V | 00:00:00 | 00:40:51 | 00:00:00 | |
| DO3MHA-11 | 2026-08-31 16:47:07 | 48.01653 | 11.54019 | 63° | 141km/h | 10145m | 5.1m/s | -46.3°C | 17.7% | 271.3hPa | 2.7V | 00:00:00 | 00:40:50 | 00:00:00 | |
| DO3MHA-12 | 2026-08-31 16:47:06 | 48.01636 | 11.53973 | 63° | 141km/h | 10140m | 4.2m/s | -46.3°C | 17.9% | 271.4hPa | 2.7V | 00:00:00 | 00:40:49 | 00:00:00 | |
| DL6DJ-15 | 2026-08-31 16:46:57 | 48.01487 | 11.53548 | 62° | 141km/h | 10102m | 4.1m/s | -46.1°C | 14.7% | 273.0hPa | 2.7V | 00:00:00 | 00:00:00 | 00:00:00 | |
| DB0ND-19 | 2026-08-31 16:46:53 | 48.01371 | 11.53217 | 62° | 141km/h | 10071m | 4.1m/s | -46.0°C | -1.0% | 274.3hPa | 2.7V | 00:00:00 | 00:00:00 | 00:00:00 | |
| OE5DRO-10 | 2026-08-31 16:46:52 | 48.01404 | 11.53312 | 63° | 142km/h | 10080m | 4.2m/s | -45.9°C | 17.2% | 273.9hPa | 2.7V | 02:47:00 | 00:00:00 | 00:00:00 | |
| BAUMI2-15 | 2026-08-31 16:46:50 | 48.01371 | 11.53217 | 63° | 141km/h | 10071m | 4.1m/s | -45.9°C | 17.2% | 274.2hPa | 2.7V | 00:00:00 | 00:40:33 | 00:00:00 | |
| DG1MFX-10 | 2026-08-31 16:46:48 | 48.01355 | 11.53170 | 64° | 142km/h | 10067m | 4.8m/s | -46.0°C | 14.6% | 274.5hPa | 2.7V | 02:48:00 | 00:00:00 | 00:00:00 | |
| OE5MMP-10 | 2026-08-31 16:46:47 | 48.01321 | 11.53075 | 63° | 141km/h | 10058m | 3.5m/s | -45.9°C | 17.1% | 274.7hPa | 2.7V | 00:00:00 | 00:40:30 | 00:00:00 | |
| DO3MHA-12 | 2026-08-31 16:46:46 | 48.01305 | 11.53028 | 62° | 141km/h | 10054m | 4.5m/s | -45.9°C | 17.2% | 274.9hPa | 2.7V | 00:00:00 | 00:40:29 | 00:00:00 | |
| BAUMI2-15 | 2026-08-31 16:46:44 | 48.01270 | 11.52936 | 60° | 142km/h | 10045m | 5.2m/s | -45.8°C | 17.0% | 275.3hPa | 2.7V | 00:00:00 | 00:40:27 | 00:00:00 | |
| DO8TBO-1 | 2026-08-31 16:46:43 | 48.01215 | 11.52801 | 60° | 141km/h | 10032m | 3.3m/s | -45.8°C | 17.4% | 275.8hPa | 2.7V | 02:47:00 | 00:40:24 | 00:00:00 | |
| DO3MHA-11 | 2026-08-31 16:46:37 | 48.01147 | 11.52611 | 65° | 142km/h | 10014m | 3.6m/s | -45.5°C | 17.1% | 276.6hPa | 2.7V | 00:00:00 | 00:40:20 | 00:00:00 | |
| DO3MHA-12 | 2026-08-31 16:46:36 | 48.01132 | 11.52561 | 66° | 142km/h | 10010m | 5.0m/s | -45.5°C | 16.8% | 276.7hPa | 2.7V | 00:00:00 | 00:40:19 | 00:00:00 | |
| OE5DRO-10 | 2026-08-31 16:46:33 | 48.01086 | 11.52411 | 64° | 139km/h | 9997m | 3.6m/s | -45.4°C | 16.1% | 277.3hPa | 2.7V | 00:00:00 | 00:00:00 | 00:00:00 | |
| BAUMI2-15 | 2026-08-31 16:46:31 | 48.01053 | 11.52317 | 62° | 141km/h | 9985m | 7.1m/s | -45.3°C | 15.5% | 277.8hPa | 2.7V | 00:00:00 | 00:40:14 | 00:00:00 | |
| OE5DXL-15 | 2026-08-31 16:46:30 | 48.01037 | 11.52271 | 63° | 139km/h | 9978m | 7.2m/s | -45.3°C | 15.7% | 278.1hPa | 2.7V | 00:00:00 | 00:00:00 | 00:00:00 | |
| DG1MFX-10 | 2026-08-31 16:46:28 | 48.01021 | 11.52224 | 64° | 141km/h | 9970m | 8.2m/s | -45.3°C | 13.6% | 278.4hPa | 2.7V | 02:48:00 | 00:00:00 | 00:00:00 | |
| DO3MHA-11 | 2026-08-31 16:46:27 | 48.00987 | 11.52130 | 62° | 137km/h | 9959m | 3.6m/s | -45.1°C | 16.1% | 278.9hPa | 2.7V | 00:00:00 | 00:40:10 | 00:00:00 | |
| DO3MHA-12 | 2026-08-31 16:46:26 | 48.00970 | 11.52083 | 61° | 137km/h | 9955m | 4.6m/s | -45.0°C | 16.0% | 279.0hPa | 2.7V | 02:48:00 | 00:40:09 | 00:00:00 | |
| NBG1-10 | 2026-08-31 16:46:22 | 48.00903 | 11.51903 | 62° | 139km/h | 9937m | 3.9m/s | 0°C | 0% | 0hPa | 2.7V | 00:00:00 | 00:40:05 | 00:00:00 | |
| BAUMI2-15 | 2026-08-31 16:46:21 | 48.00886 | 11.51857 | 62° | 137km/h | 9933m | 5.1m/s | -44.8°C | 15.5% | 280.0hPa | 2.7V | 02:48:00 | 00:40:04 | 00:00:00 | |
| DO3MHA-11 | 2026-08-31 16:46:17 | 48.00819 | 11.51676 | 63° | 139km/h | 9914m | 6.2m/s | -44.6°C | 15.3% | 280.7hPa | 2.7V | 02:48:00 | 00:40:00 | 00:00:00 | |
| DO3MHA-12 | 2026-08-31 16:46:16 | 48.00803 | 11.51630 | 64° | 139km/h | 9908m | 3.8m/s | -44.6°C | 15.5% | 281.0hPa | 2.7V | 00:00:00 | 00:39:59 | 00:00:00 | |
| OE5DRO-10 | 2026-08-31 16:46:14 | 48.00773 | 11.51536 | 64° | 137km/h | 9900m | 5.6m/s | -44.5°C | 15.1% | 281.3hPa | 2.7V | 00:00:00 | 00:00:00 | 00:00:00 | |
| DO8TBO-1 | 2026-08-31 16:46:13 | 48.00724 | 11.51396 | 63° | 137km/h | 9886m | 5.1m/s | -44.4°C | 14.9% | 281.9hPa | 2.7V | 00:00:00 | 00:39:54 | 00:00:00 | |
| BAUMI2-15 | 2026-08-31 16:46:10 | 48.00708 | 11.51349 | 63° | 139km/h | 9881m | 4.9m/s | -44.3°C | 15.0% | 282.1hPa | 2.7V | 00:00:00 | 00:39:53 | 00:00:00 | |
| DO3MHA-11 | 2026-08-31 16:46:07 | 48.00660 | 11.51208 | 63° | 135km/h | 9868m | 4.8m/s | -44.2°C | 15.0% | 282.7hPa | 2.7V | 00:00:00 | 00:39:50 | 00:00:00 | |
| DO3MHA-12 | 2026-08-31 16:46:06 | 48.00644 | 11.51163 | 62° | 135km/h | 9864m | 3.8m/s | -44.1°C | 14.9% | 282.9hPa | 2.7V | 00:00:00 | 00:39:49 | 00:00:00 | |
| BAUMI2-15 | 2026-08-31 16:46:03 | 48.00593 | 11.51027 | 61° | 135km/h | 9850m | 4.5m/s | 0°C | 0% | 0hPa | 2.7V | 02:48:00 | 00:39:46 | 00:00:00 | |
| OE5DXL-15 | 2026-08-31 16:46:00 | 48.00542 | 11.50895 | 62° | 137km/h | 9835m | 6.3m/s | -43.9°C | 14.5% | 284.0hPa | 2.7V | 02:48:00 | 00:00:00 | 00:00:00 | |
| BAUMI2-15 | 2026-08-31 16:45:58 | 48.00510 | 11.50806 | 63° | 139km/h | 9825m | 7.1m/s | 0°C | 0% | 0hPa | 2.7V | 00:00:00 | 00:39:41 | 00:00:00 | |
| DO3MHA-11 | 2026-08-31 16:45:57 | 48.00495 | 11.50761 | 63° | 141km/h | 9819m | 4.8m/s | -43.7°C | 14.2% | 284.8hPa | 2.7V | 00:00:00 | 00:39:40 | 00:00:00 | |
| DO3MHA-12 | 2026-08-31 16:45:56 | 48.00479 | 11.50715 | 64° | 141km/h | 9814m | 4.7m/s | -43.7°C | 14.1% | 285.0hPa | 2.7V | 02:48:00 | 00:39:39 | 00:00:00 | |
| OE5DRO-10 | 2026-08-31 16:45:55 | 48.00463 | 11.50668 | 64° | 139km/h | 9809m | 4.6m/s | -43.6°C | 14.0% | 285.1hPa | 2.7V | 02:48:00 | 00:00:00 | 00:00:00 | |
| BAUMI2-15 | 2026-08-31 16:45:53 | 48.00431 | 11.50571 | 64° | 142km/h | 9800m | 4.4m/s | 0°C | 0% | 0hPa | 2.7V | 00:00:00 | 00:39:36 | 00:00:00 | |
| NBG1-10 | 2026-08-31 16:45:49 | 48.00365 | 11.50382 | 62° | 135km/h | 9782m | 5.6m/s | -43.4°C | 13.8% | 286.3hPa | 2.7V | 02:48:00 | 00:39:32 | 00:00:00 | |
| BAUMI2-15 | 2026-08-31 16:45:48 | 48.00347 | 11.50336 | 60° | 135km/h | 9777m | 3.9m/s | 0°C | 0% | 0hPa | 2.7V | 02:48:00 | 00:39:31 | 00:00:00 | |
| DO3MHA-11 | 2026-08-31 16:45:47 | 48.00329 | 11.50291 | 59° | 135km/h | 9773m | 3.8m/s | -43.3°C | 14.1% | 286.7hPa | 2.7V | 02:48:00 | 00:39:30 | 00:00:00 | |
| DO3MHA-12 | 2026-08-31 16:45:46 | 48.00311 | 11.50247 | 59° | 135km/h | 9769m | 4.3m/s | -43.3°C | 14.3% | 286.9hPa | 2.7V | 00:00:00 | 00:39:29 | 00:00:00 | |
| BAUMI2-15 | 2026-08-31 16:45:43 | 48.00262 | 11.50115 | 63° | 135km/h | 9756m | 4.6m/s | 0°C | 0% | 0hPa | 2.7V | 00:00:00 | 00:39:26 | 00:00:00 | |
| DO3MHA-11 | 2026-08-31 16:45:39 | 48.00167 | 11.49842 | 65° | 135km/h | 9728m | 4.1m/s | -43.1°C | 14.0% | 288.6hPa | 2.7V | 00:00:00 | 00:39:20 | 00:00:00 | |
| OE5DRO-10 | 2026-08-31 16:45:38 | 48.00151 | 11.49795 | 65° | 135km/h | 9724m | 4.5m/s | -43.1°C | 13.8% | 288.8hPa | 2.7V | 00:00:00 | 00:00:00 | 00:00:00 | |
| DO3MHA-12 | 2026-08-31 16:45:37 | 48.00151 | 11.49795 | 65° | 135km/h | 9724m | 4.5m/s | -43.1°C | 13.8% | 288.8hPa | 2.7V | 00:00:00 | 00:39:19 | 00:00:00 | |
| OE5MMP-10 | 2026-08-31 16:45:36 | 48.00151 | 11.49795 | 65° | 135km/h | 9724m | 4.5m/s | 0°C | 0% | 0hPa | 2.7V | 00:00:00 | 00:39:19 | 00:00:00 | |
| BAUMI2-15 | 2026-08-31 16:45:33 | 48.00106 | 11.49657 | 63° | 135km/h | 9708m | 5.7m/s | 0°C | 0% | 0hPa | 2.7V | 02:48:00 | 00:39:16 | 00:00:00 | |
| DB0UT-7 | 2026-08-31 16:45:30 | 48.00057 | 11.49523 | 61° | 135km/h | 9694m | 3.8m/s | -43.0°C | 14.4% | 290.1hPa | 2.7V | 00:00:00 | 00:00:00 | 00:00:00 | |
| BAUMI2-15 | 2026-08-31 16:45:28 | 48.00023 | 11.49436 | 60° | 133km/h | 9685m | 4.2m/s | 0°C | 0% | 0hPa | 2.7V | 00:00:00 | 00:39:11 | 00:00:00 | |
| DO3MHA-11 | 2026-08-31 16:45:27 | 48.00006 | 11.49392 | 60° | 135km/h | 9681m | 4.3m/s | -43.0°C | 14.4% | 290.7hPa | 2.7V | 00:00:00 | 00:39:10 | 00:00:00 | |
| OE5MMP-10 | 2026-08-31 16:45:26 | 47.99989 | 11.49349 | 61° | 135km/h | 9677m | 4.1m/s | 0°C | 0% | 0hPa | 2.7V | 00:00:00 | 00:39:09 | 00:00:00 | |
| DL6DJ-15 | 2026-08-31 16:45:24 | 47.99941 | 11.49215 | 63° | 135km/h | 9664m | 3.6m/s | -42.9°C | 12.0% | 291.4hPa | 2.7V | 00:00:00 | 00:00:00 | 00:00:00 | |
| BAUMI2-15 | 2026-08-31 16:45:23 | 47.99941 | 11.49215 | 64° | 137km/h | 9664m | 3.5m/s | 0°C | 0% | 0hPa | 2.7V | 00:00:00 | 00:39:06 | 00:00:00 | |
| DB0ND-19 | 2026-08-31 16:45:20 | 47.99880 | 11.49031 | 63° | 135km/h | 9647m | 3.5m/s | -42.8°C | -1.0% | 292.1hPa | 2.7V | 00:00:00 | 00:00:00 | 00:00:00 | |
| BAUMI2-15 | 2026-08-31 16:45:18 | 47.99864 | 11.48986 | 63° | 133km/h | 9643m | 4.7m/s | 0°C | 0% | 0hPa | 2.7V | 00:00:00 | 00:39:01 | 00:00:00 | |
| DO3MHA-11 | 2026-08-31 16:45:17 | 47.99849 | 11.48942 | 63° | 135km/h | 9639m | 3.6m/s | -42.6°C | 14.1% | 292.5hPa | 2.7V | 02:49:00 | 00:39:00 | 00:00:00 | |
| DO3MHA-12 | 2026-08-31 16:45:16 | 47.99833 | 11.48897 | 62° | 135km/h | 9635m | 5.0m/s | -42.6°C | 14.0% | 292.6hPa | 2.7V | 00:00:00 | 00:38:59 | 00:00:00 | |
| DO8TBO-1 | 2026-08-31 16:45:13 | 47.99752 | 11.48676 | 63° | 139km/h | 9613m | 4.1m/s | -42.5°C | 14.3% | 293.6hPa | 2.7V | 02:49:00 | 00:38:54 | 00:00:00 | |
| DO3MHA-11 | 2026-08-31 16:45:07 | 47.99689 | 11.48488 | 65° | 139km/h | 9597m | 3.1m/s | -42.3°C | 14.2% | 294.3hPa | 2.7V | 00:00:00 | 00:38:50 | 00:00:00 | |
| DO3MHA-12 | 2026-08-31 16:45:06 | 47.99674 | 11.48442 | 64° | 139km/h | 9594m | 4.4m/s | -42.3°C | 14.2% | 294.4hPa | 2.7V | 00:00:00 | 00:38:49 | 00:00:00 | |
| OE5MMP-10 | 2026-08-31 16:45:05 | 47.99658 | 11.48397 | 63° | 139km/h | 9590m | 3.3m/s | 0°C | 0% | 0hPa | 2.7V | 00:00:00 | 00:38:48 | 00:00:00 | |
| DL6DJ-15 | 2026-08-31 16:44:53 | 47.99447 | 11.47797 | 59° | 139km/h | 9535m | 3.6m/s | -41.9°C | 12.0% | 297.1hPa | 2.7V | 00:00:00 | 00:00:00 | 00:00:00 | |
| DB0ND-19 | 2026-08-31 16:44:49 | 47.99377 | 11.47615 | 59° | 139km/h | 9516m | 4.8m/s | -41.8°C | -1.0% | 297.8hPa | 2.7V | 00:00:00 | 00:00:00 | 00:00:00 | |
| DO3MHA-11 | 2026-08-31 16:44:47 | 47.99359 | 11.47570 | 61° | 139km/h | 9512m | 3.2m/s | -41.7°C | 13.8% | 298.0hPa | 2.7V | 02:49:00 | 00:38:30 | 00:00:00 | |
| DO3MHA-12 | 2026-08-31 16:44:46 | 47.99341 | 11.47524 | 61° | 139km/h | 9508m | 4.8m/s | -41.7°C | 13.7% | 298.2hPa | 2.7V | 00:00:00 | 00:38:29 | 00:00:00 | |
| DG1MFX-10 | 2026-08-31 16:44:44 | 47.99324 | 11.47477 | 62° | 141km/h | 9503m | 4.7m/s | -41.7°C | 11.7% | 298.4hPa | 2.7V | 02:49:00 | 00:00:00 | 00:00:00 | |
| NBG1-10 | 2026-08-31 16:44:43 | 47.99290 | 11.47385 | 62° | 139km/h | 9495m | 3.9m/s | -41.6°C | 13.7% | 298.7hPa | 2.7V | 00:00:00 | 00:38:26 | 00:00:00 | |
| DO8TBO-1 | 2026-08-31 16:44:42 | 47.99241 | 11.47245 | 62° | 139km/h | 9482m | 5.0m/s | -41.5°C | 13.4% | 299.3hPa | 2.7V | 00:00:00 | 00:38:23 | 00:00:00 | |
| OE5DRO-10 | 2026-08-31 16:44:39 | 47.99224 | 11.47199 | 61° | 139km/h | 9478m | 3.7m/s | -41.4°C | 13.5% | 299.5hPa | 2.7V | 00:00:00 | 00:00:00 | 00:00:00 | |
| DO3MHA-11 | 2026-08-31 16:44:37 | 47.99188 | 11.47109 | 60° | 139km/h | 9470m | 4.5m/s | -41.4°C | 13.3% | 299.9hPa | 2.7V | 00:00:00 | 00:38:20 | 00:00:00 | |
| DO3MHA-12 | 2026-08-31 16:44:36 | 47.99171 | 11.47063 | 60° | 139km/h | 9466m | 3.4m/s | -41.3°C | 13.4% | 300.1hPa | 2.7V | 00:00:00 | 00:38:19 | 00:00:00 | |
| OE5DXL-15 | 2026-08-31 16:44:30 | 47.99067 | 11.46792 | 62° | 139km/h | 9442m | 5.2m/s | -41.1°C | 12.6% | 301.1hPa | 2.7V | 02:50:00 | 00:00:00 | 00:00:00 | |
| DO3MHA-11 | 2026-08-31 16:44:27 | 47.99018 | 11.46653 | 63° | 139km/h | 9428m | 4.1m/s | -41.0°C | 12.3% | 301.7hPa | 2.7V | 00:00:00 | 00:38:10 | 00:00:00 | |
| DO3MHA-12 | 2026-08-31 16:44:26 | 47.99002 | 11.46606 | 64° | 139km/h | 9424m | 5.0m/s | -41.0°C | 12.3% | 301.9hPa | 2.7V | 02:50:00 | 00:38:09 | 00:00:00 | |
| DG1MFX-10 | 2026-08-31 16:44:24 | 47.98986 | 11.46559 | 65° | 141km/h | 9419m | 4.5m/s | -41.1°C | 10.7% | 302.2hPa | 2.7V | 02:50:00 | 00:00:00 | 00:00:00 | |
| DG1MJG | 2026-08-31 16:44:23 | 47.98970 | 11.46511 | 65° | 142km/h | 9414m | 5.0m/s | -41.0°C | 10.7% | 302.3hPa | 2.7V | 02:50:00 | 00:00:00 | 00:00:00 | |
| DL6DJ-15 | 2026-08-31 16:44:21 | 47.98923 | 11.46370 | 63° | 137km/h | 9401m | 3.1m/s | -40.9°C | 10.9% | 302.9hPa | 2.7V | 00:00:00 | 00:00:00 | 00:00:00 | |
| OE5DRO-10 | 2026-08-31 16:44:20 | 47.98907 | 11.46324 | 63° | 139km/h | 9397m | 4.8m/s | -40.8°C | 12.8% | 303.0hPa | 2.7V | 00:00:00 | 00:00:00 | 00:00:00 | |
| DB0ND-19 | 2026-08-31 16:44:18 | 47.98858 | 11.46189 | 60° | 133km/h | 9384m | 3.3m/s | -40.8°C | -1.0% | 303.6hPa | 2.7V | 00:00:00 | 00:00:00 | 00:00:00 | |
| DO3MHA-11 | 2026-08-31 16:44:17 | 47.98858 | 11.46189 | 61° | 139km/h | 9384m | 3.2m/s | -40.7°C | 12.7% | 303.6hPa | 2.7V | 02:50:00 | 00:38:00 | 00:00:00 | |
| DO3MHA-12 | 2026-08-31 16:44:16 | 47.98842 | 11.46145 | 61° | 141km/h | 9380m | 4.9m/s | -40.7°C | 12.6% | 303.8hPa | 2.7V | 00:00:00 | 00:37:59 | 00:00:00 | |
| NBG1-10 | 2026-08-31 16:44:10 | 47.98741 | 11.45867 | 64° | 139km/h | 9355m | 4.7m/s | -40.7°C | 11.8% | 305.0hPa | 2.7V | 02:50:00 | 00:37:53 | 00:00:00 | |
| DO3MHA-11 | 2026-08-31 16:44:07 | 47.98691 | 11.45725 | 63° | 137km/h | 9341m | 5.1m/s | -40.6°C | 11.9% | 305.6hPa | 2.7V | 00:00:00 | 00:37:50 | 00:00:00 | |
| DO3MHA-12 | 2026-08-31 16:44:06 | 47.98675 | 11.45678 | 63° | 137km/h | 9336m | 5.3m/s | -40.5°C | 12.0% | 305.8hPa | 2.7V | 00:00:00 | 00:37:49 | 00:00:00 | |
| DG1MFX-10 | 2026-08-31 16:44:04 | 47.98658 | 11.45632 | 64° | 139km/h | 9331m | 4.9m/s | -40.5°C | 10.2% | 306.0hPa | 2.7V | 02:50:00 | 00:00:00 | 00:00:00 | |
| DL6DJ-15 | 2026-08-31 16:43:50 | 47.98414 | 11.44945 | 61° | 137km/h | 9263m | 4.3m/s | -39.9°C | 9.7% | 309.1hPa | 2.7V | 00:00:00 | 00:00:00 | 00:00:00 | |
| DO3MHA-11 | 2026-08-31 16:43:47 | 47.98366 | 11.44808 | 64° | 137km/h | 9251m | 4.0m/s | -39.8°C | 11.2% | 309.6hPa | 2.7V | 02:50:00 | 00:37:30 | 00:00:00 | |
| DO3MHA-12 | 2026-08-31 16:43:46 | 47.98351 | 11.44762 | 64° | 137km/h | 9247m | 4.8m/s | -39.8°C | 11.2% | 309.8hPa | 2.7V | 00:00:00 | 00:37:29 | 00:00:00 | |
| DG1MFX-10 | 2026-08-31 16:43:43 | 47.98319 | 11.44669 | 64° | 139km/h | 9238m | 3.0m/s | -39.7°C | 9.4% | 310.2hPa | 2.7V | 02:50:00 | 00:00:00 | 00:00:00 | |
| OE5DRO-10 | 2026-08-31 16:43:42 | 47.98288 | 11.44576 | 63° | 139km/h | 9230m | 3.5m/s | -39.6°C | 10.9% | 310.5hPa | 2.7V | 00:00:00 | 00:00:00 | 00:00:00 | |
| DB0NH | 2026-08-31 16:43:40 | 47.98256 | 11.44485 | 62° | 137km/h | 9222m | 4.3m/s | -39.5°C | 11.0% | 310.9hPa | 2.7V | 00:00:00 | 00:37:23 | 00:00:00 | |
| DO3MHA-11 | 2026-08-31 16:43:37 | 47.98206 | 11.44349 | 62° | 137km/h | 9210m | 4.1m/s | -39.5°C | 10.7% | 311.4hPa | 2.7V | 00:00:00 | 00:37:20 | 00:00:00 | |
| DO3MHA-12 | 2026-08-31 16:43:36 | 47.98189 | 11.44303 | 62° | 137km/h | 9206m | 3.8m/s | -39.4°C | 10.7% | 311.7hPa | 2.7V | 00:00:00 | 00:37:19 | 00:00:00 | |
| OE5MMP-10 | 2026-08-31 16:43:35 | 47.98173 | 11.44257 | 62° | 133km/h | 9202m | 4.0m/s | 0°C | 0% | 0hPa | 2.7V | 00:00:00 | 00:37:18 | 00:00:00 | |
| DB0UT-7 | 2026-08-31 16:43:30 | 47.98092 | 11.44029 | 63° | 137km/h | 9182m | 4.4m/s | -39.2°C | 10.3% | 312.7hPa | 2.7V | 00:00:00 | 00:00:00 | 00:00:00 | |
| DO3MHA-11 | 2026-08-31 16:43:27 | 47.98043 | 11.43890 | 62° | 139km/h | 9169m | 5.0m/s | -39.1°C | 9.8% | 313.4hPa | 2.7V | 00:00:00 | 00:37:10 | 00:00:00 | |
| DO3MHA-12 | 2026-08-31 16:43:26 | 47.98026 | 11.43844 | 62° | 139km/h | 9165m | 3.5m/s | -39.1°C | 9.7% | 313.5hPa | 2.7V | 02:51:00 | 00:37:09 | 00:00:00 | |
| OE5DRO-10 | 2026-08-31 16:43:23 | 47.97977 | 11.43704 | 63° | 137km/h | 9153m | 4.6m/s | -39.0°C | 9.7% | 314.0hPa | 2.7V | 00:00:00 | 00:00:00 | 00:00:00 | |
| DG1MFX-10 | 2026-08-31 16:43:22 | 47.97977 | 11.43704 | 63° | 139km/h | 9153m | 4.7m/s | -39.1°C | 8.2% | 314.1hPa | 2.7V | 02:51:00 | 00:00:00 | 00:00:00 | |
| DL6DJ-15 | 2026-08-31 16:43:19 | 47.97913 | 11.43520 | 62° | 135km/h | 9136m | 3.7m/s | -39.0°C | 8.1% | 314.8hPa | 2.7V | 00:00:00 | 00:00:00 | 00:00:00 | |
| DO3MHA-11 | 2026-08-31 16:43:17 | 47.97882 | 11.43429 | 63° | 135km/h | 9128m | 3.6m/s | -38.9°C | 9.7% | 315.1hPa | 2.7V | 02:51:00 | 00:37:00 | 00:00:00 | |
| DO3MHA-12 | 2026-08-31 16:43:16 | 47.97866 | 11.43383 | 64° | 135km/h | 9124m | 4.5m/s | -38.8°C | 9.7% | 315.4hPa | 2.7V | 00:00:00 | 00:36:59 | 00:00:00 | |
| DB0ND-19 | 2026-08-31 16:43:15 | 47.97850 | 11.43337 | 63° | 135km/h | 9120m | 3.6m/s | -38.8°C | -1.0% | -1.0hPa | 2.7V | 00:00:00 | 00:00:00 | 00:00:00 | |
| BAUMI2-15 | 2026-08-31 16:43:10 | 47.97774 | 11.43108 | 64° | 135km/h | 9099m | 4.1m/s | 0°C | 0% | 0hPa | 2.7V | 00:00:00 | 00:36:53 | 00:00:00 | |
| DO3MHA-11 | 2026-08-31 16:43:07 | 47.97729 | 11.42971 | 64° | 135km/h | 9087m | 3.4m/s | -38.6°C | 9.9% | 317.1hPa | 2.7V | 00:00:00 | 00:36:50 | 00:00:00 | |
| DO3MHA-12 | 2026-08-31 16:43:06 | 47.97713 | 11.42925 | 64° | 135km/h | 9083m | 4.2m/s | -38.6°C | 9.8% | 317.3hPa | 2.7V | 00:00:00 | 00:36:49 | 00:00:00 | |
| NBG1-10 | 2026-08-31 16:43:04 | 47.97682 | 11.42850 | 63° | 135km/h | 9076m | 4.5m/s | -38.6°C | 9.8% | 317.6hPa | 2.7V | 00:00:00 | 00:36:47 | 00:00:00 | |
| DL6DJ-15 | 2026-08-31 16:42:48 | 47.97438 | 11.42097 | 65° | 133km/h | 9011m | 4.1m/s | -38.2°C | 8.8% | 320.7hPa | 2.7V | 00:00:00 | 00:00:00 | 00:00:00 | |
| DO3MHA-11 | 2026-08-31 16:42:47 | 47.97424 | 11.42051 | 67° | 135km/h | 9007m | 4.5m/s | -38.1°C | 10.3% | 320.8hPa | 2.7V | 02:51:00 | 00:36:30 | 00:00:00 | |
| DO3MHA-12 | 2026-08-31 16:42:46 | 47.97410 | 11.42004 | 67° | 135km/h | 9003m | 3.4m/s | -38.1°C | 10.3% | 321.0hPa | 2.7V | 00:00:00 | 00:36:29 | 00:00:00 | |
| OE5DRO-10 | 2026-08-31 16:42:45 | 47.97397 | 11.41958 | 67° | 135km/h | 8999m | 4.3m/s | -38.0°C | 10.3% | 321.2hPa | 2.7V | 00:00:00 | 00:00:00 | 00:00:00 | |
| DG1MFX-10 | 2026-08-31 16:42:41 | 47.97354 | 11.41820 | 65° | 137km/h | 8987m | 3.1m/s | -38.0°C | 8.8% | 321.8hPa | 2.7V | 02:52:00 | 00:00:00 | 00:00:00 | |
| DO3MHA-11 | 2026-08-31 16:42:37 | 47.97274 | 11.41593 | 63° | 135km/h | 8968m | 4.0m/s | -37.8°C | 10.2% | 322.7hPa | 2.7V | 00:00:00 | 00:36:20 | 00:00:00 | |
| DO3MHA-12 | 2026-08-31 16:42:36 | 47.97258 | 11.41548 | 63° | 135km/h | 8963m | 4.6m/s | -37.8°C | 10.2% | 323.0hPa | 2.7V | 00:00:00 | 00:36:19 | 00:00:00 | |
| NBG1-10 | 2026-08-31 16:42:30 | 47.97170 | 11.41269 | 66° | 135km/h | 8940m | 3.5m/s | -37.6°C | 10.1% | 324.0hPa | 2.7V | 02:52:00 | 00:36:13 | 00:00:00 | |
| DO3MHA-11 | 2026-08-31 16:42:28 | 47.97127 | 11.41132 | 64° | 135km/h | 8927m | 4.8m/s | -37.5°C | 10.0% | 324.6hPa | 2.7V | 00:00:00 | 00:36:10 | 00:00:00 | |
| OE5DRO-10 | 2026-08-31 16:42:27 | 47.97112 | 11.41087 | 64° | 137km/h | 8923m | 3.6m/s | -37.4°C | 10.0% | 324.8hPa | 2.7V | 00:00:00 | 00:00:00 | 00:00:00 | |
| DO3MHA-12 | 2026-08-31 16:42:26 | 47.97112 | 11.41087 | 64° | 137km/h | 8923m | 3.6m/s | -37.4°C | 10.0% | 324.8hPa | 2.7V | 02:52:00 | 00:36:09 | 00:00:00 | |
| DG1MJG | 2026-08-31 16:42:21 | 47.97050 | 11.40904 | 65° | 137km/h | 8906m | 3.5m/s | -37.3°C | 8.4% | 325.7hPa | 2.7V | 02:52:00 | 00:00:00 | 00:00:00 | |
| DB0NH | 2026-08-31 16:42:20 | 47.97020 | 11.40811 | 65° | 135km/h | 8897m | 4.0m/s | -37.2°C | 9.8% | 326.0hPa | 2.7V | 00:00:00 | 00:36:03 | 00:00:00 | |
| DO3MHA-11 | 2026-08-31 16:42:17 | 47.96974 | 11.40673 | 64° | 137km/h | 8884m | 3.8m/s | -37.1°C | 9.7% | 326.6hPa | 2.7V | 02:52:00 | 00:36:00 | 00:00:00 | |
| DO3MHA-12 | 2026-08-31 16:42:16 | 47.96958 | 11.40626 | 64° | 137km/h | 8880m | 4.2m/s | -37.1°C | 9.7% | 326.8hPa | 2.7V | 00:00:00 | 00:35:59 | 00:00:00 | |
| DO3MHA-11 | 2026-08-31 16:42:07 | 47.96821 | 11.40212 | 64° | 135km/h | 8843m | 3.6m/s | -36.8°C | 9.2% | 328.6hPa | 2.7V | 00:00:00 | 00:35:50 | 00:00:00 | |
| DO3MHA-12 | 2026-08-31 16:42:06 | 47.96805 | 11.40167 | 64° | 135km/h | 8839m | 4.2m/s | -36.8°C | 9.1% | 328.8hPa | 2.7V | 00:00:00 | 00:35:49 | 00:00:00 | |
| DB0UT-7 | 2026-08-31 16:42:00 | 47.96714 | 11.39891 | 65° | 131km/h | 8813m | 4.1m/s | -36.6°C | 8.5% | 330.0hPa | 2.7V | 00:00:00 | 00:35:43 | 00:00:00 | |
| DG1MFX-10 | 2026-08-31 16:41:59 | 47.96714 | 11.39891 | 65° | 135km/h | 8813m | 4.1m/s | -36.7°C | 7.2% | 330.1hPa | 2.7V | 02:52:00 | 00:00:00 | 00:00:00 | |
| DO3MHA-11 | 2026-08-31 16:41:57 | 47.96670 | 11.39754 | 65° | 135km/h | 8800m | 4.3m/s | -36.5°C | 8.3% | 330.6hPa | 2.7V | 00:00:00 | 00:35:40 | 00:00:00 | |
| DO3MHA-12 | 2026-08-31 16:41:56 | 47.96655 | 11.39708 | 65° | 133km/h | 8796m | 4.1m/s | -36.5°C | 8.4% | 330.7hPa | 2.7V | 02:52:00 | 00:35:39 | 00:00:00 | |
| DB0NH | 2026-08-31 16:41:50 | 47.96564 | 11.39434 | 64° | 131km/h | 8769m | 3.8m/s | -36.4°C | 8.4% | 332.0hPa | 2.7V | 00:00:00 | 00:35:33 | 00:00:00 | |
| OE5DRO-10 | 2026-08-31 16:41:48 | 47.96534 | 11.39344 | 64° | 130km/h | 8760m | 4.0m/s | -36.3°C | 8.3% | 332.5hPa | 2.7V | 00:00:00 | 00:00:00 | 00:00:00 | |
| DO3MHA-11 | 2026-08-31 16:41:47 | 47.96520 | 11.39300 | 64° | 130km/h | 8755m | 4.6m/s | -36.2°C | 8.4% | 332.7hPa | 2.7V | 02:52:00 | 00:35:30 | 00:00:00 | |
| DO3MHA-12 | 2026-08-31 16:41:46 | 47.96505 | 11.39256 | 64° | 130km/h | 8751m | 3.5m/s | -36.2°C | 8.2% | 332.9hPa | 2.9V | 00:00:00 | 00:35:29 | 00:00:00 | |
| DG1MFX-10 | 2026-08-31 16:41:39 | 47.96421 | 11.38990 | 66° | 130km/h | 8726m | 4.5m/s | -36.0°C | 7.0% | 334.2hPa | 2.9V | 02:53:00 | 00:00:00 | 00:00:00 | |
| DO3MHA-11 | 2026-08-31 16:41:37 | 47.96380 | 11.38856 | 66° | 131km/h | 8712m | 3.9m/s | -35.9°C | 8.2% | 334.8hPa | 2.9V | 00:00:00 | 00:35:20 | 00:00:00 | |
| DO3MHA-12 | 2026-08-31 16:41:36 | 47.96366 | 11.38811 | 66° | 130km/h | 8708m | 5.3m/s | -35.8°C | 8.2% | 334.9hPa | 2.9V | 00:00:00 | 00:35:19 | 00:00:00 | |
| OE5WHR-10 | 2026-08-31 16:41:35 | 47.96352 | 11.38766 | 66° | 131km/h | 8703m | 3.6m/s | -35.8°C | 8.3% | 335.2hPa | 2.9V | 00:00:00 | 00:00:00 | 00:00:00 | |
| DB0UT-7 | 2026-08-31 16:41:30 | 47.96283 | 11.38542 | 65° | 131km/h | 8681m | 4.5m/s | -35.6°C | 8.4% | 336.3hPa | 2.9V | 02:53:00 | 00:00:00 | 00:00:00 | |
| OE5DRO-10 | 2026-08-31 16:41:29 | 47.96269 | 11.38499 | 65° | 131km/h | 8677m | 4.4m/s | -35.6°C | 8.4% | 336.5hPa | 2.7V | 00:00:00 | 00:00:00 | 00:00:00 | |
| DO3MHA-11 | 2026-08-31 16:41:27 | 47.96240 | 11.38410 | 65° | 131km/h | 8669m | 4.5m/s | -35.5°C | 8.5% | 336.9hPa | 2.7V | 00:00:00 | 00:35:10 | 00:00:00 | |
| DO3MHA-12 | 2026-08-31 16:41:26 | 47.96226 | 11.38367 | 65° | 131km/h | 8664m | 3.8m/s | -35.5°C | 8.5% | 337.2hPa | 2.7V | 02:53:00 | 00:35:09 | 00:00:00 | |
| NBG1-10 | 2026-08-31 16:41:24 | 47.96197 | 11.38278 | 64° | 131km/h | 8655m | 3.7m/s | -35.4°C | 8.6% | 337.5hPa | 2.7V | 00:00:00 | 00:35:07 | 00:00:00 | |
| DO8TBO-1 | 2026-08-31 16:41:23 | 47.96153 | 11.38143 | 65° | 131km/h | 8642m | 4.6m/s | 0°C | 0% | 0hPa | 2.7V | 00:00:00 | 00:35:04 | 00:00:00 | |
| DB0NH | 2026-08-31 16:41:20 | 47.96139 | 11.38098 | 66° | 130km/h | 8638m | 3.4m/s | -35.3°C | 8.6% | 338.4hPa | 2.7V | 02:53:00 | 00:35:03 | 00:00:00 | |
| DG1MJG | 2026-08-31 16:41:19 | 47.96139 | 11.38098 | 66° | 133km/h | 8638m | 3.5m/s | -35.3°C | 7.4% | 338.4hPa | 2.9V | 02:53:00 | 00:00:00 | 00:00:00 | |
| DG1MFX-10 | 2026-08-31 16:41:18 | 47.96125 | 11.38052 | 66° | 131km/h | 8634m | 4.4m/s | -35.3°C | 7.3% | 338.6hPa | 2.9V | 02:53:00 | 00:00:00 | 00:00:00 | |
| DO3MHA-11 | 2026-08-31 16:41:17 | 47.96096 | 11.37962 | 65° | 130km/h | 8626m | 4.0m/s | -35.2°C | 8.6% | 339.0hPa | 2.9V | 02:53:00 | 00:35:00 | 00:00:00 | |
| DO3MHA-12 | 2026-08-31 16:41:16 | 47.96082 | 11.37918 | 64° | 130km/h | 8621m | 4.2m/s | -35.2°C | 8.6% | 339.3hPa | 2.9V | 00:00:00 | 00:34:59 | 00:00:00 | |
| DL6DJ-15 | 2026-08-31 16:41:15 | 47.96068 | 11.37874 | 64° | 128km/h | 8617m | 4.1m/s | -35.2°C | 7.4% | 339.5hPa | 2.9V | 00:00:00 | 00:00:00 | 00:00:00 | |
| OE5WHR-10 | 2026-08-31 16:41:14 | 47.96053 | 11.37830 | 64° | 130km/h | 8613m | 4.5m/s | -35.1°C | 8.5% | 339.6hPa | 2.9V | 00:00:00 | 00:34:57 | 00:00:00 | |
| OE5DRO-10 | 2026-08-31 16:41:10 | 47.95996 | 11.37655 | 65° | 131km/h | 8596m | 3.6m/s | -35.0°C | 8.6% | 340.5hPa | 2.9V | 02:53:00 | 00:00:00 | 00:00:00 | |
| DO3MHA-11 | 2026-08-31 16:41:07 | 47.95952 | 11.37521 | 65° | 131km/h | 8583m | 4.7m/s | -34.9°C | 8.6% | 341.1hPa | 2.7V | 00:00:00 | 00:34:50 | 00:00:00 | |
| DO3MHA-12 | 2026-08-31 16:41:06 | 47.95938 | 11.37476 | 65° | 131km/h | 8579m | 3.6m/s | -34.8°C | 8.6% | 341.3hPa | 2.7V | 00:00:00 | 00:34:49 | 00:00:00 | |
| OE5DXL-15 | 2026-08-31 16:41:00 | 47.95852 | 11.37210 | 66° | 130km/h | 8553m | 3.9m/s | -34.7°C | 8.5% | 342.5hPa | 2.7V | 00:00:00 | 00:00:00 | 00:00:00 | |
| DG1MFX-10 | 2026-08-31 16:40:58 | 47.95838 | 11.37165 | 67° | 131km/h | 8549m | 4.2m/s | -34.7°C | 7.4% | 342.8hPa | 2.7V | 02:54:00 | 00:00:00 | 00:00:00 | |
| DO3MHA-11 | 2026-08-31 16:40:57 | 47.95812 | 11.37075 | 67° | 130km/h | 8541m | 4.4m/s | -34.7°C | 8.6% | 343.1hPa | 2.7V | 00:00:00 | 00:34:40 | 00:00:00 | |
| DO3MHA-12 | 2026-08-31 16:40:56 | 47.95798 | 11.37030 | 65° | 130km/h | 8536m | 4.1m/s | -34.6°C | 8.6% | 343.4hPa | 2.7V | 02:53:00 | 00:34:39 | 00:00:00 | |
| OE5WHR-10 | 2026-08-31 16:40:53 | 47.95755 | 11.36898 | 64° | 128km/h | 8523m | 3.8m/s | -34.6°C | 8.7% | 344.0hPa | 2.7V | 02:53:00 | 00:00:00 | 00:00:00 | |
| NBG1-10 | 2026-08-31 16:40:51 | 47.95726 | 11.36811 | 64° | 128km/h | 8514m | 3.7m/s | -34.4°C | 8.6% | 344.4hPa | 2.7V | 02:53:00 | 00:34:34 | 00:00:00 | |
| DG1MJG | 2026-08-31 16:40:50 | 47.95711 | 11.36768 | 64° | 130km/h | 8509m | 5.3m/s | -34.4°C | 7.3% | 344.7hPa | 2.7V | 02:54:00 | 00:00:00 | 00:00:00 | |
| DB0NH | 2026-08-31 16:40:49 | 47.95696 | 11.36724 | 64° | 128km/h | 8505m | 4.2m/s | -34.4°C | 8.5% | 344.9hPa | 2.7V | 00:00:00 | 00:34:32 | 00:00:00 | |
| DO3MHA-11 | 2026-08-31 16:40:47 | 47.95668 | 11.36637 | 65° | 130km/h | 8496m | 4.7m/s | -34.3°C | 8.6% | 345.3hPa | 2.7V | 02:53:00 | 00:34:30 | 00:00:00 | |
| DO3MHA-12 | 2026-08-31 16:40:46 | 47.95653 | 11.36593 | 65° | 130km/h | 8491m | 3.9m/s | -34.2°C | 8.7% | 345.5hPa | 2.9V | 00:00:00 | 00:34:29 | 00:00:00 | |
| DL6DJ-15 | 2026-08-31 16:40:44 | 47.95625 | 11.36505 | 65° | 128km/h | 8483m | 5.0m/s | -34.3°C | 7.6% | 346.0hPa | 2.9V | 00:00:00 | 00:00:00 | 00:00:00 | |
| DO3MHA-11 | 2026-08-31 16:40:37 | 47.95536 | 11.36193 | 68° | 128km/h | 8452m | 4.3m/s | -33.9°C | 8.6% | 347.5hPa | 2.9V | 00:00:00 | 00:34:20 | 00:00:00 | |
| DO3MHA-12 | 2026-08-31 16:40:36 | 47.95523 | 11.36149 | 67° | 128km/h | 8448m | 4.0m/s | -33.9°C | 8.6% | 347.7hPa | 2.9V | 00:00:00 | 00:34:19 | 00:00:00 | |
| OE5DRO-10 | 2026-08-31 16:40:32 | 47.95472 | 11.35975 | 66° | 130km/h | 8430m | 4.8m/s | -33.7°C | 8.6% | 348.6hPa | 2.9V | 00:00:00 | 00:00:00 | 00:00:00 | |
| DO3MHA-11 | 2026-08-31 16:40:27 | 47.95403 | 11.35754 | 66° | 130km/h | 8408m | 3.8m/s | -33.7°C | 8.7% | 349.7hPa | 2.9V | 00:00:00 | 00:34:10 | 00:00:00 | |
| DO3MHA-12 | 2026-08-31 16:40:26 | 47.95390 | 11.35709 | 67° | 130km/h | 8404m | 4.4m/s | -33.6°C | 8.6% | 349.8hPa | 2.9V | 02:54:00 | 00:34:09 | 00:00:00 | |
| DO8TBO-1 | 2026-08-31 16:40:20 | 47.95307 | 11.35445 | 65° | 128km/h | 8379m | 4.0m/s | 0°C | 0% | 0hPa | 2.9V | 02:54:00 | 00:34:03 | 00:00:00 | |
| NBG1-10 | 2026-08-31 16:40:18 | 47.95279 | 11.35357 | 65° | 128km/h | 8370m | 4.1m/s | -33.4°C | 8.5% | 351.6hPa | 2.9V | 00:00:00 | 00:34:01 | 00:00:00 | |
| DO3MHA-11 | 2026-08-31 16:40:17 | 47.95265 | 11.35312 | 66° | 130km/h | 8366m | 4.1m/s | -33.4°C | 8.5% | 351.8hPa | 2.9V | 02:54:00 | 00:34:00 | 00:00:00 | |
| DO3MHA-12 | 2026-08-31 16:40:16 | 47.95251 | 11.35268 | 66° | 130km/h | 8362m | 3.3m/s | -33.3°C | 8.6% | 352.0hPa | 2.7V | 00:00:00 | 00:33:59 | 00:00:00 | |
| OE5DRO-10 | 2026-08-31 16:40:13 | 47.95210 | 11.35134 | 65° | 128km/h | 8350m | 4.6m/s | -33.3°C | 8.5% | 352.6hPa | 2.7V | 02:54:00 | 00:00:00 | 00:00:00 | |
| DO3MHA-11 | 2026-08-31 16:40:07 | 47.95125 | 11.34870 | 66° | 128km/h | 8324m | 4.4m/s | -33.1°C | 8.6% | 353.9hPa | 2.9V | 00:00:00 | 00:33:50 | 00:00:00 | |
| DO3MHA-12 | 2026-08-31 16:40:06 | 47.95112 | 11.34826 | 67° | 128km/h | 8319m | 4.4m/s | -33.1°C | 8.6% | 354.2hPa | 2.9V | 00:00:00 | 00:33:49 | 00:00:00 | |
| OE5DXL-15 | 2026-08-31 16:40:00 | 47.95034 | 11.34561 | 66° | 124km/h | 8294m | 3.6m/s | -33.0°C | 8.6% | 355.4hPa | 2.9V | 02:54:00 | 00:00:00 | 00:00:00 | |
| DO3MHA-11 | 2026-08-31 16:39:57 | 47.94995 | 11.34431 | 68° | 126km/h | 8282m | 4.7m/s | -32.9°C | 8.5% | 356.0hPa | 2.7V | 00:00:00 | 00:33:40 | 00:00:00 | |
| DO3MHA-12 | 2026-08-31 16:39:56 | 47.94983 | 11.34388 | 69° | 126km/h | 8277m | 4.4m/s | -32.8°C | 8.6% | 356.3hPa | 2.7V | 02:54:00 | 00:33:39 | 00:00:00 | |
| OE5DRO-10 | 2026-08-31 16:39:54 | 47.94960 | 11.34300 | 69° | 124km/h | 8269m | 4.5m/s | -32.8°C | 8.5% | 356.7hPa | 2.9V | 00:00:00 | 00:00:00 | 00:00:00 | |
| OE5WHR-10 | 2026-08-31 16:39:51 | 47.94924 | 11.34166 | 68° | 122km/h | 8257m | 3.9m/s | -32.7°C | 8.4% | 357.4hPa | 2.9V | 00:00:00 | 00:00:00 | 00:00:00 | |
| DG1MJG | 2026-08-31 16:39:48 | 47.94900 | 11.34077 | 68° | 126km/h | 8248m | 3.8m/s | -32.7°C | 7.3% | 357.8hPa | 2.9V | 02:55:00 | 00:00:00 | 00:00:00 | |
| DO3MHA-11 | 2026-08-31 16:39:47 | 47.94875 | 11.33989 | 69° | 122km/h | 8240m | 4.2m/s | -32.6°C | 8.3% | 358.3hPa | 2.9V | 02:54:00 | 00:33:30 | 00:00:00 | |
| DO3MHA-12 | 2026-08-31 16:39:46 | 47.94863 | 11.33945 | 69° | 122km/h | 8236m | 3.2m/s | -32.6°C | 8.4% | 358.5hPa | 2.9V | 00:00:00 | 00:33:29 | 00:00:00 | |
| NBG1-10 | 2026-08-31 16:39:45 | 47.94852 | 11.33901 | 69° | 119km/h | 8232m | 4.5m/s | -32.6°C | 8.4% | 358.6hPa | 2.9V | 00:00:00 | 00:33:28 | 00:00:00 | |
| DL6DJ-15 | 2026-08-31 16:39:42 | 47.94818 | 11.33772 | 68° | 120km/h | 8219m | 3.9m/s | -32.6°C | 7.3% | 359.4hPa | 2.9V | 00:00:00 | 00:00:00 | 00:00:00 | |
| DO3MHA-11 | 2026-08-31 16:39:37 | 47.94760 | 11.33559 | 68° | 119km/h | 8197m | 4.3m/s | -32.4°C | 8.1% | 360.4hPa | 2.9V | 00:00:00 | 00:33:20 | 00:00:00 | |
| DO3MHA-12 | 2026-08-31 16:39:36 | 47.94749 | 11.33515 | 69° | 117km/h | 8192m | 4.8m/s | -32.4°C | 8.1% | 360.6hPa | 2.9V | 00:00:00 | 00:33:19 | 00:00:00 | |
| DG1MFX-10 | 2026-08-31 16:39:35 | 47.94749 | 11.33515 | 69° | 124km/h | 8192m | 4.9m/s | -32.4°C | 7.1% | 360.7hPa | 2.9V | 02:55:00 | 00:00:00 | 00:00:00 | |
| DB0UT-7 | 2026-08-31 16:39:30 | 47.94685 | 11.33266 | 69° | 117km/h | 8165m | 3.6m/s | -32.1°C | 7.8% | 362.1hPa | 2.9V | 00:00:00 | 00:00:00 | 00:00:00 | |
| DO3MHA-11 | 2026-08-31 16:39:27 | 47.94651 | 11.33146 | 67° | 119km/h | 8152m | 4.6m/s | -32.0°C | 7.7% | 362.8hPa | 2.9V | 00:00:00 | 00:33:10 | 00:00:00 | |
| DO3MHA-12 | 2026-08-31 16:39:26 | 47.94639 | 11.33105 | 67° | 119km/h | 8148m | 3.5m/s | -32.0°C | 7.8% | 363.0hPa | 2.9V | 02:55:00 | 00:33:09 | 00:00:00 | |
| DO3MHA-11 | 2026-08-31 16:39:17 | 47.94534 | 11.32736 | 68° | 119km/h | 8111m | 3.6m/s | -31.7°C | 7.3% | 365.0hPa | 2.9V | 02:55:00 | 00:33:00 | 00:00:00 | |
| DO3MHA-12 | 2026-08-31 16:39:16 | 47.94523 | 11.32695 | 69° | 119km/h | 8106m | 5.3m/s | -31.7°C | 7.3% | 365.2hPa | 2.7V | 00:00:00 | 00:32:59 | 00:00:00 | |
| DG1MFX-10 | 2026-08-31 16:39:15 | 47.94523 | 11.32695 | 69° | 117km/h | 8106m | 5.4m/s | -31.7°C | 6.4% | 365.2hPa | 2.7V | 00:00:00 | 00:00:00 | 00:00:00 | |
| NBG1-10 | 2026-08-31 16:39:12 | 47.94478 | 11.32530 | 67° | 115km/h | 8089m | 4.6m/s | -31.5°C | 7.1% | 366.0hPa | 2.7V | 02:55:00 | 00:32:55 | 00:00:00 | |
| DL6DJ-15 | 2026-08-31 16:39:11 | 47.94466 | 11.32489 | 66° | 117km/h | 8085m | 3.3m/s | -31.5°C | 6.2% | 366.3hPa | 2.7V | 00:00:00 | 00:00:00 | 00:00:00 | |
| OE5WHR-10 | 2026-08-31 16:39:09 | 47.94442 | 11.32408 | 67° | 117km/h | 8077m | 3.1m/s | 0°C | 0% | 0hPa | 2.7V | 02:55:00 | 00:00:00 | 00:00:00 | |
| DO3MHA-11 | 2026-08-31 16:39:07 | 47.94418 | 11.32327 | 68° | 117km/h | 8069m | 3.8m/s | -31.3°C | 7.0% | 367.1hPa | 2.7V | 00:00:00 | 00:32:50 | 00:00:00 | |
| DO3MHA-12 | 2026-08-31 16:39:06 | 47.94406 | 11.32286 | 67° | 117km/h | 8065m | 3.6m/s | -31.3°C | 6.9% | 367.3hPa | 2.7V | 00:00:00 | 00:32:49 | 00:00:00 | |
| OE5DXL-15 | 2026-08-31 16:39:00 | 47.94335 | 11.32043 | 65° | 113km/h | 8040m | 2.7m/s | -31.2°C | 7.0% | 368.6hPa | 2.7V | 00:00:00 | 00:00:00 | 00:00:00 | |
| DO3MHA-11 | 2026-08-31 16:38:57 | 47.94299 | 11.31927 | 65° | 117km/h | 8029m | 4.5m/s | -31.2°C | 6.9% | 369.2hPa | 2.7V | 00:00:00 | 00:32:40 | 00:00:00 | |
| DO3MHA-12 | 2026-08-31 16:38:56 | 47.94286 | 11.31887 | 65° | 117km/h | 8025m | 3.6m/s | -31.1°C | 6.9% | 369.4hPa | 2.7V | 02:55:00 | 00:32:39 | 00:00:00 | |
| DG1MFX-10 | 2026-08-31 16:38:54 | 47.94274 | 11.31847 | 66° | 117km/h | 8021m | 4.4m/s | -31.2°C | 6.0% | 369.6hPa | 2.7V | 00:00:00 | 00:00:00 | 00:00:00 | |
| OE5WHR-10 | 2026-08-31 16:38:48 | 47.94188 | 11.31567 | 65° | 113km/h | 7994m | 4.9m/s | 0°C | 0% | 0hPa | 2.7V | 00:00:00 | 00:00:00 | 00:00:00 | |
| DO3MHA-11 | 2026-08-31 16:38:47 | 47.94175 | 11.31528 | 64° | 113km/h | 7990m | 3.1m/s | -31.0°C | 6.7% | 371.3hPa | 2.7V | 02:55:00 | 00:32:30 | 00:00:00 | |
| DO3MHA-12 | 2026-08-31 16:38:46 | 47.94162 | 11.31490 | 65° | 111km/h | 7986m | 4.7m/s | -31.0°C | 6.6% | 371.4hPa | 2.9V | 00:00:00 | 00:32:29 | 00:00:00 | |
| DL6DJ-15 | 2026-08-31 16:38:40 | 47.94088 | 11.31262 | 63° | 111km/h | 7962m | 4.4m/s | -31.0°C | 5.8% | 372.8hPa | 2.9V | 00:00:00 | 00:00:00 | 00:00:00 | |
| NBG1-10 | 2026-08-31 16:38:39 | 47.94075 | 11.31224 | 63° | 113km/h | 7958m | 3.6m/s | -30.9°C | 6.9% | 372.9hPa | 2.9V | 00:00:00 | 00:32:22 | 00:00:00 | |
| OE5DRO-10 | 2026-08-31 16:38:38 | 47.94062 | 11.31187 | 63° | 113km/h | 7954m | 4.5m/s | -30.9°C | 6.8% | 373.1hPa | 2.9V | 00:00:00 | 00:00:00 | 00:00:00 | |
| DO3MHA-11 | 2026-08-31 16:38:37 | 47.94049 | 11.31149 | 63° | 113km/h | 7950m | 3.4m/s | -30.8°C | 6.8% | 373.3hPa | 2.9V | 00:00:00 | 00:32:20 | 00:00:00 | |
| DO3MHA-12 | 2026-08-31 16:38:36 | 47.94036 | 11.31111 | 63° | 113km/h | 7947m | 4.0m/s | -30.8°C | 6.8% | 373.5hPa | 2.9V | 00:00:00 | 00:32:19 | 00:00:00 | |
| DG1MFX-10 | 2026-08-31 16:38:33 | 47.94009 | 11.31036 | 63° | 113km/h | 7939m | 3.1m/s | -30.8°C | 6.0% | 373.9hPa | 2.9V | 02:56:00 | 00:00:00 | 00:00:00 | |
| OE5DXL-15 | 2026-08-31 16:38:30 | 47.93957 | 11.30884 | 64° | 113km/h | 7925m | 3.8m/s | -30.7°C | 7.3% | 374.7hPa | 2.9V | 02:56:00 | 00:00:00 | 00:00:00 | |
| DO3MHA-11 | 2026-08-31 16:38:27 | 47.93918 | 11.30769 | 63° | 113km/h | 7913m | 3.3m/s | -30.7°C | 8.2% | 375.3hPa | 2.9V | 00:00:00 | 00:32:10 | 00:00:00 | |
| DO3MHA-12 | 2026-08-31 16:38:26 | 47.93905 | 11.30730 | 64° | 113km/h | 7909m | 4.4m/s | -30.7°C | 8.3% | 375.5hPa | 2.9V | 02:56:00 | 00:32:09 | 00:00:00 | |
| OE5DRO-10 | 2026-08-31 16:38:19 | 47.93810 | 11.30469 | 61° | 113km/h | 7882m | 3.4m/s | -30.8°C | 11.4% | 377.0hPa | 2.9V | 02:56:00 | 00:00:00 | 00:00:00 | |
| DB0NH | 2026-08-31 16:38:17 | 47.93782 | 11.30395 | 62° | 113km/h | 7875m | 3.6m/s | -30.7°C | 11.4% | 377.3hPa | 2.9V | 02:56:00 | 00:32:00 | 00:00:00 | |
| DO3MHA-12 | 2026-08-31 16:38:16 | 47.93769 | 11.30357 | 63° | 113km/h | 7871m | 3.2m/s | -30.7°C | 11.7% | 377.6hPa | 2.9V | 00:00:00 | 00:31:59 | 00:00:00 | |
| DL6DJ-15 | 2026-08-31 16:38:09 | 47.93665 | 11.30053 | 61° | 110km/h | 7842m | 2.8m/s | -30.5°C | 12.6% | 379.1hPa | 2.9V | 00:00:00 | 00:00:00 | 00:00:00 | |
| DO3MHA-11 | 2026-08-31 16:38:07 | 47.93652 | 11.30016 | 63° | 111km/h | 7839m | 4.0m/s | -30.4°C | 13.8% | 379.3hPa | 2.9V | 00:00:00 | 00:31:50 | 00:00:00 | |
| NBG1-10 | 2026-08-31 16:38:06 | 47.93639 | 11.29980 | 63° | 111km/h | 7835m | 2.6m/s | -30.4°C | 14.1% | 379.4hPa | 2.9V | 00:00:00 | 00:31:49 | 00:00:00 | |
| DB0ND-19 | 2026-08-31 16:38:05 | 47.93626 | 11.29943 | 62° | 110km/h | 7832m | 4.2m/s | 0°C | -1.0% | -1.0hPa | 2.9V | 00:00:00 | 00:00:00 | 00:00:00 | |
| DB0UT-7 | 2026-08-31 16:38:00 | 47.93564 | 11.29752 | 64° | 113km/h | 7814m | 2.7m/s | -30.2°C | 14.9% | 380.6hPa | 2.9V | 00:00:00 | 00:31:43 | 00:00:00 | |
| DG1MFX-10 | 2026-08-31 16:37:58 | 47.93551 | 11.29714 | 64° | 113km/h | 7810m | 4.5m/s | -30.2°C | 14.3% | 380.8hPa | 2.9V | 02:56:00 | 00:00:00 | 00:00:00 | |
| DO3MHA-11 | 2026-08-31 16:37:57 | 47.93525 | 11.29638 | 63° | 113km/h | 7803m | 4.7m/s | -30.1°C | 16.2% | 381.2hPa | 2.9V | 00:00:00 | 00:31:40 | 00:00:00 | |
| DO3MHA-12 | 2026-08-31 16:37:56 | 47.93512 | 11.29601 | 63° | 113km/h | 7799m | 3.4m/s | -30.1°C | 16.7% | 381.4hPa | 2.9V | 02:56:00 | 00:31:39 | 00:00:00 | |
| OE5WHR-10 | 2026-08-31 16:37:50 | 47.93434 | 11.29376 | 65° | 111km/h | 7776m | 2.7m/s | 0°C | 0% | 0hPa | 2.9V | 02:56:00 | 00:00:00 | 00:00:00 | |
| DO3MHA-11 | 2026-08-31 16:37:47 | 47.93397 | 11.29261 | 65° | 111km/h | 7764m | 4.4m/s | -29.8°C | 22.1% | 383.2hPa | 2.9V | 02:56:00 | 00:31:30 | 00:00:00 | |
| DO3MHA-12 | 2026-08-31 16:37:46 | 47.93384 | 11.29223 | 65° | 111km/h | 7761m | 3.4m/s | -29.8°C | 22.5% | 383.4hPa | 2.9V | 00:00:00 | 00:31:29 | 00:00:00 | |
| OE5DRO-10 | 2026-08-31 16:37:41 | 47.93321 | 11.29034 | 62° | 113km/h | 7742m | 4.0m/s | -29.8°C | 26.4% | 384.4hPa | 2.9V | 00:00:00 | 00:00:00 | 00:00:00 | |
| DL6DJ-15 | 2026-08-31 16:37:38 | 47.93268 | 11.28886 | 62° | 111km/h | 7728m | 4.4m/s | -29.8°C | 28.9% | 385.2hPa | 2.9V | 00:00:00 | 00:00:00 | 00:00:00 | |
| DO3MHA-11 | 2026-08-31 16:37:37 | 47.93268 | 11.28886 | 63° | 113km/h | 7728m | 4.3m/s | -29.7°C | 30.4% | 385.1hPa | 2.9V | 00:00:00 | 00:31:20 | 00:00:00 | |
| DO3MHA-12 | 2026-08-31 16:37:36 | 47.93255 | 11.28849 | 63° | 113km/h | 7724m | 3.7m/s | -29.7°C | 30.4% | 385.3hPa | 2.9V | 00:00:00 | 00:31:19 | 00:00:00 | |
| NBG1-10 | 2026-08-31 16:37:33 | 47.93217 | 11.28734 | 64° | 113km/h | 7714m | 3.9m/s | -29.6°C | 30.6% | 385.9hPa | 2.9V | 02:56:00 | 00:31:16 | 00:00:00 | |
| DB0UT-7 | 2026-08-31 16:37:30 | 47.93178 | 11.28619 | 65° | 113km/h | 7704m | 3.8m/s | -29.6°C | 32.3% | 386.4hPa | 2.9V | 00:00:00 | 00:00:00 | 00:00:00 | |
| DO3MHA-11 | 2026-08-31 16:37:27 | 47.93141 | 11.28503 | 65° | 113km/h | 7694m | 2.9m/s | -29.5°C | 34.2% | 387.0hPa | 2.9V | 00:00:00 | 00:31:10 | 00:00:00 | |
| DO3MHA-12 | 2026-08-31 16:37:26 | 47.93128 | 11.28465 | 65° | 113km/h | 7691m | 3.0m/s | -29.5°C | 34.6% | 387.1hPa | 2.9V | 02:57:00 | 00:31:09 | 00:00:00 | |
| OE5DRO-10 | 2026-08-31 16:37:22 | 47.93080 | 11.28311 | 66° | 113km/h | 7677m | 3.3m/s | -29.4°C | 35.9% | 387.9hPa | 2.9V | 02:57:00 | 00:00:00 | 00:00:00 | |
| DO3MHA-11 | 2026-08-31 16:37:19 | 47.93020 | 11.28119 | 65° | 113km/h | 7660m | 2.6m/s | -29.3°C | 35.6% | 388.8hPa | 2.9V | 02:57:00 | 00:31:00 | 00:00:00 | |
| DO3MHA-12 | 2026-08-31 16:37:18 | 47.93008 | 11.28081 | 65° | 113km/h | 7656m | 4.4m/s | -29.3°C | 35.7% | 389.0hPa | 2.9V | 00:00:00 | 00:30:59 | 00:00:00 | |
| DG1MJG | 2026-08-31 16:37:15 | 47.93008 | 11.28081 | 65° | 113km/h | 7656m | 4.5m/s | -29.3°C | 34.1% | 389.1hPa | 2.9V | 02:57:00 | 00:00:00 | 00:00:00 | |
| DF3TZ-5 | 2026-08-31 16:37:12 | 47.92948 | 11.27889 | 66° | 113km/h | 7638m | 3.2m/s | -29.2°C | 34.9% | 390.0hPa | 2.9V | 00:00:00 | 00:00:00 | 00:00:00 | |
| DL6DJ-15 | 2026-08-31 16:37:07 | 47.92891 | 11.27693 | 66° | 111km/h | 7622m | 3.1m/s | -29.1°C | 36.0% | 391.0hPa | 2.9V | 00:00:00 | 00:00:00 | 00:00:00 | |
| DO3MHA-12 | 2026-08-31 16:37:06 | 47.92891 | 11.27693 | 67° | 113km/h | 7622m | 3.1m/s | -29.1°C | 37.6% | 390.9hPa | 2.9V | 00:00:00 | 00:30:49 | 00:00:00 | |
| OE5DRO-10 | 2026-08-31 16:37:03 | 47.92856 | 11.27576 | 67° | 113km/h | 7611m | 4.5m/s | -29.0°C | 38.3% | 391.5hPa | 2.9V | 00:00:00 | 00:00:00 | 00:00:00 | |
| DB0UT-7 | 2026-08-31 16:37:00 | 47.92821 | 11.27459 | 67° | 113km/h | 7601m | 2.9m/s | -28.9°C | 39.8% | 392.1hPa | 2.9V | 02:57:00 | 00:30:43 | 00:00:00 | |
| DO3MHA-11 | 2026-08-31 16:36:57 | 47.92789 | 11.27342 | 68° | 113km/h | 7591m | 3.3m/s | -28.8°C | 41.1% | 392.5hPa | 2.9V | 00:00:00 | 00:30:40 | 00:00:00 | |
| DO3MHA-12 | 2026-08-31 16:36:56 | 47.92778 | 11.27302 | 69° | 113km/h | 7588m | 3.0m/s | -28.8°C | 41.0% | 392.8hPa | 2.9V | 02:57:00 | 00:30:39 | 00:00:00 | |
| DO3MHA-11 | 2026-08-31 16:36:47 | 47.92682 | 11.26945 | 68° | 113km/h | 7559m | 3.4m/s | -28.5°C | 41.3% | 394.3hPa | 2.9V | 02:57:00 | 00:30:30 | 00:00:00 | |
| DO3MHA-12 | 2026-08-31 16:36:46 | 47.92671 | 11.26906 | 67° | 113km/h | 7556m | 3.1m/s | -28.5°C | 41.3% | 394.6hPa | 2.9V | 00:00:00 | 00:30:29 | 00:00:00 | |
| DG1MJG | 2026-08-31 16:36:45 | 47.92671 | 11.26906 | 68° | 113km/h | 7556m | 3.1m/s | -28.6°C | 39.8% | 394.6hPa | 2.9V | 02:58:00 | 00:00:00 | 00:00:00 | |
| OE5DRO-10 | 2026-08-31 16:36:44 | 47.92649 | 11.26827 | 68° | 111km/h | 7549m | 2.9m/s | -28.5°C | 41.3% | 394.9hPa | 2.9V | 00:00:00 | 00:00:00 | 00:00:00 | |
| DF3TZ-5 | 2026-08-31 16:36:41 | 47.92605 | 11.26670 | 68° | 111km/h | 7536m | 2.6m/s | -28.4°C | 40.4% | 395.7hPa | 2.9V | 00:00:00 | 00:00:00 | 00:00:00 | |
| DO3MHA-11 | 2026-08-31 16:36:37 | 47.92573 | 11.26551 | 68° | 111km/h | 7526m | 3.9m/s | -28.3°C | 42.8% | 396.2hPa | 2.9V | 00:00:00 | 00:30:20 | 00:00:00 | |
| DL6DJ-15 | 2026-08-31 16:36:36 | 47.92551 | 11.26473 | 66° | 113km/h | 7519m | 3.7m/s | -28.3°C | 41.3% | 396.6hPa | 2.9V | 00:00:00 | 00:00:00 | 00:00:00 | |
| OE5DXL-15 | 2026-08-31 16:36:30 | 47.92494 | 11.26280 | 68° | 111km/h | 7505m | 3.5m/s | -28.1°C | 42.8% | 397.3hPa | 2.9V | 00:00:00 | 00:00:00 | 00:00:00 | |
| DO3MHA-11 | 2026-08-31 16:36:27 | 47.92462 | 11.26165 | 67° | 111km/h | 7495m | 2.6m/s | -28.0°C | 43.1% | 397.9hPa | 2.9V | 00:00:00 | 00:30:10 | 00:00:00 | |
| DO3MHA-12 | 2026-08-31 16:36:26 | 47.92451 | 11.26126 | 68° | 111km/h | 7492m | 3.1m/s | -28.0°C | 42.8% | 398.1hPa | 2.9V | 02:58:00 | 00:30:09 | 00:00:00 | |
| OE5DRO-10 | 2026-08-31 16:36:25 | 47.92440 | 11.26087 | 68° | 111km/h | 7489m | 3.1m/s | -28.0°C | 42.8% | 398.2hPa | 2.9V | 02:58:00 | 00:00:00 | 00:00:00 | |
| DB0NH | 2026-08-31 16:36:17 | 47.92354 | 11.25780 | 68° | 110km/h | 7465m | 4.2m/s | -27.9°C | 47.4% | 399.5hPa | 2.9V | 00:00:00 | 00:30:00 | 00:00:00 | |
| DO3MHA-12 | 2026-08-31 16:36:16 | 47.92344 | 11.25742 | 68° | 111km/h | 7462m | 2.5m/s | -27.8°C | 48.3% | 399.8hPa | 2.9V | 00:00:00 | 00:29:59 | 00:00:00 | |
| DG1MJG | 2026-08-31 16:36:14 | 47.92333 | 11.25704 | 68° | 110km/h | 7458m | 4.3m/s | -27.9°C | 46.8% | 400.0hPa | 2.9V | 02:58:00 | 00:00:00 | 00:00:00 | |
| DF3TZ-5 | 2026-08-31 16:36:10 | 47.92268 | 11.25473 | 67° | 111km/h | 7439m | 4.1m/s | -27.7°C | 46.1% | 401.1hPa | 2.9V | 00:00:00 | 00:00:00 | 00:00:00 | |
| DO3MHA-11 | 2026-08-31 16:36:08 | 47.92245 | 11.25395 | 67° | 110km/h | 7433m | 3.7m/s | -27.5°C | 47.5% | 401.4hPa | 2.9V | 00:00:00 | 00:29:50 | 00:00:00 | |
| OE5DRO-10 | 2026-08-31 16:36:07 | 47.92234 | 11.25356 | 66° | 110km/h | 7430m | 2.7m/s | -27.5°C | 47.6% | 401.5hPa | 2.9V | 00:00:00 | 00:00:00 | 00:00:00 | |
| DO3MHA-12 | 2026-08-31 16:36:06 | 47.92234 | 11.25356 | 66° | 110km/h | 7430m | 2.7m/s | -27.5°C | 47.6% | 401.5hPa | 2.9V | 00:00:00 | 00:29:49 | 00:00:00 | |
| DL6DJ-15 | 2026-08-31 16:36:04 | 47.92188 | 11.25205 | 64° | 106km/h | 7417m | 2.9m/s | -27.4°C | 45.6% | 402.3hPa | 2.9V | 00:00:00 | 00:00:00 | 00:00:00 | |
| DB0UT-7 | 2026-08-31 16:36:00 | 47.92165 | 11.25132 | 67° | 110km/h | 7412m | 2.5m/s | -27.3°C | 47.1% | 402.6hPa | 2.9V | 00:00:00 | 00:29:43 | 00:00:00 | |
| DO3MHA-11 | 2026-08-31 16:35:57 | 47.92132 | 11.25020 | 67° | 111km/h | 7402m | 2.8m/s | -27.3°C | 47.2% | 403.1hPa | 2.9V | 00:00:00 | 00:29:40 | 00:00:00 | |
| DO3MHA-12 | 2026-08-31 16:35:56 | 47.92121 | 11.24981 | 68° | 111km/h | 7400m | 2.7m/s | -27.2°C | 47.4% | 403.3hPa | 2.9V | 02:58:00 | 00:29:39 | 00:00:00 | |
| DG1MFX-10 | 2026-08-31 16:35:55 | 47.92121 | 11.24981 | 68° | 111km/h | 7400m | 2.8m/s | -27.3°C | 45.8% | 403.3hPa | 2.9V | 02:59:00 | 00:00:00 | 00:00:00 | |
| NBG1-10 | 2026-08-31 16:35:54 | 47.92099 | 11.24903 | 67° | 111km/h | 7394m | 3.4m/s | -27.2°C | 47.3% | 403.6hPa | 2.9V | 02:58:00 | 00:29:37 | 00:00:00 | |
| DB0NH | 2026-08-31 16:35:47 | 47.92018 | 11.24636 | 66° | 88km/h | 7372m | 2.2m/s | -27.0°C | 47.4% | 404.8hPa | 2.9V | 00:00:00 | 00:29:30 | 00:00:00 | |
| DO3MHA-12 | 2026-08-31 16:35:46 | 47.92006 | 11.24599 | 66° | 110km/h | 7369m | 3.5m/s | -27.0°C | 47.0% | 404.9hPa | 2.9V | 00:00:00 | 00:29:29 | 00:00:00 | |
| DG1MJG | 2026-08-31 16:35:44 | 47.91995 | 11.24562 | 66° | 110km/h | 7366m | 2.3m/s | -27.0°C | 45.4% | 405.1hPa | 2.9V | 02:59:00 | 00:00:00 | 00:00:00 | |
| DF3TZ-5 | 2026-08-31 16:35:39 | 47.91915 | 11.24295 | 65° | 108km/h | 7346m | 2.4m/s | -26.8°C | 44.6% | 406.3hPa | 2.9V | 00:00:00 | 00:00:00 | 00:00:00 | |
| DO3MHA-11 | 2026-08-31 16:35:37 | 47.91904 | 11.24257 | 66° | 111km/h | 7343m | 3.5m/s | -26.8°C | 45.8% | 406.5hPa | 2.9V | 00:00:00 | 00:29:20 | 00:00:00 | |
| DO3MHA-12 | 2026-08-31 16:35:36 | 47.91892 | 11.24220 | 66° | 111km/h | 7340m | 3.4m/s | -26.7°C | 45.7% | 406.6hPa | 2.9V | 00:00:00 | 00:29:19 | 00:00:00 | |
| DG1MFX-10 | 2026-08-31 16:35:35 | 47.91892 | 11.24220 | 67° | 110km/h | 7340m | 3.5m/s | -26.8°C | 44.2% | 406.6hPa | 2.9V | 02:59:00 | 00:00:00 | 00:00:00 | |
| DL6DJ-15 | 2026-08-31 16:35:33 | 47.91858 | 11.24107 | 66° | 110km/h | 7329m | 3.0m/s | -26.7°C | 42.5% | 407.2hPa | 2.9V | 00:00:00 | 00:00:00 | 00:00:00 | |
| DB0UT-7 | 2026-08-31 16:35:30 | 47.91824 | 11.23992 | 67° | 111km/h | 7318m | 3.8m/s | -26.6°C | 42.0% | 407.7hPa | 2.9V | 02:59:00 | 00:00:00 | 00:00:00 | |
| OE5DRO-10 | 2026-08-31 16:35:28 | 47.91802 | 11.23915 | 67° | 111km/h | 7313m | 3.5m/s | -26.5°C | 40.5% | 408.1hPa | 2.7V | 02:59:00 | 00:00:00 | 00:00:00 | |
| DO3MHA-11 | 2026-08-31 16:35:27 | 47.91790 | 11.23876 | 67° | 110km/h | 7310m | 2.0m/s | -26.5°C | 39.9% | 408.2hPa | 2.9V | 00:00:00 | 00:29:10 | 00:00:00 | |
| NBG1-10 | 2026-08-31 16:35:21 | 47.91725 | 11.23646 | 68° | 111km/h | 7291m | 3.7m/s | -26.3°C | 38.9% | 409.3hPa | 2.9V | 00:00:00 | 00:29:04 | 00:00:00 | |
| DO3MHA-11 | 2026-08-31 16:35:17 | 47.91682 | 11.23494 | 67° | 113km/h | 7279m | 3.6m/s | -26.3°C | 30.6% | 409.9hPa | 2.9V | 02:59:00 | 00:29:00 | 00:00:00 | |
| DO3MHA-12 | 2026-08-31 16:35:16 | 47.91671 | 11.23455 | 67° | 113km/h | 7276m | 2.7m/s | -26.2°C | 28.4% | 410.2hPa | 2.9V | 00:00:00 | 00:28:59 | 00:00:00 | |
| DG1MFX-10 | 2026-08-31 16:35:14 | 47.91659 | 11.23416 | 67° | 115km/h | 7272m | 3.9m/s | -26.3°C | 26.3% | 410.4hPa | 2.9V | 02:59:00 | 00:00:00 | 00:00:00 | |
| DG1MJG | 2026-08-31 16:35:13 | 47.91647 | 11.23377 | 67° | 115km/h | 7269m | 1.9m/s | -26.3°C | 26.9% | 410.5hPa | 2.9V | 02:59:00 | 00:00:00 | 00:00:00 | |
| OE5DRO-10 | 2026-08-31 16:35:09 | 47.91588 | 11.23180 | 67° | 111km/h | 7255m | 3.5m/s | -26.2°C | 34.6% | 411.3hPa | 2.9V | 00:00:00 | 00:00:00 | 00:00:00 | |
| DF3TZ-5 | 2026-08-31 16:35:08 | 47.91567 | 11.23103 | 68° | 110km/h | 7249m | 3.5m/s | 0°C | -1.0% | 411.8hPa | 2.9V | 00:00:00 | 00:00:00 | 00:00:00 | |
| DO3MHA-11 | 2026-08-31 16:35:07 | 47.91567 | 11.23103 | 69° | 110km/h | 7249m | 3.5m/s | -26.1°C | 34.0% | 411.7hPa | 2.9V | 00:00:00 | 00:28:50 | 00:00:00 | |
| DO3MHA-12 | 2026-08-31 16:35:06 | 47.91557 | 11.23064 | 69° | 110km/h | 7246m | 2.6m/s | -26.1°C | 34.0% | 411.9hPa | 2.9V | 00:00:00 | 00:28:49 | 00:00:00 | |
| DL6DJ-15 | 2026-08-31 16:35:02 | 47.91516 | 11.22911 | 68° | 110km/h | 7232m | 3.0m/s | -26.0°C | 30.5% | 412.6hPa | 2.9V | 00:00:00 | 00:00:00 | 00:00:00 | |
| OE5DXL-15 | 2026-08-31 16:35:00 | 47.91495 | 11.22834 | 68° | 110km/h | 7226m | 2.9m/s | -25.9°C | 30.6% | 413.0hPa | 2.9V | 00:00:00 | 00:00:00 | 00:00:00 | |
| DO3MHA-11 | 2026-08-31 16:34:57 | 47.91462 | 11.22719 | 66° | 110km/h | 7217m | 2.7m/s | -25.9°C | 30.6% | 413.5hPa | 2.9V | 00:00:00 | 00:28:40 | 00:00:00 | |
| DO3MHA-12 | 2026-08-31 16:34:56 | 47.91451 | 11.22681 | 67° | 110km/h | 7215m | 2.3m/s | -25.8°C | 30.6% | 413.7hPa | 2.9V | 02:59:00 | 00:28:39 | 00:00:00 | |
| DG1MFX-10 | 2026-08-31 16:34:53 | 47.91429 | 11.22603 | 69° | 111km/h | 7209m | 2.7m/s | -25.8°C | 29.3% | 414.0hPa | 2.9V | 03:00:00 | 00:00:00 | 00:00:00 | |
| OE5DRO-10 | 2026-08-31 16:34:50 | 47.91389 | 11.22449 | 71° | 110km/h | 7195m | 3.4m/s | -25.7°C | 29.7% | 414.7hPa | 2.9V | 00:00:00 | 00:00:00 | 00:00:00 | |
| DO3MHA-11 | 2026-08-31 16:34:47 | 47.91361 | 11.22334 | 69° | 110km/h | 7187m | 1.6m/s | -25.5°C | 29.5% | 415.2hPa | 2.9V | 02:59:00 | 00:28:30 | 00:00:00 | |
| DO3MHA-12 | 2026-08-31 16:34:46 | 47.91351 | 11.22295 | 69° | 110km/h | 7184m | 4.2m/s | -25.5°C | 29.3% | 415.4hPa | 2.9V | 00:00:00 | 00:28:29 | 00:00:00 | |
| DG1MJG | 2026-08-31 16:34:42 | 47.91319 | 11.22179 | 68° | 110km/h | 7173m | 2.9m/s | -25.5°C | 27.9% | 416.0hPa | 2.9V | 03:00:00 | 00:00:00 | 00:00:00 | |
| DO3MHA-11 | 2026-08-31 16:34:37 | 47.91256 | 11.21949 | 69° | 110km/h | 7153m | 3.0m/s | -25.3°C | 29.3% | 417.1hPa | 2.9V | 00:00:00 | 00:28:20 | 00:00:00 | |
| DO3MHA-12 | 2026-08-31 16:34:36 | 47.91246 | 11.21911 | 69° | 110km/h | 7149m | 3.3m/s | -25.2°C | 29.3% | 417.3hPa | 2.9V | 00:00:00 | 00:28:19 | 00:00:00 | |
| DG1MFX-10 | 2026-08-31 16:34:33 | 47.91225 | 11.21834 | 69° | 111km/h | 7143m | 3.2m/s | -25.2°C | 28.2% | 417.7hPa | 2.9V | 03:00:00 | 00:00:00 | 00:00:00 | |
| OE5DRO-10 | 2026-08-31 16:34:31 | 47.91193 | 11.21717 | 68° | 111km/h | 7134m | 2.5m/s | -25.1°C | 29.2% | 418.2hPa | 2.9V | 00:00:00 | 00:00:00 | 00:00:00 | |
| DB0UT-7 | 2026-08-31 16:34:30 | 47.91182 | 11.21679 | 68° | 111km/h | 7130m | 3.9m/s | -25.0°C | 28.8% | 418.4hPa | 2.7V | 00:00:00 | 00:00:00 | 00:00:00 | |
| DO3MHA-11 | 2026-08-31 16:34:27 | 47.91151 | 11.21564 | 68° | 111km/h | 7120m | 2.5m/s | -25.0°C | 26.9% | 418.9hPa | 2.7V | 00:00:00 | 00:28:10 | 00:00:00 | |
| DO3MHA-12 | 2026-08-31 16:34:26 | 47.91141 | 11.21526 | 69° | 111km/h | 7118m | 3.2m/s | -25.0°C | 26.6% | 419.1hPa | 2.7V | 00:00:00 | 00:28:09 | 00:00:00 | |
| DO3MHA-11 | 2026-08-31 16:34:17 | 47.91043 | 11.21176 | 68° | 110km/h | 7087m | 2.9m/s | -24.8°C | 29.1% | 420.9hPa | 2.9V | 00:00:00 | 00:28:00 | 00:00:00 | |
| DO3MHA-12 | 2026-08-31 16:34:16 | 47.91032 | 11.21138 | 67° | 110km/h | 7084m | 2.1m/s | -24.8°C | 29.3% | 421.0hPa | 2.9V | 03:00:00 | 00:27:59 | 00:00:00 | |
| NBG1-10 | 2026-08-31 16:34:14 | 47.91010 | 11.21062 | 68° | 110km/h | 7078m | 1.5m/s | -24.8°C | 30.3% | 421.3hPa | 2.9V | 00:00:00 | 00:27:57 | 00:00:00 | |
| OE5DRO-10 | 2026-08-31 16:34:12 | 47.90989 | 11.20986 | 68° | 111km/h | 7073m | 2.0m/s | -24.8°C | 30.6% | 421.7hPa | 2.7V | 00:00:00 | 00:00:00 | 00:00:00 | |
| DO3MHA-11 | 2026-08-31 16:34:07 | 47.90936 | 11.20798 | 68° | 111km/h | 7056m | 3.7m/s | -24.7°C | 33.8% | 422.8hPa | 2.7V | 03:00:00 | 00:27:50 | 00:00:00 | |
| DO3MHA-12 | 2026-08-31 16:34:06 | 47.90926 | 11.20759 | 68° | 111km/h | 7054m | 3.3m/s | -24.7°C | 35.0% | 422.9hPa | 2.7V | 00:00:00 | 00:27:49 | 00:00:00 | |
| OE5DXL-15 | 2026-08-31 16:34:00 | 47.90864 | 11.20524 | 69° | 110km/h | 7034m | 4.4m/s | -24.5°C | 39.7% | 424.1hPa | 2.7V | 00:00:00 | 00:00:00 | 00:00:00 | |
| DO3MHA-11 | 2026-08-31 16:33:57 | 47.90832 | 11.20405 | 69° | 110km/h | 7023m | 3.0m/s | -24.4°C | 39.8% | 424.6hPa | 2.9V | 00:00:00 | 00:27:40 | 00:00:00 | |
| DO3MHA-12 | 2026-08-31 16:33:56 | 47.90822 | 11.20366 | 69° | 108km/h | 7020m | 3.5m/s | -24.4°C | 39.8% | 424.8hPa | 2.9V | 00:00:00 | 00:27:39 | 00:00:00 | |
| OE5DRO-10 | 2026-08-31 16:33:53 | 47.90792 | 11.20250 | 69° | 108km/h | 7011m | 3.0m/s | -24.3°C | 36.7% | 425.3hPa | 2.7V | 00:00:00 | 00:00:00 | 00:00:00 | |
| DG1MFX-10 | 2026-08-31 16:33:51 | 47.90781 | 11.20212 | 68° | 108km/h | 7008m | 3.7m/s | -24.4°C | 30.3% | 425.6hPa | 2.7V | 03:01:00 | 00:00:00 | 00:00:00 | |
| DO3MHA-11 | 2026-08-31 16:33:47 | 47.90730 | 11.20026 | 68° | 110km/h | 6992m | 3.4m/s | -24.2°C | 19.7% | 426.4hPa | 2.7V | 00:00:00 | 00:27:30 | 00:00:00 | |
| DO3MHA-12 | 2026-08-31 16:33:46 | 47.90719 | 11.19989 | 68° | 110km/h | 6989m | 3.4m/s | -24.1°C | 16.6% | 426.7hPa | 2.7V | 00:00:00 | 00:27:29 | 00:00:00 | |
| NBG1-10 | 2026-08-31 16:33:41 | 47.90668 | 11.19798 | 69° | 108km/h | 6972m | 3.6m/s | -24.0°C | 13.2% | 427.6hPa | 2.7V | 00:00:00 | 00:27:24 | 00:00:00 | |
| DO3MHA-11 | 2026-08-31 16:33:37 | 47.90628 | 11.19645 | 69° | 108km/h | 6961m | 2.0m/s | -23.9°C | 13.1% | 428.4hPa | 2.7V | 00:00:00 | 00:27:20 | 00:00:00 | |
| DO3MHA-12 | 2026-08-31 16:33:36 | 47.90618 | 11.19608 | 69° | 108km/h | 6958m | 4.0m/s | -23.8°C | 13.1% | 428.6hPa | 2.7V | 03:00:00 | 00:27:19 | 00:00:00 | |
| OE5DRO-10 | 2026-08-31 16:33:34 | 47.90599 | 11.19532 | 69° | 108km/h | 6951m | 2.9m/s | -23.8°C | 13.0% | 428.9hPa | 2.7V | 03:00:00 | 00:00:00 | 00:00:00 | |
| DG1MFX-10 | 2026-08-31 16:33:31 | 47.90567 | 11.19421 | 68° | 108km/h | 6942m | 3.2m/s | -23.8°C | 13.2% | 429.6hPa | 2.9V | 03:01:00 | 00:00:00 | 00:00:00 | |
| OE5DXL-15 | 2026-08-31 16:33:30 | 47.90556 | 11.19383 | 67° | 108km/h | 6939m | 3.1m/s | -23.7°C | 14.0% | 429.6hPa | 2.9V | 00:00:00 | 00:00:00 | 00:00:00 | |
| DL6DJ-15 | 2026-08-31 16:33:29 | 47.90545 | 11.19345 | 65° | 110km/h | 6935m | 4.5m/s | -23.7°C | 13.2% | 429.9hPa | 2.9V | 00:00:00 | 00:00:00 | 00:00:00 | |
| DO3MHA-11 | 2026-08-31 16:33:27 | 47.90521 | 11.19270 | 66° | 110km/h | 6928m | 3.3m/s | -23.6°C | 13.8% | 430.3hPa | 2.9V | 03:01:00 | 00:27:10 | 00:00:00 | |
| DO3MHA-12 | 2026-08-31 16:33:24 | 47.90489 | 11.19157 | 69° | 110km/h | 6920m | 3.4m/s | -23.5°C | 13.8% | 430.8hPa | 2.9V | 00:00:00 | 00:27:07 | 00:00:00 | |
| DO3MHA-11 | 2026-08-31 16:33:17 | 47.90419 | 11.18899 | 67° | 111km/h | 6896m | 3.2m/s | -23.4°C | 13.7% | 432.1hPa | 2.9V | 00:00:00 | 00:27:00 | 00:00:00 | |
| DG1MFX-10 | 2026-08-31 16:33:10 | 47.90355 | 11.18668 | 69° | 110km/h | 6878m | 3.1m/s | -23.3°C | 12.5% | 433.4hPa | 2.9V | 03:01:00 | 00:00:00 | 00:00:00 | |
| NBG1-10 | 2026-08-31 16:33:08 | 47.90322 | 11.18552 | 67° | 110km/h | 6867m | 3.1m/s | -23.2°C | 13.0% | 434.0hPa | 2.9V | 00:00:00 | 00:26:51 | 00:00:00 | |
| DO3MHA-11 | 2026-08-31 16:33:07 | 47.90311 | 11.18514 | 67° | 108km/h | 6864m | 3.8m/s | -23.1°C | 13.0% | 434.2hPa | 2.9V | 00:00:00 | 00:26:50 | 00:00:00 | |
| DO3MHA-12 | 2026-08-31 16:33:04 | 47.90279 | 11.18402 | 70° | 110km/h | 6853m | 3.9m/s | -23.0°C | 12.8% | 434.7hPa | 2.9V | 00:00:00 | 00:26:47 | 00:00:00 | |
| DL6DJ-15 | 2026-08-31 16:32:58 | 47.90228 | 11.18172 | 70° | 110km/h | 6833m | 3.8m/s | -22.9°C | 12.0% | 436.0hPa | 2.9V | 00:00:00 | 00:00:00 | 00:00:00 | |
| DO3MHA-11 | 2026-08-31 16:32:57 | 47.90218 | 11.18132 | 70° | 113km/h | 6829m | 3.8m/s | -22.9°C | 12.7% | 436.2hPa | 2.9V | 00:00:00 | 00:26:40 | 00:00:00 | |
| OE5DRO-10 | 2026-08-31 16:32:56 | 47.90208 | 11.18094 | 68° | 111km/h | 6825m | 5.1m/s | -22.8°C | 12.7% | 436.5hPa | 2.9V | 00:00:00 | 00:00:00 | 00:00:00 | |
| DO3MHA-12 | 2026-08-31 16:32:54 | 47.90186 | 11.18017 | 67° | 111km/h | 6815m | 5.5m/s | -22.8°C | 13.0% | 437.1hPa | 2.9V | 00:00:00 | 00:26:37 | 00:00:00 | |
| DG1MFX-10 | 2026-08-31 16:32:49 | 47.90140 | 11.17861 | 68° | 113km/h | 6796m | 3.8m/s | -22.7°C | 12.6% | 438.4hPa | 2.9V | 03:01:00 | 00:00:00 | 00:00:00 | |
| DO3MHA-11 | 2026-08-31 16:32:47 | 47.90108 | 11.17743 | 68° | 110km/h | 6781m | 4.9m/s | -22.6°C | 13.4% | 439.1hPa | 2.9V | 03:01:00 | 00:26:30 | 00:00:00 | |
| DO3MHA-12 | 2026-08-31 16:32:44 | 47.90077 | 11.17629 | 69° | 111km/h | 6767m | 6.3m/s | -22.5°C | 13.5% | 439.9hPa | 2.9V | 03:01:00 | 00:26:27 | 00:00:00 | |
| DG1MJG | 2026-08-31 16:32:40 | 47.90047 | 11.17515 | 70° | 110km/h | 6753m | 4.7m/s | -22.4°C | 12.8% | 440.9hPa | 2.9V | 03:01:00 | 00:00:00 | 00:00:00 | |
| Es werden nur die letzten 3500 von 3801 Frames angezeigt. GPX/KML und Diagramme bleiben verfügbar. | |||||||||||||||